<?xml version="1.0" encoding="UTF-8" standalone="no" ?>
<gpx xmlns="http://www.topografix.com/GPX/1/1" xmlns:xsi="http://www.w3.org/2001/XMLSchema-instance" xsi:schemaLocation="http://www.topografix.com/GPX/1/1 http://www.topografix.com/GPX/1/1/gpx.xsd" version="1.1" creator="VisuGPX - https://www.visugpx.com">
  <metadata>
    <name>Bruxelles-Kaliningrad 20: Dźwirzyno-&amp;gt; Dąbki</name>
  </metadata>
  <trk>
    <name><![CDATA[Day 20: Dźwirzyno-> Dąbki]]></name>
    <extensions>
      <line xmlns="http://www.topografix.com/GPX/gpx_style/0/2">
        <color>0000FF</color>
        <width>4</width>
      </line>
    </extensions>
    <trkseg>
      <trkpt lat="54.15114" lon="15.40167">
        <ele>39.66126</ele>
        <time>2024-07-28T08:29:15.985Z</time>
      </trkpt>
      <trkpt lat="54.15109" lon="15.40153">
        <ele>39.66126</ele>
        <time>2024-07-28T08:29:18.681Z</time>
      </trkpt>
      <trkpt lat="54.15105" lon="15.40139">
        <ele>39.66126</ele>
        <time>2024-07-28T08:29:21.667Z</time>
      </trkpt>
      <trkpt lat="54.15105" lon="15.40123">
        <ele>39.66126</ele>
        <time>2024-07-28T08:29:24.665Z</time>
      </trkpt>
      <trkpt lat="54.15104" lon="15.40106">
        <ele>39.66126</ele>
        <time>2024-07-28T08:29:27.667Z</time>
      </trkpt>
      <trkpt lat="54.15103" lon="15.40091">
        <ele>39.66126</ele>
        <time>2024-07-28T08:29:30.686Z</time>
      </trkpt>
      <trkpt lat="54.15098" lon="15.40078">
        <ele>39.66126</ele>
        <time>2024-07-28T08:29:33.686Z</time>
      </trkpt>
      <trkpt lat="54.15093" lon="15.40063">
        <ele>39.66126</ele>
        <time>2024-07-28T08:29:36.667Z</time>
      </trkpt>
      <trkpt lat="54.15089" lon="15.40049">
        <ele>39.66126</ele>
        <time>2024-07-28T08:29:39.655Z</time>
      </trkpt>
      <trkpt lat="54.15095" lon="15.40036">
        <ele>39.66126</ele>
        <time>2024-07-28T08:29:44.671Z</time>
      </trkpt>
      <trkpt lat="54.151" lon="15.4002">
        <ele>39.618665</ele>
        <time>2024-07-28T08:29:48.677Z</time>
      </trkpt>
      <trkpt lat="54.1511" lon="15.40014">
        <ele>39.549595</ele>
        <time>2024-07-28T08:29:51.818Z</time>
      </trkpt>
      <trkpt lat="54.15119" lon="15.40007">
        <ele>39.489663</ele>
        <time>2024-07-28T08:29:54.753Z</time>
      </trkpt>
      <trkpt lat="54.15129" lon="15.40009">
        <ele>39.422363</ele>
        <time>2024-07-28T08:29:59.656Z</time>
      </trkpt>
      <trkpt lat="54.15134" lon="15.40007">
        <ele>39.386099</ele>
        <time>2024-07-28T08:30:11.521Z</time>
      </trkpt>
      <trkpt lat="54.1513" lon="15.39982">
        <ele>39.287196</ele>
        <time>2024-07-28T08:33:06.667Z</time>
      </trkpt>
      <trkpt lat="54.15134" lon="15.39999">
        <ele>39.217572</ele>
        <time>2024-07-28T08:33:08.651Z</time>
      </trkpt>
      <trkpt lat="54.15141" lon="15.39988">
        <ele>39.15495</ele>
        <time>2024-07-28T08:33:19.651Z</time>
      </trkpt>
      <trkpt lat="54.15146" lon="15.39972">
        <ele>39.086626</ele>
        <time>2024-07-28T08:33:23.671Z</time>
      </trkpt>
      <trkpt lat="54.15153" lon="15.3996">
        <ele>39.020486</ele>
        <time>2024-07-28T08:33:27.662Z</time>
      </trkpt>
      <trkpt lat="54.15161" lon="15.39953">
        <ele>38.960489</ele>
        <time>2024-07-28T08:33:32.665Z</time>
      </trkpt>
      <trkpt lat="54.15169" lon="15.39944">
        <ele>38.894645</ele>
        <time>2024-07-28T08:33:36.669Z</time>
      </trkpt>
      <trkpt lat="54.15179" lon="15.39933">
        <ele>38.819528</ele>
        <time>2024-07-28T08:33:40.664Z</time>
      </trkpt>
      <trkpt lat="54.15188" lon="15.39922">
        <ele>38.748403</ele>
        <time>2024-07-28T08:33:44.675Z</time>
      </trkpt>
      <trkpt lat="54.15195" lon="15.39913">
        <ele>38.686944</ele>
        <time>2024-07-28T08:33:47.679Z</time>
      </trkpt>
      <trkpt lat="54.15203" lon="15.39904">
        <ele>38.623309</ele>
        <time>2024-07-28T08:33:50.675Z</time>
      </trkpt>
      <trkpt lat="54.15211" lon="15.39892">
        <ele>38.555662</ele>
        <time>2024-07-28T08:33:53.666Z</time>
      </trkpt>
      <trkpt lat="54.15219" lon="15.39879">
        <ele>38.484715</ele>
        <time>2024-07-28T08:33:56.673Z</time>
      </trkpt>
      <trkpt lat="54.15226" lon="15.39866">
        <ele>38.431104</ele>
        <time>2024-07-28T08:33:59.673Z</time>
      </trkpt>
      <trkpt lat="54.15232" lon="15.39849">
        <ele>38.373698</ele>
        <time>2024-07-28T08:34:02.660Z</time>
      </trkpt>
      <trkpt lat="54.15236" lon="15.39832">
        <ele>38.317448</ele>
        <time>2024-07-28T08:34:05.639Z</time>
      </trkpt>
      <trkpt lat="54.15248" lon="15.39826">
        <ele>38.258619</ele>
        <time>2024-07-28T08:34:08.648Z</time>
      </trkpt>
      <trkpt lat="54.15257" lon="15.39833">
        <ele>38.206341</ele>
        <time>2024-07-28T08:34:11.674Z</time>
      </trkpt>
      <trkpt lat="54.15267" lon="15.39838">
        <ele>38.155965</ele>
        <time>2024-07-28T08:34:14.642Z</time>
      </trkpt>
      <trkpt lat="54.15275" lon="15.39843">
        <ele>38.110547</ele>
        <time>2024-07-28T08:34:17.681Z</time>
      </trkpt>
      <trkpt lat="54.15284" lon="15.3985">
        <ele>38.060207</ele>
        <time>2024-07-28T08:34:20.667Z</time>
      </trkpt>
      <trkpt lat="54.15295" lon="15.39856">
        <ele>38.006248</ele>
        <time>2024-07-28T08:34:23.701Z</time>
      </trkpt>
      <trkpt lat="54.15305" lon="15.39864">
        <ele>37.951524</ele>
        <time>2024-07-28T08:34:26.663Z</time>
      </trkpt>
      <trkpt lat="54.15315" lon="15.39871">
        <ele>37.893225</ele>
        <time>2024-07-28T08:34:29.670Z</time>
      </trkpt>
      <trkpt lat="54.15326" lon="15.39877">
        <ele>37.835696</ele>
        <time>2024-07-28T08:34:32.685Z</time>
      </trkpt>
      <trkpt lat="54.15339" lon="15.39881">
        <ele>37.771086</ele>
        <time>2024-07-28T08:34:35.667Z</time>
      </trkpt>
      <trkpt lat="54.15351" lon="15.3988">
        <ele>37.708804</ele>
        <time>2024-07-28T08:34:38.646Z</time>
      </trkpt>
      <trkpt lat="54.15362" lon="15.3988">
        <ele>37.654557</ele>
        <time>2024-07-28T08:34:41.671Z</time>
      </trkpt>
      <trkpt lat="54.15374" lon="15.39879">
        <ele>37.595313</ele>
        <time>2024-07-28T08:34:44.678Z</time>
      </trkpt>
      <trkpt lat="54.15386" lon="15.39878">
        <ele>37.729215</ele>
        <time>2024-07-28T08:34:47.678Z</time>
      </trkpt>
      <trkpt lat="54.15397" lon="15.39876">
        <ele>37.929651</ele>
        <time>2024-07-28T08:34:50.662Z</time>
      </trkpt>
      <trkpt lat="54.15408" lon="15.39873">
        <ele>38.137821</ele>
        <time>2024-07-28T08:34:53.668Z</time>
      </trkpt>
      <trkpt lat="54.15419" lon="15.39871">
        <ele>38.341252</ele>
        <time>2024-07-28T08:34:56.660Z</time>
      </trkpt>
      <trkpt lat="54.1543" lon="15.39879">
        <ele>38.554558</ele>
        <time>2024-07-28T08:34:59.647Z</time>
      </trkpt>
      <trkpt lat="54.15438" lon="15.3989">
        <ele>38.742211</ele>
        <time>2024-07-28T08:35:02.668Z</time>
      </trkpt>
      <trkpt lat="54.15448" lon="15.39895">
        <ele>38.927282</ele>
        <time>2024-07-28T08:35:06.651Z</time>
      </trkpt>
      <trkpt lat="54.1546" lon="15.39898">
        <ele>39.139031</ele>
        <time>2024-07-28T08:35:10.677Z</time>
      </trkpt>
      <trkpt lat="54.15469" lon="15.39901">
        <ele>39.315241</ele>
        <time>2024-07-28T08:35:13.661Z</time>
      </trkpt>
      <trkpt lat="54.15479" lon="15.39902">
        <ele>39.492754</ele>
        <time>2024-07-28T08:35:16.654Z</time>
      </trkpt>
      <trkpt lat="54.1549" lon="15.39902">
        <ele>39.698803</ele>
        <time>2024-07-28T08:35:19.669Z</time>
      </trkpt>
      <trkpt lat="54.15501" lon="15.39902">
        <ele>39.885046</ele>
        <time>2024-07-28T08:35:22.689Z</time>
      </trkpt>
      <trkpt lat="54.15511" lon="15.39901">
        <ele>40.069652</ele>
        <time>2024-07-28T08:35:25.670Z</time>
      </trkpt>
      <trkpt lat="54.15521" lon="15.399">
        <ele>40.250475</ele>
        <time>2024-07-28T08:35:28.682Z</time>
      </trkpt>
      <trkpt lat="54.15532" lon="15.39899">
        <ele>40.451328</ele>
        <time>2024-07-28T08:35:32.671Z</time>
      </trkpt>
      <trkpt lat="54.1554" lon="15.39912">
        <ele>40.650707</ele>
        <time>2024-07-28T08:35:36.652Z</time>
      </trkpt>
      <trkpt lat="54.1554" lon="15.39929">
        <ele>40.827612</ele>
        <time>2024-07-28T08:35:39.668Z</time>
      </trkpt>
      <trkpt lat="54.15542" lon="15.39946">
        <ele>40.834535</ele>
        <time>2024-07-28T08:35:42.649Z</time>
      </trkpt>
      <trkpt lat="54.15542" lon="15.39963">
        <ele>40.839999</ele>
        <time>2024-07-28T08:35:45.653Z</time>
      </trkpt>
      <trkpt lat="54.15548" lon="15.39977">
        <ele>40.845304</ele>
        <time>2024-07-28T08:35:48.657Z</time>
      </trkpt>
      <trkpt lat="54.15557" lon="15.39981">
        <ele>40.850645</ele>
        <time>2024-07-28T08:35:53.669Z</time>
      </trkpt>
      <trkpt lat="54.15566" lon="15.39975">
        <ele>40.85615</ele>
        <time>2024-07-28T08:35:57.658Z</time>
      </trkpt>
      <trkpt lat="54.15576" lon="15.39967">
        <ele>40.862107</ele>
        <time>2024-07-28T08:36:01.668Z</time>
      </trkpt>
      <trkpt lat="54.15585" lon="15.39963">
        <ele>40.867003</ele>
        <time>2024-07-28T08:36:04.687Z</time>
      </trkpt>
      <trkpt lat="54.15594" lon="15.39959">
        <ele>40.872197</ele>
        <time>2024-07-28T08:36:07.668Z</time>
      </trkpt>
      <trkpt lat="54.15604" lon="15.39957">
        <ele>40.877359</ele>
        <time>2024-07-28T08:36:10.690Z</time>
      </trkpt>
      <trkpt lat="54.15616" lon="15.39957">
        <ele>40.883794</ele>
        <time>2024-07-28T08:36:14.665Z</time>
      </trkpt>
      <trkpt lat="54.15625" lon="15.39958">
        <ele>40.889042</ele>
        <time>2024-07-28T08:36:18.665Z</time>
      </trkpt>
      <trkpt lat="54.15635" lon="15.39958">
        <ele>40.894609</ele>
        <time>2024-07-28T08:36:22.651Z</time>
      </trkpt>
      <trkpt lat="54.15645" lon="15.3996">
        <ele>40.899725</ele>
        <time>2024-07-28T08:36:25.654Z</time>
      </trkpt>
      <trkpt lat="54.15655" lon="15.3996">
        <ele>40.905398</ele>
        <time>2024-07-28T08:36:28.659Z</time>
      </trkpt>
      <trkpt lat="54.15666" lon="15.39959">
        <ele>40.911634</ele>
        <time>2024-07-28T08:36:31.683Z</time>
      </trkpt>
      <trkpt lat="54.15677" lon="15.39955">
        <ele>40.917522</ele>
        <time>2024-07-28T08:36:34.661Z</time>
      </trkpt>
      <trkpt lat="54.15687" lon="15.39951">
        <ele>40.923282</ele>
        <time>2024-07-28T08:36:37.666Z</time>
      </trkpt>
      <trkpt lat="54.15697" lon="15.39945">
        <ele>40.913237</ele>
        <time>2024-07-28T08:36:40.678Z</time>
      </trkpt>
      <trkpt lat="54.15709" lon="15.39939">
        <ele>40.868131</ele>
        <time>2024-07-28T08:36:43.642Z</time>
      </trkpt>
      <trkpt lat="54.15719" lon="15.39933">
        <ele>40.825917</ele>
        <time>2024-07-28T08:36:46.653Z</time>
      </trkpt>
      <trkpt lat="54.15729" lon="15.39925">
        <ele>40.782579</ele>
        <time>2024-07-28T08:36:49.648Z</time>
      </trkpt>
      <trkpt lat="54.1574" lon="15.39918">
        <ele>40.738095</ele>
        <time>2024-07-28T08:36:52.680Z</time>
      </trkpt>
      <trkpt lat="54.15752" lon="15.39912">
        <ele>40.692319</ele>
        <time>2024-07-28T08:36:55.671Z</time>
      </trkpt>
      <trkpt lat="54.15763" lon="15.39905">
        <ele>40.647086</ele>
        <time>2024-07-28T08:36:58.658Z</time>
      </trkpt>
      <trkpt lat="54.15774" lon="15.39898">
        <ele>40.603204</ele>
        <time>2024-07-28T08:37:01.668Z</time>
      </trkpt>
      <trkpt lat="54.15785" lon="15.39892">
        <ele>40.557912</ele>
        <time>2024-07-28T08:37:04.682Z</time>
      </trkpt>
      <trkpt lat="54.15796" lon="15.39885">
        <ele>40.514427</ele>
        <time>2024-07-28T08:37:07.662Z</time>
      </trkpt>
      <trkpt lat="54.15806" lon="15.39878">
        <ele>40.469601</ele>
        <time>2024-07-28T08:37:10.663Z</time>
      </trkpt>
      <trkpt lat="54.15818" lon="15.39871">
        <ele>40.422932</ele>
        <time>2024-07-28T08:37:13.656Z</time>
      </trkpt>
      <trkpt lat="54.1583" lon="15.39866">
        <ele>40.376114</ele>
        <time>2024-07-28T08:37:16.649Z</time>
      </trkpt>
      <trkpt lat="54.1584" lon="15.39859">
        <ele>40.334138</ele>
        <time>2024-07-28T08:37:19.665Z</time>
      </trkpt>
      <trkpt lat="54.15852" lon="15.39854">
        <ele>40.287819</ele>
        <time>2024-07-28T08:37:22.670Z</time>
      </trkpt>
      <trkpt lat="54.15863" lon="15.3985">
        <ele>40.243677</ele>
        <time>2024-07-28T08:37:25.667Z</time>
      </trkpt>
      <trkpt lat="54.15875" lon="15.39846">
        <ele>40.435299</ele>
        <time>2024-07-28T08:37:28.671Z</time>
      </trkpt>
      <trkpt lat="54.15886" lon="15.39843">
        <ele>40.641667</ele>
        <time>2024-07-28T08:37:31.665Z</time>
      </trkpt>
      <trkpt lat="54.15896" lon="15.39839">
        <ele>40.818011</ele>
        <time>2024-07-28T08:37:34.670Z</time>
      </trkpt>
      <trkpt lat="54.15906" lon="15.39836">
        <ele>41.002941</ele>
        <time>2024-07-28T08:37:38.654Z</time>
      </trkpt>
      <trkpt lat="54.1591" lon="15.39823">
        <ele>41.170989</ele>
        <time>2024-07-28T08:37:43.655Z</time>
      </trkpt>
      <trkpt lat="54.15913" lon="15.39804">
        <ele>41.376685</ele>
        <time>2024-07-28T08:37:48.659Z</time>
      </trkpt>
      <trkpt lat="54.15922" lon="15.39808">
        <ele>41.540998</ele>
        <time>2024-07-28T08:37:56.656Z</time>
      </trkpt>
      <trkpt lat="54.15924" lon="15.39825">
        <ele>41.734934</ele>
        <time>2024-07-28T08:37:59.649Z</time>
      </trkpt>
      <trkpt lat="54.15927" lon="15.39841">
        <ele>41.910739</ele>
        <time>2024-07-28T08:38:02.663Z</time>
      </trkpt>
      <trkpt lat="54.1593" lon="15.39857">
        <ele>42.092566</ele>
        <time>2024-07-28T08:38:05.667Z</time>
      </trkpt>
      <trkpt lat="54.15934" lon="15.39875">
        <ele>42.288077</ele>
        <time>2024-07-28T08:38:08.681Z</time>
      </trkpt>
      <trkpt lat="54.15937" lon="15.39893">
        <ele>42.490697</ele>
        <time>2024-07-28T08:38:11.672Z</time>
      </trkpt>
      <trkpt lat="54.15939" lon="15.39913">
        <ele>42.702239</ele>
        <time>2024-07-28T08:38:14.650Z</time>
      </trkpt>
      <trkpt lat="54.15942" lon="15.39934">
        <ele>42.925423</ele>
        <time>2024-07-28T08:38:17.679Z</time>
      </trkpt>
      <trkpt lat="54.15944" lon="15.39953">
        <ele>43.138364</ele>
        <time>2024-07-28T08:38:20.667Z</time>
      </trkpt>
      <trkpt lat="54.15947" lon="15.39974">
        <ele>43.367319</ele>
        <time>2024-07-28T08:38:23.673Z</time>
      </trkpt>
      <trkpt lat="54.15949" lon="15.39995">
        <ele>43.499677</ele>
        <time>2024-07-28T08:38:26.659Z</time>
      </trkpt>
      <trkpt lat="54.15952" lon="15.40016">
        <ele>43.521191</ele>
        <time>2024-07-28T08:38:29.663Z</time>
      </trkpt>
      <trkpt lat="54.15953" lon="15.40037">
        <ele>43.54276</ele>
        <time>2024-07-28T08:38:32.669Z</time>
      </trkpt>
      <trkpt lat="54.15955" lon="15.40058">
        <ele>43.564144</ele>
        <time>2024-07-28T08:38:35.662Z</time>
      </trkpt>
      <trkpt lat="54.15957" lon="15.40078">
        <ele>43.58529</ele>
        <time>2024-07-28T08:38:38.669Z</time>
      </trkpt>
      <trkpt lat="54.15958" lon="15.40094">
        <ele>43.601122</ele>
        <time>2024-07-28T08:38:40.665Z</time>
      </trkpt>
      <trkpt lat="54.15959" lon="15.40116">
        <ele>43.623752</ele>
        <time>2024-07-28T08:38:43.667Z</time>
      </trkpt>
      <trkpt lat="54.1596" lon="15.40138">
        <ele>43.646276</ele>
        <time>2024-07-28T08:38:46.653Z</time>
      </trkpt>
      <trkpt lat="54.15961" lon="15.40154">
        <ele>43.661908</ele>
        <time>2024-07-28T08:38:48.669Z</time>
      </trkpt>
      <trkpt lat="54.15962" lon="15.40175">
        <ele>43.68398</ele>
        <time>2024-07-28T08:38:51.647Z</time>
      </trkpt>
      <trkpt lat="54.15963" lon="15.40197">
        <ele>43.705988</ele>
        <time>2024-07-28T08:38:54.671Z</time>
      </trkpt>
      <trkpt lat="54.15963" lon="15.40218">
        <ele>43.726953</ele>
        <time>2024-07-28T08:38:57.681Z</time>
      </trkpt>
      <trkpt lat="54.15964" lon="15.40239">
        <ele>43.748578</ele>
        <time>2024-07-28T08:39:00.665Z</time>
      </trkpt>
      <trkpt lat="54.15966" lon="15.4026">
        <ele>43.770102</ele>
        <time>2024-07-28T08:39:03.666Z</time>
      </trkpt>
      <trkpt lat="54.15966" lon="15.40282">
        <ele>43.792078</ele>
        <time>2024-07-28T08:39:06.670Z</time>
      </trkpt>
      <trkpt lat="54.15966" lon="15.40304">
        <ele>43.859891</ele>
        <time>2024-07-28T08:39:09.670Z</time>
      </trkpt>
      <trkpt lat="54.15967" lon="15.40327">
        <ele>43.964538</ele>
        <time>2024-07-28T08:39:12.668Z</time>
      </trkpt>
      <trkpt lat="54.15967" lon="15.40342">
        <ele>44.03528</ele>
        <time>2024-07-28T08:39:14.662Z</time>
      </trkpt>
      <trkpt lat="54.15969" lon="15.40364">
        <ele>44.137322</ele>
        <time>2024-07-28T08:39:17.662Z</time>
      </trkpt>
      <trkpt lat="54.1597" lon="15.40386">
        <ele>44.237917</ele>
        <time>2024-07-28T08:39:20.669Z</time>
      </trkpt>
      <trkpt lat="54.1597" lon="15.40409">
        <ele>44.34295</ele>
        <time>2024-07-28T08:39:23.643Z</time>
      </trkpt>
      <trkpt lat="54.15972" lon="15.4043">
        <ele>44.441249</ele>
        <time>2024-07-28T08:39:26.661Z</time>
      </trkpt>
      <trkpt lat="54.15972" lon="15.40452">
        <ele>44.543082</ele>
        <time>2024-07-28T08:39:29.664Z</time>
      </trkpt>
      <trkpt lat="54.15971" lon="15.40474">
        <ele>44.644043</ele>
        <time>2024-07-28T08:39:32.677Z</time>
      </trkpt>
      <trkpt lat="54.15968" lon="15.40494">
        <ele>44.739075</ele>
        <time>2024-07-28T08:39:35.670Z</time>
      </trkpt>
      <trkpt lat="54.15966" lon="15.4051">
        <ele>44.81197</ele>
        <time>2024-07-28T08:39:37.656Z</time>
      </trkpt>
      <trkpt lat="54.15964" lon="15.40525">
        <ele>44.883255</ele>
        <time>2024-07-28T08:39:39.652Z</time>
      </trkpt>
      <trkpt lat="54.15963" lon="15.40547">
        <ele>44.98414</ele>
        <time>2024-07-28T08:39:42.661Z</time>
      </trkpt>
      <trkpt lat="54.1596" lon="15.4057">
        <ele>45.090081</ele>
        <time>2024-07-28T08:39:45.658Z</time>
      </trkpt>
      <trkpt lat="54.15958" lon="15.40591">
        <ele>45.188971</ele>
        <time>2024-07-28T08:39:48.679Z</time>
      </trkpt>
      <trkpt lat="54.15955" lon="15.40607">
        <ele>45.144854</ele>
        <time>2024-07-28T08:39:50.668Z</time>
      </trkpt>
      <trkpt lat="54.15953" lon="15.40628">
        <ele>45.027035</ele>
        <time>2024-07-28T08:39:53.656Z</time>
      </trkpt>
      <trkpt lat="54.15952" lon="15.40651">
        <ele>44.900765</ele>
        <time>2024-07-28T08:39:56.673Z</time>
      </trkpt>
      <trkpt lat="54.15948" lon="15.4067">
        <ele>44.786727</ele>
        <time>2024-07-28T08:39:59.671Z</time>
      </trkpt>
      <trkpt lat="54.15947" lon="15.40687">
        <ele>44.695466</ele>
        <time>2024-07-28T08:40:01.646Z</time>
      </trkpt>
      <trkpt lat="54.15945" lon="15.40702">
        <ele>44.607383</ele>
        <time>2024-07-28T08:40:03.644Z</time>
      </trkpt>
      <trkpt lat="54.15946" lon="15.40726">
        <ele>44.478938</ele>
        <time>2024-07-28T08:40:06.655Z</time>
      </trkpt>
      <trkpt lat="54.15945" lon="15.40741">
        <ele>44.393371</ele>
        <time>2024-07-28T08:40:08.675Z</time>
      </trkpt>
      <trkpt lat="54.15945" lon="15.40763">
        <ele>44.27155</ele>
        <time>2024-07-28T08:40:11.666Z</time>
      </trkpt>
      <trkpt lat="54.15946" lon="15.40785">
        <ele>44.149602</ele>
        <time>2024-07-28T08:40:14.671Z</time>
      </trkpt>
      <trkpt lat="54.15947" lon="15.40807">
        <ele>44.028993</ele>
        <time>2024-07-28T08:40:17.664Z</time>
      </trkpt>
      <trkpt lat="54.15947" lon="15.40823">
        <ele>43.942984</ele>
        <time>2024-07-28T08:40:19.655Z</time>
      </trkpt>
      <trkpt lat="54.15949" lon="15.40845">
        <ele>43.81684</ele>
        <time>2024-07-28T08:40:22.668Z</time>
      </trkpt>
      <trkpt lat="54.15952" lon="15.40867">
        <ele>43.69302</ele>
        <time>2024-07-28T08:40:25.662Z</time>
      </trkpt>
      <trkpt lat="54.15954" lon="15.40883">
        <ele>43.604994</ele>
        <time>2024-07-28T08:40:27.668Z</time>
      </trkpt>
      <trkpt lat="54.15956" lon="15.409">
        <ele>43.509103</ele>
        <time>2024-07-28T08:40:29.664Z</time>
      </trkpt>
      <trkpt lat="54.15958" lon="15.40916">
        <ele>43.438414</ele>
        <time>2024-07-28T08:40:31.681Z</time>
      </trkpt>
      <trkpt lat="54.1596" lon="15.40931">
        <ele>43.368753</ele>
        <time>2024-07-28T08:40:33.674Z</time>
      </trkpt>
      <trkpt lat="54.15963" lon="15.40952">
        <ele>43.271529</ele>
        <time>2024-07-28T08:40:36.657Z</time>
      </trkpt>
      <trkpt lat="54.15966" lon="15.40967">
        <ele>43.199648</ele>
        <time>2024-07-28T08:40:38.674Z</time>
      </trkpt>
      <trkpt lat="54.15969" lon="15.4099">
        <ele>43.097505</ele>
        <time>2024-07-28T08:40:41.646Z</time>
      </trkpt>
      <trkpt lat="54.1597" lon="15.41006">
        <ele>43.023947</ele>
        <time>2024-07-28T08:40:43.651Z</time>
      </trkpt>
      <trkpt lat="54.15971" lon="15.41021">
        <ele>42.955366</ele>
        <time>2024-07-28T08:40:45.672Z</time>
      </trkpt>
      <trkpt lat="54.15971" lon="15.41042">
        <ele>42.860047</ele>
        <time>2024-07-28T08:40:48.714Z</time>
      </trkpt>
      <trkpt lat="54.15971" lon="15.41058">
        <ele>42.78875</ele>
        <time>2024-07-28T08:40:50.657Z</time>
      </trkpt>
      <trkpt lat="54.15971" lon="15.4108">
        <ele>42.691273</ele>
        <time>2024-07-28T08:40:53.693Z</time>
      </trkpt>
      <trkpt lat="54.15971" lon="15.41103">
        <ele>42.588418</ele>
        <time>2024-07-28T08:40:56.647Z</time>
      </trkpt>
      <trkpt lat="54.1597" lon="15.41119">
        <ele>42.51706</ele>
        <time>2024-07-28T08:40:58.672Z</time>
      </trkpt>
      <trkpt lat="54.15969" lon="15.41141">
        <ele>42.417488</ele>
        <time>2024-07-28T08:41:01.659Z</time>
      </trkpt>
      <trkpt lat="54.15967" lon="15.41157">
        <ele>42.34515</ele>
        <time>2024-07-28T08:41:03.669Z</time>
      </trkpt>
      <trkpt lat="54.15966" lon="15.41173">
        <ele>42.274004</ele>
        <time>2024-07-28T08:41:05.661Z</time>
      </trkpt>
      <trkpt lat="54.15965" lon="15.41189">
        <ele>42.199748</ele>
        <time>2024-07-28T08:41:07.666Z</time>
      </trkpt>
      <trkpt lat="54.15964" lon="15.41205">
        <ele>42.15461</ele>
        <time>2024-07-28T08:41:09.667Z</time>
      </trkpt>
      <trkpt lat="54.15963" lon="15.41221">
        <ele>42.208242</ele>
        <time>2024-07-28T08:41:11.666Z</time>
      </trkpt>
      <trkpt lat="54.15962" lon="15.41238">
        <ele>42.26525</ele>
        <time>2024-07-28T08:41:13.669Z</time>
      </trkpt>
      <trkpt lat="54.15961" lon="15.41255">
        <ele>42.321324</ele>
        <time>2024-07-28T08:41:15.668Z</time>
      </trkpt>
      <trkpt lat="54.1596" lon="15.41272">
        <ele>42.378197</ele>
        <time>2024-07-28T08:41:17.667Z</time>
      </trkpt>
      <trkpt lat="54.15958" lon="15.41289">
        <ele>42.4364</ele>
        <time>2024-07-28T08:41:19.664Z</time>
      </trkpt>
      <trkpt lat="54.15957" lon="15.41305">
        <ele>42.49131</ele>
        <time>2024-07-28T08:41:21.661Z</time>
      </trkpt>
      <trkpt lat="54.15956" lon="15.41321">
        <ele>42.543847</ele>
        <time>2024-07-28T08:41:23.662Z</time>
      </trkpt>
      <trkpt lat="54.15955" lon="15.41344">
        <ele>42.619805</ele>
        <time>2024-07-28T08:41:26.647Z</time>
      </trkpt>
      <trkpt lat="54.15953" lon="15.41366">
        <ele>42.696238</ele>
        <time>2024-07-28T08:41:29.654Z</time>
      </trkpt>
      <trkpt lat="54.15955" lon="15.41388">
        <ele>42.770208</ele>
        <time>2024-07-28T08:41:32.661Z</time>
      </trkpt>
      <trkpt lat="54.15953" lon="15.4141">
        <ele>42.843384</ele>
        <time>2024-07-28T08:41:35.656Z</time>
      </trkpt>
      <trkpt lat="54.15952" lon="15.41427">
        <ele>42.898677</ele>
        <time>2024-07-28T08:41:37.655Z</time>
      </trkpt>
      <trkpt lat="54.15952" lon="15.41449">
        <ele>42.971785</ele>
        <time>2024-07-28T08:41:40.666Z</time>
      </trkpt>
      <trkpt lat="54.15951" lon="15.41471">
        <ele>43.046078</ele>
        <time>2024-07-28T08:41:43.664Z</time>
      </trkpt>
      <trkpt lat="54.15949" lon="15.41491">
        <ele>43.11468</ele>
        <time>2024-07-28T08:41:46.665Z</time>
      </trkpt>
      <trkpt lat="54.15948" lon="15.41511">
        <ele>43.175164</ele>
        <time>2024-07-28T08:41:49.650Z</time>
      </trkpt>
      <trkpt lat="54.15947" lon="15.4153">
        <ele>43.21513</ele>
        <time>2024-07-28T08:41:52.676Z</time>
      </trkpt>
      <trkpt lat="54.15947" lon="15.41552">
        <ele>43.257373</ele>
        <time>2024-07-28T08:41:55.684Z</time>
      </trkpt>
      <trkpt lat="54.15946" lon="15.41574">
        <ele>43.301628</ele>
        <time>2024-07-28T08:41:58.672Z</time>
      </trkpt>
      <trkpt lat="54.15946" lon="15.41596">
        <ele>43.345462</ele>
        <time>2024-07-28T08:42:01.665Z</time>
      </trkpt>
      <trkpt lat="54.15948" lon="15.41615">
        <ele>43.385138</ele>
        <time>2024-07-28T08:42:04.684Z</time>
      </trkpt>
      <trkpt lat="54.15951" lon="15.41636">
        <ele>43.428391</ele>
        <time>2024-07-28T08:42:07.663Z</time>
      </trkpt>
      <trkpt lat="54.15955" lon="15.41657">
        <ele>43.472176</ele>
        <time>2024-07-28T08:42:10.665Z</time>
      </trkpt>
      <trkpt lat="54.15959" lon="15.41677">
        <ele>43.514767</ele>
        <time>2024-07-28T08:42:13.666Z</time>
      </trkpt>
      <trkpt lat="54.15964" lon="15.41696">
        <ele>43.556357</ele>
        <time>2024-07-28T08:42:16.664Z</time>
      </trkpt>
      <trkpt lat="54.15969" lon="15.41715">
        <ele>43.598897</ele>
        <time>2024-07-28T08:42:19.666Z</time>
      </trkpt>
      <trkpt lat="54.15975" lon="15.41734">
        <ele>43.641104</ele>
        <time>2024-07-28T08:42:22.671Z</time>
      </trkpt>
      <trkpt lat="54.15981" lon="15.41753">
        <ele>43.684536</ele>
        <time>2024-07-28T08:42:25.666Z</time>
      </trkpt>
      <trkpt lat="54.15986" lon="15.41773">
        <ele>43.72875</ele>
        <time>2024-07-28T08:42:28.660Z</time>
      </trkpt>
      <trkpt lat="54.15992" lon="15.41791">
        <ele>43.770883</ele>
        <time>2024-07-28T08:42:31.680Z</time>
      </trkpt>
      <trkpt lat="54.15998" lon="15.41809">
        <ele>43.89824</ele>
        <time>2024-07-28T08:42:34.669Z</time>
      </trkpt>
      <trkpt lat="54.16003" lon="15.41828">
        <ele>44.062686</ele>
        <time>2024-07-28T08:42:37.662Z</time>
      </trkpt>
      <trkpt lat="54.1601" lon="15.41847">
        <ele>44.238497</ele>
        <time>2024-07-28T08:42:40.664Z</time>
      </trkpt>
      <trkpt lat="54.16016" lon="15.41867">
        <ele>44.423531</ele>
        <time>2024-07-28T08:42:43.669Z</time>
      </trkpt>
      <trkpt lat="54.16022" lon="15.41886">
        <ele>44.592683</ele>
        <time>2024-07-28T08:42:46.667Z</time>
      </trkpt>
      <trkpt lat="54.16027" lon="15.41903">
        <ele>44.748409</ele>
        <time>2024-07-28T08:42:49.668Z</time>
      </trkpt>
      <trkpt lat="54.16033" lon="15.41921">
        <ele>44.91542</ele>
        <time>2024-07-28T08:42:52.668Z</time>
      </trkpt>
      <trkpt lat="54.1604" lon="15.41938">
        <ele>45.081961</ele>
        <time>2024-07-28T08:42:55.689Z</time>
      </trkpt>
      <trkpt lat="54.16046" lon="15.41957">
        <ele>45.255139</ele>
        <time>2024-07-28T08:42:58.665Z</time>
      </trkpt>
      <trkpt lat="54.16053" lon="15.41976">
        <ele>45.429583</ele>
        <time>2024-07-28T08:43:01.674Z</time>
      </trkpt>
      <trkpt lat="54.16059" lon="15.41993">
        <ele>45.589475</ele>
        <time>2024-07-28T08:43:04.665Z</time>
      </trkpt>
      <trkpt lat="54.16064" lon="15.42011">
        <ele>45.752876</ele>
        <time>2024-07-28T08:43:07.673Z</time>
      </trkpt>
      <trkpt lat="54.1607" lon="15.4203">
        <ele>45.923223</ele>
        <time>2024-07-28T08:43:10.678Z</time>
      </trkpt>
      <trkpt lat="54.16075" lon="15.42049">
        <ele>46.087323</ele>
        <time>2024-07-28T08:43:13.648Z</time>
      </trkpt>
      <trkpt lat="54.16081" lon="15.42067">
        <ele>46.248701</ele>
        <time>2024-07-28T08:43:16.662Z</time>
      </trkpt>
      <trkpt lat="54.16087" lon="15.42084">
        <ele>46.273409</ele>
        <time>2024-07-28T08:43:19.673Z</time>
      </trkpt>
      <trkpt lat="54.16093" lon="15.42103">
        <ele>46.299106</ele>
        <time>2024-07-28T08:43:22.672Z</time>
      </trkpt>
      <trkpt lat="54.16098" lon="15.42123">
        <ele>46.32627</ele>
        <time>2024-07-28T08:43:25.671Z</time>
      </trkpt>
      <trkpt lat="54.16103" lon="15.42143">
        <ele>46.35304</ele>
        <time>2024-07-28T08:43:28.669Z</time>
      </trkpt>
      <trkpt lat="54.16109" lon="15.42161">
        <ele>46.379659</ele>
        <time>2024-07-28T08:43:31.679Z</time>
      </trkpt>
      <trkpt lat="54.16114" lon="15.42175">
        <ele>46.399326</ele>
        <time>2024-07-28T08:43:33.681Z</time>
      </trkpt>
      <trkpt lat="54.16118" lon="15.42189">
        <ele>46.41942</ele>
        <time>2024-07-28T08:43:35.686Z</time>
      </trkpt>
      <trkpt lat="54.16124" lon="15.4221">
        <ele>46.447324</ele>
        <time>2024-07-28T08:43:38.672Z</time>
      </trkpt>
      <trkpt lat="54.16129" lon="15.42224">
        <ele>46.468186</ele>
        <time>2024-07-28T08:43:40.679Z</time>
      </trkpt>
      <trkpt lat="54.16133" lon="15.4224">
        <ele>46.489675</ele>
        <time>2024-07-28T08:43:42.677Z</time>
      </trkpt>
      <trkpt lat="54.16138" lon="15.42255">
        <ele>46.510898</ele>
        <time>2024-07-28T08:43:44.674Z</time>
      </trkpt>
      <trkpt lat="54.16143" lon="15.42268">
        <ele>46.530073</ele>
        <time>2024-07-28T08:43:46.670Z</time>
      </trkpt>
      <trkpt lat="54.1615" lon="15.42288">
        <ele>46.559041</ele>
        <time>2024-07-28T08:43:49.660Z</time>
      </trkpt>
      <trkpt lat="54.16155" lon="15.42309">
        <ele>46.586681</ele>
        <time>2024-07-28T08:43:52.673Z</time>
      </trkpt>
      <trkpt lat="54.1616" lon="15.42322">
        <ele>46.606458</ele>
        <time>2024-07-28T08:43:54.705Z</time>
      </trkpt>
      <trkpt lat="54.16164" lon="15.42336">
        <ele>46.62564</ele>
        <time>2024-07-28T08:43:56.650Z</time>
      </trkpt>
      <trkpt lat="54.16168" lon="15.42353">
        <ele>46.522144</ele>
        <time>2024-07-28T08:43:58.661Z</time>
      </trkpt>
      <trkpt lat="54.16172" lon="15.42374">
        <ele>46.38311</ele>
        <time>2024-07-28T08:44:01.678Z</time>
      </trkpt>
      <trkpt lat="54.16176" lon="15.42388">
        <ele>46.287057</ele>
        <time>2024-07-28T08:44:03.675Z</time>
      </trkpt>
      <trkpt lat="54.1618" lon="15.42403">
        <ele>46.185278</ele>
        <time>2024-07-28T08:44:05.662Z</time>
      </trkpt>
      <trkpt lat="54.16184" lon="15.42418">
        <ele>46.084385</ele>
        <time>2024-07-28T08:44:07.667Z</time>
      </trkpt>
      <trkpt lat="54.16189" lon="15.42438">
        <ele>45.946124</ele>
        <time>2024-07-28T08:44:10.662Z</time>
      </trkpt>
      <trkpt lat="54.16193" lon="15.42452">
        <ele>45.848764</ele>
        <time>2024-07-28T08:44:12.677Z</time>
      </trkpt>
      <trkpt lat="54.16199" lon="15.42473">
        <ele>45.708232</ele>
        <time>2024-07-28T08:44:15.659Z</time>
      </trkpt>
      <trkpt lat="54.16204" lon="15.42494">
        <ele>45.564241</ele>
        <time>2024-07-28T08:44:18.656Z</time>
      </trkpt>
      <trkpt lat="54.16206" lon="15.42516">
        <ele>45.425091</ele>
        <time>2024-07-28T08:44:21.682Z</time>
      </trkpt>
      <trkpt lat="54.1621" lon="15.42539">
        <ele>45.280318</ele>
        <time>2024-07-28T08:44:24.674Z</time>
      </trkpt>
      <trkpt lat="54.16212" lon="15.42554">
        <ele>45.179976</ele>
        <time>2024-07-28T08:44:26.671Z</time>
      </trkpt>
      <trkpt lat="54.16214" lon="15.4257">
        <ele>45.080179</ele>
        <time>2024-07-28T08:44:28.683Z</time>
      </trkpt>
      <trkpt lat="54.1622" lon="15.42589">
        <ele>44.945519</ele>
        <time>2024-07-28T08:44:31.676Z</time>
      </trkpt>
      <trkpt lat="54.16224" lon="15.42603">
        <ele>44.848822</ele>
        <time>2024-07-28T08:44:33.673Z</time>
      </trkpt>
      <trkpt lat="54.16228" lon="15.42618">
        <ele>44.749888</ele>
        <time>2024-07-28T08:44:35.661Z</time>
      </trkpt>
      <trkpt lat="54.16232" lon="15.42633">
        <ele>44.548443</ele>
        <time>2024-07-28T08:44:37.674Z</time>
      </trkpt>
      <trkpt lat="54.16234" lon="15.42656">
        <ele>44.198986</ele>
        <time>2024-07-28T08:44:40.688Z</time>
      </trkpt>
      <trkpt lat="54.16233" lon="15.42672">
        <ele>43.961372</ele>
        <time>2024-07-28T08:44:42.649Z</time>
      </trkpt>
      <trkpt lat="54.16233" lon="15.42688">
        <ele>43.725718</ele>
        <time>2024-07-28T08:44:44.671Z</time>
      </trkpt>
      <trkpt lat="54.16235" lon="15.42703">
        <ele>43.488444</ele>
        <time>2024-07-28T08:44:46.660Z</time>
      </trkpt>
      <trkpt lat="54.16238" lon="15.4272">
        <ele>43.229348</ele>
        <time>2024-07-28T08:44:48.676Z</time>
      </trkpt>
      <trkpt lat="54.16241" lon="15.42735">
        <ele>42.994545</ele>
        <time>2024-07-28T08:44:50.666Z</time>
      </trkpt>
      <trkpt lat="54.16245" lon="15.42754">
        <ele>42.685656</ele>
        <time>2024-07-28T08:44:53.665Z</time>
      </trkpt>
      <trkpt lat="54.16248" lon="15.42773">
        <ele>42.390059</ele>
        <time>2024-07-28T08:44:56.667Z</time>
      </trkpt>
      <trkpt lat="54.1625" lon="15.4279">
        <ele>42.134322</ele>
        <time>2024-07-28T08:44:58.676Z</time>
      </trkpt>
      <trkpt lat="54.16252" lon="15.42807">
        <ele>41.877579</ele>
        <time>2024-07-28T08:45:00.671Z</time>
      </trkpt>
      <trkpt lat="54.16255" lon="15.42823">
        <ele>41.615298</ele>
        <time>2024-07-28T08:45:02.687Z</time>
      </trkpt>
      <trkpt lat="54.16258" lon="15.4284">
        <ele>41.366219</ele>
        <time>2024-07-28T08:45:04.677Z</time>
      </trkpt>
      <trkpt lat="54.16261" lon="15.42854">
        <ele>41.136288</ele>
        <time>2024-07-28T08:45:06.669Z</time>
      </trkpt>
      <trkpt lat="54.16262" lon="15.4287">
        <ele>40.890209</ele>
        <time>2024-07-28T08:45:08.676Z</time>
      </trkpt>
      <trkpt lat="54.16265" lon="15.42889">
        <ele>40.613984</ele>
        <time>2024-07-28T08:45:10.676Z</time>
      </trkpt>
      <trkpt lat="54.16266" lon="15.42906">
        <ele>40.355722</ele>
        <time>2024-07-28T08:45:12.677Z</time>
      </trkpt>
      <trkpt lat="54.16269" lon="15.42927">
        <ele>40.133934</ele>
        <time>2024-07-28T08:45:15.656Z</time>
      </trkpt>
      <trkpt lat="54.16269" lon="15.42951">
        <ele>40.118691</ele>
        <time>2024-07-28T08:45:18.663Z</time>
      </trkpt>
      <trkpt lat="54.16272" lon="15.4297">
        <ele>40.105963</ele>
        <time>2024-07-28T08:45:21.667Z</time>
      </trkpt>
      <trkpt lat="54.16274" lon="15.4299">
        <ele>40.093149</ele>
        <time>2024-07-28T08:45:24.677Z</time>
      </trkpt>
      <trkpt lat="54.16277" lon="15.4301">
        <ele>40.07984</ele>
        <time>2024-07-28T08:45:27.671Z</time>
      </trkpt>
      <trkpt lat="54.16276" lon="15.43033">
        <ele>40.065483</ele>
        <time>2024-07-28T08:45:30.668Z</time>
      </trkpt>
      <trkpt lat="54.16275" lon="15.43049">
        <ele>40.055488</ele>
        <time>2024-07-28T08:45:32.678Z</time>
      </trkpt>
      <trkpt lat="54.16275" lon="15.43069">
        <ele>40.042285</ele>
        <time>2024-07-28T08:45:35.686Z</time>
      </trkpt>
      <trkpt lat="54.16276" lon="15.43086">
        <ele>40.031465</ele>
        <time>2024-07-28T08:45:37.681Z</time>
      </trkpt>
      <trkpt lat="54.16277" lon="15.43107">
        <ele>40.017958</ele>
        <time>2024-07-28T08:45:40.681Z</time>
      </trkpt>
      <trkpt lat="54.16276" lon="15.43123">
        <ele>40.007749</ele>
        <time>2024-07-28T08:45:42.671Z</time>
      </trkpt>
      <trkpt lat="54.16276" lon="15.43145">
        <ele>39.994033</ele>
        <time>2024-07-28T08:45:45.651Z</time>
      </trkpt>
      <trkpt lat="54.16277" lon="15.43164">
        <ele>39.981605</ele>
        <time>2024-07-28T08:45:48.668Z</time>
      </trkpt>
      <trkpt lat="54.16277" lon="15.43184">
        <ele>39.969037</ele>
        <time>2024-07-28T08:45:51.676Z</time>
      </trkpt>
      <trkpt lat="54.16277" lon="15.43205">
        <ele>39.955455</ele>
        <time>2024-07-28T08:45:54.670Z</time>
      </trkpt>
      <trkpt lat="54.16277" lon="15.43225">
        <ele>39.94173</ele>
        <time>2024-07-28T08:45:57.667Z</time>
      </trkpt>
      <trkpt lat="54.16276" lon="15.43247">
        <ele>39.883861</ele>
        <time>2024-07-28T08:46:00.686Z</time>
      </trkpt>
      <trkpt lat="54.16275" lon="15.4327">
        <ele>39.822025</ele>
        <time>2024-07-28T08:46:03.666Z</time>
      </trkpt>
      <trkpt lat="54.16273" lon="15.43291">
        <ele>39.762767</ele>
        <time>2024-07-28T08:46:05.665Z</time>
      </trkpt>
      <trkpt lat="54.16271" lon="15.4331">
        <ele>39.711561</ele>
        <time>2024-07-28T08:46:07.668Z</time>
      </trkpt>
      <trkpt lat="54.1627" lon="15.43326">
        <ele>39.668351</ele>
        <time>2024-07-28T08:46:09.675Z</time>
      </trkpt>
      <trkpt lat="54.1627" lon="15.43343">
        <ele>39.621225</ele>
        <time>2024-07-28T08:46:11.669Z</time>
      </trkpt>
      <trkpt lat="54.16269" lon="15.43366">
        <ele>39.560557</ele>
        <time>2024-07-28T08:46:14.669Z</time>
      </trkpt>
      <trkpt lat="54.16268" lon="15.43385">
        <ele>39.507295</ele>
        <time>2024-07-28T08:46:17.673Z</time>
      </trkpt>
      <trkpt lat="54.16268" lon="15.43406">
        <ele>39.452706</ele>
        <time>2024-07-28T08:46:20.668Z</time>
      </trkpt>
      <trkpt lat="54.16269" lon="15.43428">
        <ele>39.390927</ele>
        <time>2024-07-28T08:46:23.664Z</time>
      </trkpt>
      <trkpt lat="54.1627" lon="15.4345">
        <ele>39.333847</ele>
        <time>2024-07-28T08:46:26.667Z</time>
      </trkpt>
      <trkpt lat="54.16269" lon="15.43465">
        <ele>39.290845</ele>
        <time>2024-07-28T08:46:28.687Z</time>
      </trkpt>
      <trkpt lat="54.1627" lon="15.43483">
        <ele>39.244141</ele>
        <time>2024-07-28T08:46:30.676Z</time>
      </trkpt>
      <trkpt lat="54.1627" lon="15.435">
        <ele>39.195937</ele>
        <time>2024-07-28T08:46:32.676Z</time>
      </trkpt>
      <trkpt lat="54.1627" lon="15.43518">
        <ele>39.147785</ele>
        <time>2024-07-28T08:46:34.670Z</time>
      </trkpt>
      <trkpt lat="54.1627" lon="15.43536">
        <ele>39.130163</ele>
        <time>2024-07-28T08:46:36.664Z</time>
      </trkpt>
      <trkpt lat="54.16269" lon="15.43555">
        <ele>39.200706</ele>
        <time>2024-07-28T08:46:38.657Z</time>
      </trkpt>
      <trkpt lat="54.16268" lon="15.43572">
        <ele>39.264378</ele>
        <time>2024-07-28T08:46:40.670Z</time>
      </trkpt>
      <trkpt lat="54.16266" lon="15.4359">
        <ele>39.328713</ele>
        <time>2024-07-28T08:46:42.673Z</time>
      </trkpt>
      <trkpt lat="54.16265" lon="15.43606">
        <ele>39.388354</ele>
        <time>2024-07-28T08:46:44.668Z</time>
      </trkpt>
      <trkpt lat="54.16264" lon="15.4363">
        <ele>39.477569</ele>
        <time>2024-07-28T08:46:47.670Z</time>
      </trkpt>
      <trkpt lat="54.16262" lon="15.43646">
        <ele>39.5406</ele>
        <time>2024-07-28T08:46:49.645Z</time>
      </trkpt>
      <trkpt lat="54.16261" lon="15.43663">
        <ele>39.600807</ele>
        <time>2024-07-28T08:46:51.671Z</time>
      </trkpt>
      <trkpt lat="54.1626" lon="15.43679">
        <ele>39.660037</ele>
        <time>2024-07-28T08:46:53.663Z</time>
      </trkpt>
      <trkpt lat="54.16255" lon="15.43699">
        <ele>39.739432</ele>
        <time>2024-07-28T08:46:56.664Z</time>
      </trkpt>
      <trkpt lat="54.16252" lon="15.43716">
        <ele>39.805408</ele>
        <time>2024-07-28T08:46:59.663Z</time>
      </trkpt>
      <trkpt lat="54.1625" lon="15.43734">
        <ele>39.871814</ele>
        <time>2024-07-28T08:47:02.682Z</time>
      </trkpt>
      <trkpt lat="54.16247" lon="15.43756">
        <ele>39.955026</ele>
        <time>2024-07-28T08:47:05.688Z</time>
      </trkpt>
      <trkpt lat="54.16242" lon="15.43772">
        <ele>40.023466</ele>
        <time>2024-07-28T08:47:07.669Z</time>
      </trkpt>
      <trkpt lat="54.16237" lon="15.43787">
        <ele>40.086748</ele>
        <time>2024-07-28T08:47:09.656Z</time>
      </trkpt>
      <trkpt lat="54.16233" lon="15.43803">
        <ele>40.151614</ele>
        <time>2024-07-28T08:47:11.671Z</time>
      </trkpt>
      <trkpt lat="54.16231" lon="15.43823">
        <ele>40.226339</ele>
        <time>2024-07-28T08:47:14.669Z</time>
      </trkpt>
      <trkpt lat="54.16231" lon="15.4384">
        <ele>40.219749</ele>
        <time>2024-07-28T08:47:17.673Z</time>
      </trkpt>
      <trkpt lat="54.16229" lon="15.43857">
        <ele>40.185392</ele>
        <time>2024-07-28T08:47:20.679Z</time>
      </trkpt>
      <trkpt lat="54.16227" lon="15.43873">
        <ele>40.151467</ele>
        <time>2024-07-28T08:47:23.692Z</time>
      </trkpt>
      <trkpt lat="54.16223" lon="15.4389">
        <ele>40.113304</ele>
        <time>2024-07-28T08:47:26.675Z</time>
      </trkpt>
      <trkpt lat="54.1622" lon="15.43908">
        <ele>40.075288</ele>
        <time>2024-07-28T08:47:29.690Z</time>
      </trkpt>
      <trkpt lat="54.16215" lon="15.43928">
        <ele>40.029645</ele>
        <time>2024-07-28T08:47:32.675Z</time>
      </trkpt>
      <trkpt lat="54.16212" lon="15.4395">
        <ele>39.983358</ele>
        <time>2024-07-28T08:47:35.673Z</time>
      </trkpt>
      <trkpt lat="54.1621" lon="15.43971">
        <ele>39.941427</ele>
        <time>2024-07-28T08:47:38.668Z</time>
      </trkpt>
      <trkpt lat="54.16207" lon="15.43989">
        <ele>39.903104</ele>
        <time>2024-07-28T08:47:41.672Z</time>
      </trkpt>
      <trkpt lat="54.16204" lon="15.44007">
        <ele>39.865078</ele>
        <time>2024-07-28T08:47:44.667Z</time>
      </trkpt>
      <trkpt lat="54.16201" lon="15.44028">
        <ele>39.818896</ele>
        <time>2024-07-28T08:47:47.667Z</time>
      </trkpt>
      <trkpt lat="54.162" lon="15.44044">
        <ele>39.786567</ele>
        <time>2024-07-28T08:47:49.671Z</time>
      </trkpt>
      <trkpt lat="54.16198" lon="15.44059">
        <ele>39.754621</ele>
        <time>2024-07-28T08:47:51.686Z</time>
      </trkpt>
      <trkpt lat="54.16195" lon="15.44074">
        <ele>39.722753</ele>
        <time>2024-07-28T08:47:53.684Z</time>
      </trkpt>
      <trkpt lat="54.16193" lon="15.44089">
        <ele>39.690417</ele>
        <time>2024-07-28T08:47:55.667Z</time>
      </trkpt>
      <trkpt lat="54.16191" lon="15.44104">
        <ele>39.658872</ele>
        <time>2024-07-28T08:47:57.684Z</time>
      </trkpt>
      <trkpt lat="54.16189" lon="15.44124">
        <ele>39.618205</ele>
        <time>2024-07-28T08:48:00.670Z</time>
      </trkpt>
      <trkpt lat="54.16188" lon="15.44147">
        <ele>39.663392</ele>
        <time>2024-07-28T08:48:03.683Z</time>
      </trkpt>
      <trkpt lat="54.16187" lon="15.44164">
        <ele>39.700581</ele>
        <time>2024-07-28T08:48:05.657Z</time>
      </trkpt>
      <trkpt lat="54.16186" lon="15.44181">
        <ele>39.738425</ele>
        <time>2024-07-28T08:48:07.676Z</time>
      </trkpt>
      <trkpt lat="54.16185" lon="15.44199">
        <ele>39.776436</ele>
        <time>2024-07-28T08:48:09.677Z</time>
      </trkpt>
      <trkpt lat="54.16186" lon="15.44214">
        <ele>39.810654</ele>
        <time>2024-07-28T08:48:11.668Z</time>
      </trkpt>
      <trkpt lat="54.16185" lon="15.4423">
        <ele>39.846188</ele>
        <time>2024-07-28T08:48:13.672Z</time>
      </trkpt>
      <trkpt lat="54.16185" lon="15.44246">
        <ele>39.881063</ele>
        <time>2024-07-28T08:48:15.664Z</time>
      </trkpt>
      <trkpt lat="54.16186" lon="15.44263">
        <ele>39.916822</ele>
        <time>2024-07-28T08:48:17.647Z</time>
      </trkpt>
      <trkpt lat="54.16186" lon="15.44279">
        <ele>39.951923</ele>
        <time>2024-07-28T08:48:19.672Z</time>
      </trkpt>
      <trkpt lat="54.16186" lon="15.44294">
        <ele>39.985939</ele>
        <time>2024-07-28T08:48:21.668Z</time>
      </trkpt>
      <trkpt lat="54.16187" lon="15.44317">
        <ele>40.036453</ele>
        <time>2024-07-28T08:48:24.667Z</time>
      </trkpt>
      <trkpt lat="54.16187" lon="15.44334">
        <ele>40.072494</ele>
        <time>2024-07-28T08:48:26.670Z</time>
      </trkpt>
      <trkpt lat="54.16188" lon="15.4435">
        <ele>40.108028</ele>
        <time>2024-07-28T08:48:28.679Z</time>
      </trkpt>
      <trkpt lat="54.16187" lon="15.44367">
        <ele>40.144924</ele>
        <time>2024-07-28T08:48:30.663Z</time>
      </trkpt>
      <trkpt lat="54.16187" lon="15.44383">
        <ele>40.180239</ele>
        <time>2024-07-28T08:48:32.674Z</time>
      </trkpt>
      <trkpt lat="54.16187" lon="15.44399">
        <ele>40.215802</ele>
        <time>2024-07-28T08:48:34.668Z</time>
      </trkpt>
      <trkpt lat="54.16186" lon="15.44415">
        <ele>40.250338</ele>
        <time>2024-07-28T08:48:36.686Z</time>
      </trkpt>
      <trkpt lat="54.16187" lon="15.4443">
        <ele>40.284903</ele>
        <time>2024-07-28T08:48:38.666Z</time>
      </trkpt>
      <trkpt lat="54.16187" lon="15.44446">
        <ele>40.313207</ele>
        <time>2024-07-28T08:48:40.680Z</time>
      </trkpt>
      <trkpt lat="54.16187" lon="15.44462">
        <ele>40.339876</ele>
        <time>2024-07-28T08:48:42.680Z</time>
      </trkpt>
      <trkpt lat="54.16188" lon="15.44478">
        <ele>40.367035</ele>
        <time>2024-07-28T08:48:44.679Z</time>
      </trkpt>
      <trkpt lat="54.16187" lon="15.44501">
        <ele>40.405731</ele>
        <time>2024-07-28T08:48:47.666Z</time>
      </trkpt>
      <trkpt lat="54.16188" lon="15.44517">
        <ele>40.433516</ele>
        <time>2024-07-28T08:48:49.689Z</time>
      </trkpt>
      <trkpt lat="54.16189" lon="15.44533">
        <ele>40.459708</ele>
        <time>2024-07-28T08:48:51.672Z</time>
      </trkpt>
      <trkpt lat="54.16189" lon="15.44549">
        <ele>40.486885</ele>
        <time>2024-07-28T08:48:53.680Z</time>
      </trkpt>
      <trkpt lat="54.16189" lon="15.44564">
        <ele>40.513874</ele>
        <time>2024-07-28T08:48:55.683Z</time>
      </trkpt>
      <trkpt lat="54.16189" lon="15.4458">
        <ele>40.541028</ele>
        <time>2024-07-28T08:48:57.666Z</time>
      </trkpt>
      <trkpt lat="54.16189" lon="15.44603">
        <ele>40.579212</ele>
        <time>2024-07-28T08:49:00.672Z</time>
      </trkpt>
      <trkpt lat="54.16189" lon="15.44618">
        <ele>40.605348</ele>
        <time>2024-07-28T08:49:02.671Z</time>
      </trkpt>
      <trkpt lat="54.1619" lon="15.44639">
        <ele>40.641353</ele>
        <time>2024-07-28T08:49:05.667Z</time>
      </trkpt>
      <trkpt lat="54.1619" lon="15.44659">
        <ele>40.673982</ele>
        <time>2024-07-28T08:49:08.667Z</time>
      </trkpt>
      <trkpt lat="54.16191" lon="15.44682">
        <ele>40.714202</ele>
        <time>2024-07-28T08:49:11.666Z</time>
      </trkpt>
      <trkpt lat="54.16193" lon="15.44699">
        <ele>40.742587</ele>
        <time>2024-07-28T08:49:13.680Z</time>
      </trkpt>
      <trkpt lat="54.16193" lon="15.44714">
        <ele>40.7688</ele>
        <time>2024-07-28T08:49:15.653Z</time>
      </trkpt>
      <trkpt lat="54.16194" lon="15.44731">
        <ele>40.796984</ele>
        <time>2024-07-28T08:49:17.671Z</time>
      </trkpt>
      <trkpt lat="54.16194" lon="15.44747">
        <ele>40.715155</ele>
        <time>2024-07-28T08:49:19.674Z</time>
      </trkpt>
      <trkpt lat="54.16195" lon="15.44762">
        <ele>40.533503</ele>
        <time>2024-07-28T08:49:21.669Z</time>
      </trkpt>
      <trkpt lat="54.16198" lon="15.44784">
        <ele>40.261838</ele>
        <time>2024-07-28T08:49:24.672Z</time>
      </trkpt>
      <trkpt lat="54.162" lon="15.44801">
        <ele>40.064174</ele>
        <time>2024-07-28T08:49:26.645Z</time>
      </trkpt>
      <trkpt lat="54.16203" lon="15.44817">
        <ele>39.86651</ele>
        <time>2024-07-28T08:49:28.670Z</time>
      </trkpt>
      <trkpt lat="54.16205" lon="15.44833">
        <ele>39.670755</ele>
        <time>2024-07-28T08:49:30.672Z</time>
      </trkpt>
      <trkpt lat="54.16208" lon="15.44849">
        <ele>39.47727</ele>
        <time>2024-07-28T08:49:32.665Z</time>
      </trkpt>
      <trkpt lat="54.16211" lon="15.44865">
        <ele>39.281453</ele>
        <time>2024-07-28T08:49:34.674Z</time>
      </trkpt>
      <trkpt lat="54.16213" lon="15.4488">
        <ele>39.09016</ele>
        <time>2024-07-28T08:49:36.668Z</time>
      </trkpt>
      <trkpt lat="54.16217" lon="15.44903">
        <ele>38.815181</ele>
        <time>2024-07-28T08:49:39.669Z</time>
      </trkpt>
      <trkpt lat="54.1622" lon="15.44919">
        <ele>38.621094</ele>
        <time>2024-07-28T08:49:41.661Z</time>
      </trkpt>
      <trkpt lat="54.16223" lon="15.44935">
        <ele>38.419734</ele>
        <time>2024-07-28T08:49:43.672Z</time>
      </trkpt>
      <trkpt lat="54.16226" lon="15.44951">
        <ele>38.215446</ele>
        <time>2024-07-28T08:49:45.668Z</time>
      </trkpt>
      <trkpt lat="54.16229" lon="15.44967">
        <ele>38.023464</ele>
        <time>2024-07-28T08:49:47.669Z</time>
      </trkpt>
      <trkpt lat="54.16231" lon="15.44982">
        <ele>37.838202</ele>
        <time>2024-07-28T08:49:49.672Z</time>
      </trkpt>
      <trkpt lat="54.16234" lon="15.44997">
        <ele>37.649191</ele>
        <time>2024-07-28T08:49:51.658Z</time>
      </trkpt>
      <trkpt lat="54.16236" lon="15.45013">
        <ele>37.455571</ele>
        <time>2024-07-28T08:49:53.665Z</time>
      </trkpt>
      <trkpt lat="54.16239" lon="15.4503">
        <ele>37.252477</ele>
        <time>2024-07-28T08:49:55.681Z</time>
      </trkpt>
      <trkpt lat="54.16241" lon="15.45048">
        <ele>37.325633</ele>
        <time>2024-07-28T08:49:57.661Z</time>
      </trkpt>
      <trkpt lat="54.16244" lon="15.45064">
        <ele>37.505858</ele>
        <time>2024-07-28T08:49:59.656Z</time>
      </trkpt>
      <trkpt lat="54.16247" lon="15.45081">
        <ele>37.691813</ele>
        <time>2024-07-28T08:50:01.677Z</time>
      </trkpt>
      <trkpt lat="54.16251" lon="15.45096">
        <ele>37.871004</ele>
        <time>2024-07-28T08:50:03.666Z</time>
      </trkpt>
      <trkpt lat="54.16255" lon="15.45113">
        <ele>38.064362</ele>
        <time>2024-07-28T08:50:05.687Z</time>
      </trkpt>
      <trkpt lat="54.16258" lon="15.4513">
        <ele>38.248735</ele>
        <time>2024-07-28T08:50:07.672Z</time>
      </trkpt>
      <trkpt lat="54.16261" lon="15.45146">
        <ele>38.426398</ele>
        <time>2024-07-28T08:50:09.677Z</time>
      </trkpt>
      <trkpt lat="54.16264" lon="15.45162">
        <ele>38.605588</ele>
        <time>2024-07-28T08:50:11.680Z</time>
      </trkpt>
      <trkpt lat="54.16267" lon="15.45177">
        <ele>38.780699</ele>
        <time>2024-07-28T08:50:13.667Z</time>
      </trkpt>
      <trkpt lat="54.1627" lon="15.45194">
        <ele>38.960384</ele>
        <time>2024-07-28T08:50:15.666Z</time>
      </trkpt>
      <trkpt lat="54.16272" lon="15.45209">
        <ele>39.131622</ele>
        <time>2024-07-28T08:50:17.677Z</time>
      </trkpt>
      <trkpt lat="54.16274" lon="15.45225">
        <ele>39.307279</ele>
        <time>2024-07-28T08:50:19.659Z</time>
      </trkpt>
      <trkpt lat="54.16278" lon="15.45241">
        <ele>39.482224</ele>
        <time>2024-07-28T08:50:21.650Z</time>
      </trkpt>
      <trkpt lat="54.16281" lon="15.45256">
        <ele>39.653375</ele>
        <time>2024-07-28T08:50:23.682Z</time>
      </trkpt>
      <trkpt lat="54.16283" lon="15.45272">
        <ele>39.81891</ele>
        <time>2024-07-28T08:50:25.652Z</time>
      </trkpt>
      <trkpt lat="54.16284" lon="15.45288">
        <ele>39.99156</ele>
        <time>2024-07-28T08:50:27.664Z</time>
      </trkpt>
      <trkpt lat="54.16286" lon="15.45304">
        <ele>40.166872</ele>
        <time>2024-07-28T08:50:29.671Z</time>
      </trkpt>
      <trkpt lat="54.16288" lon="15.45319">
        <ele>40.332123</ele>
        <time>2024-07-28T08:50:31.673Z</time>
      </trkpt>
      <trkpt lat="54.16289" lon="15.45335">
        <ele>40.45312</ele>
        <time>2024-07-28T08:50:33.667Z</time>
      </trkpt>
      <trkpt lat="54.16292" lon="15.45351">
        <ele>40.471314</ele>
        <time>2024-07-28T08:50:35.672Z</time>
      </trkpt>
      <trkpt lat="54.16295" lon="15.45374">
        <ele>40.49727</ele>
        <time>2024-07-28T08:50:38.667Z</time>
      </trkpt>
      <trkpt lat="54.16297" lon="15.45395">
        <ele>40.521249</ele>
        <time>2024-07-28T08:50:41.684Z</time>
      </trkpt>
      <trkpt lat="54.16297" lon="15.45411">
        <ele>40.538923</ele>
        <time>2024-07-28T08:50:43.664Z</time>
      </trkpt>
      <trkpt lat="54.16297" lon="15.45428">
        <ele>40.557003</ele>
        <time>2024-07-28T08:50:45.668Z</time>
      </trkpt>
      <trkpt lat="54.16299" lon="15.45445">
        <ele>40.576141</ele>
        <time>2024-07-28T08:50:47.670Z</time>
      </trkpt>
      <trkpt lat="54.163" lon="15.45461">
        <ele>40.594018</ele>
        <time>2024-07-28T08:50:49.654Z</time>
      </trkpt>
      <trkpt lat="54.16305" lon="15.45482">
        <ele>40.619158</ele>
        <time>2024-07-28T08:50:52.662Z</time>
      </trkpt>
      <trkpt lat="54.1631" lon="15.45501">
        <ele>40.642204</ele>
        <time>2024-07-28T08:50:55.678Z</time>
      </trkpt>
      <trkpt lat="54.16313" lon="15.4552">
        <ele>40.664233</ele>
        <time>2024-07-28T08:50:58.654Z</time>
      </trkpt>
      <trkpt lat="54.16315" lon="15.45545">
        <ele>40.691628</ele>
        <time>2024-07-28T08:51:01.676Z</time>
      </trkpt>
      <trkpt lat="54.16316" lon="15.45564">
        <ele>40.712878</ele>
        <time>2024-07-28T08:51:03.664Z</time>
      </trkpt>
      <trkpt lat="54.16316" lon="15.45582">
        <ele>40.732375</ele>
        <time>2024-07-28T08:51:05.666Z</time>
      </trkpt>
      <trkpt lat="54.16316" lon="15.45599">
        <ele>40.75111</ele>
        <time>2024-07-28T08:51:07.660Z</time>
      </trkpt>
      <trkpt lat="54.16319" lon="15.45616">
        <ele>40.770372</ele>
        <time>2024-07-28T08:51:09.660Z</time>
      </trkpt>
      <trkpt lat="54.1632" lon="15.45633">
        <ele>40.782651</ele>
        <time>2024-07-28T08:51:11.660Z</time>
      </trkpt>
      <trkpt lat="54.16322" lon="15.45648">
        <ele>40.76552</ele>
        <time>2024-07-28T08:51:13.667Z</time>
      </trkpt>
      <trkpt lat="54.16322" lon="15.45664">
        <ele>40.748407</ele>
        <time>2024-07-28T08:51:15.662Z</time>
      </trkpt>
      <trkpt lat="54.1632" lon="15.4568">
        <ele>40.730488</ele>
        <time>2024-07-28T08:51:17.653Z</time>
      </trkpt>
      <trkpt lat="54.16322" lon="15.45695">
        <ele>40.713354</ele>
        <time>2024-07-28T08:51:19.652Z</time>
      </trkpt>
      <trkpt lat="54.16328" lon="15.45716">
        <ele>40.687975</ele>
        <time>2024-07-28T08:51:22.668Z</time>
      </trkpt>
      <trkpt lat="54.1633" lon="15.45733">
        <ele>40.669771</ele>
        <time>2024-07-28T08:51:24.651Z</time>
      </trkpt>
      <trkpt lat="54.16332" lon="15.45754">
        <ele>40.645793</ele>
        <time>2024-07-28T08:51:27.652Z</time>
      </trkpt>
      <trkpt lat="54.16331" lon="15.45776">
        <ele>40.621281</ele>
        <time>2024-07-28T08:51:30.654Z</time>
      </trkpt>
      <trkpt lat="54.16327" lon="15.45791">
        <ele>40.603178</ele>
        <time>2024-07-28T08:51:32.665Z</time>
      </trkpt>
      <trkpt lat="54.16323" lon="15.45808">
        <ele>40.583696</ele>
        <time>2024-07-28T08:51:34.661Z</time>
      </trkpt>
      <trkpt lat="54.16323" lon="15.45825">
        <ele>40.564853</ele>
        <time>2024-07-28T08:51:36.655Z</time>
      </trkpt>
      <trkpt lat="54.16324" lon="15.45841">
        <ele>40.546672</ele>
        <time>2024-07-28T08:51:38.668Z</time>
      </trkpt>
      <trkpt lat="54.16325" lon="15.45857">
        <ele>40.529135</ele>
        <time>2024-07-28T08:51:40.676Z</time>
      </trkpt>
      <trkpt lat="54.16327" lon="15.4588">
        <ele>40.503968</ele>
        <time>2024-07-28T08:51:43.668Z</time>
      </trkpt>
      <trkpt lat="54.16328" lon="15.45896">
        <ele>40.486866</ele>
        <time>2024-07-28T08:51:45.672Z</time>
      </trkpt>
      <trkpt lat="54.16329" lon="15.45918">
        <ele>40.462258</ele>
        <time>2024-07-28T08:51:48.665Z</time>
      </trkpt>
      <trkpt lat="54.1633" lon="15.45935">
        <ele>40.453795</ele>
        <time>2024-07-28T08:51:51.679Z</time>
      </trkpt>
      <trkpt lat="54.16331" lon="15.4595">
        <ele>40.467101</ele>
        <time>2024-07-28T08:52:08.676Z</time>
      </trkpt>
      <trkpt lat="54.16332" lon="15.45971">
        <ele>40.484379</ele>
        <time>2024-07-28T08:52:12.691Z</time>
      </trkpt>
      <trkpt lat="54.16334" lon="15.45989">
        <ele>40.499753</ele>
        <time>2024-07-28T08:52:15.652Z</time>
      </trkpt>
      <trkpt lat="54.16336" lon="15.46008">
        <ele>40.516506</ele>
        <time>2024-07-28T08:52:18.681Z</time>
      </trkpt>
      <trkpt lat="54.16336" lon="15.46024">
        <ele>40.529683</ele>
        <time>2024-07-28T08:52:20.656Z</time>
      </trkpt>
      <trkpt lat="54.16338" lon="15.46039">
        <ele>40.543109</ele>
        <time>2024-07-28T08:52:22.684Z</time>
      </trkpt>
      <trkpt lat="54.16338" lon="15.46055">
        <ele>40.556153</ele>
        <time>2024-07-28T08:52:24.670Z</time>
      </trkpt>
      <trkpt lat="54.16339" lon="15.46077">
        <ele>40.575207</ele>
        <time>2024-07-28T08:52:27.674Z</time>
      </trkpt>
      <trkpt lat="54.16341" lon="15.46094">
        <ele>40.589081</ele>
        <time>2024-07-28T08:52:29.662Z</time>
      </trkpt>
      <trkpt lat="54.16342" lon="15.4611">
        <ele>40.602909</ele>
        <time>2024-07-28T08:52:31.675Z</time>
      </trkpt>
      <trkpt lat="54.16344" lon="15.46125">
        <ele>40.616092</ele>
        <time>2024-07-28T08:52:33.647Z</time>
      </trkpt>
      <trkpt lat="54.16345" lon="15.46141">
        <ele>40.629732</ele>
        <time>2024-07-28T08:52:35.684Z</time>
      </trkpt>
      <trkpt lat="54.16346" lon="15.46158">
        <ele>40.643923</ele>
        <time>2024-07-28T08:52:37.659Z</time>
      </trkpt>
      <trkpt lat="54.16347" lon="15.46174">
        <ele>40.657219</ele>
        <time>2024-07-28T08:52:39.668Z</time>
      </trkpt>
      <trkpt lat="54.16347" lon="15.46189">
        <ele>40.670231</ele>
        <time>2024-07-28T08:52:41.666Z</time>
      </trkpt>
      <trkpt lat="54.16349" lon="15.46205">
        <ele>40.684187</ele>
        <time>2024-07-28T08:52:43.669Z</time>
      </trkpt>
      <trkpt lat="54.1635" lon="15.46223">
        <ele>40.698898</ele>
        <time>2024-07-28T08:52:45.669Z</time>
      </trkpt>
      <trkpt lat="54.16351" lon="15.4624">
        <ele>40.689565</ele>
        <time>2024-07-28T08:52:47.668Z</time>
      </trkpt>
      <trkpt lat="54.16353" lon="15.46258">
        <ele>40.634435</ele>
        <time>2024-07-28T08:52:49.674Z</time>
      </trkpt>
      <trkpt lat="54.16354" lon="15.46276">
        <ele>40.579663</ele>
        <time>2024-07-28T08:52:51.670Z</time>
      </trkpt>
      <trkpt lat="54.16354" lon="15.46292">
        <ele>40.527822</ele>
        <time>2024-07-28T08:52:53.673Z</time>
      </trkpt>
      <trkpt lat="54.16355" lon="15.46311">
        <ele>40.47098</ele>
        <time>2024-07-28T08:52:55.690Z</time>
      </trkpt>
      <trkpt lat="54.16355" lon="15.46328">
        <ele>40.415317</ele>
        <time>2024-07-28T08:52:57.687Z</time>
      </trkpt>
      <trkpt lat="54.16356" lon="15.46345">
        <ele>40.365136</ele>
        <time>2024-07-28T08:52:59.668Z</time>
      </trkpt>
      <trkpt lat="54.16358" lon="15.46361">
        <ele>40.312631</ele>
        <time>2024-07-28T08:53:01.677Z</time>
      </trkpt>
      <trkpt lat="54.1636" lon="15.46379">
        <ele>40.257812</ele>
        <time>2024-07-28T08:53:03.660Z</time>
      </trkpt>
      <trkpt lat="54.16362" lon="15.46396">
        <ele>40.203599</ele>
        <time>2024-07-28T08:53:05.665Z</time>
      </trkpt>
      <trkpt lat="54.16363" lon="15.46413">
        <ele>40.148425</ele>
        <time>2024-07-28T08:53:07.668Z</time>
      </trkpt>
      <trkpt lat="54.16364" lon="15.46431">
        <ele>40.094988</ele>
        <time>2024-07-28T08:53:09.668Z</time>
      </trkpt>
      <trkpt lat="54.16365" lon="15.46448">
        <ele>40.04079</ele>
        <time>2024-07-28T08:53:11.676Z</time>
      </trkpt>
      <trkpt lat="54.16366" lon="15.46466">
        <ele>39.984888</ele>
        <time>2024-07-28T08:53:13.665Z</time>
      </trkpt>
      <trkpt lat="54.16367" lon="15.46484">
        <ele>39.929091</ele>
        <time>2024-07-28T08:53:15.676Z</time>
      </trkpt>
      <trkpt lat="54.16369" lon="15.46502">
        <ele>39.872012</ele>
        <time>2024-07-28T08:53:17.670Z</time>
      </trkpt>
      <trkpt lat="54.16369" lon="15.46519">
        <ele>39.819405</ele>
        <time>2024-07-28T08:53:19.669Z</time>
      </trkpt>
      <trkpt lat="54.16371" lon="15.46536">
        <ele>39.765062</ele>
        <time>2024-07-28T08:53:21.655Z</time>
      </trkpt>
      <trkpt lat="54.16373" lon="15.46554">
        <ele>39.74734</ele>
        <time>2024-07-28T08:53:23.664Z</time>
      </trkpt>
      <trkpt lat="54.16374" lon="15.46572">
        <ele>39.73721</ele>
        <time>2024-07-28T08:53:25.663Z</time>
      </trkpt>
      <trkpt lat="54.16375" lon="15.4659">
        <ele>39.727281</ele>
        <time>2024-07-28T08:53:27.678Z</time>
      </trkpt>
      <trkpt lat="54.16376" lon="15.46607">
        <ele>39.717868</ele>
        <time>2024-07-28T08:53:29.661Z</time>
      </trkpt>
      <trkpt lat="54.16377" lon="15.46623">
        <ele>39.708427</ele>
        <time>2024-07-28T08:53:31.669Z</time>
      </trkpt>
      <trkpt lat="54.16379" lon="15.4664">
        <ele>39.698938</ele>
        <time>2024-07-28T08:53:33.659Z</time>
      </trkpt>
      <trkpt lat="54.1638" lon="15.46658">
        <ele>39.688784</ele>
        <time>2024-07-28T08:53:35.668Z</time>
      </trkpt>
      <trkpt lat="54.1638" lon="15.46676">
        <ele>39.679032</ele>
        <time>2024-07-28T08:53:37.662Z</time>
      </trkpt>
      <trkpt lat="54.16381" lon="15.46693">
        <ele>39.669744</ele>
        <time>2024-07-28T08:53:39.672Z</time>
      </trkpt>
      <trkpt lat="54.16381" lon="15.4671">
        <ele>39.659985</ele>
        <time>2024-07-28T08:53:41.665Z</time>
      </trkpt>
      <trkpt lat="54.16383" lon="15.46727">
        <ele>39.650674</ele>
        <time>2024-07-28T08:53:43.669Z</time>
      </trkpt>
      <trkpt lat="54.16383" lon="15.46745">
        <ele>39.640322</ele>
        <time>2024-07-28T08:53:45.677Z</time>
      </trkpt>
      <trkpt lat="54.16384" lon="15.46762">
        <ele>39.63099</ele>
        <time>2024-07-28T08:53:47.671Z</time>
      </trkpt>
      <trkpt lat="54.16386" lon="15.46779">
        <ele>39.621487</ele>
        <time>2024-07-28T08:53:49.681Z</time>
      </trkpt>
      <trkpt lat="54.16388" lon="15.46795">
        <ele>39.61252</ele>
        <time>2024-07-28T08:53:51.672Z</time>
      </trkpt>
      <trkpt lat="54.16389" lon="15.46811">
        <ele>39.603221</ele>
        <time>2024-07-28T08:53:53.668Z</time>
      </trkpt>
      <trkpt lat="54.16389" lon="15.46828">
        <ele>39.593768</ele>
        <time>2024-07-28T08:53:55.675Z</time>
      </trkpt>
      <trkpt lat="54.16391" lon="15.46847">
        <ele>39.586592</ele>
        <time>2024-07-28T08:53:57.688Z</time>
      </trkpt>
      <trkpt lat="54.16393" lon="15.46865">
        <ele>39.597568</ele>
        <time>2024-07-28T08:53:59.695Z</time>
      </trkpt>
      <trkpt lat="54.16395" lon="15.46882">
        <ele>39.60813</ele>
        <time>2024-07-28T08:54:01.667Z</time>
      </trkpt>
      <trkpt lat="54.16397" lon="15.46899">
        <ele>39.618552</ele>
        <time>2024-07-28T08:54:03.683Z</time>
      </trkpt>
      <trkpt lat="54.16399" lon="15.46915">
        <ele>39.628799</ele>
        <time>2024-07-28T08:54:05.663Z</time>
      </trkpt>
      <trkpt lat="54.16399" lon="15.46932">
        <ele>39.638959</ele>
        <time>2024-07-28T08:54:07.669Z</time>
      </trkpt>
      <trkpt lat="54.164" lon="15.46949">
        <ele>39.649369</ele>
        <time>2024-07-28T08:54:09.660Z</time>
      </trkpt>
      <trkpt lat="54.16403" lon="15.46973">
        <ele>39.663727</ele>
        <time>2024-07-28T08:54:12.670Z</time>
      </trkpt>
      <trkpt lat="54.16405" lon="15.4699">
        <ele>39.674135</ele>
        <time>2024-07-28T08:54:14.671Z</time>
      </trkpt>
      <trkpt lat="54.16406" lon="15.47006">
        <ele>39.684102</ele>
        <time>2024-07-28T08:54:16.661Z</time>
      </trkpt>
      <trkpt lat="54.16408" lon="15.47023">
        <ele>39.694555</ele>
        <time>2024-07-28T08:54:18.682Z</time>
      </trkpt>
      <trkpt lat="54.1641" lon="15.47039">
        <ele>39.704623</ele>
        <time>2024-07-28T08:54:20.669Z</time>
      </trkpt>
      <trkpt lat="54.16412" lon="15.47056">
        <ele>39.714817</ele>
        <time>2024-07-28T08:54:22.669Z</time>
      </trkpt>
      <trkpt lat="54.16413" lon="15.47072">
        <ele>39.72497</ele>
        <time>2024-07-28T08:54:24.655Z</time>
      </trkpt>
      <trkpt lat="54.16415" lon="15.47088">
        <ele>39.734828</ele>
        <time>2024-07-28T08:54:26.667Z</time>
      </trkpt>
      <trkpt lat="54.16416" lon="15.47105">
        <ele>39.744816</ele>
        <time>2024-07-28T08:54:28.672Z</time>
      </trkpt>
      <trkpt lat="54.16418" lon="15.47121">
        <ele>39.755104</ele>
        <time>2024-07-28T08:54:30.670Z</time>
      </trkpt>
      <trkpt lat="54.1642" lon="15.47138">
        <ele>39.765453</ele>
        <time>2024-07-28T08:54:32.664Z</time>
      </trkpt>
      <trkpt lat="54.16421" lon="15.47157">
        <ele>39.764824</ele>
        <time>2024-07-28T08:54:34.662Z</time>
      </trkpt>
      <trkpt lat="54.16423" lon="15.47174">
        <ele>39.754479</ele>
        <time>2024-07-28T08:54:36.659Z</time>
      </trkpt>
      <trkpt lat="54.16425" lon="15.47192">
        <ele>39.744184</ele>
        <time>2024-07-28T08:54:38.670Z</time>
      </trkpt>
      <trkpt lat="54.16426" lon="15.47208">
        <ele>39.734847</ele>
        <time>2024-07-28T08:54:40.666Z</time>
      </trkpt>
      <trkpt lat="54.16428" lon="15.47225">
        <ele>39.72487</ele>
        <time>2024-07-28T08:54:42.661Z</time>
      </trkpt>
      <trkpt lat="54.1643" lon="15.47242">
        <ele>39.715175</ele>
        <time>2024-07-28T08:54:44.680Z</time>
      </trkpt>
      <trkpt lat="54.16432" lon="15.47259">
        <ele>39.704975</ele>
        <time>2024-07-28T08:54:46.670Z</time>
      </trkpt>
      <trkpt lat="54.16433" lon="15.47277">
        <ele>39.694758</ele>
        <time>2024-07-28T08:54:48.666Z</time>
      </trkpt>
      <trkpt lat="54.16434" lon="15.47293">
        <ele>39.685181</ele>
        <time>2024-07-28T08:54:50.667Z</time>
      </trkpt>
      <trkpt lat="54.16436" lon="15.4731">
        <ele>39.675432</ele>
        <time>2024-07-28T08:54:52.678Z</time>
      </trkpt>
      <trkpt lat="54.16436" lon="15.47327">
        <ele>39.665728</ele>
        <time>2024-07-28T08:54:54.672Z</time>
      </trkpt>
      <trkpt lat="54.16438" lon="15.47344">
        <ele>39.655603</ele>
        <time>2024-07-28T08:54:56.676Z</time>
      </trkpt>
      <trkpt lat="54.16439" lon="15.47361">
        <ele>39.646153</ele>
        <time>2024-07-28T08:54:58.671Z</time>
      </trkpt>
      <trkpt lat="54.1644" lon="15.47377">
        <ele>39.636619</ele>
        <time>2024-07-28T08:55:00.672Z</time>
      </trkpt>
      <trkpt lat="54.16442" lon="15.47393">
        <ele>39.626906</ele>
        <time>2024-07-28T08:55:02.665Z</time>
      </trkpt>
      <trkpt lat="54.16444" lon="15.4741">
        <ele>39.617414</ele>
        <time>2024-07-28T08:55:04.668Z</time>
      </trkpt>
      <trkpt lat="54.16445" lon="15.47427">
        <ele>39.607666</ele>
        <time>2024-07-28T08:55:06.675Z</time>
      </trkpt>
      <trkpt lat="54.16447" lon="15.47443">
        <ele>39.598162</ele>
        <time>2024-07-28T08:55:08.681Z</time>
      </trkpt>
      <trkpt lat="54.16448" lon="15.4746">
        <ele>39.517354</ele>
        <time>2024-07-28T08:55:10.669Z</time>
      </trkpt>
      <trkpt lat="54.1645" lon="15.47477">
        <ele>39.383407</ele>
        <time>2024-07-28T08:55:12.674Z</time>
      </trkpt>
      <trkpt lat="54.16452" lon="15.47493">
        <ele>39.254735</ele>
        <time>2024-07-28T08:55:14.677Z</time>
      </trkpt>
      <trkpt lat="54.16454" lon="15.47509">
        <ele>39.12522</ele>
        <time>2024-07-28T08:55:16.669Z</time>
      </trkpt>
      <trkpt lat="54.16456" lon="15.47525">
        <ele>38.993946</ele>
        <time>2024-07-28T08:55:18.669Z</time>
      </trkpt>
      <trkpt lat="54.16457" lon="15.47542">
        <ele>38.864072</ele>
        <time>2024-07-28T08:55:20.672Z</time>
      </trkpt>
      <trkpt lat="54.16459" lon="15.47558">
        <ele>38.735628</ele>
        <time>2024-07-28T08:55:22.685Z</time>
      </trkpt>
      <trkpt lat="54.1646" lon="15.47575">
        <ele>38.598379</ele>
        <time>2024-07-28T08:55:24.672Z</time>
      </trkpt>
      <trkpt lat="54.16462" lon="15.47592">
        <ele>38.465584</ele>
        <time>2024-07-28T08:55:26.665Z</time>
      </trkpt>
      <trkpt lat="54.16463" lon="15.47609">
        <ele>38.331056</ele>
        <time>2024-07-28T08:55:28.666Z</time>
      </trkpt>
      <trkpt lat="54.16464" lon="15.47626">
        <ele>38.197303</ele>
        <time>2024-07-28T08:55:30.681Z</time>
      </trkpt>
      <trkpt lat="54.16466" lon="15.47644">
        <ele>38.054234</ele>
        <time>2024-07-28T08:55:32.682Z</time>
      </trkpt>
      <trkpt lat="54.16468" lon="15.47661">
        <ele>37.915531</ele>
        <time>2024-07-28T08:55:34.692Z</time>
      </trkpt>
      <trkpt lat="54.16469" lon="15.47681">
        <ele>37.762964</ele>
        <time>2024-07-28T08:55:36.673Z</time>
      </trkpt>
      <trkpt lat="54.16471" lon="15.477">
        <ele>37.61323</ele>
        <time>2024-07-28T08:55:38.655Z</time>
      </trkpt>
      <trkpt lat="54.16474" lon="15.47718">
        <ele>37.461854</ele>
        <time>2024-07-28T08:55:40.687Z</time>
      </trkpt>
      <trkpt lat="54.16476" lon="15.47737">
        <ele>37.314121</ele>
        <time>2024-07-28T08:55:42.668Z</time>
      </trkpt>
      <trkpt lat="54.16477" lon="15.47756">
        <ele>37.254274</ele>
        <time>2024-07-28T08:55:44.659Z</time>
      </trkpt>
      <trkpt lat="54.1648" lon="15.47774">
        <ele>37.744429</ele>
        <time>2024-07-28T08:55:46.665Z</time>
      </trkpt>
      <trkpt lat="54.16482" lon="15.47793">
        <ele>38.233959</ele>
        <time>2024-07-28T08:55:48.656Z</time>
      </trkpt>
      <trkpt lat="54.16484" lon="15.4781">
        <ele>38.677127</ele>
        <time>2024-07-28T08:55:50.684Z</time>
      </trkpt>
      <trkpt lat="54.16486" lon="15.47828">
        <ele>39.157632</ele>
        <time>2024-07-28T08:55:53.661Z</time>
      </trkpt>
      <trkpt lat="54.16488" lon="15.47853">
        <ele>39.799796</ele>
        <time>2024-07-28T08:56:35.666Z</time>
      </trkpt>
      <trkpt lat="54.1649" lon="15.4787">
        <ele>40.237047</ele>
        <time>2024-07-28T08:56:39.682Z</time>
      </trkpt>
      <trkpt lat="54.16491" lon="15.47886">
        <ele>40.644419</ele>
        <time>2024-07-28T08:56:42.688Z</time>
      </trkpt>
      <trkpt lat="54.16494" lon="15.479">
        <ele>41.043242</ele>
        <time>2024-07-28T08:56:45.664Z</time>
      </trkpt>
      <trkpt lat="54.16495" lon="15.47919">
        <ele>41.511014</ele>
        <time>2024-07-28T08:56:49.670Z</time>
      </trkpt>
      <trkpt lat="54.16497" lon="15.47936">
        <ele>41.954963</ele>
        <time>2024-07-28T08:57:14.669Z</time>
      </trkpt>
      <trkpt lat="54.16499" lon="15.47952">
        <ele>42.39155</ele>
        <time>2024-07-28T08:57:19.661Z</time>
      </trkpt>
      <trkpt lat="54.16497" lon="15.47937">
        <ele>42.799233</ele>
        <time>2024-07-28T08:57:32.669Z</time>
      </trkpt>
      <trkpt lat="54.16495" lon="15.47914">
        <ele>43.378633</ele>
        <time>2024-07-28T08:57:35.694Z</time>
      </trkpt>
      <trkpt lat="54.16494" lon="15.47897">
        <ele>43.83044</ele>
        <time>2024-07-28T08:57:37.689Z</time>
      </trkpt>
      <trkpt lat="54.16492" lon="15.47881">
        <ele>44.250091</ele>
        <time>2024-07-28T08:57:39.688Z</time>
      </trkpt>
      <trkpt lat="54.16489" lon="15.47861">
        <ele>44.763695</ele>
        <time>2024-07-28T08:57:42.676Z</time>
      </trkpt>
      <trkpt lat="54.16487" lon="15.47845">
        <ele>45.050459</ele>
        <time>2024-07-28T08:57:45.671Z</time>
      </trkpt>
      <trkpt lat="54.16484" lon="15.47827">
        <ele>44.995342</ele>
        <time>2024-07-28T08:57:48.670Z</time>
      </trkpt>
      <trkpt lat="54.16485" lon="15.47844">
        <ele>44.943484</ele>
        <time>2024-07-28T08:58:23.661Z</time>
      </trkpt>
      <trkpt lat="54.16487" lon="15.47863">
        <ele>44.884195</ele>
        <time>2024-07-28T08:58:27.648Z</time>
      </trkpt>
      <trkpt lat="54.1649" lon="15.47881">
        <ele>44.827446</ele>
        <time>2024-07-28T08:58:30.679Z</time>
      </trkpt>
      <trkpt lat="54.16493" lon="15.479">
        <ele>44.766006</ele>
        <time>2024-07-28T08:58:33.666Z</time>
      </trkpt>
      <trkpt lat="54.16495" lon="15.4792">
        <ele>44.704767</ele>
        <time>2024-07-28T08:58:36.643Z</time>
      </trkpt>
      <trkpt lat="54.16496" lon="15.47942">
        <ele>44.638449</ele>
        <time>2024-07-28T08:58:39.669Z</time>
      </trkpt>
      <trkpt lat="54.16497" lon="15.47957">
        <ele>44.589715</ele>
        <time>2024-07-28T08:58:41.668Z</time>
      </trkpt>
      <trkpt lat="54.165" lon="15.47979">
        <ele>44.522912</ele>
        <time>2024-07-28T08:58:44.659Z</time>
      </trkpt>
      <trkpt lat="54.16503" lon="15.48">
        <ele>44.456675</ele>
        <time>2024-07-28T08:58:47.666Z</time>
      </trkpt>
      <trkpt lat="54.16506" lon="15.4802">
        <ele>44.394195</ele>
        <time>2024-07-28T08:58:50.675Z</time>
      </trkpt>
      <trkpt lat="54.16509" lon="15.48041">
        <ele>44.32687</ele>
        <time>2024-07-28T08:58:53.678Z</time>
      </trkpt>
      <trkpt lat="54.16511" lon="15.48061">
        <ele>44.263351</ele>
        <time>2024-07-28T08:58:56.660Z</time>
      </trkpt>
      <trkpt lat="54.16512" lon="15.48082">
        <ele>44.199557</ele>
        <time>2024-07-28T08:58:59.673Z</time>
      </trkpt>
      <trkpt lat="54.16515" lon="15.48104">
        <ele>44.131918</ele>
        <time>2024-07-28T08:59:02.666Z</time>
      </trkpt>
      <trkpt lat="54.16516" lon="15.48119">
        <ele>43.888735</ele>
        <time>2024-07-28T08:59:04.670Z</time>
      </trkpt>
      <trkpt lat="54.16517" lon="15.48136">
        <ele>43.584992</ele>
        <time>2024-07-28T08:59:06.662Z</time>
      </trkpt>
      <trkpt lat="54.16518" lon="15.48152">
        <ele>43.307936</ele>
        <time>2024-07-28T08:59:08.671Z</time>
      </trkpt>
      <trkpt lat="54.16519" lon="15.48174">
        <ele>42.933123</ele>
        <time>2024-07-28T08:59:11.663Z</time>
      </trkpt>
      <trkpt lat="54.1652" lon="15.48195">
        <ele>42.564193</ele>
        <time>2024-07-28T08:59:14.686Z</time>
      </trkpt>
      <trkpt lat="54.16523" lon="15.48219">
        <ele>42.140584</ele>
        <time>2024-07-28T08:59:17.674Z</time>
      </trkpt>
      <trkpt lat="54.16525" lon="15.48234">
        <ele>41.860545</ele>
        <time>2024-07-28T08:59:19.676Z</time>
      </trkpt>
      <trkpt lat="54.16526" lon="15.4825">
        <ele>41.582473</ele>
        <time>2024-07-28T08:59:21.664Z</time>
      </trkpt>
      <trkpt lat="54.16529" lon="15.48266">
        <ele>41.294361</ele>
        <time>2024-07-28T08:59:23.658Z</time>
      </trkpt>
      <trkpt lat="54.1653" lon="15.48282">
        <ele>41.01456</ele>
        <time>2024-07-28T08:59:25.657Z</time>
      </trkpt>
      <trkpt lat="54.16531" lon="15.483">
        <ele>40.701056</ele>
        <time>2024-07-28T08:59:27.666Z</time>
      </trkpt>
      <trkpt lat="54.16532" lon="15.48317">
        <ele>40.402761</ele>
        <time>2024-07-28T08:59:29.664Z</time>
      </trkpt>
      <trkpt lat="54.16533" lon="15.48333">
        <ele>40.130183</ele>
        <time>2024-07-28T08:59:31.676Z</time>
      </trkpt>
      <trkpt lat="54.16534" lon="15.48349">
        <ele>39.83855</ele>
        <time>2024-07-28T08:59:33.664Z</time>
      </trkpt>
      <trkpt lat="54.16536" lon="15.48366">
        <ele>39.543802</ele>
        <time>2024-07-28T08:59:35.681Z</time>
      </trkpt>
      <trkpt lat="54.16538" lon="15.48381">
        <ele>39.269025</ele>
        <time>2024-07-28T08:59:37.684Z</time>
      </trkpt>
      <trkpt lat="54.1654" lon="15.48396">
        <ele>38.998629</ele>
        <time>2024-07-28T08:59:39.667Z</time>
      </trkpt>
      <trkpt lat="54.16544" lon="15.48418">
        <ele>38.785784</ele>
        <time>2024-07-28T08:59:42.664Z</time>
      </trkpt>
      <trkpt lat="54.16547" lon="15.48434">
        <ele>38.788986</ele>
        <time>2024-07-28T08:59:44.684Z</time>
      </trkpt>
      <trkpt lat="54.16549" lon="15.4845">
        <ele>38.791996</ele>
        <time>2024-07-28T08:59:46.661Z</time>
      </trkpt>
      <trkpt lat="54.16552" lon="15.48466">
        <ele>38.795171</ele>
        <time>2024-07-28T08:59:48.686Z</time>
      </trkpt>
      <trkpt lat="54.16555" lon="15.48482">
        <ele>38.79845</ele>
        <time>2024-07-28T08:59:50.680Z</time>
      </trkpt>
      <trkpt lat="54.16557" lon="15.48498">
        <ele>38.801466</ele>
        <time>2024-07-28T08:59:52.674Z</time>
      </trkpt>
      <trkpt lat="54.16559" lon="15.4852">
        <ele>38.805638</ele>
        <time>2024-07-28T08:59:55.649Z</time>
      </trkpt>
      <trkpt lat="54.16561" lon="15.48536">
        <ele>38.808761</ele>
        <time>2024-07-28T08:59:57.670Z</time>
      </trkpt>
      <trkpt lat="54.16563" lon="15.48551">
        <ele>38.811792</ele>
        <time>2024-07-28T08:59:59.687Z</time>
      </trkpt>
      <trkpt lat="54.16566" lon="15.48567">
        <ele>38.814831</ele>
        <time>2024-07-28T09:00:01.678Z</time>
      </trkpt>
      <trkpt lat="54.16567" lon="15.48583">
        <ele>38.818006</ele>
        <time>2024-07-28T09:00:03.675Z</time>
      </trkpt>
      <trkpt lat="54.1657" lon="15.48599">
        <ele>38.821208</ele>
        <time>2024-07-28T09:00:05.689Z</time>
      </trkpt>
      <trkpt lat="54.16573" lon="15.48615">
        <ele>38.824355</ele>
        <time>2024-07-28T09:00:07.684Z</time>
      </trkpt>
      <trkpt lat="54.16575" lon="15.4863">
        <ele>38.827297</ele>
        <time>2024-07-28T09:00:09.670Z</time>
      </trkpt>
      <trkpt lat="54.16577" lon="15.48646">
        <ele>38.830383</ele>
        <time>2024-07-28T09:00:11.686Z</time>
      </trkpt>
      <trkpt lat="54.16579" lon="15.48661">
        <ele>38.833314</ele>
        <time>2024-07-28T09:00:13.674Z</time>
      </trkpt>
      <trkpt lat="54.1658" lon="15.48676">
        <ele>38.836217</ele>
        <time>2024-07-28T09:00:15.656Z</time>
      </trkpt>
      <trkpt lat="54.16582" lon="15.48698">
        <ele>38.840441</ele>
        <time>2024-07-28T09:00:18.688Z</time>
      </trkpt>
      <trkpt lat="54.16584" lon="15.48714">
        <ele>38.884714</ele>
        <time>2024-07-28T09:00:20.674Z</time>
      </trkpt>
      <trkpt lat="54.16586" lon="15.4873">
        <ele>38.973742</ele>
        <time>2024-07-28T09:00:22.679Z</time>
      </trkpt>
      <trkpt lat="54.16588" lon="15.48746">
        <ele>39.060886</ele>
        <time>2024-07-28T09:00:24.676Z</time>
      </trkpt>
      <trkpt lat="54.1659" lon="15.48761">
        <ele>39.147193</ele>
        <time>2024-07-28T09:00:26.661Z</time>
      </trkpt>
      <trkpt lat="54.16592" lon="15.48777">
        <ele>39.236047</ele>
        <time>2024-07-28T09:00:28.667Z</time>
      </trkpt>
      <trkpt lat="54.16594" lon="15.48793">
        <ele>39.326526</ele>
        <time>2024-07-28T09:00:30.672Z</time>
      </trkpt>
      <trkpt lat="54.16596" lon="15.48808">
        <ele>39.413988</ele>
        <time>2024-07-28T09:00:32.669Z</time>
      </trkpt>
      <trkpt lat="54.16598" lon="15.48824">
        <ele>39.50014</ele>
        <time>2024-07-28T09:00:34.674Z</time>
      </trkpt>
      <trkpt lat="54.16602" lon="15.48846">
        <ele>39.627819</ele>
        <time>2024-07-28T09:00:37.670Z</time>
      </trkpt>
      <trkpt lat="54.16604" lon="15.48862">
        <ele>39.718573</ele>
        <time>2024-07-28T09:00:39.674Z</time>
      </trkpt>
      <trkpt lat="54.16607" lon="15.48878">
        <ele>39.811456</ele>
        <time>2024-07-28T09:00:41.669Z</time>
      </trkpt>
      <trkpt lat="54.16609" lon="15.48894">
        <ele>39.900738</ele>
        <time>2024-07-28T09:00:43.686Z</time>
      </trkpt>
      <trkpt lat="54.16612" lon="15.48909">
        <ele>39.98598</ele>
        <time>2024-07-28T09:00:45.678Z</time>
      </trkpt>
      <trkpt lat="54.16615" lon="15.4893">
        <ele>40.102774</ele>
        <time>2024-07-28T09:00:48.664Z</time>
      </trkpt>
      <trkpt lat="54.16617" lon="15.48952">
        <ele>40.22728</ele>
        <time>2024-07-28T09:00:51.673Z</time>
      </trkpt>
      <trkpt lat="54.1662" lon="15.48966">
        <ele>40.311459</ele>
        <time>2024-07-28T09:00:53.669Z</time>
      </trkpt>
      <trkpt lat="54.16623" lon="15.48987">
        <ele>40.429537</ele>
        <time>2024-07-28T09:00:56.659Z</time>
      </trkpt>
      <trkpt lat="54.16625" lon="15.49005">
        <ele>40.528791</ele>
        <time>2024-07-28T09:00:59.672Z</time>
      </trkpt>
      <trkpt lat="54.16627" lon="15.49023">
        <ele>40.599554</ele>
        <time>2024-07-28T09:01:02.668Z</time>
      </trkpt>
      <trkpt lat="54.16629" lon="15.49043">
        <ele>40.674171</ele>
        <time>2024-07-28T09:01:05.687Z</time>
      </trkpt>
      <trkpt lat="54.16631" lon="15.49062">
        <ele>40.746951</ele>
        <time>2024-07-28T09:01:08.660Z</time>
      </trkpt>
      <trkpt lat="54.16634" lon="15.4908">
        <ele>40.818791</ele>
        <time>2024-07-28T09:01:11.674Z</time>
      </trkpt>
      <trkpt lat="54.16636" lon="15.491">
        <ele>40.895011</ele>
        <time>2024-07-28T09:01:14.673Z</time>
      </trkpt>
      <trkpt lat="54.1664" lon="15.49119">
        <ele>40.969896</ele>
        <time>2024-07-28T09:01:17.671Z</time>
      </trkpt>
      <trkpt lat="54.16642" lon="15.49139">
        <ele>41.04427</ele>
        <time>2024-07-28T09:01:20.691Z</time>
      </trkpt>
      <trkpt lat="54.16644" lon="15.49156">
        <ele>41.107854</ele>
        <time>2024-07-28T09:01:23.687Z</time>
      </trkpt>
      <trkpt lat="54.16645" lon="15.49172">
        <ele>41.171701</ele>
        <time>2024-07-28T09:01:26.661Z</time>
      </trkpt>
      <trkpt lat="54.16648" lon="15.4919">
        <ele>41.241096</ele>
        <time>2024-07-28T09:01:29.685Z</time>
      </trkpt>
      <trkpt lat="54.1665" lon="15.4921">
        <ele>41.316359</ele>
        <time>2024-07-28T09:01:32.672Z</time>
      </trkpt>
      <trkpt lat="54.16651" lon="15.49231">
        <ele>41.394585</ele>
        <time>2024-07-28T09:01:35.681Z</time>
      </trkpt>
      <trkpt lat="54.16654" lon="15.49248">
        <ele>41.459608</ele>
        <time>2024-07-28T09:01:38.670Z</time>
      </trkpt>
      <trkpt lat="54.16658" lon="15.49268">
        <ele>41.539038</ele>
        <time>2024-07-28T09:01:41.670Z</time>
      </trkpt>
      <trkpt lat="54.16662" lon="15.49287">
        <ele>41.614778</ele>
        <time>2024-07-28T09:01:44.659Z</time>
      </trkpt>
      <trkpt lat="54.16665" lon="15.49307">
        <ele>41.665583</ele>
        <time>2024-07-28T09:01:47.672Z</time>
      </trkpt>
      <trkpt lat="54.16667" lon="15.49327">
        <ele>41.50822</ele>
        <time>2024-07-28T09:01:50.680Z</time>
      </trkpt>
      <trkpt lat="54.16669" lon="15.49346">
        <ele>41.356259</ele>
        <time>2024-07-28T09:01:53.664Z</time>
      </trkpt>
      <trkpt lat="54.16671" lon="15.49367">
        <ele>41.189312</ele>
        <time>2024-07-28T09:01:56.668Z</time>
      </trkpt>
      <trkpt lat="54.16674" lon="15.49392">
        <ele>40.99791</ele>
        <time>2024-07-28T09:01:59.664Z</time>
      </trkpt>
      <trkpt lat="54.16676" lon="15.49409">
        <ele>40.864979</ele>
        <time>2024-07-28T09:02:01.673Z</time>
      </trkpt>
      <trkpt lat="54.16678" lon="15.49424">
        <ele>40.74144</ele>
        <time>2024-07-28T09:02:03.676Z</time>
      </trkpt>
      <trkpt lat="54.16682" lon="15.49442">
        <ele>40.597525</ele>
        <time>2024-07-28T09:02:06.677Z</time>
      </trkpt>
      <trkpt lat="54.16684" lon="15.49461">
        <ele>40.447978</ele>
        <time>2024-07-28T09:02:09.678Z</time>
      </trkpt>
      <trkpt lat="54.16686" lon="15.49482">
        <ele>40.2861</ele>
        <time>2024-07-28T09:02:12.670Z</time>
      </trkpt>
      <trkpt lat="54.16687" lon="15.49503">
        <ele>40.121168</ele>
        <time>2024-07-28T09:02:15.690Z</time>
      </trkpt>
      <trkpt lat="54.16689" lon="15.49518">
        <ele>40.001838</ele>
        <time>2024-07-28T09:02:17.668Z</time>
      </trkpt>
      <trkpt lat="54.16692" lon="15.49539">
        <ele>39.84119</ele>
        <time>2024-07-28T09:02:20.672Z</time>
      </trkpt>
      <trkpt lat="54.16694" lon="15.49556">
        <ele>39.700967</ele>
        <time>2024-07-28T09:02:22.668Z</time>
      </trkpt>
      <trkpt lat="54.16696" lon="15.49572">
        <ele>39.580844</ele>
        <time>2024-07-28T09:02:24.673Z</time>
      </trkpt>
      <trkpt lat="54.16697" lon="15.49588">
        <ele>39.455947</ele>
        <time>2024-07-28T09:02:26.664Z</time>
      </trkpt>
      <trkpt lat="54.16698" lon="15.49604">
        <ele>39.332379</ele>
        <time>2024-07-28T09:02:28.673Z</time>
      </trkpt>
      <trkpt lat="54.167" lon="15.49619">
        <ele>39.308547</ele>
        <time>2024-07-28T09:02:30.657Z</time>
      </trkpt>
      <trkpt lat="54.16701" lon="15.49634">
        <ele>39.30065</ele>
        <time>2024-07-28T09:02:32.666Z</time>
      </trkpt>
      <trkpt lat="54.16703" lon="15.4965">
        <ele>39.292238</ele>
        <time>2024-07-28T09:02:34.692Z</time>
      </trkpt>
      <trkpt lat="54.16705" lon="15.49666">
        <ele>39.284017</ele>
        <time>2024-07-28T09:02:36.672Z</time>
      </trkpt>
      <trkpt lat="54.16708" lon="15.49681">
        <ele>39.275867</ele>
        <time>2024-07-28T09:02:38.667Z</time>
      </trkpt>
      <trkpt lat="54.16708" lon="15.49698">
        <ele>39.267259</ele>
        <time>2024-07-28T09:02:40.669Z</time>
      </trkpt>
      <trkpt lat="54.1671" lon="15.49714">
        <ele>39.258715</ele>
        <time>2024-07-28T09:02:42.675Z</time>
      </trkpt>
      <trkpt lat="54.16712" lon="15.49736">
        <ele>39.247392</ele>
        <time>2024-07-28T09:02:45.689Z</time>
      </trkpt>
      <trkpt lat="54.16715" lon="15.49757">
        <ele>39.235948</ele>
        <time>2024-07-28T09:02:48.673Z</time>
      </trkpt>
      <trkpt lat="54.16719" lon="15.4978">
        <ele>39.224079</ele>
        <time>2024-07-28T09:02:51.680Z</time>
      </trkpt>
      <trkpt lat="54.16722" lon="15.49802">
        <ele>39.212181</ele>
        <time>2024-07-28T09:02:54.688Z</time>
      </trkpt>
      <trkpt lat="54.16728" lon="15.49822">
        <ele>39.200998</ele>
        <time>2024-07-28T09:02:57.664Z</time>
      </trkpt>
      <trkpt lat="54.16731" lon="15.49838">
        <ele>39.192249</ele>
        <time>2024-07-28T09:02:59.669Z</time>
      </trkpt>
      <trkpt lat="54.16733" lon="15.49853">
        <ele>39.184249</ele>
        <time>2024-07-28T09:03:01.662Z</time>
      </trkpt>
      <trkpt lat="54.16735" lon="15.49868">
        <ele>39.176106</ele>
        <time>2024-07-28T09:03:03.687Z</time>
      </trkpt>
      <trkpt lat="54.16738" lon="15.49889">
        <ele>39.164913</ele>
        <time>2024-07-28T09:03:06.665Z</time>
      </trkpt>
      <trkpt lat="54.1674" lon="15.49909">
        <ele>39.18179</ele>
        <time>2024-07-28T09:03:09.663Z</time>
      </trkpt>
      <trkpt lat="54.16742" lon="15.49928">
        <ele>39.27465</ele>
        <time>2024-07-28T09:03:12.670Z</time>
      </trkpt>
      <trkpt lat="54.16744" lon="15.49946">
        <ele>39.359959</ele>
        <time>2024-07-28T09:03:15.672Z</time>
      </trkpt>
      <trkpt lat="54.16745" lon="15.49965">
        <ele>39.45034</ele>
        <time>2024-07-28T09:03:18.680Z</time>
      </trkpt>
      <trkpt lat="54.16748" lon="15.49984">
        <ele>39.542157</ele>
        <time>2024-07-28T09:03:21.665Z</time>
      </trkpt>
      <trkpt lat="54.16752" lon="15.50004">
        <ele>39.643573</ele>
        <time>2024-07-28T09:03:24.668Z</time>
      </trkpt>
      <trkpt lat="54.16755" lon="15.50024">
        <ele>39.740046</ele>
        <time>2024-07-28T09:03:27.668Z</time>
      </trkpt>
      <trkpt lat="54.16757" lon="15.50045">
        <ele>39.838332</ele>
        <time>2024-07-28T09:03:30.686Z</time>
      </trkpt>
      <trkpt lat="54.16758" lon="15.50068">
        <ele>39.949691</ele>
        <time>2024-07-28T09:03:33.666Z</time>
      </trkpt>
      <trkpt lat="54.1676" lon="15.5009">
        <ele>40.052239</ele>
        <time>2024-07-28T09:03:36.659Z</time>
      </trkpt>
      <trkpt lat="54.1676" lon="15.50111">
        <ele>40.155222</ele>
        <time>2024-07-28T09:03:39.664Z</time>
      </trkpt>
      <trkpt lat="54.16761" lon="15.50127">
        <ele>40.228238</ele>
        <time>2024-07-28T09:03:41.662Z</time>
      </trkpt>
      <trkpt lat="54.16763" lon="15.50147">
        <ele>40.326388</ele>
        <time>2024-07-28T09:03:44.677Z</time>
      </trkpt>
      <trkpt lat="54.16765" lon="15.50162">
        <ele>40.400268</ele>
        <time>2024-07-28T09:03:46.649Z</time>
      </trkpt>
      <trkpt lat="54.16768" lon="15.50185">
        <ele>40.508613</ele>
        <time>2024-07-28T09:03:49.662Z</time>
      </trkpt>
      <trkpt lat="54.1677" lon="15.502">
        <ele>40.581554</ele>
        <time>2024-07-28T09:03:51.646Z</time>
      </trkpt>
      <trkpt lat="54.16774" lon="15.50221">
        <ele>40.619398</ele>
        <time>2024-07-28T09:03:54.681Z</time>
      </trkpt>
      <trkpt lat="54.16778" lon="15.50237">
        <ele>40.630895</ele>
        <time>2024-07-28T09:03:56.650Z</time>
      </trkpt>
      <trkpt lat="54.16781" lon="15.50253">
        <ele>40.641559</ele>
        <time>2024-07-28T09:03:58.690Z</time>
      </trkpt>
      <trkpt lat="54.16785" lon="15.50275">
        <ele>40.656925</ele>
        <time>2024-07-28T09:04:01.666Z</time>
      </trkpt>
      <trkpt lat="54.16787" lon="15.50292">
        <ele>40.668457</ele>
        <time>2024-07-28T09:04:03.672Z</time>
      </trkpt>
      <trkpt lat="54.1679" lon="15.50309">
        <ele>40.680215</ele>
        <time>2024-07-28T09:04:05.666Z</time>
      </trkpt>
      <trkpt lat="54.16792" lon="15.5033">
        <ele>40.693917</ele>
        <time>2024-07-28T09:04:08.673Z</time>
      </trkpt>
      <trkpt lat="54.16796" lon="15.50351">
        <ele>40.708805</ele>
        <time>2024-07-28T09:04:11.662Z</time>
      </trkpt>
      <trkpt lat="54.16798" lon="15.50374">
        <ele>40.723739</ele>
        <time>2024-07-28T09:04:14.678Z</time>
      </trkpt>
      <trkpt lat="54.16799" lon="15.5039">
        <ele>40.734832</ele>
        <time>2024-07-28T09:04:16.683Z</time>
      </trkpt>
      <trkpt lat="54.16802" lon="15.50412">
        <ele>40.749492</ele>
        <time>2024-07-28T09:04:19.668Z</time>
      </trkpt>
      <trkpt lat="54.16805" lon="15.50434">
        <ele>40.764538</ele>
        <time>2024-07-28T09:04:22.684Z</time>
      </trkpt>
      <trkpt lat="54.16808" lon="15.50453">
        <ele>40.777435</ele>
        <time>2024-07-28T09:04:24.665Z</time>
      </trkpt>
      <trkpt lat="54.1681" lon="15.50471">
        <ele>40.789639</ele>
        <time>2024-07-28T09:04:26.666Z</time>
      </trkpt>
      <trkpt lat="54.16812" lon="15.50487">
        <ele>40.799969</ele>
        <time>2024-07-28T09:04:28.670Z</time>
      </trkpt>
      <trkpt lat="54.16816" lon="15.50508">
        <ele>40.796645</ele>
        <time>2024-07-28T09:04:31.684Z</time>
      </trkpt>
      <trkpt lat="54.16817" lon="15.50525">
        <ele>40.754365</ele>
        <time>2024-07-28T09:04:33.665Z</time>
      </trkpt>
      <trkpt lat="54.16817" lon="15.50545">
        <ele>40.704772</ele>
        <time>2024-07-28T09:04:35.650Z</time>
      </trkpt>
      <trkpt lat="54.16817" lon="15.50563">
        <ele>40.661079</ele>
        <time>2024-07-28T09:04:37.672Z</time>
      </trkpt>
      <trkpt lat="54.16818" lon="15.50581">
        <ele>40.617829</ele>
        <time>2024-07-28T09:04:39.676Z</time>
      </trkpt>
      <trkpt lat="54.16821" lon="15.50597">
        <ele>40.575992</ele>
        <time>2024-07-28T09:04:41.685Z</time>
      </trkpt>
      <trkpt lat="54.16823" lon="15.50613">
        <ele>40.537435</ele>
        <time>2024-07-28T09:04:43.671Z</time>
      </trkpt>
      <trkpt lat="54.16825" lon="15.50636">
        <ele>40.479856</ele>
        <time>2024-07-28T09:04:46.671Z</time>
      </trkpt>
      <trkpt lat="54.16828" lon="15.50652">
        <ele>40.437339</ele>
        <time>2024-07-28T09:04:48.669Z</time>
      </trkpt>
      <trkpt lat="54.16831" lon="15.50673">
        <ele>40.38711</ele>
        <time>2024-07-28T09:04:51.673Z</time>
      </trkpt>
      <trkpt lat="54.16832" lon="15.50689">
        <ele>40.347009</ele>
        <time>2024-07-28T09:04:53.663Z</time>
      </trkpt>
      <trkpt lat="54.16834" lon="15.50712">
        <ele>40.288853</ele>
        <time>2024-07-28T09:04:56.659Z</time>
      </trkpt>
      <trkpt lat="54.16837" lon="15.5073">
        <ele>40.245695</ele>
        <time>2024-07-28T09:04:58.669Z</time>
      </trkpt>
      <trkpt lat="54.16839" lon="15.50747">
        <ele>40.202245</ele>
        <time>2024-07-28T09:05:00.680Z</time>
      </trkpt>
      <trkpt lat="54.1684" lon="15.50764">
        <ele>40.161177</ele>
        <time>2024-07-28T09:05:02.673Z</time>
      </trkpt>
      <trkpt lat="54.16842" lon="15.5078">
        <ele>40.120241</ele>
        <time>2024-07-28T09:05:04.655Z</time>
      </trkpt>
      <trkpt lat="54.16844" lon="15.50795">
        <ele>40.08217</ele>
        <time>2024-07-28T09:05:06.663Z</time>
      </trkpt>
      <trkpt lat="54.16848" lon="15.5081">
        <ele>40.085535</ele>
        <time>2024-07-28T09:05:08.654Z</time>
      </trkpt>
      <trkpt lat="54.16849" lon="15.5083">
        <ele>40.15638</ele>
        <time>2024-07-28T09:05:11.669Z</time>
      </trkpt>
      <trkpt lat="54.16851" lon="15.50853">
        <ele>40.236274</ele>
        <time>2024-07-28T09:05:14.665Z</time>
      </trkpt>
      <trkpt lat="54.16853" lon="15.5087">
        <ele>40.29532</ele>
        <time>2024-07-28T09:05:16.665Z</time>
      </trkpt>
      <trkpt lat="54.16856" lon="15.50885">
        <ele>40.350781</ele>
        <time>2024-07-28T09:05:18.674Z</time>
      </trkpt>
      <trkpt lat="54.16859" lon="15.50905">
        <ele>40.42387</ele>
        <time>2024-07-28T09:05:21.666Z</time>
      </trkpt>
      <trkpt lat="54.16864" lon="15.50924">
        <ele>40.494331</ele>
        <time>2024-07-28T09:05:24.680Z</time>
      </trkpt>
      <trkpt lat="54.16868" lon="15.50943">
        <ele>40.563605</ele>
        <time>2024-07-28T09:05:27.670Z</time>
      </trkpt>
      <trkpt lat="54.16872" lon="15.50962">
        <ele>40.636339</ele>
        <time>2024-07-28T09:05:30.675Z</time>
      </trkpt>
      <trkpt lat="54.16877" lon="15.50983">
        <ele>40.712835</ele>
        <time>2024-07-28T09:05:33.662Z</time>
      </trkpt>
      <trkpt lat="54.16882" lon="15.51002">
        <ele>40.785873</ele>
        <time>2024-07-28T09:05:36.667Z</time>
      </trkpt>
      <trkpt lat="54.16888" lon="15.5102">
        <ele>40.858968</ele>
        <time>2024-07-28T09:05:39.667Z</time>
      </trkpt>
      <trkpt lat="54.16892" lon="15.51038">
        <ele>40.926133</ele>
        <time>2024-07-28T09:05:42.667Z</time>
      </trkpt>
      <trkpt lat="54.16896" lon="15.51065">
        <ele>41.020064</ele>
        <time>2024-07-28T09:07:16.671Z</time>
      </trkpt>
      <trkpt lat="54.16902" lon="15.51082">
        <ele>41.089557</ele>
        <time>2024-07-28T09:07:20.660Z</time>
      </trkpt>
      <trkpt lat="54.16905" lon="15.51097">
        <ele>41.212072</ele>
        <time>2024-07-28T09:07:23.669Z</time>
      </trkpt>
      <trkpt lat="54.16911" lon="15.51112">
        <ele>41.509499</ele>
        <time>2024-07-28T09:07:26.672Z</time>
      </trkpt>
      <trkpt lat="54.16917" lon="15.51127">
        <ele>41.825239</ele>
        <time>2024-07-28T09:07:29.680Z</time>
      </trkpt>
      <trkpt lat="54.16923" lon="15.51143">
        <ele>42.147261</ele>
        <time>2024-07-28T09:07:32.662Z</time>
      </trkpt>
      <trkpt lat="54.1693" lon="15.5116">
        <ele>42.48461</ele>
        <time>2024-07-28T09:07:35.657Z</time>
      </trkpt>
      <trkpt lat="54.16937" lon="15.51178">
        <ele>42.848393</ele>
        <time>2024-07-28T09:07:38.669Z</time>
      </trkpt>
      <trkpt lat="54.16944" lon="15.51196">
        <ele>43.208487</ele>
        <time>2024-07-28T09:07:41.681Z</time>
      </trkpt>
      <trkpt lat="54.16951" lon="15.51214">
        <ele>43.574571</ele>
        <time>2024-07-28T09:07:44.666Z</time>
      </trkpt>
      <trkpt lat="54.16956" lon="15.51229">
        <ele>43.861692</ele>
        <time>2024-07-28T09:07:46.662Z</time>
      </trkpt>
      <trkpt lat="54.16962" lon="15.51242">
        <ele>44.13861</ele>
        <time>2024-07-28T09:07:48.666Z</time>
      </trkpt>
      <trkpt lat="54.1697" lon="15.5126">
        <ele>44.507279</ele>
        <time>2024-07-28T09:07:51.675Z</time>
      </trkpt>
      <trkpt lat="54.16977" lon="15.51279">
        <ele>44.888205</ele>
        <time>2024-07-28T09:07:54.678Z</time>
      </trkpt>
      <trkpt lat="54.16983" lon="15.51298">
        <ele>45.254816</ele>
        <time>2024-07-28T09:07:57.670Z</time>
      </trkpt>
      <trkpt lat="54.16989" lon="15.51316">
        <ele>45.584213</ele>
        <time>2024-07-28T09:08:00.670Z</time>
      </trkpt>
      <trkpt lat="54.16995" lon="15.51333">
        <ele>45.921991</ele>
        <time>2024-07-28T09:08:03.663Z</time>
      </trkpt>
      <trkpt lat="54.17002" lon="15.51352">
        <ele>46.239562</ele>
        <time>2024-07-28T09:08:06.662Z</time>
      </trkpt>
      <trkpt lat="54.17006" lon="15.51369">
        <ele>46.00957</ele>
        <time>2024-07-28T09:08:08.674Z</time>
      </trkpt>
      <trkpt lat="54.17011" lon="15.51385">
        <ele>45.789107</ele>
        <time>2024-07-28T09:08:10.670Z</time>
      </trkpt>
      <trkpt lat="54.17017" lon="15.51401">
        <ele>45.556928</ele>
        <time>2024-07-28T09:08:12.687Z</time>
      </trkpt>
      <trkpt lat="54.17022" lon="15.51414">
        <ele>45.35251</ele>
        <time>2024-07-28T09:08:14.672Z</time>
      </trkpt>
      <trkpt lat="54.17028" lon="15.51426">
        <ele>45.162153</ele>
        <time>2024-07-28T09:08:16.685Z</time>
      </trkpt>
      <trkpt lat="54.17036" lon="15.51443">
        <ele>44.900046</ele>
        <time>2024-07-28T09:08:19.672Z</time>
      </trkpt>
      <trkpt lat="54.17041" lon="15.51461">
        <ele>44.650319</ele>
        <time>2024-07-28T09:08:22.674Z</time>
      </trkpt>
      <trkpt lat="54.17039" lon="15.5148">
        <ele>44.420374</ele>
        <time>2024-07-28T09:08:25.668Z</time>
      </trkpt>
      <trkpt lat="54.17044" lon="15.51493">
        <ele>44.220013</ele>
        <time>2024-07-28T09:08:28.670Z</time>
      </trkpt>
      <trkpt lat="54.17049" lon="15.51512">
        <ele>43.973021</ele>
        <time>2024-07-28T09:08:31.687Z</time>
      </trkpt>
      <trkpt lat="54.17053" lon="15.5153">
        <ele>43.731984</ele>
        <time>2024-07-28T09:08:34.660Z</time>
      </trkpt>
      <trkpt lat="54.17056" lon="15.5155">
        <ele>43.474375</ele>
        <time>2024-07-28T09:08:37.668Z</time>
      </trkpt>
      <trkpt lat="54.17059" lon="15.5157">
        <ele>43.220245</ele>
        <time>2024-07-28T09:08:40.677Z</time>
      </trkpt>
      <trkpt lat="54.17064" lon="15.51591">
        <ele>42.950844</ele>
        <time>2024-07-28T09:08:43.652Z</time>
      </trkpt>
      <trkpt lat="54.17068" lon="15.51612">
        <ele>42.674869</ele>
        <time>2024-07-28T09:08:46.662Z</time>
      </trkpt>
      <trkpt lat="54.17072" lon="15.51631">
        <ele>42.436395</ele>
        <time>2024-07-28T09:08:49.675Z</time>
      </trkpt>
      <trkpt lat="54.17076" lon="15.51651">
        <ele>42.227556</ele>
        <time>2024-07-28T09:08:52.672Z</time>
      </trkpt>
      <trkpt lat="54.17079" lon="15.51667">
        <ele>42.05842</ele>
        <time>2024-07-28T09:08:54.648Z</time>
      </trkpt>
      <trkpt lat="54.17082" lon="15.51683">
        <ele>41.894471</ele>
        <time>2024-07-28T09:08:56.662Z</time>
      </trkpt>
      <trkpt lat="54.17084" lon="15.517">
        <ele>41.729173</ele>
        <time>2024-07-28T09:08:58.691Z</time>
      </trkpt>
      <trkpt lat="54.17086" lon="15.51716">
        <ele>41.565788</ele>
        <time>2024-07-28T09:09:00.674Z</time>
      </trkpt>
      <trkpt lat="54.17088" lon="15.51732">
        <ele>41.407179</ele>
        <time>2024-07-28T09:09:02.670Z</time>
      </trkpt>
      <trkpt lat="54.17091" lon="15.51747">
        <ele>41.254975</ele>
        <time>2024-07-28T09:09:04.659Z</time>
      </trkpt>
      <trkpt lat="54.17094" lon="15.51761">
        <ele>41.103277</ele>
        <time>2024-07-28T09:09:06.667Z</time>
      </trkpt>
      <trkpt lat="54.17098" lon="15.51778">
        <ele>40.931816</ele>
        <time>2024-07-28T09:09:08.670Z</time>
      </trkpt>
      <trkpt lat="54.17102" lon="15.51793">
        <ele>40.767311</ele>
        <time>2024-07-28T09:09:10.670Z</time>
      </trkpt>
      <trkpt lat="54.17105" lon="15.51809">
        <ele>40.604707</ele>
        <time>2024-07-28T09:09:12.696Z</time>
      </trkpt>
      <trkpt lat="54.17108" lon="15.51825">
        <ele>40.438997</ele>
        <time>2024-07-28T09:09:14.684Z</time>
      </trkpt>
      <trkpt lat="54.17111" lon="15.5184">
        <ele>40.280202</ele>
        <time>2024-07-28T09:09:16.682Z</time>
      </trkpt>
      <trkpt lat="54.17113" lon="15.51857">
        <ele>40.112632</ele>
        <time>2024-07-28T09:09:18.672Z</time>
      </trkpt>
      <trkpt lat="54.17116" lon="15.51874">
        <ele>39.938352</ele>
        <time>2024-07-28T09:09:20.683Z</time>
      </trkpt>
      <trkpt lat="54.17119" lon="15.5189">
        <ele>39.77098</ele>
        <time>2024-07-28T09:09:22.676Z</time>
      </trkpt>
      <trkpt lat="54.17122" lon="15.51907">
        <ele>39.601845</ele>
        <time>2024-07-28T09:09:24.672Z</time>
      </trkpt>
      <trkpt lat="54.17125" lon="15.51923">
        <ele>39.462998</ele>
        <time>2024-07-28T09:09:26.674Z</time>
      </trkpt>
      <trkpt lat="54.17128" lon="15.5194">
        <ele>39.459882</ele>
        <time>2024-07-28T09:09:28.670Z</time>
      </trkpt>
      <trkpt lat="54.17132" lon="15.51956">
        <ele>39.456725</ele>
        <time>2024-07-28T09:09:30.673Z</time>
      </trkpt>
      <trkpt lat="54.17134" lon="15.51972">
        <ele>39.45374</ele>
        <time>2024-07-28T09:09:32.677Z</time>
      </trkpt>
      <trkpt lat="54.17137" lon="15.51987">
        <ele>39.450874</ele>
        <time>2024-07-28T09:09:34.666Z</time>
      </trkpt>
      <trkpt lat="54.1714" lon="15.52003">
        <ele>39.447897</ele>
        <time>2024-07-28T09:09:36.670Z</time>
      </trkpt>
      <trkpt lat="54.17143" lon="15.52017">
        <ele>39.445102</ele>
        <time>2024-07-28T09:09:38.674Z</time>
      </trkpt>
      <trkpt lat="54.17146" lon="15.52032">
        <ele>39.442261</ele>
        <time>2024-07-28T09:09:40.666Z</time>
      </trkpt>
      <trkpt lat="54.1715" lon="15.52054">
        <ele>39.438088</ele>
        <time>2024-07-28T09:09:43.681Z</time>
      </trkpt>
      <trkpt lat="54.17153" lon="15.52069">
        <ele>39.43526</ele>
        <time>2024-07-28T09:09:45.668Z</time>
      </trkpt>
      <trkpt lat="54.17156" lon="15.52083">
        <ele>39.432443</ele>
        <time>2024-07-28T09:09:47.667Z</time>
      </trkpt>
      <trkpt lat="54.17159" lon="15.52099">
        <ele>39.429492</ele>
        <time>2024-07-28T09:09:49.662Z</time>
      </trkpt>
      <trkpt lat="54.17162" lon="15.52113">
        <ele>39.426689</ele>
        <time>2024-07-28T09:09:51.690Z</time>
      </trkpt>
      <trkpt lat="54.17164" lon="15.5213">
        <ele>39.423658</ele>
        <time>2024-07-28T09:09:53.665Z</time>
      </trkpt>
      <trkpt lat="54.17168" lon="15.52152">
        <ele>39.419497</ele>
        <time>2024-07-28T09:09:56.675Z</time>
      </trkpt>
      <trkpt lat="54.1717" lon="15.52167">
        <ele>39.416554</ele>
        <time>2024-07-28T09:09:58.677Z</time>
      </trkpt>
      <trkpt lat="54.17173" lon="15.52184">
        <ele>39.413467</ele>
        <time>2024-07-28T09:10:00.693Z</time>
      </trkpt>
      <trkpt lat="54.17175" lon="15.52199">
        <ele>39.410584</ele>
        <time>2024-07-28T09:10:02.675Z</time>
      </trkpt>
      <trkpt lat="54.17178" lon="15.52214">
        <ele>39.407993</ele>
        <time>2024-07-28T09:10:04.680Z</time>
      </trkpt>
      <trkpt lat="54.17181" lon="15.52229">
        <ele>39.416723</ele>
        <time>2024-07-28T09:10:06.671Z</time>
      </trkpt>
      <trkpt lat="54.17185" lon="15.52244">
        <ele>39.425434</ele>
        <time>2024-07-28T09:10:08.670Z</time>
      </trkpt>
      <trkpt lat="54.17188" lon="15.52259">
        <ele>39.433864</ele>
        <time>2024-07-28T09:10:10.660Z</time>
      </trkpt>
      <trkpt lat="54.17193" lon="15.52274">
        <ele>39.44299</ele>
        <time>2024-07-28T09:10:12.674Z</time>
      </trkpt>
      <trkpt lat="54.17197" lon="15.52289">
        <ele>39.4519</ele>
        <time>2024-07-28T09:10:14.681Z</time>
      </trkpt>
      <trkpt lat="54.17201" lon="15.52304">
        <ele>39.460453</ele>
        <time>2024-07-28T09:10:16.666Z</time>
      </trkpt>
      <trkpt lat="54.17205" lon="15.52319">
        <ele>39.469228</ele>
        <time>2024-07-28T09:10:18.678Z</time>
      </trkpt>
      <trkpt lat="54.17209" lon="15.52334">
        <ele>39.478182</ele>
        <time>2024-07-28T09:10:20.657Z</time>
      </trkpt>
      <trkpt lat="54.17213" lon="15.52349">
        <ele>39.487005</ele>
        <time>2024-07-28T09:10:22.673Z</time>
      </trkpt>
      <trkpt lat="54.17217" lon="15.52365">
        <ele>39.495915</ele>
        <time>2024-07-28T09:10:24.681Z</time>
      </trkpt>
      <trkpt lat="54.17221" lon="15.52381">
        <ele>39.505152</ele>
        <time>2024-07-28T09:10:26.670Z</time>
      </trkpt>
      <trkpt lat="54.17225" lon="15.52396">
        <ele>39.514294</ele>
        <time>2024-07-28T09:10:28.686Z</time>
      </trkpt>
      <trkpt lat="54.17229" lon="15.52411">
        <ele>39.523201</ele>
        <time>2024-07-28T09:10:30.695Z</time>
      </trkpt>
      <trkpt lat="54.17233" lon="15.52427">
        <ele>39.532198</ele>
        <time>2024-07-28T09:10:32.665Z</time>
      </trkpt>
      <trkpt lat="54.17238" lon="15.52442">
        <ele>39.541318</ele>
        <time>2024-07-28T09:10:34.679Z</time>
      </trkpt>
      <trkpt lat="54.17242" lon="15.52457">
        <ele>39.550335</ele>
        <time>2024-07-28T09:10:36.671Z</time>
      </trkpt>
      <trkpt lat="54.17246" lon="15.52472">
        <ele>39.559158</ele>
        <time>2024-07-28T09:10:38.688Z</time>
      </trkpt>
      <trkpt lat="54.1725" lon="15.52489">
        <ele>39.568832</ele>
        <time>2024-07-28T09:10:40.687Z</time>
      </trkpt>
      <trkpt lat="54.17254" lon="15.52505">
        <ele>39.605001</ele>
        <time>2024-07-28T09:10:42.676Z</time>
      </trkpt>
      <trkpt lat="54.17259" lon="15.5252">
        <ele>39.651058</ele>
        <time>2024-07-28T09:10:44.670Z</time>
      </trkpt>
      <trkpt lat="54.17263" lon="15.52535">
        <ele>39.699023</ele>
        <time>2024-07-28T09:10:46.667Z</time>
      </trkpt>
      <trkpt lat="54.17267" lon="15.5255">
        <ele>39.744992</ele>
        <time>2024-07-28T09:10:48.675Z</time>
      </trkpt>
      <trkpt lat="54.17271" lon="15.52565">
        <ele>39.790011</ele>
        <time>2024-07-28T09:10:50.678Z</time>
      </trkpt>
      <trkpt lat="54.17275" lon="15.5258">
        <ele>39.835667</ele>
        <time>2024-07-28T09:10:52.678Z</time>
      </trkpt>
      <trkpt lat="54.17279" lon="15.52596">
        <ele>39.883882</ele>
        <time>2024-07-28T09:10:54.681Z</time>
      </trkpt>
      <trkpt lat="54.17283" lon="15.52611">
        <ele>39.929851</ele>
        <time>2024-07-28T09:10:56.661Z</time>
      </trkpt>
      <trkpt lat="54.17287" lon="15.52627">
        <ele>39.977935</ele>
        <time>2024-07-28T09:10:58.677Z</time>
      </trkpt>
      <trkpt lat="54.17291" lon="15.52643">
        <ele>40.026314</ele>
        <time>2024-07-28T09:11:00.681Z</time>
      </trkpt>
      <trkpt lat="54.17295" lon="15.52659">
        <ele>40.073824</ele>
        <time>2024-07-28T09:11:02.674Z</time>
      </trkpt>
      <trkpt lat="54.173" lon="15.52675">
        <ele>40.123291</ele>
        <time>2024-07-28T09:11:04.678Z</time>
      </trkpt>
      <trkpt lat="54.17304" lon="15.5269">
        <ele>40.169648</ele>
        <time>2024-07-28T09:11:06.667Z</time>
      </trkpt>
      <trkpt lat="54.17308" lon="15.52706">
        <ele>40.218666</ele>
        <time>2024-07-28T09:11:08.694Z</time>
      </trkpt>
      <trkpt lat="54.17313" lon="15.52721">
        <ele>40.265774</ele>
        <time>2024-07-28T09:11:10.671Z</time>
      </trkpt>
      <trkpt lat="54.17317" lon="15.52735">
        <ele>40.309221</ele>
        <time>2024-07-28T09:11:12.672Z</time>
      </trkpt>
      <trkpt lat="54.1732" lon="15.5275">
        <ele>40.354562</ele>
        <time>2024-07-28T09:11:14.669Z</time>
      </trkpt>
      <trkpt lat="54.17324" lon="15.52765">
        <ele>40.398006</ele>
        <time>2024-07-28T09:11:16.658Z</time>
      </trkpt>
      <trkpt lat="54.17328" lon="15.52779">
        <ele>40.444995</ele>
        <time>2024-07-28T09:11:18.655Z</time>
      </trkpt>
      <trkpt lat="54.17333" lon="15.52794">
        <ele>40.50131</ele>
        <time>2024-07-28T09:11:20.681Z</time>
      </trkpt>
      <trkpt lat="54.17336" lon="15.52808">
        <ele>40.553044</ele>
        <time>2024-07-28T09:11:22.678Z</time>
      </trkpt>
      <trkpt lat="54.1734" lon="15.52823">
        <ele>40.604626</ele>
        <time>2024-07-28T09:11:24.675Z</time>
      </trkpt>
      <trkpt lat="54.17345" lon="15.52844">
        <ele>40.678914</ele>
        <time>2024-07-28T09:11:27.671Z</time>
      </trkpt>
      <trkpt lat="54.1735" lon="15.52862">
        <ele>40.745805</ele>
        <time>2024-07-28T09:11:30.669Z</time>
      </trkpt>
      <trkpt lat="54.17355" lon="15.52881">
        <ele>40.814429</ele>
        <time>2024-07-28T09:11:33.693Z</time>
      </trkpt>
      <trkpt lat="54.1736" lon="15.52899">
        <ele>40.879922</ele>
        <time>2024-07-28T09:11:36.669Z</time>
      </trkpt>
      <trkpt lat="54.17365" lon="15.52918">
        <ele>40.947487</ele>
        <time>2024-07-28T09:11:39.674Z</time>
      </trkpt>
      <trkpt lat="54.17371" lon="15.52936">
        <ele>41.015774</ele>
        <time>2024-07-28T09:11:42.672Z</time>
      </trkpt>
      <trkpt lat="54.17377" lon="15.52956">
        <ele>41.08846</ele>
        <time>2024-07-28T09:11:45.675Z</time>
      </trkpt>
      <trkpt lat="54.1738" lon="15.5297">
        <ele>41.140041</ele>
        <time>2024-07-28T09:11:47.689Z</time>
      </trkpt>
      <trkpt lat="54.17385" lon="15.5299">
        <ele>41.212592</ele>
        <time>2024-07-28T09:11:50.671Z</time>
      </trkpt>
      <trkpt lat="54.1739" lon="15.53012">
        <ele>41.287791</ele>
        <time>2024-07-28T09:11:53.666Z</time>
      </trkpt>
      <trkpt lat="54.17394" lon="15.53026">
        <ele>41.340595</ele>
        <time>2024-07-28T09:11:55.683Z</time>
      </trkpt>
      <trkpt lat="54.17399" lon="15.5304">
        <ele>41.394047</ele>
        <time>2024-07-28T09:11:57.665Z</time>
      </trkpt>
      <trkpt lat="54.17405" lon="15.53061">
        <ele>41.572645</ele>
        <time>2024-07-28T09:12:00.687Z</time>
      </trkpt>
      <trkpt lat="54.17409" lon="15.53075">
        <ele>41.787438</ele>
        <time>2024-07-28T09:12:02.667Z</time>
      </trkpt>
      <trkpt lat="54.17413" lon="15.5309">
        <ele>42.00927</ele>
        <time>2024-07-28T09:12:04.687Z</time>
      </trkpt>
      <trkpt lat="54.17416" lon="15.53105">
        <ele>42.226251</ele>
        <time>2024-07-28T09:12:06.649Z</time>
      </trkpt>
      <trkpt lat="54.17419" lon="15.53121">
        <ele>42.442725</ele>
        <time>2024-07-28T09:12:08.671Z</time>
      </trkpt>
      <trkpt lat="54.1742" lon="15.53137">
        <ele>42.66393</ele>
        <time>2024-07-28T09:12:10.666Z</time>
      </trkpt>
      <trkpt lat="54.17421" lon="15.53159">
        <ele>42.954115</ele>
        <time>2024-07-28T09:12:13.669Z</time>
      </trkpt>
      <trkpt lat="54.17421" lon="15.53175">
        <ele>43.176395</ele>
        <time>2024-07-28T09:12:15.644Z</time>
      </trkpt>
      <trkpt lat="54.17421" lon="15.53192">
        <ele>43.401245</ele>
        <time>2024-07-28T09:12:17.666Z</time>
      </trkpt>
      <trkpt lat="54.17421" lon="15.53214">
        <ele>43.695772</ele>
        <time>2024-07-28T09:12:20.663Z</time>
      </trkpt>
      <trkpt lat="54.17422" lon="15.53238">
        <ele>44.015302</ele>
        <time>2024-07-28T09:12:23.672Z</time>
      </trkpt>
      <trkpt lat="54.17422" lon="15.53254">
        <ele>44.22964</ele>
        <time>2024-07-28T09:12:25.678Z</time>
      </trkpt>
      <trkpt lat="54.17421" lon="15.53272">
        <ele>44.471082</ele>
        <time>2024-07-28T09:12:27.670Z</time>
      </trkpt>
      <trkpt lat="54.17421" lon="15.53288">
        <ele>44.6839</ele>
        <time>2024-07-28T09:12:29.670Z</time>
      </trkpt>
      <trkpt lat="54.1742" lon="15.53304">
        <ele>44.903503</ele>
        <time>2024-07-28T09:12:31.653Z</time>
      </trkpt>
      <trkpt lat="54.17419" lon="15.5332">
        <ele>45.117952</ele>
        <time>2024-07-28T09:12:33.662Z</time>
      </trkpt>
      <trkpt lat="54.17421" lon="15.53341">
        <ele>45.395786</ele>
        <time>2024-07-28T09:12:36.657Z</time>
      </trkpt>
      <trkpt lat="54.17427" lon="15.53361">
        <ele>45.539919</ele>
        <time>2024-07-28T09:12:39.651Z</time>
      </trkpt>
      <trkpt lat="54.17434" lon="15.53375">
        <ele>45.5266</ele>
        <time>2024-07-28T09:12:41.660Z</time>
      </trkpt>
      <trkpt lat="54.1744" lon="15.53389">
        <ele>45.51449</ele>
        <time>2024-07-28T09:12:43.650Z</time>
      </trkpt>
      <trkpt lat="54.17446" lon="15.53402">
        <ele>45.5028</ele>
        <time>2024-07-28T09:12:45.676Z</time>
      </trkpt>
      <trkpt lat="54.17454" lon="15.53421">
        <ele>45.486258</ele>
        <time>2024-07-28T09:12:48.669Z</time>
      </trkpt>
      <trkpt lat="54.1746" lon="15.53435">
        <ele>45.474352</ele>
        <time>2024-07-28T09:12:50.665Z</time>
      </trkpt>
      <trkpt lat="54.17466" lon="15.53449">
        <ele>45.461922</ele>
        <time>2024-07-28T09:12:52.666Z</time>
      </trkpt>
      <trkpt lat="54.17471" lon="15.53463">
        <ele>45.450533</ele>
        <time>2024-07-28T09:12:54.678Z</time>
      </trkpt>
      <trkpt lat="54.17476" lon="15.53478">
        <ele>45.43822</ele>
        <time>2024-07-28T09:12:56.673Z</time>
      </trkpt>
      <trkpt lat="54.17482" lon="15.53493">
        <ele>45.425486</ele>
        <time>2024-07-28T09:12:58.674Z</time>
      </trkpt>
      <trkpt lat="54.17487" lon="15.53507">
        <ele>45.413653</ele>
        <time>2024-07-28T09:13:00.661Z</time>
      </trkpt>
      <trkpt lat="54.17491" lon="15.53521">
        <ele>45.402127</ele>
        <time>2024-07-28T09:13:02.653Z</time>
      </trkpt>
      <trkpt lat="54.17498" lon="15.5354">
        <ele>45.386597</ele>
        <time>2024-07-28T09:13:05.668Z</time>
      </trkpt>
      <trkpt lat="54.17503" lon="15.53554">
        <ele>45.37569</ele>
        <time>2024-07-28T09:13:07.669Z</time>
      </trkpt>
      <trkpt lat="54.1751" lon="15.53572">
        <ele>45.359692</ele>
        <time>2024-07-28T09:13:10.687Z</time>
      </trkpt>
      <trkpt lat="54.17517" lon="15.53589">
        <ele>45.34477</ele>
        <time>2024-07-28T09:13:13.664Z</time>
      </trkpt>
      <trkpt lat="54.17523" lon="15.53602">
        <ele>45.333476</ele>
        <time>2024-07-28T09:13:15.676Z</time>
      </trkpt>
      <trkpt lat="54.17528" lon="15.53617">
        <ele>45.198546</ele>
        <time>2024-07-28T09:13:17.665Z</time>
      </trkpt>
      <trkpt lat="54.17533" lon="15.53632">
        <ele>45.023581</ele>
        <time>2024-07-28T09:13:19.668Z</time>
      </trkpt>
      <trkpt lat="54.17538" lon="15.53647">
        <ele>44.863891</ele>
        <time>2024-07-28T09:13:21.665Z</time>
      </trkpt>
      <trkpt lat="54.17545" lon="15.53664">
        <ele>44.656636</ele>
        <time>2024-07-28T09:13:24.668Z</time>
      </trkpt>
      <trkpt lat="54.17552" lon="15.5368">
        <ele>44.469794</ele>
        <time>2024-07-28T09:13:27.664Z</time>
      </trkpt>
      <trkpt lat="54.17557" lon="15.53695">
        <ele>44.294058</ele>
        <time>2024-07-28T09:13:30.669Z</time>
      </trkpt>
      <trkpt lat="54.17561" lon="15.53711">
        <ele>44.126553</ele>
        <time>2024-07-28T09:13:33.677Z</time>
      </trkpt>
      <trkpt lat="54.17569" lon="15.53728">
        <ele>43.912031</ele>
        <time>2024-07-28T09:13:36.656Z</time>
      </trkpt>
      <trkpt lat="54.17576" lon="15.53745">
        <ele>43.708993</ele>
        <time>2024-07-28T09:13:39.669Z</time>
      </trkpt>
      <trkpt lat="54.17583" lon="15.53765">
        <ele>43.485114</ele>
        <time>2024-07-28T09:13:42.690Z</time>
      </trkpt>
      <trkpt lat="54.17587" lon="15.53779">
        <ele>43.327834</ele>
        <time>2024-07-28T09:13:44.665Z</time>
      </trkpt>
      <trkpt lat="54.17592" lon="15.53793">
        <ele>43.171525</ele>
        <time>2024-07-28T09:13:46.667Z</time>
      </trkpt>
      <trkpt lat="54.17598" lon="15.53812">
        <ele>42.959152</ele>
        <time>2024-07-28T09:13:49.661Z</time>
      </trkpt>
      <trkpt lat="54.17604" lon="15.53828">
        <ele>42.770729</ele>
        <time>2024-07-28T09:13:52.668Z</time>
      </trkpt>
      <trkpt lat="54.17609" lon="15.53843">
        <ele>42.603113</ele>
        <time>2024-07-28T09:13:55.656Z</time>
      </trkpt>
      <trkpt lat="54.17613" lon="15.53857">
        <ele>42.444276</ele>
        <time>2024-07-28T09:13:58.689Z</time>
      </trkpt>
      <trkpt lat="54.17619" lon="15.53875">
        <ele>42.183027</ele>
        <time>2024-07-28T09:14:01.672Z</time>
      </trkpt>
      <trkpt lat="54.17624" lon="15.53889">
        <ele>41.878954</ele>
        <time>2024-07-28T09:14:03.673Z</time>
      </trkpt>
      <trkpt lat="54.17629" lon="15.53907">
        <ele>41.518471</ele>
        <time>2024-07-28T09:14:06.665Z</time>
      </trkpt>
      <trkpt lat="54.17634" lon="15.53928">
        <ele>41.107905</ele>
        <time>2024-07-28T09:14:09.685Z</time>
      </trkpt>
      <trkpt lat="54.1764" lon="15.53947">
        <ele>40.706547</ele>
        <time>2024-07-28T09:14:12.659Z</time>
      </trkpt>
      <trkpt lat="54.17646" lon="15.53961">
        <ele>40.40959</ele>
        <time>2024-07-28T09:14:14.644Z</time>
      </trkpt>
      <trkpt lat="54.17651" lon="15.53981">
        <ele>40.008399</ele>
        <time>2024-07-28T09:14:17.653Z</time>
      </trkpt>
      <trkpt lat="54.17656" lon="15.54">
        <ele>39.624675</ele>
        <time>2024-07-28T09:14:20.657Z</time>
      </trkpt>
      <trkpt lat="54.17663" lon="15.54021">
        <ele>39.196788</ele>
        <time>2024-07-28T09:14:23.670Z</time>
      </trkpt>
      <trkpt lat="54.17669" lon="15.5404">
        <ele>38.809049</ele>
        <time>2024-07-28T09:14:26.671Z</time>
      </trkpt>
      <trkpt lat="54.17672" lon="15.54054">
        <ele>38.521998</ele>
        <time>2024-07-28T09:14:28.670Z</time>
      </trkpt>
      <trkpt lat="54.17677" lon="15.5407">
        <ele>38.208008</ele>
        <time>2024-07-28T09:14:30.684Z</time>
      </trkpt>
      <trkpt lat="54.17681" lon="15.54084">
        <ele>37.916476</ele>
        <time>2024-07-28T09:14:32.671Z</time>
      </trkpt>
      <trkpt lat="54.17686" lon="15.54098">
        <ele>37.609257</ele>
        <time>2024-07-28T09:14:34.670Z</time>
      </trkpt>
      <trkpt lat="54.17693" lon="15.54119">
        <ele>37.189994</ele>
        <time>2024-07-28T09:14:37.666Z</time>
      </trkpt>
      <trkpt lat="54.17696" lon="15.54134">
        <ele>36.897277</ele>
        <time>2024-07-28T09:14:39.701Z</time>
      </trkpt>
      <trkpt lat="54.177" lon="15.54149">
        <ele>36.673108</ele>
        <time>2024-07-28T09:14:41.670Z</time>
      </trkpt>
      <trkpt lat="54.17705" lon="15.54168">
        <ele>36.500265</ele>
        <time>2024-07-28T09:14:44.669Z</time>
      </trkpt>
      <trkpt lat="54.17709" lon="15.54188">
        <ele>36.329258</ele>
        <time>2024-07-28T09:14:47.691Z</time>
      </trkpt>
      <trkpt lat="54.17713" lon="15.54202">
        <ele>36.193519</ele>
        <time>2024-07-28T09:14:49.686Z</time>
      </trkpt>
      <trkpt lat="54.17719" lon="15.54219">
        <ele>36.035067</ele>
        <time>2024-07-28T09:14:51.670Z</time>
      </trkpt>
      <trkpt lat="54.17722" lon="15.54233">
        <ele>35.906903</ele>
        <time>2024-07-28T09:14:53.675Z</time>
      </trkpt>
      <trkpt lat="54.17729" lon="15.54253">
        <ele>35.716739</ele>
        <time>2024-07-28T09:14:56.662Z</time>
      </trkpt>
      <trkpt lat="54.17732" lon="15.54268">
        <ele>35.584211</ele>
        <time>2024-07-28T09:14:58.666Z</time>
      </trkpt>
      <trkpt lat="54.17742" lon="15.54278">
        <ele>35.423457</ele>
        <time>2024-07-28T09:15:02.663Z</time>
      </trkpt>
      <trkpt lat="54.17754" lon="15.54278">
        <ele>35.261558</ele>
        <time>2024-07-28T09:15:06.668Z</time>
      </trkpt>
      <trkpt lat="54.17763" lon="15.54282">
        <ele>35.130398</ele>
        <time>2024-07-28T09:15:09.661Z</time>
      </trkpt>
      <trkpt lat="54.17771" lon="15.54292">
        <ele>34.984428</ele>
        <time>2024-07-28T09:15:12.657Z</time>
      </trkpt>
      <trkpt lat="54.1778" lon="15.54302">
        <ele>34.830959</ele>
        <time>2024-07-28T09:15:15.668Z</time>
      </trkpt>
      <trkpt lat="54.17789" lon="15.54313">
        <ele>34.6714</ele>
        <time>2024-07-28T09:15:18.648Z</time>
      </trkpt>
      <trkpt lat="54.17798" lon="15.54324">
        <ele>34.521896</ele>
        <time>2024-07-28T09:15:21.667Z</time>
      </trkpt>
      <trkpt lat="54.17807" lon="15.54333">
        <ele>34.369261</ele>
        <time>2024-07-28T09:15:24.667Z</time>
      </trkpt>
      <trkpt lat="54.17817" lon="15.54344">
        <ele>34.199858</ele>
        <time>2024-07-28T09:15:27.665Z</time>
      </trkpt>
      <trkpt lat="54.17822" lon="15.54359">
        <ele>34.294901</ele>
        <time>2024-07-28T09:15:30.669Z</time>
      </trkpt>
      <trkpt lat="54.17822" lon="15.5438">
        <ele>34.432845</ele>
        <time>2024-07-28T09:15:33.667Z</time>
      </trkpt>
      <trkpt lat="54.17822" lon="15.54402">
        <ele>34.580697</ele>
        <time>2024-07-28T09:15:36.649Z</time>
      </trkpt>
      <trkpt lat="54.17823" lon="15.54418">
        <ele>34.683306</ele>
        <time>2024-07-28T09:15:38.678Z</time>
      </trkpt>
      <trkpt lat="54.17823" lon="15.54434">
        <ele>34.788066</ele>
        <time>2024-07-28T09:15:40.669Z</time>
      </trkpt>
      <trkpt lat="54.17824" lon="15.54456">
        <ele>34.936788</ele>
        <time>2024-07-28T09:15:43.668Z</time>
      </trkpt>
      <trkpt lat="54.17824" lon="15.54471">
        <ele>35.038945</ele>
        <time>2024-07-28T09:15:45.669Z</time>
      </trkpt>
      <trkpt lat="54.17825" lon="15.54487">
        <ele>35.141272</ele>
        <time>2024-07-28T09:15:47.666Z</time>
      </trkpt>
      <trkpt lat="54.17825" lon="15.54503">
        <ele>35.246123</ele>
        <time>2024-07-28T09:15:49.672Z</time>
      </trkpt>
      <trkpt lat="54.17825" lon="15.54519">
        <ele>35.354215</ele>
        <time>2024-07-28T09:15:51.692Z</time>
      </trkpt>
      <trkpt lat="54.17825" lon="15.54535">
        <ele>35.461011</ele>
        <time>2024-07-28T09:15:53.651Z</time>
      </trkpt>
      <trkpt lat="54.17825" lon="15.54551">
        <ele>35.568798</ele>
        <time>2024-07-28T09:15:55.663Z</time>
      </trkpt>
      <trkpt lat="54.17825" lon="15.54568">
        <ele>35.678198</ele>
        <time>2024-07-28T09:15:57.662Z</time>
      </trkpt>
      <trkpt lat="54.17825" lon="15.54584">
        <ele>35.787076</ele>
        <time>2024-07-28T09:15:59.672Z</time>
      </trkpt>
      <trkpt lat="54.17825" lon="15.546">
        <ele>35.889334</ele>
        <time>2024-07-28T09:16:01.684Z</time>
      </trkpt>
      <trkpt lat="54.17825" lon="15.54617">
        <ele>36.002134</ele>
        <time>2024-07-28T09:16:03.667Z</time>
      </trkpt>
      <trkpt lat="54.17825" lon="15.54633">
        <ele>36.110351</ele>
        <time>2024-07-28T09:16:05.687Z</time>
      </trkpt>
      <trkpt lat="54.17826" lon="15.54649">
        <ele>36.214465</ele>
        <time>2024-07-28T09:16:07.664Z</time>
      </trkpt>
      <trkpt lat="54.17825" lon="15.54665">
        <ele>36.224039</ele>
        <time>2024-07-28T09:16:09.673Z</time>
      </trkpt>
      <trkpt lat="54.17825" lon="15.54681">
        <ele>36.220567</ele>
        <time>2024-07-28T09:16:11.663Z</time>
      </trkpt>
      <trkpt lat="54.17826" lon="15.54703">
        <ele>36.215685</ele>
        <time>2024-07-28T09:16:14.663Z</time>
      </trkpt>
      <trkpt lat="54.17827" lon="15.54726">
        <ele>36.210831</ele>
        <time>2024-07-28T09:16:17.666Z</time>
      </trkpt>
      <trkpt lat="54.17826" lon="15.54747">
        <ele>36.206235</ele>
        <time>2024-07-28T09:16:20.668Z</time>
      </trkpt>
      <trkpt lat="54.17826" lon="15.54769">
        <ele>36.201447</ele>
        <time>2024-07-28T09:16:23.668Z</time>
      </trkpt>
      <trkpt lat="54.17825" lon="15.54791">
        <ele>36.196719</ele>
        <time>2024-07-28T09:16:26.658Z</time>
      </trkpt>
      <trkpt lat="54.17825" lon="15.54812">
        <ele>36.192149</ele>
        <time>2024-07-28T09:16:29.669Z</time>
      </trkpt>
      <trkpt lat="54.17825" lon="15.54833">
        <ele>36.187794</ele>
        <time>2024-07-28T09:16:32.669Z</time>
      </trkpt>
      <trkpt lat="54.17827" lon="15.54853">
        <ele>36.18341</ele>
        <time>2024-07-28T09:16:35.678Z</time>
      </trkpt>
      <trkpt lat="54.17827" lon="15.54874">
        <ele>36.17877</ele>
        <time>2024-07-28T09:16:38.666Z</time>
      </trkpt>
      <trkpt lat="54.17828" lon="15.54896">
        <ele>36.174014</ele>
        <time>2024-07-28T09:16:41.665Z</time>
      </trkpt>
      <trkpt lat="54.17828" lon="15.54912">
        <ele>36.170672</ele>
        <time>2024-07-28T09:16:43.665Z</time>
      </trkpt>
      <trkpt lat="54.17829" lon="15.54928">
        <ele>36.167256</ele>
        <time>2024-07-28T09:16:45.685Z</time>
      </trkpt>
      <trkpt lat="54.17829" lon="15.54943">
        <ele>36.16387</ele>
        <time>2024-07-28T09:16:47.670Z</time>
      </trkpt>
      <trkpt lat="54.17829" lon="15.54966">
        <ele>36.156271</ele>
        <time>2024-07-28T09:16:50.670Z</time>
      </trkpt>
      <trkpt lat="54.17829" lon="15.54982">
        <ele>36.147996</ele>
        <time>2024-07-28T09:16:52.691Z</time>
      </trkpt>
      <trkpt lat="54.1783" lon="15.54997">
        <ele>36.139802</ele>
        <time>2024-07-28T09:16:54.669Z</time>
      </trkpt>
      <trkpt lat="54.1783" lon="15.55012">
        <ele>36.13158</ele>
        <time>2024-07-28T09:16:56.667Z</time>
      </trkpt>
      <trkpt lat="54.17831" lon="15.55033">
        <ele>36.120643</ele>
        <time>2024-07-28T09:16:59.662Z</time>
      </trkpt>
      <trkpt lat="54.17835" lon="15.5505">
        <ele>36.110891</ele>
        <time>2024-07-28T09:17:03.665Z</time>
      </trkpt>
      <trkpt lat="54.1784" lon="15.55066">
        <ele>36.101259</ele>
        <time>2024-07-28T09:17:07.649Z</time>
      </trkpt>
      <trkpt lat="54.1783" lon="15.55076">
        <ele>36.090908</ele>
        <time>2024-07-28T09:17:12.663Z</time>
      </trkpt>
      <trkpt lat="54.17821" lon="15.55081">
        <ele>36.081944</ele>
        <time>2024-07-28T09:17:15.677Z</time>
      </trkpt>
      <trkpt lat="54.17811" lon="15.55086">
        <ele>36.072989</ele>
        <time>2024-07-28T09:17:18.666Z</time>
      </trkpt>
      <trkpt lat="54.17802" lon="15.55091">
        <ele>36.064309</ele>
        <time>2024-07-28T09:17:21.661Z</time>
      </trkpt>
      <trkpt lat="54.17793" lon="15.55098">
        <ele>36.055578</ele>
        <time>2024-07-28T09:17:24.665Z</time>
      </trkpt>
      <trkpt lat="54.17785" lon="15.55106">
        <ele>36.046963</ele>
        <time>2024-07-28T09:17:27.671Z</time>
      </trkpt>
      <trkpt lat="54.17777" lon="15.55113">
        <ele>36.038453</ele>
        <time>2024-07-28T09:17:30.677Z</time>
      </trkpt>
      <trkpt lat="54.17769" lon="15.55122">
        <ele>36.029949</ele>
        <time>2024-07-28T09:17:33.672Z</time>
      </trkpt>
      <trkpt lat="54.17758" lon="15.55121">
        <ele>36.019966</ele>
        <time>2024-07-28T09:17:38.663Z</time>
      </trkpt>
      <trkpt lat="54.1775" lon="15.55134">
        <ele>36.009938</ele>
        <time>2024-07-28T09:17:42.659Z</time>
      </trkpt>
      <trkpt lat="54.17741" lon="15.55145">
        <ele>35.99992</ele>
        <time>2024-07-28T09:17:46.669Z</time>
      </trkpt>
      <trkpt lat="54.17732" lon="15.55144">
        <ele>36.183868</ele>
        <time>2024-07-28T09:17:54.662Z</time>
      </trkpt>
      <trkpt lat="54.17722" lon="15.55154">
        <ele>36.504743</ele>
        <time>2024-07-28T09:17:58.694Z</time>
      </trkpt>
      <trkpt lat="54.17713" lon="15.55157">
        <ele>36.765125</ele>
        <time>2024-07-28T09:18:01.641Z</time>
      </trkpt>
      <trkpt lat="54.17703" lon="15.55163">
        <ele>37.052174</ele>
        <time>2024-07-28T09:18:04.670Z</time>
      </trkpt>
      <trkpt lat="54.17692" lon="15.5517">
        <ele>37.37219</ele>
        <time>2024-07-28T09:18:07.684Z</time>
      </trkpt>
      <trkpt lat="54.17681" lon="15.55177">
        <ele>37.700589</ele>
        <time>2024-07-28T09:18:10.664Z</time>
      </trkpt>
      <trkpt lat="54.17669" lon="15.55185">
        <ele>38.045569</ele>
        <time>2024-07-28T09:18:13.670Z</time>
      </trkpt>
      <trkpt lat="54.17661" lon="15.55191">
        <ele>38.302805</ele>
        <time>2024-07-28T09:18:15.665Z</time>
      </trkpt>
      <trkpt lat="54.1765" lon="15.55201">
        <ele>38.642929</ele>
        <time>2024-07-28T09:18:18.663Z</time>
      </trkpt>
      <trkpt lat="54.17639" lon="15.55214">
        <ele>38.996914</ele>
        <time>2024-07-28T09:18:21.665Z</time>
      </trkpt>
      <trkpt lat="54.17629" lon="15.55225">
        <ele>39.335413</ele>
        <time>2024-07-28T09:18:24.665Z</time>
      </trkpt>
      <trkpt lat="54.17619" lon="15.55238">
        <ele>39.670089</ele>
        <time>2024-07-28T09:18:27.661Z</time>
      </trkpt>
      <trkpt lat="54.17611" lon="15.55252">
        <ele>40.001917</ele>
        <time>2024-07-28T09:18:30.668Z</time>
      </trkpt>
      <trkpt lat="54.17603" lon="15.55268">
        <ele>40.350657</ele>
        <time>2024-07-28T09:18:33.682Z</time>
      </trkpt>
      <trkpt lat="54.17595" lon="15.55286">
        <ele>40.706914</ele>
        <time>2024-07-28T09:18:36.658Z</time>
      </trkpt>
      <trkpt lat="54.1759" lon="15.55298">
        <ele>40.958123</ele>
        <time>2024-07-28T09:18:38.663Z</time>
      </trkpt>
      <trkpt lat="54.17583" lon="15.55318">
        <ele>40.775864</ele>
        <time>2024-07-28T09:18:41.668Z</time>
      </trkpt>
      <trkpt lat="54.17579" lon="15.55339">
        <ele>40.588481</ele>
        <time>2024-07-28T09:18:44.666Z</time>
      </trkpt>
      <trkpt lat="54.17575" lon="15.55359">
        <ele>40.40988</ele>
        <time>2024-07-28T09:18:47.681Z</time>
      </trkpt>
      <trkpt lat="54.17572" lon="15.55379">
        <ele>40.22964</ele>
        <time>2024-07-28T09:18:50.679Z</time>
      </trkpt>
      <trkpt lat="54.17568" lon="15.55398">
        <ele>40.055036</ele>
        <time>2024-07-28T09:18:53.686Z</time>
      </trkpt>
      <trkpt lat="54.17565" lon="15.55416">
        <ele>39.901537</ele>
        <time>2024-07-28T09:18:56.664Z</time>
      </trkpt>
      <trkpt lat="54.17558" lon="15.5543">
        <ele>39.741961</ele>
        <time>2024-07-28T09:19:01.674Z</time>
      </trkpt>
      <trkpt lat="54.17559" lon="15.55448">
        <ele>39.587054</ele>
        <time>2024-07-28T09:19:05.662Z</time>
      </trkpt>
      <trkpt lat="54.17557" lon="15.55464">
        <ele>39.444821</ele>
        <time>2024-07-28T09:19:08.668Z</time>
      </trkpt>
      <trkpt lat="54.17553" lon="15.55481">
        <ele>39.289052</ele>
        <time>2024-07-28T09:19:11.664Z</time>
      </trkpt>
      <trkpt lat="54.1755" lon="15.55502">
        <ele>39.107954</ele>
        <time>2024-07-28T09:19:14.668Z</time>
      </trkpt>
      <trkpt lat="54.17549" lon="15.55523">
        <ele>38.925457</ele>
        <time>2024-07-28T09:19:17.654Z</time>
      </trkpt>
      <trkpt lat="54.17548" lon="15.55543">
        <ele>38.750775</ele>
        <time>2024-07-28T09:19:20.682Z</time>
      </trkpt>
      <trkpt lat="54.17548" lon="15.55564">
        <ele>38.57061</ele>
        <time>2024-07-28T09:19:23.663Z</time>
      </trkpt>
      <trkpt lat="54.17548" lon="15.55586">
        <ele>38.386254</ele>
        <time>2024-07-28T09:19:26.674Z</time>
      </trkpt>
      <trkpt lat="54.17549" lon="15.55607">
        <ele>38.15092</ele>
        <time>2024-07-28T09:19:29.683Z</time>
      </trkpt>
      <trkpt lat="54.17551" lon="15.55622">
        <ele>37.971785</ele>
        <time>2024-07-28T09:19:31.667Z</time>
      </trkpt>
      <trkpt lat="54.17553" lon="15.55638">
        <ele>37.788815</ele>
        <time>2024-07-28T09:19:33.666Z</time>
      </trkpt>
      <trkpt lat="54.17556" lon="15.55652">
        <ele>37.606087</ele>
        <time>2024-07-28T09:19:35.675Z</time>
      </trkpt>
      <trkpt lat="54.1756" lon="15.55667">
        <ele>37.427034</ele>
        <time>2024-07-28T09:19:37.670Z</time>
      </trkpt>
      <trkpt lat="54.17563" lon="15.55681">
        <ele>37.247981</ele>
        <time>2024-07-28T09:19:39.670Z</time>
      </trkpt>
      <trkpt lat="54.17567" lon="15.55702">
        <ele>36.993851</ele>
        <time>2024-07-28T09:19:42.669Z</time>
      </trkpt>
      <trkpt lat="54.17571" lon="15.55716">
        <ele>36.812623</ele>
        <time>2024-07-28T09:19:44.686Z</time>
      </trkpt>
      <trkpt lat="54.17576" lon="15.55738">
        <ele>36.542504</ele>
        <time>2024-07-28T09:19:47.670Z</time>
      </trkpt>
      <trkpt lat="54.17579" lon="15.55752">
        <ele>36.362631</ele>
        <time>2024-07-28T09:19:49.678Z</time>
      </trkpt>
      <trkpt lat="54.17582" lon="15.55774">
        <ele>36.099856</ele>
        <time>2024-07-28T09:19:52.662Z</time>
      </trkpt>
      <trkpt lat="54.17585" lon="15.55795">
        <ele>35.854461</ele>
        <time>2024-07-28T09:19:55.667Z</time>
      </trkpt>
      <trkpt lat="54.17587" lon="15.55815">
        <ele>35.615457</ele>
        <time>2024-07-28T09:19:58.689Z</time>
      </trkpt>
      <trkpt lat="54.17584" lon="15.55835">
        <ele>35.369819</ele>
        <time>2024-07-28T09:20:01.660Z</time>
      </trkpt>
      <trkpt lat="54.17581" lon="15.55854">
        <ele>35.146566</ele>
        <time>2024-07-28T09:20:04.668Z</time>
      </trkpt>
      <trkpt lat="54.17577" lon="15.55871">
        <ele>34.932034</ele>
        <time>2024-07-28T09:20:07.678Z</time>
      </trkpt>
      <trkpt lat="54.17575" lon="15.55889">
        <ele>34.787724</ele>
        <time>2024-07-28T09:20:10.660Z</time>
      </trkpt>
      <trkpt lat="54.17573" lon="15.55906">
        <ele>34.972503</ele>
        <time>2024-07-28T09:20:13.673Z</time>
      </trkpt>
      <trkpt lat="54.17569" lon="15.55927">
        <ele>35.196909</ele>
        <time>2024-07-28T09:20:16.684Z</time>
      </trkpt>
      <trkpt lat="54.17566" lon="15.55942">
        <ele>35.366458</ele>
        <time>2024-07-28T09:20:19.668Z</time>
      </trkpt>
      <trkpt lat="54.17564" lon="15.5596">
        <ele>35.558279</ele>
        <time>2024-07-28T09:20:23.668Z</time>
      </trkpt>
      <trkpt lat="54.17561" lon="15.55979">
        <ele>35.756216</ele>
        <time>2024-07-28T09:20:28.663Z</time>
      </trkpt>
      <trkpt lat="54.17552" lon="15.55986">
        <ele>35.938908</ele>
        <time>2024-07-28T09:20:33.666Z</time>
      </trkpt>
      <trkpt lat="54.17547" lon="15.56004">
        <ele>36.145691</ele>
        <time>2024-07-28T09:20:37.687Z</time>
      </trkpt>
      <trkpt lat="54.17542" lon="15.56019">
        <ele>36.332615</ele>
        <time>2024-07-28T09:20:40.669Z</time>
      </trkpt>
      <trkpt lat="54.17545" lon="15.56035">
        <ele>36.508895</ele>
        <time>2024-07-28T09:20:45.662Z</time>
      </trkpt>
      <trkpt lat="54.17556" lon="15.56043">
        <ele>36.71804</ele>
        <time>2024-07-28T09:21:20.667Z</time>
      </trkpt>
      <trkpt lat="54.17568" lon="15.56046">
        <ele>36.934003</ele>
        <time>2024-07-28T09:21:24.660Z</time>
      </trkpt>
      <trkpt lat="54.17578" lon="15.56055">
        <ele>37.1319</ele>
        <time>2024-07-28T09:21:27.662Z</time>
      </trkpt>
      <trkpt lat="54.17588" lon="15.56065">
        <ele>37.335439</ele>
        <time>2024-07-28T09:21:30.671Z</time>
      </trkpt>
      <trkpt lat="54.176" lon="15.56074">
        <ele>37.560484</ele>
        <time>2024-07-28T09:21:33.662Z</time>
      </trkpt>
      <trkpt lat="54.17611" lon="15.56083">
        <ele>37.791343</ele>
        <time>2024-07-28T09:21:36.659Z</time>
      </trkpt>
      <trkpt lat="54.17619" lon="15.56091">
        <ele>37.949192</ele>
        <time>2024-07-28T09:21:38.651Z</time>
      </trkpt>
      <trkpt lat="54.17628" lon="15.56098">
        <ele>38.066985</ele>
        <time>2024-07-28T09:21:40.680Z</time>
      </trkpt>
      <trkpt lat="54.17636" lon="15.56106">
        <ele>38.187995</ele>
        <time>2024-07-28T09:21:42.682Z</time>
      </trkpt>
      <trkpt lat="54.17644" lon="15.56113">
        <ele>38.302513</ele>
        <time>2024-07-28T09:21:44.667Z</time>
      </trkpt>
      <trkpt lat="54.17656" lon="15.56122">
        <ele>38.464108</ele>
        <time>2024-07-28T09:21:47.652Z</time>
      </trkpt>
      <trkpt lat="54.17667" lon="15.56131">
        <ele>38.620278</ele>
        <time>2024-07-28T09:21:50.667Z</time>
      </trkpt>
      <trkpt lat="54.17678" lon="15.56141">
        <ele>38.767187</ele>
        <time>2024-07-28T09:21:53.663Z</time>
      </trkpt>
      <trkpt lat="54.17689" lon="15.5615">
        <ele>38.926702</ele>
        <time>2024-07-28T09:21:56.657Z</time>
      </trkpt>
      <trkpt lat="54.17701" lon="15.56159">
        <ele>39.088297</ele>
        <time>2024-07-28T09:21:59.665Z</time>
      </trkpt>
      <trkpt lat="54.17712" lon="15.56166">
        <ele>39.244628</ele>
        <time>2024-07-28T09:22:02.665Z</time>
      </trkpt>
      <trkpt lat="54.17723" lon="15.56175">
        <ele>39.395938</ele>
        <time>2024-07-28T09:22:05.667Z</time>
      </trkpt>
      <trkpt lat="54.17735" lon="15.56183">
        <ele>39.555221</ele>
        <time>2024-07-28T09:22:08.671Z</time>
      </trkpt>
      <trkpt lat="54.17744" lon="15.56191">
        <ele>39.686059</ele>
        <time>2024-07-28T09:22:11.662Z</time>
      </trkpt>
      <trkpt lat="54.17748" lon="15.56197">
        <ele>39.744078</ele>
        <time>2024-07-28T09:22:18.948Z</time>
      </trkpt>
      <trkpt lat="54.17758" lon="15.562">
        <ele>39.869905</ele>
        <time>2024-07-28T09:23:23.698Z</time>
      </trkpt>
      <trkpt lat="54.17768" lon="15.56207">
        <ele>40.011013</ele>
        <time>2024-07-28T09:23:27.669Z</time>
      </trkpt>
      <trkpt lat="54.17776" lon="15.56216">
        <ele>40.132159</ele>
        <time>2024-07-28T09:23:30.658Z</time>
      </trkpt>
      <trkpt lat="54.17786" lon="15.56226">
        <ele>40.231084</ele>
        <time>2024-07-28T09:23:33.668Z</time>
      </trkpt>
      <trkpt lat="54.17799" lon="15.56236">
        <ele>40.295101</ele>
        <time>2024-07-28T09:23:36.682Z</time>
      </trkpt>
      <trkpt lat="54.17808" lon="15.56246">
        <ele>40.3484</ele>
        <time>2024-07-28T09:23:39.672Z</time>
      </trkpt>
      <trkpt lat="54.17819" lon="15.56255">
        <ele>40.40622</ele>
        <time>2024-07-28T09:23:42.660Z</time>
      </trkpt>
      <trkpt lat="54.17828" lon="15.56268">
        <ele>40.462587</ele>
        <time>2024-07-28T09:23:45.692Z</time>
      </trkpt>
      <trkpt lat="54.17833" lon="15.56285">
        <ele>40.515578</ele>
        <time>2024-07-28T09:23:48.678Z</time>
      </trkpt>
      <trkpt lat="54.17842" lon="15.5628">
        <ele>40.561265</ele>
        <time>2024-07-28T09:23:51.650Z</time>
      </trkpt>
      <trkpt lat="54.17852" lon="15.56279">
        <ele>40.60534</ele>
        <time>2024-07-28T09:24:03.676Z</time>
      </trkpt>
      <trkpt lat="54.1786" lon="15.5627">
        <ele>40.654209</ele>
        <time>2024-07-28T09:24:15.667Z</time>
      </trkpt>
      <trkpt lat="54.17863" lon="15.56255">
        <ele>40.698251</ele>
        <time>2024-07-28T09:24:18.660Z</time>
      </trkpt>
      <trkpt lat="54.17859" lon="15.56237">
        <ele>40.752528</ele>
        <time>2024-07-28T09:24:22.671Z</time>
      </trkpt>
      <trkpt lat="54.17861" lon="15.56221">
        <ele>40.79953</ele>
        <time>2024-07-28T09:24:25.668Z</time>
      </trkpt>
      <trkpt lat="54.17865" lon="15.56207">
        <ele>40.843353</ele>
        <time>2024-07-28T09:24:28.666Z</time>
      </trkpt>
      <trkpt lat="54.17872" lon="15.56194">
        <ele>40.891686</ele>
        <time>2024-07-28T09:24:31.675Z</time>
      </trkpt>
      <trkpt lat="54.17879" lon="15.56179">
        <ele>40.946016</ele>
        <time>2024-07-28T09:24:34.686Z</time>
      </trkpt>
      <trkpt lat="54.17888" lon="15.56167">
        <ele>40.998988</ele>
        <time>2024-07-28T09:24:37.669Z</time>
      </trkpt>
      <trkpt lat="54.17898" lon="15.56159">
        <ele>41.050323</ele>
        <time>2024-07-28T09:24:40.679Z</time>
      </trkpt>
      <trkpt lat="54.17908" lon="15.56155">
        <ele>41.196451</ele>
        <time>2024-07-28T09:24:43.658Z</time>
      </trkpt>
      <trkpt lat="54.17917" lon="15.56148">
        <ele>41.358238</ele>
        <time>2024-07-28T09:24:46.661Z</time>
      </trkpt>
      <trkpt lat="54.17928" lon="15.56138">
        <ele>41.544733</ele>
        <time>2024-07-28T09:24:50.687Z</time>
      </trkpt>
      <trkpt lat="54.17939" lon="15.56136">
        <ele>41.707295</ele>
        <time>2024-07-28T09:24:53.663Z</time>
      </trkpt>
      <trkpt lat="54.17949" lon="15.56133">
        <ele>41.874283</ele>
        <time>2024-07-28T09:24:56.658Z</time>
      </trkpt>
      <trkpt lat="54.1796" lon="15.56129">
        <ele>42.04244</ele>
        <time>2024-07-28T09:24:59.677Z</time>
      </trkpt>
      <trkpt lat="54.17971" lon="15.56125">
        <ele>42.21178</ele>
        <time>2024-07-28T09:25:02.666Z</time>
      </trkpt>
      <trkpt lat="54.17981" lon="15.56116">
        <ele>42.388315</ele>
        <time>2024-07-28T09:25:05.673Z</time>
      </trkpt>
      <trkpt lat="54.17989" lon="15.56105">
        <ele>42.547755</ele>
        <time>2024-07-28T09:25:08.660Z</time>
      </trkpt>
      <trkpt lat="54.17996" lon="15.56091">
        <ele>42.71491</ele>
        <time>2024-07-28T09:25:11.688Z</time>
      </trkpt>
      <trkpt lat="54.18004" lon="15.56076">
        <ele>42.894937</ele>
        <time>2024-07-28T09:25:14.673Z</time>
      </trkpt>
      <trkpt lat="54.18012" lon="15.56061">
        <ele>43.073617</ele>
        <time>2024-07-28T09:25:17.673Z</time>
      </trkpt>
      <trkpt lat="54.18019" lon="15.56046">
        <ele>43.249701</ele>
        <time>2024-07-28T09:25:20.681Z</time>
      </trkpt>
      <trkpt lat="54.18026" lon="15.56031">
        <ele>43.422461</ele>
        <time>2024-07-28T09:25:23.682Z</time>
      </trkpt>
      <trkpt lat="54.18032" lon="15.56016">
        <ele>43.586531</ele>
        <time>2024-07-28T09:25:26.658Z</time>
      </trkpt>
      <trkpt lat="54.1804" lon="15.56002">
        <ele>43.75981</ele>
        <time>2024-07-28T09:25:29.677Z</time>
      </trkpt>
      <trkpt lat="54.18046" lon="15.55986">
        <ele>43.842601</ele>
        <time>2024-07-28T09:25:32.682Z</time>
      </trkpt>
      <trkpt lat="54.18052" lon="15.55973">
        <ele>43.87028</ele>
        <time>2024-07-28T09:25:35.676Z</time>
      </trkpt>
      <trkpt lat="54.18059" lon="15.5596">
        <ele>43.896378</ele>
        <time>2024-07-28T09:25:38.670Z</time>
      </trkpt>
      <trkpt lat="54.18065" lon="15.55949">
        <ele>43.920617</ele>
        <time>2024-07-28T09:25:41.671Z</time>
      </trkpt>
      <trkpt lat="54.18071" lon="15.55935">
        <ele>43.947063</ele>
        <time>2024-07-28T09:25:44.679Z</time>
      </trkpt>
      <trkpt lat="54.18077" lon="15.55921">
        <ele>43.975184</ele>
        <time>2024-07-28T09:25:47.668Z</time>
      </trkpt>
      <trkpt lat="54.18083" lon="15.55907">
        <ele>44.002168</ele>
        <time>2024-07-28T09:25:50.672Z</time>
      </trkpt>
      <trkpt lat="54.18089" lon="15.55894">
        <ele>44.027326</ele>
        <time>2024-07-28T09:25:53.662Z</time>
      </trkpt>
      <trkpt lat="54.18096" lon="15.55881">
        <ele>44.054386</ele>
        <time>2024-07-28T09:25:56.660Z</time>
      </trkpt>
      <trkpt lat="54.18104" lon="15.55864">
        <ele>44.087188</ele>
        <time>2024-07-28T09:25:59.683Z</time>
      </trkpt>
      <trkpt lat="54.18112" lon="15.55847">
        <ele>44.121718</ele>
        <time>2024-07-28T09:26:02.672Z</time>
      </trkpt>
      <trkpt lat="54.18118" lon="15.55835">
        <ele>44.145722</ele>
        <time>2024-07-28T09:26:04.714Z</time>
      </trkpt>
      <trkpt lat="54.18124" lon="15.55824">
        <ele>44.170033</ele>
        <time>2024-07-28T09:26:06.676Z</time>
      </trkpt>
      <trkpt lat="54.18132" lon="15.55813">
        <ele>44.196689</ele>
        <time>2024-07-28T09:26:08.677Z</time>
      </trkpt>
      <trkpt lat="54.18141" lon="15.55805">
        <ele>44.223362</ele>
        <time>2024-07-28T09:26:10.709Z</time>
      </trkpt>
      <trkpt lat="54.18151" lon="15.55799">
        <ele>44.252142</ele>
        <time>2024-07-28T09:26:12.656Z</time>
      </trkpt>
      <trkpt lat="54.18162" lon="15.55798">
        <ele>44.281914</ele>
        <time>2024-07-28T09:26:14.661Z</time>
      </trkpt>
      <trkpt lat="54.18173" lon="15.558">
        <ele>44.271839</ele>
        <time>2024-07-28T09:26:16.666Z</time>
      </trkpt>
      <trkpt lat="54.18184" lon="15.55808">
        <ele>44.16844</ele>
        <time>2024-07-28T09:26:18.679Z</time>
      </trkpt>
      <trkpt lat="54.18194" lon="15.5582">
        <ele>44.065269</ele>
        <time>2024-07-28T09:26:20.670Z</time>
      </trkpt>
      <trkpt lat="54.18203" lon="15.55832">
        <ele>43.96505</ele>
        <time>2024-07-28T09:26:22.663Z</time>
      </trkpt>
      <trkpt lat="54.1821" lon="15.55847">
        <ele>43.867087</ele>
        <time>2024-07-28T09:26:24.680Z</time>
      </trkpt>
      <trkpt lat="54.18216" lon="15.55859">
        <ele>43.785783</ele>
        <time>2024-07-28T09:26:26.668Z</time>
      </trkpt>
      <trkpt lat="54.18222" lon="15.55878">
        <ele>43.675958</ele>
        <time>2024-07-28T09:26:29.662Z</time>
      </trkpt>
      <trkpt lat="54.1822" lon="15.55895">
        <ele>43.589307</ele>
        <time>2024-07-28T09:26:33.669Z</time>
      </trkpt>
      <trkpt lat="54.1823" lon="15.55901">
        <ele>43.50024</ele>
        <time>2024-07-28T09:26:37.665Z</time>
      </trkpt>
      <trkpt lat="54.1824" lon="15.55902">
        <ele>43.41213</ele>
        <time>2024-07-28T09:26:40.673Z</time>
      </trkpt>
      <trkpt lat="54.18249" lon="15.55915">
        <ele>43.311262</ele>
        <time>2024-07-28T09:26:43.660Z</time>
      </trkpt>
      <trkpt lat="54.18255" lon="15.55928">
        <ele>43.22336</ele>
        <time>2024-07-28T09:26:46.665Z</time>
      </trkpt>
      <trkpt lat="54.18261" lon="15.55944">
        <ele>43.123856</ele>
        <time>2024-07-28T09:26:50.668Z</time>
      </trkpt>
      <trkpt lat="54.18269" lon="15.55958">
        <ele>43.031994</ele>
        <time>2024-07-28T09:26:55.667Z</time>
      </trkpt>
      <trkpt lat="54.18275" lon="15.5597">
        <ele>42.947239</ele>
        <time>2024-07-28T09:27:00.670Z</time>
      </trkpt>
      <trkpt lat="54.18282" lon="15.55983">
        <ele>42.857136</ele>
        <time>2024-07-28T09:27:04.664Z</time>
      </trkpt>
      <trkpt lat="54.18289" lon="15.55996">
        <ele>42.76395</ele>
        <time>2024-07-28T09:27:08.692Z</time>
      </trkpt>
      <trkpt lat="54.18299" lon="15.56008">
        <ele>42.594123</ele>
        <time>2024-07-28T09:27:12.681Z</time>
      </trkpt>
      <trkpt lat="54.18305" lon="15.56021">
        <ele>42.432873</ele>
        <time>2024-07-28T09:27:15.655Z</time>
      </trkpt>
      <trkpt lat="54.18313" lon="15.56032">
        <ele>42.265512</ele>
        <time>2024-07-28T09:27:18.648Z</time>
      </trkpt>
      <trkpt lat="54.18321" lon="15.56042">
        <ele>42.103328</ele>
        <time>2024-07-28T09:27:21.667Z</time>
      </trkpt>
      <trkpt lat="54.18328" lon="15.56053">
        <ele>41.937866</ele>
        <time>2024-07-28T09:27:24.678Z</time>
      </trkpt>
      <trkpt lat="54.18336" lon="15.56063">
        <ele>41.780595</ele>
        <time>2024-07-28T09:27:27.669Z</time>
      </trkpt>
      <trkpt lat="54.18339" lon="15.56078">
        <ele>41.621931</ele>
        <time>2024-07-28T09:27:30.675Z</time>
      </trkpt>
      <trkpt lat="54.18342" lon="15.56096">
        <ele>41.443684</ele>
        <time>2024-07-28T09:27:33.667Z</time>
      </trkpt>
      <trkpt lat="54.18347" lon="15.56111">
        <ele>41.273987</ele>
        <time>2024-07-28T09:27:36.677Z</time>
      </trkpt>
      <trkpt lat="54.18353" lon="15.56123">
        <ele>41.120935</ele>
        <time>2024-07-28T09:27:39.667Z</time>
      </trkpt>
      <trkpt lat="54.18359" lon="15.56135">
        <ele>40.964057</ele>
        <time>2024-07-28T09:27:42.688Z</time>
      </trkpt>
      <trkpt lat="54.18368" lon="15.5613">
        <ele>40.807592</ele>
        <time>2024-07-28T09:27:46.678Z</time>
      </trkpt>
      <trkpt lat="54.18376" lon="15.5612">
        <ele>40.646768</ele>
        <time>2024-07-28T09:27:49.660Z</time>
      </trkpt>
      <trkpt lat="54.18382" lon="15.56108">
        <ele>40.496262</ele>
        <time>2024-07-28T09:27:52.672Z</time>
      </trkpt>
      <trkpt lat="54.18394" lon="15.56113">
        <ele>40.300228</ele>
        <time>2024-07-28T09:27:56.671Z</time>
      </trkpt>
      <trkpt lat="54.18402" lon="15.56122">
        <ele>40.136985</ele>
        <time>2024-07-28T09:27:59.678Z</time>
      </trkpt>
      <trkpt lat="54.1841" lon="15.56131">
        <ele>39.984043</ele>
        <time>2024-07-28T09:28:02.681Z</time>
      </trkpt>
      <trkpt lat="54.1842" lon="15.56142">
        <ele>39.78393</ele>
        <time>2024-07-28T09:28:06.666Z</time>
      </trkpt>
      <trkpt lat="54.1843" lon="15.5615">
        <ele>39.559705</ele>
        <time>2024-07-28T09:28:09.669Z</time>
      </trkpt>
      <trkpt lat="54.1844" lon="15.56158">
        <ele>39.35467</ele>
        <time>2024-07-28T09:28:12.694Z</time>
      </trkpt>
      <trkpt lat="54.18449" lon="15.56168">
        <ele>39.140264</ele>
        <time>2024-07-28T09:28:15.671Z</time>
      </trkpt>
      <trkpt lat="54.18459" lon="15.56175">
        <ele>38.934874</ele>
        <time>2024-07-28T09:28:18.678Z</time>
      </trkpt>
      <trkpt lat="54.18471" lon="15.56184">
        <ele>38.681379</ele>
        <time>2024-07-28T09:28:21.689Z</time>
      </trkpt>
      <trkpt lat="54.1848" lon="15.5619">
        <ele>38.491144</ele>
        <time>2024-07-28T09:28:24.692Z</time>
      </trkpt>
      <trkpt lat="54.1849" lon="15.56198">
        <ele>38.28483</ele>
        <time>2024-07-28T09:28:27.669Z</time>
      </trkpt>
      <trkpt lat="54.18499" lon="15.5621">
        <ele>38.05791</ele>
        <time>2024-07-28T09:28:30.673Z</time>
      </trkpt>
      <trkpt lat="54.18504" lon="15.56223">
        <ele>37.878652</ele>
        <time>2024-07-28T09:28:34.660Z</time>
      </trkpt>
      <trkpt lat="54.1851" lon="15.56236">
        <ele>37.697662</ele>
        <time>2024-07-28T09:28:38.668Z</time>
      </trkpt>
      <trkpt lat="54.18509" lon="15.56253">
        <ele>37.505544</ele>
        <time>2024-07-28T09:28:41.676Z</time>
      </trkpt>
      <trkpt lat="54.18508" lon="15.56271">
        <ele>37.299194</ele>
        <time>2024-07-28T09:28:44.695Z</time>
      </trkpt>
      <trkpt lat="54.18507" lon="15.56289">
        <ele>37.096015</ele>
        <time>2024-07-28T09:28:47.658Z</time>
      </trkpt>
      <trkpt lat="54.18506" lon="15.56306">
        <ele>36.902271</ele>
        <time>2024-07-28T09:28:50.675Z</time>
      </trkpt>
      <trkpt lat="54.18505" lon="15.56322">
        <ele>36.713546</ele>
        <time>2024-07-28T09:28:53.669Z</time>
      </trkpt>
      <trkpt lat="54.18506" lon="15.56339">
        <ele>36.517727</ele>
        <time>2024-07-28T09:28:56.642Z</time>
      </trkpt>
      <trkpt lat="54.18506" lon="15.56357">
        <ele>36.315799</ele>
        <time>2024-07-28T09:28:59.644Z</time>
      </trkpt>
      <trkpt lat="54.18505" lon="15.56373">
        <ele>36.336775</ele>
        <time>2024-07-28T09:29:01.647Z</time>
      </trkpt>
      <trkpt lat="54.18504" lon="15.56388">
        <ele>36.411781</ele>
        <time>2024-07-28T09:29:03.641Z</time>
      </trkpt>
      <trkpt lat="54.18502" lon="15.56411">
        <ele>36.521269</ele>
        <time>2024-07-28T09:29:06.658Z</time>
      </trkpt>
      <trkpt lat="54.185" lon="15.56427">
        <ele>36.601398</ele>
        <time>2024-07-28T09:29:08.688Z</time>
      </trkpt>
      <trkpt lat="54.18499" lon="15.56448">
        <ele>36.700105</ele>
        <time>2024-07-28T09:29:11.654Z</time>
      </trkpt>
      <trkpt lat="54.185" lon="15.56467">
        <ele>36.795377</ele>
        <time>2024-07-28T09:29:14.659Z</time>
      </trkpt>
      <trkpt lat="54.18499" lon="15.56489">
        <ele>36.901296</ele>
        <time>2024-07-28T09:29:17.665Z</time>
      </trkpt>
      <trkpt lat="54.18499" lon="15.5651">
        <ele>36.999616</ele>
        <time>2024-07-28T09:29:20.667Z</time>
      </trkpt>
      <trkpt lat="54.18498" lon="15.5653">
        <ele>37.098155</ele>
        <time>2024-07-28T09:29:23.670Z</time>
      </trkpt>
      <trkpt lat="54.18495" lon="15.56556">
        <ele>37.224468</ele>
        <time>2024-07-28T09:29:26.667Z</time>
      </trkpt>
      <trkpt lat="54.18494" lon="15.56576">
        <ele>37.318205</ele>
        <time>2024-07-28T09:29:29.663Z</time>
      </trkpt>
      <trkpt lat="54.18492" lon="15.56592">
        <ele>37.39484</ele>
        <time>2024-07-28T09:29:32.693Z</time>
      </trkpt>
      <trkpt lat="54.18491" lon="15.56614">
        <ele>37.502111</ele>
        <time>2024-07-28T09:29:36.665Z</time>
      </trkpt>
      <trkpt lat="54.18494" lon="15.56634">
        <ele>37.601429</ele>
        <time>2024-07-28T09:29:39.655Z</time>
      </trkpt>
      <trkpt lat="54.185" lon="15.56652">
        <ele>37.70069</ele>
        <time>2024-07-28T09:29:42.654Z</time>
      </trkpt>
      <trkpt lat="54.18503" lon="15.5667">
        <ele>37.773111</ele>
        <time>2024-07-28T09:29:45.667Z</time>
      </trkpt>
      <trkpt lat="54.18503" lon="15.56689">
        <ele>37.828682</ele>
        <time>2024-07-28T09:29:48.669Z</time>
      </trkpt>
      <trkpt lat="54.18504" lon="15.56707">
        <ele>37.879146</ele>
        <time>2024-07-28T09:29:51.662Z</time>
      </trkpt>
      <trkpt lat="54.18507" lon="15.56727">
        <ele>37.938383</ele>
        <time>2024-07-28T09:29:54.670Z</time>
      </trkpt>
      <trkpt lat="54.18512" lon="15.56746">
        <ele>37.997471</ele>
        <time>2024-07-28T09:29:57.665Z</time>
      </trkpt>
      <trkpt lat="54.18516" lon="15.56764">
        <ele>38.055569</ele>
        <time>2024-07-28T09:30:00.677Z</time>
      </trkpt>
      <trkpt lat="54.18518" lon="15.56785">
        <ele>38.114134</ele>
        <time>2024-07-28T09:30:03.690Z</time>
      </trkpt>
      <trkpt lat="54.18518" lon="15.56804">
        <ele>38.17012</ele>
        <time>2024-07-28T09:30:06.662Z</time>
      </trkpt>
      <trkpt lat="54.18518" lon="15.56827">
        <ele>38.234652</ele>
        <time>2024-07-28T09:30:09.654Z</time>
      </trkpt>
      <trkpt lat="54.18519" lon="15.56843">
        <ele>38.280828</ele>
        <time>2024-07-28T09:30:11.660Z</time>
      </trkpt>
      <trkpt lat="54.18518" lon="15.56859">
        <ele>38.327839</ele>
        <time>2024-07-28T09:30:14.674Z</time>
      </trkpt>
      <trkpt lat="54.18519" lon="15.56878">
        <ele>38.382562</ele>
        <time>2024-07-28T09:30:17.671Z</time>
      </trkpt>
      <trkpt lat="54.1852" lon="15.56897">
        <ele>38.437408</ele>
        <time>2024-07-28T09:30:20.674Z</time>
      </trkpt>
      <trkpt lat="54.18518" lon="15.56917">
        <ele>38.496347</ele>
        <time>2024-07-28T09:30:23.662Z</time>
      </trkpt>
      <trkpt lat="54.18517" lon="15.56936">
        <ele>38.549086</ele>
        <time>2024-07-28T09:30:26.661Z</time>
      </trkpt>
      <trkpt lat="54.18517" lon="15.56957">
        <ele>38.611019</ele>
        <time>2024-07-28T09:30:29.664Z</time>
      </trkpt>
      <trkpt lat="54.18517" lon="15.56978">
        <ele>38.805831</ele>
        <time>2024-07-28T09:30:32.669Z</time>
      </trkpt>
      <trkpt lat="54.18511" lon="15.56996">
        <ele>39.060855</ele>
        <time>2024-07-28T09:30:35.666Z</time>
      </trkpt>
      <trkpt lat="54.18504" lon="15.57012">
        <ele>39.313413</ele>
        <time>2024-07-28T09:30:38.661Z</time>
      </trkpt>
      <trkpt lat="54.18499" lon="15.57031">
        <ele>39.571337</ele>
        <time>2024-07-28T09:30:41.662Z</time>
      </trkpt>
      <trkpt lat="54.18493" lon="15.57047">
        <ele>39.815893</ele>
        <time>2024-07-28T09:30:44.676Z</time>
      </trkpt>
      <trkpt lat="54.18488" lon="15.57065">
        <ele>40.063376</ele>
        <time>2024-07-28T09:30:47.648Z</time>
      </trkpt>
      <trkpt lat="54.18487" lon="15.5708">
        <ele>40.258478</ele>
        <time>2024-07-28T09:30:50.661Z</time>
      </trkpt>
      <trkpt lat="54.18488" lon="15.57097">
        <ele>40.468042</ele>
        <time>2024-07-28T09:30:53.646Z</time>
      </trkpt>
      <trkpt lat="54.18487" lon="15.5712">
        <ele>40.753426</ele>
        <time>2024-07-28T09:30:56.683Z</time>
      </trkpt>
      <trkpt lat="54.18488" lon="15.5714">
        <ele>41.011591</ele>
        <time>2024-07-28T09:30:59.668Z</time>
      </trkpt>
      <trkpt lat="54.18488" lon="15.5716">
        <ele>41.266171</ele>
        <time>2024-07-28T09:31:02.682Z</time>
      </trkpt>
      <trkpt lat="54.18488" lon="15.57179">
        <ele>41.50745</ele>
        <time>2024-07-28T09:31:05.665Z</time>
      </trkpt>
      <trkpt lat="54.18486" lon="15.57196">
        <ele>41.725174</ele>
        <time>2024-07-28T09:31:08.673Z</time>
      </trkpt>
      <trkpt lat="54.18486" lon="15.57216">
        <ele>41.977044</ele>
        <time>2024-07-28T09:31:11.650Z</time>
      </trkpt>
      <trkpt lat="54.18487" lon="15.57237">
        <ele>42.239667</ele>
        <time>2024-07-28T09:31:14.682Z</time>
      </trkpt>
      <trkpt lat="54.18489" lon="15.57257">
        <ele>42.490188</ele>
        <time>2024-07-28T09:31:17.672Z</time>
      </trkpt>
      <trkpt lat="54.18491" lon="15.57274">
        <ele>42.558931</ele>
        <time>2024-07-28T09:31:20.659Z</time>
      </trkpt>
      <trkpt lat="54.18493" lon="15.57291">
        <ele>42.621048</ele>
        <time>2024-07-28T09:31:23.653Z</time>
      </trkpt>
      <trkpt lat="54.18496" lon="15.57308">
        <ele>42.683413</ele>
        <time>2024-07-28T09:31:26.652Z</time>
      </trkpt>
      <trkpt lat="54.18499" lon="15.57328">
        <ele>42.753023</ele>
        <time>2024-07-28T09:31:29.651Z</time>
      </trkpt>
      <trkpt lat="54.18501" lon="15.57345">
        <ele>42.815398</ele>
        <time>2024-07-28T09:31:32.682Z</time>
      </trkpt>
      <trkpt lat="54.1851" lon="15.57356">
        <ele>42.876609</ele>
        <time>2024-07-28T09:31:36.652Z</time>
      </trkpt>
      <trkpt lat="54.18517" lon="15.57365">
        <ele>42.93013</ele>
        <time>2024-07-28T09:31:39.678Z</time>
      </trkpt>
      <trkpt lat="54.18526" lon="15.57371">
        <ele>42.987089</ele>
        <time>2024-07-28T09:31:42.660Z</time>
      </trkpt>
      <trkpt lat="54.18535" lon="15.57377">
        <ele>43.045411</ele>
        <time>2024-07-28T09:31:45.668Z</time>
      </trkpt>
      <trkpt lat="54.18544" lon="15.57387">
        <ele>43.110585</ele>
        <time>2024-07-28T09:31:48.667Z</time>
      </trkpt>
      <trkpt lat="54.18553" lon="15.574">
        <ele>43.179608</ele>
        <time>2024-07-28T09:31:51.681Z</time>
      </trkpt>
      <trkpt lat="54.18561" lon="15.57416">
        <ele>43.253717</ele>
        <time>2024-07-28T09:31:54.671Z</time>
      </trkpt>
      <trkpt lat="54.18564" lon="15.57435">
        <ele>43.322259</ele>
        <time>2024-07-28T09:31:57.650Z</time>
      </trkpt>
      <trkpt lat="54.18564" lon="15.57454">
        <ele>43.388197</ele>
        <time>2024-07-28T09:32:00.658Z</time>
      </trkpt>
      <trkpt lat="54.18562" lon="15.57472">
        <ele>43.450419</ele>
        <time>2024-07-28T09:32:03.648Z</time>
      </trkpt>
      <trkpt lat="54.1856" lon="15.5749">
        <ele>43.517112</ele>
        <time>2024-07-28T09:32:06.650Z</time>
      </trkpt>
      <trkpt lat="54.18558" lon="15.57509">
        <ele>43.530148</ele>
        <time>2024-07-28T09:32:09.679Z</time>
      </trkpt>
      <trkpt lat="54.18557" lon="15.57525">
        <ele>43.2569</ele>
        <time>2024-07-28T09:32:12.642Z</time>
      </trkpt>
      <trkpt lat="54.18556" lon="15.57544">
        <ele>42.953786</ele>
        <time>2024-07-28T09:32:16.651Z</time>
      </trkpt>
      <trkpt lat="54.18558" lon="15.57529">
        <ele>42.704579</ele>
        <time>2024-07-28T09:32:28.675Z</time>
      </trkpt>
      <trkpt lat="54.18567" lon="15.57517">
        <ele>42.394042</ele>
        <time>2024-07-28T09:32:33.659Z</time>
      </trkpt>
      <trkpt lat="54.18578" lon="15.5751">
        <ele>42.085112</ele>
        <time>2024-07-28T09:32:37.659Z</time>
      </trkpt>
      <trkpt lat="54.18587" lon="15.57505">
        <ele>41.804958</ele>
        <time>2024-07-28T09:32:42.661Z</time>
      </trkpt>
      <trkpt lat="54.18595" lon="15.575">
        <ele>41.571035</ele>
        <time>2024-07-28T09:33:02.667Z</time>
      </trkpt>
      <trkpt lat="54.18587" lon="15.57508">
        <ele>41.313313</ele>
        <time>2024-07-28T09:59:57.625Z</time>
      </trkpt>
      <trkpt lat="54.18579" lon="15.57513">
        <ele>41.064364</ele>
        <time>2024-07-28T10:00:01.630Z</time>
      </trkpt>
      <trkpt lat="54.18568" lon="15.5752">
        <ele>40.76228</ele>
        <time>2024-07-28T10:00:04.628Z</time>
      </trkpt>
      <trkpt lat="54.18561" lon="15.57527">
        <ele>40.514106</ele>
        <time>2024-07-28T10:00:07.635Z</time>
      </trkpt>
      <trkpt lat="54.18557" lon="15.57546">
        <ele>40.198701</ele>
        <time>2024-07-28T10:00:11.678Z</time>
      </trkpt>
      <trkpt lat="54.18556" lon="15.57565">
        <ele>39.89099</ele>
        <time>2024-07-28T10:00:14.657Z</time>
      </trkpt>
      <trkpt lat="54.18556" lon="15.57584">
        <ele>39.57905</ele>
        <time>2024-07-28T10:00:17.639Z</time>
      </trkpt>
      <trkpt lat="54.18557" lon="15.57602">
        <ele>39.298351</ele>
        <time>2024-07-28T10:00:20.654Z</time>
      </trkpt>
      <trkpt lat="54.18555" lon="15.57621">
        <ele>38.99184</ele>
        <time>2024-07-28T10:00:24.644Z</time>
      </trkpt>
      <trkpt lat="54.18554" lon="15.57638">
        <ele>38.704213</ele>
        <time>2024-07-28T10:00:28.660Z</time>
      </trkpt>
      <trkpt lat="54.18557" lon="15.57671">
        <ele>38.063249</ele>
        <time>2024-07-28T10:00:50.723Z</time>
      </trkpt>
      <trkpt lat="54.18556" lon="15.57688">
        <ele>37.712902</ele>
        <time>2024-07-28T10:00:56.656Z</time>
      </trkpt>
      <trkpt lat="54.18554" lon="15.57705">
        <ele>37.366537</ele>
        <time>2024-07-28T10:01:05.662Z</time>
      </trkpt>
      <trkpt lat="54.18553" lon="15.57723">
        <ele>36.99019</ele>
        <time>2024-07-28T10:01:11.652Z</time>
      </trkpt>
      <trkpt lat="54.18555" lon="15.57739">
        <ele>36.666724</ele>
        <time>2024-07-28T10:01:15.646Z</time>
      </trkpt>
      <trkpt lat="54.18555" lon="15.57755">
        <ele>36.34431</ele>
        <time>2024-07-28T10:01:19.646Z</time>
      </trkpt>
      <trkpt lat="54.18555" lon="15.57775">
        <ele>35.94833</ele>
        <time>2024-07-28T10:01:23.648Z</time>
      </trkpt>
      <trkpt lat="54.18556" lon="15.57791">
        <ele>35.612089</ele>
        <time>2024-07-28T10:01:26.646Z</time>
      </trkpt>
      <trkpt lat="54.18556" lon="15.5781">
        <ele>35.224129</ele>
        <time>2024-07-28T10:01:29.655Z</time>
      </trkpt>
      <trkpt lat="54.18557" lon="15.57831">
        <ele>34.803879</ele>
        <time>2024-07-28T10:01:32.645Z</time>
      </trkpt>
      <trkpt lat="54.18558" lon="15.57854">
        <ele>34.346651</ele>
        <time>2024-07-28T10:01:35.655Z</time>
      </trkpt>
      <trkpt lat="54.18561" lon="15.57876">
        <ele>33.886697</ele>
        <time>2024-07-28T10:01:38.647Z</time>
      </trkpt>
      <trkpt lat="54.18562" lon="15.57892">
        <ele>33.567023</ele>
        <time>2024-07-28T10:01:40.663Z</time>
      </trkpt>
      <trkpt lat="54.18563" lon="15.57914">
        <ele>33.121472</ele>
        <time>2024-07-28T10:01:43.654Z</time>
      </trkpt>
      <trkpt lat="54.18565" lon="15.57933">
        <ele>32.719517</ele>
        <time>2024-07-28T10:01:46.658Z</time>
      </trkpt>
      <trkpt lat="54.18566" lon="15.57954">
        <ele>32.389426</ele>
        <time>2024-07-28T10:01:49.660Z</time>
      </trkpt>
      <trkpt lat="54.18568" lon="15.57975">
        <ele>32.264655</ele>
        <time>2024-07-28T10:01:52.658Z</time>
      </trkpt>
      <trkpt lat="54.1857" lon="15.57997">
        <ele>32.139226</ele>
        <time>2024-07-28T10:01:55.625Z</time>
      </trkpt>
      <trkpt lat="54.18572" lon="15.58019">
        <ele>32.01267</ele>
        <time>2024-07-28T10:01:58.646Z</time>
      </trkpt>
      <trkpt lat="54.18574" lon="15.58037">
        <ele>31.910472</ele>
        <time>2024-07-28T10:02:01.642Z</time>
      </trkpt>
      <trkpt lat="54.18575" lon="15.58055">
        <ele>31.807394</ele>
        <time>2024-07-28T10:02:04.642Z</time>
      </trkpt>
      <trkpt lat="54.18566" lon="15.58072">
        <ele>31.679463</ele>
        <time>2024-07-28T10:02:07.660Z</time>
      </trkpt>
      <trkpt lat="54.18558" lon="15.58086">
        <ele>31.566201</ele>
        <time>2024-07-28T10:02:10.665Z</time>
      </trkpt>
      <trkpt lat="54.18556" lon="15.58104">
        <ele>31.465451</ele>
        <time>2024-07-28T10:02:14.656Z</time>
      </trkpt>
      <trkpt lat="54.18556" lon="15.58119">
        <ele>31.374882</ele>
        <time>2024-07-28T10:02:17.647Z</time>
      </trkpt>
      <trkpt lat="54.18556" lon="15.58139">
        <ele>31.260961</ele>
        <time>2024-07-28T10:02:20.652Z</time>
      </trkpt>
      <trkpt lat="54.18557" lon="15.58159">
        <ele>31.149882</ele>
        <time>2024-07-28T10:02:23.659Z</time>
      </trkpt>
      <trkpt lat="54.18559" lon="15.5818">
        <ele>31.027678</ele>
        <time>2024-07-28T10:02:26.656Z</time>
      </trkpt>
      <trkpt lat="54.18562" lon="15.58201">
        <ele>30.904551</ele>
        <time>2024-07-28T10:02:29.661Z</time>
      </trkpt>
      <trkpt lat="54.18562" lon="15.58221">
        <ele>30.790165</ele>
        <time>2024-07-28T10:02:32.662Z</time>
      </trkpt>
      <trkpt lat="54.18565" lon="15.5824">
        <ele>30.676116</ele>
        <time>2024-07-28T10:02:35.651Z</time>
      </trkpt>
      <trkpt lat="54.18572" lon="15.58256">
        <ele>30.759379</ele>
        <time>2024-07-28T10:02:38.652Z</time>
      </trkpt>
      <trkpt lat="54.18575" lon="15.58276">
        <ele>30.849827</ele>
        <time>2024-07-28T10:02:41.659Z</time>
      </trkpt>
      <trkpt lat="54.18579" lon="15.58297">
        <ele>30.9438</ele>
        <time>2024-07-28T10:02:44.653Z</time>
      </trkpt>
      <trkpt lat="54.18584" lon="15.58312">
        <ele>31.024943</ele>
        <time>2024-07-28T10:02:47.649Z</time>
      </trkpt>
      <trkpt lat="54.18588" lon="15.58329">
        <ele>31.104841</ele>
        <time>2024-07-28T10:02:50.648Z</time>
      </trkpt>
      <trkpt lat="54.18589" lon="15.58349">
        <ele>31.192363</ele>
        <time>2024-07-28T10:02:53.651Z</time>
      </trkpt>
      <trkpt lat="54.1859" lon="15.58368">
        <ele>31.278819</ele>
        <time>2024-07-28T10:02:56.651Z</time>
      </trkpt>
      <trkpt lat="54.18586" lon="15.58385">
        <ele>31.357987</ele>
        <time>2024-07-28T10:02:59.654Z</time>
      </trkpt>
      <trkpt lat="54.1858" lon="15.58399">
        <ele>31.431497</ele>
        <time>2024-07-28T10:03:02.649Z</time>
      </trkpt>
      <trkpt lat="54.18577" lon="15.58414">
        <ele>31.504757</ele>
        <time>2024-07-28T10:03:05.657Z</time>
      </trkpt>
      <trkpt lat="54.18579" lon="15.58434">
        <ele>31.593505</ele>
        <time>2024-07-28T10:03:08.653Z</time>
      </trkpt>
      <trkpt lat="54.18582" lon="15.58453">
        <ele>31.677548</ele>
        <time>2024-07-28T10:03:11.655Z</time>
      </trkpt>
      <trkpt lat="54.18585" lon="15.58474">
        <ele>31.775772</ele>
        <time>2024-07-28T10:03:14.655Z</time>
      </trkpt>
      <trkpt lat="54.18588" lon="15.58495">
        <ele>31.869474</ele>
        <time>2024-07-28T10:03:17.650Z</time>
      </trkpt>
      <trkpt lat="54.18592" lon="15.58515">
        <ele>31.962826</ele>
        <time>2024-07-28T10:03:20.654Z</time>
      </trkpt>
      <trkpt lat="54.18596" lon="15.58535">
        <ele>32.099151</ele>
        <time>2024-07-28T10:03:23.650Z</time>
      </trkpt>
      <trkpt lat="54.18601" lon="15.58557">
        <ele>32.355935</ele>
        <time>2024-07-28T10:03:26.669Z</time>
      </trkpt>
      <trkpt lat="54.18605" lon="15.58576">
        <ele>32.58684</ele>
        <time>2024-07-28T10:03:29.656Z</time>
      </trkpt>
      <trkpt lat="54.18609" lon="15.58596">
        <ele>32.816097</ele>
        <time>2024-07-28T10:03:32.660Z</time>
      </trkpt>
      <trkpt lat="54.18611" lon="15.58611">
        <ele>32.989445</ele>
        <time>2024-07-28T10:03:34.655Z</time>
      </trkpt>
      <trkpt lat="54.18614" lon="15.58633">
        <ele>33.233797</ele>
        <time>2024-07-28T10:03:37.656Z</time>
      </trkpt>
      <trkpt lat="54.18617" lon="15.58655">
        <ele>33.487565</ele>
        <time>2024-07-28T10:03:40.665Z</time>
      </trkpt>
      <trkpt lat="54.18619" lon="15.58671">
        <ele>33.671661</ele>
        <time>2024-07-28T10:03:42.658Z</time>
      </trkpt>
      <trkpt lat="54.18622" lon="15.58689">
        <ele>33.871724</ele>
        <time>2024-07-28T10:03:44.648Z</time>
      </trkpt>
      <trkpt lat="54.18623" lon="15.58704">
        <ele>34.042477</ele>
        <time>2024-07-28T10:03:46.651Z</time>
      </trkpt>
      <trkpt lat="54.18626" lon="15.58719">
        <ele>34.222224</ele>
        <time>2024-07-28T10:03:48.656Z</time>
      </trkpt>
      <trkpt lat="54.18629" lon="15.58742">
        <ele>34.48355</ele>
        <time>2024-07-28T10:03:51.658Z</time>
      </trkpt>
      <trkpt lat="54.18632" lon="15.58764">
        <ele>34.726306</ele>
        <time>2024-07-28T10:03:54.649Z</time>
      </trkpt>
      <trkpt lat="54.18636" lon="15.58778">
        <ele>34.899819</ele>
        <time>2024-07-28T10:03:56.650Z</time>
      </trkpt>
      <trkpt lat="54.18639" lon="15.588">
        <ele>35.147784</ele>
        <time>2024-07-28T10:03:59.652Z</time>
      </trkpt>
      <trkpt lat="54.18642" lon="15.58821">
        <ele>35.386233</ele>
        <time>2024-07-28T10:04:02.653Z</time>
      </trkpt>
      <trkpt lat="54.18646" lon="15.58842">
        <ele>35.553731</ele>
        <time>2024-07-28T10:04:05.646Z</time>
      </trkpt>
      <trkpt lat="54.18649" lon="15.58862">
        <ele>35.692202</ele>
        <time>2024-07-28T10:04:08.657Z</time>
      </trkpt>
      <trkpt lat="54.18652" lon="15.58883">
        <ele>35.830325</ele>
        <time>2024-07-28T10:04:11.648Z</time>
      </trkpt>
      <trkpt lat="54.18655" lon="15.58903">
        <ele>35.969657</ele>
        <time>2024-07-28T10:04:14.659Z</time>
      </trkpt>
      <trkpt lat="54.18658" lon="15.58919">
        <ele>36.077662</ele>
        <time>2024-07-28T10:04:16.646Z</time>
      </trkpt>
      <trkpt lat="54.18661" lon="15.5894">
        <ele>36.22309</ele>
        <time>2024-07-28T10:04:19.645Z</time>
      </trkpt>
      <trkpt lat="54.18664" lon="15.58962">
        <ele>36.370899</ele>
        <time>2024-07-28T10:04:22.659Z</time>
      </trkpt>
      <trkpt lat="54.18667" lon="15.58979">
        <ele>36.486524</ele>
        <time>2024-07-28T10:04:24.646Z</time>
      </trkpt>
      <trkpt lat="54.18669" lon="15.58996">
        <ele>36.601199</ele>
        <time>2024-07-28T10:04:26.645Z</time>
      </trkpt>
      <trkpt lat="54.18671" lon="15.59012">
        <ele>36.713149</ele>
        <time>2024-07-28T10:04:28.655Z</time>
      </trkpt>
      <trkpt lat="54.18673" lon="15.59029">
        <ele>36.825099</ele>
        <time>2024-07-28T10:04:30.655Z</time>
      </trkpt>
      <trkpt lat="54.18676" lon="15.59044">
        <ele>36.928048</ele>
        <time>2024-07-28T10:04:32.654Z</time>
      </trkpt>
      <trkpt lat="54.18679" lon="15.59059">
        <ele>37.036291</ele>
        <time>2024-07-28T10:04:34.655Z</time>
      </trkpt>
      <trkpt lat="54.18682" lon="15.59075">
        <ele>37.147162</ele>
        <time>2024-07-28T10:04:36.648Z</time>
      </trkpt>
      <trkpt lat="54.18684" lon="15.59092">
        <ele>37.258212</ele>
        <time>2024-07-28T10:04:38.640Z</time>
      </trkpt>
      <trkpt lat="54.18687" lon="15.59108">
        <ele>37.369103</ele>
        <time>2024-07-28T10:04:40.662Z</time>
      </trkpt>
      <trkpt lat="54.18691" lon="15.59123">
        <ele>37.475578</ele>
        <time>2024-07-28T10:04:42.649Z</time>
      </trkpt>
      <trkpt lat="54.18695" lon="15.59138">
        <ele>37.582448</ele>
        <time>2024-07-28T10:04:44.661Z</time>
      </trkpt>
      <trkpt lat="54.187" lon="15.59153">
        <ele>37.690241</ele>
        <time>2024-07-28T10:04:46.655Z</time>
      </trkpt>
      <trkpt lat="54.18705" lon="15.59168">
        <ele>37.797604</ele>
        <time>2024-07-28T10:04:48.657Z</time>
      </trkpt>
      <trkpt lat="54.18709" lon="15.59183">
        <ele>37.90705</ele>
        <time>2024-07-28T10:04:50.653Z</time>
      </trkpt>
      <trkpt lat="54.18714" lon="15.59197">
        <ele>38.009412</ele>
        <time>2024-07-28T10:04:52.662Z</time>
      </trkpt>
      <trkpt lat="54.1872" lon="15.59211">
        <ele>38.116974</ele>
        <time>2024-07-28T10:04:54.661Z</time>
      </trkpt>
      <trkpt lat="54.18725" lon="15.59227">
        <ele>38.230865</ele>
        <time>2024-07-28T10:04:56.647Z</time>
      </trkpt>
      <trkpt lat="54.18729" lon="15.59243">
        <ele>38.33873</ele>
        <time>2024-07-28T10:04:58.644Z</time>
      </trkpt>
      <trkpt lat="54.18735" lon="15.59256">
        <ele>38.44134</ele>
        <time>2024-07-28T10:05:00.642Z</time>
      </trkpt>
      <trkpt lat="54.18739" lon="15.5927">
        <ele>38.541203</ele>
        <time>2024-07-28T10:05:02.651Z</time>
      </trkpt>
      <trkpt lat="54.18744" lon="15.59292">
        <ele>38.691425</ele>
        <time>2024-07-28T10:05:05.648Z</time>
      </trkpt>
      <trkpt lat="54.18749" lon="15.59309">
        <ele>38.806591</ele>
        <time>2024-07-28T10:05:07.650Z</time>
      </trkpt>
      <trkpt lat="54.18752" lon="15.59324">
        <ele>38.912393</ele>
        <time>2024-07-28T10:05:09.650Z</time>
      </trkpt>
      <trkpt lat="54.18755" lon="15.59341">
        <ele>39.019233</ele>
        <time>2024-07-28T10:05:11.646Z</time>
      </trkpt>
      <trkpt lat="54.18758" lon="15.59357">
        <ele>39.129457</ele>
        <time>2024-07-28T10:05:13.653Z</time>
      </trkpt>
      <trkpt lat="54.18761" lon="15.59375">
        <ele>39.244811</ele>
        <time>2024-07-28T10:05:15.655Z</time>
      </trkpt>
      <trkpt lat="54.18764" lon="15.59391">
        <ele>39.354982</ele>
        <time>2024-07-28T10:05:17.639Z</time>
      </trkpt>
      <trkpt lat="54.18768" lon="15.59406">
        <ele>39.440666</ele>
        <time>2024-07-28T10:05:19.642Z</time>
      </trkpt>
      <trkpt lat="54.18771" lon="15.59422">
        <ele>39.517747</ele>
        <time>2024-07-28T10:05:21.651Z</time>
      </trkpt>
      <trkpt lat="54.18775" lon="15.59438">
        <ele>39.59312</ele>
        <time>2024-07-28T10:05:23.656Z</time>
      </trkpt>
      <trkpt lat="54.18778" lon="15.59453">
        <ele>39.668519</ele>
        <time>2024-07-28T10:05:25.662Z</time>
      </trkpt>
      <trkpt lat="54.18781" lon="15.59468">
        <ele>39.739667</ele>
        <time>2024-07-28T10:05:27.653Z</time>
      </trkpt>
      <trkpt lat="54.18784" lon="15.59483">
        <ele>39.81151</ele>
        <time>2024-07-28T10:05:29.660Z</time>
      </trkpt>
      <trkpt lat="54.18787" lon="15.59497">
        <ele>39.882776</ele>
        <time>2024-07-28T10:05:31.653Z</time>
      </trkpt>
      <trkpt lat="54.1879" lon="15.59513">
        <ele>39.956597</ele>
        <time>2024-07-28T10:05:33.661Z</time>
      </trkpt>
      <trkpt lat="54.18795" lon="15.59528">
        <ele>40.033062</ele>
        <time>2024-07-28T10:05:35.653Z</time>
      </trkpt>
      <trkpt lat="54.18798" lon="15.59543">
        <ele>40.10438</ele>
        <time>2024-07-28T10:05:37.656Z</time>
      </trkpt>
      <trkpt lat="54.18802" lon="15.59558">
        <ele>40.182767</ele>
        <time>2024-07-28T10:05:39.654Z</time>
      </trkpt>
      <trkpt lat="54.18805" lon="15.59574">
        <ele>40.256863</ele>
        <time>2024-07-28T10:05:41.655Z</time>
      </trkpt>
      <trkpt lat="54.18807" lon="15.5959">
        <ele>40.331526</ele>
        <time>2024-07-28T10:05:43.663Z</time>
      </trkpt>
      <trkpt lat="54.1881" lon="15.59605">
        <ele>40.403217</ele>
        <time>2024-07-28T10:05:45.651Z</time>
      </trkpt>
      <trkpt lat="54.18812" lon="15.59621">
        <ele>40.482098</ele>
        <time>2024-07-28T10:05:47.655Z</time>
      </trkpt>
      <trkpt lat="54.18815" lon="15.59638">
        <ele>40.559034</ele>
        <time>2024-07-28T10:05:49.651Z</time>
      </trkpt>
      <trkpt lat="54.18819" lon="15.59654">
        <ele>40.640497</ele>
        <time>2024-07-28T10:05:51.655Z</time>
      </trkpt>
      <trkpt lat="54.18823" lon="15.59671">
        <ele>40.71968</ele>
        <time>2024-07-28T10:05:53.650Z</time>
      </trkpt>
      <trkpt lat="54.18827" lon="15.59686">
        <ele>40.800036</ele>
        <time>2024-07-28T10:05:55.639Z</time>
      </trkpt>
      <trkpt lat="54.18832" lon="15.59702">
        <ele>40.846614</ele>
        <time>2024-07-28T10:05:57.636Z</time>
      </trkpt>
      <trkpt lat="54.18835" lon="15.59719">
        <ele>40.892913</ele>
        <time>2024-07-28T10:05:59.655Z</time>
      </trkpt>
      <trkpt lat="54.18839" lon="15.59735">
        <ele>40.93835</ele>
        <time>2024-07-28T10:06:01.655Z</time>
      </trkpt>
      <trkpt lat="54.18842" lon="15.59752">
        <ele>40.985014</ele>
        <time>2024-07-28T10:06:03.645Z</time>
      </trkpt>
      <trkpt lat="54.18845" lon="15.59769">
        <ele>41.029388</ele>
        <time>2024-07-28T10:06:05.650Z</time>
      </trkpt>
      <trkpt lat="54.18848" lon="15.59784">
        <ele>41.070778</ele>
        <time>2024-07-28T10:06:07.656Z</time>
      </trkpt>
      <trkpt lat="54.1885" lon="15.59805">
        <ele>41.126271</ele>
        <time>2024-07-28T10:06:10.657Z</time>
      </trkpt>
      <trkpt lat="54.18853" lon="15.59823">
        <ele>41.17353</ele>
        <time>2024-07-28T10:06:12.638Z</time>
      </trkpt>
      <trkpt lat="54.18855" lon="15.59839">
        <ele>41.217187</ele>
        <time>2024-07-28T10:06:14.639Z</time>
      </trkpt>
      <trkpt lat="54.18859" lon="15.59855">
        <ele>41.261157</ele>
        <time>2024-07-28T10:06:16.641Z</time>
      </trkpt>
      <trkpt lat="54.18862" lon="15.59872">
        <ele>41.308849</ele>
        <time>2024-07-28T10:06:18.645Z</time>
      </trkpt>
      <trkpt lat="54.18865" lon="15.59888">
        <ele>41.351747</ele>
        <time>2024-07-28T10:06:20.656Z</time>
      </trkpt>
      <trkpt lat="54.18868" lon="15.59905">
        <ele>41.396773</ele>
        <time>2024-07-28T10:06:22.653Z</time>
      </trkpt>
      <trkpt lat="54.18869" lon="15.59923">
        <ele>41.444459</ele>
        <time>2024-07-28T10:06:24.645Z</time>
      </trkpt>
      <trkpt lat="54.18873" lon="15.59941">
        <ele>41.494942</ele>
        <time>2024-07-28T10:06:26.670Z</time>
      </trkpt>
      <trkpt lat="54.18876" lon="15.5996">
        <ele>41.544176</ele>
        <time>2024-07-28T10:06:28.643Z</time>
      </trkpt>
      <trkpt lat="54.1888" lon="15.59975">
        <ele>41.588029</ele>
        <time>2024-07-28T10:06:30.680Z</time>
      </trkpt>
      <trkpt lat="54.18884" lon="15.5999">
        <ele>41.513869</ele>
        <time>2024-07-28T10:06:32.656Z</time>
      </trkpt>
      <trkpt lat="54.18888" lon="15.60005">
        <ele>41.401763</ele>
        <time>2024-07-28T10:06:34.636Z</time>
      </trkpt>
      <trkpt lat="54.18891" lon="15.60022">
        <ele>41.272336</ele>
        <time>2024-07-28T10:06:36.652Z</time>
      </trkpt>
      <trkpt lat="54.18895" lon="15.60038">
        <ele>41.142065</ele>
        <time>2024-07-28T10:06:38.672Z</time>
      </trkpt>
      <trkpt lat="54.18899" lon="15.60055">
        <ele>41.012646</ele>
        <time>2024-07-28T10:06:40.653Z</time>
      </trkpt>
      <trkpt lat="54.18902" lon="15.60072">
        <ele>40.885259</ele>
        <time>2024-07-28T10:06:42.666Z</time>
      </trkpt>
      <trkpt lat="54.18906" lon="15.60088">
        <ele>40.758585</ele>
        <time>2024-07-28T10:06:44.653Z</time>
      </trkpt>
      <trkpt lat="54.18909" lon="15.60104">
        <ele>40.636599</ele>
        <time>2024-07-28T10:06:46.634Z</time>
      </trkpt>
      <trkpt lat="54.18912" lon="15.60119">
        <ele>40.518341</ele>
        <time>2024-07-28T10:06:48.656Z</time>
      </trkpt>
      <trkpt lat="54.18916" lon="15.60135">
        <ele>40.397481</ele>
        <time>2024-07-28T10:06:50.648Z</time>
      </trkpt>
      <trkpt lat="54.18919" lon="15.60151">
        <ele>40.275495</ele>
        <time>2024-07-28T10:06:52.651Z</time>
      </trkpt>
      <trkpt lat="54.18922" lon="15.60167">
        <ele>40.155572</ele>
        <time>2024-07-28T10:06:54.656Z</time>
      </trkpt>
      <trkpt lat="54.18924" lon="15.60184">
        <ele>40.032522</ele>
        <time>2024-07-28T10:06:56.657Z</time>
      </trkpt>
      <trkpt lat="54.18926" lon="15.602">
        <ele>39.90753</ele>
        <time>2024-07-28T10:06:58.648Z</time>
      </trkpt>
      <trkpt lat="54.18929" lon="15.60217">
        <ele>39.78277</ele>
        <time>2024-07-28T10:07:00.651Z</time>
      </trkpt>
      <trkpt lat="54.18932" lon="15.60233">
        <ele>39.662887</ele>
        <time>2024-07-28T10:07:02.655Z</time>
      </trkpt>
      <trkpt lat="54.18935" lon="15.6025">
        <ele>39.538078</ele>
        <time>2024-07-28T10:07:04.656Z</time>
      </trkpt>
      <trkpt lat="54.18938" lon="15.60266">
        <ele>39.411183</ele>
        <time>2024-07-28T10:07:06.651Z</time>
      </trkpt>
      <trkpt lat="54.18942" lon="15.60283">
        <ele>39.503079</ele>
        <time>2024-07-28T10:07:08.653Z</time>
      </trkpt>
      <trkpt lat="54.18945" lon="15.60299">
        <ele>39.649214</ele>
        <time>2024-07-28T10:07:10.652Z</time>
      </trkpt>
      <trkpt lat="54.18948" lon="15.60316">
        <ele>39.795598</ele>
        <time>2024-07-28T10:07:12.653Z</time>
      </trkpt>
      <trkpt lat="54.18951" lon="15.60332">
        <ele>39.938706</ele>
        <time>2024-07-28T10:07:14.656Z</time>
      </trkpt>
      <trkpt lat="54.18955" lon="15.60349">
        <ele>40.095333</ele>
        <time>2024-07-28T10:07:16.648Z</time>
      </trkpt>
      <trkpt lat="54.18958" lon="15.60365">
        <ele>40.23665</ele>
        <time>2024-07-28T10:07:18.664Z</time>
      </trkpt>
      <trkpt lat="54.18961" lon="15.60381">
        <ele>40.375655</ele>
        <time>2024-07-28T10:07:20.658Z</time>
      </trkpt>
      <trkpt lat="54.18965" lon="15.60397">
        <ele>40.52489</ele>
        <time>2024-07-28T10:07:22.646Z</time>
      </trkpt>
      <trkpt lat="54.18968" lon="15.60414">
        <ele>40.676159</ele>
        <time>2024-07-28T10:07:24.649Z</time>
      </trkpt>
      <trkpt lat="54.18971" lon="15.60431">
        <ele>40.833606</ele>
        <time>2024-07-28T10:07:26.643Z</time>
      </trkpt>
      <trkpt lat="54.18975" lon="15.60449">
        <ele>40.990524</ele>
        <time>2024-07-28T10:07:28.651Z</time>
      </trkpt>
      <trkpt lat="54.18978" lon="15.60466">
        <ele>41.147511</ele>
        <time>2024-07-28T10:07:30.648Z</time>
      </trkpt>
      <trkpt lat="54.18981" lon="15.60484">
        <ele>41.31183</ele>
        <time>2024-07-28T10:07:32.652Z</time>
      </trkpt>
      <trkpt lat="54.18985" lon="15.60502">
        <ele>41.466844</ele>
        <time>2024-07-28T10:07:34.655Z</time>
      </trkpt>
      <trkpt lat="54.18988" lon="15.60518">
        <ele>41.617964</ele>
        <time>2024-07-28T10:07:36.646Z</time>
      </trkpt>
      <trkpt lat="54.18992" lon="15.60535">
        <ele>41.770091</ele>
        <time>2024-07-28T10:07:38.649Z</time>
      </trkpt>
      <trkpt lat="54.18995" lon="15.60552">
        <ele>41.919447</ele>
        <time>2024-07-28T10:07:40.656Z</time>
      </trkpt>
      <trkpt lat="54.18997" lon="15.6057">
        <ele>41.966778</ele>
        <time>2024-07-28T10:07:42.643Z</time>
      </trkpt>
      <trkpt lat="54.19" lon="15.60586">
        <ele>41.899879</ele>
        <time>2024-07-28T10:07:44.645Z</time>
      </trkpt>
      <trkpt lat="54.19002" lon="15.60603">
        <ele>41.832931</ele>
        <time>2024-07-28T10:07:46.671Z</time>
      </trkpt>
      <trkpt lat="54.19006" lon="15.6062">
        <ele>41.76354</ele>
        <time>2024-07-28T10:07:48.652Z</time>
      </trkpt>
      <trkpt lat="54.19011" lon="15.60635">
        <ele>41.697989</ele>
        <time>2024-07-28T10:07:50.654Z</time>
      </trkpt>
      <trkpt lat="54.19014" lon="15.6065">
        <ele>41.633493</ele>
        <time>2024-07-28T10:07:52.652Z</time>
      </trkpt>
      <trkpt lat="54.19018" lon="15.60665">
        <ele>41.569619</ele>
        <time>2024-07-28T10:07:54.666Z</time>
      </trkpt>
      <trkpt lat="54.19022" lon="15.60681">
        <ele>41.503433</ele>
        <time>2024-07-28T10:07:56.654Z</time>
      </trkpt>
      <trkpt lat="54.19026" lon="15.60697">
        <ele>41.436332</ele>
        <time>2024-07-28T10:07:58.657Z</time>
      </trkpt>
      <trkpt lat="54.1903" lon="15.60713">
        <ele>41.368187</ele>
        <time>2024-07-28T10:08:00.648Z</time>
      </trkpt>
      <trkpt lat="54.19034" lon="15.60729">
        <ele>41.301162</ele>
        <time>2024-07-28T10:08:02.640Z</time>
      </trkpt>
      <trkpt lat="54.19037" lon="15.60745">
        <ele>41.234549</ele>
        <time>2024-07-28T10:08:04.648Z</time>
      </trkpt>
      <trkpt lat="54.19041" lon="15.60761">
        <ele>41.166119</ele>
        <time>2024-07-28T10:08:06.652Z</time>
      </trkpt>
      <trkpt lat="54.19044" lon="15.60778">
        <ele>41.096728</ele>
        <time>2024-07-28T10:08:08.651Z</time>
      </trkpt>
      <trkpt lat="54.19047" lon="15.60795">
        <ele>41.027918</ele>
        <time>2024-07-28T10:08:10.646Z</time>
      </trkpt>
      <trkpt lat="54.1905" lon="15.60811">
        <ele>40.963571</ele>
        <time>2024-07-28T10:08:12.647Z</time>
      </trkpt>
      <trkpt lat="54.19054" lon="15.60826">
        <ele>40.900699</ele>
        <time>2024-07-28T10:08:14.651Z</time>
      </trkpt>
      <trkpt lat="54.19057" lon="15.60841">
        <ele>40.838204</ele>
        <time>2024-07-28T10:08:16.653Z</time>
      </trkpt>
      <trkpt lat="54.1906" lon="15.60857">
        <ele>40.779216</ele>
        <time>2024-07-28T10:08:18.652Z</time>
      </trkpt>
      <trkpt lat="54.19063" lon="15.60873">
        <ele>40.728243</ele>
        <time>2024-07-28T10:08:20.653Z</time>
      </trkpt>
      <trkpt lat="54.19066" lon="15.6089">
        <ele>40.675288</ele>
        <time>2024-07-28T10:08:22.666Z</time>
      </trkpt>
      <trkpt lat="54.19067" lon="15.60905">
        <ele>40.628557</ele>
        <time>2024-07-28T10:08:24.654Z</time>
      </trkpt>
      <trkpt lat="54.19063" lon="15.60925">
        <ele>40.562564</ele>
        <time>2024-07-28T10:08:27.661Z</time>
      </trkpt>
      <trkpt lat="54.1906" lon="15.6094">
        <ele>40.515194</ele>
        <time>2024-07-28T10:08:29.641Z</time>
      </trkpt>
      <trkpt lat="54.19057" lon="15.60955">
        <ele>40.46811</ele>
        <time>2024-07-28T10:08:31.648Z</time>
      </trkpt>
      <trkpt lat="54.19053" lon="15.6097">
        <ele>40.417273</ele>
        <time>2024-07-28T10:08:33.646Z</time>
      </trkpt>
      <trkpt lat="54.1905" lon="15.60986">
        <ele>40.3681</ele>
        <time>2024-07-28T10:08:35.647Z</time>
      </trkpt>
      <trkpt lat="54.19049" lon="15.61002">
        <ele>40.319789</ele>
        <time>2024-07-28T10:08:37.649Z</time>
      </trkpt>
      <trkpt lat="54.19053" lon="15.61023">
        <ele>40.251528</ele>
        <time>2024-07-28T10:08:40.662Z</time>
      </trkpt>
      <trkpt lat="54.19059" lon="15.61035">
        <ele>40.203546</ele>
        <time>2024-07-28T10:08:42.650Z</time>
      </trkpt>
      <trkpt lat="54.19066" lon="15.61047">
        <ele>40.152465</ele>
        <time>2024-07-28T10:08:44.648Z</time>
      </trkpt>
      <trkpt lat="54.19074" lon="15.61058">
        <ele>40.098366</ele>
        <time>2024-07-28T10:08:46.648Z</time>
      </trkpt>
      <trkpt lat="54.19083" lon="15.61067">
        <ele>40.046777</ele>
        <time>2024-07-28T10:08:48.657Z</time>
      </trkpt>
      <trkpt lat="54.19092" lon="15.61072">
        <ele>39.995983</ele>
        <time>2024-07-28T10:08:50.642Z</time>
      </trkpt>
      <trkpt lat="54.19101" lon="15.61077">
        <ele>39.948391</ele>
        <time>2024-07-28T10:08:52.637Z</time>
      </trkpt>
      <trkpt lat="54.1911" lon="15.61091">
        <ele>39.886148</ele>
        <time>2024-07-28T10:08:55.658Z</time>
      </trkpt>
      <trkpt lat="54.19114" lon="15.6111">
        <ele>39.851428</ele>
        <time>2024-07-28T10:08:58.654Z</time>
      </trkpt>
      <trkpt lat="54.19117" lon="15.61132">
        <ele>39.821076</ele>
        <time>2024-07-28T10:09:01.647Z</time>
      </trkpt>
      <trkpt lat="54.19121" lon="15.61148">
        <ele>39.798908</ele>
        <time>2024-07-28T10:09:03.647Z</time>
      </trkpt>
      <trkpt lat="54.19123" lon="15.61164">
        <ele>39.776555</ele>
        <time>2024-07-28T10:09:05.648Z</time>
      </trkpt>
      <trkpt lat="54.19125" lon="15.61181">
        <ele>39.753585</ele>
        <time>2024-07-28T10:09:07.648Z</time>
      </trkpt>
      <trkpt lat="54.19127" lon="15.61198">
        <ele>39.730744</ele>
        <time>2024-07-28T10:09:09.647Z</time>
      </trkpt>
      <trkpt lat="54.19129" lon="15.61215">
        <ele>39.707562</ele>
        <time>2024-07-28T10:09:11.651Z</time>
      </trkpt>
      <trkpt lat="54.19131" lon="15.61232">
        <ele>39.684491</ele>
        <time>2024-07-28T10:09:13.651Z</time>
      </trkpt>
      <trkpt lat="54.19132" lon="15.61249">
        <ele>39.661742</ele>
        <time>2024-07-28T10:09:15.652Z</time>
      </trkpt>
      <trkpt lat="54.19135" lon="15.61265">
        <ele>39.638927</ele>
        <time>2024-07-28T10:09:17.648Z</time>
      </trkpt>
      <trkpt lat="54.19138" lon="15.61282">
        <ele>39.615384</ele>
        <time>2024-07-28T10:09:19.653Z</time>
      </trkpt>
      <trkpt lat="54.19143" lon="15.61298">
        <ele>39.591674</ele>
        <time>2024-07-28T10:09:21.648Z</time>
      </trkpt>
      <trkpt lat="54.19148" lon="15.61312">
        <ele>39.57013</ele>
        <time>2024-07-28T10:09:23.645Z</time>
      </trkpt>
      <trkpt lat="54.19152" lon="15.61332">
        <ele>39.540628</ele>
        <time>2024-07-28T10:09:26.647Z</time>
      </trkpt>
      <trkpt lat="54.19156" lon="15.61354">
        <ele>39.510654</ele>
        <time>2024-07-28T10:09:29.649Z</time>
      </trkpt>
      <trkpt lat="54.19158" lon="15.61377">
        <ele>39.479331</ele>
        <time>2024-07-28T10:09:32.657Z</time>
      </trkpt>
      <trkpt lat="54.1916" lon="15.61392">
        <ele>39.453818</ele>
        <time>2024-07-28T10:09:34.654Z</time>
      </trkpt>
      <trkpt lat="54.19164" lon="15.61413">
        <ele>39.394826</ele>
        <time>2024-07-28T10:09:37.653Z</time>
      </trkpt>
      <trkpt lat="54.19167" lon="15.61429">
        <ele>39.351614</ele>
        <time>2024-07-28T10:09:39.654Z</time>
      </trkpt>
      <trkpt lat="54.19169" lon="15.61451">
        <ele>39.291822</ele>
        <time>2024-07-28T10:09:42.657Z</time>
      </trkpt>
      <trkpt lat="54.1917" lon="15.61467">
        <ele>39.250013</ele>
        <time>2024-07-28T10:09:44.650Z</time>
      </trkpt>
      <trkpt lat="54.19172" lon="15.61489">
        <ele>39.1887</ele>
        <time>2024-07-28T10:09:47.648Z</time>
      </trkpt>
      <trkpt lat="54.19174" lon="15.61505">
        <ele>39.146772</ele>
        <time>2024-07-28T10:09:49.645Z</time>
      </trkpt>
      <trkpt lat="54.19177" lon="15.6152">
        <ele>39.104244</ele>
        <time>2024-07-28T10:09:51.649Z</time>
      </trkpt>
      <trkpt lat="54.19179" lon="15.61536">
        <ele>39.061512</ele>
        <time>2024-07-28T10:09:53.646Z</time>
      </trkpt>
      <trkpt lat="54.19181" lon="15.61553">
        <ele>39.016032</ele>
        <time>2024-07-28T10:09:55.654Z</time>
      </trkpt>
      <trkpt lat="54.19183" lon="15.61571">
        <ele>38.967419</ele>
        <time>2024-07-28T10:09:57.652Z</time>
      </trkpt>
      <trkpt lat="54.19185" lon="15.61588">
        <ele>38.91944</ele>
        <time>2024-07-28T10:09:59.645Z</time>
      </trkpt>
      <trkpt lat="54.19187" lon="15.61605">
        <ele>38.873403</ele>
        <time>2024-07-28T10:10:01.652Z</time>
      </trkpt>
      <trkpt lat="54.19189" lon="15.61622">
        <ele>38.827589</ele>
        <time>2024-07-28T10:10:03.651Z</time>
      </trkpt>
      <trkpt lat="54.19191" lon="15.61641">
        <ele>38.778537</ele>
        <time>2024-07-28T10:10:05.647Z</time>
      </trkpt>
      <trkpt lat="54.19193" lon="15.61659">
        <ele>38.728518</ele>
        <time>2024-07-28T10:10:07.654Z</time>
      </trkpt>
      <trkpt lat="54.19195" lon="15.6168">
        <ele>38.672006</ele>
        <time>2024-07-28T10:10:09.644Z</time>
      </trkpt>
      <trkpt lat="54.19198" lon="15.61701">
        <ele>38.564411</ele>
        <time>2024-07-28T10:10:11.641Z</time>
      </trkpt>
      <trkpt lat="54.192" lon="15.61722">
        <ele>38.418549</ele>
        <time>2024-07-28T10:10:13.638Z</time>
      </trkpt>
      <trkpt lat="54.19203" lon="15.61745">
        <ele>38.259932</ele>
        <time>2024-07-28T10:10:15.649Z</time>
      </trkpt>
      <trkpt lat="54.19207" lon="15.61767">
        <ele>38.104859</ele>
        <time>2024-07-28T10:10:17.648Z</time>
      </trkpt>
      <trkpt lat="54.1921" lon="15.61788">
        <ele>37.96022</ele>
        <time>2024-07-28T10:10:19.656Z</time>
      </trkpt>
      <trkpt lat="54.19213" lon="15.61809">
        <ele>37.814756</ele>
        <time>2024-07-28T10:10:21.649Z</time>
      </trkpt>
      <trkpt lat="54.19216" lon="15.61828">
        <ele>37.679829</ele>
        <time>2024-07-28T10:10:23.647Z</time>
      </trkpt>
      <trkpt lat="54.19219" lon="15.61849">
        <ele>37.53649</ele>
        <time>2024-07-28T10:10:25.651Z</time>
      </trkpt>
      <trkpt lat="54.19222" lon="15.61868">
        <ele>37.405706</ele>
        <time>2024-07-28T10:10:27.653Z</time>
      </trkpt>
      <trkpt lat="54.19224" lon="15.61886">
        <ele>37.276883</ele>
        <time>2024-07-28T10:10:29.649Z</time>
      </trkpt>
      <trkpt lat="54.19226" lon="15.61904">
        <ele>37.15862</ele>
        <time>2024-07-28T10:10:31.654Z</time>
      </trkpt>
      <trkpt lat="54.19229" lon="15.61921">
        <ele>37.040162</ele>
        <time>2024-07-28T10:10:33.653Z</time>
      </trkpt>
      <trkpt lat="54.19231" lon="15.61938">
        <ele>36.922921</ele>
        <time>2024-07-28T10:10:35.659Z</time>
      </trkpt>
      <trkpt lat="54.19233" lon="15.61954">
        <ele>36.810637</ele>
        <time>2024-07-28T10:10:37.650Z</time>
      </trkpt>
      <trkpt lat="54.19235" lon="15.61971">
        <ele>36.695234</ele>
        <time>2024-07-28T10:10:39.652Z</time>
      </trkpt>
      <trkpt lat="54.19238" lon="15.61989">
        <ele>36.573735</ele>
        <time>2024-07-28T10:10:41.647Z</time>
      </trkpt>
      <trkpt lat="54.1924" lon="15.62007">
        <ele>36.532948</ele>
        <time>2024-07-28T10:10:43.652Z</time>
      </trkpt>
      <trkpt lat="54.19244" lon="15.62023">
        <ele>36.494776</ele>
        <time>2024-07-28T10:10:45.649Z</time>
      </trkpt>
      <trkpt lat="54.19249" lon="15.62038">
        <ele>36.45696</ele>
        <time>2024-07-28T10:10:47.650Z</time>
      </trkpt>
      <trkpt lat="54.19254" lon="15.62053">
        <ele>36.418616</ele>
        <time>2024-07-28T10:10:49.652Z</time>
      </trkpt>
      <trkpt lat="54.19259" lon="15.62068">
        <ele>36.379778</ele>
        <time>2024-07-28T10:10:51.656Z</time>
      </trkpt>
      <trkpt lat="54.19263" lon="15.62083">
        <ele>36.343986</ele>
        <time>2024-07-28T10:10:53.659Z</time>
      </trkpt>
      <trkpt lat="54.19265" lon="15.621">
        <ele>36.306902</ele>
        <time>2024-07-28T10:10:55.648Z</time>
      </trkpt>
      <trkpt lat="54.19268" lon="15.62117">
        <ele>36.267788</ele>
        <time>2024-07-28T10:10:57.650Z</time>
      </trkpt>
      <trkpt lat="54.19271" lon="15.62134">
        <ele>36.228381</ele>
        <time>2024-07-28T10:10:59.657Z</time>
      </trkpt>
      <trkpt lat="54.19273" lon="15.62152">
        <ele>36.187511</ele>
        <time>2024-07-28T10:11:01.658Z</time>
      </trkpt>
      <trkpt lat="54.19276" lon="15.6217">
        <ele>36.148306</ele>
        <time>2024-07-28T10:11:03.649Z</time>
      </trkpt>
      <trkpt lat="54.1928" lon="15.62191">
        <ele>36.099852</ele>
        <time>2024-07-28T10:11:06.641Z</time>
      </trkpt>
      <trkpt lat="54.19283" lon="15.6221">
        <ele>36.056139</ele>
        <time>2024-07-28T10:11:09.651Z</time>
      </trkpt>
      <trkpt lat="54.19287" lon="15.6223">
        <ele>36.009032</ele>
        <time>2024-07-28T10:11:12.647Z</time>
      </trkpt>
      <trkpt lat="54.19289" lon="15.62246">
        <ele>35.974061</ele>
        <time>2024-07-28T10:11:14.654Z</time>
      </trkpt>
      <trkpt lat="54.19292" lon="15.62262">
        <ele>35.935926</ele>
        <time>2024-07-28T10:11:16.648Z</time>
      </trkpt>
      <trkpt lat="54.19295" lon="15.6228">
        <ele>35.909039</ele>
        <time>2024-07-28T10:11:18.653Z</time>
      </trkpt>
      <trkpt lat="54.19298" lon="15.62296">
        <ele>35.97379</ele>
        <time>2024-07-28T10:11:20.654Z</time>
      </trkpt>
      <trkpt lat="54.19301" lon="15.62318">
        <ele>36.064728</ele>
        <time>2024-07-28T10:11:23.660Z</time>
      </trkpt>
      <trkpt lat="54.19304" lon="15.62334">
        <ele>36.129951</ele>
        <time>2024-07-28T10:11:25.651Z</time>
      </trkpt>
      <trkpt lat="54.19306" lon="15.62352">
        <ele>36.202646</ele>
        <time>2024-07-28T10:11:27.653Z</time>
      </trkpt>
      <trkpt lat="54.1931" lon="15.6237">
        <ele>36.278119</ele>
        <time>2024-07-28T10:11:29.650Z</time>
      </trkpt>
      <trkpt lat="54.19312" lon="15.62387">
        <ele>36.348704</ele>
        <time>2024-07-28T10:11:31.655Z</time>
      </trkpt>
      <trkpt lat="54.19315" lon="15.62405">
        <ele>36.421586</ele>
        <time>2024-07-28T10:11:33.653Z</time>
      </trkpt>
      <trkpt lat="54.19317" lon="15.62422">
        <ele>36.489649</ele>
        <time>2024-07-28T10:11:35.653Z</time>
      </trkpt>
      <trkpt lat="54.19319" lon="15.62439">
        <ele>36.558869</ele>
        <time>2024-07-28T10:11:37.656Z</time>
      </trkpt>
      <trkpt lat="54.19321" lon="15.62457">
        <ele>36.629762</ele>
        <time>2024-07-28T10:11:39.660Z</time>
      </trkpt>
      <trkpt lat="54.19325" lon="15.62475">
        <ele>36.705295</ele>
        <time>2024-07-28T10:11:41.656Z</time>
      </trkpt>
      <trkpt lat="54.19328" lon="15.62493">
        <ele>36.778002</ele>
        <time>2024-07-28T10:11:43.663Z</time>
      </trkpt>
      <trkpt lat="54.19331" lon="15.62511">
        <ele>36.852734</ele>
        <time>2024-07-28T10:11:45.653Z</time>
      </trkpt>
      <trkpt lat="54.19334" lon="15.62528">
        <ele>36.92251</ele>
        <time>2024-07-28T10:11:47.654Z</time>
      </trkpt>
      <trkpt lat="54.19336" lon="15.62546">
        <ele>36.996061</ele>
        <time>2024-07-28T10:11:49.652Z</time>
      </trkpt>
      <trkpt lat="54.19339" lon="15.62565">
        <ele>37.072069</ele>
        <time>2024-07-28T10:11:51.653Z</time>
      </trkpt>
      <trkpt lat="54.19342" lon="15.62583">
        <ele>37.120608</ele>
        <time>2024-07-28T10:11:53.640Z</time>
      </trkpt>
      <trkpt lat="54.19344" lon="15.62603">
        <ele>37.139896</ele>
        <time>2024-07-28T10:11:55.650Z</time>
      </trkpt>
      <trkpt lat="54.19347" lon="15.62621">
        <ele>37.157972</ele>
        <time>2024-07-28T10:11:57.647Z</time>
      </trkpt>
      <trkpt lat="54.19351" lon="15.62638">
        <ele>37.175594</ele>
        <time>2024-07-28T10:11:59.641Z</time>
      </trkpt>
      <trkpt lat="54.19353" lon="15.62656">
        <ele>37.194008</ele>
        <time>2024-07-28T10:12:01.658Z</time>
      </trkpt>
      <trkpt lat="54.19356" lon="15.62676">
        <ele>37.213784</ele>
        <time>2024-07-28T10:12:03.663Z</time>
      </trkpt>
      <trkpt lat="54.19359" lon="15.62695">
        <ele>37.232749</ele>
        <time>2024-07-28T10:12:05.654Z</time>
      </trkpt>
      <trkpt lat="54.19363" lon="15.62713">
        <ele>37.25147</ele>
        <time>2024-07-28T10:12:07.654Z</time>
      </trkpt>
      <trkpt lat="54.19366" lon="15.62731">
        <ele>37.270106</ele>
        <time>2024-07-28T10:12:09.653Z</time>
      </trkpt>
      <trkpt lat="54.1937" lon="15.62748">
        <ele>37.287122</ele>
        <time>2024-07-28T10:12:11.640Z</time>
      </trkpt>
      <trkpt lat="54.19373" lon="15.62766">
        <ele>37.30519</ele>
        <time>2024-07-28T10:12:13.623Z</time>
      </trkpt>
      <trkpt lat="54.19376" lon="15.62782">
        <ele>37.322629</ele>
        <time>2024-07-28T10:12:15.636Z</time>
      </trkpt>
      <trkpt lat="54.19379" lon="15.62799">
        <ele>37.339279</ele>
        <time>2024-07-28T10:12:17.633Z</time>
      </trkpt>
      <trkpt lat="54.19384" lon="15.62814">
        <ele>37.356003</ele>
        <time>2024-07-28T10:12:19.630Z</time>
      </trkpt>
      <trkpt lat="54.19387" lon="15.62829">
        <ele>37.371833</ele>
        <time>2024-07-28T10:12:21.698Z</time>
      </trkpt>
      <trkpt lat="54.19391" lon="15.62851">
        <ele>37.393493</ele>
        <time>2024-07-28T10:12:24.623Z</time>
      </trkpt>
      <trkpt lat="54.19395" lon="15.6287">
        <ele>37.406713</ele>
        <time>2024-07-28T10:12:27.624Z</time>
      </trkpt>
      <trkpt lat="54.19398" lon="15.62892">
        <ele>37.372495</ele>
        <time>2024-07-28T10:12:30.647Z</time>
      </trkpt>
      <trkpt lat="54.19401" lon="15.62907">
        <ele>37.348005</ele>
        <time>2024-07-28T10:12:32.647Z</time>
      </trkpt>
      <trkpt lat="54.19404" lon="15.62923">
        <ele>37.321557</ele>
        <time>2024-07-28T10:12:34.625Z</time>
      </trkpt>
      <trkpt lat="54.19408" lon="15.6294">
        <ele>37.294441</ele>
        <time>2024-07-28T10:12:36.626Z</time>
      </trkpt>
      <trkpt lat="54.19412" lon="15.62954">
        <ele>37.270164</ele>
        <time>2024-07-28T10:12:38.653Z</time>
      </trkpt>
      <trkpt lat="54.19415" lon="15.62969">
        <ele>37.246493</ele>
        <time>2024-07-28T10:12:40.624Z</time>
      </trkpt>
      <trkpt lat="54.19419" lon="15.62989">
        <ele>37.213513</ele>
        <time>2024-07-28T10:12:43.639Z</time>
      </trkpt>
      <trkpt lat="54.19423" lon="15.63008">
        <ele>37.181959</ele>
        <time>2024-07-28T10:12:46.624Z</time>
      </trkpt>
      <trkpt lat="54.19427" lon="15.63026">
        <ele>37.153557</ele>
        <time>2024-07-28T10:12:49.627Z</time>
      </trkpt>
      <trkpt lat="54.19431" lon="15.63043">
        <ele>37.124017</ele>
        <time>2024-07-28T10:12:53.653Z</time>
      </trkpt>
      <trkpt lat="54.19434" lon="15.63059">
        <ele>37.09951</ele>
        <time>2024-07-28T10:12:57.639Z</time>
      </trkpt>
      <trkpt lat="54.19437" lon="15.63075">
        <ele>37.072879</ele>
        <time>2024-07-28T10:13:02.650Z</time>
      </trkpt>
      <trkpt lat="54.19442" lon="15.63095">
        <ele>37.039274</ele>
        <time>2024-07-28T10:14:36.649Z</time>
      </trkpt>
      <trkpt lat="54.19445" lon="15.63114">
        <ele>37.00952</ele>
        <time>2024-07-28T10:14:41.648Z</time>
      </trkpt>
      <trkpt lat="54.19447" lon="15.63131">
        <ele>36.98192</ele>
        <time>2024-07-28T10:14:44.671Z</time>
      </trkpt>
      <trkpt lat="54.19448" lon="15.63147">
        <ele>36.95711</ele>
        <time>2024-07-28T10:14:46.652Z</time>
      </trkpt>
      <trkpt lat="54.19449" lon="15.63164">
        <ele>36.947245</ele>
        <time>2024-07-28T10:14:48.654Z</time>
      </trkpt>
      <trkpt lat="54.19452" lon="15.63181">
        <ele>36.977582</ele>
        <time>2024-07-28T10:14:50.654Z</time>
      </trkpt>
      <trkpt lat="54.19455" lon="15.63196">
        <ele>37.006144</ele>
        <time>2024-07-28T10:14:52.651Z</time>
      </trkpt>
      <trkpt lat="54.19459" lon="15.63211">
        <ele>37.034727</ele>
        <time>2024-07-28T10:14:54.654Z</time>
      </trkpt>
      <trkpt lat="54.19461" lon="15.63228">
        <ele>37.066179</ele>
        <time>2024-07-28T10:14:56.652Z</time>
      </trkpt>
      <trkpt lat="54.19464" lon="15.63247">
        <ele>37.100367</ele>
        <time>2024-07-28T10:14:58.682Z</time>
      </trkpt>
      <trkpt lat="54.19468" lon="15.63266">
        <ele>37.134771</ele>
        <time>2024-07-28T10:15:00.635Z</time>
      </trkpt>
      <trkpt lat="54.1947" lon="15.63284">
        <ele>37.166593</ele>
        <time>2024-07-28T10:15:02.655Z</time>
      </trkpt>
      <trkpt lat="54.19473" lon="15.633">
        <ele>37.196338</ele>
        <time>2024-07-28T10:15:04.656Z</time>
      </trkpt>
      <trkpt lat="54.19475" lon="15.63318">
        <ele>37.228643</ele>
        <time>2024-07-28T10:15:06.646Z</time>
      </trkpt>
      <trkpt lat="54.19478" lon="15.63335">
        <ele>37.260512</ele>
        <time>2024-07-28T10:15:08.658Z</time>
      </trkpt>
      <trkpt lat="54.19481" lon="15.63351">
        <ele>37.290432</ele>
        <time>2024-07-28T10:15:10.645Z</time>
      </trkpt>
      <trkpt lat="54.19483" lon="15.63369">
        <ele>37.3223</ele>
        <time>2024-07-28T10:15:12.652Z</time>
      </trkpt>
      <trkpt lat="54.19486" lon="15.63387">
        <ele>37.35534</ele>
        <time>2024-07-28T10:15:14.634Z</time>
      </trkpt>
      <trkpt lat="54.1949" lon="15.63402">
        <ele>37.384117</ele>
        <time>2024-07-28T10:15:16.654Z</time>
      </trkpt>
      <trkpt lat="54.19493" lon="15.63419">
        <ele>37.415419</ele>
        <time>2024-07-28T10:15:18.654Z</time>
      </trkpt>
      <trkpt lat="54.19495" lon="15.63437">
        <ele>37.448027</ele>
        <time>2024-07-28T10:15:20.656Z</time>
      </trkpt>
      <trkpt lat="54.19497" lon="15.63455">
        <ele>37.480281</ele>
        <time>2024-07-28T10:15:22.658Z</time>
      </trkpt>
      <trkpt lat="54.195" lon="15.63475">
        <ele>37.510042</ele>
        <time>2024-07-28T10:15:24.649Z</time>
      </trkpt>
      <trkpt lat="54.19502" lon="15.63494">
        <ele>37.538637</ele>
        <time>2024-07-28T10:15:26.649Z</time>
      </trkpt>
      <trkpt lat="54.19505" lon="15.63513">
        <ele>37.56876</ele>
        <time>2024-07-28T10:15:28.637Z</time>
      </trkpt>
      <trkpt lat="54.19508" lon="15.63533">
        <ele>37.59867</ele>
        <time>2024-07-28T10:15:30.648Z</time>
      </trkpt>
      <trkpt lat="54.19511" lon="15.63553">
        <ele>37.629652</ele>
        <time>2024-07-28T10:15:32.650Z</time>
      </trkpt>
      <trkpt lat="54.19513" lon="15.63574">
        <ele>37.660681</ele>
        <time>2024-07-28T10:15:34.649Z</time>
      </trkpt>
      <trkpt lat="54.19515" lon="15.63594">
        <ele>37.691995</ele>
        <time>2024-07-28T10:15:36.642Z</time>
      </trkpt>
      <trkpt lat="54.19518" lon="15.63614">
        <ele>37.722223</ele>
        <time>2024-07-28T10:15:38.656Z</time>
      </trkpt>
      <trkpt lat="54.19521" lon="15.63633">
        <ele>37.751636</ele>
        <time>2024-07-28T10:15:40.653Z</time>
      </trkpt>
      <trkpt lat="54.19525" lon="15.63651">
        <ele>37.779502</ele>
        <time>2024-07-28T10:15:42.652Z</time>
      </trkpt>
      <trkpt lat="54.19528" lon="15.63669">
        <ele>37.806358</ele>
        <time>2024-07-28T10:15:44.649Z</time>
      </trkpt>
      <trkpt lat="54.1953" lon="15.63687">
        <ele>37.833843</ele>
        <time>2024-07-28T10:15:46.645Z</time>
      </trkpt>
      <trkpt lat="54.19533" lon="15.63705">
        <ele>37.862342</ele>
        <time>2024-07-28T10:15:48.638Z</time>
      </trkpt>
      <trkpt lat="54.19535" lon="15.63723">
        <ele>37.88887</ele>
        <time>2024-07-28T10:15:50.644Z</time>
      </trkpt>
      <trkpt lat="54.19538" lon="15.63741">
        <ele>37.916432</ele>
        <time>2024-07-28T10:15:52.640Z</time>
      </trkpt>
      <trkpt lat="54.19542" lon="15.63757">
        <ele>37.933076</ele>
        <time>2024-07-28T10:15:54.645Z</time>
      </trkpt>
      <trkpt lat="54.19544" lon="15.63773">
        <ele>37.920482</ele>
        <time>2024-07-28T10:15:56.649Z</time>
      </trkpt>
      <trkpt lat="54.19548" lon="15.63791">
        <ele>37.907116</ele>
        <time>2024-07-28T10:15:58.643Z</time>
      </trkpt>
      <trkpt lat="54.19551" lon="15.63808">
        <ele>37.894065</ele>
        <time>2024-07-28T10:16:00.651Z</time>
      </trkpt>
      <trkpt lat="54.19554" lon="15.63827">
        <ele>37.879902</ele>
        <time>2024-07-28T10:16:02.645Z</time>
      </trkpt>
      <trkpt lat="54.19556" lon="15.63845">
        <ele>37.866179</ele>
        <time>2024-07-28T10:16:04.652Z</time>
      </trkpt>
      <trkpt lat="54.1956" lon="15.63863">
        <ele>37.852746</ele>
        <time>2024-07-28T10:16:06.645Z</time>
      </trkpt>
      <trkpt lat="54.19565" lon="15.63879">
        <ele>37.839262</ele>
        <time>2024-07-28T10:16:08.635Z</time>
      </trkpt>
      <trkpt lat="54.19569" lon="15.63898">
        <ele>37.824831</ele>
        <time>2024-07-28T10:16:10.648Z</time>
      </trkpt>
      <trkpt lat="54.19572" lon="15.63915">
        <ele>37.811672</ele>
        <time>2024-07-28T10:16:12.651Z</time>
      </trkpt>
      <trkpt lat="54.19575" lon="15.63932">
        <ele>37.798625</ele>
        <time>2024-07-28T10:16:14.651Z</time>
      </trkpt>
      <trkpt lat="54.19578" lon="15.6395">
        <ele>37.785782</ele>
        <time>2024-07-28T10:16:16.643Z</time>
      </trkpt>
      <trkpt lat="54.19579" lon="15.63966">
        <ele>37.773624</ele>
        <time>2024-07-28T10:16:18.648Z</time>
      </trkpt>
      <trkpt lat="54.19584" lon="15.6398">
        <ele>37.761576</ele>
        <time>2024-07-28T10:16:20.646Z</time>
      </trkpt>
      <trkpt lat="54.19588" lon="15.63995">
        <ele>37.749357</ele>
        <time>2024-07-28T10:16:22.645Z</time>
      </trkpt>
      <trkpt lat="54.1959" lon="15.64012">
        <ele>37.736751</ele>
        <time>2024-07-28T10:16:24.656Z</time>
      </trkpt>
      <trkpt lat="54.19594" lon="15.64028">
        <ele>37.724152</ele>
        <time>2024-07-28T10:16:26.641Z</time>
      </trkpt>
      <trkpt lat="54.19601" lon="15.64043">
        <ele>37.710295</ele>
        <time>2024-07-28T10:16:28.641Z</time>
      </trkpt>
      <trkpt lat="54.19605" lon="15.64058">
        <ele>37.695045</ele>
        <time>2024-07-28T10:16:30.649Z</time>
      </trkpt>
      <trkpt lat="54.19607" lon="15.64075">
        <ele>37.678871</ele>
        <time>2024-07-28T10:16:32.640Z</time>
      </trkpt>
      <trkpt lat="54.19611" lon="15.64091">
        <ele>37.663023</ele>
        <time>2024-07-28T10:16:34.657Z</time>
      </trkpt>
      <trkpt lat="54.19618" lon="15.64106">
        <ele>37.645776</ele>
        <time>2024-07-28T10:16:36.655Z</time>
      </trkpt>
      <trkpt lat="54.19623" lon="15.64122">
        <ele>37.629007</ele>
        <time>2024-07-28T10:16:38.655Z</time>
      </trkpt>
      <trkpt lat="54.19625" lon="15.64139">
        <ele>37.61307</ele>
        <time>2024-07-28T10:16:40.647Z</time>
      </trkpt>
      <trkpt lat="54.19626" lon="15.64157">
        <ele>37.596618</ele>
        <time>2024-07-28T10:16:42.639Z</time>
      </trkpt>
      <trkpt lat="54.19631" lon="15.64175">
        <ele>37.578993</ele>
        <time>2024-07-28T10:16:44.638Z</time>
      </trkpt>
      <trkpt lat="54.19636" lon="15.64192">
        <ele>37.561883</ele>
        <time>2024-07-28T10:16:46.642Z</time>
      </trkpt>
      <trkpt lat="54.1964" lon="15.64209">
        <ele>37.544698</ele>
        <time>2024-07-28T10:16:48.649Z</time>
      </trkpt>
      <trkpt lat="54.19644" lon="15.64225">
        <ele>37.528551</ele>
        <time>2024-07-28T10:16:50.646Z</time>
      </trkpt>
      <trkpt lat="54.19646" lon="15.64244">
        <ele>37.511542</ele>
        <time>2024-07-28T10:16:52.652Z</time>
      </trkpt>
      <trkpt lat="54.19648" lon="15.64263">
        <ele>37.493732</ele>
        <time>2024-07-28T10:16:54.659Z</time>
      </trkpt>
      <trkpt lat="54.1965" lon="15.64282">
        <ele>37.476334</ele>
        <time>2024-07-28T10:16:56.641Z</time>
      </trkpt>
      <trkpt lat="54.19652" lon="15.643">
        <ele>37.459831</ele>
        <time>2024-07-28T10:16:58.659Z</time>
      </trkpt>
      <trkpt lat="54.19651" lon="15.64317">
        <ele>37.443842</ele>
        <time>2024-07-28T10:17:00.652Z</time>
      </trkpt>
      <trkpt lat="54.19647" lon="15.64333">
        <ele>37.452007</ele>
        <time>2024-07-28T10:17:02.636Z</time>
      </trkpt>
      <trkpt lat="54.19644" lon="15.6435">
        <ele>37.536143</ele>
        <time>2024-07-28T10:17:04.650Z</time>
      </trkpt>
      <trkpt lat="54.19644" lon="15.64367">
        <ele>37.610681</ele>
        <time>2024-07-28T10:17:06.646Z</time>
      </trkpt>
      <trkpt lat="54.19648" lon="15.64383">
        <ele>37.692125</ele>
        <time>2024-07-28T10:17:08.632Z</time>
      </trkpt>
      <trkpt lat="54.19649" lon="15.644">
        <ele>37.76997</ele>
        <time>2024-07-28T10:17:10.652Z</time>
      </trkpt>
      <trkpt lat="54.19649" lon="15.64416">
        <ele>37.845026</ele>
        <time>2024-07-28T10:17:12.640Z</time>
      </trkpt>
      <trkpt lat="54.19648" lon="15.64434">
        <ele>37.924233</ele>
        <time>2024-07-28T10:17:14.646Z</time>
      </trkpt>
      <trkpt lat="54.1965" lon="15.64451">
        <ele>38.005473</ele>
        <time>2024-07-28T10:17:16.640Z</time>
      </trkpt>
      <trkpt lat="54.19654" lon="15.64466">
        <ele>38.083778</ele>
        <time>2024-07-28T10:17:18.645Z</time>
      </trkpt>
      <trkpt lat="54.19659" lon="15.6448">
        <ele>38.157986</ele>
        <time>2024-07-28T10:17:20.644Z</time>
      </trkpt>
      <trkpt lat="54.19663" lon="15.64501">
        <ele>38.258784</ele>
        <time>2024-07-28T10:17:23.646Z</time>
      </trkpt>
      <trkpt lat="54.19666" lon="15.64521">
        <ele>38.354154</ele>
        <time>2024-07-28T10:17:26.642Z</time>
      </trkpt>
      <trkpt lat="54.19669" lon="15.64539">
        <ele>38.439966</ele>
        <time>2024-07-28T10:17:29.649Z</time>
      </trkpt>
      <trkpt lat="54.19669" lon="15.64558">
        <ele>38.524574</ele>
        <time>2024-07-28T10:17:32.648Z</time>
      </trkpt>
      <trkpt lat="54.1967" lon="15.64574">
        <ele>38.599242</ele>
        <time>2024-07-28T10:17:35.652Z</time>
      </trkpt>
      <trkpt lat="54.19677" lon="15.6459">
        <ele>38.68878</ele>
        <time>2024-07-28T10:17:39.647Z</time>
      </trkpt>
      <trkpt lat="54.19681" lon="15.64607">
        <ele>38.772578</ele>
        <time>2024-07-28T10:17:42.651Z</time>
      </trkpt>
      <trkpt lat="54.19681" lon="15.64628">
        <ele>38.862662</ele>
        <time>2024-07-28T10:17:45.639Z</time>
      </trkpt>
      <trkpt lat="54.19681" lon="15.64649">
        <ele>38.945813</ele>
        <time>2024-07-28T10:17:48.653Z</time>
      </trkpt>
      <trkpt lat="54.19681" lon="15.64671">
        <ele>39.029692</ele>
        <time>2024-07-28T10:17:51.652Z</time>
      </trkpt>
      <trkpt lat="54.19684" lon="15.64686">
        <ele>39.09083</ele>
        <time>2024-07-28T10:17:53.646Z</time>
      </trkpt>
      <trkpt lat="54.19685" lon="15.64702">
        <ele>39.15059</ele>
        <time>2024-07-28T10:17:55.645Z</time>
      </trkpt>
      <trkpt lat="54.19686" lon="15.64719">
        <ele>39.216341</ele>
        <time>2024-07-28T10:17:57.645Z</time>
      </trkpt>
      <trkpt lat="54.19688" lon="15.64736">
        <ele>39.282853</ele>
        <time>2024-07-28T10:17:59.647Z</time>
      </trkpt>
      <trkpt lat="54.1969" lon="15.64752">
        <ele>39.346282</ele>
        <time>2024-07-28T10:18:01.646Z</time>
      </trkpt>
      <trkpt lat="54.1969" lon="15.64769">
        <ele>39.410641</ele>
        <time>2024-07-28T10:18:03.641Z</time>
      </trkpt>
      <trkpt lat="54.19692" lon="15.64785">
        <ele>39.475535</ele>
        <time>2024-07-28T10:18:05.640Z</time>
      </trkpt>
      <trkpt lat="54.19694" lon="15.64802">
        <ele>39.542236</ele>
        <time>2024-07-28T10:18:07.645Z</time>
      </trkpt>
      <trkpt lat="54.19695" lon="15.6482">
        <ele>39.609826</ele>
        <time>2024-07-28T10:18:09.648Z</time>
      </trkpt>
      <trkpt lat="54.19697" lon="15.64837">
        <ele>39.676918</ele>
        <time>2024-07-28T10:18:11.643Z</time>
      </trkpt>
      <trkpt lat="54.19698" lon="15.64853">
        <ele>39.74096</ele>
        <time>2024-07-28T10:18:13.654Z</time>
      </trkpt>
      <trkpt lat="54.19699" lon="15.6487">
        <ele>39.80481</ele>
        <time>2024-07-28T10:18:15.642Z</time>
      </trkpt>
      <trkpt lat="54.19702" lon="15.64885">
        <ele>39.864998</ele>
        <time>2024-07-28T10:18:17.649Z</time>
      </trkpt>
      <trkpt lat="54.19703" lon="15.64901">
        <ele>39.926848</ele>
        <time>2024-07-28T10:18:19.646Z</time>
      </trkpt>
      <trkpt lat="54.19706" lon="15.64923">
        <ele>40.014266</ele>
        <time>2024-07-28T10:18:22.645Z</time>
      </trkpt>
      <trkpt lat="54.19709" lon="15.64945">
        <ele>39.767479</ele>
        <time>2024-07-28T10:18:25.651Z</time>
      </trkpt>
      <trkpt lat="54.19711" lon="15.64967">
        <ele>39.483802</ele>
        <time>2024-07-28T10:18:28.656Z</time>
      </trkpt>
      <trkpt lat="54.19712" lon="15.64982">
        <ele>39.289201</ele>
        <time>2024-07-28T10:18:30.634Z</time>
      </trkpt>
      <trkpt lat="54.19714" lon="15.64999">
        <ele>39.082296</ele>
        <time>2024-07-28T10:18:32.636Z</time>
      </trkpt>
      <trkpt lat="54.19714" lon="15.65015">
        <ele>38.876616</ele>
        <time>2024-07-28T10:18:34.636Z</time>
      </trkpt>
      <trkpt lat="54.19713" lon="15.65032">
        <ele>38.666331</ele>
        <time>2024-07-28T10:18:36.647Z</time>
      </trkpt>
      <trkpt lat="54.19712" lon="15.65049">
        <ele>38.452917</ele>
        <time>2024-07-28T10:18:38.640Z</time>
      </trkpt>
      <trkpt lat="54.19713" lon="15.65067">
        <ele>38.235862</ele>
        <time>2024-07-28T10:18:40.653Z</time>
      </trkpt>
      <trkpt lat="54.19714" lon="15.65083">
        <ele>38.029847</ele>
        <time>2024-07-28T10:18:42.623Z</time>
      </trkpt>
      <trkpt lat="54.19715" lon="15.651">
        <ele>37.819357</ele>
        <time>2024-07-28T10:18:44.630Z</time>
      </trkpt>
      <trkpt lat="54.19716" lon="15.65116">
        <ele>37.615236</ele>
        <time>2024-07-28T10:18:46.635Z</time>
      </trkpt>
      <trkpt lat="54.19718" lon="15.65132">
        <ele>37.417441</ele>
        <time>2024-07-28T10:18:48.654Z</time>
      </trkpt>
      <trkpt lat="54.19721" lon="15.6515">
        <ele>37.178043</ele>
        <time>2024-07-28T10:18:51.651Z</time>
      </trkpt>
      <trkpt lat="54.19722" lon="15.65168">
        <ele>36.954798</ele>
        <time>2024-07-28T10:18:54.641Z</time>
      </trkpt>
      <trkpt lat="54.19723" lon="15.65186">
        <ele>36.725407</ele>
        <time>2024-07-28T10:18:58.646Z</time>
      </trkpt>
      <trkpt lat="54.19725" lon="15.65219">
        <ele>36.316361</ele>
        <time>2024-07-28T10:19:57.653Z</time>
      </trkpt>
      <trkpt lat="54.19726" lon="15.65235">
        <ele>36.195582</ele>
        <time>2024-07-28T10:20:00.668Z</time>
      </trkpt>
      <trkpt lat="54.19726" lon="15.65257">
        <ele>36.222555</ele>
        <time>2024-07-28T10:20:03.656Z</time>
      </trkpt>
      <trkpt lat="54.19728" lon="15.65274">
        <ele>36.244603</ele>
        <time>2024-07-28T10:20:05.661Z</time>
      </trkpt>
      <trkpt lat="54.19731" lon="15.65293">
        <ele>36.268302</ele>
        <time>2024-07-28T10:20:07.650Z</time>
      </trkpt>
      <trkpt lat="54.19734" lon="15.65314">
        <ele>36.295574</ele>
        <time>2024-07-28T10:20:09.650Z</time>
      </trkpt>
      <trkpt lat="54.19738" lon="15.65335">
        <ele>36.322474</ele>
        <time>2024-07-28T10:20:11.655Z</time>
      </trkpt>
      <trkpt lat="54.1974" lon="15.65357">
        <ele>36.350802</ele>
        <time>2024-07-28T10:20:13.634Z</time>
      </trkpt>
      <trkpt lat="54.19743" lon="15.65378">
        <ele>36.378285</ele>
        <time>2024-07-28T10:20:15.660Z</time>
      </trkpt>
      <trkpt lat="54.19746" lon="15.654">
        <ele>36.405988</ele>
        <time>2024-07-28T10:20:17.631Z</time>
      </trkpt>
      <trkpt lat="54.1975" lon="15.6542">
        <ele>36.43267</ele>
        <time>2024-07-28T10:20:19.658Z</time>
      </trkpt>
      <trkpt lat="54.19753" lon="15.6544">
        <ele>36.458146</ele>
        <time>2024-07-28T10:20:21.662Z</time>
      </trkpt>
      <trkpt lat="54.19756" lon="15.65459">
        <ele>36.482743</ele>
        <time>2024-07-28T10:20:23.657Z</time>
      </trkpt>
      <trkpt lat="54.19759" lon="15.65478">
        <ele>36.507073</ele>
        <time>2024-07-28T10:20:25.669Z</time>
      </trkpt>
      <trkpt lat="54.19761" lon="15.65495">
        <ele>36.529219</ele>
        <time>2024-07-28T10:20:27.663Z</time>
      </trkpt>
      <trkpt lat="54.19764" lon="15.65518">
        <ele>36.557674</ele>
        <time>2024-07-28T10:20:30.661Z</time>
      </trkpt>
      <trkpt lat="54.19766" lon="15.65534">
        <ele>36.578209</ele>
        <time>2024-07-28T10:20:32.657Z</time>
      </trkpt>
      <trkpt lat="54.19767" lon="15.6555">
        <ele>36.600101</ele>
        <time>2024-07-28T10:20:34.662Z</time>
      </trkpt>
      <trkpt lat="54.19769" lon="15.65567">
        <ele>36.622188</ele>
        <time>2024-07-28T10:20:36.662Z</time>
      </trkpt>
      <trkpt lat="54.19771" lon="15.65583">
        <ele>36.64339</ele>
        <time>2024-07-28T10:20:38.664Z</time>
      </trkpt>
      <trkpt lat="54.19774" lon="15.65606">
        <ele>36.673287</ele>
        <time>2024-07-28T10:20:41.657Z</time>
      </trkpt>
      <trkpt lat="54.19774" lon="15.65621">
        <ele>36.693719</ele>
        <time>2024-07-28T10:20:43.650Z</time>
      </trkpt>
      <trkpt lat="54.19774" lon="15.65638">
        <ele>36.7154</ele>
        <time>2024-07-28T10:20:45.664Z</time>
      </trkpt>
      <trkpt lat="54.19775" lon="15.65656">
        <ele>36.738522</ele>
        <time>2024-07-28T10:20:47.675Z</time>
      </trkpt>
      <trkpt lat="54.19777" lon="15.65674">
        <ele>36.762085</ele>
        <time>2024-07-28T10:20:49.645Z</time>
      </trkpt>
      <trkpt lat="54.1978" lon="15.6569">
        <ele>36.784254</ele>
        <time>2024-07-28T10:20:51.650Z</time>
      </trkpt>
      <trkpt lat="54.19783" lon="15.65707">
        <ele>36.80747</ele>
        <time>2024-07-28T10:20:53.641Z</time>
      </trkpt>
      <trkpt lat="54.19786" lon="15.65722">
        <ele>36.828397</ele>
        <time>2024-07-28T10:20:55.657Z</time>
      </trkpt>
      <trkpt lat="54.19788" lon="15.65739">
        <ele>36.850712</ele>
        <time>2024-07-28T10:20:57.664Z</time>
      </trkpt>
      <trkpt lat="54.19789" lon="15.65755">
        <ele>36.872132</ele>
        <time>2024-07-28T10:20:59.658Z</time>
      </trkpt>
      <trkpt lat="54.19792" lon="15.65773">
        <ele>36.895204</ele>
        <time>2024-07-28T10:21:01.654Z</time>
      </trkpt>
      <trkpt lat="54.19795" lon="15.65789">
        <ele>36.917625</ele>
        <time>2024-07-28T10:21:03.662Z</time>
      </trkpt>
      <trkpt lat="54.19798" lon="15.65806">
        <ele>36.940484</ele>
        <time>2024-07-28T10:21:05.660Z</time>
      </trkpt>
      <trkpt lat="54.19801" lon="15.65824">
        <ele>36.964402</ele>
        <time>2024-07-28T10:21:07.658Z</time>
      </trkpt>
      <trkpt lat="54.19803" lon="15.65842">
        <ele>37.083009</ele>
        <time>2024-07-28T10:21:09.654Z</time>
      </trkpt>
      <trkpt lat="54.19806" lon="15.6586">
        <ele>37.227691</ele>
        <time>2024-07-28T10:21:11.653Z</time>
      </trkpt>
      <trkpt lat="54.19809" lon="15.65877">
        <ele>37.374297</ele>
        <time>2024-07-28T10:21:13.661Z</time>
      </trkpt>
      <trkpt lat="54.19812" lon="15.65895">
        <ele>37.524762</ele>
        <time>2024-07-28T10:21:15.652Z</time>
      </trkpt>
      <trkpt lat="54.19813" lon="15.65914">
        <ele>37.675053</ele>
        <time>2024-07-28T10:21:17.677Z</time>
      </trkpt>
      <trkpt lat="54.19813" lon="15.65933">
        <ele>37.823803</ele>
        <time>2024-07-28T10:21:19.664Z</time>
      </trkpt>
      <trkpt lat="54.19814" lon="15.6595">
        <ele>37.96001</ele>
        <time>2024-07-28T10:21:21.664Z</time>
      </trkpt>
      <trkpt lat="54.19816" lon="15.65967">
        <ele>38.099722</ele>
        <time>2024-07-28T10:21:23.660Z</time>
      </trkpt>
      <trkpt lat="54.19816" lon="15.65984">
        <ele>38.230205</ele>
        <time>2024-07-28T10:21:25.654Z</time>
      </trkpt>
      <trkpt lat="54.19814" lon="15.66005">
        <ele>38.398331</ele>
        <time>2024-07-28T10:21:28.652Z</time>
      </trkpt>
      <trkpt lat="54.19808" lon="15.66019">
        <ele>38.535918</ele>
        <time>2024-07-28T10:21:31.664Z</time>
      </trkpt>
      <trkpt lat="54.19799" lon="15.66026">
        <ele>38.675744</ele>
        <time>2024-07-28T10:21:34.676Z</time>
      </trkpt>
      <trkpt lat="54.19789" lon="15.66031">
        <ele>38.815755</ele>
        <time>2024-07-28T10:21:37.655Z</time>
      </trkpt>
      <trkpt lat="54.19778" lon="15.66037">
        <ele>38.973361</ele>
        <time>2024-07-28T10:21:40.666Z</time>
      </trkpt>
      <trkpt lat="54.19767" lon="15.66042">
        <ele>39.119858</ele>
        <time>2024-07-28T10:21:43.674Z</time>
      </trkpt>
      <trkpt lat="54.19758" lon="15.66047">
        <ele>39.253259</ele>
        <time>2024-07-28T10:21:46.673Z</time>
      </trkpt>
      <trkpt lat="54.19749" lon="15.66052">
        <ele>39.378323</ele>
        <time>2024-07-28T10:21:50.654Z</time>
      </trkpt>
      <trkpt lat="54.19741" lon="15.66058">
        <ele>39.48095</ele>
        <time>2024-07-28T10:21:54.657Z</time>
      </trkpt>
      <trkpt lat="54.19733" lon="15.66069">
        <ele>39.586477</ele>
        <time>2024-07-28T10:21:57.644Z</time>
      </trkpt>
      <trkpt lat="54.1973" lon="15.66083">
        <ele>39.680565</ele>
        <time>2024-07-28T10:22:00.664Z</time>
      </trkpt>
      <trkpt lat="54.19732" lon="15.661">
        <ele>39.780812</ele>
        <time>2024-07-28T10:22:03.643Z</time>
      </trkpt>
      <trkpt lat="54.19735" lon="15.66117">
        <ele>39.887939</ele>
        <time>2024-07-28T10:22:06.666Z</time>
      </trkpt>
      <trkpt lat="54.19741" lon="15.66133">
        <ele>39.999785</ele>
        <time>2024-07-28T10:22:09.643Z</time>
      </trkpt>
      <trkpt lat="54.19747" lon="15.66145">
        <ele>40.100337</ele>
        <time>2024-07-28T10:22:12.660Z</time>
      </trkpt>
      <trkpt lat="54.19755" lon="15.66157">
        <ele>40.207546</ele>
        <time>2024-07-28T10:22:15.673Z</time>
      </trkpt>
      <trkpt lat="54.19764" lon="15.66169">
        <ele>40.324085</ele>
        <time>2024-07-28T10:22:18.652Z</time>
      </trkpt>
      <trkpt lat="54.19774" lon="15.66182">
        <ele>40.452463</ele>
        <time>2024-07-28T10:22:21.666Z</time>
      </trkpt>
      <trkpt lat="54.19783" lon="15.66195">
        <ele>40.574953</ele>
        <time>2024-07-28T10:22:24.662Z</time>
      </trkpt>
      <trkpt lat="54.19792" lon="15.66208">
        <ele>40.694217</ele>
        <time>2024-07-28T10:22:27.660Z</time>
      </trkpt>
      <trkpt lat="54.19798" lon="15.66222">
        <ele>40.800507</ele>
        <time>2024-07-28T10:22:30.643Z</time>
      </trkpt>
      <trkpt lat="54.19798" lon="15.66239">
        <ele>40.903088</ele>
        <time>2024-07-28T10:22:33.652Z</time>
      </trkpt>
      <trkpt lat="54.198" lon="15.66256">
        <ele>41.005625</ele>
        <time>2024-07-28T10:22:36.654Z</time>
      </trkpt>
      <trkpt lat="54.198" lon="15.66274">
        <ele>41.115519</ele>
        <time>2024-07-28T10:22:39.677Z</time>
      </trkpt>
      <trkpt lat="54.19801" lon="15.66292">
        <ele>41.223134</ele>
        <time>2024-07-28T10:22:42.681Z</time>
      </trkpt>
      <trkpt lat="54.19802" lon="15.6631">
        <ele>41.210945</ele>
        <time>2024-07-28T10:22:45.663Z</time>
      </trkpt>
      <trkpt lat="54.19803" lon="15.6633">
        <ele>41.130864</ele>
        <time>2024-07-28T10:22:48.674Z</time>
      </trkpt>
      <trkpt lat="54.19807" lon="15.66349">
        <ele>41.046885</ele>
        <time>2024-07-28T10:22:51.647Z</time>
      </trkpt>
      <trkpt lat="54.19814" lon="15.66366">
        <ele>40.963247</ele>
        <time>2024-07-28T10:22:54.649Z</time>
      </trkpt>
      <trkpt lat="54.19821" lon="15.66383">
        <ele>40.877859</ele>
        <time>2024-07-28T10:22:57.656Z</time>
      </trkpt>
      <trkpt lat="54.19826" lon="15.66396">
        <ele>40.814532</ele>
        <time>2024-07-28T10:22:59.655Z</time>
      </trkpt>
      <trkpt lat="54.19831" lon="15.66409">
        <ele>40.751023</ele>
        <time>2024-07-28T10:23:01.653Z</time>
      </trkpt>
      <trkpt lat="54.19836" lon="15.66422">
        <ele>40.686663</ele>
        <time>2024-07-28T10:23:03.655Z</time>
      </trkpt>
      <trkpt lat="54.19839" lon="15.66438">
        <ele>40.619593</ele>
        <time>2024-07-28T10:23:05.641Z</time>
      </trkpt>
      <trkpt lat="54.19842" lon="15.66454">
        <ele>40.547833</ele>
        <time>2024-07-28T10:23:07.644Z</time>
      </trkpt>
      <trkpt lat="54.19845" lon="15.66471">
        <ele>40.478004</ele>
        <time>2024-07-28T10:23:09.651Z</time>
      </trkpt>
      <trkpt lat="54.19848" lon="15.66487">
        <ele>40.406637</ele>
        <time>2024-07-28T10:23:11.671Z</time>
      </trkpt>
      <trkpt lat="54.19851" lon="15.66503">
        <ele>40.338796</ele>
        <time>2024-07-28T10:23:13.661Z</time>
      </trkpt>
      <trkpt lat="54.19855" lon="15.66519">
        <ele>40.268047</ele>
        <time>2024-07-28T10:23:15.676Z</time>
      </trkpt>
      <trkpt lat="54.19858" lon="15.66536">
        <ele>40.195781</ele>
        <time>2024-07-28T10:23:17.659Z</time>
      </trkpt>
      <trkpt lat="54.19862" lon="15.66553">
        <ele>40.120942</ele>
        <time>2024-07-28T10:23:19.653Z</time>
      </trkpt>
      <trkpt lat="54.19866" lon="15.66569">
        <ele>40.049695</ele>
        <time>2024-07-28T10:23:21.655Z</time>
      </trkpt>
      <trkpt lat="54.19869" lon="15.66586">
        <ele>40.010653</ele>
        <time>2024-07-28T10:23:23.664Z</time>
      </trkpt>
      <trkpt lat="54.19871" lon="15.66603">
        <ele>40.039514</ele>
        <time>2024-07-28T10:23:25.654Z</time>
      </trkpt>
      <trkpt lat="54.19874" lon="15.66619">
        <ele>40.066003</ele>
        <time>2024-07-28T10:23:27.656Z</time>
      </trkpt>
      <trkpt lat="54.19876" lon="15.66635">
        <ele>40.093102</ele>
        <time>2024-07-28T10:23:29.674Z</time>
      </trkpt>
      <trkpt lat="54.19878" lon="15.6665">
        <ele>40.119414</ele>
        <time>2024-07-28T10:23:31.654Z</time>
      </trkpt>
      <trkpt lat="54.19881" lon="15.66666">
        <ele>40.146477</ele>
        <time>2024-07-28T10:23:33.666Z</time>
      </trkpt>
      <trkpt lat="54.19886" lon="15.66688">
        <ele>40.185382</ele>
        <time>2024-07-28T10:23:36.647Z</time>
      </trkpt>
      <trkpt lat="54.19889" lon="15.66703">
        <ele>40.211951</ele>
        <time>2024-07-28T10:23:38.663Z</time>
      </trkpt>
      <trkpt lat="54.19892" lon="15.66719">
        <ele>40.238118</ele>
        <time>2024-07-28T10:23:40.656Z</time>
      </trkpt>
      <trkpt lat="54.19894" lon="15.66733">
        <ele>40.263639</ele>
        <time>2024-07-28T10:23:42.650Z</time>
      </trkpt>
      <trkpt lat="54.19897" lon="15.66748">
        <ele>40.289338</ele>
        <time>2024-07-28T10:23:44.651Z</time>
      </trkpt>
      <trkpt lat="54.199" lon="15.66764">
        <ele>40.315975</ele>
        <time>2024-07-28T10:23:46.646Z</time>
      </trkpt>
      <trkpt lat="54.19903" lon="15.66779">
        <ele>40.342999</ele>
        <time>2024-07-28T10:23:48.659Z</time>
      </trkpt>
      <trkpt lat="54.19906" lon="15.66794">
        <ele>40.368615</ele>
        <time>2024-07-28T10:23:50.664Z</time>
      </trkpt>
      <trkpt lat="54.1991" lon="15.66816">
        <ele>40.406307</ele>
        <time>2024-07-28T10:23:53.656Z</time>
      </trkpt>
      <trkpt lat="54.19913" lon="15.66831">
        <ele>40.431917</ele>
        <time>2024-07-28T10:23:55.659Z</time>
      </trkpt>
      <trkpt lat="54.19915" lon="15.66846">
        <ele>40.457518</ele>
        <time>2024-07-28T10:23:57.664Z</time>
      </trkpt>
      <trkpt lat="54.19918" lon="15.6686">
        <ele>40.48309</ele>
        <time>2024-07-28T10:23:59.668Z</time>
      </trkpt>
      <trkpt lat="54.19922" lon="15.66882">
        <ele>40.498825</ele>
        <time>2024-07-28T10:24:02.673Z</time>
      </trkpt>
      <trkpt lat="54.19925" lon="15.66903">
        <ele>40.477886</ele>
        <time>2024-07-28T10:24:05.653Z</time>
      </trkpt>
      <trkpt lat="54.19929" lon="15.66922">
        <ele>40.457502</ele>
        <time>2024-07-28T10:24:08.663Z</time>
      </trkpt>
      <trkpt lat="54.19932" lon="15.66942">
        <ele>40.437459</ele>
        <time>2024-07-28T10:24:11.681Z</time>
      </trkpt>
      <trkpt lat="54.19936" lon="15.66963">
        <ele>40.415718</ele>
        <time>2024-07-28T10:24:14.657Z</time>
      </trkpt>
      <trkpt lat="54.19938" lon="15.66979">
        <ele>40.400235</ele>
        <time>2024-07-28T10:24:16.648Z</time>
      </trkpt>
      <trkpt lat="54.19942" lon="15.67">
        <ele>40.377835</ele>
        <time>2024-07-28T10:24:19.675Z</time>
      </trkpt>
      <trkpt lat="54.19944" lon="15.67016">
        <ele>40.362391</ele>
        <time>2024-07-28T10:24:21.652Z</time>
      </trkpt>
      <trkpt lat="54.19947" lon="15.67038">
        <ele>40.340193</ele>
        <time>2024-07-28T10:24:24.664Z</time>
      </trkpt>
      <trkpt lat="54.1995" lon="15.6706">
        <ele>40.317395</ele>
        <time>2024-07-28T10:24:27.642Z</time>
      </trkpt>
      <trkpt lat="54.19951" lon="15.67076">
        <ele>40.30164</ele>
        <time>2024-07-28T10:24:29.660Z</time>
      </trkpt>
      <trkpt lat="54.19954" lon="15.67091">
        <ele>40.286307</ele>
        <time>2024-07-28T10:24:31.659Z</time>
      </trkpt>
      <trkpt lat="54.19956" lon="15.67107">
        <ele>40.270825</ele>
        <time>2024-07-28T10:24:33.666Z</time>
      </trkpt>
      <trkpt lat="54.19958" lon="15.67122">
        <ele>40.255094</ele>
        <time>2024-07-28T10:24:35.651Z</time>
      </trkpt>
      <trkpt lat="54.1996" lon="15.67138">
        <ele>40.238617</ele>
        <time>2024-07-28T10:24:37.676Z</time>
      </trkpt>
      <trkpt lat="54.19963" lon="15.67154">
        <ele>40.22323</ele>
        <time>2024-07-28T10:24:39.643Z</time>
      </trkpt>
      <trkpt lat="54.19964" lon="15.6717">
        <ele>40.206994</ele>
        <time>2024-07-28T10:24:41.654Z</time>
      </trkpt>
      <trkpt lat="54.19967" lon="15.67186">
        <ele>40.214014</ele>
        <time>2024-07-28T10:24:43.669Z</time>
      </trkpt>
      <trkpt lat="54.19969" lon="15.67207">
        <ele>40.228271</ele>
        <time>2024-07-28T10:24:46.643Z</time>
      </trkpt>
      <trkpt lat="54.19972" lon="15.67225">
        <ele>40.240274</ele>
        <time>2024-07-28T10:24:49.666Z</time>
      </trkpt>
      <trkpt lat="54.19974" lon="15.67244">
        <ele>40.253222</ele>
        <time>2024-07-28T10:24:52.677Z</time>
      </trkpt>
      <trkpt lat="54.19977" lon="15.67265">
        <ele>40.267408</ele>
        <time>2024-07-28T10:24:55.654Z</time>
      </trkpt>
      <trkpt lat="54.1998" lon="15.67284">
        <ele>40.28039</ele>
        <time>2024-07-28T10:24:58.664Z</time>
      </trkpt>
      <trkpt lat="54.19983" lon="15.67302">
        <ele>40.292201</ele>
        <time>2024-07-28T10:25:01.676Z</time>
      </trkpt>
      <trkpt lat="54.19985" lon="15.6732">
        <ele>40.304943</ele>
        <time>2024-07-28T10:25:05.656Z</time>
      </trkpt>
      <trkpt lat="54.19988" lon="15.67338">
        <ele>40.31693</ele>
        <time>2024-07-28T10:25:09.664Z</time>
      </trkpt>
      <trkpt lat="54.1999" lon="15.67353">
        <ele>40.327116</ele>
        <time>2024-07-28T10:25:12.659Z</time>
      </trkpt>
      <trkpt lat="54.19992" lon="15.67374">
        <ele>40.340931</ele>
        <time>2024-07-28T10:25:15.671Z</time>
      </trkpt>
      <trkpt lat="54.19996" lon="15.67394">
        <ele>40.354634</ele>
        <time>2024-07-28T10:25:18.666Z</time>
      </trkpt>
      <trkpt lat="54.19999" lon="15.67409">
        <ele>40.364808</ele>
        <time>2024-07-28T10:25:20.655Z</time>
      </trkpt>
      <trkpt lat="54.20003" lon="15.67431">
        <ele>40.380208</ele>
        <time>2024-07-28T10:25:23.673Z</time>
      </trkpt>
      <trkpt lat="54.20006" lon="15.67446">
        <ele>40.390541</ele>
        <time>2024-07-28T10:25:25.641Z</time>
      </trkpt>
      <trkpt lat="54.2001" lon="15.67461">
        <ele>40.401445</ele>
        <time>2024-07-28T10:25:27.653Z</time>
      </trkpt>
      <trkpt lat="54.20012" lon="15.67478">
        <ele>40.366738</ele>
        <time>2024-07-28T10:25:29.663Z</time>
      </trkpt>
      <trkpt lat="54.20015" lon="15.67492">
        <ele>40.300337</ele>
        <time>2024-07-28T10:25:31.667Z</time>
      </trkpt>
      <trkpt lat="54.20018" lon="15.67507">
        <ele>40.232476</ele>
        <time>2024-07-28T10:25:33.652Z</time>
      </trkpt>
      <trkpt lat="54.20022" lon="15.67522">
        <ele>40.162178</ele>
        <time>2024-07-28T10:25:35.656Z</time>
      </trkpt>
      <trkpt lat="54.20031" lon="15.67537">
        <ele>40.070888</ele>
        <time>2024-07-28T10:25:38.641Z</time>
      </trkpt>
      <trkpt lat="54.20042" lon="15.67544">
        <ele>39.983636</ele>
        <time>2024-07-28T10:25:41.655Z</time>
      </trkpt>
      <trkpt lat="54.2005" lon="15.67557">
        <ele>39.902126</ele>
        <time>2024-07-28T10:25:44.648Z</time>
      </trkpt>
      <trkpt lat="54.20053" lon="15.67579">
        <ele>39.805819</ele>
        <time>2024-07-28T10:25:47.667Z</time>
      </trkpt>
      <trkpt lat="54.20058" lon="15.67599">
        <ele>39.711627</ele>
        <time>2024-07-28T10:25:50.666Z</time>
      </trkpt>
      <trkpt lat="54.2006" lon="15.67617">
        <ele>39.634935</ele>
        <time>2024-07-28T10:25:53.673Z</time>
      </trkpt>
      <trkpt lat="54.20064" lon="15.67635">
        <ele>39.551208</ele>
        <time>2024-07-28T10:25:56.650Z</time>
      </trkpt>
      <trkpt lat="54.20066" lon="15.6765">
        <ele>39.482012</ele>
        <time>2024-07-28T10:25:58.672Z</time>
      </trkpt>
      <trkpt lat="54.20069" lon="15.67667">
        <ele>39.409254</ele>
        <time>2024-07-28T10:26:00.675Z</time>
      </trkpt>
      <trkpt lat="54.20072" lon="15.67682">
        <ele>39.339814</ele>
        <time>2024-07-28T10:26:02.667Z</time>
      </trkpt>
      <trkpt lat="54.20075" lon="15.67699">
        <ele>39.26529</ele>
        <time>2024-07-28T10:26:04.680Z</time>
      </trkpt>
      <trkpt lat="54.20078" lon="15.67716">
        <ele>39.188617</ele>
        <time>2024-07-28T10:26:06.652Z</time>
      </trkpt>
      <trkpt lat="54.20081" lon="15.67733">
        <ele>39.111324</ele>
        <time>2024-07-28T10:26:08.677Z</time>
      </trkpt>
      <trkpt lat="54.20083" lon="15.67749">
        <ele>39.011599</ele>
        <time>2024-07-28T10:26:10.669Z</time>
      </trkpt>
      <trkpt lat="54.20085" lon="15.67766">
        <ele>38.883461</ele>
        <time>2024-07-28T10:26:12.677Z</time>
      </trkpt>
      <trkpt lat="54.20088" lon="15.67782">
        <ele>38.759503</ele>
        <time>2024-07-28T10:26:14.656Z</time>
      </trkpt>
      <trkpt lat="54.20091" lon="15.67799">
        <ele>38.624537</ele>
        <time>2024-07-28T10:26:16.650Z</time>
      </trkpt>
      <trkpt lat="54.20093" lon="15.67817">
        <ele>38.492061</ele>
        <time>2024-07-28T10:26:18.641Z</time>
      </trkpt>
      <trkpt lat="54.20096" lon="15.67834">
        <ele>38.355641</ele>
        <time>2024-07-28T10:26:20.670Z</time>
      </trkpt>
      <trkpt lat="54.20099" lon="15.67852">
        <ele>38.223513</ele>
        <time>2024-07-28T10:26:22.652Z</time>
      </trkpt>
      <trkpt lat="54.20108" lon="15.67866">
        <ele>38.071417</ele>
        <time>2024-07-28T10:26:25.642Z</time>
      </trkpt>
      <trkpt lat="54.20118" lon="15.6788">
        <ele>37.908872</ele>
        <time>2024-07-28T10:26:28.644Z</time>
      </trkpt>
      <trkpt lat="54.20121" lon="15.67898">
        <ele>37.767851</ele>
        <time>2024-07-28T10:26:30.651Z</time>
      </trkpt>
      <trkpt lat="54.20119" lon="15.67915">
        <ele>37.641158</ele>
        <time>2024-07-28T10:26:32.644Z</time>
      </trkpt>
      <trkpt lat="54.20117" lon="15.67935">
        <ele>37.492957</ele>
        <time>2024-07-28T10:26:35.643Z</time>
      </trkpt>
      <trkpt lat="54.20119" lon="15.67951">
        <ele>37.370298</ele>
        <time>2024-07-28T10:26:37.650Z</time>
      </trkpt>
      <trkpt lat="54.20123" lon="15.67971">
        <ele>37.208246</ele>
        <time>2024-07-28T10:26:40.641Z</time>
      </trkpt>
      <trkpt lat="54.20126" lon="15.67986">
        <ele>37.091331</ele>
        <time>2024-07-28T10:26:42.654Z</time>
      </trkpt>
      <trkpt lat="54.20129" lon="15.68001">
        <ele>36.975238</ele>
        <time>2024-07-28T10:26:44.670Z</time>
      </trkpt>
      <trkpt lat="54.20132" lon="15.68017">
        <ele>36.850561</ele>
        <time>2024-07-28T10:26:46.660Z</time>
      </trkpt>
      <trkpt lat="54.20136" lon="15.68033">
        <ele>36.781836</ele>
        <time>2024-07-28T10:26:48.662Z</time>
      </trkpt>
      <trkpt lat="54.20139" lon="15.68048">
        <ele>36.744885</ele>
        <time>2024-07-28T10:26:50.658Z</time>
      </trkpt>
      <trkpt lat="54.20142" lon="15.68064">
        <ele>36.704966</ele>
        <time>2024-07-28T10:26:52.665Z</time>
      </trkpt>
      <trkpt lat="54.20145" lon="15.6808">
        <ele>36.666123</ele>
        <time>2024-07-28T10:26:54.673Z</time>
      </trkpt>
      <trkpt lat="54.20148" lon="15.68098">
        <ele>36.623896</ele>
        <time>2024-07-28T10:26:56.652Z</time>
      </trkpt>
      <trkpt lat="54.20152" lon="15.68116">
        <ele>36.579888</ele>
        <time>2024-07-28T10:26:58.665Z</time>
      </trkpt>
      <trkpt lat="54.20155" lon="15.68134">
        <ele>36.535771</ele>
        <time>2024-07-28T10:27:00.675Z</time>
      </trkpt>
      <trkpt lat="54.20157" lon="15.68153">
        <ele>36.491754</ele>
        <time>2024-07-28T10:27:02.661Z</time>
      </trkpt>
      <trkpt lat="54.20161" lon="15.68172">
        <ele>36.444629</ele>
        <time>2024-07-28T10:27:04.666Z</time>
      </trkpt>
      <trkpt lat="54.20165" lon="15.6819">
        <ele>36.400621</ele>
        <time>2024-07-28T10:27:06.643Z</time>
      </trkpt>
      <trkpt lat="54.20168" lon="15.68208">
        <ele>36.357108</ele>
        <time>2024-07-28T10:27:08.662Z</time>
      </trkpt>
      <trkpt lat="54.20172" lon="15.68226">
        <ele>36.314463</ele>
        <time>2024-07-28T10:27:10.655Z</time>
      </trkpt>
      <trkpt lat="54.20176" lon="15.68243">
        <ele>36.270826</ele>
        <time>2024-07-28T10:27:12.657Z</time>
      </trkpt>
      <trkpt lat="54.20179" lon="15.68259">
        <ele>36.232682</ele>
        <time>2024-07-28T10:27:14.660Z</time>
      </trkpt>
      <trkpt lat="54.20182" lon="15.68274">
        <ele>36.196512</ele>
        <time>2024-07-28T10:27:16.664Z</time>
      </trkpt>
      <trkpt lat="54.20185" lon="15.6829">
        <ele>36.156593</ele>
        <time>2024-07-28T10:27:18.661Z</time>
      </trkpt>
      <trkpt lat="54.20188" lon="15.68307">
        <ele>36.117551</ele>
        <time>2024-07-28T10:27:20.661Z</time>
      </trkpt>
      <trkpt lat="54.20192" lon="15.68323">
        <ele>36.173863</ele>
        <time>2024-07-28T10:27:22.670Z</time>
      </trkpt>
      <trkpt lat="54.20195" lon="15.68339">
        <ele>36.319252</ele>
        <time>2024-07-28T10:27:24.679Z</time>
      </trkpt>
      <trkpt lat="54.20198" lon="15.68354">
        <ele>36.459011</ele>
        <time>2024-07-28T10:27:26.662Z</time>
      </trkpt>
      <trkpt lat="54.20201" lon="15.68369">
        <ele>36.595565</ele>
        <time>2024-07-28T10:27:28.660Z</time>
      </trkpt>
      <trkpt lat="54.20207" lon="15.68389">
        <ele>36.789432</ele>
        <time>2024-07-28T10:27:31.671Z</time>
      </trkpt>
      <trkpt lat="54.20211" lon="15.68408">
        <ele>36.958914</ele>
        <time>2024-07-28T10:27:34.661Z</time>
      </trkpt>
      <trkpt lat="54.20215" lon="15.68426">
        <ele>37.128011</ele>
        <time>2024-07-28T10:27:37.657Z</time>
      </trkpt>
      <trkpt lat="54.20218" lon="15.68441">
        <ele>37.263221</ele>
        <time>2024-07-28T10:27:39.670Z</time>
      </trkpt>
      <trkpt lat="54.2022" lon="15.68457">
        <ele>37.40009</ele>
        <time>2024-07-28T10:27:41.645Z</time>
      </trkpt>
      <trkpt lat="54.20223" lon="15.68472">
        <ele>37.542277</ele>
        <time>2024-07-28T10:27:43.665Z</time>
      </trkpt>
      <trkpt lat="54.20225" lon="15.68489">
        <ele>37.690319</ele>
        <time>2024-07-28T10:27:45.653Z</time>
      </trkpt>
      <trkpt lat="54.20229" lon="15.68505">
        <ele>37.832291</ele>
        <time>2024-07-28T10:27:47.637Z</time>
      </trkpt>
      <trkpt lat="54.20232" lon="15.68521">
        <ele>37.982322</ele>
        <time>2024-07-28T10:27:49.644Z</time>
      </trkpt>
      <trkpt lat="54.20234" lon="15.68538">
        <ele>38.131196</ele>
        <time>2024-07-28T10:27:51.646Z</time>
      </trkpt>
      <trkpt lat="54.20236" lon="15.68556">
        <ele>38.284897</ele>
        <time>2024-07-28T10:27:53.656Z</time>
      </trkpt>
      <trkpt lat="54.20237" lon="15.68574">
        <ele>38.443467</ele>
        <time>2024-07-28T10:27:55.647Z</time>
      </trkpt>
      <trkpt lat="54.20238" lon="15.68595">
        <ele>38.621535</ele>
        <time>2024-07-28T10:27:57.674Z</time>
      </trkpt>
      <trkpt lat="54.20238" lon="15.68615">
        <ele>38.734957</ele>
        <time>2024-07-28T10:27:59.656Z</time>
      </trkpt>
      <trkpt lat="54.2024" lon="15.68633">
        <ele>38.721923</ele>
        <time>2024-07-28T10:28:01.652Z</time>
      </trkpt>
      <trkpt lat="54.20241" lon="15.68651">
        <ele>38.709918</ele>
        <time>2024-07-28T10:28:03.647Z</time>
      </trkpt>
      <trkpt lat="54.20244" lon="15.68667">
        <ele>38.698276</ele>
        <time>2024-07-28T10:28:05.651Z</time>
      </trkpt>
      <trkpt lat="54.20247" lon="15.68683">
        <ele>38.686635</ele>
        <time>2024-07-28T10:28:07.657Z</time>
      </trkpt>
      <trkpt lat="54.20251" lon="15.68697">
        <ele>38.675588</ele>
        <time>2024-07-28T10:28:09.659Z</time>
      </trkpt>
      <trkpt lat="54.20254" lon="15.68713">
        <ele>38.66428</ele>
        <time>2024-07-28T10:28:11.664Z</time>
      </trkpt>
      <trkpt lat="54.20257" lon="15.6873">
        <ele>38.652088</ele>
        <time>2024-07-28T10:28:13.657Z</time>
      </trkpt>
      <trkpt lat="54.20261" lon="15.68746">
        <ele>38.64019</ele>
        <time>2024-07-28T10:28:15.672Z</time>
      </trkpt>
      <trkpt lat="54.20264" lon="15.68762">
        <ele>38.628013</ele>
        <time>2024-07-28T10:28:17.666Z</time>
      </trkpt>
      <trkpt lat="54.20267" lon="15.6878">
        <ele>38.615555</ele>
        <time>2024-07-28T10:28:19.653Z</time>
      </trkpt>
      <trkpt lat="54.2027" lon="15.68798">
        <ele>38.602503</ele>
        <time>2024-07-28T10:28:21.656Z</time>
      </trkpt>
      <trkpt lat="54.20273" lon="15.68817">
        <ele>38.588717</ele>
        <time>2024-07-28T10:28:23.655Z</time>
      </trkpt>
      <trkpt lat="54.20276" lon="15.68836">
        <ele>38.575398</ele>
        <time>2024-07-28T10:28:25.672Z</time>
      </trkpt>
      <trkpt lat="54.2028" lon="15.68854">
        <ele>38.562209</ele>
        <time>2024-07-28T10:28:27.652Z</time>
      </trkpt>
      <trkpt lat="54.20283" lon="15.68871">
        <ele>38.550115</ele>
        <time>2024-07-28T10:28:29.670Z</time>
      </trkpt>
      <trkpt lat="54.20285" lon="15.68887">
        <ele>38.538646</ele>
        <time>2024-07-28T10:28:31.678Z</time>
      </trkpt>
      <trkpt lat="54.20289" lon="15.68908">
        <ele>38.518215</ele>
        <time>2024-07-28T10:28:34.659Z</time>
      </trkpt>
      <trkpt lat="54.20293" lon="15.68927">
        <ele>38.484077</ele>
        <time>2024-07-28T10:28:37.666Z</time>
      </trkpt>
      <trkpt lat="54.20297" lon="15.68942">
        <ele>38.458343</ele>
        <time>2024-07-28T10:28:39.679Z</time>
      </trkpt>
      <trkpt lat="54.203" lon="15.68957">
        <ele>38.431826</ele>
        <time>2024-07-28T10:28:41.652Z</time>
      </trkpt>
      <trkpt lat="54.20303" lon="15.68972">
        <ele>38.405935</ele>
        <time>2024-07-28T10:28:43.668Z</time>
      </trkpt>
      <trkpt lat="54.20308" lon="15.68993">
        <ele>38.368457</ele>
        <time>2024-07-28T10:28:46.670Z</time>
      </trkpt>
      <trkpt lat="54.20312" lon="15.69007">
        <ele>38.342107</ele>
        <time>2024-07-28T10:28:48.679Z</time>
      </trkpt>
      <trkpt lat="54.20315" lon="15.69024">
        <ele>38.311957</ele>
        <time>2024-07-28T10:28:50.682Z</time>
      </trkpt>
      <trkpt lat="54.20319" lon="15.69041">
        <ele>38.282541</ele>
        <time>2024-07-28T10:28:52.674Z</time>
      </trkpt>
      <trkpt lat="54.20322" lon="15.69059">
        <ele>38.251187</ele>
        <time>2024-07-28T10:28:54.658Z</time>
      </trkpt>
      <trkpt lat="54.20326" lon="15.69075">
        <ele>38.222076</ele>
        <time>2024-07-28T10:28:56.644Z</time>
      </trkpt>
      <trkpt lat="54.2033" lon="15.69091">
        <ele>38.193882</ele>
        <time>2024-07-28T10:28:58.661Z</time>
      </trkpt>
      <trkpt lat="54.20334" lon="15.69107">
        <ele>38.165903</ele>
        <time>2024-07-28T10:29:00.655Z</time>
      </trkpt>
      <trkpt lat="54.20337" lon="15.69123">
        <ele>38.137028</ele>
        <time>2024-07-28T10:29:02.644Z</time>
      </trkpt>
      <trkpt lat="54.20341" lon="15.69145">
        <ele>38.099342</ele>
        <time>2024-07-28T10:29:05.655Z</time>
      </trkpt>
      <trkpt lat="54.20344" lon="15.6916">
        <ele>38.072265</ele>
        <time>2024-07-28T10:29:07.656Z</time>
      </trkpt>
      <trkpt lat="54.20348" lon="15.69175">
        <ele>38.04552</ele>
        <time>2024-07-28T10:29:09.657Z</time>
      </trkpt>
      <trkpt lat="54.20351" lon="15.69191">
        <ele>38.018756</ele>
        <time>2024-07-28T10:29:11.673Z</time>
      </trkpt>
      <trkpt lat="54.20353" lon="15.69213">
        <ele>37.878234</ele>
        <time>2024-07-28T10:29:14.654Z</time>
      </trkpt>
      <trkpt lat="54.20356" lon="15.69235">
        <ele>37.73904</ele>
        <time>2024-07-28T10:29:17.658Z</time>
      </trkpt>
      <trkpt lat="54.20361" lon="15.69254">
        <ele>37.611059</ele>
        <time>2024-07-28T10:29:20.656Z</time>
      </trkpt>
      <trkpt lat="54.20365" lon="15.6927">
        <ele>37.501619</ele>
        <time>2024-07-28T10:29:22.668Z</time>
      </trkpt>
      <trkpt lat="54.20369" lon="15.69286">
        <ele>37.392947</ele>
        <time>2024-07-28T10:29:24.666Z</time>
      </trkpt>
      <trkpt lat="54.20372" lon="15.69301">
        <ele>37.29546</ele>
        <time>2024-07-28T10:29:26.640Z</time>
      </trkpt>
      <trkpt lat="54.20375" lon="15.69317">
        <ele>37.192804</ele>
        <time>2024-07-28T10:29:28.673Z</time>
      </trkpt>
      <trkpt lat="54.20378" lon="15.69332">
        <ele>37.089333</ele>
        <time>2024-07-28T10:29:30.657Z</time>
      </trkpt>
      <trkpt lat="54.20381" lon="15.69348">
        <ele>36.989596</ele>
        <time>2024-07-28T10:29:32.673Z</time>
      </trkpt>
      <trkpt lat="54.20383" lon="15.69363">
        <ele>36.89146</ele>
        <time>2024-07-28T10:29:34.670Z</time>
      </trkpt>
      <trkpt lat="54.20385" lon="15.69385">
        <ele>36.750901</ele>
        <time>2024-07-28T10:29:37.673Z</time>
      </trkpt>
      <trkpt lat="54.20388" lon="15.69401">
        <ele>36.652115</ele>
        <time>2024-07-28T10:29:39.659Z</time>
      </trkpt>
      <trkpt lat="54.20391" lon="15.69417">
        <ele>36.54381</ele>
        <time>2024-07-28T10:29:41.666Z</time>
      </trkpt>
      <trkpt lat="54.20393" lon="15.69434">
        <ele>36.441118</ele>
        <time>2024-07-28T10:29:43.661Z</time>
      </trkpt>
      <trkpt lat="54.20395" lon="15.6945">
        <ele>36.337021</ele>
        <time>2024-07-28T10:29:45.653Z</time>
      </trkpt>
      <trkpt lat="54.20398" lon="15.69466">
        <ele>36.231924</ele>
        <time>2024-07-28T10:29:47.656Z</time>
      </trkpt>
      <trkpt lat="54.20402" lon="15.69489">
        <ele>36.166648</ele>
        <time>2024-07-28T10:29:50.660Z</time>
      </trkpt>
      <trkpt lat="54.20406" lon="15.69504">
        <ele>36.400663</ele>
        <time>2024-07-28T10:29:52.673Z</time>
      </trkpt>
      <trkpt lat="54.20409" lon="15.69521">
        <ele>36.659861</ele>
        <time>2024-07-28T10:29:54.672Z</time>
      </trkpt>
      <trkpt lat="54.20414" lon="15.69539">
        <ele>36.930672</ele>
        <time>2024-07-28T10:29:56.661Z</time>
      </trkpt>
      <trkpt lat="54.20419" lon="15.69552">
        <ele>37.166284</ele>
        <time>2024-07-28T10:29:58.658Z</time>
      </trkpt>
      <trkpt lat="54.2043" lon="15.69565">
        <ele>37.493286</ele>
        <time>2024-07-28T10:30:01.659Z</time>
      </trkpt>
      <trkpt lat="54.20438" lon="15.69573">
        <ele>37.714614</ele>
        <time>2024-07-28T10:30:03.637Z</time>
      </trkpt>
      <trkpt lat="54.20448" lon="15.6958">
        <ele>37.969594</ele>
        <time>2024-07-28T10:30:05.640Z</time>
      </trkpt>
      <trkpt lat="54.20457" lon="15.69589">
        <ele>38.224141</ele>
        <time>2024-07-28T10:30:07.653Z</time>
      </trkpt>
      <trkpt lat="54.20462" lon="15.69609">
        <ele>38.549411</ele>
        <time>2024-07-28T10:30:10.646Z</time>
      </trkpt>
      <trkpt lat="54.20465" lon="15.69626">
        <ele>38.788701</ele>
        <time>2024-07-28T10:30:12.664Z</time>
      </trkpt>
      <trkpt lat="54.20464" lon="15.69648">
        <ele>39.106092</ele>
        <time>2024-07-28T10:30:15.647Z</time>
      </trkpt>
      <trkpt lat="54.20461" lon="15.69663">
        <ele>39.335238</ele>
        <time>2024-07-28T10:30:17.649Z</time>
      </trkpt>
      <trkpt lat="54.2046" lon="15.69679">
        <ele>39.572119</ele>
        <time>2024-07-28T10:30:19.636Z</time>
      </trkpt>
      <trkpt lat="54.20459" lon="15.69696">
        <ele>39.814898</ele>
        <time>2024-07-28T10:30:21.655Z</time>
      </trkpt>
      <trkpt lat="54.20458" lon="15.69713">
        <ele>40.056956</ele>
        <time>2024-07-28T10:30:23.664Z</time>
      </trkpt>
      <trkpt lat="54.20457" lon="15.69736">
        <ele>40.388454</ele>
        <time>2024-07-28T10:30:26.649Z</time>
      </trkpt>
      <trkpt lat="54.20459" lon="15.69757">
        <ele>40.499926</ele>
        <time>2024-07-28T10:30:29.656Z</time>
      </trkpt>
      <trkpt lat="54.20464" lon="15.69772">
        <ele>40.486259</ele>
        <time>2024-07-28T10:30:31.654Z</time>
      </trkpt>
      <trkpt lat="54.20472" lon="15.69788">
        <ele>40.469379</ele>
        <time>2024-07-28T10:30:34.654Z</time>
      </trkpt>
      <trkpt lat="54.20476" lon="15.69807">
        <ele>40.45244</ele>
        <time>2024-07-28T10:30:37.649Z</time>
      </trkpt>
      <trkpt lat="54.20478" lon="15.69823">
        <ele>40.438831</ele>
        <time>2024-07-28T10:30:39.650Z</time>
      </trkpt>
      <trkpt lat="54.20482" lon="15.6984">
        <ele>40.424338</ele>
        <time>2024-07-28T10:30:41.654Z</time>
      </trkpt>
      <trkpt lat="54.20487" lon="15.69853">
        <ele>40.411302</ele>
        <time>2024-07-28T10:30:43.645Z</time>
      </trkpt>
      <trkpt lat="54.20494" lon="15.69872">
        <ele>40.393238</ele>
        <time>2024-07-28T10:30:46.645Z</time>
      </trkpt>
      <trkpt lat="54.20494" lon="15.69889">
        <ele>40.379292</ele>
        <time>2024-07-28T10:30:49.651Z</time>
      </trkpt>
      <trkpt lat="54.20494" lon="15.69907">
        <ele>40.364349</ele>
        <time>2024-07-28T10:30:52.660Z</time>
      </trkpt>
      <trkpt lat="54.20492" lon="15.69924">
        <ele>40.34998</ele>
        <time>2024-07-28T10:30:54.676Z</time>
      </trkpt>
      <trkpt lat="54.20491" lon="15.69942">
        <ele>40.335626</ele>
        <time>2024-07-28T10:30:56.656Z</time>
      </trkpt>
      <trkpt lat="54.2049" lon="15.69963">
        <ele>40.318264</ele>
        <time>2024-07-28T10:30:59.648Z</time>
      </trkpt>
      <trkpt lat="54.20488" lon="15.69979">
        <ele>40.304255</ele>
        <time>2024-07-28T10:31:01.635Z</time>
      </trkpt>
      <trkpt lat="54.20488" lon="15.69998">
        <ele>40.288662</ele>
        <time>2024-07-28T10:31:03.658Z</time>
      </trkpt>
      <trkpt lat="54.20489" lon="15.70016">
        <ele>40.27402</ele>
        <time>2024-07-28T10:31:05.643Z</time>
      </trkpt>
      <trkpt lat="54.20492" lon="15.70036">
        <ele>40.259213</ele>
        <time>2024-07-28T10:31:08.659Z</time>
      </trkpt>
      <trkpt lat="54.20496" lon="15.70058">
        <ele>40.272643</ele>
        <time>2024-07-28T10:31:11.638Z</time>
      </trkpt>
      <trkpt lat="54.20502" lon="15.70076">
        <ele>40.284334</ele>
        <time>2024-07-28T10:31:13.652Z</time>
      </trkpt>
      <trkpt lat="54.20506" lon="15.70094">
        <ele>40.295611</ele>
        <time>2024-07-28T10:31:15.635Z</time>
      </trkpt>
      <trkpt lat="54.20511" lon="15.70112">
        <ele>40.306909</ele>
        <time>2024-07-28T10:31:17.652Z</time>
      </trkpt>
      <trkpt lat="54.20516" lon="15.7013">
        <ele>40.318829</ele>
        <time>2024-07-28T10:31:19.646Z</time>
      </trkpt>
      <trkpt lat="54.20521" lon="15.70149">
        <ele>40.331011</ele>
        <time>2024-07-28T10:31:21.648Z</time>
      </trkpt>
      <trkpt lat="54.20526" lon="15.70168">
        <ele>40.342864</ele>
        <time>2024-07-28T10:31:23.660Z</time>
      </trkpt>
      <trkpt lat="54.2053" lon="15.70187">
        <ele>40.354194</ele>
        <time>2024-07-28T10:31:25.662Z</time>
      </trkpt>
      <trkpt lat="54.20533" lon="15.70204">
        <ele>40.364998</ele>
        <time>2024-07-28T10:31:27.656Z</time>
      </trkpt>
      <trkpt lat="54.20534" lon="15.70222">
        <ele>40.375179</ele>
        <time>2024-07-28T10:31:29.660Z</time>
      </trkpt>
      <trkpt lat="54.20532" lon="15.70238">
        <ele>40.38485</ele>
        <time>2024-07-28T10:31:31.650Z</time>
      </trkpt>
      <trkpt lat="54.20531" lon="15.70254">
        <ele>40.393991</ele>
        <time>2024-07-28T10:31:33.640Z</time>
      </trkpt>
      <trkpt lat="54.2053" lon="15.7027">
        <ele>40.40314</ele>
        <time>2024-07-28T10:31:35.639Z</time>
      </trkpt>
      <trkpt lat="54.20532" lon="15.70285">
        <ele>40.412148</ele>
        <time>2024-07-28T10:31:37.644Z</time>
      </trkpt>
      <trkpt lat="54.20538" lon="15.70301">
        <ele>40.422831</ele>
        <time>2024-07-28T10:31:39.649Z</time>
      </trkpt>
      <trkpt lat="54.20543" lon="15.70316">
        <ele>40.432881</ele>
        <time>2024-07-28T10:31:41.652Z</time>
      </trkpt>
      <trkpt lat="54.20546" lon="15.70332">
        <ele>40.433278</ele>
        <time>2024-07-28T10:31:43.648Z</time>
      </trkpt>
      <trkpt lat="54.20551" lon="15.70347">
        <ele>40.428779</ele>
        <time>2024-07-28T10:31:45.651Z</time>
      </trkpt>
      <trkpt lat="54.20557" lon="15.70368">
        <ele>40.42286</ele>
        <time>2024-07-28T10:31:48.656Z</time>
      </trkpt>
      <trkpt lat="54.20562" lon="15.70386">
        <ele>40.41769</ele>
        <time>2024-07-28T10:31:51.667Z</time>
      </trkpt>
      <trkpt lat="54.20567" lon="15.70403">
        <ele>40.412731</ele>
        <time>2024-07-28T10:31:54.666Z</time>
      </trkpt>
      <trkpt lat="54.20572" lon="15.70418">
        <ele>40.408165</ele>
        <time>2024-07-28T10:31:57.653Z</time>
      </trkpt>
      <trkpt lat="54.20575" lon="15.70435">
        <ele>40.403773</ele>
        <time>2024-07-28T10:32:00.647Z</time>
      </trkpt>
      <trkpt lat="54.20579" lon="15.70453">
        <ele>40.398565</ele>
        <time>2024-07-28T10:32:03.655Z</time>
      </trkpt>
      <trkpt lat="54.20584" lon="15.70472">
        <ele>40.393259</ele>
        <time>2024-07-28T10:32:06.646Z</time>
      </trkpt>
      <trkpt lat="54.20589" lon="15.70493">
        <ele>40.387494</ele>
        <time>2024-07-28T10:32:09.653Z</time>
      </trkpt>
      <trkpt lat="54.20593" lon="15.70514">
        <ele>40.381673</ele>
        <time>2024-07-28T10:32:12.672Z</time>
      </trkpt>
      <trkpt lat="54.20598" lon="15.70534">
        <ele>40.376104</ele>
        <time>2024-07-28T10:32:15.656Z</time>
      </trkpt>
      <trkpt lat="54.20604" lon="15.70554">
        <ele>40.370305</ele>
        <time>2024-07-28T10:32:18.668Z</time>
      </trkpt>
      <trkpt lat="54.20607" lon="15.70573">
        <ele>40.365191</ele>
        <time>2024-07-28T10:32:21.664Z</time>
      </trkpt>
      <trkpt lat="54.20612" lon="15.70593">
        <ele>40.359506</ele>
        <time>2024-07-28T10:32:24.673Z</time>
      </trkpt>
      <trkpt lat="54.20616" lon="15.70611">
        <ele>40.321099</ele>
        <time>2024-07-28T10:32:27.660Z</time>
      </trkpt>
      <trkpt lat="54.2062" lon="15.7063">
        <ele>40.2323</ele>
        <time>2024-07-28T10:32:30.653Z</time>
      </trkpt>
      <trkpt lat="54.20623" lon="15.70646">
        <ele>40.151033</ele>
        <time>2024-07-28T10:32:33.660Z</time>
      </trkpt>
      <trkpt lat="54.20627" lon="15.70664">
        <ele>40.066353</ele>
        <time>2024-07-28T10:32:36.643Z</time>
      </trkpt>
      <trkpt lat="54.20632" lon="15.70684">
        <ele>39.967136</ele>
        <time>2024-07-28T10:32:39.645Z</time>
      </trkpt>
      <trkpt lat="54.20636" lon="15.70706">
        <ele>39.86391</ele>
        <time>2024-07-28T10:32:42.637Z</time>
      </trkpt>
      <trkpt lat="54.2064" lon="15.70724">
        <ele>39.773881</ele>
        <time>2024-07-28T10:32:45.678Z</time>
      </trkpt>
      <trkpt lat="54.20644" lon="15.70743">
        <ele>39.682575</ele>
        <time>2024-07-28T10:32:48.638Z</time>
      </trkpt>
      <trkpt lat="54.20646" lon="15.70759">
        <ele>39.609899</ele>
        <time>2024-07-28T10:32:50.664Z</time>
      </trkpt>
      <trkpt lat="54.20651" lon="15.70779">
        <ele>39.511109</ele>
        <time>2024-07-28T10:32:53.653Z</time>
      </trkpt>
      <trkpt lat="54.20653" lon="15.70796">
        <ele>39.430266</ele>
        <time>2024-07-28T10:32:55.659Z</time>
      </trkpt>
      <trkpt lat="54.20657" lon="15.70813">
        <ele>39.347262</ele>
        <time>2024-07-28T10:32:57.674Z</time>
      </trkpt>
      <trkpt lat="54.2066" lon="15.70831">
        <ele>39.262289</ele>
        <time>2024-07-28T10:32:59.656Z</time>
      </trkpt>
      <trkpt lat="54.20664" lon="15.70849">
        <ele>39.176642</ele>
        <time>2024-07-28T10:33:01.657Z</time>
      </trkpt>
      <trkpt lat="54.20668" lon="15.70866">
        <ele>39.090683</ele>
        <time>2024-07-28T10:33:03.655Z</time>
      </trkpt>
      <trkpt lat="54.20672" lon="15.70884">
        <ele>39.001906</ele>
        <time>2024-07-28T10:33:05.660Z</time>
      </trkpt>
      <trkpt lat="54.20677" lon="15.70903">
        <ele>39.011031</ele>
        <time>2024-07-28T10:33:07.672Z</time>
      </trkpt>
      <trkpt lat="54.20681" lon="15.7092">
        <ele>39.114299</ele>
        <time>2024-07-28T10:33:09.651Z</time>
      </trkpt>
      <trkpt lat="54.20684" lon="15.70939">
        <ele>39.218178</ele>
        <time>2024-07-28T10:33:11.669Z</time>
      </trkpt>
      <trkpt lat="54.20688" lon="15.70956">
        <ele>39.316063</ele>
        <time>2024-07-28T10:33:13.657Z</time>
      </trkpt>
      <trkpt lat="54.20692" lon="15.70973">
        <ele>39.417648</ele>
        <time>2024-07-28T10:33:15.649Z</time>
      </trkpt>
      <trkpt lat="54.20695" lon="15.7099">
        <ele>39.518078</ele>
        <time>2024-07-28T10:33:17.661Z</time>
      </trkpt>
      <trkpt lat="54.207" lon="15.71007">
        <ele>39.61805</ele>
        <time>2024-07-28T10:33:19.650Z</time>
      </trkpt>
      <trkpt lat="54.20704" lon="15.71025">
        <ele>39.723114</ele>
        <time>2024-07-28T10:33:21.654Z</time>
      </trkpt>
      <trkpt lat="54.20709" lon="15.71042">
        <ele>39.825446</ele>
        <time>2024-07-28T10:33:23.657Z</time>
      </trkpt>
      <trkpt lat="54.20713" lon="15.7106">
        <ele>39.926197</ele>
        <time>2024-07-28T10:33:25.655Z</time>
      </trkpt>
      <trkpt lat="54.20717" lon="15.71077">
        <ele>40.026446</ele>
        <time>2024-07-28T10:33:27.655Z</time>
      </trkpt>
      <trkpt lat="54.20721" lon="15.71094">
        <ele>40.124331</ele>
        <time>2024-07-28T10:33:29.662Z</time>
      </trkpt>
      <trkpt lat="54.20724" lon="15.71109">
        <ele>40.21362</ele>
        <time>2024-07-28T10:33:31.652Z</time>
      </trkpt>
      <trkpt lat="54.20727" lon="15.71124">
        <ele>40.299099</ele>
        <time>2024-07-28T10:33:33.654Z</time>
      </trkpt>
      <trkpt lat="54.2073" lon="15.71147">
        <ele>40.426731</ele>
        <time>2024-07-28T10:33:36.644Z</time>
      </trkpt>
      <trkpt lat="54.20733" lon="15.71161">
        <ele>40.510592</ele>
        <time>2024-07-28T10:33:38.660Z</time>
      </trkpt>
      <trkpt lat="54.20737" lon="15.71176">
        <ele>40.594543</ele>
        <time>2024-07-28T10:33:40.657Z</time>
      </trkpt>
      <trkpt lat="54.2074" lon="15.7119">
        <ele>40.672256</ele>
        <time>2024-07-28T10:33:42.667Z</time>
      </trkpt>
      <trkpt lat="54.20743" lon="15.71205">
        <ele>40.748611</ele>
        <time>2024-07-28T10:33:44.635Z</time>
      </trkpt>
      <trkpt lat="54.20746" lon="15.71227">
        <ele>40.85344</ele>
        <time>2024-07-28T10:33:47.672Z</time>
      </trkpt>
      <trkpt lat="54.20749" lon="15.71248">
        <ele>40.959076</ele>
        <time>2024-07-28T10:33:50.662Z</time>
      </trkpt>
      <trkpt lat="54.20754" lon="15.71269">
        <ele>41.064561</ele>
        <time>2024-07-28T10:33:53.650Z</time>
      </trkpt>
      <trkpt lat="54.20758" lon="15.7129">
        <ele>41.173617</ele>
        <time>2024-07-28T10:33:56.637Z</time>
      </trkpt>
      <trkpt lat="54.20762" lon="15.71313">
        <ele>41.282731</ele>
        <time>2024-07-28T10:33:59.654Z</time>
      </trkpt>
      <trkpt lat="54.20766" lon="15.71334">
        <ele>41.390338</ele>
        <time>2024-07-28T10:34:02.672Z</time>
      </trkpt>
      <trkpt lat="54.2077" lon="15.71355">
        <ele>41.494126</ele>
        <time>2024-07-28T10:34:05.661Z</time>
      </trkpt>
      <trkpt lat="54.20774" lon="15.71377">
        <ele>41.603209</ele>
        <time>2024-07-28T10:34:08.663Z</time>
      </trkpt>
      <trkpt lat="54.20777" lon="15.71392">
        <ele>41.68025</ele>
        <time>2024-07-28T10:34:10.662Z</time>
      </trkpt>
      <trkpt lat="54.20779" lon="15.71407">
        <ele>41.756163</ele>
        <time>2024-07-28T10:34:12.677Z</time>
      </trkpt>
      <trkpt lat="54.20784" lon="15.71429">
        <ele>41.865119</ele>
        <time>2024-07-28T10:34:15.665Z</time>
      </trkpt>
      <trkpt lat="54.20786" lon="15.71444">
        <ele>41.938515</ele>
        <time>2024-07-28T10:34:17.654Z</time>
      </trkpt>
      <trkpt lat="54.20791" lon="15.71465">
        <ele>42.047851</ele>
        <time>2024-07-28T10:34:20.650Z</time>
      </trkpt>
      <trkpt lat="54.20794" lon="15.71481">
        <ele>42.153753</ele>
        <time>2024-07-28T10:34:22.655Z</time>
      </trkpt>
      <trkpt lat="54.20797" lon="15.71495">
        <ele>42.295921</ele>
        <time>2024-07-28T10:34:24.675Z</time>
      </trkpt>
      <trkpt lat="54.208" lon="15.7151">
        <ele>42.435154</ele>
        <time>2024-07-28T10:34:26.654Z</time>
      </trkpt>
      <trkpt lat="54.20804" lon="15.71532">
        <ele>42.640986</ele>
        <time>2024-07-28T10:34:29.677Z</time>
      </trkpt>
      <trkpt lat="54.20807" lon="15.71547">
        <ele>42.780571</ele>
        <time>2024-07-28T10:34:31.655Z</time>
      </trkpt>
      <trkpt lat="54.20811" lon="15.71568">
        <ele>42.973994</ele>
        <time>2024-07-28T10:34:34.680Z</time>
      </trkpt>
      <trkpt lat="54.20815" lon="15.71587">
        <ele>43.154327</ele>
        <time>2024-07-28T10:34:37.659Z</time>
      </trkpt>
      <trkpt lat="54.20819" lon="15.71604">
        <ele>43.322167</ele>
        <time>2024-07-28T10:34:40.664Z</time>
      </trkpt>
      <trkpt lat="54.20823" lon="15.71619">
        <ele>43.463579</ele>
        <time>2024-07-28T10:34:43.662Z</time>
      </trkpt>
      <trkpt lat="54.20827" lon="15.71633">
        <ele>43.607092</ele>
        <time>2024-07-28T10:34:47.654Z</time>
      </trkpt>
      <trkpt lat="54.20827" lon="15.71657">
        <ele>43.817806</ele>
        <time>2024-07-28T10:35:17.665Z</time>
      </trkpt>
      <trkpt lat="54.20833" lon="15.71673">
        <ele>43.983551</ele>
        <time>2024-07-28T10:35:21.653Z</time>
      </trkpt>
      <trkpt lat="54.20838" lon="15.71689">
        <ele>44.141117</ele>
        <time>2024-07-28T10:35:24.665Z</time>
      </trkpt>
      <trkpt lat="54.2084" lon="15.71711">
        <ele>44.334522</ele>
        <time>2024-07-28T10:35:27.643Z</time>
      </trkpt>
      <trkpt lat="54.20844" lon="15.71729">
        <ele>44.512042</ele>
        <time>2024-07-28T10:35:30.657Z</time>
      </trkpt>
      <trkpt lat="54.20849" lon="15.71748">
        <ele>44.697551</ele>
        <time>2024-07-28T10:35:33.673Z</time>
      </trkpt>
      <trkpt lat="54.20853" lon="15.71767">
        <ele>44.779581</ele>
        <time>2024-07-28T10:35:36.656Z</time>
      </trkpt>
      <trkpt lat="54.20856" lon="15.71785">
        <ele>44.631477</ele>
        <time>2024-07-28T10:35:38.658Z</time>
      </trkpt>
      <trkpt lat="54.20861" lon="15.71801">
        <ele>44.496508</ele>
        <time>2024-07-28T10:35:40.635Z</time>
      </trkpt>
      <trkpt lat="54.20865" lon="15.71824">
        <ele>44.308001</ele>
        <time>2024-07-28T10:35:43.640Z</time>
      </trkpt>
      <trkpt lat="54.20871" lon="15.71845">
        <ele>44.124375</ele>
        <time>2024-07-28T10:35:46.633Z</time>
      </trkpt>
      <trkpt lat="54.20874" lon="15.7186">
        <ele>44.001445</ele>
        <time>2024-07-28T10:35:48.652Z</time>
      </trkpt>
      <trkpt lat="54.20877" lon="15.71875">
        <ele>43.876407</ele>
        <time>2024-07-28T10:35:50.665Z</time>
      </trkpt>
      <trkpt lat="54.2088" lon="15.71891">
        <ele>43.746761</ele>
        <time>2024-07-28T10:35:52.673Z</time>
      </trkpt>
      <trkpt lat="54.20883" lon="15.71909">
        <ele>43.602035</ele>
        <time>2024-07-28T10:35:55.636Z</time>
      </trkpt>
      <trkpt lat="54.20887" lon="15.71926">
        <ele>43.456712</ele>
        <time>2024-07-28T10:35:58.650Z</time>
      </trkpt>
      <trkpt lat="54.20892" lon="15.71942">
        <ele>43.318013</ele>
        <time>2024-07-28T10:36:01.657Z</time>
      </trkpt>
      <trkpt lat="54.20896" lon="15.71957">
        <ele>43.191463</ele>
        <time>2024-07-28T10:36:04.647Z</time>
      </trkpt>
      <trkpt lat="54.20899" lon="15.71973">
        <ele>43.063193</ele>
        <time>2024-07-28T10:36:11.662Z</time>
      </trkpt>
      <trkpt lat="54.20904" lon="15.71991">
        <ele>42.902557</ele>
        <time>2024-07-28T10:36:31.661Z</time>
      </trkpt>
      <trkpt lat="54.20907" lon="15.72006">
        <ele>42.779973</ele>
        <time>2024-07-28T10:36:34.660Z</time>
      </trkpt>
      <trkpt lat="54.2091" lon="15.72023">
        <ele>42.643225</ele>
        <time>2024-07-28T10:36:37.664Z</time>
      </trkpt>
      <trkpt lat="54.20914" lon="15.72041">
        <ele>42.495496</ele>
        <time>2024-07-28T10:36:40.658Z</time>
      </trkpt>
      <trkpt lat="54.2092" lon="15.72061">
        <ele>42.40227</ele>
        <time>2024-07-28T10:36:43.655Z</time>
      </trkpt>
      <trkpt lat="54.20923" lon="15.72076">
        <ele>42.36939</ele>
        <time>2024-07-28T10:36:45.670Z</time>
      </trkpt>
      <trkpt lat="54.20927" lon="15.72091">
        <ele>42.337122</ele>
        <time>2024-07-28T10:36:47.662Z</time>
      </trkpt>
      <trkpt lat="54.2093" lon="15.72106">
        <ele>42.305898</ele>
        <time>2024-07-28T10:36:49.657Z</time>
      </trkpt>
      <trkpt lat="54.20934" lon="15.72126">
        <ele>42.264219</ele>
        <time>2024-07-28T10:36:52.662Z</time>
      </trkpt>
      <trkpt lat="54.20939" lon="15.72145">
        <ele>42.222946</ele>
        <time>2024-07-28T10:36:55.655Z</time>
      </trkpt>
      <trkpt lat="54.20944" lon="15.72166">
        <ele>42.178015</ele>
        <time>2024-07-28T10:36:58.670Z</time>
      </trkpt>
      <trkpt lat="54.20947" lon="15.72181">
        <ele>42.147233</ele>
        <time>2024-07-28T10:37:00.657Z</time>
      </trkpt>
      <trkpt lat="54.20951" lon="15.72203">
        <ele>42.10219</ele>
        <time>2024-07-28T10:37:03.656Z</time>
      </trkpt>
      <trkpt lat="54.20954" lon="15.72218">
        <ele>42.070927</ele>
        <time>2024-07-28T10:37:05.657Z</time>
      </trkpt>
      <trkpt lat="54.20957" lon="15.72233">
        <ele>42.039259</ele>
        <time>2024-07-28T10:37:07.664Z</time>
      </trkpt>
      <trkpt lat="54.2096" lon="15.72248">
        <ele>42.006871</ele>
        <time>2024-07-28T10:37:09.655Z</time>
      </trkpt>
      <trkpt lat="54.20964" lon="15.72263">
        <ele>41.974656</ele>
        <time>2024-07-28T10:37:11.661Z</time>
      </trkpt>
      <trkpt lat="54.20969" lon="15.72284">
        <ele>41.929841</ele>
        <time>2024-07-28T10:37:14.663Z</time>
      </trkpt>
      <trkpt lat="54.20972" lon="15.72299">
        <ele>41.898927</ele>
        <time>2024-07-28T10:37:16.647Z</time>
      </trkpt>
      <trkpt lat="54.20977" lon="15.72318">
        <ele>41.855908</ele>
        <time>2024-07-28T10:37:19.659Z</time>
      </trkpt>
      <trkpt lat="54.20981" lon="15.72338">
        <ele>41.800933</ele>
        <time>2024-07-28T10:37:22.675Z</time>
      </trkpt>
      <trkpt lat="54.20984" lon="15.72358">
        <ele>41.631939</ele>
        <time>2024-07-28T10:37:25.658Z</time>
      </trkpt>
      <trkpt lat="54.20986" lon="15.72376">
        <ele>41.481046</ele>
        <time>2024-07-28T10:37:28.661Z</time>
      </trkpt>
      <trkpt lat="54.2099" lon="15.72397">
        <ele>41.306847</ele>
        <time>2024-07-28T10:37:31.664Z</time>
      </trkpt>
      <trkpt lat="54.20995" lon="15.72418">
        <ele>41.129171</ele>
        <time>2024-07-28T10:37:34.667Z</time>
      </trkpt>
      <trkpt lat="54.21" lon="15.72437">
        <ele>40.959851</ele>
        <time>2024-07-28T10:37:37.668Z</time>
      </trkpt>
      <trkpt lat="54.21004" lon="15.72458">
        <ele>40.780174</ele>
        <time>2024-07-28T10:37:40.648Z</time>
      </trkpt>
      <trkpt lat="54.21009" lon="15.72472">
        <ele>40.65494</ele>
        <time>2024-07-28T10:37:42.661Z</time>
      </trkpt>
      <trkpt lat="54.21011" lon="15.72487">
        <ele>40.531031</ele>
        <time>2024-07-28T10:37:44.648Z</time>
      </trkpt>
      <trkpt lat="54.21014" lon="15.72503">
        <ele>40.399874</ele>
        <time>2024-07-28T10:37:46.646Z</time>
      </trkpt>
      <trkpt lat="54.21016" lon="15.72518">
        <ele>40.268361</ele>
        <time>2024-07-28T10:37:48.666Z</time>
      </trkpt>
      <trkpt lat="54.2102" lon="15.72534">
        <ele>40.136947</ele>
        <time>2024-07-28T10:37:50.655Z</time>
      </trkpt>
      <trkpt lat="54.21021" lon="15.7255">
        <ele>40.004284</ele>
        <time>2024-07-28T10:37:52.657Z</time>
      </trkpt>
      <trkpt lat="54.21024" lon="15.72565">
        <ele>39.87926</ele>
        <time>2024-07-28T10:37:54.662Z</time>
      </trkpt>
      <trkpt lat="54.21027" lon="15.7258">
        <ele>39.755388</ele>
        <time>2024-07-28T10:37:56.655Z</time>
      </trkpt>
      <trkpt lat="54.21029" lon="15.72601">
        <ele>39.579224</ele>
        <time>2024-07-28T10:37:59.637Z</time>
      </trkpt>
      <trkpt lat="54.21031" lon="15.72617">
        <ele>39.447209</ele>
        <time>2024-07-28T10:38:01.661Z</time>
      </trkpt>
      <trkpt lat="54.21033" lon="15.72634">
        <ele>39.364326</ele>
        <time>2024-07-28T10:38:03.657Z</time>
      </trkpt>
      <trkpt lat="54.21036" lon="15.72651">
        <ele>39.390383</ele>
        <time>2024-07-28T10:38:05.654Z</time>
      </trkpt>
      <trkpt lat="54.21038" lon="15.72666">
        <ele>39.413991</ele>
        <time>2024-07-28T10:38:07.673Z</time>
      </trkpt>
      <trkpt lat="54.21042" lon="15.72687">
        <ele>39.446313</ele>
        <time>2024-07-28T10:38:10.669Z</time>
      </trkpt>
      <trkpt lat="54.21045" lon="15.72704">
        <ele>39.472229</ele>
        <time>2024-07-28T10:38:12.644Z</time>
      </trkpt>
      <trkpt lat="54.21048" lon="15.72721">
        <ele>39.497681</ele>
        <time>2024-07-28T10:38:14.646Z</time>
      </trkpt>
      <trkpt lat="54.21051" lon="15.72738">
        <ele>39.523957</ele>
        <time>2024-07-28T10:38:16.649Z</time>
      </trkpt>
      <trkpt lat="54.21053" lon="15.72754">
        <ele>39.547347</ele>
        <time>2024-07-28T10:38:18.685Z</time>
      </trkpt>
      <trkpt lat="54.21055" lon="15.72771">
        <ele>39.572583</ele>
        <time>2024-07-28T10:38:20.643Z</time>
      </trkpt>
      <trkpt lat="54.21057" lon="15.72788">
        <ele>39.598441</ele>
        <time>2024-07-28T10:38:22.680Z</time>
      </trkpt>
      <trkpt lat="54.2106" lon="15.72805">
        <ele>39.623692</ele>
        <time>2024-07-28T10:38:24.673Z</time>
      </trkpt>
      <trkpt lat="54.21063" lon="15.72821">
        <ele>39.647927</ele>
        <time>2024-07-28T10:38:26.653Z</time>
      </trkpt>
      <trkpt lat="54.21065" lon="15.72836">
        <ele>39.671809</ele>
        <time>2024-07-28T10:38:28.667Z</time>
      </trkpt>
      <trkpt lat="54.21068" lon="15.72858">
        <ele>39.704927</ele>
        <time>2024-07-28T10:38:31.656Z</time>
      </trkpt>
      <trkpt lat="54.21071" lon="15.72874">
        <ele>39.728211</ele>
        <time>2024-07-28T10:38:33.656Z</time>
      </trkpt>
      <trkpt lat="54.21074" lon="15.72894">
        <ele>39.758623</ele>
        <time>2024-07-28T10:38:36.672Z</time>
      </trkpt>
      <trkpt lat="54.21076" lon="15.72909">
        <ele>39.781966</ele>
        <time>2024-07-28T10:38:40.657Z</time>
      </trkpt>
      <trkpt lat="54.21068" lon="15.72914">
        <ele>39.804516</ele>
        <time>2024-07-28T10:38:56.638Z</time>
      </trkpt>
      <trkpt lat="54.21059" lon="15.72914">
        <ele>39.348524</ele>
        <time>2024-07-28T10:39:01.640Z</time>
      </trkpt>
      <trkpt lat="54.21049" lon="15.72915">
        <ele>38.798449</ele>
        <time>2024-07-28T10:39:06.652Z</time>
      </trkpt>
      <trkpt lat="54.2104" lon="15.72917">
        <ele>38.274461</ele>
        <time>2024-07-28T10:39:28.652Z</time>
      </trkpt>
      <trkpt lat="54.2104" lon="15.72923">
        <ele>38.058915</ele>
        <time>2024-07-28T10:39:49.785Z</time>
      </trkpt>
      <trkpt lat="54.21084" lon="15.72983">
        <ele>34.84069</ele>
        <time>2024-07-28T10:44:17.658Z</time>
      </trkpt>
      <trkpt lat="54.21088" lon="15.73">
        <ele>34.242131</ele>
        <time>2024-07-28T10:44:20.643Z</time>
      </trkpt>
      <trkpt lat="54.21092" lon="15.73021">
        <ele>33.4967</ele>
        <time>2024-07-28T10:44:23.664Z</time>
      </trkpt>
      <trkpt lat="54.21095" lon="15.73036">
        <ele>32.986097</ele>
        <time>2024-07-28T10:44:25.649Z</time>
      </trkpt>
      <trkpt lat="54.21098" lon="15.73052">
        <ele>32.418717</ele>
        <time>2024-07-28T10:44:27.663Z</time>
      </trkpt>
      <trkpt lat="54.211" lon="15.73069">
        <ele>31.846031</ele>
        <time>2024-07-28T10:44:29.647Z</time>
      </trkpt>
      <trkpt lat="54.21104" lon="15.73086">
        <ele>31.269834</ele>
        <time>2024-07-28T10:44:31.646Z</time>
      </trkpt>
      <trkpt lat="54.21107" lon="15.73102">
        <ele>30.713432</ele>
        <time>2024-07-28T10:44:33.647Z</time>
      </trkpt>
      <trkpt lat="54.21109" lon="15.73118">
        <ele>30.160028</ele>
        <time>2024-07-28T10:44:35.653Z</time>
      </trkpt>
      <trkpt lat="54.21112" lon="15.73137">
        <ele>29.650927</ele>
        <time>2024-07-28T10:44:37.645Z</time>
      </trkpt>
      <trkpt lat="54.21116" lon="15.73156">
        <ele>29.818228</ele>
        <time>2024-07-28T10:44:39.660Z</time>
      </trkpt>
      <trkpt lat="54.21119" lon="15.73173">
        <ele>29.968706</ele>
        <time>2024-07-28T10:44:41.668Z</time>
      </trkpt>
      <trkpt lat="54.21122" lon="15.73191">
        <ele>30.123269</ele>
        <time>2024-07-28T10:44:43.675Z</time>
      </trkpt>
      <trkpt lat="54.21125" lon="15.73211">
        <ele>30.286968</ele>
        <time>2024-07-28T10:44:45.654Z</time>
      </trkpt>
      <trkpt lat="54.21128" lon="15.73229">
        <ele>30.441932</ele>
        <time>2024-07-28T10:44:47.677Z</time>
      </trkpt>
      <trkpt lat="54.21131" lon="15.73245">
        <ele>30.581478</ele>
        <time>2024-07-28T10:44:49.643Z</time>
      </trkpt>
      <trkpt lat="54.21133" lon="15.73261">
        <ele>30.719271</ele>
        <time>2024-07-28T10:44:51.641Z</time>
      </trkpt>
      <trkpt lat="54.21135" lon="15.73277">
        <ele>30.850327</ele>
        <time>2024-07-28T10:44:53.649Z</time>
      </trkpt>
      <trkpt lat="54.2114" lon="15.73298">
        <ele>31.033006</ele>
        <time>2024-07-28T10:44:56.640Z</time>
      </trkpt>
      <trkpt lat="54.21143" lon="15.73317">
        <ele>31.197599</ele>
        <time>2024-07-28T10:44:59.658Z</time>
      </trkpt>
      <trkpt lat="54.21146" lon="15.73336">
        <ele>31.36177</ele>
        <time>2024-07-28T10:45:03.647Z</time>
      </trkpt>
      <trkpt lat="54.21149" lon="15.73352">
        <ele>31.501733</ele>
        <time>2024-07-28T10:45:07.669Z</time>
      </trkpt>
      <trkpt lat="54.21153" lon="15.73367">
        <ele>31.631702</ele>
        <time>2024-07-28T10:45:11.638Z</time>
      </trkpt>
      <trkpt lat="54.21158" lon="15.73383">
        <ele>31.785104</ele>
        <time>2024-07-28T10:45:15.672Z</time>
      </trkpt>
      <trkpt lat="54.2116" lon="15.73399">
        <ele>31.91424</ele>
        <time>2024-07-28T10:45:19.648Z</time>
      </trkpt>
      <trkpt lat="54.21163" lon="15.73414">
        <ele>32.046838</ele>
        <time>2024-07-28T10:45:22.672Z</time>
      </trkpt>
      <trkpt lat="54.21167" lon="15.73431">
        <ele>32.168288</ele>
        <time>2024-07-28T10:45:25.657Z</time>
      </trkpt>
      <trkpt lat="54.21171" lon="15.73446">
        <ele>32.207453</ele>
        <time>2024-07-28T10:45:27.668Z</time>
      </trkpt>
      <trkpt lat="54.21177" lon="15.73459">
        <ele>32.246329</ele>
        <time>2024-07-28T10:45:29.668Z</time>
      </trkpt>
      <trkpt lat="54.2118" lon="15.73474">
        <ele>32.285081</ele>
        <time>2024-07-28T10:45:31.659Z</time>
      </trkpt>
      <trkpt lat="54.21184" lon="15.7349">
        <ele>32.325301</ele>
        <time>2024-07-28T10:45:33.668Z</time>
      </trkpt>
      <trkpt lat="54.21189" lon="15.73509">
        <ele>32.374586</ele>
        <time>2024-07-28T10:45:36.650Z</time>
      </trkpt>
      <trkpt lat="54.21193" lon="15.73523">
        <ele>32.411304</ele>
        <time>2024-07-28T10:45:38.661Z</time>
      </trkpt>
      <trkpt lat="54.21196" lon="15.7354">
        <ele>32.454549</ele>
        <time>2024-07-28T10:45:41.658Z</time>
      </trkpt>
      <trkpt lat="54.212" lon="15.73562">
        <ele>32.510503</ele>
        <time>2024-07-28T10:45:44.679Z</time>
      </trkpt>
      <trkpt lat="54.21204" lon="15.73583">
        <ele>32.56144</ele>
        <time>2024-07-28T10:45:46.650Z</time>
      </trkpt>
      <trkpt lat="54.21207" lon="15.73602">
        <ele>32.610304</ele>
        <time>2024-07-28T10:45:48.668Z</time>
      </trkpt>
      <trkpt lat="54.2121" lon="15.7362">
        <ele>32.654583</ele>
        <time>2024-07-28T10:45:50.653Z</time>
      </trkpt>
      <trkpt lat="54.21213" lon="15.73637">
        <ele>32.697261</ele>
        <time>2024-07-28T10:45:52.685Z</time>
      </trkpt>
      <trkpt lat="54.21218" lon="15.73655">
        <ele>32.744766</ele>
        <time>2024-07-28T10:45:54.678Z</time>
      </trkpt>
      <trkpt lat="54.21222" lon="15.73674">
        <ele>32.793788</ele>
        <time>2024-07-28T10:45:56.676Z</time>
      </trkpt>
      <trkpt lat="54.21227" lon="15.73693">
        <ele>32.840957</ele>
        <time>2024-07-28T10:45:58.662Z</time>
      </trkpt>
      <trkpt lat="54.21231" lon="15.73712">
        <ele>32.898478</ele>
        <time>2024-07-28T10:46:00.655Z</time>
      </trkpt>
      <trkpt lat="54.21235" lon="15.73733">
        <ele>33.126412</ele>
        <time>2024-07-28T10:46:02.686Z</time>
      </trkpt>
      <trkpt lat="54.2124" lon="15.73756">
        <ele>33.382958</ele>
        <time>2024-07-28T10:46:04.666Z</time>
      </trkpt>
      <trkpt lat="54.21245" lon="15.73779">
        <ele>33.643136</ele>
        <time>2024-07-28T10:46:06.657Z</time>
      </trkpt>
      <trkpt lat="54.21251" lon="15.73803">
        <ele>33.91403</ele>
        <time>2024-07-28T10:46:08.662Z</time>
      </trkpt>
      <trkpt lat="54.21257" lon="15.73821">
        <ele>34.141319</ele>
        <time>2024-07-28T10:46:10.672Z</time>
      </trkpt>
      <trkpt lat="54.21266" lon="15.73836">
        <ele>34.365149</ele>
        <time>2024-07-28T10:46:12.655Z</time>
      </trkpt>
      <trkpt lat="54.21275" lon="15.7385">
        <ele>34.57615</ele>
        <time>2024-07-28T10:46:14.676Z</time>
      </trkpt>
      <trkpt lat="54.21283" lon="15.73865">
        <ele>34.785126</ele>
        <time>2024-07-28T10:46:16.660Z</time>
      </trkpt>
      <trkpt lat="54.21289" lon="15.73878">
        <ele>34.964425</ele>
        <time>2024-07-28T10:46:18.677Z</time>
      </trkpt>
      <trkpt lat="54.21296" lon="15.73893">
        <ele>35.16173</ele>
        <time>2024-07-28T10:46:20.666Z</time>
      </trkpt>
      <trkpt lat="54.21303" lon="15.73905">
        <ele>35.344223</ele>
        <time>2024-07-28T10:46:22.630Z</time>
      </trkpt>
      <trkpt lat="54.21308" lon="15.73919">
        <ele>35.514675</ele>
        <time>2024-07-28T10:46:24.663Z</time>
      </trkpt>
      <trkpt lat="54.21314" lon="15.73938">
        <ele>35.734581</ele>
        <time>2024-07-28T10:46:27.656Z</time>
      </trkpt>
      <trkpt lat="54.21317" lon="15.73958">
        <ele>35.952604</ele>
        <time>2024-07-28T10:46:30.667Z</time>
      </trkpt>
      <trkpt lat="54.21321" lon="15.73975">
        <ele>36.11864</ele>
        <time>2024-07-28T10:46:33.668Z</time>
      </trkpt>
      <trkpt lat="54.21325" lon="15.73994">
        <ele>36.157868</ele>
        <time>2024-07-28T10:46:36.666Z</time>
      </trkpt>
      <trkpt lat="54.21329" lon="15.7401">
        <ele>36.190179</ele>
        <time>2024-07-28T10:46:38.675Z</time>
      </trkpt>
      <trkpt lat="54.21334" lon="15.7403">
        <ele>36.232702</ele>
        <time>2024-07-28T10:46:41.664Z</time>
      </trkpt>
      <trkpt lat="54.21338" lon="15.74049">
        <ele>36.271365</ele>
        <time>2024-07-28T10:46:43.668Z</time>
      </trkpt>
      <trkpt lat="54.21341" lon="15.74067">
        <ele>36.307363</ele>
        <time>2024-07-28T10:46:45.648Z</time>
      </trkpt>
      <trkpt lat="54.21344" lon="15.74084">
        <ele>36.341357</ele>
        <time>2024-07-28T10:46:47.659Z</time>
      </trkpt>
      <trkpt lat="54.21346" lon="15.741">
        <ele>36.372817</ele>
        <time>2024-07-28T10:46:49.668Z</time>
      </trkpt>
      <trkpt lat="54.21349" lon="15.74115">
        <ele>36.404305</ele>
        <time>2024-07-28T10:46:51.656Z</time>
      </trkpt>
      <trkpt lat="54.21351" lon="15.74132">
        <ele>36.437027</ele>
        <time>2024-07-28T10:46:53.659Z</time>
      </trkpt>
      <trkpt lat="54.21354" lon="15.74148">
        <ele>36.46941</ele>
        <time>2024-07-28T10:46:55.668Z</time>
      </trkpt>
      <trkpt lat="54.21357" lon="15.74164">
        <ele>36.500902</ele>
        <time>2024-07-28T10:46:57.656Z</time>
      </trkpt>
      <trkpt lat="54.2136" lon="15.74178">
        <ele>36.531185</ele>
        <time>2024-07-28T10:46:59.664Z</time>
      </trkpt>
      <trkpt lat="54.21365" lon="15.74198">
        <ele>36.572386</ele>
        <time>2024-07-28T10:47:02.654Z</time>
      </trkpt>
      <trkpt lat="54.2137" lon="15.74217">
        <ele>36.612578</ele>
        <time>2024-07-28T10:47:05.668Z</time>
      </trkpt>
      <trkpt lat="54.21375" lon="15.74235">
        <ele>36.651149</ele>
        <time>2024-07-28T10:47:08.664Z</time>
      </trkpt>
      <trkpt lat="54.21379" lon="15.74251">
        <ele>36.684954</ele>
        <time>2024-07-28T10:47:12.657Z</time>
      </trkpt>
      <trkpt lat="54.21383" lon="15.74266">
        <ele>36.758917</ele>
        <time>2024-07-28T10:47:15.659Z</time>
      </trkpt>
      <trkpt lat="54.21388" lon="15.74281">
        <ele>36.919336</ele>
        <time>2024-07-28T10:47:17.648Z</time>
      </trkpt>
      <trkpt lat="54.21393" lon="15.74295">
        <ele>37.063763</ele>
        <time>2024-07-28T10:47:19.644Z</time>
      </trkpt>
      <trkpt lat="54.21398" lon="15.74313">
        <ele>37.259088</ele>
        <time>2024-07-28T10:47:22.660Z</time>
      </trkpt>
      <trkpt lat="54.21404" lon="15.74329">
        <ele>37.427356</ele>
        <time>2024-07-28T10:47:24.677Z</time>
      </trkpt>
      <trkpt lat="54.21409" lon="15.74346">
        <ele>37.604886</ele>
        <time>2024-07-28T10:47:26.653Z</time>
      </trkpt>
      <trkpt lat="54.21413" lon="15.74362">
        <ele>37.764253</ele>
        <time>2024-07-28T10:47:28.657Z</time>
      </trkpt>
      <trkpt lat="54.21416" lon="15.74378">
        <ele>37.918828</ele>
        <time>2024-07-28T10:47:30.658Z</time>
      </trkpt>
      <trkpt lat="54.21419" lon="15.74393">
        <ele>38.065426</ele>
        <time>2024-07-28T10:47:32.638Z</time>
      </trkpt>
      <trkpt lat="54.21423" lon="15.74415">
        <ele>38.271006</ele>
        <time>2024-07-28T10:47:35.655Z</time>
      </trkpt>
      <trkpt lat="54.21428" lon="15.74435">
        <ele>38.474875</ele>
        <time>2024-07-28T10:47:38.659Z</time>
      </trkpt>
      <trkpt lat="54.2143" lon="15.74454">
        <ele>38.651763</ele>
        <time>2024-07-28T10:47:41.648Z</time>
      </trkpt>
      <trkpt lat="54.21433" lon="15.74473">
        <ele>38.832656</ele>
        <time>2024-07-28T10:47:45.659Z</time>
      </trkpt>
      <trkpt lat="54.21434" lon="15.74489">
        <ele>38.97793</ele>
        <time>2024-07-28T10:47:53.655Z</time>
      </trkpt>
      <trkpt lat="54.21425" lon="15.74496">
        <ele>39.122003</ele>
        <time>2024-07-28T10:48:10.660Z</time>
      </trkpt>
      <trkpt lat="54.21416" lon="15.74502">
        <ele>39.276463</ele>
        <time>2024-07-28T10:48:19.659Z</time>
      </trkpt>
      <trkpt lat="54.21406" lon="15.74506">
        <ele>39.43495</ele>
        <time>2024-07-28T10:48:25.648Z</time>
      </trkpt>
      <trkpt lat="54.21396" lon="15.74514">
        <ele>39.483845</ele>
        <time>2024-07-28T10:48:30.651Z</time>
      </trkpt>
      <trkpt lat="54.21386" lon="15.74514">
        <ele>39.389126</ele>
        <time>2024-07-28T10:48:34.669Z</time>
      </trkpt>
      <trkpt lat="54.21376" lon="15.7452">
        <ele>39.283948</ele>
        <time>2024-07-28T10:48:38.677Z</time>
      </trkpt>
      <trkpt lat="54.21367" lon="15.74525">
        <ele>39.195461</ele>
        <time>2024-07-28T10:48:41.660Z</time>
      </trkpt>
      <trkpt lat="54.21356" lon="15.7453">
        <ele>39.088157</ele>
        <time>2024-07-28T10:48:45.668Z</time>
      </trkpt>
      <trkpt lat="54.21346" lon="15.74534">
        <ele>38.991488</ele>
        <time>2024-07-28T10:48:50.672Z</time>
      </trkpt>
      <trkpt lat="54.21336" lon="15.7454">
        <ele>38.891503</ele>
        <time>2024-07-28T10:48:56.655Z</time>
      </trkpt>
      <trkpt lat="54.21328" lon="15.74547">
        <ele>38.803424</ele>
        <time>2024-07-28T10:49:01.659Z</time>
      </trkpt>
      <trkpt lat="54.21319" lon="15.74552">
        <ele>38.717278</ele>
        <time>2024-07-28T10:49:06.661Z</time>
      </trkpt>
      <trkpt lat="54.2131" lon="15.74555">
        <ele>38.62585</ele>
        <time>2024-07-28T10:49:11.661Z</time>
      </trkpt>
      <trkpt lat="54.21302" lon="15.74564">
        <ele>38.536799</ele>
        <time>2024-07-28T10:49:20.666Z</time>
      </trkpt>
      <trkpt lat="54.21292" lon="15.74568">
        <ele>38.443935</ele>
        <time>2024-07-28T10:49:25.663Z</time>
      </trkpt>
      <trkpt lat="54.21283" lon="15.74562">
        <ele>38.353648</ele>
        <time>2024-07-28T10:49:35.666Z</time>
      </trkpt>
      <trkpt lat="54.21283" lon="15.74563">
        <ele>38.344911</ele>
        <time>2024-07-28T10:49:46.555Z</time>
      </trkpt>
      <trkpt lat="54.21289" lon="15.74575">
        <ele>38.257117</ele>
        <time>2024-07-28T11:26:12.684Z</time>
      </trkpt>
      <trkpt lat="54.21299" lon="15.74568">
        <ele>38.156259</ele>
        <time>2024-07-28T11:26:18.664Z</time>
      </trkpt>
      <trkpt lat="54.21309" lon="15.74561">
        <ele>38.054445</ele>
        <time>2024-07-28T11:26:24.669Z</time>
      </trkpt>
      <trkpt lat="54.21318" lon="15.74555">
        <ele>37.961532</ele>
        <time>2024-07-28T11:26:28.677Z</time>
      </trkpt>
      <trkpt lat="54.21328" lon="15.74548">
        <ele>37.856548</ele>
        <time>2024-07-28T11:26:32.674Z</time>
      </trkpt>
      <trkpt lat="54.21338" lon="15.74543">
        <ele>37.727161</ele>
        <time>2024-07-28T11:26:38.675Z</time>
      </trkpt>
      <trkpt lat="54.21347" lon="15.74538">
        <ele>37.592632</ele>
        <time>2024-07-28T11:26:44.657Z</time>
      </trkpt>
      <trkpt lat="54.21355" lon="15.74533">
        <ele>37.460596</ele>
        <time>2024-07-28T11:26:48.679Z</time>
      </trkpt>
      <trkpt lat="54.21365" lon="15.74528">
        <ele>37.303833</ele>
        <time>2024-07-28T11:26:52.677Z</time>
      </trkpt>
      <trkpt lat="54.21376" lon="15.74524">
        <ele>37.137561</ele>
        <time>2024-07-28T11:26:56.654Z</time>
      </trkpt>
      <trkpt lat="54.21385" lon="15.74517">
        <ele>36.996044</ele>
        <time>2024-07-28T11:26:59.661Z</time>
      </trkpt>
      <trkpt lat="54.21394" lon="15.74513">
        <ele>36.860009</ele>
        <time>2024-07-28T11:27:02.665Z</time>
      </trkpt>
      <trkpt lat="54.21404" lon="15.74507">
        <ele>36.704643</ele>
        <time>2024-07-28T11:27:06.656Z</time>
      </trkpt>
      <trkpt lat="54.21413" lon="15.74503">
        <ele>36.570955</ele>
        <time>2024-07-28T11:27:09.672Z</time>
      </trkpt>
      <trkpt lat="54.21422" lon="15.74501">
        <ele>36.434276</ele>
        <time>2024-07-28T11:27:12.674Z</time>
      </trkpt>
      <trkpt lat="54.2143" lon="15.74494">
        <ele>36.302512</ele>
        <time>2024-07-28T11:27:16.664Z</time>
      </trkpt>
      <trkpt lat="54.2144" lon="15.74491">
        <ele>36.163983</ele>
        <time>2024-07-28T11:27:23.679Z</time>
      </trkpt>
      <trkpt lat="54.21445" lon="15.74506">
        <ele>36.010076</ele>
        <time>2024-07-28T11:27:28.646Z</time>
      </trkpt>
      <trkpt lat="54.2145" lon="15.74525">
        <ele>35.836604</ele>
        <time>2024-07-28T11:27:32.657Z</time>
      </trkpt>
      <trkpt lat="54.21454" lon="15.74546">
        <ele>35.644148</ele>
        <time>2024-07-28T11:27:35.651Z</time>
      </trkpt>
      <trkpt lat="54.21459" lon="15.74567">
        <ele>35.447697</ele>
        <time>2024-07-28T11:27:38.671Z</time>
      </trkpt>
      <trkpt lat="54.21464" lon="15.74586">
        <ele>35.27162</ele>
        <time>2024-07-28T11:27:41.656Z</time>
      </trkpt>
      <trkpt lat="54.2147" lon="15.74602">
        <ele>35.137526</ele>
        <time>2024-07-28T11:27:44.657Z</time>
      </trkpt>
      <trkpt lat="54.21474" lon="15.74615">
        <ele>35.043249</ele>
        <time>2024-07-28T11:27:47.650Z</time>
      </trkpt>
      <trkpt lat="54.21479" lon="15.7463">
        <ele>34.942843</ele>
        <time>2024-07-28T11:27:50.657Z</time>
      </trkpt>
      <trkpt lat="54.21485" lon="15.74642">
        <ele>34.84939</ele>
        <time>2024-07-28T11:27:53.644Z</time>
      </trkpt>
      <trkpt lat="54.21491" lon="15.74656">
        <ele>34.742296</ele>
        <time>2024-07-28T11:27:56.644Z</time>
      </trkpt>
      <trkpt lat="54.21497" lon="15.74669">
        <ele>34.642877</ele>
        <time>2024-07-28T11:27:59.664Z</time>
      </trkpt>
      <trkpt lat="54.21502" lon="15.74686">
        <ele>34.535544</ele>
        <time>2024-07-28T11:28:03.644Z</time>
      </trkpt>
      <trkpt lat="54.21505" lon="15.74704">
        <ele>34.418462</ele>
        <time>2024-07-28T11:28:07.675Z</time>
      </trkpt>
      <trkpt lat="54.21508" lon="15.7472">
        <ele>34.319854</ele>
        <time>2024-07-28T11:28:10.675Z</time>
      </trkpt>
      <trkpt lat="54.21512" lon="15.74736">
        <ele>34.217401</ele>
        <time>2024-07-28T11:28:13.658Z</time>
      </trkpt>
      <trkpt lat="54.21515" lon="15.74753">
        <ele>34.115647</ele>
        <time>2024-07-28T11:28:16.665Z</time>
      </trkpt>
      <trkpt lat="54.21518" lon="15.74768">
        <ele>34.016136</ele>
        <time>2024-07-28T11:28:19.688Z</time>
      </trkpt>
      <trkpt lat="54.21521" lon="15.74785">
        <ele>33.910323</ele>
        <time>2024-07-28T11:28:22.671Z</time>
      </trkpt>
      <trkpt lat="54.21523" lon="15.74801">
        <ele>33.811381</ele>
        <time>2024-07-28T11:28:25.657Z</time>
      </trkpt>
      <trkpt lat="54.21523" lon="15.74819">
        <ele>33.705089</ele>
        <time>2024-07-28T11:28:29.643Z</time>
      </trkpt>
      <trkpt lat="54.21522" lon="15.74835">
        <ele>33.611172</ele>
        <time>2024-07-28T11:28:32.664Z</time>
      </trkpt>
      <trkpt lat="54.21519" lon="15.74851">
        <ele>33.509268</ele>
        <time>2024-07-28T11:28:37.638Z</time>
      </trkpt>
      <trkpt lat="54.21518" lon="15.74868">
        <ele>33.406279</ele>
        <time>2024-07-28T11:28:41.652Z</time>
      </trkpt>
      <trkpt lat="54.21517" lon="15.74888">
        <ele>33.451985</ele>
        <time>2024-07-28T11:28:45.665Z</time>
      </trkpt>
      <trkpt lat="54.2151" lon="15.74899">
        <ele>33.588417</ele>
        <time>2024-07-28T11:28:49.646Z</time>
      </trkpt>
      <trkpt lat="54.21501" lon="15.74909">
        <ele>33.741757</ele>
        <time>2024-07-28T11:28:52.654Z</time>
      </trkpt>
      <trkpt lat="54.21488" lon="15.74915">
        <ele>33.934312</ele>
        <time>2024-07-28T11:28:55.691Z</time>
      </trkpt>
      <trkpt lat="54.21476" lon="15.74917">
        <ele>34.098578</ele>
        <time>2024-07-28T11:28:58.643Z</time>
      </trkpt>
      <trkpt lat="54.21464" lon="15.7492">
        <ele>34.271729</ele>
        <time>2024-07-28T11:29:01.663Z</time>
      </trkpt>
      <trkpt lat="54.21451" lon="15.74925">
        <ele>34.46346</ele>
        <time>2024-07-28T11:29:04.673Z</time>
      </trkpt>
      <trkpt lat="54.21438" lon="15.74931">
        <ele>34.64891</ele>
        <time>2024-07-28T11:29:07.653Z</time>
      </trkpt>
      <trkpt lat="54.21426" lon="15.74933">
        <ele>34.818957</ele>
        <time>2024-07-28T11:29:10.668Z</time>
      </trkpt>
      <trkpt lat="54.21415" lon="15.74937">
        <ele>34.974059</ele>
        <time>2024-07-28T11:29:13.645Z</time>
      </trkpt>
      <trkpt lat="54.21404" lon="15.7494">
        <ele>35.131154</ele>
        <time>2024-07-28T11:29:17.638Z</time>
      </trkpt>
      <trkpt lat="54.21394" lon="15.74944">
        <ele>35.275251</ele>
        <time>2024-07-28T11:29:21.661Z</time>
      </trkpt>
      <trkpt lat="54.21384" lon="15.74947">
        <ele>35.411973</ele>
        <time>2024-07-28T11:29:25.655Z</time>
      </trkpt>
      <trkpt lat="54.21375" lon="15.74949">
        <ele>35.542645</ele>
        <time>2024-07-28T11:29:29.648Z</time>
      </trkpt>
      <trkpt lat="54.21366" lon="15.74954">
        <ele>35.676362</ele>
        <time>2024-07-28T11:29:33.656Z</time>
      </trkpt>
      <trkpt lat="54.21362" lon="15.74969">
        <ele>35.816476</ele>
        <time>2024-07-28T11:29:41.643Z</time>
      </trkpt>
      <trkpt lat="54.21364" lon="15.74986">
        <ele>35.879404</ele>
        <time>2024-07-28T11:29:57.649Z</time>
      </trkpt>
      <trkpt lat="54.2137" lon="15.74999">
        <ele>35.861892</ele>
        <time>2024-07-28T11:30:00.643Z</time>
      </trkpt>
      <trkpt lat="54.21376" lon="15.75015">
        <ele>35.842126</ele>
        <time>2024-07-28T11:30:03.656Z</time>
      </trkpt>
      <trkpt lat="54.21382" lon="15.7503">
        <ele>35.82262</ele>
        <time>2024-07-28T11:30:06.656Z</time>
      </trkpt>
      <trkpt lat="54.21388" lon="15.75043">
        <ele>35.804695</ele>
        <time>2024-07-28T11:30:11.656Z</time>
      </trkpt>
      <trkpt lat="54.21394" lon="15.75054">
        <ele>35.788254</ele>
        <time>2024-07-28T11:30:21.656Z</time>
      </trkpt>
      <trkpt lat="54.214" lon="15.75072">
        <ele>35.766193</ele>
        <time>2024-07-28T11:30:25.644Z</time>
      </trkpt>
      <trkpt lat="54.21404" lon="15.75091">
        <ele>35.745136</ele>
        <time>2024-07-28T11:30:28.641Z</time>
      </trkpt>
      <trkpt lat="54.2141" lon="15.75109">
        <ele>35.723576</ele>
        <time>2024-07-28T11:30:31.656Z</time>
      </trkpt>
      <trkpt lat="54.21415" lon="15.75129">
        <ele>35.700183</ele>
        <time>2024-07-28T11:30:34.678Z</time>
      </trkpt>
      <trkpt lat="54.21419" lon="15.7515">
        <ele>35.6764</ele>
        <time>2024-07-28T11:30:37.654Z</time>
      </trkpt>
      <trkpt lat="54.21424" lon="15.7517">
        <ele>35.654286</ele>
        <time>2024-07-28T11:30:40.659Z</time>
      </trkpt>
      <trkpt lat="54.21429" lon="15.75188">
        <ele>35.632343</ele>
        <time>2024-07-28T11:30:43.658Z</time>
      </trkpt>
      <trkpt lat="54.21434" lon="15.75206">
        <ele>35.61119</ele>
        <time>2024-07-28T11:30:46.664Z</time>
      </trkpt>
      <trkpt lat="54.21437" lon="15.75225">
        <ele>35.59022</ele>
        <time>2024-07-28T11:30:49.663Z</time>
      </trkpt>
      <trkpt lat="54.21442" lon="15.75243">
        <ele>35.569087</ele>
        <time>2024-07-28T11:30:52.676Z</time>
      </trkpt>
      <trkpt lat="54.21446" lon="15.75259">
        <ele>35.634186</ele>
        <time>2024-07-28T11:30:55.669Z</time>
      </trkpt>
      <trkpt lat="54.2145" lon="15.75276">
        <ele>35.761161</ele>
        <time>2024-07-28T11:30:58.661Z</time>
      </trkpt>
      <trkpt lat="54.21453" lon="15.75293">
        <ele>35.892404</ele>
        <time>2024-07-28T11:31:01.657Z</time>
      </trkpt>
      <trkpt lat="54.21456" lon="15.7531">
        <ele>36.021461</ele>
        <time>2024-07-28T11:31:04.674Z</time>
      </trkpt>
      <trkpt lat="54.21461" lon="15.75328">
        <ele>36.162026</ele>
        <time>2024-07-28T11:31:07.659Z</time>
      </trkpt>
      <trkpt lat="54.21465" lon="15.75345">
        <ele>36.300023</ele>
        <time>2024-07-28T11:31:10.665Z</time>
      </trkpt>
      <trkpt lat="54.21468" lon="15.75362">
        <ele>36.429295</ele>
        <time>2024-07-28T11:31:13.654Z</time>
      </trkpt>
      <trkpt lat="54.21471" lon="15.7538">
        <ele>36.561481</ele>
        <time>2024-07-28T11:31:16.653Z</time>
      </trkpt>
      <trkpt lat="54.21475" lon="15.75396">
        <ele>36.690928</ele>
        <time>2024-07-28T11:31:19.668Z</time>
      </trkpt>
      <trkpt lat="54.21478" lon="15.75412">
        <ele>36.81341</ele>
        <time>2024-07-28T11:31:22.662Z</time>
      </trkpt>
      <trkpt lat="54.21481" lon="15.75427">
        <ele>36.926192</ele>
        <time>2024-07-28T11:31:25.654Z</time>
      </trkpt>
      <trkpt lat="54.21485" lon="15.75441">
        <ele>37.03853</ele>
        <time>2024-07-28T11:31:28.658Z</time>
      </trkpt>
      <trkpt lat="54.21488" lon="15.75458">
        <ele>37.164931</ele>
        <time>2024-07-28T11:31:31.653Z</time>
      </trkpt>
      <trkpt lat="54.21491" lon="15.75474">
        <ele>37.287735</ele>
        <time>2024-07-28T11:31:34.674Z</time>
      </trkpt>
      <trkpt lat="54.21494" lon="15.75489">
        <ele>37.407495</ele>
        <time>2024-07-28T11:31:37.653Z</time>
      </trkpt>
      <trkpt lat="54.21497" lon="15.75506">
        <ele>37.531358</ele>
        <time>2024-07-28T11:31:40.662Z</time>
      </trkpt>
      <trkpt lat="54.215" lon="15.75522">
        <ele>37.655195</ele>
        <time>2024-07-28T11:31:43.657Z</time>
      </trkpt>
      <trkpt lat="54.21504" lon="15.7554">
        <ele>37.791318</ele>
        <time>2024-07-28T11:31:46.644Z</time>
      </trkpt>
      <trkpt lat="54.21507" lon="15.7556">
        <ele>37.830311</ele>
        <time>2024-07-28T11:31:49.644Z</time>
      </trkpt>
      <trkpt lat="54.2151" lon="15.75581">
        <ele>37.872207</ele>
        <time>2024-07-28T11:31:52.658Z</time>
      </trkpt>
      <trkpt lat="54.21513" lon="15.75602">
        <ele>37.91291</ele>
        <time>2024-07-28T11:31:55.659Z</time>
      </trkpt>
      <trkpt lat="54.21516" lon="15.75624">
        <ele>37.955581</ele>
        <time>2024-07-28T11:31:58.660Z</time>
      </trkpt>
      <trkpt lat="54.2152" lon="15.75646">
        <ele>37.998468</ele>
        <time>2024-07-28T11:32:01.626Z</time>
      </trkpt>
      <trkpt lat="54.21523" lon="15.75667">
        <ele>38.041167</ele>
        <time>2024-07-28T11:32:04.654Z</time>
      </trkpt>
      <trkpt lat="54.21527" lon="15.75689">
        <ele>38.083501</ele>
        <time>2024-07-28T11:32:07.657Z</time>
      </trkpt>
      <trkpt lat="54.21531" lon="15.75709">
        <ele>38.124709</ele>
        <time>2024-07-28T11:32:10.660Z</time>
      </trkpt>
      <trkpt lat="54.21534" lon="15.75729">
        <ele>38.163256</ele>
        <time>2024-07-28T11:32:13.660Z</time>
      </trkpt>
      <trkpt lat="54.21536" lon="15.75744">
        <ele>38.192961</ele>
        <time>2024-07-28T11:32:16.657Z</time>
      </trkpt>
      <trkpt lat="54.21539" lon="15.75761">
        <ele>38.226743</ele>
        <time>2024-07-28T11:32:19.656Z</time>
      </trkpt>
      <trkpt lat="54.21542" lon="15.75782">
        <ele>38.26662</ele>
        <time>2024-07-28T11:32:22.665Z</time>
      </trkpt>
      <trkpt lat="54.21545" lon="15.75802">
        <ele>38.307077</ele>
        <time>2024-07-28T11:32:25.666Z</time>
      </trkpt>
      <trkpt lat="54.21549" lon="15.75823">
        <ele>38.348137</ele>
        <time>2024-07-28T11:32:28.669Z</time>
      </trkpt>
      <trkpt lat="54.21551" lon="15.75838">
        <ele>38.377539</ele>
        <time>2024-07-28T11:32:30.672Z</time>
      </trkpt>
      <trkpt lat="54.21554" lon="15.7586">
        <ele>38.42209</ele>
        <time>2024-07-28T11:32:33.660Z</time>
      </trkpt>
      <trkpt lat="54.21556" lon="15.75878">
        <ele>38.461003</ele>
        <time>2024-07-28T11:32:36.653Z</time>
      </trkpt>
      <trkpt lat="54.21559" lon="15.75897">
        <ele>38.499886</ele>
        <time>2024-07-28T11:32:40.657Z</time>
      </trkpt>
      <trkpt lat="54.21561" lon="15.75913">
        <ele>38.533045</ele>
        <time>2024-07-28T11:32:43.668Z</time>
      </trkpt>
      <trkpt lat="54.21565" lon="15.75931">
        <ele>38.572497</ele>
        <time>2024-07-28T11:32:46.644Z</time>
      </trkpt>
      <trkpt lat="54.21568" lon="15.75951">
        <ele>38.613594</ele>
        <time>2024-07-28T11:32:49.668Z</time>
      </trkpt>
      <trkpt lat="54.21571" lon="15.75971">
        <ele>38.655269</ele>
        <time>2024-07-28T11:32:52.679Z</time>
      </trkpt>
      <trkpt lat="54.21575" lon="15.75991">
        <ele>38.698527</ele>
        <time>2024-07-28T11:32:55.635Z</time>
      </trkpt>
      <trkpt lat="54.21578" lon="15.76012">
        <ele>38.742734</ele>
        <time>2024-07-28T11:32:58.657Z</time>
      </trkpt>
      <trkpt lat="54.21582" lon="15.76034">
        <ele>38.787911</ele>
        <time>2024-07-28T11:33:01.655Z</time>
      </trkpt>
      <trkpt lat="54.21585" lon="15.76056">
        <ele>38.834118</ele>
        <time>2024-07-28T11:33:04.657Z</time>
      </trkpt>
      <trkpt lat="54.21589" lon="15.76078">
        <ele>38.880364</ele>
        <time>2024-07-28T11:33:07.656Z</time>
      </trkpt>
      <trkpt lat="54.21592" lon="15.761">
        <ele>38.927161</ele>
        <time>2024-07-28T11:33:10.665Z</time>
      </trkpt>
      <trkpt lat="54.21594" lon="15.76116">
        <ele>38.959963</ele>
        <time>2024-07-28T11:33:12.657Z</time>
      </trkpt>
      <trkpt lat="54.21596" lon="15.76131">
        <ele>38.991779</ele>
        <time>2024-07-28T11:33:14.656Z</time>
      </trkpt>
      <trkpt lat="54.21598" lon="15.76147">
        <ele>39.040932</ele>
        <time>2024-07-28T11:33:16.665Z</time>
      </trkpt>
      <trkpt lat="54.21601" lon="15.76162">
        <ele>39.09205</ele>
        <time>2024-07-28T11:33:18.659Z</time>
      </trkpt>
      <trkpt lat="54.21603" lon="15.76178">
        <ele>39.143465</ele>
        <time>2024-07-28T11:33:20.674Z</time>
      </trkpt>
      <trkpt lat="54.21606" lon="15.76193">
        <ele>39.19426</ele>
        <time>2024-07-28T11:33:22.669Z</time>
      </trkpt>
      <trkpt lat="54.21608" lon="15.76208">
        <ele>39.244476</ele>
        <time>2024-07-28T11:33:24.674Z</time>
      </trkpt>
      <trkpt lat="54.2161" lon="15.76223">
        <ele>39.294498</ele>
        <time>2024-07-28T11:33:26.649Z</time>
      </trkpt>
      <trkpt lat="54.21614" lon="15.76245">
        <ele>39.367748</ele>
        <time>2024-07-28T11:33:29.655Z</time>
      </trkpt>
      <trkpt lat="54.21616" lon="15.7626">
        <ele>39.418591</ele>
        <time>2024-07-28T11:33:31.659Z</time>
      </trkpt>
      <trkpt lat="54.2162" lon="15.76282">
        <ele>39.493083</ele>
        <time>2024-07-28T11:33:34.666Z</time>
      </trkpt>
      <trkpt lat="54.21622" lon="15.76297">
        <ele>39.543796</ele>
        <time>2024-07-28T11:33:36.659Z</time>
      </trkpt>
      <trkpt lat="54.21625" lon="15.76312">
        <ele>39.594461</ele>
        <time>2024-07-28T11:33:38.658Z</time>
      </trkpt>
      <trkpt lat="54.21627" lon="15.76328">
        <ele>39.645415</ele>
        <time>2024-07-28T11:33:40.653Z</time>
      </trkpt>
      <trkpt lat="54.2163" lon="15.76343">
        <ele>39.69622</ele>
        <time>2024-07-28T11:33:42.659Z</time>
      </trkpt>
      <trkpt lat="54.21632" lon="15.76358">
        <ele>39.748585</ele>
        <time>2024-07-28T11:33:44.659Z</time>
      </trkpt>
      <trkpt lat="54.21636" lon="15.76381">
        <ele>39.824004</ele>
        <time>2024-07-28T11:33:47.657Z</time>
      </trkpt>
      <trkpt lat="54.21639" lon="15.76397">
        <ele>39.876812</ele>
        <time>2024-07-28T11:33:49.669Z</time>
      </trkpt>
      <trkpt lat="54.21641" lon="15.76412">
        <ele>39.92949</ele>
        <time>2024-07-28T11:33:51.669Z</time>
      </trkpt>
      <trkpt lat="54.21643" lon="15.76428">
        <ele>39.980332</ele>
        <time>2024-07-28T11:33:53.657Z</time>
      </trkpt>
      <trkpt lat="54.21646" lon="15.76443">
        <ele>40.022832</ele>
        <time>2024-07-28T11:33:55.662Z</time>
      </trkpt>
      <trkpt lat="54.21648" lon="15.76459">
        <ele>40.063563</ele>
        <time>2024-07-28T11:33:57.660Z</time>
      </trkpt>
      <trkpt lat="54.2165" lon="15.76475">
        <ele>40.104706</ele>
        <time>2024-07-28T11:33:59.673Z</time>
      </trkpt>
      <trkpt lat="54.21654" lon="15.76497">
        <ele>40.163016</ele>
        <time>2024-07-28T11:34:02.647Z</time>
      </trkpt>
      <trkpt lat="54.21656" lon="15.76513">
        <ele>40.203019</ele>
        <time>2024-07-28T11:34:04.674Z</time>
      </trkpt>
      <trkpt lat="54.21658" lon="15.76528">
        <ele>40.243401</ele>
        <time>2024-07-28T11:34:06.648Z</time>
      </trkpt>
      <trkpt lat="54.21661" lon="15.76544">
        <ele>40.283401</ele>
        <time>2024-07-28T11:34:08.666Z</time>
      </trkpt>
      <trkpt lat="54.21664" lon="15.76565">
        <ele>40.339081</ele>
        <time>2024-07-28T11:34:11.640Z</time>
      </trkpt>
      <trkpt lat="54.21666" lon="15.76588">
        <ele>40.396587</ele>
        <time>2024-07-28T11:34:14.665Z</time>
      </trkpt>
      <trkpt lat="54.21667" lon="15.76604">
        <ele>40.437974</ele>
        <time>2024-07-28T11:34:16.658Z</time>
      </trkpt>
      <trkpt lat="54.21669" lon="15.76627">
        <ele>40.496224</ele>
        <time>2024-07-28T11:34:19.642Z</time>
      </trkpt>
      <trkpt lat="54.2167" lon="15.76643">
        <ele>40.536335</ele>
        <time>2024-07-28T11:34:21.655Z</time>
      </trkpt>
      <trkpt lat="54.21672" lon="15.76666">
        <ele>40.594544</ele>
        <time>2024-07-28T11:34:24.677Z</time>
      </trkpt>
      <trkpt lat="54.21673" lon="15.76682">
        <ele>40.634344</ele>
        <time>2024-07-28T11:34:26.646Z</time>
      </trkpt>
      <trkpt lat="54.21674" lon="15.76697">
        <ele>40.67371</ele>
        <time>2024-07-28T11:34:28.672Z</time>
      </trkpt>
      <trkpt lat="54.21677" lon="15.76714">
        <ele>40.715454</ele>
        <time>2024-07-28T11:34:30.672Z</time>
      </trkpt>
      <trkpt lat="54.21678" lon="15.76729">
        <ele>40.754381</ele>
        <time>2024-07-28T11:34:32.657Z</time>
      </trkpt>
      <trkpt lat="54.21683" lon="15.7675">
        <ele>40.82757</ele>
        <time>2024-07-28T11:34:35.647Z</time>
      </trkpt>
      <trkpt lat="54.21686" lon="15.76765">
        <ele>40.881293</ele>
        <time>2024-07-28T11:34:37.657Z</time>
      </trkpt>
      <trkpt lat="54.21689" lon="15.7678">
        <ele>40.933607</ele>
        <time>2024-07-28T11:34:39.646Z</time>
      </trkpt>
      <trkpt lat="54.21693" lon="15.76794">
        <ele>40.985755</ele>
        <time>2024-07-28T11:34:41.656Z</time>
      </trkpt>
      <trkpt lat="54.21696" lon="15.76809">
        <ele>41.038444</ele>
        <time>2024-07-28T11:34:43.658Z</time>
      </trkpt>
      <trkpt lat="54.21701" lon="15.7683">
        <ele>41.115681</ele>
        <time>2024-07-28T11:34:46.646Z</time>
      </trkpt>
      <trkpt lat="54.21705" lon="15.76852">
        <ele>41.192289</ele>
        <time>2024-07-28T11:34:49.672Z</time>
      </trkpt>
      <trkpt lat="54.2171" lon="15.76873">
        <ele>41.267797</ele>
        <time>2024-07-28T11:34:52.655Z</time>
      </trkpt>
      <trkpt lat="54.21714" lon="15.76894">
        <ele>41.343095</ele>
        <time>2024-07-28T11:34:55.669Z</time>
      </trkpt>
      <trkpt lat="54.21717" lon="15.7691">
        <ele>41.397482</ele>
        <time>2024-07-28T11:34:57.659Z</time>
      </trkpt>
      <trkpt lat="54.21719" lon="15.76925">
        <ele>41.45159</ele>
        <time>2024-07-28T11:34:59.662Z</time>
      </trkpt>
      <trkpt lat="54.2172" lon="15.76943">
        <ele>41.510048</ele>
        <time>2024-07-28T11:35:01.660Z</time>
      </trkpt>
      <trkpt lat="54.2172" lon="15.76959">
        <ele>41.563051</ele>
        <time>2024-07-28T11:35:03.662Z</time>
      </trkpt>
      <trkpt lat="54.21721" lon="15.76976">
        <ele>41.621058</ele>
        <time>2024-07-28T11:35:05.659Z</time>
      </trkpt>
      <trkpt lat="54.2172" lon="15.76992">
        <ele>41.674374</ele>
        <time>2024-07-28T11:35:07.659Z</time>
      </trkpt>
      <trkpt lat="54.2172" lon="15.77008">
        <ele>41.727356</ele>
        <time>2024-07-28T11:35:09.664Z</time>
      </trkpt>
      <trkpt lat="54.21719" lon="15.77025">
        <ele>41.78562</ele>
        <time>2024-07-28T11:35:11.659Z</time>
      </trkpt>
      <trkpt lat="54.21718" lon="15.77041">
        <ele>41.948814</ele>
        <time>2024-07-28T11:35:13.655Z</time>
      </trkpt>
      <trkpt lat="54.21718" lon="15.77058">
        <ele>42.130357</ele>
        <time>2024-07-28T11:35:15.664Z</time>
      </trkpt>
      <trkpt lat="54.21719" lon="15.77075">
        <ele>42.317213</ele>
        <time>2024-07-28T11:35:17.658Z</time>
      </trkpt>
      <trkpt lat="54.21718" lon="15.77093">
        <ele>42.512072</ele>
        <time>2024-07-28T11:35:19.669Z</time>
      </trkpt>
      <trkpt lat="54.21717" lon="15.77116">
        <ele>42.765831</ele>
        <time>2024-07-28T11:35:22.651Z</time>
      </trkpt>
      <trkpt lat="54.21718" lon="15.77132">
        <ele>42.934198</ele>
        <time>2024-07-28T11:35:24.669Z</time>
      </trkpt>
      <trkpt lat="54.21718" lon="15.77148">
        <ele>43.110158</ele>
        <time>2024-07-28T11:35:26.664Z</time>
      </trkpt>
      <trkpt lat="54.21718" lon="15.77164">
        <ele>43.286117</ele>
        <time>2024-07-28T11:35:28.678Z</time>
      </trkpt>
      <trkpt lat="54.21717" lon="15.77181">
        <ele>43.468679</ele>
        <time>2024-07-28T11:35:30.662Z</time>
      </trkpt>
      <trkpt lat="54.21717" lon="15.77197">
        <ele>43.638489</ele>
        <time>2024-07-28T11:35:32.667Z</time>
      </trkpt>
      <trkpt lat="54.21717" lon="15.77213">
        <ele>43.814448</ele>
        <time>2024-07-28T11:35:34.659Z</time>
      </trkpt>
      <trkpt lat="54.21716" lon="15.77229">
        <ele>43.98948</ele>
        <time>2024-07-28T11:35:36.646Z</time>
      </trkpt>
      <trkpt lat="54.21717" lon="15.77247">
        <ele>44.188674</ele>
        <time>2024-07-28T11:35:39.681Z</time>
      </trkpt>
      <trkpt lat="54.21719" lon="15.77266">
        <ele>44.392302</ele>
        <time>2024-07-28T11:35:42.657Z</time>
      </trkpt>
      <trkpt lat="54.2172" lon="15.77286">
        <ele>44.611127</ele>
        <time>2024-07-28T11:35:45.652Z</time>
      </trkpt>
      <trkpt lat="54.21722" lon="15.77307">
        <ele>44.843551</ele>
        <time>2024-07-28T11:35:48.678Z</time>
      </trkpt>
      <trkpt lat="54.21723" lon="15.77328">
        <ele>45.069888</ele>
        <time>2024-07-28T11:35:51.655Z</time>
      </trkpt>
      <trkpt lat="54.21724" lon="15.77351">
        <ele>45.228598</ele>
        <time>2024-07-28T11:35:54.659Z</time>
      </trkpt>
      <trkpt lat="54.21725" lon="15.77368">
        <ele>45.32622</ele>
        <time>2024-07-28T11:35:56.660Z</time>
      </trkpt>
      <trkpt lat="54.21726" lon="15.77385">
        <ele>45.415912</ele>
        <time>2024-07-28T11:35:58.636Z</time>
      </trkpt>
      <trkpt lat="54.21727" lon="15.77403">
        <ele>45.512889</ele>
        <time>2024-07-28T11:36:00.657Z</time>
      </trkpt>
      <trkpt lat="54.21728" lon="15.77419">
        <ele>45.601734</ele>
        <time>2024-07-28T11:36:02.662Z</time>
      </trkpt>
      <trkpt lat="54.2173" lon="15.77435">
        <ele>45.690183</ele>
        <time>2024-07-28T11:36:04.646Z</time>
      </trkpt>
      <trkpt lat="54.21732" lon="15.77457">
        <ele>45.811472</ele>
        <time>2024-07-28T11:36:07.650Z</time>
      </trkpt>
      <trkpt lat="54.21733" lon="15.77476">
        <ele>45.916774</ele>
        <time>2024-07-28T11:36:10.661Z</time>
      </trkpt>
      <trkpt lat="54.21735" lon="15.77494">
        <ele>46.016692</ele>
        <time>2024-07-28T11:36:12.658Z</time>
      </trkpt>
      <trkpt lat="54.21736" lon="15.77511">
        <ele>46.111356</ele>
        <time>2024-07-28T11:36:14.661Z</time>
      </trkpt>
      <trkpt lat="54.21737" lon="15.77528">
        <ele>46.203442</ele>
        <time>2024-07-28T11:36:16.661Z</time>
      </trkpt>
      <trkpt lat="54.2174" lon="15.77548">
        <ele>46.317559</ele>
        <time>2024-07-28T11:36:19.658Z</time>
      </trkpt>
      <trkpt lat="54.21742" lon="15.77571">
        <ele>46.444481</ele>
        <time>2024-07-28T11:36:22.684Z</time>
      </trkpt>
      <trkpt lat="54.21744" lon="15.77591">
        <ele>46.554489</ele>
        <time>2024-07-28T11:36:24.663Z</time>
      </trkpt>
      <trkpt lat="54.21746" lon="15.77609">
        <ele>46.654675</ele>
        <time>2024-07-28T11:36:26.654Z</time>
      </trkpt>
      <trkpt lat="54.21749" lon="15.77626">
        <ele>46.748724</ele>
        <time>2024-07-28T11:36:28.663Z</time>
      </trkpt>
      <trkpt lat="54.21752" lon="15.77641">
        <ele>46.724195</ele>
        <time>2024-07-28T11:36:30.673Z</time>
      </trkpt>
      <trkpt lat="54.21754" lon="15.77658">
        <ele>46.436126</ele>
        <time>2024-07-28T11:36:32.662Z</time>
      </trkpt>
      <trkpt lat="54.21757" lon="15.77673">
        <ele>46.14574</ele>
        <time>2024-07-28T11:36:34.660Z</time>
      </trkpt>
      <trkpt lat="54.21759" lon="15.77689">
        <ele>45.868513</ele>
        <time>2024-07-28T11:36:37.652Z</time>
      </trkpt>
      <trkpt lat="54.21763" lon="15.77709">
        <ele>45.50293</ele>
        <time>2024-07-28T11:37:56.645Z</time>
      </trkpt>
      <trkpt lat="54.21766" lon="15.77725">
        <ele>45.205755</ele>
        <time>2024-07-28T11:38:01.654Z</time>
      </trkpt>
      <trkpt lat="54.2177" lon="15.77741">
        <ele>44.914758</ele>
        <time>2024-07-28T11:38:04.649Z</time>
      </trkpt>
      <trkpt lat="54.21773" lon="15.7776">
        <ele>44.558741</ele>
        <time>2024-07-28T11:38:07.659Z</time>
      </trkpt>
      <trkpt lat="54.21777" lon="15.77778">
        <ele>44.222305</ele>
        <time>2024-07-28T11:38:10.671Z</time>
      </trkpt>
      <trkpt lat="54.21781" lon="15.77794">
        <ele>43.931308</ele>
        <time>2024-07-28T11:38:13.655Z</time>
      </trkpt>
      <trkpt lat="54.21784" lon="15.77812">
        <ele>43.58475</ele>
        <time>2024-07-28T11:38:16.663Z</time>
      </trkpt>
      <trkpt lat="54.21788" lon="15.77832">
        <ele>43.234875</ele>
        <time>2024-07-28T11:38:19.653Z</time>
      </trkpt>
      <trkpt lat="54.2179" lon="15.77852">
        <ele>42.870945</ele>
        <time>2024-07-28T11:38:22.659Z</time>
      </trkpt>
      <trkpt lat="54.21792" lon="15.77868">
        <ele>42.587775</ele>
        <time>2024-07-28T11:38:24.665Z</time>
      </trkpt>
      <trkpt lat="54.21796" lon="15.77889">
        <ele>42.20847</ele>
        <time>2024-07-28T11:38:27.647Z</time>
      </trkpt>
      <trkpt lat="54.21798" lon="15.77904">
        <ele>41.928919</ele>
        <time>2024-07-28T11:38:29.654Z</time>
      </trkpt>
      <trkpt lat="54.21801" lon="15.7792">
        <ele>41.642752</ele>
        <time>2024-07-28T11:38:31.680Z</time>
      </trkpt>
      <trkpt lat="54.21802" lon="15.77936">
        <ele>41.442401</ele>
        <time>2024-07-28T11:38:33.649Z</time>
      </trkpt>
      <trkpt lat="54.21805" lon="15.77952">
        <ele>41.418669</ele>
        <time>2024-07-28T11:38:35.651Z</time>
      </trkpt>
      <trkpt lat="54.21807" lon="15.7797">
        <ele>41.391467</ele>
        <time>2024-07-28T11:38:37.640Z</time>
      </trkpt>
      <trkpt lat="54.21809" lon="15.77986">
        <ele>41.368524</ele>
        <time>2024-07-28T11:38:39.671Z</time>
      </trkpt>
      <trkpt lat="54.2181" lon="15.78007">
        <ele>41.337188</ele>
        <time>2024-07-28T11:38:42.658Z</time>
      </trkpt>
      <trkpt lat="54.21813" lon="15.78028">
        <ele>41.306769</ele>
        <time>2024-07-28T11:38:45.677Z</time>
      </trkpt>
      <trkpt lat="54.21816" lon="15.78045">
        <ele>41.281085</ele>
        <time>2024-07-28T11:38:47.664Z</time>
      </trkpt>
      <trkpt lat="54.21819" lon="15.78061">
        <ele>41.257</ele>
        <time>2024-07-28T11:38:49.663Z</time>
      </trkpt>
      <trkpt lat="54.2182" lon="15.78077">
        <ele>41.233442</ele>
        <time>2024-07-28T11:38:51.677Z</time>
      </trkpt>
      <trkpt lat="54.21824" lon="15.78094">
        <ele>41.20817</ele>
        <time>2024-07-28T11:38:53.668Z</time>
      </trkpt>
      <trkpt lat="54.21826" lon="15.78109">
        <ele>41.184371</ele>
        <time>2024-07-28T11:38:55.657Z</time>
      </trkpt>
      <trkpt lat="54.2183" lon="15.78125">
        <ele>41.159621</ele>
        <time>2024-07-28T11:38:57.655Z</time>
      </trkpt>
      <trkpt lat="54.21833" lon="15.78141">
        <ele>41.135597</ele>
        <time>2024-07-28T11:38:59.664Z</time>
      </trkpt>
      <trkpt lat="54.2184" lon="15.78161">
        <ele>41.102271</ele>
        <time>2024-07-28T11:39:02.657Z</time>
      </trkpt>
      <trkpt lat="54.21848" lon="15.78178">
        <ele>41.069959</ele>
        <time>2024-07-28T11:39:05.638Z</time>
      </trkpt>
      <trkpt lat="54.21853" lon="15.78194">
        <ele>41.043942</ele>
        <time>2024-07-28T11:39:08.637Z</time>
      </trkpt>
      <trkpt lat="54.2186" lon="15.78209">
        <ele>41.016535</ele>
        <time>2024-07-28T11:39:11.665Z</time>
      </trkpt>
      <trkpt lat="54.21869" lon="15.78219">
        <ele>41.03307</ele>
        <time>2024-07-28T11:39:14.667Z</time>
      </trkpt>
      <trkpt lat="54.2188" lon="15.78228">
        <ele>41.087339</ele>
        <time>2024-07-28T11:39:17.653Z</time>
      </trkpt>
      <trkpt lat="54.21892" lon="15.78234">
        <ele>41.142885</ele>
        <time>2024-07-28T11:39:20.652Z</time>
      </trkpt>
      <trkpt lat="54.21904" lon="15.78238">
        <ele>41.196936</ele>
        <time>2024-07-28T11:39:23.644Z</time>
      </trkpt>
      <trkpt lat="54.21914" lon="15.78241">
        <ele>41.237929</ele>
        <time>2024-07-28T11:39:25.654Z</time>
      </trkpt>
      <trkpt lat="54.21927" lon="15.7824">
        <ele>41.295783</ele>
        <time>2024-07-28T11:39:28.647Z</time>
      </trkpt>
      <trkpt lat="54.2194" lon="15.7824">
        <ele>41.353151</ele>
        <time>2024-07-28T11:39:31.655Z</time>
      </trkpt>
      <trkpt lat="54.21952" lon="15.78239">
        <ele>41.406993</ele>
        <time>2024-07-28T11:39:34.663Z</time>
      </trkpt>
      <trkpt lat="54.21964" lon="15.78237">
        <ele>41.46037</ele>
        <time>2024-07-28T11:39:37.658Z</time>
      </trkpt>
      <trkpt lat="54.21975" lon="15.78235">
        <ele>41.509548</ele>
        <time>2024-07-28T11:39:40.665Z</time>
      </trkpt>
      <trkpt lat="54.21986" lon="15.78234">
        <ele>41.558172</ele>
        <time>2024-07-28T11:39:43.655Z</time>
      </trkpt>
      <trkpt lat="54.21997" lon="15.78236">
        <ele>41.606576</ele>
        <time>2024-07-28T11:39:46.654Z</time>
      </trkpt>
      <trkpt lat="54.22008" lon="15.78239">
        <ele>41.65799</ele>
        <time>2024-07-28T11:39:49.670Z</time>
      </trkpt>
      <trkpt lat="54.22018" lon="15.78243">
        <ele>41.700184</ele>
        <time>2024-07-28T11:39:52.658Z</time>
      </trkpt>
      <trkpt lat="54.22029" lon="15.78249">
        <ele>41.751793</ele>
        <time>2024-07-28T11:39:55.644Z</time>
      </trkpt>
      <trkpt lat="54.2204" lon="15.78256">
        <ele>41.789278</ele>
        <time>2024-07-28T11:39:58.670Z</time>
      </trkpt>
      <trkpt lat="54.22049" lon="15.78266">
        <ele>41.678085</ele>
        <time>2024-07-28T11:40:01.656Z</time>
      </trkpt>
      <trkpt lat="54.22057" lon="15.78275">
        <ele>41.579388</ele>
        <time>2024-07-28T11:40:04.659Z</time>
      </trkpt>
      <trkpt lat="54.22064" lon="15.78287">
        <ele>41.481719</ele>
        <time>2024-07-28T11:40:08.666Z</time>
      </trkpt>
      <trkpt lat="54.22072" lon="15.78296">
        <ele>41.386206</ele>
        <time>2024-07-28T11:40:35.661Z</time>
      </trkpt>
      <trkpt lat="54.22081" lon="15.7831">
        <ele>41.265835</ele>
        <time>2024-07-28T11:40:39.645Z</time>
      </trkpt>
      <trkpt lat="54.22088" lon="15.78322">
        <ele>41.163529</ele>
        <time>2024-07-28T11:40:42.653Z</time>
      </trkpt>
      <trkpt lat="54.22095" lon="15.78339">
        <ele>41.039263</ele>
        <time>2024-07-28T11:40:45.642Z</time>
      </trkpt>
      <trkpt lat="54.22102" lon="15.78352">
        <ele>40.938139</ele>
        <time>2024-07-28T11:40:47.674Z</time>
      </trkpt>
      <trkpt lat="54.22109" lon="15.78365">
        <ele>40.836275</ele>
        <time>2024-07-28T11:40:49.645Z</time>
      </trkpt>
      <trkpt lat="54.22115" lon="15.78377">
        <ele>40.745479</ele>
        <time>2024-07-28T11:40:51.676Z</time>
      </trkpt>
      <trkpt lat="54.22123" lon="15.78395">
        <ele>40.609421</ele>
        <time>2024-07-28T11:40:54.679Z</time>
      </trkpt>
      <trkpt lat="54.22129" lon="15.78407">
        <ele>40.515991</ele>
        <time>2024-07-28T11:40:56.633Z</time>
      </trkpt>
      <trkpt lat="54.22135" lon="15.78419">
        <ele>40.425645</ele>
        <time>2024-07-28T11:40:58.655Z</time>
      </trkpt>
      <trkpt lat="54.2214" lon="15.78432">
        <ele>40.332431</ele>
        <time>2024-07-28T11:41:00.652Z</time>
      </trkpt>
      <trkpt lat="54.22148" lon="15.7845">
        <ele>40.200853</ele>
        <time>2024-07-28T11:41:03.649Z</time>
      </trkpt>
      <trkpt lat="54.22154" lon="15.78463">
        <ele>40.106691</ele>
        <time>2024-07-28T11:41:05.646Z</time>
      </trkpt>
      <trkpt lat="54.2216" lon="15.78475">
        <ele>40.011515</ele>
        <time>2024-07-28T11:41:07.665Z</time>
      </trkpt>
      <trkpt lat="54.22165" lon="15.78488">
        <ele>39.97925</ele>
        <time>2024-07-28T11:41:09.644Z</time>
      </trkpt>
      <trkpt lat="54.22171" lon="15.78502">
        <ele>39.958508</ele>
        <time>2024-07-28T11:41:11.653Z</time>
      </trkpt>
      <trkpt lat="54.22176" lon="15.78515">
        <ele>39.937991</ele>
        <time>2024-07-28T11:41:13.660Z</time>
      </trkpt>
      <trkpt lat="54.22182" lon="15.78529">
        <ele>39.916646</ele>
        <time>2024-07-28T11:41:15.645Z</time>
      </trkpt>
      <trkpt lat="54.22189" lon="15.78549">
        <ele>39.886765</ele>
        <time>2024-07-28T11:41:18.657Z</time>
      </trkpt>
      <trkpt lat="54.22194" lon="15.78563">
        <ele>39.866402</ele>
        <time>2024-07-28T11:41:20.655Z</time>
      </trkpt>
      <trkpt lat="54.222" lon="15.78576">
        <ele>39.846316</ele>
        <time>2024-07-28T11:41:22.675Z</time>
      </trkpt>
      <trkpt lat="54.22205" lon="15.7859">
        <ele>39.825952</ele>
        <time>2024-07-28T11:41:24.652Z</time>
      </trkpt>
      <trkpt lat="54.22213" lon="15.78608">
        <ele>39.797117</ele>
        <time>2024-07-28T11:41:27.670Z</time>
      </trkpt>
      <trkpt lat="54.22218" lon="15.78622">
        <ele>39.776963</ele>
        <time>2024-07-28T11:41:29.646Z</time>
      </trkpt>
      <trkpt lat="54.22223" lon="15.78637">
        <ele>39.754636</ele>
        <time>2024-07-28T11:41:31.678Z</time>
      </trkpt>
      <trkpt lat="54.22228" lon="15.7865">
        <ele>39.735207</ele>
        <time>2024-07-28T11:41:33.653Z</time>
      </trkpt>
      <trkpt lat="54.22233" lon="15.78663">
        <ele>39.715498</ele>
        <time>2024-07-28T11:41:35.655Z</time>
      </trkpt>
      <trkpt lat="54.22239" lon="15.78677">
        <ele>39.694247</ele>
        <time>2024-07-28T11:41:37.629Z</time>
      </trkpt>
      <trkpt lat="54.22245" lon="15.78691">
        <ele>39.672405</ele>
        <time>2024-07-28T11:41:39.652Z</time>
      </trkpt>
      <trkpt lat="54.22252" lon="15.78704">
        <ele>39.650296</ele>
        <time>2024-07-28T11:41:41.667Z</time>
      </trkpt>
      <trkpt lat="54.22258" lon="15.78717">
        <ele>39.629239</ele>
        <time>2024-07-28T11:41:43.650Z</time>
      </trkpt>
      <trkpt lat="54.22265" lon="15.78729">
        <ele>39.608282</ele>
        <time>2024-07-28T11:41:45.650Z</time>
      </trkpt>
      <trkpt lat="54.2227" lon="15.78744">
        <ele>39.577599</ele>
        <time>2024-07-28T11:41:47.660Z</time>
      </trkpt>
      <trkpt lat="54.22276" lon="15.78757">
        <ele>39.546747</ele>
        <time>2024-07-28T11:41:49.653Z</time>
      </trkpt>
      <trkpt lat="54.22281" lon="15.78772">
        <ele>39.51385</ele>
        <time>2024-07-28T11:41:51.668Z</time>
      </trkpt>
      <trkpt lat="54.22287" lon="15.78786">
        <ele>39.482998</ele>
        <time>2024-07-28T11:41:53.653Z</time>
      </trkpt>
      <trkpt lat="54.22292" lon="15.78799">
        <ele>39.454275</ele>
        <time>2024-07-28T11:41:55.651Z</time>
      </trkpt>
      <trkpt lat="54.22298" lon="15.78813">
        <ele>39.424687</ele>
        <time>2024-07-28T11:41:57.658Z</time>
      </trkpt>
      <trkpt lat="54.22303" lon="15.78825">
        <ele>39.396643</ele>
        <time>2024-07-28T11:41:59.654Z</time>
      </trkpt>
      <trkpt lat="54.22311" lon="15.78842">
        <ele>39.356853</ele>
        <time>2024-07-28T11:42:02.651Z</time>
      </trkpt>
      <trkpt lat="54.22318" lon="15.78852">
        <ele>39.327961</ele>
        <time>2024-07-28T11:42:04.662Z</time>
      </trkpt>
      <trkpt lat="54.22327" lon="15.78864">
        <ele>39.293267</ele>
        <time>2024-07-28T11:42:07.661Z</time>
      </trkpt>
      <trkpt lat="54.22335" lon="15.78876">
        <ele>39.259475</ele>
        <time>2024-07-28T11:42:10.655Z</time>
      </trkpt>
      <trkpt lat="54.22343" lon="15.78887">
        <ele>39.227268</ele>
        <time>2024-07-28T11:42:13.668Z</time>
      </trkpt>
      <trkpt lat="54.22354" lon="15.789">
        <ele>39.185038</ele>
        <time>2024-07-28T11:42:16.646Z</time>
      </trkpt>
      <trkpt lat="54.22362" lon="15.78908">
        <ele>39.155441</ele>
        <time>2024-07-28T11:42:18.657Z</time>
      </trkpt>
      <trkpt lat="54.22374" lon="15.78921">
        <ele>39.113315</ele>
        <time>2024-07-28T11:42:21.648Z</time>
      </trkpt>
      <trkpt lat="54.22381" lon="15.78932">
        <ele>39.082293</ele>
        <time>2024-07-28T11:42:23.655Z</time>
      </trkpt>
      <trkpt lat="54.22389" lon="15.78943">
        <ele>39.050872</ele>
        <time>2024-07-28T11:42:25.649Z</time>
      </trkpt>
      <trkpt lat="54.22397" lon="15.78954">
        <ele>38.84331</ele>
        <time>2024-07-28T11:42:27.643Z</time>
      </trkpt>
      <trkpt lat="54.22404" lon="15.78966">
        <ele>38.627468</ele>
        <time>2024-07-28T11:42:29.641Z</time>
      </trkpt>
      <trkpt lat="54.22412" lon="15.78978">
        <ele>38.405712</ele>
        <time>2024-07-28T11:42:31.653Z</time>
      </trkpt>
      <trkpt lat="54.22419" lon="15.78992">
        <ele>38.176525</ele>
        <time>2024-07-28T11:42:33.646Z</time>
      </trkpt>
      <trkpt lat="54.22426" lon="15.79005">
        <ele>37.962245</ele>
        <time>2024-07-28T11:42:35.657Z</time>
      </trkpt>
      <trkpt lat="54.22432" lon="15.79018">
        <ele>37.753757</ele>
        <time>2024-07-28T11:42:37.659Z</time>
      </trkpt>
      <trkpt lat="54.22438" lon="15.79031">
        <ele>37.547377</ele>
        <time>2024-07-28T11:42:39.666Z</time>
      </trkpt>
      <trkpt lat="54.22444" lon="15.79045">
        <ele>37.336998</ele>
        <time>2024-07-28T11:42:41.656Z</time>
      </trkpt>
      <trkpt lat="54.22449" lon="15.79058">
        <ele>37.143862</ele>
        <time>2024-07-28T11:42:43.658Z</time>
      </trkpt>
      <trkpt lat="54.22455" lon="15.79073">
        <ele>36.923335</ele>
        <time>2024-07-28T11:42:45.676Z</time>
      </trkpt>
      <trkpt lat="54.2246" lon="15.79087">
        <ele>36.718997</ele>
        <time>2024-07-28T11:42:47.656Z</time>
      </trkpt>
      <trkpt lat="54.22466" lon="15.79103">
        <ele>36.479079</ele>
        <time>2024-07-28T11:42:49.653Z</time>
      </trkpt>
      <trkpt lat="54.22472" lon="15.79121">
        <ele>36.224411</ele>
        <time>2024-07-28T11:42:51.648Z</time>
      </trkpt>
      <trkpt lat="54.22477" lon="15.79138">
        <ele>35.98258</ele>
        <time>2024-07-28T11:42:53.652Z</time>
      </trkpt>
      <trkpt lat="54.22483" lon="15.79155">
        <ele>35.74297</ele>
        <time>2024-07-28T11:42:55.670Z</time>
      </trkpt>
      <trkpt lat="54.22488" lon="15.79171">
        <ele>35.508609</ele>
        <time>2024-07-28T11:42:57.653Z</time>
      </trkpt>
      <trkpt lat="54.22493" lon="15.79191">
        <ele>35.246754</ele>
        <time>2024-07-28T11:42:59.659Z</time>
      </trkpt>
      <trkpt lat="54.22499" lon="15.79209">
        <ele>35.155717</ele>
        <time>2024-07-28T11:43:01.656Z</time>
      </trkpt>
      <trkpt lat="54.22506" lon="15.79227">
        <ele>35.071356</ele>
        <time>2024-07-28T11:43:03.649Z</time>
      </trkpt>
      <trkpt lat="54.22511" lon="15.79244">
        <ele>34.990828</ele>
        <time>2024-07-28T11:43:05.642Z</time>
      </trkpt>
      <trkpt lat="54.22516" lon="15.7926">
        <ele>34.918251</ele>
        <time>2024-07-28T11:43:07.660Z</time>
      </trkpt>
      <trkpt lat="54.22522" lon="15.79273">
        <ele>34.853695</ele>
        <time>2024-07-28T11:43:09.645Z</time>
      </trkpt>
      <trkpt lat="54.22528" lon="15.79292">
        <ele>34.765752</ele>
        <time>2024-07-28T11:43:12.668Z</time>
      </trkpt>
      <trkpt lat="54.22532" lon="15.79307">
        <ele>34.699426</ele>
        <time>2024-07-28T11:43:15.662Z</time>
      </trkpt>
      <trkpt lat="54.22538" lon="15.79322">
        <ele>34.62793</ele>
        <time>2024-07-28T11:43:18.671Z</time>
      </trkpt>
      <trkpt lat="54.22542" lon="15.79339">
        <ele>34.552944</ele>
        <time>2024-07-28T11:43:21.657Z</time>
      </trkpt>
      <trkpt lat="54.2255" lon="15.7936">
        <ele>34.450806</ele>
        <time>2024-07-28T11:43:24.654Z</time>
      </trkpt>
      <trkpt lat="54.22555" lon="15.79374">
        <ele>34.387693</ele>
        <time>2024-07-28T11:43:26.654Z</time>
      </trkpt>
      <trkpt lat="54.2256" lon="15.79386">
        <ele>34.322822</ele>
        <time>2024-07-28T11:43:28.663Z</time>
      </trkpt>
      <trkpt lat="54.22568" lon="15.79402">
        <ele>34.240972</ele>
        <time>2024-07-28T11:43:31.655Z</time>
      </trkpt>
      <trkpt lat="54.22576" lon="15.79415">
        <ele>34.163284</ele>
        <time>2024-07-28T11:43:34.660Z</time>
      </trkpt>
      <trkpt lat="54.22586" lon="15.79428">
        <ele>34.074942</ele>
        <time>2024-07-28T11:43:37.645Z</time>
      </trkpt>
      <trkpt lat="54.22597" lon="15.7944">
        <ele>33.998287</ele>
        <time>2024-07-28T11:43:40.661Z</time>
      </trkpt>
      <trkpt lat="54.22606" lon="15.7945">
        <ele>34.028351</ele>
        <time>2024-07-28T11:43:43.657Z</time>
      </trkpt>
      <trkpt lat="54.22616" lon="15.79456">
        <ele>34.057445</ele>
        <time>2024-07-28T11:43:45.651Z</time>
      </trkpt>
      <trkpt lat="54.22625" lon="15.79463">
        <ele>34.085089</ele>
        <time>2024-07-28T11:43:47.665Z</time>
      </trkpt>
      <trkpt lat="54.22634" lon="15.79468">
        <ele>34.11156</ele>
        <time>2024-07-28T11:43:49.672Z</time>
      </trkpt>
      <trkpt lat="54.22642" lon="15.79475">
        <ele>34.137142</ele>
        <time>2024-07-28T11:43:51.669Z</time>
      </trkpt>
      <trkpt lat="54.2265" lon="15.79483">
        <ele>34.162383</ele>
        <time>2024-07-28T11:43:53.672Z</time>
      </trkpt>
      <trkpt lat="54.22659" lon="15.79491">
        <ele>34.188506</ele>
        <time>2024-07-28T11:43:55.651Z</time>
      </trkpt>
      <trkpt lat="54.22666" lon="15.795">
        <ele>34.214068</ele>
        <time>2024-07-28T11:43:57.651Z</time>
      </trkpt>
      <trkpt lat="54.22673" lon="15.79509">
        <ele>34.23933</ele>
        <time>2024-07-28T11:43:59.655Z</time>
      </trkpt>
      <trkpt lat="54.2268" lon="15.79519">
        <ele>34.264642</ele>
        <time>2024-07-28T11:44:01.657Z</time>
      </trkpt>
      <trkpt lat="54.2269" lon="15.79535">
        <ele>34.301728</ele>
        <time>2024-07-28T11:44:04.668Z</time>
      </trkpt>
      <trkpt lat="54.22698" lon="15.79552">
        <ele>34.337292</ele>
        <time>2024-07-28T11:44:07.658Z</time>
      </trkpt>
      <trkpt lat="54.22705" lon="15.79569">
        <ele>34.37183</ele>
        <time>2024-07-28T11:44:10.647Z</time>
      </trkpt>
      <trkpt lat="54.22711" lon="15.79587">
        <ele>34.405166</ele>
        <time>2024-07-28T11:44:13.657Z</time>
      </trkpt>
      <trkpt lat="54.22716" lon="15.79606">
        <ele>34.438711</ele>
        <time>2024-07-28T11:44:16.663Z</time>
      </trkpt>
      <trkpt lat="54.2272" lon="15.79625">
        <ele>34.472546</ele>
        <time>2024-07-28T11:44:19.663Z</time>
      </trkpt>
      <trkpt lat="54.22724" lon="15.79646">
        <ele>34.496922</ele>
        <time>2024-07-28T11:44:22.658Z</time>
      </trkpt>
      <trkpt lat="54.22728" lon="15.79666">
        <ele>34.503671</ele>
        <time>2024-07-28T11:44:25.645Z</time>
      </trkpt>
      <trkpt lat="54.22731" lon="15.79681">
        <ele>34.508992</ele>
        <time>2024-07-28T11:44:30.657Z</time>
      </trkpt>
      <trkpt lat="54.22733" lon="15.79699">
        <ele>34.514651</ele>
        <time>2024-07-28T11:44:34.646Z</time>
      </trkpt>
      <trkpt lat="54.22737" lon="15.79719">
        <ele>34.521618</ele>
        <time>2024-07-28T11:44:38.653Z</time>
      </trkpt>
      <trkpt lat="54.2274" lon="15.79736">
        <ele>34.5275</ele>
        <time>2024-07-28T11:44:41.639Z</time>
      </trkpt>
      <trkpt lat="54.22744" lon="15.79753">
        <ele>34.533539</ele>
        <time>2024-07-28T11:44:44.659Z</time>
      </trkpt>
      <trkpt lat="54.22748" lon="15.79771">
        <ele>34.539792</ele>
        <time>2024-07-28T11:44:47.659Z</time>
      </trkpt>
      <trkpt lat="54.2275" lon="15.79789">
        <ele>34.545703</ele>
        <time>2024-07-28T11:44:50.646Z</time>
      </trkpt>
      <trkpt lat="54.22752" lon="15.79805">
        <ele>34.551118</ele>
        <time>2024-07-28T11:44:53.650Z</time>
      </trkpt>
      <trkpt lat="54.22755" lon="15.79823">
        <ele>34.556985</ele>
        <time>2024-07-28T11:44:56.658Z</time>
      </trkpt>
      <trkpt lat="54.22757" lon="15.79839">
        <ele>34.562436</ele>
        <time>2024-07-28T11:44:59.665Z</time>
      </trkpt>
      <trkpt lat="54.22759" lon="15.79855">
        <ele>34.567595</ele>
        <time>2024-07-28T11:45:02.660Z</time>
      </trkpt>
      <trkpt lat="54.22759" lon="15.7987">
        <ele>34.572639</ele>
        <time>2024-07-28T11:45:06.660Z</time>
      </trkpt>
      <trkpt lat="54.22761" lon="15.79887">
        <ele>34.578165</ele>
        <time>2024-07-28T11:45:11.672Z</time>
      </trkpt>
      <trkpt lat="54.22761" lon="15.79906">
        <ele>34.584354</ele>
        <time>2024-07-28T11:45:16.649Z</time>
      </trkpt>
      <trkpt lat="54.22761" lon="15.79921">
        <ele>34.589398</ele>
        <time>2024-07-28T11:45:19.654Z</time>
      </trkpt>
      <trkpt lat="54.22762" lon="15.79941">
        <ele>34.601674</ele>
        <time>2024-07-28T11:45:23.666Z</time>
      </trkpt>
      <trkpt lat="54.22763" lon="15.79957">
        <ele>34.626726</ele>
        <time>2024-07-28T11:45:26.655Z</time>
      </trkpt>
      <trkpt lat="54.22764" lon="15.79973">
        <ele>34.653327</ele>
        <time>2024-07-28T11:45:29.666Z</time>
      </trkpt>
      <trkpt lat="54.22765" lon="15.79992">
        <ele>34.683828</ele>
        <time>2024-07-28T11:45:32.657Z</time>
      </trkpt>
      <trkpt lat="54.22765" lon="15.80011">
        <ele>34.712847</ele>
        <time>2024-07-28T11:45:35.657Z</time>
      </trkpt>
      <trkpt lat="54.22766" lon="15.80027">
        <ele>34.738553</ele>
        <time>2024-07-28T11:45:38.646Z</time>
      </trkpt>
      <trkpt lat="54.22766" lon="15.80047">
        <ele>34.769774</ele>
        <time>2024-07-28T11:45:42.654Z</time>
      </trkpt>
      <trkpt lat="54.22767" lon="15.80065">
        <ele>34.799506</ele>
        <time>2024-07-28T11:45:45.637Z</time>
      </trkpt>
      <trkpt lat="54.22767" lon="15.80086">
        <ele>34.832466</ele>
        <time>2024-07-28T11:45:48.659Z</time>
      </trkpt>
      <trkpt lat="54.22767" lon="15.80108">
        <ele>34.866539</ele>
        <time>2024-07-28T11:45:51.665Z</time>
      </trkpt>
      <trkpt lat="54.22767" lon="15.8013">
        <ele>34.901401</ele>
        <time>2024-07-28T11:45:54.656Z</time>
      </trkpt>
      <trkpt lat="54.22765" lon="15.80152">
        <ele>34.936408</ele>
        <time>2024-07-28T11:45:57.637Z</time>
      </trkpt>
      <trkpt lat="54.22763" lon="15.80174">
        <ele>34.972471</ele>
        <time>2024-07-28T11:46:00.653Z</time>
      </trkpt>
      <trkpt lat="54.22761" lon="15.80195">
        <ele>35.006231</ele>
        <time>2024-07-28T11:46:03.655Z</time>
      </trkpt>
      <trkpt lat="54.22758" lon="15.80216">
        <ele>35.040922</ele>
        <time>2024-07-28T11:46:06.640Z</time>
      </trkpt>
      <trkpt lat="54.22755" lon="15.80238">
        <ele>35.076675</ele>
        <time>2024-07-28T11:46:09.661Z</time>
      </trkpt>
      <trkpt lat="54.22752" lon="15.80261">
        <ele>34.969743</ele>
        <time>2024-07-28T11:46:12.634Z</time>
      </trkpt>
      <trkpt lat="54.22749" lon="15.80277">
        <ele>34.878272</ele>
        <time>2024-07-28T11:46:14.652Z</time>
      </trkpt>
      <trkpt lat="54.22747" lon="15.80293">
        <ele>34.785096</ele>
        <time>2024-07-28T11:46:16.648Z</time>
      </trkpt>
      <trkpt lat="54.22745" lon="15.8031">
        <ele>34.689253</ele>
        <time>2024-07-28T11:46:18.677Z</time>
      </trkpt>
      <trkpt lat="54.22743" lon="15.80327">
        <ele>34.592836</ele>
        <time>2024-07-28T11:46:20.654Z</time>
      </trkpt>
      <trkpt lat="54.22741" lon="15.80344">
        <ele>34.499443</ele>
        <time>2024-07-28T11:46:22.669Z</time>
      </trkpt>
      <trkpt lat="54.22738" lon="15.8036">
        <ele>34.404812</ele>
        <time>2024-07-28T11:46:24.645Z</time>
      </trkpt>
      <trkpt lat="54.22736" lon="15.80376">
        <ele>34.316029</ele>
        <time>2024-07-28T11:46:26.639Z</time>
      </trkpt>
      <trkpt lat="54.22734" lon="15.80392">
        <ele>34.225967</ele>
        <time>2024-07-28T11:46:28.653Z</time>
      </trkpt>
      <trkpt lat="54.22732" lon="15.80408">
        <ele>34.133423</ele>
        <time>2024-07-28T11:46:30.661Z</time>
      </trkpt>
      <trkpt lat="54.2273" lon="15.80424">
        <ele>34.042616</ele>
        <time>2024-07-28T11:46:32.648Z</time>
      </trkpt>
      <trkpt lat="54.22727" lon="15.80441">
        <ele>33.946399</ele>
        <time>2024-07-28T11:46:34.652Z</time>
      </trkpt>
      <trkpt lat="54.22725" lon="15.80459">
        <ele>33.847276</ele>
        <time>2024-07-28T11:46:36.633Z</time>
      </trkpt>
      <trkpt lat="54.22723" lon="15.80476">
        <ele>33.750431</ele>
        <time>2024-07-28T11:46:38.661Z</time>
      </trkpt>
      <trkpt lat="54.2272" lon="15.80491">
        <ele>33.660857</ele>
        <time>2024-07-28T11:46:40.669Z</time>
      </trkpt>
      <trkpt lat="54.22718" lon="15.80506">
        <ele>33.575325</ele>
        <time>2024-07-28T11:46:42.656Z</time>
      </trkpt>
      <trkpt lat="54.22716" lon="15.80522">
        <ele>33.484084</ele>
        <time>2024-07-28T11:46:44.674Z</time>
      </trkpt>
      <trkpt lat="54.22714" lon="15.80538">
        <ele>33.392843</ele>
        <time>2024-07-28T11:46:46.634Z</time>
      </trkpt>
      <trkpt lat="54.22711" lon="15.80555">
        <ele>33.422788</ele>
        <time>2024-07-28T11:46:48.658Z</time>
      </trkpt>
      <trkpt lat="54.22709" lon="15.80572">
        <ele>33.477825</ele>
        <time>2024-07-28T11:46:50.666Z</time>
      </trkpt>
      <trkpt lat="54.22706" lon="15.80589">
        <ele>33.532674</ele>
        <time>2024-07-28T11:46:52.669Z</time>
      </trkpt>
      <trkpt lat="54.22703" lon="15.80606">
        <ele>33.587845</ele>
        <time>2024-07-28T11:46:54.658Z</time>
      </trkpt>
      <trkpt lat="54.22699" lon="15.80623">
        <ele>33.646888</ele>
        <time>2024-07-28T11:46:57.663Z</time>
      </trkpt>
      <trkpt lat="54.22695" lon="15.80633">
        <ele>33.684931</ele>
        <time>2024-07-28T11:47:10.553Z</time>
      </trkpt>
      <trkpt lat="54.22696" lon="15.8065">
        <ele>33.739842</ele>
        <time>2024-07-28T11:50:58.655Z</time>
      </trkpt>
      <trkpt lat="54.22694" lon="15.80669">
        <ele>33.799627</ele>
        <time>2024-07-28T11:51:03.624Z</time>
      </trkpt>
      <trkpt lat="54.22693" lon="15.80685">
        <ele>33.850585</ele>
        <time>2024-07-28T11:51:06.636Z</time>
      </trkpt>
      <trkpt lat="54.22691" lon="15.80702">
        <ele>33.907186</ele>
        <time>2024-07-28T11:51:09.658Z</time>
      </trkpt>
      <trkpt lat="54.22689" lon="15.80722">
        <ele>33.969345</ele>
        <time>2024-07-28T11:51:12.658Z</time>
      </trkpt>
      <trkpt lat="54.22687" lon="15.80742">
        <ele>34.033453</ele>
        <time>2024-07-28T11:51:15.651Z</time>
      </trkpt>
      <trkpt lat="54.22687" lon="15.80762">
        <ele>34.095012</ele>
        <time>2024-07-28T11:51:18.645Z</time>
      </trkpt>
      <trkpt lat="54.22686" lon="15.80783">
        <ele>34.161651</ele>
        <time>2024-07-28T11:51:21.662Z</time>
      </trkpt>
      <trkpt lat="54.22687" lon="15.80805">
        <ele>34.231246</ele>
        <time>2024-07-28T11:51:24.672Z</time>
      </trkpt>
      <trkpt lat="54.22689" lon="15.80826">
        <ele>34.299466</ele>
        <time>2024-07-28T11:51:27.655Z</time>
      </trkpt>
      <trkpt lat="54.22693" lon="15.80848">
        <ele>34.319232</ele>
        <time>2024-07-28T11:51:30.641Z</time>
      </trkpt>
      <trkpt lat="54.22696" lon="15.80869">
        <ele>34.251006</ele>
        <time>2024-07-28T11:51:33.673Z</time>
      </trkpt>
      <trkpt lat="54.22701" lon="15.80888">
        <ele>34.183817</ele>
        <time>2024-07-28T11:51:36.647Z</time>
      </trkpt>
      <trkpt lat="54.22706" lon="15.80902">
        <ele>34.134456</ele>
        <time>2024-07-28T11:51:38.649Z</time>
      </trkpt>
      <trkpt lat="54.2271" lon="15.80916">
        <ele>34.085812</ele>
        <time>2024-07-28T11:51:40.665Z</time>
      </trkpt>
      <trkpt lat="54.22715" lon="15.80929">
        <ele>34.036699</ele>
        <time>2024-07-28T11:51:42.673Z</time>
      </trkpt>
      <trkpt lat="54.22719" lon="15.80944">
        <ele>33.984453</ele>
        <time>2024-07-28T11:51:44.664Z</time>
      </trkpt>
      <trkpt lat="54.22723" lon="15.80958">
        <ele>33.934276</ele>
        <time>2024-07-28T11:51:46.649Z</time>
      </trkpt>
      <trkpt lat="54.22728" lon="15.80973">
        <ele>33.883554</ele>
        <time>2024-07-28T11:51:48.639Z</time>
      </trkpt>
      <trkpt lat="54.22733" lon="15.80987">
        <ele>33.831766</ele>
        <time>2024-07-28T11:51:50.660Z</time>
      </trkpt>
      <trkpt lat="54.22738" lon="15.81001">
        <ele>33.779973</ele>
        <time>2024-07-28T11:51:52.656Z</time>
      </trkpt>
      <trkpt lat="54.22743" lon="15.81015">
        <ele>33.728723</ele>
        <time>2024-07-28T11:51:54.650Z</time>
      </trkpt>
      <trkpt lat="54.22749" lon="15.81029">
        <ele>33.674856</ele>
        <time>2024-07-28T11:51:56.655Z</time>
      </trkpt>
      <trkpt lat="54.22754" lon="15.81044">
        <ele>33.620896</ele>
        <time>2024-07-28T11:51:58.627Z</time>
      </trkpt>
      <trkpt lat="54.22759" lon="15.81058">
        <ele>33.569568</ele>
        <time>2024-07-28T11:52:00.667Z</time>
      </trkpt>
      <trkpt lat="54.22764" lon="15.81071">
        <ele>33.51992</ele>
        <time>2024-07-28T11:52:02.674Z</time>
      </trkpt>
      <trkpt lat="54.22769" lon="15.81084">
        <ele>33.471005</ele>
        <time>2024-07-28T11:52:04.671Z</time>
      </trkpt>
      <trkpt lat="54.22774" lon="15.81097">
        <ele>33.422647</ele>
        <time>2024-07-28T11:52:06.629Z</time>
      </trkpt>
      <trkpt lat="54.22779" lon="15.81111">
        <ele>33.386876</ele>
        <time>2024-07-28T11:52:08.646Z</time>
      </trkpt>
      <trkpt lat="54.22784" lon="15.81125">
        <ele>33.40905</ele>
        <time>2024-07-28T11:52:10.664Z</time>
      </trkpt>
      <trkpt lat="54.22789" lon="15.81139">
        <ele>33.431094</ele>
        <time>2024-07-28T11:52:12.655Z</time>
      </trkpt>
      <trkpt lat="54.22794" lon="15.81152">
        <ele>33.45209</ele>
        <time>2024-07-28T11:52:14.647Z</time>
      </trkpt>
      <trkpt lat="54.22801" lon="15.81172">
        <ele>33.483181</ele>
        <time>2024-07-28T11:52:17.656Z</time>
      </trkpt>
      <trkpt lat="54.22806" lon="15.81185">
        <ele>33.503852</ele>
        <time>2024-07-28T11:52:19.661Z</time>
      </trkpt>
      <trkpt lat="54.22811" lon="15.81199">
        <ele>33.525553</ele>
        <time>2024-07-28T11:52:21.666Z</time>
      </trkpt>
      <trkpt lat="54.22815" lon="15.81213">
        <ele>33.547825</ele>
        <time>2024-07-28T11:52:23.651Z</time>
      </trkpt>
      <trkpt lat="54.2282" lon="15.81228">
        <ele>33.570677</ele>
        <time>2024-07-28T11:52:25.654Z</time>
      </trkpt>
      <trkpt lat="54.22826" lon="15.81242">
        <ele>33.593515</ele>
        <time>2024-07-28T11:52:27.652Z</time>
      </trkpt>
      <trkpt lat="54.22832" lon="15.81256">
        <ele>33.616277</ele>
        <time>2024-07-28T11:52:29.651Z</time>
      </trkpt>
      <trkpt lat="54.22837" lon="15.8127">
        <ele>33.639027</ele>
        <time>2024-07-28T11:52:31.659Z</time>
      </trkpt>
      <trkpt lat="54.22842" lon="15.81284">
        <ele>33.661915</ele>
        <time>2024-07-28T11:52:33.670Z</time>
      </trkpt>
      <trkpt lat="54.22848" lon="15.81299">
        <ele>33.685491</ele>
        <time>2024-07-28T11:52:35.674Z</time>
      </trkpt>
      <trkpt lat="54.22853" lon="15.81313">
        <ele>33.707551</ele>
        <time>2024-07-28T11:52:37.655Z</time>
      </trkpt>
      <trkpt lat="54.22858" lon="15.81327">
        <ele>33.729246</ele>
        <time>2024-07-28T11:52:39.657Z</time>
      </trkpt>
      <trkpt lat="54.22863" lon="15.8134">
        <ele>33.751307</ele>
        <time>2024-07-28T11:52:41.652Z</time>
      </trkpt>
      <trkpt lat="54.22868" lon="15.81354">
        <ele>33.773472</ele>
        <time>2024-07-28T11:52:43.648Z</time>
      </trkpt>
      <trkpt lat="54.22874" lon="15.81369">
        <ele>33.796465</ele>
        <time>2024-07-28T11:52:45.655Z</time>
      </trkpt>
      <trkpt lat="54.22878" lon="15.81384">
        <ele>33.835329</ele>
        <time>2024-07-28T11:52:47.653Z</time>
      </trkpt>
      <trkpt lat="54.22884" lon="15.81398">
        <ele>33.87441</ele>
        <time>2024-07-28T11:52:49.654Z</time>
      </trkpt>
      <trkpt lat="54.22889" lon="15.81412">
        <ele>33.9133</ele>
        <time>2024-07-28T11:52:51.668Z</time>
      </trkpt>
      <trkpt lat="54.22894" lon="15.81426">
        <ele>33.950195</ele>
        <time>2024-07-28T11:52:53.652Z</time>
      </trkpt>
      <trkpt lat="54.22899" lon="15.81439">
        <ele>33.98653</ele>
        <time>2024-07-28T11:52:55.655Z</time>
      </trkpt>
      <trkpt lat="54.22905" lon="15.81454">
        <ele>34.026569</ele>
        <time>2024-07-28T11:52:57.679Z</time>
      </trkpt>
      <trkpt lat="54.2291" lon="15.81468">
        <ele>34.064125</ele>
        <time>2024-07-28T11:52:59.660Z</time>
      </trkpt>
      <trkpt lat="54.22915" lon="15.81482">
        <ele>34.102804</ele>
        <time>2024-07-28T11:53:01.652Z</time>
      </trkpt>
      <trkpt lat="54.22921" lon="15.81497">
        <ele>34.142445</ele>
        <time>2024-07-28T11:53:03.650Z</time>
      </trkpt>
      <trkpt lat="54.22926" lon="15.81511">
        <ele>34.180322</ele>
        <time>2024-07-28T11:53:05.670Z</time>
      </trkpt>
      <trkpt lat="54.2293" lon="15.81526">
        <ele>34.219401</ele>
        <time>2024-07-28T11:53:07.659Z</time>
      </trkpt>
      <trkpt lat="54.22936" lon="15.81541">
        <ele>34.25927</ele>
        <time>2024-07-28T11:53:09.669Z</time>
      </trkpt>
      <trkpt lat="54.22941" lon="15.81556">
        <ele>34.298335</ele>
        <time>2024-07-28T11:53:11.677Z</time>
      </trkpt>
      <trkpt lat="54.22946" lon="15.8157">
        <ele>34.336821</ele>
        <time>2024-07-28T11:53:13.661Z</time>
      </trkpt>
      <trkpt lat="54.22952" lon="15.81585">
        <ele>34.376658</ele>
        <time>2024-07-28T11:53:15.669Z</time>
      </trkpt>
      <trkpt lat="54.22957" lon="15.816">
        <ele>34.415917</ele>
        <time>2024-07-28T11:53:17.668Z</time>
      </trkpt>
      <trkpt lat="54.22962" lon="15.81614">
        <ele>34.455046</ele>
        <time>2024-07-28T11:53:19.669Z</time>
      </trkpt>
      <trkpt lat="54.22968" lon="15.81628">
        <ele>34.494095</ele>
        <time>2024-07-28T11:53:21.660Z</time>
      </trkpt>
      <trkpt lat="54.22973" lon="15.81643">
        <ele>34.412509</ele>
        <time>2024-07-28T11:53:23.654Z</time>
      </trkpt>
      <trkpt lat="54.22978" lon="15.81658">
        <ele>34.310568</ele>
        <time>2024-07-28T11:53:25.664Z</time>
      </trkpt>
      <trkpt lat="54.22983" lon="15.81673">
        <ele>34.210631</ele>
        <time>2024-07-28T11:53:27.658Z</time>
      </trkpt>
      <trkpt lat="54.22988" lon="15.81687">
        <ele>34.117044</ele>
        <time>2024-07-28T11:53:29.654Z</time>
      </trkpt>
      <trkpt lat="54.22993" lon="15.81701">
        <ele>34.02407</ele>
        <time>2024-07-28T11:53:31.656Z</time>
      </trkpt>
      <trkpt lat="54.22998" lon="15.81715">
        <ele>33.93057</ele>
        <time>2024-07-28T11:53:33.653Z</time>
      </trkpt>
      <trkpt lat="54.23003" lon="15.81729">
        <ele>33.833546</ele>
        <time>2024-07-28T11:53:35.641Z</time>
      </trkpt>
      <trkpt lat="54.23009" lon="15.81744">
        <ele>33.729729</ele>
        <time>2024-07-28T11:53:37.656Z</time>
      </trkpt>
      <trkpt lat="54.23015" lon="15.81758">
        <ele>33.630606</ele>
        <time>2024-07-28T11:53:39.642Z</time>
      </trkpt>
      <trkpt lat="54.2302" lon="15.81772">
        <ele>33.535143</ele>
        <time>2024-07-28T11:53:41.650Z</time>
      </trkpt>
      <trkpt lat="54.23025" lon="15.81786">
        <ele>33.441014</ele>
        <time>2024-07-28T11:53:43.681Z</time>
      </trkpt>
      <trkpt lat="54.23031" lon="15.818">
        <ele>33.343874</ele>
        <time>2024-07-28T11:53:45.651Z</time>
      </trkpt>
      <trkpt lat="54.23036" lon="15.81814">
        <ele>33.245706</ele>
        <time>2024-07-28T11:53:47.669Z</time>
      </trkpt>
      <trkpt lat="54.23042" lon="15.81828">
        <ele>33.147123</ele>
        <time>2024-07-28T11:53:49.643Z</time>
      </trkpt>
      <trkpt lat="54.23049" lon="15.81841">
        <ele>33.045956</ele>
        <time>2024-07-28T11:53:51.662Z</time>
      </trkpt>
      <trkpt lat="54.23056" lon="15.81855">
        <ele>32.942251</ele>
        <time>2024-07-28T11:53:53.636Z</time>
      </trkpt>
      <trkpt lat="54.23062" lon="15.81868">
        <ele>32.840704</ele>
        <time>2024-07-28T11:53:55.660Z</time>
      </trkpt>
      <trkpt lat="54.2307" lon="15.81882">
        <ele>32.734962</ele>
        <time>2024-07-28T11:53:57.649Z</time>
      </trkpt>
      <trkpt lat="54.23077" lon="15.81893">
        <ele>32.842757</ele>
        <time>2024-07-28T11:53:59.651Z</time>
      </trkpt>
      <trkpt lat="54.23084" lon="15.81905">
        <ele>32.962748</ele>
        <time>2024-07-28T11:54:01.651Z</time>
      </trkpt>
      <trkpt lat="54.23091" lon="15.81917">
        <ele>33.090537</ele>
        <time>2024-07-28T11:54:03.655Z</time>
      </trkpt>
      <trkpt lat="54.23099" lon="15.81928">
        <ele>33.217736</ele>
        <time>2024-07-28T11:54:05.640Z</time>
      </trkpt>
      <trkpt lat="54.23107" lon="15.81939">
        <ele>33.345913</ele>
        <time>2024-07-28T11:54:07.643Z</time>
      </trkpt>
      <trkpt lat="54.23115" lon="15.81949">
        <ele>33.468806</ele>
        <time>2024-07-28T11:54:09.669Z</time>
      </trkpt>
      <trkpt lat="54.23124" lon="15.81957">
        <ele>33.59764</ele>
        <time>2024-07-28T11:54:11.660Z</time>
      </trkpt>
      <trkpt lat="54.23134" lon="15.81967">
        <ele>33.739598</ele>
        <time>2024-07-28T11:54:13.659Z</time>
      </trkpt>
      <trkpt lat="54.23143" lon="15.81976">
        <ele>33.874755</ele>
        <time>2024-07-28T11:54:15.648Z</time>
      </trkpt>
      <trkpt lat="54.23152" lon="15.81987">
        <ele>34.008803</ele>
        <time>2024-07-28T11:54:17.634Z</time>
      </trkpt>
      <trkpt lat="54.23161" lon="15.81997">
        <ele>34.143569</ele>
        <time>2024-07-28T11:54:19.672Z</time>
      </trkpt>
      <trkpt lat="54.2317" lon="15.82006">
        <ele>34.272065</ele>
        <time>2024-07-28T11:54:21.657Z</time>
      </trkpt>
      <trkpt lat="54.23178" lon="15.82014">
        <ele>34.395817</ele>
        <time>2024-07-28T11:54:23.655Z</time>
      </trkpt>
      <trkpt lat="54.23187" lon="15.82021">
        <ele>34.513569</ele>
        <time>2024-07-28T11:54:25.659Z</time>
      </trkpt>
      <trkpt lat="54.23195" lon="15.82028">
        <ele>34.627972</ele>
        <time>2024-07-28T11:54:27.652Z</time>
      </trkpt>
      <trkpt lat="54.23207" lon="15.82038">
        <ele>34.792779</ele>
        <time>2024-07-28T11:54:30.671Z</time>
      </trkpt>
      <trkpt lat="54.23219" lon="15.82046">
        <ele>34.951805</ele>
        <time>2024-07-28T11:54:33.652Z</time>
      </trkpt>
      <trkpt lat="54.23229" lon="15.82058">
        <ele>35.018185</ele>
        <time>2024-07-28T11:54:36.649Z</time>
      </trkpt>
      <trkpt lat="54.2324" lon="15.82067">
        <ele>35.061459</ele>
        <time>2024-07-28T11:54:39.638Z</time>
      </trkpt>
      <trkpt lat="54.2325" lon="15.82076">
        <ele>35.105435</ele>
        <time>2024-07-28T11:54:42.648Z</time>
      </trkpt>
      <trkpt lat="54.23259" lon="15.82085">
        <ele>35.142493</ele>
        <time>2024-07-28T11:54:45.648Z</time>
      </trkpt>
      <trkpt lat="54.23269" lon="15.82095">
        <ele>35.183489</ele>
        <time>2024-07-28T11:54:49.643Z</time>
      </trkpt>
      <trkpt lat="54.23278" lon="15.82107">
        <ele>35.227666</ele>
        <time>2024-07-28T11:54:53.648Z</time>
      </trkpt>
      <trkpt lat="54.23288" lon="15.82114">
        <ele>35.263866</ele>
        <time>2024-07-28T11:54:56.640Z</time>
      </trkpt>
      <trkpt lat="54.23298" lon="15.82125">
        <ele>35.30851</ele>
        <time>2024-07-28T11:55:00.650Z</time>
      </trkpt>
      <trkpt lat="54.23306" lon="15.82134">
        <ele>35.344558</ele>
        <time>2024-07-28T11:55:03.671Z</time>
      </trkpt>
      <trkpt lat="54.23314" lon="15.82143">
        <ele>35.37866</ele>
        <time>2024-07-28T11:55:06.643Z</time>
      </trkpt>
      <trkpt lat="54.23324" lon="15.82155">
        <ele>35.422044</ele>
        <time>2024-07-28T11:55:10.653Z</time>
      </trkpt>
      <trkpt lat="54.23333" lon="15.82164">
        <ele>35.462361</ele>
        <time>2024-07-28T11:55:13.634Z</time>
      </trkpt>
      <trkpt lat="54.23343" lon="15.82174">
        <ele>35.503845</ele>
        <time>2024-07-28T11:55:16.634Z</time>
      </trkpt>
      <trkpt lat="54.23354" lon="15.82183">
        <ele>35.546717</ele>
        <time>2024-07-28T11:55:19.646Z</time>
      </trkpt>
      <trkpt lat="54.23362" lon="15.82191">
        <ele>35.58071</ele>
        <time>2024-07-28T11:55:21.648Z</time>
      </trkpt>
      <trkpt lat="54.2337" lon="15.822">
        <ele>35.615149</ele>
        <time>2024-07-28T11:55:23.651Z</time>
      </trkpt>
      <trkpt lat="54.23379" lon="15.8221">
        <ele>35.550446</ele>
        <time>2024-07-28T11:55:25.643Z</time>
      </trkpt>
      <trkpt lat="54.23389" lon="15.82222">
        <ele>35.355336</ele>
        <time>2024-07-28T11:55:28.639Z</time>
      </trkpt>
      <trkpt lat="54.234" lon="15.82235">
        <ele>35.145517</ele>
        <time>2024-07-28T11:55:31.668Z</time>
      </trkpt>
      <trkpt lat="54.23407" lon="15.82246">
        <ele>34.996921</ele>
        <time>2024-07-28T11:55:33.648Z</time>
      </trkpt>
      <trkpt lat="54.23413" lon="15.8226">
        <ele>34.839346</ele>
        <time>2024-07-28T11:55:35.635Z</time>
      </trkpt>
      <trkpt lat="54.23419" lon="15.82274">
        <ele>34.676346</ele>
        <time>2024-07-28T11:55:37.649Z</time>
      </trkpt>
      <trkpt lat="54.23426" lon="15.82291">
        <ele>34.480841</ele>
        <time>2024-07-28T11:55:39.654Z</time>
      </trkpt>
      <trkpt lat="54.23432" lon="15.82309">
        <ele>34.284456</ele>
        <time>2024-07-28T11:55:41.646Z</time>
      </trkpt>
      <trkpt lat="54.23438" lon="15.8233">
        <ele>34.068384</ele>
        <time>2024-07-28T11:55:43.658Z</time>
      </trkpt>
      <trkpt lat="54.23444" lon="15.82351">
        <ele>33.850858</ele>
        <time>2024-07-28T11:55:45.647Z</time>
      </trkpt>
      <trkpt lat="54.23451" lon="15.82368">
        <ele>33.661414</ele>
        <time>2024-07-28T11:55:47.649Z</time>
      </trkpt>
      <trkpt lat="54.23456" lon="15.82384">
        <ele>33.48275</ele>
        <time>2024-07-28T11:55:49.666Z</time>
      </trkpt>
      <trkpt lat="54.23462" lon="15.82402">
        <ele>33.300013</ele>
        <time>2024-07-28T11:55:51.639Z</time>
      </trkpt>
      <trkpt lat="54.23466" lon="15.82418">
        <ele>33.133819</ele>
        <time>2024-07-28T11:55:53.651Z</time>
      </trkpt>
      <trkpt lat="54.23471" lon="15.82435">
        <ele>32.957986</ele>
        <time>2024-07-28T11:55:55.662Z</time>
      </trkpt>
      <trkpt lat="54.23475" lon="15.82451">
        <ele>32.794931</ele>
        <time>2024-07-28T11:55:57.659Z</time>
      </trkpt>
      <trkpt lat="54.23479" lon="15.82467">
        <ele>32.950514</ele>
        <time>2024-07-28T11:55:59.663Z</time>
      </trkpt>
      <trkpt lat="54.23483" lon="15.82484">
        <ele>33.180342</ele>
        <time>2024-07-28T11:56:01.641Z</time>
      </trkpt>
      <trkpt lat="54.23488" lon="15.82501">
        <ele>33.397816</ele>
        <time>2024-07-28T11:56:03.647Z</time>
      </trkpt>
      <trkpt lat="54.23492" lon="15.82517">
        <ele>33.616149</ele>
        <time>2024-07-28T11:56:05.655Z</time>
      </trkpt>
      <trkpt lat="54.23496" lon="15.82533">
        <ele>33.832933</ele>
        <time>2024-07-28T11:56:07.637Z</time>
      </trkpt>
      <trkpt lat="54.235" lon="15.82549">
        <ele>34.042941</ele>
        <time>2024-07-28T11:56:09.647Z</time>
      </trkpt>
      <trkpt lat="54.23503" lon="15.82565">
        <ele>34.254986</ele>
        <time>2024-07-28T11:56:11.642Z</time>
      </trkpt>
      <trkpt lat="54.23506" lon="15.82581">
        <ele>34.464162</ele>
        <time>2024-07-28T11:56:13.651Z</time>
      </trkpt>
      <trkpt lat="54.2351" lon="15.82597">
        <ele>34.666171</ele>
        <time>2024-07-28T11:56:15.646Z</time>
      </trkpt>
      <trkpt lat="54.23514" lon="15.82612">
        <ele>34.871846</ele>
        <time>2024-07-28T11:56:17.640Z</time>
      </trkpt>
      <trkpt lat="54.23517" lon="15.82627">
        <ele>35.062913</ele>
        <time>2024-07-28T11:56:19.637Z</time>
      </trkpt>
      <trkpt lat="54.2352" lon="15.82641">
        <ele>35.253106</ele>
        <time>2024-07-28T11:56:21.640Z</time>
      </trkpt>
      <trkpt lat="54.23523" lon="15.82663">
        <ele>35.534025</ele>
        <time>2024-07-28T11:56:24.645Z</time>
      </trkpt>
      <trkpt lat="54.23527" lon="15.82679">
        <ele>35.744817</ele>
        <time>2024-07-28T11:56:26.658Z</time>
      </trkpt>
      <trkpt lat="54.23531" lon="15.82694">
        <ele>35.946825</ele>
        <time>2024-07-28T11:56:28.639Z</time>
      </trkpt>
      <trkpt lat="54.23534" lon="15.8271">
        <ele>36.143217</ele>
        <time>2024-07-28T11:56:30.640Z</time>
      </trkpt>
      <trkpt lat="54.23536" lon="15.82726">
        <ele>36.354248</ele>
        <time>2024-07-28T11:56:32.636Z</time>
      </trkpt>
      <trkpt lat="54.23538" lon="15.82742">
        <ele>36.552983</ele>
        <time>2024-07-28T11:56:34.646Z</time>
      </trkpt>
      <trkpt lat="54.2354" lon="15.82758">
        <ele>36.878259</ele>
        <time>2024-07-28T11:56:36.647Z</time>
      </trkpt>
      <trkpt lat="54.23542" lon="15.8278">
        <ele>37.308377</ele>
        <time>2024-07-28T11:56:39.650Z</time>
      </trkpt>
      <trkpt lat="54.23543" lon="15.82802">
        <ele>37.745561</ele>
        <time>2024-07-28T11:56:42.630Z</time>
      </trkpt>
      <trkpt lat="54.23542" lon="15.82818">
        <ele>38.069157</ele>
        <time>2024-07-28T11:56:44.636Z</time>
      </trkpt>
      <trkpt lat="54.23542" lon="15.82836">
        <ele>38.410387</ele>
        <time>2024-07-28T11:56:46.648Z</time>
      </trkpt>
      <trkpt lat="54.23542" lon="15.82853">
        <ele>38.741734</ele>
        <time>2024-07-28T11:56:48.654Z</time>
      </trkpt>
      <trkpt lat="54.23541" lon="15.82869">
        <ele>39.061412</ele>
        <time>2024-07-28T11:56:50.651Z</time>
      </trkpt>
      <trkpt lat="54.23541" lon="15.82886">
        <ele>39.386966</ele>
        <time>2024-07-28T11:56:52.647Z</time>
      </trkpt>
      <trkpt lat="54.23541" lon="15.82903">
        <ele>39.735905</ele>
        <time>2024-07-28T11:56:54.643Z</time>
      </trkpt>
      <trkpt lat="54.23541" lon="15.82921">
        <ele>40.073333</ele>
        <time>2024-07-28T11:56:56.646Z</time>
      </trkpt>
      <trkpt lat="54.2354" lon="15.82938">
        <ele>40.407399</ele>
        <time>2024-07-28T11:56:58.641Z</time>
      </trkpt>
      <trkpt lat="54.2354" lon="15.82954">
        <ele>40.731116</ele>
        <time>2024-07-28T11:57:00.648Z</time>
      </trkpt>
      <trkpt lat="54.2354" lon="15.82971">
        <ele>41.062414</ele>
        <time>2024-07-28T11:57:02.648Z</time>
      </trkpt>
      <trkpt lat="54.2354" lon="15.82987">
        <ele>41.376213</ele>
        <time>2024-07-28T11:57:04.666Z</time>
      </trkpt>
      <trkpt lat="54.2354" lon="15.83004">
        <ele>41.707493</ele>
        <time>2024-07-28T11:57:06.637Z</time>
      </trkpt>
      <trkpt lat="54.23541" lon="15.8302">
        <ele>42.031487</ele>
        <time>2024-07-28T11:57:08.673Z</time>
      </trkpt>
      <trkpt lat="54.23541" lon="15.83037">
        <ele>42.351076</ele>
        <time>2024-07-28T11:57:10.646Z</time>
      </trkpt>
      <trkpt lat="54.2354" lon="15.83053">
        <ele>42.563433</ele>
        <time>2024-07-28T11:57:12.665Z</time>
      </trkpt>
      <trkpt lat="54.2354" lon="15.8307">
        <ele>42.520674</ele>
        <time>2024-07-28T11:57:14.658Z</time>
      </trkpt>
      <trkpt lat="54.23539" lon="15.83087">
        <ele>42.476622</ele>
        <time>2024-07-28T11:57:16.643Z</time>
      </trkpt>
      <trkpt lat="54.23539" lon="15.83104">
        <ele>42.431793</ele>
        <time>2024-07-28T11:57:18.653Z</time>
      </trkpt>
      <trkpt lat="54.23539" lon="15.83122">
        <ele>42.386473</ele>
        <time>2024-07-28T11:57:20.655Z</time>
      </trkpt>
      <trkpt lat="54.23537" lon="15.83139">
        <ele>42.341189</ele>
        <time>2024-07-28T11:57:22.659Z</time>
      </trkpt>
      <trkpt lat="54.23537" lon="15.83157">
        <ele>42.293754</ele>
        <time>2024-07-28T11:57:24.666Z</time>
      </trkpt>
      <trkpt lat="54.23536" lon="15.83175">
        <ele>42.248408</ele>
        <time>2024-07-28T11:57:26.657Z</time>
      </trkpt>
      <trkpt lat="54.23536" lon="15.83191">
        <ele>42.207237</ele>
        <time>2024-07-28T11:57:28.664Z</time>
      </trkpt>
      <trkpt lat="54.23536" lon="15.83206">
        <ele>42.166835</ele>
        <time>2024-07-28T11:57:30.656Z</time>
      </trkpt>
      <trkpt lat="54.23537" lon="15.83222">
        <ele>42.125474</ele>
        <time>2024-07-28T11:57:32.649Z</time>
      </trkpt>
      <trkpt lat="54.23539" lon="15.83238">
        <ele>42.08345</ele>
        <time>2024-07-28T11:57:34.675Z</time>
      </trkpt>
      <trkpt lat="54.2354" lon="15.83255">
        <ele>42.040725</ele>
        <time>2024-07-28T11:57:36.645Z</time>
      </trkpt>
      <trkpt lat="54.23542" lon="15.83272">
        <ele>41.995402</ele>
        <time>2024-07-28T11:57:38.675Z</time>
      </trkpt>
      <trkpt lat="54.23544" lon="15.83289">
        <ele>41.951511</ele>
        <time>2024-07-28T11:57:40.659Z</time>
      </trkpt>
      <trkpt lat="54.23546" lon="15.83311">
        <ele>41.892369</ele>
        <time>2024-07-28T11:57:43.650Z</time>
      </trkpt>
      <trkpt lat="54.23546" lon="15.83331">
        <ele>41.840279</ele>
        <time>2024-07-28T11:57:46.667Z</time>
      </trkpt>
      <trkpt lat="54.23549" lon="15.83353">
        <ele>41.782412</ele>
        <time>2024-07-28T11:57:49.654Z</time>
      </trkpt>
      <trkpt lat="54.23553" lon="15.83374">
        <ele>41.720139</ele>
        <time>2024-07-28T11:57:52.644Z</time>
      </trkpt>
      <trkpt lat="54.23557" lon="15.83395">
        <ele>41.658881</ele>
        <time>2024-07-28T11:57:55.665Z</time>
      </trkpt>
      <trkpt lat="54.23561" lon="15.83416">
        <ele>41.599682</ele>
        <time>2024-07-28T11:57:58.651Z</time>
      </trkpt>
      <trkpt lat="54.23565" lon="15.83436">
        <ele>41.538955</ele>
        <time>2024-07-28T11:58:01.668Z</time>
      </trkpt>
      <trkpt lat="54.23569" lon="15.83457">
        <ele>41.477682</ele>
        <time>2024-07-28T11:58:04.641Z</time>
      </trkpt>
      <trkpt lat="54.23572" lon="15.83478">
        <ele>41.416676</ele>
        <time>2024-07-28T11:58:07.657Z</time>
      </trkpt>
      <trkpt lat="54.23575" lon="15.835">
        <ele>41.354885</ele>
        <time>2024-07-28T11:58:10.654Z</time>
      </trkpt>
      <trkpt lat="54.23574" lon="15.83516">
        <ele>41.311495</ele>
        <time>2024-07-28T11:58:12.650Z</time>
      </trkpt>
      <trkpt lat="54.23573" lon="15.83531">
        <ele>41.26863</ele>
        <time>2024-07-28T11:58:14.655Z</time>
      </trkpt>
      <trkpt lat="54.2357" lon="15.83547">
        <ele>41.222072</ele>
        <time>2024-07-28T11:58:16.657Z</time>
      </trkpt>
      <trkpt lat="54.23568" lon="15.83564">
        <ele>41.174608</ele>
        <time>2024-07-28T11:58:18.657Z</time>
      </trkpt>
      <trkpt lat="54.23569" lon="15.83579">
        <ele>41.131521</ele>
        <time>2024-07-28T11:58:20.645Z</time>
      </trkpt>
      <trkpt lat="54.23569" lon="15.83598">
        <ele>41.07919</ele>
        <time>2024-07-28T11:58:23.656Z</time>
      </trkpt>
      <trkpt lat="54.23568" lon="15.83618">
        <ele>41.022818</ele>
        <time>2024-07-28T11:58:26.654Z</time>
      </trkpt>
      <trkpt lat="54.23567" lon="15.83637">
        <ele>40.969074</ele>
        <time>2024-07-28T11:58:29.660Z</time>
      </trkpt>
      <trkpt lat="54.23566" lon="15.8366">
        <ele>40.877865</ele>
        <time>2024-07-28T11:58:32.653Z</time>
      </trkpt>
      <trkpt lat="54.23565" lon="15.83679">
        <ele>40.751177</ele>
        <time>2024-07-28T11:58:34.665Z</time>
      </trkpt>
      <trkpt lat="54.23564" lon="15.83698">
        <ele>40.620309</ele>
        <time>2024-07-28T11:58:36.654Z</time>
      </trkpt>
      <trkpt lat="54.23561" lon="15.83715">
        <ele>40.502112</ele>
        <time>2024-07-28T11:58:38.649Z</time>
      </trkpt>
      <trkpt lat="54.23559" lon="15.83731">
        <ele>40.387871</ele>
        <time>2024-07-28T11:58:40.655Z</time>
      </trkpt>
      <trkpt lat="54.23556" lon="15.83748">
        <ele>40.267235</ele>
        <time>2024-07-28T11:58:42.658Z</time>
      </trkpt>
      <trkpt lat="54.23556" lon="15.83767">
        <ele>40.13828</ele>
        <time>2024-07-28T11:58:44.658Z</time>
      </trkpt>
      <trkpt lat="54.23559" lon="15.83786">
        <ele>40.004609</ele>
        <time>2024-07-28T11:58:46.653Z</time>
      </trkpt>
      <trkpt lat="54.23563" lon="15.83801">
        <ele>39.895678</ele>
        <time>2024-07-28T11:58:48.654Z</time>
      </trkpt>
      <trkpt lat="54.2357" lon="15.83814">
        <ele>39.777229</ele>
        <time>2024-07-28T11:58:50.656Z</time>
      </trkpt>
      <trkpt lat="54.23577" lon="15.83826">
        <ele>39.660609</ele>
        <time>2024-07-28T11:58:52.658Z</time>
      </trkpt>
      <trkpt lat="54.23584" lon="15.83838">
        <ele>39.540913</ele>
        <time>2024-07-28T11:58:54.652Z</time>
      </trkpt>
      <trkpt lat="54.23591" lon="15.8385">
        <ele>39.426887</ele>
        <time>2024-07-28T11:58:56.643Z</time>
      </trkpt>
      <trkpt lat="54.23598" lon="15.83864">
        <ele>39.309971</ele>
        <time>2024-07-28T11:58:58.654Z</time>
      </trkpt>
      <trkpt lat="54.23604" lon="15.83875">
        <ele>39.20128</ele>
        <time>2024-07-28T11:59:00.658Z</time>
      </trkpt>
      <trkpt lat="54.23611" lon="15.83886">
        <ele>39.091291</ele>
        <time>2024-07-28T11:59:02.654Z</time>
      </trkpt>
      <trkpt lat="54.23618" lon="15.83898">
        <ele>38.977138</ele>
        <time>2024-07-28T11:59:04.653Z</time>
      </trkpt>
      <trkpt lat="54.23625" lon="15.83911">
        <ele>38.859385</ele>
        <time>2024-07-28T11:59:06.645Z</time>
      </trkpt>
      <trkpt lat="54.23632" lon="15.83923">
        <ele>38.744717</ele>
        <time>2024-07-28T11:59:08.676Z</time>
      </trkpt>
      <trkpt lat="54.23641" lon="15.83939">
        <ele>38.591719</ele>
        <time>2024-07-28T11:59:11.653Z</time>
      </trkpt>
      <trkpt lat="54.23649" lon="15.8395">
        <ele>38.476957</ele>
        <time>2024-07-28T11:59:13.646Z</time>
      </trkpt>
      <trkpt lat="54.23655" lon="15.83962">
        <ele>38.369293</ele>
        <time>2024-07-28T11:59:15.631Z</time>
      </trkpt>
      <trkpt lat="54.23662" lon="15.83976">
        <ele>38.242514</ele>
        <time>2024-07-28T11:59:17.650Z</time>
      </trkpt>
      <trkpt lat="54.23669" lon="15.83989">
        <ele>38.124444</ele>
        <time>2024-07-28T11:59:19.651Z</time>
      </trkpt>
      <trkpt lat="54.23675" lon="15.84003">
        <ele>38.010346</ele>
        <time>2024-07-28T11:59:21.668Z</time>
      </trkpt>
      <trkpt lat="54.23682" lon="15.84013">
        <ele>37.906095</ele>
        <time>2024-07-28T11:59:23.638Z</time>
      </trkpt>
      <trkpt lat="54.23689" lon="15.84024">
        <ele>37.800814</ele>
        <time>2024-07-28T11:59:25.673Z</time>
      </trkpt>
      <trkpt lat="54.23695" lon="15.84035">
        <ele>37.695593</ele>
        <time>2024-07-28T11:59:27.633Z</time>
      </trkpt>
      <trkpt lat="54.23702" lon="15.84051">
        <ele>37.564195</ele>
        <time>2024-07-28T11:59:30.642Z</time>
      </trkpt>
      <trkpt lat="54.2371" lon="15.8407">
        <ele>37.404912</ele>
        <time>2024-07-28T11:59:33.653Z</time>
      </trkpt>
      <trkpt lat="54.23717" lon="15.84086">
        <ele>37.269212</ele>
        <time>2024-07-28T11:59:35.653Z</time>
      </trkpt>
      <trkpt lat="54.23724" lon="15.84099">
        <ele>37.149893</ele>
        <time>2024-07-28T11:59:37.651Z</time>
      </trkpt>
      <trkpt lat="54.23732" lon="15.84111">
        <ele>37.026353</ele>
        <time>2024-07-28T11:59:39.658Z</time>
      </trkpt>
      <trkpt lat="54.23739" lon="15.84126">
        <ele>36.894529</ele>
        <time>2024-07-28T11:59:41.643Z</time>
      </trkpt>
      <trkpt lat="54.23747" lon="15.8414">
        <ele>36.768324</ele>
        <time>2024-07-28T11:59:43.654Z</time>
      </trkpt>
      <trkpt lat="54.23754" lon="15.84155">
        <ele>36.894533</ele>
        <time>2024-07-28T11:59:45.657Z</time>
      </trkpt>
      <trkpt lat="54.23761" lon="15.8417">
        <ele>37.027409</ele>
        <time>2024-07-28T11:59:47.649Z</time>
      </trkpt>
      <trkpt lat="54.23768" lon="15.84184">
        <ele>37.155785</ele>
        <time>2024-07-28T11:59:49.638Z</time>
      </trkpt>
      <trkpt lat="54.23775" lon="15.842">
        <ele>37.291258</ele>
        <time>2024-07-28T11:59:51.652Z</time>
      </trkpt>
      <trkpt lat="54.23782" lon="15.84216">
        <ele>37.420193</ele>
        <time>2024-07-28T11:59:53.655Z</time>
      </trkpt>
      <trkpt lat="54.23788" lon="15.84232">
        <ele>37.550343</ele>
        <time>2024-07-28T11:59:55.651Z</time>
      </trkpt>
      <trkpt lat="54.23794" lon="15.84247">
        <ele>37.673508</ele>
        <time>2024-07-28T11:59:57.655Z</time>
      </trkpt>
      <trkpt lat="54.23801" lon="15.84262">
        <ele>37.802031</ele>
        <time>2024-07-28T11:59:59.673Z</time>
      </trkpt>
      <trkpt lat="54.23807" lon="15.84278">
        <ele>37.930736</ele>
        <time>2024-07-28T12:00:01.676Z</time>
      </trkpt>
      <trkpt lat="54.23814" lon="15.84294">
        <ele>38.068226</ele>
        <time>2024-07-28T12:00:03.645Z</time>
      </trkpt>
      <trkpt lat="54.23818" lon="15.84311">
        <ele>38.192726</ele>
        <time>2024-07-28T12:00:05.656Z</time>
      </trkpt>
      <trkpt lat="54.23824" lon="15.84329">
        <ele>38.331097</ele>
        <time>2024-07-28T12:00:07.652Z</time>
      </trkpt>
      <trkpt lat="54.23829" lon="15.84347">
        <ele>38.465308</ele>
        <time>2024-07-28T12:00:09.653Z</time>
      </trkpt>
      <trkpt lat="54.23833" lon="15.84362">
        <ele>38.579939</ele>
        <time>2024-07-28T12:00:11.646Z</time>
      </trkpt>
      <trkpt lat="54.23838" lon="15.84379">
        <ele>38.706648</ele>
        <time>2024-07-28T12:00:13.635Z</time>
      </trkpt>
      <trkpt lat="54.23843" lon="15.84394">
        <ele>38.824426</ele>
        <time>2024-07-28T12:00:15.654Z</time>
      </trkpt>
      <trkpt lat="54.23847" lon="15.84409">
        <ele>38.9688</ele>
        <time>2024-07-28T12:00:17.653Z</time>
      </trkpt>
      <trkpt lat="54.23852" lon="15.84425">
        <ele>39.12968</ele>
        <time>2024-07-28T12:00:19.661Z</time>
      </trkpt>
      <trkpt lat="54.23856" lon="15.84443">
        <ele>39.307337</ele>
        <time>2024-07-28T12:00:21.654Z</time>
      </trkpt>
      <trkpt lat="54.23861" lon="15.84458">
        <ele>39.469646</ele>
        <time>2024-07-28T12:00:23.657Z</time>
      </trkpt>
      <trkpt lat="54.23866" lon="15.84473">
        <ele>39.627831</ele>
        <time>2024-07-28T12:00:25.651Z</time>
      </trkpt>
      <trkpt lat="54.23871" lon="15.84487">
        <ele>39.775013</ele>
        <time>2024-07-28T12:00:27.663Z</time>
      </trkpt>
      <trkpt lat="54.23877" lon="15.84501">
        <ele>39.934614</ele>
        <time>2024-07-28T12:00:29.656Z</time>
      </trkpt>
      <trkpt lat="54.23882" lon="15.84515">
        <ele>40.084612</ele>
        <time>2024-07-28T12:00:31.639Z</time>
      </trkpt>
      <trkpt lat="54.23887" lon="15.8453">
        <ele>40.24052</ele>
        <time>2024-07-28T12:00:33.631Z</time>
      </trkpt>
      <trkpt lat="54.23891" lon="15.84545">
        <ele>40.390909</ele>
        <time>2024-07-28T12:00:35.659Z</time>
      </trkpt>
      <trkpt lat="54.23895" lon="15.84561">
        <ele>40.553061</ele>
        <time>2024-07-28T12:00:37.652Z</time>
      </trkpt>
      <trkpt lat="54.23898" lon="15.84575">
        <ele>40.695692</ele>
        <time>2024-07-28T12:00:39.654Z</time>
      </trkpt>
      <trkpt lat="54.23902" lon="15.84591">
        <ele>40.854165</ele>
        <time>2024-07-28T12:00:41.650Z</time>
      </trkpt>
      <trkpt lat="54.23905" lon="15.84607">
        <ele>41.007617</ele>
        <time>2024-07-28T12:00:43.654Z</time>
      </trkpt>
      <trkpt lat="54.23908" lon="15.84623">
        <ele>41.157271</ele>
        <time>2024-07-28T12:00:45.659Z</time>
      </trkpt>
      <trkpt lat="54.23912" lon="15.8464">
        <ele>41.320492</ele>
        <time>2024-07-28T12:00:47.635Z</time>
      </trkpt>
      <trkpt lat="54.23915" lon="15.84661">
        <ele>41.527584</ele>
        <time>2024-07-28T12:00:50.662Z</time>
      </trkpt>
      <trkpt lat="54.23917" lon="15.84682">
        <ele>41.671047</ele>
        <time>2024-07-28T12:00:53.647Z</time>
      </trkpt>
      <trkpt lat="54.23919" lon="15.84697">
        <ele>41.674879</ele>
        <time>2024-07-28T12:00:55.655Z</time>
      </trkpt>
      <trkpt lat="54.23923" lon="15.84719">
        <ele>41.680501</ele>
        <time>2024-07-28T12:00:58.657Z</time>
      </trkpt>
      <trkpt lat="54.23928" lon="15.84739">
        <ele>41.685749</ele>
        <time>2024-07-28T12:01:01.630Z</time>
      </trkpt>
      <trkpt lat="54.2393" lon="15.84758">
        <ele>41.690454</ele>
        <time>2024-07-28T12:01:04.660Z</time>
      </trkpt>
      <trkpt lat="54.23934" lon="15.8478">
        <ele>41.696064</ele>
        <time>2024-07-28T12:01:07.669Z</time>
      </trkpt>
      <trkpt lat="54.23936" lon="15.84795">
        <ele>41.699921</ele>
        <time>2024-07-28T12:01:09.661Z</time>
      </trkpt>
      <trkpt lat="54.23938" lon="15.84811">
        <ele>41.704025</ele>
        <time>2024-07-28T12:01:11.654Z</time>
      </trkpt>
      <trkpt lat="54.23941" lon="15.84828">
        <ele>41.708349</ele>
        <time>2024-07-28T12:01:13.671Z</time>
      </trkpt>
      <trkpt lat="54.23944" lon="15.84844">
        <ele>41.712475</ele>
        <time>2024-07-28T12:01:15.657Z</time>
      </trkpt>
      <trkpt lat="54.23947" lon="15.84861">
        <ele>41.716697</ele>
        <time>2024-07-28T12:01:17.658Z</time>
      </trkpt>
      <trkpt lat="54.23951" lon="15.84883">
        <ele>41.722354</ele>
        <time>2024-07-28T12:01:20.655Z</time>
      </trkpt>
      <trkpt lat="54.23954" lon="15.84898">
        <ele>41.72634</ele>
        <time>2024-07-28T12:01:22.652Z</time>
      </trkpt>
      <trkpt lat="54.23956" lon="15.84913">
        <ele>41.730213</ele>
        <time>2024-07-28T12:01:24.650Z</time>
      </trkpt>
      <trkpt lat="54.2396" lon="15.84934">
        <ele>41.735504</ele>
        <time>2024-07-28T12:01:27.660Z</time>
      </trkpt>
      <trkpt lat="54.23962" lon="15.8495">
        <ele>41.739411</ele>
        <time>2024-07-28T12:01:29.653Z</time>
      </trkpt>
      <trkpt lat="54.23964" lon="15.84965">
        <ele>41.743308</ele>
        <time>2024-07-28T12:01:31.660Z</time>
      </trkpt>
      <trkpt lat="54.23967" lon="15.8498">
        <ele>41.757536</ele>
        <time>2024-07-28T12:01:33.649Z</time>
      </trkpt>
      <trkpt lat="54.23969" lon="15.84995">
        <ele>41.782498</ele>
        <time>2024-07-28T12:01:35.656Z</time>
      </trkpt>
      <trkpt lat="54.23972" lon="15.85011">
        <ele>41.808354</ele>
        <time>2024-07-28T12:01:37.663Z</time>
      </trkpt>
      <trkpt lat="54.23974" lon="15.85027">
        <ele>41.834613</ele>
        <time>2024-07-28T12:01:39.664Z</time>
      </trkpt>
      <trkpt lat="54.23976" lon="15.85043">
        <ele>41.860976</ele>
        <time>2024-07-28T12:01:41.625Z</time>
      </trkpt>
      <trkpt lat="54.23978" lon="15.85061">
        <ele>41.8892</ele>
        <time>2024-07-28T12:01:43.657Z</time>
      </trkpt>
      <trkpt lat="54.23981" lon="15.85077">
        <ele>41.915967</ele>
        <time>2024-07-28T12:01:45.649Z</time>
      </trkpt>
      <trkpt lat="54.23983" lon="15.85094">
        <ele>41.943112</ele>
        <time>2024-07-28T12:01:47.640Z</time>
      </trkpt>
      <trkpt lat="54.23986" lon="15.8511">
        <ele>41.969726</ele>
        <time>2024-07-28T12:01:49.667Z</time>
      </trkpt>
      <trkpt lat="54.23989" lon="15.85126">
        <ele>41.996796</ele>
        <time>2024-07-28T12:01:51.638Z</time>
      </trkpt>
      <trkpt lat="54.23992" lon="15.85142">
        <ele>42.022578</ele>
        <time>2024-07-28T12:01:53.669Z</time>
      </trkpt>
      <trkpt lat="54.23995" lon="15.85157">
        <ele>42.04855</ele>
        <time>2024-07-28T12:01:55.653Z</time>
      </trkpt>
      <trkpt lat="54.23998" lon="15.85172">
        <ele>42.073091</ele>
        <time>2024-07-28T12:01:57.650Z</time>
      </trkpt>
      <trkpt lat="54.24003" lon="15.85186">
        <ele>42.098736</ele>
        <time>2024-07-28T12:01:59.652Z</time>
      </trkpt>
      <trkpt lat="54.24008" lon="15.85207">
        <ele>42.134901</ele>
        <time>2024-07-28T12:02:02.640Z</time>
      </trkpt>
      <trkpt lat="54.2401" lon="15.85223">
        <ele>42.159248</ele>
        <time>2024-07-28T12:02:04.640Z</time>
      </trkpt>
      <trkpt lat="54.24012" lon="15.85238">
        <ele>42.184819</ele>
        <time>2024-07-28T12:02:06.646Z</time>
      </trkpt>
      <trkpt lat="54.24013" lon="15.85256">
        <ele>42.212499</ele>
        <time>2024-07-28T12:02:08.651Z</time>
      </trkpt>
      <trkpt lat="54.24013" lon="15.85272">
        <ele>42.297147</ele>
        <time>2024-07-28T12:02:10.660Z</time>
      </trkpt>
      <trkpt lat="54.24014" lon="15.8529">
        <ele>42.57162</ele>
        <time>2024-07-28T12:02:12.662Z</time>
      </trkpt>
      <trkpt lat="54.24015" lon="15.85307">
        <ele>42.821315</ele>
        <time>2024-07-28T12:02:14.636Z</time>
      </trkpt>
      <trkpt lat="54.24017" lon="15.85323">
        <ele>43.067386</ele>
        <time>2024-07-28T12:02:16.628Z</time>
      </trkpt>
      <trkpt lat="54.24019" lon="15.85339">
        <ele>43.315385</ele>
        <time>2024-07-28T12:02:18.660Z</time>
      </trkpt>
      <trkpt lat="54.2402" lon="15.85356">
        <ele>43.566831</ele>
        <time>2024-07-28T12:02:20.660Z</time>
      </trkpt>
      <trkpt lat="54.24021" lon="15.85372">
        <ele>43.822775</ele>
        <time>2024-07-28T12:02:22.654Z</time>
      </trkpt>
      <trkpt lat="54.24022" lon="15.8539">
        <ele>44.089476</ele>
        <time>2024-07-28T12:02:24.680Z</time>
      </trkpt>
      <trkpt lat="54.24021" lon="15.85407">
        <ele>44.35096</ele>
        <time>2024-07-28T12:02:26.654Z</time>
      </trkpt>
      <trkpt lat="54.24019" lon="15.85424">
        <ele>44.601487</ele>
        <time>2024-07-28T12:02:28.629Z</time>
      </trkpt>
      <trkpt lat="54.24018" lon="15.85442">
        <ele>44.884074</ele>
        <time>2024-07-28T12:02:30.640Z</time>
      </trkpt>
      <trkpt lat="54.24014" lon="15.8546">
        <ele>45.167673</ele>
        <time>2024-07-28T12:02:32.652Z</time>
      </trkpt>
      <trkpt lat="54.24011" lon="15.85478">
        <ele>45.449049</ele>
        <time>2024-07-28T12:02:34.670Z</time>
      </trkpt>
      <trkpt lat="54.24007" lon="15.85494">
        <ele>45.701331</ele>
        <time>2024-07-28T12:02:36.662Z</time>
      </trkpt>
      <trkpt lat="54.24004" lon="15.8551">
        <ele>45.960601</ele>
        <time>2024-07-28T12:02:38.666Z</time>
      </trkpt>
      <trkpt lat="54.24001" lon="15.85526">
        <ele>46.225291</ele>
        <time>2024-07-28T12:02:40.664Z</time>
      </trkpt>
      <trkpt lat="54.23997" lon="15.85542">
        <ele>46.483162</ele>
        <time>2024-07-28T12:02:42.653Z</time>
      </trkpt>
      <trkpt lat="54.23992" lon="15.85556">
        <ele>46.731738</ele>
        <time>2024-07-28T12:02:44.664Z</time>
      </trkpt>
      <trkpt lat="54.23985" lon="15.8557">
        <ele>46.828044</ele>
        <time>2024-07-28T12:02:46.655Z</time>
      </trkpt>
      <trkpt lat="54.23979" lon="15.85581">
        <ele>46.744979</ele>
        <time>2024-07-28T12:02:48.653Z</time>
      </trkpt>
      <trkpt lat="54.2397" lon="15.85595">
        <ele>46.644487</ele>
        <time>2024-07-28T12:02:51.666Z</time>
      </trkpt>
      <trkpt lat="54.23962" lon="15.85604">
        <ele>46.561524</ele>
        <time>2024-07-28T12:02:54.678Z</time>
      </trkpt>
      <trkpt lat="54.2396" lon="15.85619">
        <ele>46.482514</ele>
        <time>2024-07-28T12:02:57.641Z</time>
      </trkpt>
      <trkpt lat="54.23961" lon="15.85636">
        <ele>46.396414</ele>
        <time>2024-07-28T12:03:00.657Z</time>
      </trkpt>
      <trkpt lat="54.2396" lon="15.85658">
        <ele>46.288519</ele>
        <time>2024-07-28T12:03:03.638Z</time>
      </trkpt>
      <trkpt lat="54.23958" lon="15.85678">
        <ele>46.188275</ele>
        <time>2024-07-28T12:03:06.660Z</time>
      </trkpt>
      <trkpt lat="54.23958" lon="15.85697">
        <ele>46.08804</ele>
        <time>2024-07-28T12:03:09.655Z</time>
      </trkpt>
      <trkpt lat="54.23957" lon="15.85717">
        <ele>45.987229</ele>
        <time>2024-07-28T12:03:12.655Z</time>
      </trkpt>
      <trkpt lat="54.23958" lon="15.85737">
        <ele>45.889887</ele>
        <time>2024-07-28T12:03:15.652Z</time>
      </trkpt>
      <trkpt lat="54.23961" lon="15.85755">
        <ele>45.794209</ele>
        <time>2024-07-28T12:03:18.655Z</time>
      </trkpt>
      <trkpt lat="54.23963" lon="15.85775">
        <ele>45.691215</ele>
        <time>2024-07-28T12:03:21.643Z</time>
      </trkpt>
      <trkpt lat="54.23965" lon="15.85795">
        <ele>45.590087</ele>
        <time>2024-07-28T12:03:24.661Z</time>
      </trkpt>
      <trkpt lat="54.23967" lon="15.85815">
        <ele>45.488465</ele>
        <time>2024-07-28T12:03:27.647Z</time>
      </trkpt>
      <trkpt lat="54.23968" lon="15.85835">
        <ele>45.384979</ele>
        <time>2024-07-28T12:03:30.648Z</time>
      </trkpt>
      <trkpt lat="54.23972" lon="15.85855">
        <ele>45.297263</ele>
        <time>2024-07-28T12:03:33.633Z</time>
      </trkpt>
      <trkpt lat="54.23974" lon="15.85875">
        <ele>45.233151</ele>
        <time>2024-07-28T12:03:36.653Z</time>
      </trkpt>
      <trkpt lat="54.23976" lon="15.85896">
        <ele>45.167628</ele>
        <time>2024-07-28T12:03:39.650Z</time>
      </trkpt>
      <trkpt lat="54.23978" lon="15.85917">
        <ele>45.102817</ele>
        <time>2024-07-28T12:03:42.644Z</time>
      </trkpt>
      <trkpt lat="54.23981" lon="15.85937">
        <ele>45.038197</ele>
        <time>2024-07-28T12:03:45.656Z</time>
      </trkpt>
      <trkpt lat="54.23984" lon="15.85956">
        <ele>44.976975</ele>
        <time>2024-07-28T12:03:48.655Z</time>
      </trkpt>
      <trkpt lat="54.23986" lon="15.85975">
        <ele>44.920131</ele>
        <time>2024-07-28T12:03:51.659Z</time>
      </trkpt>
      <trkpt lat="54.23988" lon="15.85994">
        <ele>44.859144</ele>
        <time>2024-07-28T12:03:54.670Z</time>
      </trkpt>
      <trkpt lat="54.2399" lon="15.86014">
        <ele>44.795972</ele>
        <time>2024-07-28T12:03:57.647Z</time>
      </trkpt>
      <trkpt lat="54.23991" lon="15.86033">
        <ele>44.737448</ele>
        <time>2024-07-28T12:04:00.653Z</time>
      </trkpt>
      <trkpt lat="54.23993" lon="15.8605">
        <ele>44.683573</ele>
        <time>2024-07-28T12:04:04.669Z</time>
      </trkpt>
      <trkpt lat="54.23994" lon="15.86068">
        <ele>44.62988</ele>
        <time>2024-07-28T12:04:09.658Z</time>
      </trkpt>
      <trkpt lat="54.23995" lon="15.86085">
        <ele>44.57615</ele>
        <time>2024-07-28T12:04:13.647Z</time>
      </trkpt>
      <trkpt lat="54.23997" lon="15.86105">
        <ele>44.514538</ele>
        <time>2024-07-28T12:04:17.672Z</time>
      </trkpt>
      <trkpt lat="54.23998" lon="15.8612">
        <ele>44.466501</ele>
        <time>2024-07-28T12:04:20.653Z</time>
      </trkpt>
      <trkpt lat="54.24" lon="15.86138">
        <ele>44.411633</ele>
        <time>2024-07-28T12:04:23.650Z</time>
      </trkpt>
      <trkpt lat="54.24002" lon="15.86156">
        <ele>44.353724</ele>
        <time>2024-07-28T12:04:26.646Z</time>
      </trkpt>
      <trkpt lat="54.24004" lon="15.86175">
        <ele>44.287856</ele>
        <time>2024-07-28T12:04:29.670Z</time>
      </trkpt>
      <trkpt lat="54.24007" lon="15.86196">
        <ele>44.218405</ele>
        <time>2024-07-28T12:04:32.667Z</time>
      </trkpt>
      <trkpt lat="54.24009" lon="15.86215">
        <ele>44.152053</ele>
        <time>2024-07-28T12:04:35.655Z</time>
      </trkpt>
      <trkpt lat="54.2401" lon="15.86233">
        <ele>44.091435</ele>
        <time>2024-07-28T12:04:38.656Z</time>
      </trkpt>
      <trkpt lat="54.24013" lon="15.8625">
        <ele>44.033617</ele>
        <time>2024-07-28T12:04:41.635Z</time>
      </trkpt>
      <trkpt lat="54.24013" lon="15.8627">
        <ele>43.967523</ele>
        <time>2024-07-28T12:04:44.655Z</time>
      </trkpt>
      <trkpt lat="54.24013" lon="15.86285">
        <ele>43.915849</ele>
        <time>2024-07-28T12:04:46.648Z</time>
      </trkpt>
      <trkpt lat="54.24016" lon="15.86308">
        <ele>43.83812</ele>
        <time>2024-07-28T12:04:49.654Z</time>
      </trkpt>
      <trkpt lat="54.24019" lon="15.86329">
        <ele>43.76632</ele>
        <time>2024-07-28T12:04:52.661Z</time>
      </trkpt>
      <trkpt lat="54.24021" lon="15.8635">
        <ele>43.69392</ele>
        <time>2024-07-28T12:04:55.653Z</time>
      </trkpt>
      <trkpt lat="54.24024" lon="15.86371">
        <ele>43.624368</ele>
        <time>2024-07-28T12:04:58.659Z</time>
      </trkpt>
      <trkpt lat="54.24027" lon="15.8639">
        <ele>43.559581</ele>
        <time>2024-07-28T12:05:01.651Z</time>
      </trkpt>
      <trkpt lat="54.24029" lon="15.86408">
        <ele>43.49526</ele>
        <time>2024-07-28T12:05:04.667Z</time>
      </trkpt>
      <trkpt lat="54.24033" lon="15.86426">
        <ele>43.432052</ele>
        <time>2024-07-28T12:05:07.647Z</time>
      </trkpt>
      <trkpt lat="54.24033" lon="15.86445">
        <ele>43.371386</ele>
        <time>2024-07-28T12:05:10.669Z</time>
      </trkpt>
      <trkpt lat="54.24034" lon="15.86465">
        <ele>43.453002</ele>
        <time>2024-07-28T12:05:13.650Z</time>
      </trkpt>
      <trkpt lat="54.24037" lon="15.86485">
        <ele>43.624816</ele>
        <time>2024-07-28T12:05:16.650Z</time>
      </trkpt>
      <trkpt lat="54.24038" lon="15.86505">
        <ele>43.788064</ele>
        <time>2024-07-28T12:05:19.653Z</time>
      </trkpt>
      <trkpt lat="54.24041" lon="15.86524">
        <ele>43.950614</ele>
        <time>2024-07-28T12:05:22.666Z</time>
      </trkpt>
      <trkpt lat="54.24043" lon="15.86542">
        <ele>44.092866</ele>
        <time>2024-07-28T12:05:25.652Z</time>
      </trkpt>
      <trkpt lat="54.24043" lon="15.86557">
        <ele>44.222205</ele>
        <time>2024-07-28T12:05:28.674Z</time>
      </trkpt>
      <trkpt lat="54.24044" lon="15.86573">
        <ele>44.349823</ele>
        <time>2024-07-28T12:05:31.666Z</time>
      </trkpt>
      <trkpt lat="54.24047" lon="15.86588">
        <ele>44.483574</ele>
        <time>2024-07-28T12:05:34.649Z</time>
      </trkpt>
      <trkpt lat="54.24048" lon="15.86605">
        <ele>44.622008</ele>
        <time>2024-07-28T12:05:37.653Z</time>
      </trkpt>
      <trkpt lat="54.2405" lon="15.86622">
        <ele>44.762036</ele>
        <time>2024-07-28T12:05:40.669Z</time>
      </trkpt>
      <trkpt lat="54.24052" lon="15.8664">
        <ele>44.910781</ele>
        <time>2024-07-28T12:05:43.654Z</time>
      </trkpt>
      <trkpt lat="54.24054" lon="15.86659">
        <ele>45.070979</ele>
        <time>2024-07-28T12:05:46.650Z</time>
      </trkpt>
      <trkpt lat="54.24055" lon="15.86677">
        <ele>45.218684</ele>
        <time>2024-07-28T12:05:49.671Z</time>
      </trkpt>
      <trkpt lat="54.24058" lon="15.86694">
        <ele>45.368515</ele>
        <time>2024-07-28T12:05:52.676Z</time>
      </trkpt>
      <trkpt lat="54.24059" lon="15.8671">
        <ele>45.499491</ele>
        <time>2024-07-28T12:05:55.640Z</time>
      </trkpt>
      <trkpt lat="54.24061" lon="15.86725">
        <ele>45.627473</ele>
        <time>2024-07-28T12:05:58.644Z</time>
      </trkpt>
      <trkpt lat="54.24062" lon="15.86742">
        <ele>45.765047</ele>
        <time>2024-07-28T12:06:01.646Z</time>
      </trkpt>
      <trkpt lat="54.24065" lon="15.86758">
        <ele>45.87873</ele>
        <time>2024-07-28T12:06:04.649Z</time>
      </trkpt>
      <trkpt lat="54.24065" lon="15.86774">
        <ele>45.903793</ele>
        <time>2024-07-28T12:06:07.633Z</time>
      </trkpt>
      <trkpt lat="54.24066" lon="15.86792">
        <ele>45.930521</ele>
        <time>2024-07-28T12:06:10.670Z</time>
      </trkpt>
      <trkpt lat="54.24068" lon="15.86809">
        <ele>45.955336</ele>
        <time>2024-07-28T12:06:13.660Z</time>
      </trkpt>
      <trkpt lat="54.24069" lon="15.86829">
        <ele>45.986114</ele>
        <time>2024-07-28T12:06:17.654Z</time>
      </trkpt>
      <trkpt lat="54.2407" lon="15.86846">
        <ele>46.010919</ele>
        <time>2024-07-28T12:06:20.661Z</time>
      </trkpt>
      <trkpt lat="54.2407" lon="15.86862">
        <ele>46.035657</ele>
        <time>2024-07-28T12:06:23.673Z</time>
      </trkpt>
      <trkpt lat="54.24072" lon="15.86878">
        <ele>46.058909</ele>
        <time>2024-07-28T12:06:26.650Z</time>
      </trkpt>
      <trkpt lat="54.24074" lon="15.86893">
        <ele>46.082325</ele>
        <time>2024-07-28T12:06:29.667Z</time>
      </trkpt>
      <trkpt lat="54.24075" lon="15.86909">
        <ele>46.106031</ele>
        <time>2024-07-28T12:06:32.638Z</time>
      </trkpt>
      <trkpt lat="54.24077" lon="15.86927">
        <ele>46.134065</ele>
        <time>2024-07-28T12:06:36.656Z</time>
      </trkpt>
      <trkpt lat="54.2408" lon="15.86945">
        <ele>46.161808</ele>
        <time>2024-07-28T12:06:40.661Z</time>
      </trkpt>
      <trkpt lat="54.24081" lon="15.86965">
        <ele>46.190816</ele>
        <time>2024-07-28T12:06:44.654Z</time>
      </trkpt>
      <trkpt lat="54.24085" lon="15.86983">
        <ele>46.218938</ele>
        <time>2024-07-28T12:06:48.671Z</time>
      </trkpt>
      <trkpt lat="54.24087" lon="15.87002">
        <ele>46.248057</ele>
        <time>2024-07-28T12:06:52.657Z</time>
      </trkpt>
      <trkpt lat="54.24089" lon="15.87018">
        <ele>46.272869</ele>
        <time>2024-07-28T12:06:55.661Z</time>
      </trkpt>
      <trkpt lat="54.2409" lon="15.87035">
        <ele>46.29877</ele>
        <time>2024-07-28T12:06:58.671Z</time>
      </trkpt>
      <trkpt lat="54.2409" lon="15.87052">
        <ele>46.323656</ele>
        <time>2024-07-28T12:07:01.678Z</time>
      </trkpt>
      <trkpt lat="54.24092" lon="15.87068">
        <ele>46.325998</ele>
        <time>2024-07-28T12:07:04.661Z</time>
      </trkpt>
      <trkpt lat="54.24095" lon="15.87084">
        <ele>46.315446</ele>
        <time>2024-07-28T12:07:07.652Z</time>
      </trkpt>
      <trkpt lat="54.24095" lon="15.871">
        <ele>46.305323</ele>
        <time>2024-07-28T12:07:10.668Z</time>
      </trkpt>
      <trkpt lat="54.24096" lon="15.87118">
        <ele>46.293374</ele>
        <time>2024-07-28T12:07:14.670Z</time>
      </trkpt>
      <trkpt lat="54.24097" lon="15.87135">
        <ele>46.282679</ele>
        <time>2024-07-28T12:07:19.645Z</time>
      </trkpt>
      <trkpt lat="54.241" lon="15.87152">
        <ele>46.271259</ele>
        <time>2024-07-28T12:07:27.644Z</time>
      </trkpt>
      <trkpt lat="54.24101" lon="15.8717">
        <ele>46.259757</ele>
        <time>2024-07-28T12:07:32.658Z</time>
      </trkpt>
      <trkpt lat="54.24103" lon="15.87186">
        <ele>46.249189</ele>
        <time>2024-07-28T12:07:36.657Z</time>
      </trkpt>
      <trkpt lat="54.24105" lon="15.87201">
        <ele>46.238831</ele>
        <time>2024-07-28T12:07:40.664Z</time>
      </trkpt>
      <trkpt lat="54.24107" lon="15.87219">
        <ele>46.227287</ele>
        <time>2024-07-28T12:07:44.653Z</time>
      </trkpt>
      <trkpt lat="54.2411" lon="15.87236">
        <ele>46.215742</ele>
        <time>2024-07-28T12:07:48.669Z</time>
      </trkpt>
      <trkpt lat="54.24111" lon="15.87257">
        <ele>46.202174</ele>
        <time>2024-07-28T12:07:52.646Z</time>
      </trkpt>
      <trkpt lat="54.24112" lon="15.87276">
        <ele>46.189685</ele>
        <time>2024-07-28T12:07:56.648Z</time>
      </trkpt>
      <trkpt lat="54.24115" lon="15.87295">
        <ele>46.177141</ele>
        <time>2024-07-28T12:08:00.666Z</time>
      </trkpt>
      <trkpt lat="54.24117" lon="15.87312">
        <ele>46.166054</ele>
        <time>2024-07-28T12:08:04.672Z</time>
      </trkpt>
      <trkpt lat="54.24119" lon="15.87331">
        <ele>46.153353</ele>
        <time>2024-07-28T12:08:08.659Z</time>
      </trkpt>
      <trkpt lat="54.2412" lon="15.87349">
        <ele>46.14213</ele>
        <time>2024-07-28T12:08:12.646Z</time>
      </trkpt>
      <trkpt lat="54.24117" lon="15.87369">
        <ele>46.062511</ele>
        <time>2024-07-28T12:08:16.648Z</time>
      </trkpt>
      <trkpt lat="54.24116" lon="15.87388">
        <ele>45.895546</ele>
        <time>2024-07-28T12:08:20.655Z</time>
      </trkpt>
      <trkpt lat="54.24123" lon="15.87405">
        <ele>45.725698</ele>
        <time>2024-07-28T12:08:24.668Z</time>
      </trkpt>
      <trkpt lat="54.24132" lon="15.87413">
        <ele>45.5747</ele>
        <time>2024-07-28T12:08:32.660Z</time>
      </trkpt>
      <trkpt lat="54.24135" lon="15.87428">
        <ele>45.440895</ele>
        <time>2024-07-28T12:08:36.650Z</time>
      </trkpt>
      <trkpt lat="54.24136" lon="15.87444">
        <ele>45.305481</ele>
        <time>2024-07-28T12:08:39.655Z</time>
      </trkpt>
      <trkpt lat="54.24136" lon="15.87462">
        <ele>45.151729</ele>
        <time>2024-07-28T12:08:42.668Z</time>
      </trkpt>
      <trkpt lat="54.24137" lon="15.87482">
        <ele>44.983437</ele>
        <time>2024-07-28T12:08:45.670Z</time>
      </trkpt>
      <trkpt lat="54.24138" lon="15.87501">
        <ele>44.818661</ele>
        <time>2024-07-28T12:08:48.660Z</time>
      </trkpt>
      <trkpt lat="54.2414" lon="15.8752">
        <ele>44.653945</ele>
        <time>2024-07-28T12:08:51.662Z</time>
      </trkpt>
      <trkpt lat="54.24143" lon="15.87539">
        <ele>44.488786</ele>
        <time>2024-07-28T12:08:54.634Z</time>
      </trkpt>
      <trkpt lat="54.24146" lon="15.8756">
        <ele>44.310813</ele>
        <time>2024-07-28T12:08:57.657Z</time>
      </trkpt>
      <trkpt lat="54.24148" lon="15.87579">
        <ele>44.142167</ele>
        <time>2024-07-28T12:09:00.663Z</time>
      </trkpt>
      <trkpt lat="54.24151" lon="15.876">
        <ele>43.966404</ele>
        <time>2024-07-28T12:09:03.661Z</time>
      </trkpt>
      <trkpt lat="54.24153" lon="15.87621">
        <ele>43.778476</ele>
        <time>2024-07-28T12:09:06.659Z</time>
      </trkpt>
      <trkpt lat="54.24156" lon="15.87644">
        <ele>43.583368</ele>
        <time>2024-07-28T12:09:09.666Z</time>
      </trkpt>
      <trkpt lat="54.24158" lon="15.87667">
        <ele>43.533994</ele>
        <time>2024-07-28T12:09:12.666Z</time>
      </trkpt>
      <trkpt lat="54.2416" lon="15.87683">
        <ele>43.533332</ele>
        <time>2024-07-28T12:09:14.668Z</time>
      </trkpt>
      <trkpt lat="54.24162" lon="15.87698">
        <ele>43.532678</ele>
        <time>2024-07-28T12:09:16.644Z</time>
      </trkpt>
      <trkpt lat="54.24164" lon="15.87721">
        <ele>43.531741</ele>
        <time>2024-07-28T12:09:19.644Z</time>
      </trkpt>
      <trkpt lat="54.24166" lon="15.87737">
        <ele>43.531048</ele>
        <time>2024-07-28T12:09:21.664Z</time>
      </trkpt>
      <trkpt lat="54.24168" lon="15.87753">
        <ele>43.530391</ele>
        <time>2024-07-28T12:09:23.674Z</time>
      </trkpt>
      <trkpt lat="54.24169" lon="15.87768">
        <ele>43.529746</ele>
        <time>2024-07-28T12:09:25.658Z</time>
      </trkpt>
      <trkpt lat="54.24171" lon="15.87784">
        <ele>43.529106</ele>
        <time>2024-07-28T12:09:27.654Z</time>
      </trkpt>
      <trkpt lat="54.24173" lon="15.87805">
        <ele>43.528238</ele>
        <time>2024-07-28T12:09:30.667Z</time>
      </trkpt>
      <trkpt lat="54.24176" lon="15.87825">
        <ele>43.527366</ele>
        <time>2024-07-28T12:09:33.652Z</time>
      </trkpt>
      <trkpt lat="54.2418" lon="15.87845">
        <ele>43.526472</ele>
        <time>2024-07-28T12:09:36.656Z</time>
      </trkpt>
      <trkpt lat="54.24184" lon="15.87867">
        <ele>43.52556</ele>
        <time>2024-07-28T12:09:39.647Z</time>
      </trkpt>
      <trkpt lat="54.24186" lon="15.87888">
        <ele>43.524692</ele>
        <time>2024-07-28T12:09:42.659Z</time>
      </trkpt>
      <trkpt lat="54.24188" lon="15.87906">
        <ele>43.523923</ele>
        <time>2024-07-28T12:09:45.660Z</time>
      </trkpt>
      <trkpt lat="54.24189" lon="15.87922">
        <ele>43.523286</ele>
        <time>2024-07-28T12:09:51.659Z</time>
      </trkpt>
      <trkpt lat="54.24191" lon="15.87939">
        <ele>43.52255</ele>
        <time>2024-07-28T12:09:57.650Z</time>
      </trkpt>
      <trkpt lat="54.24191" lon="15.87957">
        <ele>43.527692</ele>
        <time>2024-07-28T12:10:00.661Z</time>
      </trkpt>
      <trkpt lat="54.24191" lon="15.87976">
        <ele>43.54639</ele>
        <time>2024-07-28T12:10:03.653Z</time>
      </trkpt>
      <trkpt lat="54.24193" lon="15.87995">
        <ele>43.564527</ele>
        <time>2024-07-28T12:10:06.654Z</time>
      </trkpt>
      <trkpt lat="54.24195" lon="15.88016">
        <ele>43.584852</ele>
        <time>2024-07-28T12:10:09.651Z</time>
      </trkpt>
      <trkpt lat="54.24198" lon="15.88037">
        <ele>43.605179</ele>
        <time>2024-07-28T12:10:12.666Z</time>
      </trkpt>
      <trkpt lat="54.24201" lon="15.88059">
        <ele>43.626436</ele>
        <time>2024-07-28T12:10:15.656Z</time>
      </trkpt>
      <trkpt lat="54.24203" lon="15.88081">
        <ele>43.648349</ele>
        <time>2024-07-28T12:10:18.675Z</time>
      </trkpt>
      <trkpt lat="54.24205" lon="15.88104">
        <ele>43.670068</ele>
        <time>2024-07-28T12:10:21.672Z</time>
      </trkpt>
      <trkpt lat="54.24208" lon="15.88126">
        <ele>43.691981</ele>
        <time>2024-07-28T12:10:24.670Z</time>
      </trkpt>
      <trkpt lat="54.24209" lon="15.88149">
        <ele>43.713741</ele>
        <time>2024-07-28T12:10:27.676Z</time>
      </trkpt>
      <trkpt lat="54.24212" lon="15.88171">
        <ele>43.735</ele>
        <time>2024-07-28T12:10:30.660Z</time>
      </trkpt>
      <trkpt lat="54.24214" lon="15.88193">
        <ele>43.756415</ele>
        <time>2024-07-28T12:10:33.678Z</time>
      </trkpt>
      <trkpt lat="54.24217" lon="15.88214">
        <ele>43.777081</ele>
        <time>2024-07-28T12:10:36.668Z</time>
      </trkpt>
      <trkpt lat="54.24219" lon="15.88236">
        <ele>43.79859</ele>
        <time>2024-07-28T12:10:39.654Z</time>
      </trkpt>
      <trkpt lat="54.24221" lon="15.88252">
        <ele>43.813729</ele>
        <time>2024-07-28T12:10:41.655Z</time>
      </trkpt>
      <trkpt lat="54.24223" lon="15.88267">
        <ele>43.758781</ele>
        <time>2024-07-28T12:10:43.672Z</time>
      </trkpt>
      <trkpt lat="54.24225" lon="15.8829">
        <ele>43.664923</ele>
        <time>2024-07-28T12:10:46.664Z</time>
      </trkpt>
      <trkpt lat="54.24227" lon="15.88312">
        <ele>43.572425</ele>
        <time>2024-07-28T12:10:49.677Z</time>
      </trkpt>
      <trkpt lat="54.2423" lon="15.88333">
        <ele>43.482365</ele>
        <time>2024-07-28T12:10:52.681Z</time>
      </trkpt>
      <trkpt lat="54.24224" lon="15.8835">
        <ele>43.403951</ele>
        <time>2024-07-28T12:10:55.662Z</time>
      </trkpt>
      <trkpt lat="54.24227" lon="15.8837">
        <ele>43.316326</ele>
        <time>2024-07-28T12:10:58.677Z</time>
      </trkpt>
      <trkpt lat="54.24228" lon="15.88386">
        <ele>43.251629</ele>
        <time>2024-07-28T12:11:00.667Z</time>
      </trkpt>
      <trkpt lat="54.2423" lon="15.88402">
        <ele>43.184564</ele>
        <time>2024-07-28T12:11:02.672Z</time>
      </trkpt>
      <trkpt lat="54.24231" lon="15.88419">
        <ele>43.113903</ele>
        <time>2024-07-28T12:11:04.674Z</time>
      </trkpt>
      <trkpt lat="54.24233" lon="15.88436">
        <ele>43.039142</ele>
        <time>2024-07-28T12:11:06.643Z</time>
      </trkpt>
      <trkpt lat="54.24235" lon="15.88454">
        <ele>42.964592</ele>
        <time>2024-07-28T12:11:08.655Z</time>
      </trkpt>
      <trkpt lat="54.24237" lon="15.88472">
        <ele>42.888461</ele>
        <time>2024-07-28T12:11:10.653Z</time>
      </trkpt>
      <trkpt lat="54.24238" lon="15.8849">
        <ele>42.811858</ele>
        <time>2024-07-28T12:11:12.662Z</time>
      </trkpt>
      <trkpt lat="54.2424" lon="15.88508">
        <ele>42.737257</ele>
        <time>2024-07-28T12:11:14.652Z</time>
      </trkpt>
      <trkpt lat="54.24242" lon="15.88525">
        <ele>42.664037</ele>
        <time>2024-07-28T12:11:16.655Z</time>
      </trkpt>
      <trkpt lat="54.24242" lon="15.88543">
        <ele>42.592924</ele>
        <time>2024-07-28T12:11:18.664Z</time>
      </trkpt>
      <trkpt lat="54.24243" lon="15.88559">
        <ele>42.544966</ele>
        <time>2024-07-28T12:11:20.648Z</time>
      </trkpt>
      <trkpt lat="54.24241" lon="15.88574">
        <ele>42.569021</ele>
        <time>2024-07-28T12:11:22.658Z</time>
      </trkpt>
      <trkpt lat="54.24239" lon="15.8859">
        <ele>42.594231</ele>
        <time>2024-07-28T12:11:24.638Z</time>
      </trkpt>
      <trkpt lat="54.24238" lon="15.88607">
        <ele>42.619387</ele>
        <time>2024-07-28T12:11:26.645Z</time>
      </trkpt>
      <trkpt lat="54.24238" lon="15.88629">
        <ele>42.65317</ele>
        <time>2024-07-28T12:11:29.668Z</time>
      </trkpt>
      <trkpt lat="54.24237" lon="15.88644">
        <ele>42.677273</ele>
        <time>2024-07-28T12:11:31.659Z</time>
      </trkpt>
      <trkpt lat="54.24238" lon="15.88661">
        <ele>42.703674</ele>
        <time>2024-07-28T12:11:33.628Z</time>
      </trkpt>
      <trkpt lat="54.24238" lon="15.88678">
        <ele>42.7298</ele>
        <time>2024-07-28T12:11:35.644Z</time>
      </trkpt>
      <trkpt lat="54.24239" lon="15.88695">
        <ele>42.755999</ele>
        <time>2024-07-28T12:11:37.662Z</time>
      </trkpt>
      <trkpt lat="54.2424" lon="15.88714">
        <ele>42.784058</ele>
        <time>2024-07-28T12:11:39.662Z</time>
      </trkpt>
      <trkpt lat="54.24243" lon="15.8873">
        <ele>42.811092</ele>
        <time>2024-07-28T12:11:41.650Z</time>
      </trkpt>
      <trkpt lat="54.24246" lon="15.88747">
        <ele>42.838426</ele>
        <time>2024-07-28T12:11:43.647Z</time>
      </trkpt>
      <trkpt lat="54.24249" lon="15.88765">
        <ele>42.865245</ele>
        <time>2024-07-28T12:11:45.652Z</time>
      </trkpt>
      <trkpt lat="54.24252" lon="15.88782">
        <ele>42.893237</ele>
        <time>2024-07-28T12:11:47.643Z</time>
      </trkpt>
      <trkpt lat="54.24254" lon="15.888">
        <ele>42.921086</ele>
        <time>2024-07-28T12:11:49.664Z</time>
      </trkpt>
      <trkpt lat="54.24256" lon="15.88816">
        <ele>42.946705</ele>
        <time>2024-07-28T12:11:51.658Z</time>
      </trkpt>
      <trkpt lat="54.24259" lon="15.88832">
        <ele>42.971613</ele>
        <time>2024-07-28T12:11:53.666Z</time>
      </trkpt>
      <trkpt lat="54.24262" lon="15.88852">
        <ele>43.004393</ele>
        <time>2024-07-28T12:11:56.639Z</time>
      </trkpt>
      <trkpt lat="54.24264" lon="15.88872">
        <ele>42.952097</ele>
        <time>2024-07-28T12:11:59.662Z</time>
      </trkpt>
      <trkpt lat="54.24265" lon="15.88894">
        <ele>42.857549</ele>
        <time>2024-07-28T12:12:50.652Z</time>
      </trkpt>
      <trkpt lat="54.24265" lon="15.88913">
        <ele>42.782404</ele>
        <time>2024-07-28T12:12:55.647Z</time>
      </trkpt>
      <trkpt lat="54.24264" lon="15.88928">
        <ele>42.718799</ele>
        <time>2024-07-28T12:12:58.639Z</time>
      </trkpt>
      <trkpt lat="54.24262" lon="15.88947">
        <ele>42.6379</ele>
        <time>2024-07-28T12:13:01.655Z</time>
      </trkpt>
      <trkpt lat="54.24259" lon="15.88963">
        <ele>42.569094</ele>
        <time>2024-07-28T12:13:04.669Z</time>
      </trkpt>
      <trkpt lat="54.24256" lon="15.88982">
        <ele>42.486483</ele>
        <time>2024-07-28T12:13:07.653Z</time>
      </trkpt>
      <trkpt lat="54.24253" lon="15.89004">
        <ele>42.395366</ele>
        <time>2024-07-28T12:13:10.658Z</time>
      </trkpt>
      <trkpt lat="54.2425" lon="15.89019">
        <ele>42.328012</ele>
        <time>2024-07-28T12:13:12.636Z</time>
      </trkpt>
      <trkpt lat="54.24247" lon="15.89036">
        <ele>42.256797</ele>
        <time>2024-07-28T12:13:14.650Z</time>
      </trkpt>
      <trkpt lat="54.24245" lon="15.89054">
        <ele>42.181071</ele>
        <time>2024-07-28T12:13:16.658Z</time>
      </trkpt>
      <trkpt lat="54.24242" lon="15.89071">
        <ele>42.105598</ele>
        <time>2024-07-28T12:13:18.661Z</time>
      </trkpt>
      <trkpt lat="54.24239" lon="15.89089">
        <ele>42.028671</ele>
        <time>2024-07-28T12:13:20.669Z</time>
      </trkpt>
      <trkpt lat="54.24237" lon="15.89109">
        <ele>41.947513</ele>
        <time>2024-07-28T12:13:22.678Z</time>
      </trkpt>
      <trkpt lat="54.24234" lon="15.89129">
        <ele>41.863033</ele>
        <time>2024-07-28T12:13:24.658Z</time>
      </trkpt>
      <trkpt lat="54.24231" lon="15.89149">
        <ele>41.77389</ele>
        <time>2024-07-28T12:13:26.654Z</time>
      </trkpt>
      <trkpt lat="54.24228" lon="15.8917">
        <ele>41.726824</ele>
        <time>2024-07-28T12:13:28.659Z</time>
      </trkpt>
      <trkpt lat="54.24227" lon="15.89188">
        <ele>41.705381</ele>
        <time>2024-07-28T12:13:30.652Z</time>
      </trkpt>
      <trkpt lat="54.24228" lon="15.89205">
        <ele>41.685656</ele>
        <time>2024-07-28T12:13:32.637Z</time>
      </trkpt>
      <trkpt lat="54.2423" lon="15.89226">
        <ele>41.660791</ele>
        <time>2024-07-28T12:13:35.651Z</time>
      </trkpt>
      <trkpt lat="54.24233" lon="15.89245">
        <ele>41.638089</ele>
        <time>2024-07-28T12:13:38.660Z</time>
      </trkpt>
      <trkpt lat="54.24238" lon="15.89262">
        <ele>41.615562</ele>
        <time>2024-07-28T12:13:41.663Z</time>
      </trkpt>
      <trkpt lat="54.24243" lon="15.89277">
        <ele>41.595941</ele>
        <time>2024-07-28T12:13:44.666Z</time>
      </trkpt>
      <trkpt lat="54.2425" lon="15.89291">
        <ele>41.574449</ele>
        <time>2024-07-28T12:13:47.663Z</time>
      </trkpt>
      <trkpt lat="54.24256" lon="15.89308">
        <ele>41.551321</ele>
        <time>2024-07-28T12:13:50.664Z</time>
      </trkpt>
      <trkpt lat="54.24261" lon="15.89324">
        <ele>41.5298</ele>
        <time>2024-07-28T12:13:53.668Z</time>
      </trkpt>
      <trkpt lat="54.24268" lon="15.89341">
        <ele>41.506107</ele>
        <time>2024-07-28T12:13:56.650Z</time>
      </trkpt>
      <trkpt lat="54.24274" lon="15.89358">
        <ele>41.483365</ele>
        <time>2024-07-28T12:13:59.671Z</time>
      </trkpt>
      <trkpt lat="54.2428" lon="15.89375">
        <ele>41.460938</ele>
        <time>2024-07-28T12:14:02.656Z</time>
      </trkpt>
      <trkpt lat="54.24286" lon="15.89391">
        <ele>41.437991</ele>
        <time>2024-07-28T12:14:05.653Z</time>
      </trkpt>
      <trkpt lat="54.24292" lon="15.89409">
        <ele>41.414067</ele>
        <time>2024-07-28T12:14:08.665Z</time>
      </trkpt>
      <trkpt lat="54.24299" lon="15.89427">
        <ele>41.388932</ele>
        <time>2024-07-28T12:14:11.654Z</time>
      </trkpt>
      <trkpt lat="54.24305" lon="15.89445">
        <ele>41.409408</ele>
        <time>2024-07-28T12:14:14.669Z</time>
      </trkpt>
      <trkpt lat="54.2431" lon="15.89464">
        <ele>41.438337</ele>
        <time>2024-07-28T12:14:17.652Z</time>
      </trkpt>
      <trkpt lat="54.24315" lon="15.89483">
        <ele>41.467191</ele>
        <time>2024-07-28T12:14:20.656Z</time>
      </trkpt>
      <trkpt lat="54.2432" lon="15.895">
        <ele>41.49427</ele>
        <time>2024-07-28T12:14:23.654Z</time>
      </trkpt>
      <trkpt lat="54.24325" lon="15.89519">
        <ele>41.523255</ele>
        <time>2024-07-28T12:14:26.647Z</time>
      </trkpt>
      <trkpt lat="54.2433" lon="15.89538">
        <ele>41.551464</ele>
        <time>2024-07-28T12:14:29.656Z</time>
      </trkpt>
      <trkpt lat="54.24333" lon="15.89555">
        <ele>41.57712</ele>
        <time>2024-07-28T12:14:32.659Z</time>
      </trkpt>
      <trkpt lat="54.24337" lon="15.89573">
        <ele>41.604369</ele>
        <time>2024-07-28T12:14:35.654Z</time>
      </trkpt>
      <trkpt lat="54.24339" lon="15.89592">
        <ele>41.630972</ele>
        <time>2024-07-28T12:14:38.642Z</time>
      </trkpt>
      <trkpt lat="54.24341" lon="15.89611">
        <ele>41.65804</ele>
        <time>2024-07-28T12:14:41.634Z</time>
      </trkpt>
      <trkpt lat="54.24342" lon="15.89631">
        <ele>41.68657</ele>
        <time>2024-07-28T12:14:44.650Z</time>
      </trkpt>
      <trkpt lat="54.24343" lon="15.89651">
        <ele>41.714657</ele>
        <time>2024-07-28T12:14:47.652Z</time>
      </trkpt>
      <trkpt lat="54.24342" lon="15.89671">
        <ele>41.742702</ele>
        <time>2024-07-28T12:14:50.651Z</time>
      </trkpt>
      <trkpt lat="54.24339" lon="15.89689">
        <ele>41.769234</ele>
        <time>2024-07-28T12:14:53.655Z</time>
      </trkpt>
      <trkpt lat="54.24335" lon="15.89706">
        <ele>41.794902</ele>
        <time>2024-07-28T12:14:56.647Z</time>
      </trkpt>
      <trkpt lat="54.2433" lon="15.89723">
        <ele>41.799655</ele>
        <time>2024-07-28T12:14:59.657Z</time>
      </trkpt>
      <trkpt lat="54.24327" lon="15.8974">
        <ele>41.695406</ele>
        <time>2024-07-28T12:15:02.651Z</time>
      </trkpt>
      <trkpt lat="54.24325" lon="15.89758">
        <ele>41.583961</ele>
        <time>2024-07-28T12:15:05.648Z</time>
      </trkpt>
      <trkpt lat="54.24323" lon="15.8978">
        <ele>41.456504</ele>
        <time>2024-07-28T12:15:08.647Z</time>
      </trkpt>
      <trkpt lat="54.24323" lon="15.898">
        <ele>41.336983</ele>
        <time>2024-07-28T12:15:11.655Z</time>
      </trkpt>
      <trkpt lat="54.24324" lon="15.8982">
        <ele>41.214368</ele>
        <time>2024-07-28T12:15:14.658Z</time>
      </trkpt>
      <trkpt lat="54.24325" lon="15.89841">
        <ele>41.092316</ele>
        <time>2024-07-28T12:15:17.665Z</time>
      </trkpt>
      <trkpt lat="54.24327" lon="15.89862">
        <ele>40.965447</ele>
        <time>2024-07-28T12:15:20.660Z</time>
      </trkpt>
      <trkpt lat="54.24329" lon="15.89882">
        <ele>40.844501</ele>
        <time>2024-07-28T12:15:23.666Z</time>
      </trkpt>
      <trkpt lat="54.24332" lon="15.89903">
        <ele>40.719296</ele>
        <time>2024-07-28T12:15:26.664Z</time>
      </trkpt>
      <trkpt lat="54.24334" lon="15.89925">
        <ele>40.589083</ele>
        <time>2024-07-28T12:15:29.655Z</time>
      </trkpt>
      <trkpt lat="54.24339" lon="15.89946">
        <ele>40.453133</ele>
        <time>2024-07-28T12:15:32.649Z</time>
      </trkpt>
      <trkpt lat="54.24342" lon="15.89962">
        <ele>40.356921</ele>
        <time>2024-07-28T12:15:34.665Z</time>
      </trkpt>
      <trkpt lat="54.24344" lon="15.89978">
        <ele>40.255317</ele>
        <time>2024-07-28T12:15:36.652Z</time>
      </trkpt>
      <trkpt lat="54.24347" lon="15.89995">
        <ele>40.150571</ele>
        <time>2024-07-28T12:15:38.662Z</time>
      </trkpt>
      <trkpt lat="54.24351" lon="15.90012">
        <ele>40.046953</ele>
        <time>2024-07-28T12:15:40.680Z</time>
      </trkpt>
      <trkpt lat="54.24353" lon="15.90028">
        <ele>39.961513</ele>
        <time>2024-07-28T12:15:42.657Z</time>
      </trkpt>
      <trkpt lat="54.24355" lon="15.90044">
        <ele>39.889954</ele>
        <time>2024-07-28T12:15:44.636Z</time>
      </trkpt>
      <trkpt lat="54.24358" lon="15.90061">
        <ele>39.816423</ele>
        <time>2024-07-28T12:15:46.656Z</time>
      </trkpt>
      <trkpt lat="54.2436" lon="15.90077">
        <ele>39.746358</ele>
        <time>2024-07-28T12:15:48.655Z</time>
      </trkpt>
      <trkpt lat="54.24362" lon="15.90093">
        <ele>39.676584</ele>
        <time>2024-07-28T12:15:50.673Z</time>
      </trkpt>
      <trkpt lat="54.24365" lon="15.9011">
        <ele>39.603571</ele>
        <time>2024-07-28T12:15:52.656Z</time>
      </trkpt>
      <trkpt lat="54.24369" lon="15.90127">
        <ele>39.528693</ele>
        <time>2024-07-28T12:15:54.668Z</time>
      </trkpt>
      <trkpt lat="54.24372" lon="15.90144">
        <ele>39.451577</ele>
        <time>2024-07-28T12:15:56.649Z</time>
      </trkpt>
      <trkpt lat="54.24375" lon="15.90162">
        <ele>39.371444</ele>
        <time>2024-07-28T12:15:58.668Z</time>
      </trkpt>
      <trkpt lat="54.24379" lon="15.9018">
        <ele>39.289046</ele>
        <time>2024-07-28T12:16:00.658Z</time>
      </trkpt>
      <trkpt lat="54.24384" lon="15.90198">
        <ele>39.205474</ele>
        <time>2024-07-28T12:16:02.658Z</time>
      </trkpt>
      <trkpt lat="54.2439" lon="15.90214">
        <ele>39.123516</ele>
        <time>2024-07-28T12:16:04.658Z</time>
      </trkpt>
      <trkpt lat="54.24395" lon="15.90232">
        <ele>39.040207</ele>
        <time>2024-07-28T12:16:06.659Z</time>
      </trkpt>
      <trkpt lat="54.24398" lon="15.9025">
        <ele>38.961459</ele>
        <time>2024-07-28T12:16:08.640Z</time>
      </trkpt>
      <trkpt lat="54.24401" lon="15.90268">
        <ele>38.881708</ele>
        <time>2024-07-28T12:16:10.667Z</time>
      </trkpt>
      <trkpt lat="54.24403" lon="15.90287">
        <ele>38.799672</ele>
        <time>2024-07-28T12:16:12.656Z</time>
      </trkpt>
      <trkpt lat="54.24407" lon="15.90305">
        <ele>38.71872</ele>
        <time>2024-07-28T12:16:14.655Z</time>
      </trkpt>
      <trkpt lat="54.24411" lon="15.90323">
        <ele>38.90751</ele>
        <time>2024-07-28T12:16:16.674Z</time>
      </trkpt>
      <trkpt lat="54.24414" lon="15.90341">
        <ele>39.229639</ele>
        <time>2024-07-28T12:16:18.666Z</time>
      </trkpt>
      <trkpt lat="54.24418" lon="15.90358">
        <ele>39.54661</ele>
        <time>2024-07-28T12:16:20.676Z</time>
      </trkpt>
      <trkpt lat="54.24421" lon="15.90374">
        <ele>39.841208</ele>
        <time>2024-07-28T12:16:22.655Z</time>
      </trkpt>
      <trkpt lat="54.24425" lon="15.90389">
        <ele>40.119238</ele>
        <time>2024-07-28T12:16:24.662Z</time>
      </trkpt>
      <trkpt lat="54.24428" lon="15.90403">
        <ele>40.385224</ele>
        <time>2024-07-28T12:16:26.652Z</time>
      </trkpt>
      <trkpt lat="54.24432" lon="15.90418">
        <ele>40.656338</ele>
        <time>2024-07-28T12:16:28.661Z</time>
      </trkpt>
      <trkpt lat="54.24434" lon="15.90434">
        <ele>40.940466</ele>
        <time>2024-07-28T12:16:30.642Z</time>
      </trkpt>
      <trkpt lat="54.24437" lon="15.90448">
        <ele>41.20517</ele>
        <time>2024-07-28T12:16:32.655Z</time>
      </trkpt>
      <trkpt lat="54.24441" lon="15.90463">
        <ele>41.479925</ele>
        <time>2024-07-28T12:16:34.657Z</time>
      </trkpt>
      <trkpt lat="54.24446" lon="15.90484">
        <ele>41.865376</ele>
        <time>2024-07-28T12:16:37.652Z</time>
      </trkpt>
      <trkpt lat="54.2445" lon="15.905">
        <ele>42.171115</ele>
        <time>2024-07-28T12:16:40.657Z</time>
      </trkpt>
      <trkpt lat="54.24453" lon="15.90515">
        <ele>42.452802</ele>
        <time>2024-07-28T12:16:44.657Z</time>
      </trkpt>
      <trkpt lat="54.24457" lon="15.90531">
        <ele>42.746827</ele>
        <time>2024-07-28T12:16:48.654Z</time>
      </trkpt>
      <trkpt lat="54.24461" lon="15.90548">
        <ele>43.06111</ele>
        <time>2024-07-28T12:16:52.675Z</time>
      </trkpt>
      <trkpt lat="54.24464" lon="15.90564">
        <ele>43.350834</ele>
        <time>2024-07-28T12:16:56.674Z</time>
      </trkpt>
      <trkpt lat="54.24468" lon="15.90579">
        <ele>43.640558</ele>
        <time>2024-07-28T12:17:00.648Z</time>
      </trkpt>
      <trkpt lat="54.24472" lon="15.90596">
        <ele>43.956591</ele>
        <time>2024-07-28T12:17:04.669Z</time>
      </trkpt>
      <trkpt lat="54.24476" lon="15.90615">
        <ele>44.217403</ele>
        <time>2024-07-28T12:17:08.663Z</time>
      </trkpt>
      <trkpt lat="54.24481" lon="15.90632">
        <ele>44.455099</ele>
        <time>2024-07-28T12:17:12.663Z</time>
      </trkpt>
      <trkpt lat="54.24485" lon="15.90647">
        <ele>44.661058</ele>
        <time>2024-07-28T12:17:16.654Z</time>
      </trkpt>
      <trkpt lat="54.24487" lon="15.90663">
        <ele>44.870564</ele>
        <time>2024-07-28T12:17:20.658Z</time>
      </trkpt>
      <trkpt lat="54.24491" lon="15.90681">
        <ele>45.110238</ele>
        <time>2024-07-28T12:17:24.641Z</time>
      </trkpt>
      <trkpt lat="54.24495" lon="15.907">
        <ele>45.371462</ele>
        <time>2024-07-28T12:17:28.660Z</time>
      </trkpt>
      <trkpt lat="54.24498" lon="15.90716">
        <ele>45.579748</ele>
        <time>2024-07-28T12:17:31.656Z</time>
      </trkpt>
      <trkpt lat="54.24501" lon="15.90734">
        <ele>45.813563</ele>
        <time>2024-07-28T12:17:34.669Z</time>
      </trkpt>
      <trkpt lat="54.24505" lon="15.90753">
        <ele>46.070124</ele>
        <time>2024-07-28T12:17:37.675Z</time>
      </trkpt>
      <trkpt lat="54.2451" lon="15.9077">
        <ele>46.311779</ele>
        <time>2024-07-28T12:17:40.667Z</time>
      </trkpt>
      <trkpt lat="54.24514" lon="15.90788">
        <ele>46.555382</ele>
        <time>2024-07-28T12:17:44.665Z</time>
      </trkpt>
      <trkpt lat="54.24516" lon="15.90806">
        <ele>46.783793</ele>
        <time>2024-07-28T12:17:48.685Z</time>
      </trkpt>
      <trkpt lat="54.24519" lon="15.90822">
        <ele>46.996517</ele>
        <time>2024-07-28T12:17:51.676Z</time>
      </trkpt>
      <trkpt lat="54.24522" lon="15.90838">
        <ele>47.209075</ele>
        <time>2024-07-28T12:17:54.659Z</time>
      </trkpt>
      <trkpt lat="54.24526" lon="15.90853">
        <ele>47.415739</ele>
        <time>2024-07-28T12:17:57.636Z</time>
      </trkpt>
      <trkpt lat="54.24528" lon="15.90869">
        <ele>47.629821</ele>
        <time>2024-07-28T12:18:00.647Z</time>
      </trkpt>
      <trkpt lat="54.24531" lon="15.90887">
        <ele>47.866608</ele>
        <time>2024-07-28T12:18:03.653Z</time>
      </trkpt>
      <trkpt lat="54.24534" lon="15.90904">
        <ele>47.991991</ele>
        <time>2024-07-28T12:18:06.656Z</time>
      </trkpt>
      <trkpt lat="54.24536" lon="15.90923">
        <ele>48.1247</ele>
        <time>2024-07-28T12:18:10.658Z</time>
      </trkpt>
      <trkpt lat="54.24539" lon="15.90938">
        <ele>48.231948</ele>
        <time>2024-07-28T12:18:15.654Z</time>
      </trkpt>
      <trkpt lat="54.24532" lon="15.90949">
        <ele>48.336757</ele>
        <time>2024-07-28T12:18:28.658Z</time>
      </trkpt>
      <trkpt lat="54.24526" lon="15.90962">
        <ele>48.455863</ele>
        <time>2024-07-28T12:18:33.652Z</time>
      </trkpt>
      <trkpt lat="54.24537" lon="15.9097">
        <ele>48.603737</ele>
        <time>2024-07-28T12:18:55.665Z</time>
      </trkpt>
      <trkpt lat="54.24545" lon="15.9096">
        <ele>48.715482</ele>
        <time>2024-07-28T12:18:58.654Z</time>
      </trkpt>
      <trkpt lat="54.24554" lon="15.90953">
        <ele>48.831473</ele>
        <time>2024-07-28T12:19:01.652Z</time>
      </trkpt>
      <trkpt lat="54.24563" lon="15.90966">
        <ele>48.96497</ele>
        <time>2024-07-28T12:19:05.644Z</time>
      </trkpt>
      <trkpt lat="54.24566" lon="15.90982">
        <ele>49.079816</ele>
        <time>2024-07-28T12:19:08.642Z</time>
      </trkpt>
      <trkpt lat="54.24567" lon="15.90999">
        <ele>49.1977</ele>
        <time>2024-07-28T12:19:11.662Z</time>
      </trkpt>
      <trkpt lat="54.24571" lon="15.91017">
        <ele>49.327556</ele>
        <time>2024-07-28T12:19:14.671Z</time>
      </trkpt>
      <trkpt lat="54.24573" lon="15.91032">
        <ele>49.432278</ele>
        <time>2024-07-28T12:19:16.661Z</time>
      </trkpt>
      <trkpt lat="54.24577" lon="15.91049">
        <ele>49.555804</ele>
        <time>2024-07-28T12:19:19.648Z</time>
      </trkpt>
      <trkpt lat="54.2458" lon="15.91067">
        <ele>49.67852</ele>
        <time>2024-07-28T12:19:22.657Z</time>
      </trkpt>
      <trkpt lat="54.24583" lon="15.91087">
        <ele>49.822374</ele>
        <time>2024-07-28T12:19:25.653Z</time>
      </trkpt>
      <trkpt lat="54.24586" lon="15.91107">
        <ele>49.966549</ele>
        <time>2024-07-28T12:19:28.674Z</time>
      </trkpt>
      <trkpt lat="54.2459" lon="15.9113">
        <ele>49.675399</ele>
        <time>2024-07-28T12:19:31.654Z</time>
      </trkpt>
      <trkpt lat="54.24592" lon="15.91145">
        <ele>49.462918</ele>
        <time>2024-07-28T12:19:33.653Z</time>
      </trkpt>
      <trkpt lat="54.24595" lon="15.9116">
        <ele>49.24838</ele>
        <time>2024-07-28T12:19:35.658Z</time>
      </trkpt>
      <trkpt lat="54.24597" lon="15.91175">
        <ele>49.031212</ele>
        <time>2024-07-28T12:19:37.642Z</time>
      </trkpt>
      <trkpt lat="54.246" lon="15.91192">
        <ele>48.79175</ele>
        <time>2024-07-28T12:19:39.673Z</time>
      </trkpt>
      <trkpt lat="54.24602" lon="15.91209">
        <ele>48.554236</ele>
        <time>2024-07-28T12:19:41.650Z</time>
      </trkpt>
      <trkpt lat="54.24605" lon="15.91227">
        <ele>48.300318</ele>
        <time>2024-07-28T12:19:43.651Z</time>
      </trkpt>
      <trkpt lat="54.24608" lon="15.91246">
        <ele>48.03568</ele>
        <time>2024-07-28T12:19:45.629Z</time>
      </trkpt>
      <trkpt lat="54.2461" lon="15.91264">
        <ele>47.773964</ele>
        <time>2024-07-28T12:19:47.659Z</time>
      </trkpt>
      <trkpt lat="54.24612" lon="15.91283">
        <ele>47.510061</ele>
        <time>2024-07-28T12:19:49.652Z</time>
      </trkpt>
      <trkpt lat="54.24613" lon="15.91302">
        <ele>47.258336</ele>
        <time>2024-07-28T12:19:51.654Z</time>
      </trkpt>
      <trkpt lat="54.24614" lon="15.91319">
        <ele>47.016119</ele>
        <time>2024-07-28T12:19:53.649Z</time>
      </trkpt>
      <trkpt lat="54.24616" lon="15.91337">
        <ele>46.767111</ele>
        <time>2024-07-28T12:19:55.661Z</time>
      </trkpt>
      <trkpt lat="54.24617" lon="15.91356">
        <ele>46.517533</ele>
        <time>2024-07-28T12:19:57.653Z</time>
      </trkpt>
      <trkpt lat="54.24618" lon="15.91373">
        <ele>46.279653</ele>
        <time>2024-07-28T12:19:59.652Z</time>
      </trkpt>
      <trkpt lat="54.24619" lon="15.91391">
        <ele>46.033618</ele>
        <time>2024-07-28T12:20:01.670Z</time>
      </trkpt>
      <trkpt lat="54.2462" lon="15.91409">
        <ele>45.778064</ele>
        <time>2024-07-28T12:20:03.672Z</time>
      </trkpt>
      <trkpt lat="54.24621" lon="15.9143">
        <ele>45.533693</ele>
        <time>2024-07-28T12:20:05.667Z</time>
      </trkpt>
      <trkpt lat="54.24623" lon="15.91453">
        <ele>45.256947</ele>
        <time>2024-07-28T12:20:07.663Z</time>
      </trkpt>
      <trkpt lat="54.24624" lon="15.9148">
        <ele>44.94704</ele>
        <time>2024-07-28T12:20:09.655Z</time>
      </trkpt>
      <trkpt lat="54.24627" lon="15.91508">
        <ele>44.614343</ele>
        <time>2024-07-28T12:20:11.655Z</time>
      </trkpt>
      <trkpt lat="54.24628" lon="15.91523">
        <ele>44.431119</ele>
        <time>2024-07-28T12:20:12.657Z</time>
      </trkpt>
      <trkpt lat="54.24631" lon="15.91552">
        <ele>44.083874</ele>
        <time>2024-07-28T12:20:14.669Z</time>
      </trkpt>
      <trkpt lat="54.24633" lon="15.91581">
        <ele>43.74358</ele>
        <time>2024-07-28T12:20:16.659Z</time>
      </trkpt>
      <trkpt lat="54.24634" lon="15.91609">
        <ele>43.41454</ele>
        <time>2024-07-28T12:20:18.658Z</time>
      </trkpt>
      <trkpt lat="54.24635" lon="15.91636">
        <ele>43.098241</ele>
        <time>2024-07-28T12:20:20.640Z</time>
      </trkpt>
      <trkpt lat="54.24635" lon="15.91661">
        <ele>42.794691</ele>
        <time>2024-07-28T12:20:22.660Z</time>
      </trkpt>
      <trkpt lat="54.24636" lon="15.91686">
        <ele>42.500345</ele>
        <time>2024-07-28T12:20:24.658Z</time>
      </trkpt>
      <trkpt lat="54.24635" lon="15.91711">
        <ele>42.215667</ele>
        <time>2024-07-28T12:20:26.655Z</time>
      </trkpt>
      <trkpt lat="54.24636" lon="15.91734">
        <ele>42.337589</ele>
        <time>2024-07-28T12:20:28.653Z</time>
      </trkpt>
      <trkpt lat="54.24638" lon="15.91754">
        <ele>42.5674</ele>
        <time>2024-07-28T12:20:30.653Z</time>
      </trkpt>
      <trkpt lat="54.24642" lon="15.91773">
        <ele>42.783789</ele>
        <time>2024-07-28T12:20:32.653Z</time>
      </trkpt>
      <trkpt lat="54.24643" lon="15.91791">
        <ele>42.97963</ele>
        <time>2024-07-28T12:20:34.661Z</time>
      </trkpt>
      <trkpt lat="54.24645" lon="15.91811">
        <ele>43.192984</ele>
        <time>2024-07-28T12:20:36.650Z</time>
      </trkpt>
      <trkpt lat="54.24645" lon="15.9183">
        <ele>43.403558</ele>
        <time>2024-07-28T12:20:38.657Z</time>
      </trkpt>
      <trkpt lat="54.24646" lon="15.9185">
        <ele>43.623398</ele>
        <time>2024-07-28T12:20:40.663Z</time>
      </trkpt>
      <trkpt lat="54.24648" lon="15.9187">
        <ele>43.842534</ele>
        <time>2024-07-28T12:20:42.660Z</time>
      </trkpt>
      <trkpt lat="54.24648" lon="15.9189">
        <ele>44.061423</ele>
        <time>2024-07-28T12:20:44.664Z</time>
      </trkpt>
      <trkpt lat="54.24646" lon="15.91909">
        <ele>44.266969</ele>
        <time>2024-07-28T12:20:46.668Z</time>
      </trkpt>
      <trkpt lat="54.24644" lon="15.91926">
        <ele>44.45977</ele>
        <time>2024-07-28T12:20:48.638Z</time>
      </trkpt>
      <trkpt lat="54.24643" lon="15.91943">
        <ele>44.643763</ele>
        <time>2024-07-28T12:20:50.653Z</time>
      </trkpt>
      <trkpt lat="54.24639" lon="15.91965">
        <ele>44.890453</ele>
        <time>2024-07-28T12:20:53.635Z</time>
      </trkpt>
      <trkpt lat="54.24635" lon="15.91985">
        <ele>45.123618</ele>
        <time>2024-07-28T12:20:56.645Z</time>
      </trkpt>
      <trkpt lat="54.24631" lon="15.92005">
        <ele>45.350728</ele>
        <time>2024-07-28T12:20:59.650Z</time>
      </trkpt>
      <trkpt lat="54.24627" lon="15.92024">
        <ele>45.481211</ele>
        <time>2024-07-28T12:21:02.651Z</time>
      </trkpt>
      <trkpt lat="54.24623" lon="15.92044">
        <ele>45.421928</ele>
        <time>2024-07-28T12:21:05.653Z</time>
      </trkpt>
      <trkpt lat="54.24619" lon="15.92066">
        <ele>45.3595</ele>
        <time>2024-07-28T12:21:08.656Z</time>
      </trkpt>
      <trkpt lat="54.24616" lon="15.9208">
        <ele>45.315414</ele>
        <time>2024-07-28T12:21:10.652Z</time>
      </trkpt>
      <trkpt lat="54.24612" lon="15.92095">
        <ele>45.271845</ele>
        <time>2024-07-28T12:21:12.655Z</time>
      </trkpt>
      <trkpt lat="54.24609" lon="15.9211">
        <ele>45.225248</ele>
        <time>2024-07-28T12:21:14.663Z</time>
      </trkpt>
      <trkpt lat="54.24605" lon="15.92126">
        <ele>45.178473</ele>
        <time>2024-07-28T12:21:16.651Z</time>
      </trkpt>
      <trkpt lat="54.24601" lon="15.92142">
        <ele>45.130661</ele>
        <time>2024-07-28T12:21:18.661Z</time>
      </trkpt>
      <trkpt lat="54.24598" lon="15.92159">
        <ele>45.080074</ele>
        <time>2024-07-28T12:21:20.662Z</time>
      </trkpt>
      <trkpt lat="54.24594" lon="15.92174">
        <ele>45.032262</ele>
        <time>2024-07-28T12:21:22.658Z</time>
      </trkpt>
      <trkpt lat="54.24591" lon="15.9219">
        <ele>44.98581</ele>
        <time>2024-07-28T12:21:24.664Z</time>
      </trkpt>
      <trkpt lat="54.24587" lon="15.92207">
        <ele>44.936868</ele>
        <time>2024-07-28T12:21:26.655Z</time>
      </trkpt>
      <trkpt lat="54.24584" lon="15.92223">
        <ele>44.887991</ele>
        <time>2024-07-28T12:21:28.656Z</time>
      </trkpt>
      <trkpt lat="54.24581" lon="15.9224">
        <ele>44.839449</ele>
        <time>2024-07-28T12:21:30.650Z</time>
      </trkpt>
      <trkpt lat="54.24579" lon="15.92257">
        <ele>44.788719</ele>
        <time>2024-07-28T12:21:32.656Z</time>
      </trkpt>
      <trkpt lat="54.24577" lon="15.92275">
        <ele>44.738407</ele>
        <time>2024-07-28T12:21:34.659Z</time>
      </trkpt>
      <trkpt lat="54.24576" lon="15.92293">
        <ele>44.68706</ele>
        <time>2024-07-28T12:21:36.660Z</time>
      </trkpt>
      <trkpt lat="54.24574" lon="15.92312">
        <ele>44.647381</ele>
        <time>2024-07-28T12:21:38.662Z</time>
      </trkpt>
      <trkpt lat="54.24573" lon="15.9233">
        <ele>44.717287</ele>
        <time>2024-07-28T12:21:40.676Z</time>
      </trkpt>
      <trkpt lat="54.24571" lon="15.92349">
        <ele>44.789822</ele>
        <time>2024-07-28T12:21:42.673Z</time>
      </trkpt>
      <trkpt lat="54.24571" lon="15.92368">
        <ele>44.861612</ele>
        <time>2024-07-28T12:21:44.674Z</time>
      </trkpt>
      <trkpt lat="54.24569" lon="15.92386">
        <ele>44.932089</ele>
        <time>2024-07-28T12:21:46.665Z</time>
      </trkpt>
      <trkpt lat="54.24568" lon="15.92405">
        <ele>45.003059</ele>
        <time>2024-07-28T12:21:48.666Z</time>
      </trkpt>
      <trkpt lat="54.24566" lon="15.92423">
        <ele>45.073771</ele>
        <time>2024-07-28T12:21:50.663Z</time>
      </trkpt>
      <trkpt lat="54.24565" lon="15.92441">
        <ele>45.141154</ele>
        <time>2024-07-28T12:21:52.659Z</time>
      </trkpt>
      <trkpt lat="54.24565" lon="15.92458">
        <ele>45.206512</ele>
        <time>2024-07-28T12:21:54.658Z</time>
      </trkpt>
      <trkpt lat="54.24564" lon="15.92474">
        <ele>45.269304</ele>
        <time>2024-07-28T12:21:56.648Z</time>
      </trkpt>
      <trkpt lat="54.24563" lon="15.9249">
        <ele>45.331328</ele>
        <time>2024-07-28T12:21:58.661Z</time>
      </trkpt>
      <trkpt lat="54.24562" lon="15.92507">
        <ele>45.394462</ele>
        <time>2024-07-28T12:22:00.659Z</time>
      </trkpt>
      <trkpt lat="54.24561" lon="15.92524">
        <ele>45.457539</ele>
        <time>2024-07-28T12:22:02.665Z</time>
      </trkpt>
      <trkpt lat="54.24559" lon="15.9254">
        <ele>45.522533</ele>
        <time>2024-07-28T12:22:04.654Z</time>
      </trkpt>
      <trkpt lat="54.24558" lon="15.92557">
        <ele>45.585233</ele>
        <time>2024-07-28T12:22:06.657Z</time>
      </trkpt>
      <trkpt lat="54.24557" lon="15.92573">
        <ele>45.649033</ele>
        <time>2024-07-28T12:22:08.673Z</time>
      </trkpt>
      <trkpt lat="54.24555" lon="15.9259">
        <ele>45.713685</ele>
        <time>2024-07-28T12:22:10.666Z</time>
      </trkpt>
      <trkpt lat="54.24554" lon="15.92606">
        <ele>45.774956</ele>
        <time>2024-07-28T12:22:12.658Z</time>
      </trkpt>
      <trkpt lat="54.24553" lon="15.92622">
        <ele>45.877632</ele>
        <time>2024-07-28T12:22:14.660Z</time>
      </trkpt>
      <trkpt lat="54.24552" lon="15.92638">
        <ele>46.039579</ele>
        <time>2024-07-28T12:22:16.666Z</time>
      </trkpt>
      <trkpt lat="54.24551" lon="15.92659">
        <ele>46.252711</ele>
        <time>2024-07-28T12:22:19.653Z</time>
      </trkpt>
      <trkpt lat="54.2455" lon="15.9268">
        <ele>46.471225</ele>
        <time>2024-07-28T12:22:22.655Z</time>
      </trkpt>
      <trkpt lat="54.24549" lon="15.927">
        <ele>46.672297</ele>
        <time>2024-07-28T12:22:25.661Z</time>
      </trkpt>
      <trkpt lat="54.24547" lon="15.92718">
        <ele>46.852092</ele>
        <time>2024-07-28T12:22:28.659Z</time>
      </trkpt>
      <trkpt lat="54.24545" lon="15.92734">
        <ele>47.019342</ele>
        <time>2024-07-28T12:22:31.672Z</time>
      </trkpt>
      <trkpt lat="54.24544" lon="15.92749">
        <ele>47.175137</ele>
        <time>2024-07-28T12:22:34.659Z</time>
      </trkpt>
      <trkpt lat="54.24543" lon="15.92766">
        <ele>47.341084</ele>
        <time>2024-07-28T12:22:37.672Z</time>
      </trkpt>
      <trkpt lat="54.24542" lon="15.92783">
        <ele>47.521884</ele>
        <time>2024-07-28T12:22:40.658Z</time>
      </trkpt>
      <trkpt lat="54.24542" lon="15.92806">
        <ele>47.748205</ele>
        <time>2024-07-28T12:22:43.650Z</time>
      </trkpt>
      <trkpt lat="54.24542" lon="15.92822">
        <ele>47.908847</ele>
        <time>2024-07-28T12:22:45.657Z</time>
      </trkpt>
      <trkpt lat="54.24543" lon="15.92838">
        <ele>48.07253</ele>
        <time>2024-07-28T12:22:47.643Z</time>
      </trkpt>
      <trkpt lat="54.24547" lon="15.92855">
        <ele>48.253641</ele>
        <time>2024-07-28T12:22:49.646Z</time>
      </trkpt>
      <trkpt lat="54.2455" lon="15.92872">
        <ele>48.439385</ele>
        <time>2024-07-28T12:22:51.641Z</time>
      </trkpt>
      <trkpt lat="54.24553" lon="15.9289">
        <ele>48.625694</ele>
        <time>2024-07-28T12:22:53.648Z</time>
      </trkpt>
      <trkpt lat="54.24556" lon="15.92907">
        <ele>48.807597</ele>
        <time>2024-07-28T12:22:55.659Z</time>
      </trkpt>
      <trkpt lat="54.2456" lon="15.92922">
        <ele>48.764145</ele>
        <time>2024-07-28T12:22:57.655Z</time>
      </trkpt>
      <trkpt lat="54.24563" lon="15.92937">
        <ele>48.298508</ele>
        <time>2024-07-28T12:22:59.671Z</time>
      </trkpt>
      <trkpt lat="54.24566" lon="15.92957">
        <ele>47.684608</ele>
        <time>2024-07-28T12:23:02.649Z</time>
      </trkpt>
      <trkpt lat="54.24571" lon="15.92976">
        <ele>47.09682</ele>
        <time>2024-07-28T12:23:05.652Z</time>
      </trkpt>
      <trkpt lat="54.24577" lon="15.92993">
        <ele>46.503861</ele>
        <time>2024-07-28T12:23:08.660Z</time>
      </trkpt>
      <trkpt lat="54.24582" lon="15.93008">
        <ele>45.966825</ele>
        <time>2024-07-28T12:23:11.661Z</time>
      </trkpt>
      <trkpt lat="54.24588" lon="15.93026">
        <ele>45.38928</ele>
        <time>2024-07-28T12:23:14.655Z</time>
      </trkpt>
      <trkpt lat="54.24594" lon="15.9304">
        <ele>44.877007</ele>
        <time>2024-07-28T12:23:17.654Z</time>
      </trkpt>
      <trkpt lat="54.24595" lon="15.9305">
        <ele>44.584189</ele>
        <time>2024-07-28T12:23:30.227Z</time>
      </trkpt>
      <trkpt lat="54.24604" lon="15.93057">
        <ele>44.086188</ele>
        <time>2024-07-28T12:32:54.651Z</time>
      </trkpt>
      <trkpt lat="54.24609" lon="15.93073">
        <ele>43.561242</ele>
        <time>2024-07-28T12:32:58.645Z</time>
      </trkpt>
      <trkpt lat="54.24613" lon="15.9309">
        <ele>43.032452</ele>
        <time>2024-07-28T12:33:01.663Z</time>
      </trkpt>
      <trkpt lat="54.24618" lon="15.93106">
        <ele>42.48875</ele>
        <time>2024-07-28T12:33:05.661Z</time>
      </trkpt>
      <trkpt lat="54.24622" lon="15.93121">
        <ele>42.013109</ele>
        <time>2024-07-28T12:33:09.655Z</time>
      </trkpt>
      <trkpt lat="54.24624" lon="15.93136">
        <ele>41.560046</ele>
        <time>2024-07-28T12:33:13.637Z</time>
      </trkpt>
      <trkpt lat="54.24631" lon="15.93152">
        <ele>40.97878</ele>
        <time>2024-07-28T12:33:17.655Z</time>
      </trkpt>
      <trkpt lat="54.24636" lon="15.93165">
        <ele>40.526309</ele>
        <time>2024-07-28T12:33:20.654Z</time>
      </trkpt>
      <trkpt lat="54.24643" lon="15.93181">
        <ele>39.945987</ele>
        <time>2024-07-28T12:33:24.667Z</time>
      </trkpt>
      <trkpt lat="54.24648" lon="15.93194">
        <ele>39.723871</ele>
        <time>2024-07-28T12:33:27.669Z</time>
      </trkpt>
      <trkpt lat="54.24655" lon="15.93207">
        <ele>39.521934</ele>
        <time>2024-07-28T12:33:30.657Z</time>
      </trkpt>
      <trkpt lat="54.24659" lon="15.93221">
        <ele>39.334621</ele>
        <time>2024-07-28T12:33:33.644Z</time>
      </trkpt>
      <trkpt lat="54.24663" lon="15.93236">
        <ele>39.141504</ele>
        <time>2024-07-28T12:33:37.647Z</time>
      </trkpt>
      <trkpt lat="54.24669" lon="15.9325">
        <ele>38.943055</ele>
        <time>2024-07-28T12:33:40.648Z</time>
      </trkpt>
      <trkpt lat="54.24675" lon="15.9327">
        <ele>38.678791</ele>
        <time>2024-07-28T12:33:43.674Z</time>
      </trkpt>
      <trkpt lat="54.2468" lon="15.93284">
        <ele>38.486275</ele>
        <time>2024-07-28T12:33:45.660Z</time>
      </trkpt>
      <trkpt lat="54.24683" lon="15.933">
        <ele>38.282651</ele>
        <time>2024-07-28T12:33:47.660Z</time>
      </trkpt>
      <trkpt lat="54.24687" lon="15.93317">
        <ele>38.074343</ele>
        <time>2024-07-28T12:33:49.668Z</time>
      </trkpt>
      <trkpt lat="54.2469" lon="15.93333">
        <ele>37.876583</ele>
        <time>2024-07-28T12:33:51.675Z</time>
      </trkpt>
      <trkpt lat="54.24693" lon="15.93349">
        <ele>37.674548</ele>
        <time>2024-07-28T12:33:53.678Z</time>
      </trkpt>
      <trkpt lat="54.24695" lon="15.93366">
        <ele>37.479253</ele>
        <time>2024-07-28T12:33:55.638Z</time>
      </trkpt>
      <trkpt lat="54.24697" lon="15.93384">
        <ele>37.26593</ele>
        <time>2024-07-28T12:33:57.663Z</time>
      </trkpt>
      <trkpt lat="54.24698" lon="15.934">
        <ele>37.068384</ele>
        <time>2024-07-28T12:33:59.651Z</time>
      </trkpt>
      <trkpt lat="54.24699" lon="15.93418">
        <ele>36.862707</ele>
        <time>2024-07-28T12:34:01.658Z</time>
      </trkpt>
      <trkpt lat="54.247" lon="15.93435">
        <ele>36.664485</ele>
        <time>2024-07-28T12:34:03.646Z</time>
      </trkpt>
      <trkpt lat="54.247" lon="15.93451">
        <ele>36.467455</ele>
        <time>2024-07-28T12:34:05.657Z</time>
      </trkpt>
      <trkpt lat="54.24699" lon="15.93467">
        <ele>36.280391</ele>
        <time>2024-07-28T12:34:07.662Z</time>
      </trkpt>
      <trkpt lat="54.247" lon="15.93484">
        <ele>36.332646</ele>
        <time>2024-07-28T12:34:09.655Z</time>
      </trkpt>
      <trkpt lat="54.24701" lon="15.93501">
        <ele>36.387809</ele>
        <time>2024-07-28T12:34:11.638Z</time>
      </trkpt>
      <trkpt lat="54.247" lon="15.93518">
        <ele>36.442598</ele>
        <time>2024-07-28T12:34:13.648Z</time>
      </trkpt>
      <trkpt lat="54.247" lon="15.93535">
        <ele>36.496393</ele>
        <time>2024-07-28T12:34:15.651Z</time>
      </trkpt>
      <trkpt lat="54.24701" lon="15.93553">
        <ele>36.553473</ele>
        <time>2024-07-28T12:34:17.650Z</time>
      </trkpt>
      <trkpt lat="54.247" lon="15.9357">
        <ele>36.609203</ele>
        <time>2024-07-28T12:34:19.645Z</time>
      </trkpt>
      <trkpt lat="54.24701" lon="15.93586">
        <ele>36.661527</ele>
        <time>2024-07-28T12:34:21.658Z</time>
      </trkpt>
      <trkpt lat="54.24702" lon="15.93602">
        <ele>36.713305</ele>
        <time>2024-07-28T12:34:23.646Z</time>
      </trkpt>
      <trkpt lat="54.24703" lon="15.93623">
        <ele>36.779447</ele>
        <time>2024-07-28T12:34:26.654Z</time>
      </trkpt>
      <trkpt lat="54.24704" lon="15.93643">
        <ele>36.845542</ele>
        <time>2024-07-28T12:34:29.667Z</time>
      </trkpt>
      <trkpt lat="54.24706" lon="15.9366">
        <ele>36.898603</ele>
        <time>2024-07-28T12:34:33.667Z</time>
      </trkpt>
      <trkpt lat="54.24708" lon="15.93677">
        <ele>36.953806</ele>
        <time>2024-07-28T12:34:37.660Z</time>
      </trkpt>
      <trkpt lat="54.24709" lon="15.93697">
        <ele>37.018611</ele>
        <time>2024-07-28T12:34:41.652Z</time>
      </trkpt>
      <trkpt lat="54.2471" lon="15.93714">
        <ele>37.074066</ele>
        <time>2024-07-28T12:34:44.662Z</time>
      </trkpt>
      <trkpt lat="54.24712" lon="15.93733">
        <ele>37.135446</ele>
        <time>2024-07-28T12:34:47.650Z</time>
      </trkpt>
      <trkpt lat="54.24712" lon="15.93754">
        <ele>37.202679</ele>
        <time>2024-07-28T12:34:50.666Z</time>
      </trkpt>
      <trkpt lat="54.24713" lon="15.93774">
        <ele>37.267405</ele>
        <time>2024-07-28T12:34:53.663Z</time>
      </trkpt>
      <trkpt lat="54.24715" lon="15.93794">
        <ele>37.312726</ele>
        <time>2024-07-28T12:34:56.640Z</time>
      </trkpt>
      <trkpt lat="54.24716" lon="15.93812">
        <ele>37.355068</ele>
        <time>2024-07-28T12:34:59.662Z</time>
      </trkpt>
      <trkpt lat="54.24717" lon="15.9383">
        <ele>37.395308</ele>
        <time>2024-07-28T12:35:02.649Z</time>
      </trkpt>
      <trkpt lat="54.24719" lon="15.93848">
        <ele>37.438391</ele>
        <time>2024-07-28T12:35:05.657Z</time>
      </trkpt>
      <trkpt lat="54.24721" lon="15.93865">
        <ele>37.478381</ele>
        <time>2024-07-28T12:35:08.666Z</time>
      </trkpt>
      <trkpt lat="54.24722" lon="15.93883">
        <ele>37.521029</ele>
        <time>2024-07-28T12:35:11.666Z</time>
      </trkpt>
      <trkpt lat="54.24724" lon="15.93904">
        <ele>37.568075</ele>
        <time>2024-07-28T12:35:14.668Z</time>
      </trkpt>
      <trkpt lat="54.24725" lon="15.93924">
        <ele>37.615398</ele>
        <time>2024-07-28T12:35:17.652Z</time>
      </trkpt>
      <trkpt lat="54.24727" lon="15.93943">
        <ele>37.659981</ele>
        <time>2024-07-28T12:35:20.660Z</time>
      </trkpt>
      <trkpt lat="54.2473" lon="15.93962">
        <ele>37.705602</ele>
        <time>2024-07-28T12:35:23.662Z</time>
      </trkpt>
      <trkpt lat="54.24733" lon="15.93983">
        <ele>37.753744</ele>
        <time>2024-07-28T12:35:26.647Z</time>
      </trkpt>
      <trkpt lat="54.24736" lon="15.93999">
        <ele>37.794194</ele>
        <time>2024-07-28T12:35:29.646Z</time>
      </trkpt>
      <trkpt lat="54.24738" lon="15.94017">
        <ele>37.835387</ele>
        <time>2024-07-28T12:35:32.654Z</time>
      </trkpt>
      <trkpt lat="54.24738" lon="15.94037">
        <ele>37.880744</ele>
        <time>2024-07-28T12:35:35.666Z</time>
      </trkpt>
      <trkpt lat="54.24739" lon="15.94056">
        <ele>37.926146</ele>
        <time>2024-07-28T12:35:38.656Z</time>
      </trkpt>
      <trkpt lat="54.24741" lon="15.94076">
        <ele>37.972687</ele>
        <time>2024-07-28T12:35:41.660Z</time>
      </trkpt>
      <trkpt lat="54.24744" lon="15.94095">
        <ele>37.940188</ele>
        <time>2024-07-28T12:35:44.653Z</time>
      </trkpt>
      <trkpt lat="54.24747" lon="15.94113">
        <ele>37.906959</ele>
        <time>2024-07-28T12:35:47.653Z</time>
      </trkpt>
      <trkpt lat="54.24747" lon="15.94133">
        <ele>37.870337</ele>
        <time>2024-07-28T12:35:50.636Z</time>
      </trkpt>
      <trkpt lat="54.24748" lon="15.94155">
        <ele>37.831201</ele>
        <time>2024-07-28T12:35:53.653Z</time>
      </trkpt>
      <trkpt lat="54.24749" lon="15.94175">
        <ele>37.795097</ele>
        <time>2024-07-28T12:35:56.673Z</time>
      </trkpt>
      <trkpt lat="54.2475" lon="15.94192">
        <ele>37.763573</ele>
        <time>2024-07-28T12:35:59.651Z</time>
      </trkpt>
      <trkpt lat="54.24751" lon="15.94212">
        <ele>37.728431</ele>
        <time>2024-07-28T12:36:02.655Z</time>
      </trkpt>
      <trkpt lat="54.2475" lon="15.9423">
        <ele>37.696104</ele>
        <time>2024-07-28T12:36:05.644Z</time>
      </trkpt>
      <trkpt lat="54.24747" lon="15.94247">
        <ele>37.663567</ele>
        <time>2024-07-28T12:36:08.648Z</time>
      </trkpt>
      <trkpt lat="54.24742" lon="15.94264">
        <ele>37.629271</ele>
        <time>2024-07-28T12:36:11.643Z</time>
      </trkpt>
      <trkpt lat="54.24738" lon="15.94279">
        <ele>37.597926</ele>
        <time>2024-07-28T12:36:14.665Z</time>
      </trkpt>
      <trkpt lat="54.24737" lon="15.94295">
        <ele>37.569303</ele>
        <time>2024-07-28T12:36:17.652Z</time>
      </trkpt>
      <trkpt lat="54.24734" lon="15.94312">
        <ele>37.537314</ele>
        <time>2024-07-28T12:36:20.671Z</time>
      </trkpt>
      <trkpt lat="54.24733" lon="15.94331">
        <ele>37.50337</ele>
        <time>2024-07-28T12:36:23.658Z</time>
      </trkpt>
      <trkpt lat="54.24731" lon="15.94353">
        <ele>37.462781</ele>
        <time>2024-07-28T12:36:26.652Z</time>
      </trkpt>
      <trkpt lat="54.2473" lon="15.9437">
        <ele>37.432952</ele>
        <time>2024-07-28T12:36:28.674Z</time>
      </trkpt>
      <trkpt lat="54.24733" lon="15.94388">
        <ele>37.284625</ele>
        <time>2024-07-28T12:36:30.673Z</time>
      </trkpt>
      <trkpt lat="54.24736" lon="15.94408">
        <ele>37.025275</ele>
        <time>2024-07-28T12:36:32.655Z</time>
      </trkpt>
      <trkpt lat="54.24738" lon="15.94427">
        <ele>36.770843</ele>
        <time>2024-07-28T12:36:34.654Z</time>
      </trkpt>
      <trkpt lat="54.2474" lon="15.94447">
        <ele>36.517581</ele>
        <time>2024-07-28T12:36:36.644Z</time>
      </trkpt>
      <trkpt lat="54.24743" lon="15.94468">
        <ele>36.245328</ele>
        <time>2024-07-28T12:36:38.654Z</time>
      </trkpt>
      <trkpt lat="54.24746" lon="15.94488">
        <ele>35.98911</ele>
        <time>2024-07-28T12:36:40.669Z</time>
      </trkpt>
      <trkpt lat="54.24752" lon="15.94507">
        <ele>35.721916</ele>
        <time>2024-07-28T12:36:42.677Z</time>
      </trkpt>
      <trkpt lat="54.24757" lon="15.94526">
        <ele>35.462715</ele>
        <time>2024-07-28T12:36:44.659Z</time>
      </trkpt>
      <trkpt lat="54.24762" lon="15.94545">
        <ele>35.196208</ele>
        <time>2024-07-28T12:36:46.656Z</time>
      </trkpt>
      <trkpt lat="54.24766" lon="15.94564">
        <ele>34.9438</ele>
        <time>2024-07-28T12:36:48.660Z</time>
      </trkpt>
      <trkpt lat="54.24771" lon="15.94583">
        <ele>34.686299</ele>
        <time>2024-07-28T12:36:50.655Z</time>
      </trkpt>
      <trkpt lat="54.24774" lon="15.94602">
        <ele>34.431312</ele>
        <time>2024-07-28T12:36:52.665Z</time>
      </trkpt>
      <trkpt lat="54.24777" lon="15.9462">
        <ele>34.202736</ele>
        <time>2024-07-28T12:36:54.667Z</time>
      </trkpt>
      <trkpt lat="54.2478" lon="15.94637">
        <ele>33.980255</ele>
        <time>2024-07-28T12:36:56.642Z</time>
      </trkpt>
      <trkpt lat="54.24782" lon="15.94653">
        <ele>33.765977</ele>
        <time>2024-07-28T12:36:58.667Z</time>
      </trkpt>
      <trkpt lat="54.24784" lon="15.94669">
        <ele>33.562558</ele>
        <time>2024-07-28T12:37:00.657Z</time>
      </trkpt>
      <trkpt lat="54.24787" lon="15.94692">
        <ele>33.600523</ele>
        <time>2024-07-28T12:37:03.657Z</time>
      </trkpt>
      <trkpt lat="54.2479" lon="15.94715">
        <ele>33.65021</ele>
        <time>2024-07-28T12:37:06.663Z</time>
      </trkpt>
      <trkpt lat="54.24793" lon="15.94735">
        <ele>33.695975</ele>
        <time>2024-07-28T12:37:09.659Z</time>
      </trkpt>
      <trkpt lat="54.24797" lon="15.94756">
        <ele>33.742255</ele>
        <time>2024-07-28T12:37:12.660Z</time>
      </trkpt>
      <trkpt lat="54.24801" lon="15.94778">
        <ele>33.791418</ele>
        <time>2024-07-28T12:37:15.671Z</time>
      </trkpt>
      <trkpt lat="54.24805" lon="15.94793">
        <ele>33.825808</ele>
        <time>2024-07-28T12:37:17.659Z</time>
      </trkpt>
      <trkpt lat="54.2481" lon="15.94808">
        <ele>33.8632</ele>
        <time>2024-07-28T12:37:19.652Z</time>
      </trkpt>
      <trkpt lat="54.24815" lon="15.94823">
        <ele>33.901143</ele>
        <time>2024-07-28T12:37:21.654Z</time>
      </trkpt>
      <trkpt lat="54.24821" lon="15.94839">
        <ele>33.940387</ele>
        <time>2024-07-28T12:37:23.649Z</time>
      </trkpt>
      <trkpt lat="54.24826" lon="15.94855">
        <ele>33.978917</ele>
        <time>2024-07-28T12:37:25.632Z</time>
      </trkpt>
      <trkpt lat="54.24831" lon="15.94872">
        <ele>34.019189</ele>
        <time>2024-07-28T12:37:27.657Z</time>
      </trkpt>
      <trkpt lat="54.24835" lon="15.94888">
        <ele>34.057958</ele>
        <time>2024-07-28T12:37:29.654Z</time>
      </trkpt>
      <trkpt lat="54.2484" lon="15.94905">
        <ele>34.097032</ele>
        <time>2024-07-28T12:37:31.648Z</time>
      </trkpt>
      <trkpt lat="54.24844" lon="15.94921">
        <ele>34.134208</ele>
        <time>2024-07-28T12:37:33.658Z</time>
      </trkpt>
      <trkpt lat="54.24847" lon="15.94938">
        <ele>34.172698</ele>
        <time>2024-07-28T12:37:35.652Z</time>
      </trkpt>
      <trkpt lat="54.24851" lon="15.94958">
        <ele>34.228856</ele>
        <time>2024-07-28T12:37:38.653Z</time>
      </trkpt>
      <trkpt lat="54.24855" lon="15.94977">
        <ele>34.317818</ele>
        <time>2024-07-28T12:37:41.647Z</time>
      </trkpt>
      <trkpt lat="54.24857" lon="15.94998">
        <ele>34.410965</ele>
        <time>2024-07-28T12:37:44.652Z</time>
      </trkpt>
      <trkpt lat="54.24857" lon="15.95019">
        <ele>34.507766</ele>
        <time>2024-07-28T12:37:47.648Z</time>
      </trkpt>
      <trkpt lat="54.2486" lon="15.95041">
        <ele>34.608631</ele>
        <time>2024-07-28T12:37:50.664Z</time>
      </trkpt>
      <trkpt lat="54.24863" lon="15.95064">
        <ele>34.711997</ele>
        <time>2024-07-28T12:37:53.654Z</time>
      </trkpt>
      <trkpt lat="54.24865" lon="15.95084">
        <ele>34.803442</ele>
        <time>2024-07-28T12:37:56.663Z</time>
      </trkpt>
      <trkpt lat="54.24866" lon="15.95106">
        <ele>34.903041</ele>
        <time>2024-07-28T12:37:59.674Z</time>
      </trkpt>
      <trkpt lat="54.24868" lon="15.95121">
        <ele>34.974712</ele>
        <time>2024-07-28T12:38:01.661Z</time>
      </trkpt>
      <trkpt lat="54.2487" lon="15.95137">
        <ele>35.045879</ele>
        <time>2024-07-28T12:38:03.652Z</time>
      </trkpt>
      <trkpt lat="54.24871" lon="15.95152">
        <ele>35.115349</ele>
        <time>2024-07-28T12:38:05.673Z</time>
      </trkpt>
      <trkpt lat="54.24872" lon="15.95168">
        <ele>35.186599</ele>
        <time>2024-07-28T12:38:07.655Z</time>
      </trkpt>
      <trkpt lat="54.24874" lon="15.9519">
        <ele>35.287648</ele>
        <time>2024-07-28T12:38:10.646Z</time>
      </trkpt>
      <trkpt lat="54.24874" lon="15.95207">
        <ele>35.361791</ele>
        <time>2024-07-28T12:38:12.673Z</time>
      </trkpt>
      <trkpt lat="54.24874" lon="15.95222">
        <ele>35.431004</ele>
        <time>2024-07-28T12:38:14.660Z</time>
      </trkpt>
      <trkpt lat="54.24875" lon="15.95243">
        <ele>35.524992</ele>
        <time>2024-07-28T12:38:17.649Z</time>
      </trkpt>
      <trkpt lat="54.24874" lon="15.95265">
        <ele>35.55991</ele>
        <time>2024-07-28T12:38:20.661Z</time>
      </trkpt>
      <trkpt lat="54.24874" lon="15.95281">
        <ele>35.482374</ele>
        <time>2024-07-28T12:38:22.649Z</time>
      </trkpt>
      <trkpt lat="54.24873" lon="15.95301">
        <ele>35.392163</ele>
        <time>2024-07-28T12:38:24.639Z</time>
      </trkpt>
      <trkpt lat="54.24873" lon="15.95321">
        <ele>35.296777</ele>
        <time>2024-07-28T12:38:26.649Z</time>
      </trkpt>
      <trkpt lat="54.24872" lon="15.9534">
        <ele>35.204423</ele>
        <time>2024-07-28T12:38:28.654Z</time>
      </trkpt>
      <trkpt lat="54.24872" lon="15.95359">
        <ele>35.113715</ele>
        <time>2024-07-28T12:38:30.661Z</time>
      </trkpt>
      <trkpt lat="54.24872" lon="15.95379">
        <ele>35.020231</ele>
        <time>2024-07-28T12:38:32.661Z</time>
      </trkpt>
      <trkpt lat="54.24873" lon="15.95399">
        <ele>34.924282</ele>
        <time>2024-07-28T12:38:34.666Z</time>
      </trkpt>
      <trkpt lat="54.24876" lon="15.95419">
        <ele>34.828412</ele>
        <time>2024-07-28T12:38:36.649Z</time>
      </trkpt>
      <trkpt lat="54.24882" lon="15.95438">
        <ele>34.7292</ele>
        <time>2024-07-28T12:38:38.652Z</time>
      </trkpt>
      <trkpt lat="54.24888" lon="15.95457">
        <ele>34.62723</ele>
        <time>2024-07-28T12:38:40.665Z</time>
      </trkpt>
      <trkpt lat="54.24892" lon="15.95477">
        <ele>34.527213</ele>
        <time>2024-07-28T12:38:42.662Z</time>
      </trkpt>
      <trkpt lat="54.24893" lon="15.95495">
        <ele>34.438319</ele>
        <time>2024-07-28T12:38:44.652Z</time>
      </trkpt>
      <trkpt lat="54.24893" lon="15.95513">
        <ele>34.353238</ele>
        <time>2024-07-28T12:38:46.634Z</time>
      </trkpt>
      <trkpt lat="54.24893" lon="15.95531">
        <ele>34.26825</ele>
        <time>2024-07-28T12:38:48.654Z</time>
      </trkpt>
      <trkpt lat="54.24894" lon="15.95549">
        <ele>34.182606</ele>
        <time>2024-07-28T12:38:50.685Z</time>
      </trkpt>
      <trkpt lat="54.24895" lon="15.95567">
        <ele>34.198639</ele>
        <time>2024-07-28T12:38:52.656Z</time>
      </trkpt>
      <trkpt lat="54.24895" lon="15.95585">
        <ele>34.329795</ele>
        <time>2024-07-28T12:38:54.673Z</time>
      </trkpt>
      <trkpt lat="54.24895" lon="15.95601">
        <ele>34.442976</ele>
        <time>2024-07-28T12:38:56.661Z</time>
      </trkpt>
      <trkpt lat="54.24896" lon="15.95617">
        <ele>34.562739</ele>
        <time>2024-07-28T12:38:58.658Z</time>
      </trkpt>
      <trkpt lat="54.24896" lon="15.95633">
        <ele>34.676747</ele>
        <time>2024-07-28T12:39:00.661Z</time>
      </trkpt>
      <trkpt lat="54.24896" lon="15.95649">
        <ele>34.789153</ele>
        <time>2024-07-28T12:39:02.661Z</time>
      </trkpt>
      <trkpt lat="54.24896" lon="15.95666">
        <ele>34.913087</ele>
        <time>2024-07-28T12:39:04.676Z</time>
      </trkpt>
      <trkpt lat="54.24896" lon="15.95683">
        <ele>35.037741</ele>
        <time>2024-07-28T12:39:06.658Z</time>
      </trkpt>
      <trkpt lat="54.24897" lon="15.95702">
        <ele>35.172119</ele>
        <time>2024-07-28T12:39:08.656Z</time>
      </trkpt>
      <trkpt lat="54.24898" lon="15.95721">
        <ele>35.307849</ele>
        <time>2024-07-28T12:39:10.665Z</time>
      </trkpt>
      <trkpt lat="54.24899" lon="15.9574">
        <ele>35.446736</ele>
        <time>2024-07-28T12:39:12.661Z</time>
      </trkpt>
      <trkpt lat="54.24899" lon="15.95759">
        <ele>35.58809</ele>
        <time>2024-07-28T12:39:14.652Z</time>
      </trkpt>
      <trkpt lat="54.249" lon="15.9578">
        <ele>35.736561</ele>
        <time>2024-07-28T12:39:16.649Z</time>
      </trkpt>
      <trkpt lat="54.24901" lon="15.95799">
        <ele>35.877903</ele>
        <time>2024-07-28T12:39:18.656Z</time>
      </trkpt>
      <trkpt lat="54.24906" lon="15.95817">
        <ele>36.01355</ele>
        <time>2024-07-28T12:39:20.655Z</time>
      </trkpt>
      <trkpt lat="54.24912" lon="15.95832">
        <ele>36.145349</ele>
        <time>2024-07-28T12:39:22.671Z</time>
      </trkpt>
      <trkpt lat="54.24918" lon="15.95845">
        <ele>36.265936</ele>
        <time>2024-07-28T12:39:24.659Z</time>
      </trkpt>
      <trkpt lat="54.24925" lon="15.95856">
        <ele>36.378396</ele>
        <time>2024-07-28T12:39:26.651Z</time>
      </trkpt>
      <trkpt lat="54.24931" lon="15.95868">
        <ele>36.463446</ele>
        <time>2024-07-28T12:39:28.655Z</time>
      </trkpt>
      <trkpt lat="54.24935" lon="15.95889">
        <ele>36.582288</ele>
        <time>2024-07-28T12:39:31.645Z</time>
      </trkpt>
      <trkpt lat="54.24933" lon="15.95912">
        <ele>36.702314</ele>
        <time>2024-07-28T12:39:34.657Z</time>
      </trkpt>
      <trkpt lat="54.24928" lon="15.9593">
        <ele>36.812299</ele>
        <time>2024-07-28T12:39:37.641Z</time>
      </trkpt>
      <trkpt lat="54.24921" lon="15.95948">
        <ele>36.929255</ele>
        <time>2024-07-28T12:39:40.684Z</time>
      </trkpt>
      <trkpt lat="54.24914" lon="15.95967">
        <ele>37.047451</ele>
        <time>2024-07-28T12:39:43.655Z</time>
      </trkpt>
      <trkpt lat="54.24908" lon="15.95988">
        <ele>37.173983</ele>
        <time>2024-07-28T12:39:46.661Z</time>
      </trkpt>
      <trkpt lat="54.24903" lon="15.96004">
        <ele>37.269567</ele>
        <time>2024-07-28T12:39:48.644Z</time>
      </trkpt>
      <trkpt lat="54.24897" lon="15.96019">
        <ele>37.365602</ele>
        <time>2024-07-28T12:39:50.652Z</time>
      </trkpt>
      <trkpt lat="54.24893" lon="15.96036">
        <ele>37.46457</ele>
        <time>2024-07-28T12:39:52.656Z</time>
      </trkpt>
      <trkpt lat="54.24888" lon="15.9605">
        <ele>37.553682</ele>
        <time>2024-07-28T12:39:54.682Z</time>
      </trkpt>
      <trkpt lat="54.24883" lon="15.96066">
        <ele>37.646709</ele>
        <time>2024-07-28T12:39:56.667Z</time>
      </trkpt>
      <trkpt lat="54.2488" lon="15.96082">
        <ele>37.739757</ele>
        <time>2024-07-28T12:39:58.660Z</time>
      </trkpt>
      <trkpt lat="54.24877" lon="15.96098">
        <ele>37.828877</ele>
        <time>2024-07-28T12:40:00.655Z</time>
      </trkpt>
      <trkpt lat="54.24874" lon="15.96113">
        <ele>37.913147</ele>
        <time>2024-07-28T12:40:02.644Z</time>
      </trkpt>
      <trkpt lat="54.2487" lon="15.96129">
        <ele>38.002363</ele>
        <time>2024-07-28T12:40:04.665Z</time>
      </trkpt>
      <trkpt lat="54.24866" lon="15.96145">
        <ele>38.000569</ele>
        <time>2024-07-28T12:40:06.666Z</time>
      </trkpt>
      <trkpt lat="54.24862" lon="15.9616">
        <ele>37.997839</ele>
        <time>2024-07-28T12:40:08.655Z</time>
      </trkpt>
      <trkpt lat="54.24856" lon="15.96176">
        <ele>37.994726</ele>
        <time>2024-07-28T12:40:12.659Z</time>
      </trkpt>
      <trkpt lat="54.24863" lon="15.96167">
        <ele>37.992227</ele>
        <time>2024-07-28T12:40:29.658Z</time>
      </trkpt>
      <trkpt lat="54.24869" lon="15.96151">
        <ele>37.989199</ele>
        <time>2024-07-28T12:40:33.676Z</time>
      </trkpt>
      <trkpt lat="54.24881" lon="15.96153">
        <ele>37.985935</ele>
        <time>2024-07-28T12:40:37.652Z</time>
      </trkpt>
      <trkpt lat="54.24889" lon="15.96157">
        <ele>37.983387</ele>
        <time>2024-07-28T12:40:40.659Z</time>
      </trkpt>
      <trkpt lat="54.24899" lon="15.96161">
        <ele>37.980696</ele>
        <time>2024-07-28T12:40:43.651Z</time>
      </trkpt>
      <trkpt lat="54.24904" lon="15.96175">
        <ele>37.977984</ele>
        <time>2024-07-28T12:40:46.657Z</time>
      </trkpt>
      <trkpt lat="54.24903" lon="15.96191">
        <ele>37.975461</ele>
        <time>2024-07-28T12:40:48.643Z</time>
      </trkpt>
      <trkpt lat="54.24902" lon="15.96211">
        <ele>37.97206</ele>
        <time>2024-07-28T12:40:51.643Z</time>
      </trkpt>
      <trkpt lat="54.24902" lon="15.96233">
        <ele>37.968489</ele>
        <time>2024-07-28T12:40:54.674Z</time>
      </trkpt>
      <trkpt lat="54.24901" lon="15.96249">
        <ele>37.965918</ele>
        <time>2024-07-28T12:40:56.651Z</time>
      </trkpt>
      <trkpt lat="54.24901" lon="15.96272">
        <ele>37.962264</ele>
        <time>2024-07-28T12:40:59.673Z</time>
      </trkpt>
      <trkpt lat="54.249" lon="15.96294">
        <ele>37.958607</ele>
        <time>2024-07-28T12:41:02.656Z</time>
      </trkpt>
      <trkpt lat="54.249" lon="15.96317">
        <ele>37.954971</ele>
        <time>2024-07-28T12:41:05.656Z</time>
      </trkpt>
      <trkpt lat="54.24903" lon="15.9634">
        <ele>37.879891</ele>
        <time>2024-07-28T12:41:08.659Z</time>
      </trkpt>
      <trkpt lat="54.24908" lon="15.96355">
        <ele>37.788299</ele>
        <time>2024-07-28T12:41:10.653Z</time>
      </trkpt>
      <trkpt lat="54.24914" lon="15.96367">
        <ele>37.706825</ele>
        <time>2024-07-28T12:41:12.654Z</time>
      </trkpt>
      <trkpt lat="54.24919" lon="15.96381">
        <ele>37.620145</ele>
        <time>2024-07-28T12:41:14.653Z</time>
      </trkpt>
      <trkpt lat="54.24924" lon="15.96396">
        <ele>37.533065</ele>
        <time>2024-07-28T12:41:16.649Z</time>
      </trkpt>
      <trkpt lat="54.24929" lon="15.9641">
        <ele>37.447321</ele>
        <time>2024-07-28T12:41:18.659Z</time>
      </trkpt>
      <trkpt lat="54.24933" lon="15.96425">
        <ele>37.36093</ele>
        <time>2024-07-28T12:41:20.681Z</time>
      </trkpt>
      <trkpt lat="54.24936" lon="15.9644">
        <ele>37.277844</ele>
        <time>2024-07-28T12:41:22.657Z</time>
      </trkpt>
      <trkpt lat="54.24937" lon="15.96455">
        <ele>37.197708</ele>
        <time>2024-07-28T12:41:24.660Z</time>
      </trkpt>
      <trkpt lat="54.24938" lon="15.96478">
        <ele>37.07806</ele>
        <time>2024-07-28T12:41:27.661Z</time>
      </trkpt>
      <trkpt lat="54.2494" lon="15.96495">
        <ele>36.991599</ele>
        <time>2024-07-28T12:41:29.660Z</time>
      </trkpt>
      <trkpt lat="54.24942" lon="15.96516">
        <ele>36.876504</ele>
        <time>2024-07-28T12:41:32.664Z</time>
      </trkpt>
      <trkpt lat="54.24943" lon="15.96537">
        <ele>36.766523</ele>
        <time>2024-07-28T12:41:35.654Z</time>
      </trkpt>
      <trkpt lat="54.24945" lon="15.9656">
        <ele>36.650538</ele>
        <time>2024-07-28T12:41:38.661Z</time>
      </trkpt>
      <trkpt lat="54.24946" lon="15.96582">
        <ele>36.533604</ele>
        <time>2024-07-28T12:41:41.669Z</time>
      </trkpt>
      <trkpt lat="54.24946" lon="15.96598">
        <ele>36.453027</ele>
        <time>2024-07-28T12:41:43.655Z</time>
      </trkpt>
      <trkpt lat="54.24944" lon="15.96619">
        <ele>36.359029</ele>
        <time>2024-07-28T12:41:46.656Z</time>
      </trkpt>
      <trkpt lat="54.24942" lon="15.96642">
        <ele>36.405606</ele>
        <time>2024-07-28T12:41:49.672Z</time>
      </trkpt>
      <trkpt lat="54.24941" lon="15.96664">
        <ele>36.452423</ele>
        <time>2024-07-28T12:41:52.663Z</time>
      </trkpt>
      <trkpt lat="54.24939" lon="15.96684">
        <ele>36.494997</ele>
        <time>2024-07-28T12:41:55.630Z</time>
      </trkpt>
      <trkpt lat="54.24938" lon="15.96703">
        <ele>36.533473</ele>
        <time>2024-07-28T12:41:58.674Z</time>
      </trkpt>
      <trkpt lat="54.24937" lon="15.96721">
        <ele>36.571462</ele>
        <time>2024-07-28T12:42:01.654Z</time>
      </trkpt>
      <trkpt lat="54.24937" lon="15.96741">
        <ele>36.612458</ele>
        <time>2024-07-28T12:42:04.657Z</time>
      </trkpt>
      <trkpt lat="54.24937" lon="15.96763">
        <ele>36.659861</ele>
        <time>2024-07-28T12:42:07.638Z</time>
      </trkpt>
      <trkpt lat="54.24937" lon="15.9678">
        <ele>36.693765</ele>
        <time>2024-07-28T12:42:09.646Z</time>
      </trkpt>
      <trkpt lat="54.24938" lon="15.96798">
        <ele>36.731101</ele>
        <time>2024-07-28T12:42:11.642Z</time>
      </trkpt>
      <trkpt lat="54.24938" lon="15.96815">
        <ele>36.767324</ele>
        <time>2024-07-28T12:42:13.653Z</time>
      </trkpt>
      <trkpt lat="54.24938" lon="15.96834">
        <ele>36.806187</ele>
        <time>2024-07-28T12:42:15.637Z</time>
      </trkpt>
      <trkpt lat="54.24939" lon="15.96853">
        <ele>36.845866</ele>
        <time>2024-07-28T12:42:17.654Z</time>
      </trkpt>
      <trkpt lat="54.2494" lon="15.96872">
        <ele>36.886633</ele>
        <time>2024-07-28T12:42:19.650Z</time>
      </trkpt>
      <trkpt lat="54.24942" lon="15.96891">
        <ele>36.926141</ele>
        <time>2024-07-28T12:42:21.651Z</time>
      </trkpt>
      <trkpt lat="54.24943" lon="15.96911">
        <ele>36.967828</ele>
        <time>2024-07-28T12:42:23.656Z</time>
      </trkpt>
      <trkpt lat="54.24944" lon="15.96931">
        <ele>37.03246</ele>
        <time>2024-07-28T12:42:25.667Z</time>
      </trkpt>
      <trkpt lat="54.24946" lon="15.9695">
        <ele>37.13222</ele>
        <time>2024-07-28T12:42:27.658Z</time>
      </trkpt>
      <trkpt lat="54.24948" lon="15.9697">
        <ele>37.236607</ele>
        <time>2024-07-28T12:42:29.656Z</time>
      </trkpt>
      <trkpt lat="54.24951" lon="15.96989">
        <ele>37.334853</ele>
        <time>2024-07-28T12:42:31.644Z</time>
      </trkpt>
      <trkpt lat="54.24953" lon="15.97008">
        <ele>37.435697</ele>
        <time>2024-07-28T12:42:33.650Z</time>
      </trkpt>
      <trkpt lat="54.24956" lon="15.97026">
        <ele>37.527477</ele>
        <time>2024-07-28T12:42:35.660Z</time>
      </trkpt>
      <trkpt lat="54.24958" lon="15.97043">
        <ele>37.617702</ele>
        <time>2024-07-28T12:42:37.670Z</time>
      </trkpt>
      <trkpt lat="54.24959" lon="15.97062">
        <ele>37.716316</ele>
        <time>2024-07-28T12:42:39.653Z</time>
      </trkpt>
      <trkpt lat="54.2496" lon="15.97081">
        <ele>37.813078</ele>
        <time>2024-07-28T12:42:41.665Z</time>
      </trkpt>
      <trkpt lat="54.24961" lon="15.97099">
        <ele>37.905271</ele>
        <time>2024-07-28T12:42:43.662Z</time>
      </trkpt>
      <trkpt lat="54.24961" lon="15.97118">
        <ele>37.997382</ele>
        <time>2024-07-28T12:42:45.654Z</time>
      </trkpt>
      <trkpt lat="54.24961" lon="15.97134">
        <ele>38.07926</ele>
        <time>2024-07-28T12:42:47.671Z</time>
      </trkpt>
      <trkpt lat="54.24961" lon="15.97152">
        <ele>38.171342</ele>
        <time>2024-07-28T12:42:49.660Z</time>
      </trkpt>
      <trkpt lat="54.24961" lon="15.97169">
        <ele>38.257285</ele>
        <time>2024-07-28T12:42:51.667Z</time>
      </trkpt>
      <trkpt lat="54.24961" lon="15.97186">
        <ele>38.347447</ele>
        <time>2024-07-28T12:42:53.653Z</time>
      </trkpt>
      <trkpt lat="54.24961" lon="15.97204">
        <ele>38.438999</ele>
        <time>2024-07-28T12:42:55.657Z</time>
      </trkpt>
      <trkpt lat="54.24961" lon="15.97221">
        <ele>38.523434</ele>
        <time>2024-07-28T12:42:57.661Z</time>
      </trkpt>
      <trkpt lat="54.2496" lon="15.97238">
        <ele>38.571401</ele>
        <time>2024-07-28T12:42:59.649Z</time>
      </trkpt>
      <trkpt lat="54.2496" lon="15.97254">
        <ele>38.593321</ele>
        <time>2024-07-28T12:43:01.654Z</time>
      </trkpt>
      <trkpt lat="54.24963" lon="15.97271">
        <ele>38.615389</ele>
        <time>2024-07-28T12:43:03.643Z</time>
      </trkpt>
      <trkpt lat="54.24965" lon="15.97289">
        <ele>38.640015</ele>
        <time>2024-07-28T12:43:05.657Z</time>
      </trkpt>
      <trkpt lat="54.24967" lon="15.97306">
        <ele>38.663021</ele>
        <time>2024-07-28T12:43:07.648Z</time>
      </trkpt>
      <trkpt lat="54.2497" lon="15.97323">
        <ele>38.686892</ele>
        <time>2024-07-28T12:43:09.638Z</time>
      </trkpt>
      <trkpt lat="54.24974" lon="15.9734">
        <ele>38.709567</ele>
        <time>2024-07-28T12:43:11.660Z</time>
      </trkpt>
      <trkpt lat="54.24977" lon="15.97361">
        <ele>38.738101</ele>
        <time>2024-07-28T12:43:14.656Z</time>
      </trkpt>
      <trkpt lat="54.24982" lon="15.97381">
        <ele>38.767049</ele>
        <time>2024-07-28T12:43:17.646Z</time>
      </trkpt>
      <trkpt lat="54.24988" lon="15.97401">
        <ele>38.796942</ele>
        <time>2024-07-28T12:43:20.655Z</time>
      </trkpt>
      <trkpt lat="54.24994" lon="15.97423">
        <ele>38.827856</ele>
        <time>2024-07-28T12:43:23.656Z</time>
      </trkpt>
      <trkpt lat="54.24997" lon="15.97437">
        <ele>38.848552</ele>
        <time>2024-07-28T12:43:25.662Z</time>
      </trkpt>
      <trkpt lat="54.24999" lon="15.97459">
        <ele>38.877848</ele>
        <time>2024-07-28T12:43:28.674Z</time>
      </trkpt>
      <trkpt lat="54.25" lon="15.97476">
        <ele>38.900073</ele>
        <time>2024-07-28T12:43:30.654Z</time>
      </trkpt>
      <trkpt lat="54.25002" lon="15.97492">
        <ele>38.921491</ele>
        <time>2024-07-28T12:43:32.654Z</time>
      </trkpt>
      <trkpt lat="54.25003" lon="15.97508">
        <ele>38.941707</ele>
        <time>2024-07-28T12:43:34.659Z</time>
      </trkpt>
      <trkpt lat="54.25005" lon="15.97524">
        <ele>38.958668</ele>
        <time>2024-07-28T12:43:36.634Z</time>
      </trkpt>
      <trkpt lat="54.25008" lon="15.97545">
        <ele>38.845241</ele>
        <time>2024-07-28T12:43:39.645Z</time>
      </trkpt>
      <trkpt lat="54.2501" lon="15.97561">
        <ele>38.763401</ele>
        <time>2024-07-28T12:43:41.676Z</time>
      </trkpt>
      <trkpt lat="54.25013" lon="15.97581">
        <ele>38.657819</ele>
        <time>2024-07-28T12:43:44.632Z</time>
      </trkpt>
      <trkpt lat="54.25015" lon="15.97599">
        <ele>38.561873</ele>
        <time>2024-07-28T12:43:47.682Z</time>
      </trkpt>
      <trkpt lat="54.25017" lon="15.97618">
        <ele>38.463738</ele>
        <time>2024-07-28T12:43:50.672Z</time>
      </trkpt>
      <trkpt lat="54.2502" lon="15.97636">
        <ele>38.368518</ele>
        <time>2024-07-28T12:43:53.656Z</time>
      </trkpt>
      <trkpt lat="54.25022" lon="15.97655">
        <ele>38.268904</ele>
        <time>2024-07-28T12:43:56.648Z</time>
      </trkpt>
      <trkpt lat="54.25023" lon="15.97673">
        <ele>38.181421</ele>
        <time>2024-07-28T12:43:59.653Z</time>
      </trkpt>
      <trkpt lat="54.25023" lon="15.97692">
        <ele>38.083508</ele>
        <time>2024-07-28T12:44:02.660Z</time>
      </trkpt>
      <trkpt lat="54.25024" lon="15.97712">
        <ele>37.980471</ele>
        <time>2024-07-28T12:44:05.659Z</time>
      </trkpt>
      <trkpt lat="54.25027" lon="15.97732">
        <ele>37.875791</ele>
        <time>2024-07-28T12:44:08.628Z</time>
      </trkpt>
      <trkpt lat="54.2503" lon="15.97752">
        <ele>37.771607</ele>
        <time>2024-07-28T12:44:11.648Z</time>
      </trkpt>
      <trkpt lat="54.25033" lon="15.97767">
        <ele>37.689987</ele>
        <time>2024-07-28T12:44:14.646Z</time>
      </trkpt>
      <trkpt lat="54.25036" lon="15.97786">
        <ele>37.584946</ele>
        <time>2024-07-28T12:44:18.652Z</time>
      </trkpt>
      <trkpt lat="54.25044" lon="15.97803">
        <ele>37.474173</ele>
        <time>2024-07-28T12:44:21.639Z</time>
      </trkpt>
      <trkpt lat="54.25051" lon="15.97814">
        <ele>37.395906</ele>
        <time>2024-07-28T12:44:23.641Z</time>
      </trkpt>
      <trkpt lat="54.25059" lon="15.97825">
        <ele>37.223801</ele>
        <time>2024-07-28T12:44:25.663Z</time>
      </trkpt>
      <trkpt lat="54.25067" lon="15.97835">
        <ele>37.054594</ele>
        <time>2024-07-28T12:44:27.633Z</time>
      </trkpt>
      <trkpt lat="54.25076" lon="15.97844">
        <ele>36.876416</ele>
        <time>2024-07-28T12:44:29.658Z</time>
      </trkpt>
      <trkpt lat="54.25083" lon="15.97855">
        <ele>36.708997</ele>
        <time>2024-07-28T12:44:31.648Z</time>
      </trkpt>
      <trkpt lat="54.25086" lon="15.97872">
        <ele>36.536413</ele>
        <time>2024-07-28T12:44:33.658Z</time>
      </trkpt>
      <trkpt lat="54.25087" lon="15.97888">
        <ele>36.371466</ele>
        <time>2024-07-28T12:44:35.651Z</time>
      </trkpt>
      <trkpt lat="54.25088" lon="15.97904">
        <ele>36.213534</ele>
        <time>2024-07-28T12:44:37.633Z</time>
      </trkpt>
      <trkpt lat="54.25087" lon="15.97921">
        <ele>36.051414</ele>
        <time>2024-07-28T12:44:39.669Z</time>
      </trkpt>
      <trkpt lat="54.25087" lon="15.97937">
        <ele>35.884552</ele>
        <time>2024-07-28T12:44:41.659Z</time>
      </trkpt>
      <trkpt lat="54.25088" lon="15.97953">
        <ele>35.725716</ele>
        <time>2024-07-28T12:44:43.658Z</time>
      </trkpt>
      <trkpt lat="54.25093" lon="15.97975">
        <ele>35.494856</ele>
        <time>2024-07-28T12:44:46.659Z</time>
      </trkpt>
      <trkpt lat="54.25098" lon="15.97989">
        <ele>35.337659</ele>
        <time>2024-07-28T12:44:48.628Z</time>
      </trkpt>
      <trkpt lat="54.25098" lon="15.98005">
        <ele>35.181131</ele>
        <time>2024-07-28T12:44:50.653Z</time>
      </trkpt>
      <trkpt lat="54.25098" lon="15.9802">
        <ele>35.025111</ele>
        <time>2024-07-28T12:44:52.640Z</time>
      </trkpt>
      <trkpt lat="54.251" lon="15.9804">
        <ele>34.824612</ele>
        <time>2024-07-28T12:44:55.658Z</time>
      </trkpt>
      <trkpt lat="54.25102" lon="15.9806">
        <ele>34.627971</ele>
        <time>2024-07-28T12:44:58.659Z</time>
      </trkpt>
      <trkpt lat="54.25106" lon="15.98078">
        <ele>34.431925</ele>
        <time>2024-07-28T12:45:01.653Z</time>
      </trkpt>
      <trkpt lat="54.25112" lon="15.98095">
        <ele>34.371692</ele>
        <time>2024-07-28T12:45:04.657Z</time>
      </trkpt>
      <trkpt lat="54.25119" lon="15.98113">
        <ele>34.452044</ele>
        <time>2024-07-28T12:45:07.652Z</time>
      </trkpt>
      <trkpt lat="54.25125" lon="15.98133">
        <ele>34.534578</ele>
        <time>2024-07-28T12:45:10.636Z</time>
      </trkpt>
      <trkpt lat="54.25129" lon="15.98148">
        <ele>34.592061</ele>
        <time>2024-07-28T12:45:12.642Z</time>
      </trkpt>
      <trkpt lat="54.25131" lon="15.98169">
        <ele>34.673234</ele>
        <time>2024-07-28T12:45:15.653Z</time>
      </trkpt>
      <trkpt lat="54.2513" lon="15.98185">
        <ele>34.731889</ele>
        <time>2024-07-28T12:45:17.654Z</time>
      </trkpt>
      <trkpt lat="54.2513" lon="15.98201">
        <ele>34.790859</ele>
        <time>2024-07-28T12:45:19.650Z</time>
      </trkpt>
      <trkpt lat="54.25131" lon="15.98217">
        <ele>34.849626</ele>
        <time>2024-07-28T12:45:21.645Z</time>
      </trkpt>
      <trkpt lat="54.25132" lon="15.98234">
        <ele>34.91052</ele>
        <time>2024-07-28T12:45:23.630Z</time>
      </trkpt>
      <trkpt lat="54.25132" lon="15.9825">
        <ele>34.969888</ele>
        <time>2024-07-28T12:45:25.644Z</time>
      </trkpt>
      <trkpt lat="54.25134" lon="15.98266">
        <ele>35.030551</ele>
        <time>2024-07-28T12:45:27.638Z</time>
      </trkpt>
      <trkpt lat="54.25136" lon="15.98281">
        <ele>35.088335</ele>
        <time>2024-07-28T12:45:29.648Z</time>
      </trkpt>
      <trkpt lat="54.25139" lon="15.98302">
        <ele>35.168127</ele>
        <time>2024-07-28T12:45:32.654Z</time>
      </trkpt>
      <trkpt lat="54.25142" lon="15.98324">
        <ele>35.251643</ele>
        <time>2024-07-28T12:45:35.658Z</time>
      </trkpt>
      <trkpt lat="54.25144" lon="15.98347">
        <ele>35.337304</ele>
        <time>2024-07-28T12:45:38.653Z</time>
      </trkpt>
      <trkpt lat="54.25148" lon="15.98368">
        <ele>35.417163</ele>
        <time>2024-07-28T12:45:41.650Z</time>
      </trkpt>
      <trkpt lat="54.25151" lon="15.98384">
        <ele>35.474856</ele>
        <time>2024-07-28T12:45:44.656Z</time>
      </trkpt>
      <trkpt lat="54.25153" lon="15.98401">
        <ele>35.511035</ele>
        <time>2024-07-28T12:45:47.659Z</time>
      </trkpt>
      <trkpt lat="54.25155" lon="15.9842">
        <ele>35.553117</ele>
        <time>2024-07-28T12:45:50.655Z</time>
      </trkpt>
      <trkpt lat="54.25157" lon="15.98439">
        <ele>35.593563</ele>
        <time>2024-07-28T12:45:53.655Z</time>
      </trkpt>
      <trkpt lat="54.25156" lon="15.98458">
        <ele>35.632879</ele>
        <time>2024-07-28T12:45:56.653Z</time>
      </trkpt>
      <trkpt lat="54.25157" lon="15.98478">
        <ele>35.674252</ele>
        <time>2024-07-28T12:45:59.645Z</time>
      </trkpt>
      <trkpt lat="54.25157" lon="15.98497">
        <ele>35.715085</ele>
        <time>2024-07-28T12:46:02.646Z</time>
      </trkpt>
      <trkpt lat="54.25158" lon="15.98516">
        <ele>35.755384</ele>
        <time>2024-07-28T12:46:05.657Z</time>
      </trkpt>
      <trkpt lat="54.25159" lon="15.98535">
        <ele>35.794784</ele>
        <time>2024-07-28T12:46:08.645Z</time>
      </trkpt>
      <trkpt lat="54.2516" lon="15.98555">
        <ele>35.836468</ele>
        <time>2024-07-28T12:46:11.654Z</time>
      </trkpt>
      <trkpt lat="54.25162" lon="15.98575">
        <ele>35.879169</ele>
        <time>2024-07-28T12:46:14.645Z</time>
      </trkpt>
      <trkpt lat="54.25164" lon="15.98593">
        <ele>35.918933</ele>
        <time>2024-07-28T12:46:17.652Z</time>
      </trkpt>
      <trkpt lat="54.25166" lon="15.98609">
        <ele>35.952239</ele>
        <time>2024-07-28T12:46:20.653Z</time>
      </trkpt>
      <trkpt lat="54.25166" lon="15.98625">
        <ele>35.986649</ele>
        <time>2024-07-28T12:46:25.656Z</time>
      </trkpt>
      <trkpt lat="54.25169" lon="15.9864">
        <ele>36.019679</ele>
        <time>2024-07-28T12:46:29.645Z</time>
      </trkpt>
      <trkpt lat="54.25169" lon="15.98657">
        <ele>36.053467</ele>
        <time>2024-07-28T12:46:32.635Z</time>
      </trkpt>
      <trkpt lat="54.25169" lon="15.98674">
        <ele>36.090506</ele>
        <time>2024-07-28T12:46:35.648Z</time>
      </trkpt>
      <trkpt lat="54.25179" lon="15.98685">
        <ele>36.123476</ele>
        <time>2024-07-28T12:46:38.621Z</time>
      </trkpt>
      <trkpt lat="54.25189" lon="15.98693">
        <ele>36.145728</ele>
        <time>2024-07-28T12:46:41.650Z</time>
      </trkpt>
      <trkpt lat="54.25199" lon="15.98703">
        <ele>36.168676</ele>
        <time>2024-07-28T12:46:44.667Z</time>
      </trkpt>
      <trkpt lat="54.25208" lon="15.98711">
        <ele>36.189064</ele>
        <time>2024-07-28T12:46:47.648Z</time>
      </trkpt>
      <trkpt lat="54.25216" lon="15.98719">
        <ele>36.206841</ele>
        <time>2024-07-28T12:46:50.657Z</time>
      </trkpt>
      <trkpt lat="54.25221" lon="15.98737">
        <ele>36.229632</ele>
        <time>2024-07-28T12:46:53.648Z</time>
      </trkpt>
      <trkpt lat="54.25227" lon="15.98756">
        <ele>36.254633</ele>
        <time>2024-07-28T12:46:56.644Z</time>
      </trkpt>
      <trkpt lat="54.25229" lon="15.98773">
        <ele>36.273416</ele>
        <time>2024-07-28T12:46:58.630Z</time>
      </trkpt>
      <trkpt lat="54.25231" lon="15.98788">
        <ele>36.292186</ele>
        <time>2024-07-28T12:47:00.662Z</time>
      </trkpt>
      <trkpt lat="54.25231" lon="15.98805">
        <ele>36.311323</ele>
        <time>2024-07-28T12:47:02.653Z</time>
      </trkpt>
      <trkpt lat="54.25231" lon="15.98821">
        <ele>36.329547</ele>
        <time>2024-07-28T12:47:04.657Z</time>
      </trkpt>
      <trkpt lat="54.25228" lon="15.98843">
        <ele>36.354876</ele>
        <time>2024-07-28T12:47:07.661Z</time>
      </trkpt>
      <trkpt lat="54.25226" lon="15.9886">
        <ele>36.374607</ele>
        <time>2024-07-28T12:47:10.658Z</time>
      </trkpt>
      <trkpt lat="54.25225" lon="15.98879">
        <ele>36.396941</ele>
        <time>2024-07-28T12:47:13.654Z</time>
      </trkpt>
      <trkpt lat="54.25223" lon="15.989">
        <ele>36.421162</ele>
        <time>2024-07-28T12:47:16.640Z</time>
      </trkpt>
      <trkpt lat="54.25219" lon="15.98922">
        <ele>36.447475</ele>
        <time>2024-07-28T12:47:19.646Z</time>
      </trkpt>
      <trkpt lat="54.25218" lon="15.98944">
        <ele>36.49364</ele>
        <time>2024-07-28T12:47:22.649Z</time>
      </trkpt>
      <trkpt lat="54.25218" lon="15.98967">
        <ele>36.612618</ele>
        <time>2024-07-28T12:47:25.642Z</time>
      </trkpt>
      <trkpt lat="54.25218" lon="15.98989">
        <ele>36.732741</ele>
        <time>2024-07-28T12:47:28.671Z</time>
      </trkpt>
      <trkpt lat="54.25219" lon="15.99012">
        <ele>36.852716</ele>
        <time>2024-07-28T12:47:31.651Z</time>
      </trkpt>
      <trkpt lat="54.2522" lon="15.99035">
        <ele>36.973452</ele>
        <time>2024-07-28T12:47:34.652Z</time>
      </trkpt>
      <trkpt lat="54.2522" lon="15.9905">
        <ele>37.057947</ele>
        <time>2024-07-28T12:47:36.617Z</time>
      </trkpt>
      <trkpt lat="54.2522" lon="15.99067">
        <ele>37.144527</ele>
        <time>2024-07-28T12:47:38.665Z</time>
      </trkpt>
      <trkpt lat="54.2522" lon="15.99083">
        <ele>37.231222</ele>
        <time>2024-07-28T12:47:40.665Z</time>
      </trkpt>
      <trkpt lat="54.25221" lon="15.99099">
        <ele>37.318643</ele>
        <time>2024-07-28T12:47:42.653Z</time>
      </trkpt>
      <trkpt lat="54.25221" lon="15.99115">
        <ele>37.402563</ele>
        <time>2024-07-28T12:47:44.659Z</time>
      </trkpt>
      <trkpt lat="54.25221" lon="15.99131">
        <ele>37.48865</ele>
        <time>2024-07-28T12:47:46.655Z</time>
      </trkpt>
      <trkpt lat="54.25221" lon="15.99153">
        <ele>37.603911</ele>
        <time>2024-07-28T12:47:49.671Z</time>
      </trkpt>
      <trkpt lat="54.2522" lon="15.99169">
        <ele>37.690644</ele>
        <time>2024-07-28T12:47:51.646Z</time>
      </trkpt>
      <trkpt lat="54.25219" lon="15.99185">
        <ele>37.772847</ele>
        <time>2024-07-28T12:47:53.649Z</time>
      </trkpt>
      <trkpt lat="54.25218" lon="15.992">
        <ele>37.856819</ele>
        <time>2024-07-28T12:47:55.644Z</time>
      </trkpt>
      <trkpt lat="54.25216" lon="15.99217">
        <ele>37.948426</ele>
        <time>2024-07-28T12:47:57.657Z</time>
      </trkpt>
      <trkpt lat="54.25215" lon="15.99235">
        <ele>38.042793</ele>
        <time>2024-07-28T12:47:59.647Z</time>
      </trkpt>
      <trkpt lat="54.25214" lon="15.9925">
        <ele>38.119906</ele>
        <time>2024-07-28T12:48:01.648Z</time>
      </trkpt>
      <trkpt lat="54.25212" lon="15.99267">
        <ele>38.184082</ele>
        <time>2024-07-28T12:48:03.646Z</time>
      </trkpt>
      <trkpt lat="54.25212" lon="15.99288">
        <ele>38.264437</ele>
        <time>2024-07-28T12:48:06.646Z</time>
      </trkpt>
      <trkpt lat="54.25211" lon="15.99309">
        <ele>38.346508</ele>
        <time>2024-07-28T12:48:09.630Z</time>
      </trkpt>
      <trkpt lat="54.25212" lon="15.99329">
        <ele>38.426454</ele>
        <time>2024-07-28T12:48:11.660Z</time>
      </trkpt>
      <trkpt lat="54.25213" lon="15.99347">
        <ele>38.493901</ele>
        <time>2024-07-28T12:48:13.658Z</time>
      </trkpt>
      <trkpt lat="54.25213" lon="15.99363">
        <ele>38.555678</ele>
        <time>2024-07-28T12:48:15.633Z</time>
      </trkpt>
      <trkpt lat="54.25212" lon="15.99379">
        <ele>38.618246</ele>
        <time>2024-07-28T12:48:17.674Z</time>
      </trkpt>
      <trkpt lat="54.25211" lon="15.99395">
        <ele>38.680852</ele>
        <time>2024-07-28T12:48:19.663Z</time>
      </trkpt>
      <trkpt lat="54.25212" lon="15.99413">
        <ele>38.751323</ele>
        <time>2024-07-28T12:48:21.654Z</time>
      </trkpt>
      <trkpt lat="54.25214" lon="15.99431">
        <ele>38.819616</ele>
        <time>2024-07-28T12:48:23.654Z</time>
      </trkpt>
      <trkpt lat="54.25215" lon="15.99448">
        <ele>38.885999</ele>
        <time>2024-07-28T12:48:25.658Z</time>
      </trkpt>
      <trkpt lat="54.25216" lon="15.99465">
        <ele>38.95416</ele>
        <time>2024-07-28T12:48:27.663Z</time>
      </trkpt>
      <trkpt lat="54.25217" lon="15.99482">
        <ele>39.017954</ele>
        <time>2024-07-28T12:48:29.650Z</time>
      </trkpt>
      <trkpt lat="54.25217" lon="15.99498">
        <ele>39.080118</ele>
        <time>2024-07-28T12:48:31.649Z</time>
      </trkpt>
      <trkpt lat="54.25215" lon="15.99514">
        <ele>39.145356</ele>
        <time>2024-07-28T12:48:33.640Z</time>
      </trkpt>
      <trkpt lat="54.25214" lon="15.99532">
        <ele>39.213517</ele>
        <time>2024-07-28T12:48:35.652Z</time>
      </trkpt>
      <trkpt lat="54.25213" lon="15.99548">
        <ele>39.276799</ele>
        <time>2024-07-28T12:48:37.649Z</time>
      </trkpt>
      <trkpt lat="54.25213" lon="15.99565">
        <ele>39.246595</ele>
        <time>2024-07-28T12:48:39.626Z</time>
      </trkpt>
      <trkpt lat="54.25213" lon="15.99581">
        <ele>39.186337</ele>
        <time>2024-07-28T12:48:41.660Z</time>
      </trkpt>
      <trkpt lat="54.25213" lon="15.99598">
        <ele>39.124239</ele>
        <time>2024-07-28T12:48:43.655Z</time>
      </trkpt>
      <trkpt lat="54.25214" lon="15.99616">
        <ele>39.059405</ele>
        <time>2024-07-28T12:48:45.636Z</time>
      </trkpt>
      <trkpt lat="54.25215" lon="15.99633">
        <ele>38.999192</ele>
        <time>2024-07-28T12:48:47.616Z</time>
      </trkpt>
      <trkpt lat="54.25215" lon="15.9965">
        <ele>38.936006</ele>
        <time>2024-07-28T12:48:49.649Z</time>
      </trkpt>
      <trkpt lat="54.25213" lon="15.99668">
        <ele>38.869648</ele>
        <time>2024-07-28T12:48:51.646Z</time>
      </trkpt>
      <trkpt lat="54.2521" lon="15.99686">
        <ele>38.801333</ele>
        <time>2024-07-28T12:48:53.649Z</time>
      </trkpt>
      <trkpt lat="54.25211" lon="15.99704">
        <ele>38.738535</ele>
        <time>2024-07-28T12:48:55.666Z</time>
      </trkpt>
      <trkpt lat="54.25211" lon="15.99721">
        <ele>38.676353</ele>
        <time>2024-07-28T12:48:57.656Z</time>
      </trkpt>
      <trkpt lat="54.25212" lon="15.99738">
        <ele>38.613446</ele>
        <time>2024-07-28T12:48:59.652Z</time>
      </trkpt>
      <trkpt lat="54.25213" lon="15.99755">
        <ele>38.551557</ele>
        <time>2024-07-28T12:49:01.669Z</time>
      </trkpt>
      <trkpt lat="54.25215" lon="15.99772">
        <ele>38.48951</ele>
        <time>2024-07-28T12:49:03.648Z</time>
      </trkpt>
      <trkpt lat="54.25217" lon="15.99789">
        <ele>38.426523</ele>
        <time>2024-07-28T12:49:05.652Z</time>
      </trkpt>
      <trkpt lat="54.25219" lon="15.99804">
        <ele>38.367707</ele>
        <time>2024-07-28T12:49:07.646Z</time>
      </trkpt>
      <trkpt lat="54.25223" lon="15.99828">
        <ele>38.28118</ele>
        <time>2024-07-28T12:49:10.660Z</time>
      </trkpt>
      <trkpt lat="54.25224" lon="15.99845">
        <ele>38.219161</ele>
        <time>2024-07-28T12:49:12.646Z</time>
      </trkpt>
      <trkpt lat="54.25225" lon="15.99861">
        <ele>38.223402</ele>
        <time>2024-07-28T12:49:14.653Z</time>
      </trkpt>
      <trkpt lat="54.25227" lon="15.99876">
        <ele>38.408782</ele>
        <time>2024-07-28T12:49:16.629Z</time>
      </trkpt>
      <trkpt lat="54.25229" lon="15.99892">
        <ele>38.594588</ele>
        <time>2024-07-28T12:49:18.660Z</time>
      </trkpt>
      <trkpt lat="54.2523" lon="15.99908">
        <ele>38.790423</ele>
        <time>2024-07-28T12:49:20.644Z</time>
      </trkpt>
      <trkpt lat="54.25232" lon="15.99931">
        <ele>39.06375</ele>
        <time>2024-07-28T12:49:23.656Z</time>
      </trkpt>
      <trkpt lat="54.25233" lon="15.99948">
        <ele>39.25842</ele>
        <time>2024-07-28T12:49:25.658Z</time>
      </trkpt>
      <trkpt lat="54.25236" lon="15.99963">
        <ele>39.453438</ele>
        <time>2024-07-28T12:49:27.660Z</time>
      </trkpt>
      <trkpt lat="54.25239" lon="15.9998">
        <ele>39.660185</ele>
        <time>2024-07-28T12:49:29.643Z</time>
      </trkpt>
      <trkpt lat="54.25243" lon="15.99995">
        <ele>39.855903</ele>
        <time>2024-07-28T12:49:31.641Z</time>
      </trkpt>
      <trkpt lat="54.25247" lon="16.00011">
        <ele>40.053589</ele>
        <time>2024-07-28T12:49:33.647Z</time>
      </trkpt>
      <trkpt lat="54.25249" lon="16.00026">
        <ele>40.241258</ele>
        <time>2024-07-28T12:49:35.652Z</time>
      </trkpt>
      <trkpt lat="54.25251" lon="16.00042">
        <ele>40.428541</ele>
        <time>2024-07-28T12:49:37.643Z</time>
      </trkpt>
      <trkpt lat="54.25254" lon="16.00063">
        <ele>40.68829</ele>
        <time>2024-07-28T12:49:40.665Z</time>
      </trkpt>
      <trkpt lat="54.25256" lon="16.00086">
        <ele>40.954012</ele>
        <time>2024-07-28T12:49:43.654Z</time>
      </trkpt>
      <trkpt lat="54.25257" lon="16.00108">
        <ele>41.212101</ele>
        <time>2024-07-28T12:49:46.648Z</time>
      </trkpt>
      <trkpt lat="54.25258" lon="16.00129">
        <ele>41.466201</ele>
        <time>2024-07-28T12:49:49.655Z</time>
      </trkpt>
      <trkpt lat="54.25261" lon="16.0015">
        <ele>41.722485</ele>
        <time>2024-07-28T12:49:52.663Z</time>
      </trkpt>
      <trkpt lat="54.25263" lon="16.00172">
        <ele>41.930789</ele>
        <time>2024-07-28T12:49:55.661Z</time>
      </trkpt>
      <trkpt lat="54.25263" lon="16.00189">
        <ele>42.073736</ele>
        <time>2024-07-28T12:49:57.668Z</time>
      </trkpt>
      <trkpt lat="54.25263" lon="16.00207">
        <ele>42.230337</ele>
        <time>2024-07-28T12:49:59.646Z</time>
      </trkpt>
      <trkpt lat="54.25265" lon="16.00222">
        <ele>42.36094</ele>
        <time>2024-07-28T12:50:01.652Z</time>
      </trkpt>
      <trkpt lat="54.25266" lon="16.00238">
        <ele>42.492384</ele>
        <time>2024-07-28T12:50:03.636Z</time>
      </trkpt>
      <trkpt lat="54.25268" lon="16.00258">
        <ele>42.670528</ele>
        <time>2024-07-28T12:50:06.651Z</time>
      </trkpt>
      <trkpt lat="54.2527" lon="16.00277">
        <ele>42.834368</ele>
        <time>2024-07-28T12:50:09.647Z</time>
      </trkpt>
      <trkpt lat="54.25272" lon="16.003">
        <ele>43.0294</ele>
        <time>2024-07-28T12:50:12.669Z</time>
      </trkpt>
      <trkpt lat="54.25274" lon="16.00316">
        <ele>43.167386</ele>
        <time>2024-07-28T12:50:14.651Z</time>
      </trkpt>
      <trkpt lat="54.25276" lon="16.00338">
        <ele>43.355721</ele>
        <time>2024-07-28T12:50:17.644Z</time>
      </trkpt>
      <trkpt lat="54.25278" lon="16.00357">
        <ele>43.520605</ele>
        <time>2024-07-28T12:50:19.668Z</time>
      </trkpt>
      <trkpt lat="54.25279" lon="16.00375">
        <ele>43.676161</ele>
        <time>2024-07-28T12:50:21.647Z</time>
      </trkpt>
      <trkpt lat="54.25281" lon="16.00399">
        <ele>43.885446</ele>
        <time>2024-07-28T12:50:24.656Z</time>
      </trkpt>
      <trkpt lat="54.25283" lon="16.00418">
        <ele>44.048452</ele>
        <time>2024-07-28T12:50:26.654Z</time>
      </trkpt>
      <trkpt lat="54.25285" lon="16.00436">
        <ele>44.202609</ele>
        <time>2024-07-28T12:50:28.666Z</time>
      </trkpt>
      <trkpt lat="54.25286" lon="16.00453">
        <ele>44.351842</ele>
        <time>2024-07-28T12:50:30.657Z</time>
      </trkpt>
      <trkpt lat="54.25288" lon="16.00473">
        <ele>44.352036</ele>
        <time>2024-07-28T12:50:33.668Z</time>
      </trkpt>
      <trkpt lat="54.25291" lon="16.00496">
        <ele>44.224052</ele>
        <time>2024-07-28T12:50:36.647Z</time>
      </trkpt>
      <trkpt lat="54.25294" lon="16.00515">
        <ele>44.120237</ele>
        <time>2024-07-28T12:50:38.659Z</time>
      </trkpt>
      <trkpt lat="54.25297" lon="16.00531">
        <ele>44.031479</ele>
        <time>2024-07-28T12:50:40.633Z</time>
      </trkpt>
      <trkpt lat="54.25299" lon="16.00549">
        <ele>43.92722</ele>
        <time>2024-07-28T12:50:43.649Z</time>
      </trkpt>
      <trkpt lat="54.25302" lon="16.00569">
        <ele>43.818662</ele>
        <time>2024-07-28T12:50:46.639Z</time>
      </trkpt>
      <trkpt lat="54.25306" lon="16.00591">
        <ele>43.693627</ele>
        <time>2024-07-28T12:50:49.633Z</time>
      </trkpt>
      <trkpt lat="54.25309" lon="16.00608">
        <ele>43.599364</ele>
        <time>2024-07-28T12:50:51.627Z</time>
      </trkpt>
      <trkpt lat="54.25312" lon="16.0063">
        <ele>43.480522</ele>
        <time>2024-07-28T12:50:53.655Z</time>
      </trkpt>
      <trkpt lat="54.25315" lon="16.00649">
        <ele>43.370918</ele>
        <time>2024-07-28T12:50:55.665Z</time>
      </trkpt>
      <trkpt lat="54.25318" lon="16.00664">
        <ele>43.285912</ele>
        <time>2024-07-28T12:50:57.652Z</time>
      </trkpt>
      <trkpt lat="54.25321" lon="16.0068">
        <ele>43.19624</ele>
        <time>2024-07-28T12:50:59.650Z</time>
      </trkpt>
      <trkpt lat="54.25326" lon="16.00697">
        <ele>43.093098</ele>
        <time>2024-07-28T12:51:02.657Z</time>
      </trkpt>
      <trkpt lat="54.25331" lon="16.00717">
        <ele>42.974828</ele>
        <time>2024-07-28T12:51:05.660Z</time>
      </trkpt>
      <trkpt lat="54.25338" lon="16.00735">
        <ele>42.859121</ele>
        <time>2024-07-28T12:51:08.656Z</time>
      </trkpt>
      <trkpt lat="54.25343" lon="16.00749">
        <ele>42.775953</ele>
        <time>2024-07-28T12:51:10.638Z</time>
      </trkpt>
      <trkpt lat="54.25348" lon="16.00761">
        <ele>42.731378</ele>
        <time>2024-07-28T12:51:12.661Z</time>
      </trkpt>
      <trkpt lat="54.25353" lon="16.00775">
        <ele>42.693733</ele>
        <time>2024-07-28T12:51:14.650Z</time>
      </trkpt>
      <trkpt lat="54.25357" lon="16.00791">
        <ele>42.654459</ele>
        <time>2024-07-28T12:51:16.646Z</time>
      </trkpt>
      <trkpt lat="54.25361" lon="16.00805">
        <ele>42.617982</ele>
        <time>2024-07-28T12:51:18.647Z</time>
      </trkpt>
      <trkpt lat="54.25364" lon="16.0082">
        <ele>42.580816</ele>
        <time>2024-07-28T12:51:20.651Z</time>
      </trkpt>
      <trkpt lat="54.25366" lon="16.00836">
        <ele>42.544269</ele>
        <time>2024-07-28T12:51:22.656Z</time>
      </trkpt>
      <trkpt lat="54.25369" lon="16.00853">
        <ele>42.50408</ele>
        <time>2024-07-28T12:51:24.629Z</time>
      </trkpt>
      <trkpt lat="54.2537" lon="16.0087">
        <ele>42.463231</ele>
        <time>2024-07-28T12:51:26.642Z</time>
      </trkpt>
      <trkpt lat="54.25373" lon="16.00887">
        <ele>42.42259</ele>
        <time>2024-07-28T12:51:28.658Z</time>
      </trkpt>
      <trkpt lat="54.25376" lon="16.00904">
        <ele>42.380988</ele>
        <time>2024-07-28T12:51:30.638Z</time>
      </trkpt>
      <trkpt lat="54.25379" lon="16.00921">
        <ele>42.341246</ele>
        <time>2024-07-28T12:51:32.654Z</time>
      </trkpt>
      <trkpt lat="54.2538" lon="16.00942">
        <ele>42.291456</ele>
        <time>2024-07-28T12:51:34.656Z</time>
      </trkpt>
      <trkpt lat="54.25381" lon="16.00967">
        <ele>42.235008</ele>
        <time>2024-07-28T12:51:36.647Z</time>
      </trkpt>
      <trkpt lat="54.25383" lon="16.00987">
        <ele>42.187903</ele>
        <time>2024-07-28T12:51:38.679Z</time>
      </trkpt>
      <trkpt lat="54.25385" lon="16.01006">
        <ele>42.142452</ele>
        <time>2024-07-28T12:51:40.649Z</time>
      </trkpt>
      <trkpt lat="54.25387" lon="16.01026">
        <ele>42.096741</ele>
        <time>2024-07-28T12:51:42.650Z</time>
      </trkpt>
      <trkpt lat="54.25388" lon="16.01043">
        <ele>42.056022</ele>
        <time>2024-07-28T12:51:44.663Z</time>
      </trkpt>
      <trkpt lat="54.2539" lon="16.01061">
        <ele>42.190942</ele>
        <time>2024-07-28T12:51:46.654Z</time>
      </trkpt>
      <trkpt lat="54.25391" lon="16.01077">
        <ele>42.32898</ele>
        <time>2024-07-28T12:51:48.654Z</time>
      </trkpt>
      <trkpt lat="54.25392" lon="16.01095">
        <ele>42.485444</ele>
        <time>2024-07-28T12:51:50.634Z</time>
      </trkpt>
      <trkpt lat="54.25394" lon="16.01113">
        <ele>42.644533</ele>
        <time>2024-07-28T12:51:52.649Z</time>
      </trkpt>
      <trkpt lat="54.25395" lon="16.01131">
        <ele>42.807552</ele>
        <time>2024-07-28T12:51:54.659Z</time>
      </trkpt>
      <trkpt lat="54.25396" lon="16.01149">
        <ele>42.964537</ele>
        <time>2024-07-28T12:51:56.649Z</time>
      </trkpt>
      <trkpt lat="54.25395" lon="16.01166">
        <ele>43.112753</ele>
        <time>2024-07-28T12:51:58.661Z</time>
      </trkpt>
      <trkpt lat="54.25396" lon="16.01188">
        <ele>43.305647</ele>
        <time>2024-07-28T12:52:01.638Z</time>
      </trkpt>
      <trkpt lat="54.25398" lon="16.01211">
        <ele>43.501561</ele>
        <time>2024-07-28T12:52:04.643Z</time>
      </trkpt>
      <trkpt lat="54.25399" lon="16.01231">
        <ele>43.682775</ele>
        <time>2024-07-28T12:52:07.641Z</time>
      </trkpt>
      <trkpt lat="54.25399" lon="16.01256">
        <ele>43.892913</ele>
        <time>2024-07-28T12:52:10.655Z</time>
      </trkpt>
      <trkpt lat="54.254" lon="16.01275">
        <ele>44.066503</ele>
        <time>2024-07-28T12:52:12.656Z</time>
      </trkpt>
      <trkpt lat="54.254" lon="16.01293">
        <ele>44.223318</ele>
        <time>2024-07-28T12:52:14.674Z</time>
      </trkpt>
      <trkpt lat="54.254" lon="16.01309">
        <ele>44.361839</ele>
        <time>2024-07-28T12:52:16.665Z</time>
      </trkpt>
      <trkpt lat="54.254" lon="16.01332">
        <ele>44.561383</ele>
        <time>2024-07-28T12:52:19.654Z</time>
      </trkpt>
      <trkpt lat="54.254" lon="16.01351">
        <ele>44.724459</ele>
        <time>2024-07-28T12:52:22.651Z</time>
      </trkpt>
      <trkpt lat="54.25401" lon="16.01372">
        <ele>44.391493</ele>
        <time>2024-07-28T12:52:25.649Z</time>
      </trkpt>
      <trkpt lat="54.25401" lon="16.0139">
        <ele>44.062402</ele>
        <time>2024-07-28T12:52:27.633Z</time>
      </trkpt>
      <trkpt lat="54.254" lon="16.01408">
        <ele>43.75031</ele>
        <time>2024-07-28T12:52:29.645Z</time>
      </trkpt>
      <trkpt lat="54.25399" lon="16.01429">
        <ele>43.381249</ele>
        <time>2024-07-28T12:52:32.650Z</time>
      </trkpt>
      <trkpt lat="54.25399" lon="16.01447">
        <ele>43.0607</ele>
        <time>2024-07-28T12:52:34.652Z</time>
      </trkpt>
      <trkpt lat="54.25399" lon="16.01468">
        <ele>42.693871</ele>
        <time>2024-07-28T12:52:37.654Z</time>
      </trkpt>
      <trkpt lat="54.25397" lon="16.01489">
        <ele>42.334669</ele>
        <time>2024-07-28T12:52:40.653Z</time>
      </trkpt>
      <trkpt lat="54.25397" lon="16.01512">
        <ele>41.926647</ele>
        <time>2024-07-28T12:52:43.668Z</time>
      </trkpt>
      <trkpt lat="54.25397" lon="16.01528">
        <ele>41.647751</ele>
        <time>2024-07-28T12:52:45.651Z</time>
      </trkpt>
      <trkpt lat="54.25397" lon="16.01544">
        <ele>41.361162</ele>
        <time>2024-07-28T12:52:47.659Z</time>
      </trkpt>
      <trkpt lat="54.25393" lon="16.01566">
        <ele>40.962081</ele>
        <time>2024-07-28T12:52:49.643Z</time>
      </trkpt>
      <trkpt lat="54.2539" lon="16.01585">
        <ele>40.623032</ele>
        <time>2024-07-28T12:52:51.645Z</time>
      </trkpt>
      <trkpt lat="54.25389" lon="16.01604">
        <ele>40.286109</ele>
        <time>2024-07-28T12:52:53.653Z</time>
      </trkpt>
      <trkpt lat="54.25387" lon="16.01622">
        <ele>39.967249</ele>
        <time>2024-07-28T12:52:55.646Z</time>
      </trkpt>
      <trkpt lat="54.25386" lon="16.0164">
        <ele>39.660196</ele>
        <time>2024-07-28T12:52:57.652Z</time>
      </trkpt>
      <trkpt lat="54.25385" lon="16.01656">
        <ele>39.367764</ele>
        <time>2024-07-28T12:52:59.636Z</time>
      </trkpt>
      <trkpt lat="54.25384" lon="16.01672">
        <ele>39.207855</ele>
        <time>2024-07-28T12:53:01.667Z</time>
      </trkpt>
      <trkpt lat="54.25383" lon="16.01693">
        <ele>39.004519</ele>
        <time>2024-07-28T12:53:04.649Z</time>
      </trkpt>
      <trkpt lat="54.25385" lon="16.01715">
        <ele>38.783517</ele>
        <time>2024-07-28T12:53:07.652Z</time>
      </trkpt>
      <trkpt lat="54.25387" lon="16.01731">
        <ele>38.6274</ele>
        <time>2024-07-28T12:53:09.656Z</time>
      </trkpt>
      <trkpt lat="54.25389" lon="16.01753">
        <ele>38.414994</ele>
        <time>2024-07-28T12:53:12.670Z</time>
      </trkpt>
      <trkpt lat="54.25389" lon="16.01775">
        <ele>38.198583</ele>
        <time>2024-07-28T12:53:15.622Z</time>
      </trkpt>
      <trkpt lat="54.25391" lon="16.01791">
        <ele>38.039237</ele>
        <time>2024-07-28T12:53:17.649Z</time>
      </trkpt>
      <trkpt lat="54.25393" lon="16.01807">
        <ele>37.88157</ele>
        <time>2024-07-28T12:53:19.648Z</time>
      </trkpt>
      <trkpt lat="54.25395" lon="16.01823">
        <ele>37.726398</ele>
        <time>2024-07-28T12:53:21.640Z</time>
      </trkpt>
      <trkpt lat="54.25396" lon="16.01839">
        <ele>37.5744</ele>
        <time>2024-07-28T12:53:23.648Z</time>
      </trkpt>
      <trkpt lat="54.25399" lon="16.01855">
        <ele>37.415099</ele>
        <time>2024-07-28T12:53:25.672Z</time>
      </trkpt>
      <trkpt lat="54.25401" lon="16.01871">
        <ele>37.252608</ele>
        <time>2024-07-28T12:53:27.652Z</time>
      </trkpt>
      <trkpt lat="54.25403" lon="16.01888">
        <ele>37.087292</ele>
        <time>2024-07-28T12:53:29.655Z</time>
      </trkpt>
      <trkpt lat="54.25405" lon="16.01903">
        <ele>36.936834</ele>
        <time>2024-07-28T12:53:31.670Z</time>
      </trkpt>
      <trkpt lat="54.25407" lon="16.01919">
        <ele>36.775995</ele>
        <time>2024-07-28T12:53:33.655Z</time>
      </trkpt>
      <trkpt lat="54.25408" lon="16.01936">
        <ele>36.611963</ele>
        <time>2024-07-28T12:53:35.661Z</time>
      </trkpt>
      <trkpt lat="54.25409" lon="16.01952">
        <ele>36.457642</ele>
        <time>2024-07-28T12:53:37.663Z</time>
      </trkpt>
      <trkpt lat="54.25412" lon="16.01969">
        <ele>36.379971</ele>
        <time>2024-07-28T12:53:39.655Z</time>
      </trkpt>
      <trkpt lat="54.25413" lon="16.01984">
        <ele>36.396186</ele>
        <time>2024-07-28T12:53:41.643Z</time>
      </trkpt>
      <trkpt lat="54.25414" lon="16.02001">
        <ele>36.413803</ele>
        <time>2024-07-28T12:53:43.652Z</time>
      </trkpt>
      <trkpt lat="54.25416" lon="16.02019">
        <ele>36.432978</ele>
        <time>2024-07-28T12:53:45.666Z</time>
      </trkpt>
      <trkpt lat="54.25418" lon="16.02037">
        <ele>36.451683</ele>
        <time>2024-07-28T12:53:47.667Z</time>
      </trkpt>
      <trkpt lat="54.2542" lon="16.02054">
        <ele>36.469785</ele>
        <time>2024-07-28T12:53:49.646Z</time>
      </trkpt>
      <trkpt lat="54.25422" lon="16.02069">
        <ele>36.486001</ele>
        <time>2024-07-28T12:53:51.646Z</time>
      </trkpt>
      <trkpt lat="54.25425" lon="16.0209">
        <ele>36.508128</ele>
        <time>2024-07-28T12:53:54.649Z</time>
      </trkpt>
      <trkpt lat="54.25426" lon="16.02112">
        <ele>36.532003</ele>
        <time>2024-07-28T12:53:57.651Z</time>
      </trkpt>
      <trkpt lat="54.25428" lon="16.02128">
        <ele>36.548571</ele>
        <time>2024-07-28T12:53:59.662Z</time>
      </trkpt>
      <trkpt lat="54.2543" lon="16.02143">
        <ele>36.565145</ele>
        <time>2024-07-28T12:54:01.648Z</time>
      </trkpt>
      <trkpt lat="54.25432" lon="16.02158">
        <ele>36.581399</ele>
        <time>2024-07-28T12:54:03.653Z</time>
      </trkpt>
      <trkpt lat="54.25434" lon="16.02175">
        <ele>36.598483</ele>
        <time>2024-07-28T12:54:05.654Z</time>
      </trkpt>
      <trkpt lat="54.25436" lon="16.02191">
        <ele>36.616335</ele>
        <time>2024-07-28T12:54:07.647Z</time>
      </trkpt>
      <trkpt lat="54.25437" lon="16.02207">
        <ele>36.632387</ele>
        <time>2024-07-28T12:54:09.662Z</time>
      </trkpt>
      <trkpt lat="54.25441" lon="16.02228">
        <ele>36.655772</ele>
        <time>2024-07-28T12:54:12.653Z</time>
      </trkpt>
      <trkpt lat="54.25444" lon="16.02243">
        <ele>36.672608</ele>
        <time>2024-07-28T12:54:14.661Z</time>
      </trkpt>
      <trkpt lat="54.25446" lon="16.0226">
        <ele>36.690494</ele>
        <time>2024-07-28T12:54:16.650Z</time>
      </trkpt>
      <trkpt lat="54.25447" lon="16.02277">
        <ele>36.82053</ele>
        <time>2024-07-28T12:54:18.649Z</time>
      </trkpt>
      <trkpt lat="54.25449" lon="16.02299">
        <ele>37.009822</ele>
        <time>2024-07-28T12:54:21.657Z</time>
      </trkpt>
      <trkpt lat="54.25452" lon="16.0232">
        <ele>37.200338</ele>
        <time>2024-07-28T12:54:24.650Z</time>
      </trkpt>
      <trkpt lat="54.25453" lon="16.02338">
        <ele>37.348935</ele>
        <time>2024-07-28T12:54:26.649Z</time>
      </trkpt>
      <trkpt lat="54.25453" lon="16.02353">
        <ele>37.483767</ele>
        <time>2024-07-28T12:54:28.660Z</time>
      </trkpt>
      <trkpt lat="54.25452" lon="16.02369">
        <ele>37.619658</ele>
        <time>2024-07-28T12:54:30.664Z</time>
      </trkpt>
      <trkpt lat="54.25452" lon="16.02386">
        <ele>37.761429</ele>
        <time>2024-07-28T12:54:32.641Z</time>
      </trkpt>
      <trkpt lat="54.25456" lon="16.02406">
        <ele>37.939964</ele>
        <time>2024-07-28T12:54:35.636Z</time>
      </trkpt>
      <trkpt lat="54.25459" lon="16.02428">
        <ele>38.13503</ele>
        <time>2024-07-28T12:54:38.665Z</time>
      </trkpt>
      <trkpt lat="54.2546" lon="16.02445">
        <ele>38.281833</ele>
        <time>2024-07-28T12:54:40.659Z</time>
      </trkpt>
      <trkpt lat="54.25463" lon="16.02459">
        <ele>38.415896</ele>
        <time>2024-07-28T12:54:42.633Z</time>
      </trkpt>
      <trkpt lat="54.25467" lon="16.0248">
        <ele>38.603043</ele>
        <time>2024-07-28T12:54:45.647Z</time>
      </trkpt>
      <trkpt lat="54.25468" lon="16.02498">
        <ele>38.755587</ele>
        <time>2024-07-28T12:54:47.661Z</time>
      </trkpt>
      <trkpt lat="54.25469" lon="16.02515">
        <ele>38.905891</ele>
        <time>2024-07-28T12:54:49.660Z</time>
      </trkpt>
      <trkpt lat="54.25472" lon="16.02532">
        <ele>39.056377</ele>
        <time>2024-07-28T12:54:51.647Z</time>
      </trkpt>
      <trkpt lat="54.25476" lon="16.02548">
        <ele>39.206032</ele>
        <time>2024-07-28T12:54:53.658Z</time>
      </trkpt>
      <trkpt lat="54.25479" lon="16.02563">
        <ele>39.340383</ele>
        <time>2024-07-28T12:54:55.654Z</time>
      </trkpt>
      <trkpt lat="54.25482" lon="16.02578">
        <ele>39.450768</ele>
        <time>2024-07-28T12:54:57.657Z</time>
      </trkpt>
      <trkpt lat="54.25485" lon="16.02594">
        <ele>39.563619</ele>
        <time>2024-07-28T12:54:59.646Z</time>
      </trkpt>
      <trkpt lat="54.25487" lon="16.02609">
        <ele>39.671956</ele>
        <time>2024-07-28T12:55:01.642Z</time>
      </trkpt>
      <trkpt lat="54.25489" lon="16.02625">
        <ele>39.784089</ele>
        <time>2024-07-28T12:55:03.648Z</time>
      </trkpt>
      <trkpt lat="54.25491" lon="16.02641">
        <ele>39.900398</ele>
        <time>2024-07-28T12:55:05.654Z</time>
      </trkpt>
      <trkpt lat="54.25494" lon="16.02665">
        <ele>40.072904</ele>
        <time>2024-07-28T12:55:08.647Z</time>
      </trkpt>
      <trkpt lat="54.25495" lon="16.02681">
        <ele>40.182033</ele>
        <time>2024-07-28T12:55:10.654Z</time>
      </trkpt>
      <trkpt lat="54.25497" lon="16.02705">
        <ele>40.351342</ele>
        <time>2024-07-28T12:55:13.670Z</time>
      </trkpt>
      <trkpt lat="54.25502" lon="16.02722">
        <ele>40.479192</ele>
        <time>2024-07-28T12:55:15.659Z</time>
      </trkpt>
      <trkpt lat="54.25508" lon="16.02737">
        <ele>40.60619</ele>
        <time>2024-07-28T12:55:17.652Z</time>
      </trkpt>
      <trkpt lat="54.25512" lon="16.02751">
        <ele>40.713998</ele>
        <time>2024-07-28T12:55:19.649Z</time>
      </trkpt>
      <trkpt lat="54.25519" lon="16.0277">
        <ele>40.866721</ele>
        <time>2024-07-28T12:55:22.643Z</time>
      </trkpt>
      <trkpt lat="54.25524" lon="16.02788">
        <ele>41.006219</ele>
        <time>2024-07-28T12:55:25.651Z</time>
      </trkpt>
      <trkpt lat="54.25528" lon="16.02809">
        <ele>41.160692</ele>
        <time>2024-07-28T12:55:28.670Z</time>
      </trkpt>
      <trkpt lat="54.2553" lon="16.0283">
        <ele>41.305364</ele>
        <time>2024-07-28T12:55:31.630Z</time>
      </trkpt>
      <trkpt lat="54.25533" lon="16.02851">
        <ele>41.459251</ele>
        <time>2024-07-28T12:55:34.661Z</time>
      </trkpt>
      <trkpt lat="54.25535" lon="16.02867">
        <ele>41.531456</ele>
        <time>2024-07-28T12:55:36.660Z</time>
      </trkpt>
      <trkpt lat="54.25539" lon="16.02883">
        <ele>41.601701</ele>
        <time>2024-07-28T12:55:38.650Z</time>
      </trkpt>
      <trkpt lat="54.25542" lon="16.02904">
        <ele>41.689496</ele>
        <time>2024-07-28T12:55:40.659Z</time>
      </trkpt>
      <trkpt lat="54.25545" lon="16.02922">
        <ele>41.76404</ele>
        <time>2024-07-28T12:55:42.651Z</time>
      </trkpt>
      <trkpt lat="54.25547" lon="16.0294">
        <ele>41.840498</ele>
        <time>2024-07-28T12:55:44.633Z</time>
      </trkpt>
      <trkpt lat="54.2555" lon="16.02957">
        <ele>41.913129</ele>
        <time>2024-07-28T12:55:46.645Z</time>
      </trkpt>
      <trkpt lat="54.25552" lon="16.02974">
        <ele>41.98633</ele>
        <time>2024-07-28T12:55:48.647Z</time>
      </trkpt>
      <trkpt lat="54.25555" lon="16.02991">
        <ele>42.059495</ele>
        <time>2024-07-28T12:55:50.661Z</time>
      </trkpt>
      <trkpt lat="54.25558" lon="16.03009">
        <ele>42.132359</ele>
        <time>2024-07-28T12:55:52.646Z</time>
      </trkpt>
      <trkpt lat="54.2556" lon="16.03025">
        <ele>42.200676</ele>
        <time>2024-07-28T12:55:54.647Z</time>
      </trkpt>
      <trkpt lat="54.25563" lon="16.03048">
        <ele>42.298447</ele>
        <time>2024-07-28T12:55:57.653Z</time>
      </trkpt>
      <trkpt lat="54.25565" lon="16.03068">
        <ele>42.381596</ele>
        <time>2024-07-28T12:56:00.666Z</time>
      </trkpt>
      <trkpt lat="54.25569" lon="16.03087">
        <ele>42.463666</ele>
        <time>2024-07-28T12:56:03.656Z</time>
      </trkpt>
      <trkpt lat="54.25572" lon="16.03107">
        <ele>42.547253</ele>
        <time>2024-07-28T12:56:06.663Z</time>
      </trkpt>
      <trkpt lat="54.25574" lon="16.03123">
        <ele>42.615103</ele>
        <time>2024-07-28T12:56:09.638Z</time>
      </trkpt>
      <trkpt lat="54.25575" lon="16.03128">
        <ele>42.639313</ele>
        <time>2024-07-28T12:56:18.097Z</time>
      </trkpt>
      <trkpt lat="54.25574" lon="16.03144">
        <ele>42.703893</ele>
        <time>2024-07-28T12:58:51.636Z</time>
      </trkpt>
      <trkpt lat="54.25581" lon="16.03157">
        <ele>42.634671</ele>
        <time>2024-07-28T12:59:02.658Z</time>
      </trkpt>
      <trkpt lat="54.25584" lon="16.03175">
        <ele>42.457895</ele>
        <time>2024-07-28T12:59:06.648Z</time>
      </trkpt>
      <trkpt lat="54.25585" lon="16.03193">
        <ele>42.288904</ele>
        <time>2024-07-28T12:59:09.641Z</time>
      </trkpt>
      <trkpt lat="54.25588" lon="16.03209">
        <ele>42.128945</ele>
        <time>2024-07-28T12:59:12.662Z</time>
      </trkpt>
      <trkpt lat="54.25591" lon="16.03225">
        <ele>41.966757</ele>
        <time>2024-07-28T12:59:15.649Z</time>
      </trkpt>
      <trkpt lat="54.25595" lon="16.03245">
        <ele>41.770976</ele>
        <time>2024-07-28T12:59:18.657Z</time>
      </trkpt>
      <trkpt lat="54.25596" lon="16.0326">
        <ele>41.624765</ele>
        <time>2024-07-28T12:59:20.690Z</time>
      </trkpt>
      <trkpt lat="54.25598" lon="16.03276">
        <ele>41.476742</ele>
        <time>2024-07-28T12:59:22.660Z</time>
      </trkpt>
      <trkpt lat="54.256" lon="16.03291">
        <ele>41.327969</ele>
        <time>2024-07-28T12:59:24.651Z</time>
      </trkpt>
      <trkpt lat="54.25601" lon="16.03307">
        <ele>41.175225</ele>
        <time>2024-07-28T12:59:26.654Z</time>
      </trkpt>
      <trkpt lat="54.25602" lon="16.03324">
        <ele>41.02031</ele>
        <time>2024-07-28T12:59:28.650Z</time>
      </trkpt>
      <trkpt lat="54.25605" lon="16.03343">
        <ele>40.830188</ele>
        <time>2024-07-28T12:59:30.638Z</time>
      </trkpt>
      <trkpt lat="54.25608" lon="16.03362">
        <ele>40.649831</ele>
        <time>2024-07-28T12:59:32.653Z</time>
      </trkpt>
      <trkpt lat="54.25611" lon="16.0338">
        <ele>40.468579</ele>
        <time>2024-07-28T12:59:34.656Z</time>
      </trkpt>
      <trkpt lat="54.25613" lon="16.03399">
        <ele>40.287566</ele>
        <time>2024-07-28T12:59:36.655Z</time>
      </trkpt>
      <trkpt lat="54.25614" lon="16.03421">
        <ele>40.076409</ele>
        <time>2024-07-28T12:59:39.654Z</time>
      </trkpt>
      <trkpt lat="54.25615" lon="16.0344">
        <ele>39.900073</ele>
        <time>2024-07-28T12:59:41.653Z</time>
      </trkpt>
      <trkpt lat="54.25616" lon="16.03458">
        <ele>39.86227</ele>
        <time>2024-07-28T12:59:43.637Z</time>
      </trkpt>
      <trkpt lat="54.25616" lon="16.03477">
        <ele>39.927894</ele>
        <time>2024-07-28T12:59:45.656Z</time>
      </trkpt>
      <trkpt lat="54.25617" lon="16.03496">
        <ele>39.991344</ele>
        <time>2024-07-28T12:59:47.653Z</time>
      </trkpt>
      <trkpt lat="54.25618" lon="16.03514">
        <ele>40.053053</ele>
        <time>2024-07-28T12:59:49.635Z</time>
      </trkpt>
      <trkpt lat="54.25618" lon="16.03534">
        <ele>40.122604</ele>
        <time>2024-07-28T12:59:52.657Z</time>
      </trkpt>
      <trkpt lat="54.25619" lon="16.03557">
        <ele>40.20017</ele>
        <time>2024-07-28T12:59:55.649Z</time>
      </trkpt>
      <trkpt lat="54.2562" lon="16.03579">
        <ele>40.276163</ele>
        <time>2024-07-28T12:59:58.638Z</time>
      </trkpt>
      <trkpt lat="54.25619" lon="16.03599">
        <ele>40.341501</ele>
        <time>2024-07-28T13:00:00.659Z</time>
      </trkpt>
      <trkpt lat="54.25621" lon="16.03615">
        <ele>40.397016</ele>
        <time>2024-07-28T13:00:02.665Z</time>
      </trkpt>
      <trkpt lat="54.25623" lon="16.0363">
        <ele>40.451513</ele>
        <time>2024-07-28T13:00:05.652Z</time>
      </trkpt>
      <trkpt lat="54.25627" lon="16.03645">
        <ele>40.506212</ele>
        <time>2024-07-28T13:00:08.647Z</time>
      </trkpt>
      <trkpt lat="54.25629" lon="16.03664">
        <ele>40.572029</ele>
        <time>2024-07-28T13:00:11.658Z</time>
      </trkpt>
      <trkpt lat="54.25634" lon="16.03681">
        <ele>40.636648</ele>
        <time>2024-07-28T13:00:14.646Z</time>
      </trkpt>
      <trkpt lat="54.25639" lon="16.03701">
        <ele>40.709347</ele>
        <time>2024-07-28T13:00:17.655Z</time>
      </trkpt>
      <trkpt lat="54.25643" lon="16.03722">
        <ele>40.78375</ele>
        <time>2024-07-28T13:00:20.648Z</time>
      </trkpt>
      <trkpt lat="54.25646" lon="16.03737">
        <ele>40.838737</ele>
        <time>2024-07-28T13:00:22.625Z</time>
      </trkpt>
      <trkpt lat="54.2565" lon="16.03759">
        <ele>40.820072</ele>
        <time>2024-07-28T13:00:25.649Z</time>
      </trkpt>
      <trkpt lat="54.25653" lon="16.03778">
        <ele>40.739878</ele>
        <time>2024-07-28T13:00:27.642Z</time>
      </trkpt>
      <trkpt lat="54.25656" lon="16.03793">
        <ele>40.672775</ele>
        <time>2024-07-28T13:00:29.662Z</time>
      </trkpt>
      <trkpt lat="54.25659" lon="16.03813">
        <ele>40.587062</ele>
        <time>2024-07-28T13:00:32.647Z</time>
      </trkpt>
      <trkpt lat="54.25663" lon="16.03833">
        <ele>40.502936</ele>
        <time>2024-07-28T13:00:35.652Z</time>
      </trkpt>
      <trkpt lat="54.25667" lon="16.03852">
        <ele>40.418977</ele>
        <time>2024-07-28T13:00:38.661Z</time>
      </trkpt>
      <trkpt lat="54.2567" lon="16.03867">
        <ele>40.353813</ele>
        <time>2024-07-28T13:00:40.662Z</time>
      </trkpt>
      <trkpt lat="54.25673" lon="16.03882">
        <ele>40.28926</ele>
        <time>2024-07-28T13:00:42.626Z</time>
      </trkpt>
      <trkpt lat="54.25676" lon="16.03896">
        <ele>40.223026</ele>
        <time>2024-07-28T13:00:44.646Z</time>
      </trkpt>
      <trkpt lat="54.25681" lon="16.03912">
        <ele>40.151058</ele>
        <time>2024-07-28T13:00:46.653Z</time>
      </trkpt>
      <trkpt lat="54.25685" lon="16.03929">
        <ele>40.078244</ele>
        <time>2024-07-28T13:00:48.659Z</time>
      </trkpt>
      <trkpt lat="54.25688" lon="16.03944">
        <ele>40.009276</ele>
        <time>2024-07-28T13:00:50.657Z</time>
      </trkpt>
      <trkpt lat="54.25692" lon="16.03964">
        <ele>39.923802</ele>
        <time>2024-07-28T13:00:53.628Z</time>
      </trkpt>
      <trkpt lat="54.25697" lon="16.03986">
        <ele>39.826687</ele>
        <time>2024-07-28T13:00:56.649Z</time>
      </trkpt>
      <trkpt lat="54.257" lon="16.04001">
        <ele>39.760908</ele>
        <time>2024-07-28T13:00:58.679Z</time>
      </trkpt>
      <trkpt lat="54.25702" lon="16.04019">
        <ele>39.684936</ele>
        <time>2024-07-28T13:01:00.644Z</time>
      </trkpt>
      <trkpt lat="54.25706" lon="16.0404">
        <ele>39.612752</ele>
        <time>2024-07-28T13:01:03.654Z</time>
      </trkpt>
      <trkpt lat="54.25706" lon="16.04057">
        <ele>39.68484</ele>
        <time>2024-07-28T13:01:05.650Z</time>
      </trkpt>
      <trkpt lat="54.25707" lon="16.04076">
        <ele>39.764883</ele>
        <time>2024-07-28T13:01:07.666Z</time>
      </trkpt>
      <trkpt lat="54.25709" lon="16.04094">
        <ele>39.839323</ele>
        <time>2024-07-28T13:01:09.641Z</time>
      </trkpt>
      <trkpt lat="54.25711" lon="16.04114">
        <ele>39.925407</ele>
        <time>2024-07-28T13:01:12.653Z</time>
      </trkpt>
      <trkpt lat="54.25711" lon="16.04134">
        <ele>40.007327</ele>
        <time>2024-07-28T13:01:15.650Z</time>
      </trkpt>
      <trkpt lat="54.25712" lon="16.04153">
        <ele>40.0864</ele>
        <time>2024-07-28T13:01:18.642Z</time>
      </trkpt>
      <trkpt lat="54.25714" lon="16.04174">
        <ele>40.175056</ele>
        <time>2024-07-28T13:01:21.646Z</time>
      </trkpt>
      <trkpt lat="54.25715" lon="16.04193">
        <ele>40.255059</ele>
        <time>2024-07-28T13:01:23.636Z</time>
      </trkpt>
      <trkpt lat="54.25716" lon="16.04209">
        <ele>40.323927</ele>
        <time>2024-07-28T13:01:25.648Z</time>
      </trkpt>
      <trkpt lat="54.25717" lon="16.04225">
        <ele>40.390227</ele>
        <time>2024-07-28T13:01:27.644Z</time>
      </trkpt>
      <trkpt lat="54.25718" lon="16.04241">
        <ele>40.455617</ele>
        <time>2024-07-28T13:01:29.635Z</time>
      </trkpt>
      <trkpt lat="54.25718" lon="16.04257">
        <ele>40.523133</ele>
        <time>2024-07-28T13:01:31.658Z</time>
      </trkpt>
      <trkpt lat="54.25719" lon="16.0428">
        <ele>40.617368</ele>
        <time>2024-07-28T13:01:34.646Z</time>
      </trkpt>
      <trkpt lat="54.25719" lon="16.04297">
        <ele>40.690705</ele>
        <time>2024-07-28T13:01:36.636Z</time>
      </trkpt>
      <trkpt lat="54.25719" lon="16.04313">
        <ele>40.75839</ele>
        <time>2024-07-28T13:01:38.669Z</time>
      </trkpt>
      <trkpt lat="54.2572" lon="16.0433">
        <ele>40.828269</ele>
        <time>2024-07-28T13:01:40.650Z</time>
      </trkpt>
      <trkpt lat="54.25719" lon="16.04352">
        <ele>40.83176</ele>
        <time>2024-07-28T13:01:42.691Z</time>
      </trkpt>
      <trkpt lat="54.2572" lon="16.04373">
        <ele>40.683006</ele>
        <time>2024-07-28T13:01:44.643Z</time>
      </trkpt>
      <trkpt lat="54.25721" lon="16.04391">
        <ele>40.557608</ele>
        <time>2024-07-28T13:01:46.649Z</time>
      </trkpt>
      <trkpt lat="54.2572" lon="16.04408">
        <ele>40.433055</ele>
        <time>2024-07-28T13:01:48.658Z</time>
      </trkpt>
      <trkpt lat="54.2572" lon="16.04424">
        <ele>40.319901</ele>
        <time>2024-07-28T13:01:50.649Z</time>
      </trkpt>
      <trkpt lat="54.2572" lon="16.04441">
        <ele>40.201852</ele>
        <time>2024-07-28T13:01:52.645Z</time>
      </trkpt>
      <trkpt lat="54.2572" lon="16.04457">
        <ele>40.090712</ele>
        <time>2024-07-28T13:01:54.653Z</time>
      </trkpt>
      <trkpt lat="54.2572" lon="16.04472">
        <ele>39.978089</ele>
        <time>2024-07-28T13:01:56.635Z</time>
      </trkpt>
      <trkpt lat="54.25721" lon="16.04494">
        <ele>39.82466</ele>
        <time>2024-07-28T13:01:59.646Z</time>
      </trkpt>
      <trkpt lat="54.25721" lon="16.0451">
        <ele>39.713658</ele>
        <time>2024-07-28T13:02:01.652Z</time>
      </trkpt>
      <trkpt lat="54.2572" lon="16.04526">
        <ele>39.60174</ele>
        <time>2024-07-28T13:02:03.655Z</time>
      </trkpt>
      <trkpt lat="54.25719" lon="16.04542">
        <ele>39.488417</ele>
        <time>2024-07-28T13:02:05.666Z</time>
      </trkpt>
      <trkpt lat="54.25717" lon="16.04563">
        <ele>39.33716</ele>
        <time>2024-07-28T13:02:08.652Z</time>
      </trkpt>
      <trkpt lat="54.25713" lon="16.04583">
        <ele>39.184093</ele>
        <time>2024-07-28T13:02:11.666Z</time>
      </trkpt>
      <trkpt lat="54.25707" lon="16.046">
        <ele>39.044906</ele>
        <time>2024-07-28T13:02:14.653Z</time>
      </trkpt>
      <trkpt lat="54.25701" lon="16.04611">
        <ele>38.929847</ele>
        <time>2024-07-28T13:02:17.639Z</time>
      </trkpt>
      <trkpt lat="54.25708" lon="16.046">
        <ele>38.812936</ele>
        <time>2024-07-28T13:02:32.638Z</time>
      </trkpt>
      <trkpt lat="54.25717" lon="16.04607">
        <ele>38.708442</ele>
        <time>2024-07-28T13:02:36.643Z</time>
      </trkpt>
      <trkpt lat="54.25726" lon="16.04615">
        <ele>38.695924</ele>
        <time>2024-07-28T13:02:41.647Z</time>
      </trkpt>
      <trkpt lat="54.25736" lon="16.04621">
        <ele>38.682167</ele>
        <time>2024-07-28T13:02:47.642Z</time>
      </trkpt>
      <trkpt lat="54.25743" lon="16.04638">
        <ele>38.666919</ele>
        <time>2024-07-28T13:02:51.651Z</time>
      </trkpt>
      <trkpt lat="54.25746" lon="16.04653">
        <ele>38.655347</ele>
        <time>2024-07-28T13:02:54.632Z</time>
      </trkpt>
      <trkpt lat="54.25752" lon="16.04667">
        <ele>38.642105</ele>
        <time>2024-07-28T13:02:57.653Z</time>
      </trkpt>
      <trkpt lat="54.25759" lon="16.0468">
        <ele>38.629228</ele>
        <time>2024-07-28T13:03:00.665Z</time>
      </trkpt>
      <trkpt lat="54.25764" lon="16.04694">
        <ele>38.616981</ele>
        <time>2024-07-28T13:03:03.653Z</time>
      </trkpt>
      <trkpt lat="54.25771" lon="16.04712">
        <ele>38.60108</ele>
        <time>2024-07-28T13:03:06.636Z</time>
      </trkpt>
      <trkpt lat="54.25775" lon="16.04729">
        <ele>38.587782</ele>
        <time>2024-07-28T13:03:08.626Z</time>
      </trkpt>
      <trkpt lat="54.25781" lon="16.04746">
        <ele>38.573353</ele>
        <time>2024-07-28T13:03:11.666Z</time>
      </trkpt>
      <trkpt lat="54.25786" lon="16.04761">
        <ele>38.56007</ele>
        <time>2024-07-28T13:03:13.637Z</time>
      </trkpt>
      <trkpt lat="54.25793" lon="16.04776">
        <ele>38.546844</ele>
        <time>2024-07-28T13:03:15.656Z</time>
      </trkpt>
      <trkpt lat="54.25797" lon="16.04793">
        <ele>38.532935</ele>
        <time>2024-07-28T13:03:17.645Z</time>
      </trkpt>
      <trkpt lat="54.25802" lon="16.04812">
        <ele>38.518028</ele>
        <time>2024-07-28T13:03:19.649Z</time>
      </trkpt>
      <trkpt lat="54.25805" lon="16.04828">
        <ele>38.505232</ele>
        <time>2024-07-28T13:03:21.654Z</time>
      </trkpt>
      <trkpt lat="54.25808" lon="16.04845">
        <ele>38.492302</ele>
        <time>2024-07-28T13:03:23.646Z</time>
      </trkpt>
      <trkpt lat="54.25811" lon="16.04862">
        <ele>38.463085</ele>
        <time>2024-07-28T13:03:25.667Z</time>
      </trkpt>
      <trkpt lat="54.25813" lon="16.04878">
        <ele>38.409248</ele>
        <time>2024-07-28T13:03:27.662Z</time>
      </trkpt>
      <trkpt lat="54.25817" lon="16.04897">
        <ele>38.346332</ele>
        <time>2024-07-28T13:03:30.654Z</time>
      </trkpt>
      <trkpt lat="54.25821" lon="16.04914">
        <ele>38.284019</ele>
        <time>2024-07-28T13:03:33.642Z</time>
      </trkpt>
      <trkpt lat="54.25825" lon="16.04935">
        <ele>38.213273</ele>
        <time>2024-07-28T13:03:36.644Z</time>
      </trkpt>
      <trkpt lat="54.25827" lon="16.04954">
        <ele>38.147885</ele>
        <time>2024-07-28T13:03:39.646Z</time>
      </trkpt>
      <trkpt lat="54.25828" lon="16.04971">
        <ele>38.09206</ele>
        <time>2024-07-28T13:03:42.647Z</time>
      </trkpt>
      <trkpt lat="54.25829" lon="16.04991">
        <ele>38.026501</ele>
        <time>2024-07-28T13:03:45.649Z</time>
      </trkpt>
      <trkpt lat="54.25831" lon="16.05013">
        <ele>37.956245</ele>
        <time>2024-07-28T13:03:48.664Z</time>
      </trkpt>
      <trkpt lat="54.25833" lon="16.05035">
        <ele>37.882937</ele>
        <time>2024-07-28T13:03:51.657Z</time>
      </trkpt>
      <trkpt lat="54.25835" lon="16.05056">
        <ele>37.812904</ele>
        <time>2024-07-28T13:03:54.645Z</time>
      </trkpt>
      <trkpt lat="54.25836" lon="16.05074">
        <ele>37.755192</ele>
        <time>2024-07-28T13:03:57.651Z</time>
      </trkpt>
      <trkpt lat="54.25838" lon="16.05093">
        <ele>37.690282</ele>
        <time>2024-07-28T13:04:01.652Z</time>
      </trkpt>
      <trkpt lat="54.25838" lon="16.0511">
        <ele>37.634274</ele>
        <time>2024-07-28T13:04:04.633Z</time>
      </trkpt>
      <trkpt lat="54.25837" lon="16.0513">
        <ele>37.568886</ele>
        <time>2024-07-28T13:04:07.648Z</time>
      </trkpt>
      <trkpt lat="54.25835" lon="16.05148">
        <ele>37.510599</ele>
        <time>2024-07-28T13:04:10.655Z</time>
      </trkpt>
      <trkpt lat="54.2583" lon="16.05163">
        <ele>37.499204</ele>
        <time>2024-07-28T13:04:15.645Z</time>
      </trkpt>
      <trkpt lat="54.25822" lon="16.05173">
        <ele>37.552928</ele>
        <time>2024-07-28T13:04:19.656Z</time>
      </trkpt>
      <trkpt lat="54.25814" lon="16.05183">
        <ele>37.608407</ele>
        <time>2024-07-28T13:04:24.645Z</time>
      </trkpt>
      <trkpt lat="54.25805" lon="16.05191">
        <ele>37.661177</ele>
        <time>2024-07-28T13:04:31.647Z</time>
      </trkpt>
      <trkpt lat="54.25799" lon="16.05203">
        <ele>37.70901</ele>
        <time>2024-07-28T13:04:36.652Z</time>
      </trkpt>
      <trkpt lat="54.25798" lon="16.05219">
        <ele>37.761345</ele>
        <time>2024-07-28T13:04:43.639Z</time>
      </trkpt>
      <trkpt lat="54.25805" lon="16.05233">
        <ele>37.816195</ele>
        <time>2024-07-28T13:04:47.619Z</time>
      </trkpt>
      <trkpt lat="54.25811" lon="16.05249">
        <ele>37.877326</ele>
        <time>2024-07-28T13:04:51.647Z</time>
      </trkpt>
      <trkpt lat="54.25818" lon="16.05261">
        <ele>37.927024</ele>
        <time>2024-07-28T13:04:54.646Z</time>
      </trkpt>
      <trkpt lat="54.25824" lon="16.05274">
        <ele>37.97891</ele>
        <time>2024-07-28T13:04:57.656Z</time>
      </trkpt>
      <trkpt lat="54.2583" lon="16.05288">
        <ele>38.032755</ele>
        <time>2024-07-28T13:05:00.654Z</time>
      </trkpt>
      <trkpt lat="54.25837" lon="16.05301">
        <ele>38.086421</ele>
        <time>2024-07-28T13:05:03.652Z</time>
      </trkpt>
      <trkpt lat="54.25843" lon="16.05313">
        <ele>38.138508</ele>
        <time>2024-07-28T13:05:06.646Z</time>
      </trkpt>
      <trkpt lat="54.25849" lon="16.05329">
        <ele>38.196681</ele>
        <time>2024-07-28T13:05:10.651Z</time>
      </trkpt>
      <trkpt lat="54.25854" lon="16.05342">
        <ele>38.245485</ele>
        <time>2024-07-28T13:05:13.643Z</time>
      </trkpt>
      <trkpt lat="54.25861" lon="16.05354">
        <ele>38.297169</ele>
        <time>2024-07-28T13:05:16.645Z</time>
      </trkpt>
      <trkpt lat="54.25864" lon="16.05369">
        <ele>38.346902</ele>
        <time>2024-07-28T13:05:19.633Z</time>
      </trkpt>
      <trkpt lat="54.25867" lon="16.05384">
        <ele>38.395888</ele>
        <time>2024-07-28T13:05:23.660Z</time>
      </trkpt>
      <trkpt lat="54.25871" lon="16.05398">
        <ele>38.42862</ele>
        <time>2024-07-28T13:05:29.637Z</time>
      </trkpt>
      <trkpt lat="54.25875" lon="16.05416">
        <ele>38.40784</ele>
        <time>2024-07-28T13:05:35.648Z</time>
      </trkpt>
      <trkpt lat="54.25878" lon="16.05435">
        <ele>38.387048</ele>
        <time>2024-07-28T13:05:39.672Z</time>
      </trkpt>
      <trkpt lat="54.25883" lon="16.0545">
        <ele>38.368531</ele>
        <time>2024-07-28T13:05:42.652Z</time>
      </trkpt>
      <trkpt lat="54.25886" lon="16.05468">
        <ele>38.3491</ele>
        <time>2024-07-28T13:05:45.647Z</time>
      </trkpt>
      <trkpt lat="54.25888" lon="16.05485">
        <ele>38.330338</ele>
        <time>2024-07-28T13:05:48.660Z</time>
      </trkpt>
      <trkpt lat="54.25891" lon="16.05502">
        <ele>38.310696</ele>
        <time>2024-07-28T13:05:51.662Z</time>
      </trkpt>
      <trkpt lat="54.25893" lon="16.05518">
        <ele>38.292868</ele>
        <time>2024-07-28T13:05:54.655Z</time>
      </trkpt>
      <trkpt lat="54.25898" lon="16.05536">
        <ele>38.271736</ele>
        <time>2024-07-28T13:05:58.656Z</time>
      </trkpt>
      <trkpt lat="54.25901" lon="16.05552">
        <ele>38.253647</ele>
        <time>2024-07-28T13:06:01.636Z</time>
      </trkpt>
      <trkpt lat="54.25902" lon="16.05569">
        <ele>38.235182</ele>
        <time>2024-07-28T13:06:04.652Z</time>
      </trkpt>
      <trkpt lat="54.25904" lon="16.05588">
        <ele>38.214108</ele>
        <time>2024-07-28T13:06:07.665Z</time>
      </trkpt>
      <trkpt lat="54.25906" lon="16.05609">
        <ele>38.191623</ele>
        <time>2024-07-28T13:06:10.673Z</time>
      </trkpt>
      <trkpt lat="54.25909" lon="16.05631">
        <ele>38.167654</ele>
        <time>2024-07-28T13:06:13.649Z</time>
      </trkpt>
      <trkpt lat="54.25912" lon="16.05651">
        <ele>38.145014</ele>
        <time>2024-07-28T13:06:16.646Z</time>
      </trkpt>
      <trkpt lat="54.25916" lon="16.05671">
        <ele>38.122734</ele>
        <time>2024-07-28T13:06:19.649Z</time>
      </trkpt>
      <trkpt lat="54.25919" lon="16.05692">
        <ele>38.0984</ele>
        <time>2024-07-28T13:06:22.648Z</time>
      </trkpt>
      <trkpt lat="54.25922" lon="16.05714">
        <ele>38.069544</ele>
        <time>2024-07-28T13:06:25.650Z</time>
      </trkpt>
      <trkpt lat="54.25924" lon="16.05734">
        <ele>38.041028</ele>
        <time>2024-07-28T13:06:28.663Z</time>
      </trkpt>
      <trkpt lat="54.25927" lon="16.05755">
        <ele>38.012656</ele>
        <time>2024-07-28T13:06:31.650Z</time>
      </trkpt>
      <trkpt lat="54.25929" lon="16.05775">
        <ele>37.986625</ele>
        <time>2024-07-28T13:06:34.660Z</time>
      </trkpt>
      <trkpt lat="54.25931" lon="16.0579">
        <ele>37.964895</ele>
        <time>2024-07-28T13:06:37.657Z</time>
      </trkpt>
      <trkpt lat="54.25932" lon="16.05807">
        <ele>37.942195</ele>
        <time>2024-07-28T13:06:40.644Z</time>
      </trkpt>
      <trkpt lat="54.25935" lon="16.05824">
        <ele>37.918892</ele>
        <time>2024-07-28T13:06:43.647Z</time>
      </trkpt>
      <trkpt lat="54.25937" lon="16.05841">
        <ele>37.896174</ele>
        <time>2024-07-28T13:06:48.649Z</time>
      </trkpt>
      <trkpt lat="54.2594" lon="16.05858">
        <ele>37.872398</ele>
        <time>2024-07-28T13:06:53.647Z</time>
      </trkpt>
      <trkpt lat="54.25943" lon="16.05875">
        <ele>37.849165</ele>
        <time>2024-07-28T13:06:56.638Z</time>
      </trkpt>
      <trkpt lat="54.25944" lon="16.05895">
        <ele>37.822714</ele>
        <time>2024-07-28T13:06:59.654Z</time>
      </trkpt>
      <trkpt lat="54.25945" lon="16.05915">
        <ele>37.796069</ele>
        <time>2024-07-28T13:07:02.646Z</time>
      </trkpt>
      <trkpt lat="54.2595" lon="16.05931">
        <ele>37.771317</ele>
        <time>2024-07-28T13:07:05.650Z</time>
      </trkpt>
      <trkpt lat="54.25954" lon="16.05947">
        <ele>37.748016</ele>
        <time>2024-07-28T13:07:08.651Z</time>
      </trkpt>
      <trkpt lat="54.25954" lon="16.05963">
        <ele>37.726867</ele>
        <time>2024-07-28T13:07:13.646Z</time>
      </trkpt>
      <trkpt lat="54.25956" lon="16.05979">
        <ele>37.705107</ele>
        <time>2024-07-28T13:07:17.637Z</time>
      </trkpt>
      <trkpt lat="54.25948" lon="16.05987">
        <ele>37.681559</ele>
        <time>2024-07-28T13:07:24.654Z</time>
      </trkpt>
      <trkpt lat="54.25949" lon="16.06005">
        <ele>37.649794</ele>
        <time>2024-07-28T13:07:28.666Z</time>
      </trkpt>
      <trkpt lat="54.25954" lon="16.06019">
        <ele>37.621224</ele>
        <time>2024-07-28T13:07:31.654Z</time>
      </trkpt>
      <trkpt lat="54.25958" lon="16.06036">
        <ele>37.589817</ele>
        <time>2024-07-28T13:07:34.652Z</time>
      </trkpt>
      <trkpt lat="54.2596" lon="16.06055">
        <ele>37.55394</ele>
        <time>2024-07-28T13:07:37.652Z</time>
      </trkpt>
      <trkpt lat="54.25964" lon="16.06077">
        <ele>37.514293</ele>
        <time>2024-07-28T13:07:40.645Z</time>
      </trkpt>
      <trkpt lat="54.25967" lon="16.06093">
        <ele>37.485043</ele>
        <time>2024-07-28T13:07:42.664Z</time>
      </trkpt>
      <trkpt lat="54.2597" lon="16.06109">
        <ele>37.454475</ele>
        <time>2024-07-28T13:07:44.649Z</time>
      </trkpt>
      <trkpt lat="54.25974" lon="16.06125">
        <ele>37.424017</ele>
        <time>2024-07-28T13:07:46.627Z</time>
      </trkpt>
      <trkpt lat="54.25977" lon="16.06142">
        <ele>37.391875</ele>
        <time>2024-07-28T13:07:48.669Z</time>
      </trkpt>
      <trkpt lat="54.2598" lon="16.06159">
        <ele>37.359378</ele>
        <time>2024-07-28T13:07:50.661Z</time>
      </trkpt>
      <trkpt lat="54.25984" lon="16.06176">
        <ele>37.326795</ele>
        <time>2024-07-28T13:07:52.677Z</time>
      </trkpt>
      <trkpt lat="54.25988" lon="16.06193">
        <ele>37.294841</ele>
        <time>2024-07-28T13:07:54.655Z</time>
      </trkpt>
      <trkpt lat="54.25991" lon="16.06211">
        <ele>37.261932</ele>
        <time>2024-07-28T13:07:56.639Z</time>
      </trkpt>
      <trkpt lat="54.25993" lon="16.0623">
        <ele>37.227987</ele>
        <time>2024-07-28T13:07:58.662Z</time>
      </trkpt>
      <trkpt lat="54.25994" lon="16.06248">
        <ele>37.19592</ele>
        <time>2024-07-28T13:08:00.634Z</time>
      </trkpt>
      <trkpt lat="54.25994" lon="16.06265">
        <ele>37.164442</ele>
        <time>2024-07-28T13:08:02.647Z</time>
      </trkpt>
      <trkpt lat="54.25994" lon="16.06282">
        <ele>37.125421</ele>
        <time>2024-07-28T13:08:04.656Z</time>
      </trkpt>
      <trkpt lat="54.25994" lon="16.063">
        <ele>37.062899</ele>
        <time>2024-07-28T13:08:06.640Z</time>
      </trkpt>
      <trkpt lat="54.25994" lon="16.06317">
        <ele>36.999666</ele>
        <time>2024-07-28T13:08:08.661Z</time>
      </trkpt>
      <trkpt lat="54.25994" lon="16.06335">
        <ele>36.9382</ele>
        <time>2024-07-28T13:08:10.661Z</time>
      </trkpt>
      <trkpt lat="54.25994" lon="16.06352">
        <ele>36.87672</ele>
        <time>2024-07-28T13:08:12.640Z</time>
      </trkpt>
      <trkpt lat="54.25994" lon="16.0637">
        <ele>36.812776</ele>
        <time>2024-07-28T13:08:14.625Z</time>
      </trkpt>
      <trkpt lat="54.25993" lon="16.06387">
        <ele>36.752436</ele>
        <time>2024-07-28T13:08:16.634Z</time>
      </trkpt>
      <trkpt lat="54.25992" lon="16.06403">
        <ele>36.695484</ele>
        <time>2024-07-28T13:08:18.659Z</time>
      </trkpt>
      <trkpt lat="54.25994" lon="16.0642">
        <ele>36.635361</ele>
        <time>2024-07-28T13:08:20.632Z</time>
      </trkpt>
      <trkpt lat="54.25996" lon="16.0644">
        <ele>36.561405</ele>
        <time>2024-07-28T13:08:23.642Z</time>
      </trkpt>
      <trkpt lat="54.26001" lon="16.06462">
        <ele>36.477648</ele>
        <time>2024-07-28T13:08:26.655Z</time>
      </trkpt>
      <trkpt lat="54.26005" lon="16.06478">
        <ele>36.415206</ele>
        <time>2024-07-28T13:08:28.643Z</time>
      </trkpt>
      <trkpt lat="54.2601" lon="16.06493">
        <ele>36.354114</ele>
        <time>2024-07-28T13:08:30.671Z</time>
      </trkpt>
      <trkpt lat="54.26015" lon="16.06509">
        <ele>36.290007</ele>
        <time>2024-07-28T13:08:32.636Z</time>
      </trkpt>
      <trkpt lat="54.2602" lon="16.06524">
        <ele>36.228966</ele>
        <time>2024-07-28T13:08:34.642Z</time>
      </trkpt>
      <trkpt lat="54.26024" lon="16.06539">
        <ele>36.169612</ele>
        <time>2024-07-28T13:08:36.637Z</time>
      </trkpt>
      <trkpt lat="54.26029" lon="16.06554">
        <ele>36.107853</ele>
        <time>2024-07-28T13:08:38.663Z</time>
      </trkpt>
      <trkpt lat="54.26034" lon="16.0657">
        <ele>36.050483</ele>
        <time>2024-07-28T13:08:40.659Z</time>
      </trkpt>
      <trkpt lat="54.26039" lon="16.06585">
        <ele>36.042327</ele>
        <time>2024-07-28T13:08:42.657Z</time>
      </trkpt>
      <trkpt lat="54.26043" lon="16.066">
        <ele>36.034329</ele>
        <time>2024-07-28T13:08:44.651Z</time>
      </trkpt>
      <trkpt lat="54.26049" lon="16.06616">
        <ele>36.026015</ele>
        <time>2024-07-28T13:08:46.631Z</time>
      </trkpt>
      <trkpt lat="54.26054" lon="16.06631">
        <ele>36.017819</ele>
        <time>2024-07-28T13:08:48.652Z</time>
      </trkpt>
      <trkpt lat="54.26059" lon="16.06646">
        <ele>36.00982</ele>
        <time>2024-07-28T13:08:50.649Z</time>
      </trkpt>
      <trkpt lat="54.26064" lon="16.0666">
        <ele>36.001972</ele>
        <time>2024-07-28T13:08:52.667Z</time>
      </trkpt>
      <trkpt lat="54.26069" lon="16.06675">
        <ele>35.993897</ele>
        <time>2024-07-28T13:08:54.643Z</time>
      </trkpt>
      <trkpt lat="54.26074" lon="16.06689">
        <ele>35.986343</ele>
        <time>2024-07-28T13:08:56.636Z</time>
      </trkpt>
      <trkpt lat="54.2608" lon="16.06706">
        <ele>35.97763</ele>
        <time>2024-07-28T13:08:58.654Z</time>
      </trkpt>
      <trkpt lat="54.26087" lon="16.0672">
        <ele>35.969186</ele>
        <time>2024-07-28T13:09:00.644Z</time>
      </trkpt>
      <trkpt lat="54.26092" lon="16.06734">
        <ele>35.961472</ele>
        <time>2024-07-28T13:09:02.667Z</time>
      </trkpt>
      <trkpt lat="54.26096" lon="16.06749">
        <ele>35.953578</ele>
        <time>2024-07-28T13:09:04.658Z</time>
      </trkpt>
      <trkpt lat="54.261" lon="16.06765">
        <ele>35.94551</ele>
        <time>2024-07-28T13:09:06.642Z</time>
      </trkpt>
      <trkpt lat="54.26104" lon="16.0678">
        <ele>35.937793</ele>
        <time>2024-07-28T13:09:08.649Z</time>
      </trkpt>
      <trkpt lat="54.26108" lon="16.06796">
        <ele>35.929607</ele>
        <time>2024-07-28T13:09:10.667Z</time>
      </trkpt>
      <trkpt lat="54.26113" lon="16.06811">
        <ele>35.922157</ele>
        <time>2024-07-28T13:09:12.662Z</time>
      </trkpt>
      <trkpt lat="54.26117" lon="16.06824">
        <ele>35.915042</ele>
        <time>2024-07-28T13:09:14.628Z</time>
      </trkpt>
      <trkpt lat="54.26121" lon="16.06839">
        <ele>35.904882</ele>
        <time>2024-07-28T13:09:16.666Z</time>
      </trkpt>
      <trkpt lat="54.26126" lon="16.06853">
        <ele>35.876916</ele>
        <time>2024-07-28T13:09:18.652Z</time>
      </trkpt>
      <trkpt lat="54.26131" lon="16.06866">
        <ele>35.848496</ele>
        <time>2024-07-28T13:09:20.666Z</time>
      </trkpt>
      <trkpt lat="54.26136" lon="16.0688">
        <ele>35.820353</ele>
        <time>2024-07-28T13:09:22.649Z</time>
      </trkpt>
      <trkpt lat="54.2614" lon="16.06894">
        <ele>35.791887</ele>
        <time>2024-07-28T13:09:24.654Z</time>
      </trkpt>
      <trkpt lat="54.26144" lon="16.0691">
        <ele>35.762102</ele>
        <time>2024-07-28T13:09:26.634Z</time>
      </trkpt>
      <trkpt lat="54.26149" lon="16.06925">
        <ele>35.732017</ele>
        <time>2024-07-28T13:09:28.670Z</time>
      </trkpt>
      <trkpt lat="54.26154" lon="16.06939">
        <ele>35.702688</ele>
        <time>2024-07-28T13:09:30.636Z</time>
      </trkpt>
      <trkpt lat="54.26159" lon="16.06954">
        <ele>35.673774</ele>
        <time>2024-07-28T13:09:32.634Z</time>
      </trkpt>
      <trkpt lat="54.26163" lon="16.06969">
        <ele>35.644995</ele>
        <time>2024-07-28T13:09:34.621Z</time>
      </trkpt>
      <trkpt lat="54.26168" lon="16.06983">
        <ele>35.615216</ele>
        <time>2024-07-28T13:09:36.649Z</time>
      </trkpt>
      <trkpt lat="54.26173" lon="16.06998">
        <ele>35.586497</ele>
        <time>2024-07-28T13:09:38.647Z</time>
      </trkpt>
      <trkpt lat="54.26178" lon="16.07013">
        <ele>35.555959</ele>
        <time>2024-07-28T13:09:40.656Z</time>
      </trkpt>
      <trkpt lat="54.26182" lon="16.07027">
        <ele>35.527337</ele>
        <time>2024-07-28T13:09:42.649Z</time>
      </trkpt>
      <trkpt lat="54.26187" lon="16.07043">
        <ele>35.497059</ele>
        <time>2024-07-28T13:09:44.656Z</time>
      </trkpt>
      <trkpt lat="54.26192" lon="16.07057">
        <ele>35.466976</ele>
        <time>2024-07-28T13:09:46.642Z</time>
      </trkpt>
      <trkpt lat="54.26197" lon="16.07072">
        <ele>35.436893</ele>
        <time>2024-07-28T13:09:48.618Z</time>
      </trkpt>
      <trkpt lat="54.26202" lon="16.07086">
        <ele>35.407719</ele>
        <time>2024-07-28T13:09:50.651Z</time>
      </trkpt>
      <trkpt lat="54.26207" lon="16.07101">
        <ele>35.378681</ele>
        <time>2024-07-28T13:09:52.670Z</time>
      </trkpt>
      <trkpt lat="54.26212" lon="16.07116">
        <ele>35.374982</ele>
        <time>2024-07-28T13:09:54.653Z</time>
      </trkpt>
      <trkpt lat="54.26217" lon="16.0713">
        <ele>35.383082</ele>
        <time>2024-07-28T13:09:56.640Z</time>
      </trkpt>
      <trkpt lat="54.26222" lon="16.07146">
        <ele>35.391723</ele>
        <time>2024-07-28T13:09:58.630Z</time>
      </trkpt>
      <trkpt lat="54.26226" lon="16.07161">
        <ele>35.399873</ele>
        <time>2024-07-28T13:10:00.650Z</time>
      </trkpt>
      <trkpt lat="54.2623" lon="16.07175">
        <ele>35.407458</ele>
        <time>2024-07-28T13:10:02.670Z</time>
      </trkpt>
      <trkpt lat="54.26234" lon="16.0719">
        <ele>35.415268</ele>
        <time>2024-07-28T13:10:04.663Z</time>
      </trkpt>
      <trkpt lat="54.26239" lon="16.07204">
        <ele>35.422995</ele>
        <time>2024-07-28T13:10:06.638Z</time>
      </trkpt>
      <trkpt lat="54.26243" lon="16.07218">
        <ele>35.430529</ele>
        <time>2024-07-28T13:10:08.659Z</time>
      </trkpt>
      <trkpt lat="54.26247" lon="16.07232">
        <ele>35.437977</ele>
        <time>2024-07-28T13:10:10.659Z</time>
      </trkpt>
      <trkpt lat="54.26254" lon="16.07252">
        <ele>35.449235</ele>
        <time>2024-07-28T13:10:13.634Z</time>
      </trkpt>
      <trkpt lat="54.26259" lon="16.07265">
        <ele>35.456837</ele>
        <time>2024-07-28T13:10:15.648Z</time>
      </trkpt>
      <trkpt lat="54.26265" lon="16.07286">
        <ele>35.467831</ele>
        <time>2024-07-28T13:10:18.671Z</time>
      </trkpt>
      <trkpt lat="54.26271" lon="16.07306">
        <ele>35.478819</ele>
        <time>2024-07-28T13:10:21.652Z</time>
      </trkpt>
      <trkpt lat="54.26274" lon="16.07321">
        <ele>35.486292</ele>
        <time>2024-07-28T13:10:23.658Z</time>
      </trkpt>
      <trkpt lat="54.26279" lon="16.07342">
        <ele>35.49735</ele>
        <time>2024-07-28T13:10:26.662Z</time>
      </trkpt>
      <trkpt lat="54.26284" lon="16.07363">
        <ele>35.508246</ele>
        <time>2024-07-28T13:10:29.670Z</time>
      </trkpt>
      <trkpt lat="54.26286" lon="16.07378">
        <ele>35.515779</ele>
        <time>2024-07-28T13:10:31.634Z</time>
      </trkpt>
      <trkpt lat="54.26289" lon="16.07394">
        <ele>35.475193</ele>
        <time>2024-07-28T13:10:33.658Z</time>
      </trkpt>
      <trkpt lat="54.26292" lon="16.0741">
        <ele>35.420654</ele>
        <time>2024-07-28T13:10:35.669Z</time>
      </trkpt>
      <trkpt lat="54.26295" lon="16.07424">
        <ele>35.368758</ele>
        <time>2024-07-28T13:10:37.648Z</time>
      </trkpt>
      <trkpt lat="54.26298" lon="16.0744">
        <ele>35.315327</ele>
        <time>2024-07-28T13:10:39.652Z</time>
      </trkpt>
      <trkpt lat="54.26301" lon="16.07455">
        <ele>35.261919</ele>
        <time>2024-07-28T13:10:41.649Z</time>
      </trkpt>
      <trkpt lat="54.26304" lon="16.07471">
        <ele>35.205305</ele>
        <time>2024-07-28T13:10:43.662Z</time>
      </trkpt>
      <trkpt lat="54.26307" lon="16.07487">
        <ele>35.149214</ele>
        <time>2024-07-28T13:10:45.666Z</time>
      </trkpt>
      <trkpt lat="54.26311" lon="16.07502">
        <ele>35.094891</ele>
        <time>2024-07-28T13:10:47.649Z</time>
      </trkpt>
      <trkpt lat="54.26316" lon="16.07518">
        <ele>35.037591</ele>
        <time>2024-07-28T13:10:49.662Z</time>
      </trkpt>
      <trkpt lat="54.26321" lon="16.07534">
        <ele>34.975517</ele>
        <time>2024-07-28T13:10:51.658Z</time>
      </trkpt>
      <trkpt lat="54.26326" lon="16.0755">
        <ele>34.916256</ele>
        <time>2024-07-28T13:10:53.647Z</time>
      </trkpt>
      <trkpt lat="54.26332" lon="16.07565">
        <ele>34.855652</ele>
        <time>2024-07-28T13:10:55.670Z</time>
      </trkpt>
      <trkpt lat="54.2634" lon="16.07576">
        <ele>34.797905</ele>
        <time>2024-07-28T13:10:57.638Z</time>
      </trkpt>
      <trkpt lat="54.26349" lon="16.07586">
        <ele>34.737281</ele>
        <time>2024-07-28T13:10:59.640Z</time>
      </trkpt>
      <trkpt lat="54.26359" lon="16.07593">
        <ele>34.676262</ele>
        <time>2024-07-28T13:11:01.636Z</time>
      </trkpt>
      <trkpt lat="54.26368" lon="16.07602">
        <ele>34.6145</ele>
        <time>2024-07-28T13:11:03.661Z</time>
      </trkpt>
      <trkpt lat="54.26377" lon="16.07612">
        <ele>34.555189</ele>
        <time>2024-07-28T13:11:05.633Z</time>
      </trkpt>
      <trkpt lat="54.26386" lon="16.07624">
        <ele>34.50269</ele>
        <time>2024-07-28T13:11:07.651Z</time>
      </trkpt>
      <trkpt lat="54.26393" lon="16.0764">
        <ele>34.573354</ele>
        <time>2024-07-28T13:11:09.650Z</time>
      </trkpt>
      <trkpt lat="54.264" lon="16.07657">
        <ele>34.646033</ele>
        <time>2024-07-28T13:11:11.649Z</time>
      </trkpt>
      <trkpt lat="54.26405" lon="16.07674">
        <ele>34.715678</ele>
        <time>2024-07-28T13:11:13.639Z</time>
      </trkpt>
      <trkpt lat="54.26411" lon="16.07689">
        <ele>34.780783</ele>
        <time>2024-07-28T13:11:15.652Z</time>
      </trkpt>
      <trkpt lat="54.26417" lon="16.07705">
        <ele>34.849265</ele>
        <time>2024-07-28T13:11:17.664Z</time>
      </trkpt>
      <trkpt lat="54.26423" lon="16.07721">
        <ele>34.916459</ele>
        <time>2024-07-28T13:11:19.644Z</time>
      </trkpt>
      <trkpt lat="54.2643" lon="16.07737">
        <ele>34.986407</ele>
        <time>2024-07-28T13:11:21.642Z</time>
      </trkpt>
      <trkpt lat="54.26436" lon="16.07753">
        <ele>35.052518</ele>
        <time>2024-07-28T13:11:23.652Z</time>
      </trkpt>
      <trkpt lat="54.26442" lon="16.07768">
        <ele>35.118289</ele>
        <time>2024-07-28T13:11:25.669Z</time>
      </trkpt>
      <trkpt lat="54.26448" lon="16.07784">
        <ele>35.184652</ele>
        <time>2024-07-28T13:11:27.676Z</time>
      </trkpt>
      <trkpt lat="54.26454" lon="16.078">
        <ele>35.253465</ele>
        <time>2024-07-28T13:11:29.655Z</time>
      </trkpt>
      <trkpt lat="54.26459" lon="16.07817">
        <ele>35.319594</ele>
        <time>2024-07-28T13:11:31.649Z</time>
      </trkpt>
      <trkpt lat="54.26464" lon="16.07833">
        <ele>35.387092</ele>
        <time>2024-07-28T13:11:33.656Z</time>
      </trkpt>
      <trkpt lat="54.26471" lon="16.07849">
        <ele>35.456046</ele>
        <time>2024-07-28T13:11:35.652Z</time>
      </trkpt>
      <trkpt lat="54.26477" lon="16.07865">
        <ele>35.523778</ele>
        <time>2024-07-28T13:11:37.637Z</time>
      </trkpt>
      <trkpt lat="54.26483" lon="16.07881">
        <ele>35.591601</ele>
        <time>2024-07-28T13:11:39.666Z</time>
      </trkpt>
      <trkpt lat="54.26489" lon="16.07897">
        <ele>35.625306</ele>
        <time>2024-07-28T13:11:41.657Z</time>
      </trkpt>
      <trkpt lat="54.26494" lon="16.07912">
        <ele>35.6587</ele>
        <time>2024-07-28T13:11:43.674Z</time>
      </trkpt>
      <trkpt lat="54.265" lon="16.07928">
        <ele>35.693082</ele>
        <time>2024-07-28T13:11:45.643Z</time>
      </trkpt>
      <trkpt lat="54.26507" lon="16.07943">
        <ele>35.727426</ele>
        <time>2024-07-28T13:11:47.654Z</time>
      </trkpt>
      <trkpt lat="54.26513" lon="16.0796">
        <ele>35.762555</ele>
        <time>2024-07-28T13:11:49.642Z</time>
      </trkpt>
      <trkpt lat="54.26519" lon="16.07976">
        <ele>35.797047</ele>
        <time>2024-07-28T13:11:51.662Z</time>
      </trkpt>
      <trkpt lat="54.26524" lon="16.07993">
        <ele>35.831297</ele>
        <time>2024-07-28T13:11:53.664Z</time>
      </trkpt>
      <trkpt lat="54.26528" lon="16.08009">
        <ele>35.863847</ele>
        <time>2024-07-28T13:11:55.664Z</time>
      </trkpt>
      <trkpt lat="54.26532" lon="16.08027">
        <ele>35.898814</ele>
        <time>2024-07-28T13:11:57.654Z</time>
      </trkpt>
      <trkpt lat="54.26538" lon="16.08043">
        <ele>35.932518</ele>
        <time>2024-07-28T13:11:59.652Z</time>
      </trkpt>
      <trkpt lat="54.26543" lon="16.0806">
        <ele>35.967003</ele>
        <time>2024-07-28T13:12:01.653Z</time>
      </trkpt>
      <trkpt lat="54.26549" lon="16.08076">
        <ele>36.002271</ele>
        <time>2024-07-28T13:12:03.675Z</time>
      </trkpt>
      <trkpt lat="54.26555" lon="16.08092">
        <ele>36.037238</ele>
        <time>2024-07-28T13:12:05.669Z</time>
      </trkpt>
      <trkpt lat="54.26562" lon="16.08106">
        <ele>36.069616</ele>
        <time>2024-07-28T13:12:07.666Z</time>
      </trkpt>
      <trkpt lat="54.2657" lon="16.08117">
        <ele>36.100547</ele>
        <time>2024-07-28T13:12:09.661Z</time>
      </trkpt>
      <trkpt lat="54.26578" lon="16.08127">
        <ele>36.131333</ele>
        <time>2024-07-28T13:12:11.670Z</time>
      </trkpt>
      <trkpt lat="54.26586" lon="16.08136">
        <ele>36.173912</ele>
        <time>2024-07-28T13:12:13.645Z</time>
      </trkpt>
      <trkpt lat="54.26594" lon="16.08146">
        <ele>36.235561</ele>
        <time>2024-07-28T13:12:15.647Z</time>
      </trkpt>
      <trkpt lat="54.26602" lon="16.08155">
        <ele>36.298501</ele>
        <time>2024-07-28T13:12:17.663Z</time>
      </trkpt>
      <trkpt lat="54.2661" lon="16.08164">
        <ele>36.360904</ele>
        <time>2024-07-28T13:12:19.648Z</time>
      </trkpt>
      <trkpt lat="54.26618" lon="16.08175">
        <ele>36.426517</ele>
        <time>2024-07-28T13:12:21.654Z</time>
      </trkpt>
      <trkpt lat="54.26625" lon="16.08187">
        <ele>36.489774</ele>
        <time>2024-07-28T13:12:23.648Z</time>
      </trkpt>
      <trkpt lat="54.26631" lon="16.08201">
        <ele>36.554163</ele>
        <time>2024-07-28T13:12:25.644Z</time>
      </trkpt>
      <trkpt lat="54.26636" lon="16.08215">
        <ele>36.615703</ele>
        <time>2024-07-28T13:12:27.649Z</time>
      </trkpt>
      <trkpt lat="54.26641" lon="16.08229">
        <ele>36.675614</ele>
        <time>2024-07-28T13:12:29.662Z</time>
      </trkpt>
      <trkpt lat="54.26647" lon="16.08242">
        <ele>36.73752</ele>
        <time>2024-07-28T13:12:31.643Z</time>
      </trkpt>
      <trkpt lat="54.26652" lon="16.08256">
        <ele>36.799121</ele>
        <time>2024-07-28T13:12:33.644Z</time>
      </trkpt>
      <trkpt lat="54.26656" lon="16.08271">
        <ele>36.862058</ele>
        <time>2024-07-28T13:12:35.646Z</time>
      </trkpt>
      <trkpt lat="54.26661" lon="16.08285">
        <ele>36.922641</ele>
        <time>2024-07-28T13:12:37.655Z</time>
      </trkpt>
      <trkpt lat="54.26665" lon="16.08301">
        <ele>36.987385</ele>
        <time>2024-07-28T13:12:39.663Z</time>
      </trkpt>
      <trkpt lat="54.26669" lon="16.08317">
        <ele>37.052809</ele>
        <time>2024-07-28T13:12:41.668Z</time>
      </trkpt>
      <trkpt lat="54.26673" lon="16.08333">
        <ele>37.115392</ele>
        <time>2024-07-28T13:12:43.651Z</time>
      </trkpt>
      <trkpt lat="54.26675" lon="16.08348">
        <ele>37.176259</ele>
        <time>2024-07-28T13:12:45.656Z</time>
      </trkpt>
      <trkpt lat="54.26679" lon="16.08364">
        <ele>37.237363</ele>
        <time>2024-07-28T13:12:47.640Z</time>
      </trkpt>
      <trkpt lat="54.26681" lon="16.08381">
        <ele>37.296035</ele>
        <time>2024-07-28T13:12:49.667Z</time>
      </trkpt>
      <trkpt lat="54.26684" lon="16.08396">
        <ele>37.220659</ele>
        <time>2024-07-28T13:12:51.666Z</time>
      </trkpt>
      <trkpt lat="54.26686" lon="16.08413">
        <ele>37.139934</ele>
        <time>2024-07-28T13:12:53.648Z</time>
      </trkpt>
      <trkpt lat="54.26689" lon="16.0843">
        <ele>37.058525</ele>
        <time>2024-07-28T13:12:55.655Z</time>
      </trkpt>
      <trkpt lat="54.26691" lon="16.08448">
        <ele>36.972793</ele>
        <time>2024-07-28T13:12:57.650Z</time>
      </trkpt>
      <trkpt lat="54.26694" lon="16.08465">
        <ele>36.887834</ele>
        <time>2024-07-28T13:12:59.667Z</time>
      </trkpt>
      <trkpt lat="54.26697" lon="16.08482">
        <ele>36.805774</ele>
        <time>2024-07-28T13:13:01.660Z</time>
      </trkpt>
      <trkpt lat="54.26701" lon="16.08499">
        <ele>36.724926</ele>
        <time>2024-07-28T13:13:03.651Z</time>
      </trkpt>
      <trkpt lat="54.26703" lon="16.08516">
        <ele>36.641228</ele>
        <time>2024-07-28T13:13:05.628Z</time>
      </trkpt>
      <trkpt lat="54.26706" lon="16.08532">
        <ele>36.563409</ele>
        <time>2024-07-28T13:13:07.668Z</time>
      </trkpt>
      <trkpt lat="54.26709" lon="16.08548">
        <ele>36.485135</ele>
        <time>2024-07-28T13:13:09.668Z</time>
      </trkpt>
      <trkpt lat="54.26713" lon="16.08564">
        <ele>36.407154</ele>
        <time>2024-07-28T13:13:11.652Z</time>
      </trkpt>
      <trkpt lat="54.26718" lon="16.08584">
        <ele>36.302511</ele>
        <time>2024-07-28T13:13:14.650Z</time>
      </trkpt>
      <trkpt lat="54.26725" lon="16.08604">
        <ele>36.196178</ele>
        <time>2024-07-28T13:13:17.657Z</time>
      </trkpt>
      <trkpt lat="54.2673" lon="16.08626">
        <ele>36.088235</ele>
        <time>2024-07-28T13:13:20.654Z</time>
      </trkpt>
      <trkpt lat="54.26734" lon="16.0864">
        <ele>36.013179</ele>
        <time>2024-07-28T13:13:22.651Z</time>
      </trkpt>
      <trkpt lat="54.26739" lon="16.08654">
        <ele>35.936941</ele>
        <time>2024-07-28T13:13:24.671Z</time>
      </trkpt>
      <trkpt lat="54.26743" lon="16.08669">
        <ele>35.854945</ele>
        <time>2024-07-28T13:13:26.651Z</time>
      </trkpt>
      <trkpt lat="54.26747" lon="16.08683">
        <ele>35.71833</ele>
        <time>2024-07-28T13:13:28.675Z</time>
      </trkpt>
      <trkpt lat="54.26752" lon="16.08698">
        <ele>35.577098</ele>
        <time>2024-07-28T13:13:30.661Z</time>
      </trkpt>
      <trkpt lat="54.26756" lon="16.08715">
        <ele>35.421459</ele>
        <time>2024-07-28T13:13:33.649Z</time>
      </trkpt>
      <trkpt lat="54.26759" lon="16.08731">
        <ele>35.280591</ele>
        <time>2024-07-28T13:13:38.637Z</time>
      </trkpt>
      <trkpt lat="54.26763" lon="16.08746">
        <ele>35.134257</ele>
        <time>2024-07-28T13:13:44.665Z</time>
      </trkpt>
      <trkpt lat="54.26768" lon="16.08763">
        <ele>34.97052</ele>
        <time>2024-07-28T13:13:48.653Z</time>
      </trkpt>
      <trkpt lat="54.26773" lon="16.08779">
        <ele>34.819848</ele>
        <time>2024-07-28T13:13:51.630Z</time>
      </trkpt>
      <trkpt lat="54.26777" lon="16.08799">
        <ele>34.639094</ele>
        <time>2024-07-28T13:13:54.636Z</time>
      </trkpt>
      <trkpt lat="54.26784" lon="16.08818">
        <ele>34.442114</ele>
        <time>2024-07-28T13:13:57.644Z</time>
      </trkpt>
      <trkpt lat="54.26789" lon="16.08832">
        <ele>34.302201</ele>
        <time>2024-07-28T13:13:59.648Z</time>
      </trkpt>
      <trkpt lat="54.26794" lon="16.08847">
        <ele>34.158605</ele>
        <time>2024-07-28T13:14:01.644Z</time>
      </trkpt>
      <trkpt lat="54.268" lon="16.08859">
        <ele>34.023528</ele>
        <time>2024-07-28T13:14:03.662Z</time>
      </trkpt>
      <trkpt lat="54.26806" lon="16.08872">
        <ele>33.885549</ele>
        <time>2024-07-28T13:14:05.640Z</time>
      </trkpt>
      <trkpt lat="54.26812" lon="16.08883">
        <ele>33.752327</ele>
        <time>2024-07-28T13:14:07.642Z</time>
      </trkpt>
      <trkpt lat="54.26819" lon="16.08895">
        <ele>33.610513</ele>
        <time>2024-07-28T13:14:09.628Z</time>
      </trkpt>
      <trkpt lat="54.26826" lon="16.08906">
        <ele>33.470127</ele>
        <time>2024-07-28T13:14:11.646Z</time>
      </trkpt>
      <trkpt lat="54.26833" lon="16.08917">
        <ele>33.330817</ele>
        <time>2024-07-28T13:14:13.642Z</time>
      </trkpt>
      <trkpt lat="54.2684" lon="16.08929">
        <ele>33.210075</ele>
        <time>2024-07-28T13:14:15.659Z</time>
      </trkpt>
      <trkpt lat="54.26847" lon="16.0894">
        <ele>33.120886</ele>
        <time>2024-07-28T13:14:17.652Z</time>
      </trkpt>
      <trkpt lat="54.26855" lon="16.0895">
        <ele>33.031262</ele>
        <time>2024-07-28T13:14:19.662Z</time>
      </trkpt>
      <trkpt lat="54.26863" lon="16.08961">
        <ele>32.940705</ele>
        <time>2024-07-28T13:14:21.645Z</time>
      </trkpt>
      <trkpt lat="54.26871" lon="16.08971">
        <ele>32.850136</ele>
        <time>2024-07-28T13:14:23.651Z</time>
      </trkpt>
      <trkpt lat="54.26878" lon="16.08982">
        <ele>32.764712</ele>
        <time>2024-07-28T13:14:25.662Z</time>
      </trkpt>
      <trkpt lat="54.26885" lon="16.08992">
        <ele>32.679036</ele>
        <time>2024-07-28T13:14:27.645Z</time>
      </trkpt>
      <trkpt lat="54.26893" lon="16.09003">
        <ele>32.584694</ele>
        <time>2024-07-28T13:14:29.640Z</time>
      </trkpt>
      <trkpt lat="54.269" lon="16.09014">
        <ele>32.498292</ele>
        <time>2024-07-28T13:14:31.656Z</time>
      </trkpt>
      <trkpt lat="54.26907" lon="16.09025">
        <ele>32.408104</ele>
        <time>2024-07-28T13:14:33.644Z</time>
      </trkpt>
      <trkpt lat="54.26914" lon="16.09036">
        <ele>32.322417</ele>
        <time>2024-07-28T13:14:35.655Z</time>
      </trkpt>
      <trkpt lat="54.26921" lon="16.09047">
        <ele>32.234932</ele>
        <time>2024-07-28T13:14:37.639Z</time>
      </trkpt>
      <trkpt lat="54.26928" lon="16.09058">
        <ele>32.147853</ele>
        <time>2024-07-28T13:14:39.672Z</time>
      </trkpt>
      <trkpt lat="54.26936" lon="16.09069">
        <ele>32.060417</ele>
        <time>2024-07-28T13:14:41.652Z</time>
      </trkpt>
      <trkpt lat="54.26943" lon="16.09079">
        <ele>31.971334</ele>
        <time>2024-07-28T13:14:43.656Z</time>
      </trkpt>
      <trkpt lat="54.26951" lon="16.09089">
        <ele>31.885315</ele>
        <time>2024-07-28T13:14:45.643Z</time>
      </trkpt>
      <trkpt lat="54.26958" lon="16.091">
        <ele>31.798237</ele>
        <time>2024-07-28T13:14:47.647Z</time>
      </trkpt>
      <trkpt lat="54.26965" lon="16.09111">
        <ele>31.707011</ele>
        <time>2024-07-28T13:14:49.651Z</time>
      </trkpt>
      <trkpt lat="54.26973" lon="16.09124">
        <ele>31.610486</ele>
        <time>2024-07-28T13:14:51.653Z</time>
      </trkpt>
      <trkpt lat="54.2698" lon="16.09137">
        <ele>31.689814</ele>
        <time>2024-07-28T13:14:53.645Z</time>
      </trkpt>
      <trkpt lat="54.26987" lon="16.0915">
        <ele>31.794702</ele>
        <time>2024-07-28T13:14:55.668Z</time>
      </trkpt>
      <trkpt lat="54.26993" lon="16.09163">
        <ele>31.898458</ele>
        <time>2024-07-28T13:14:57.650Z</time>
      </trkpt>
      <trkpt lat="54.27" lon="16.09175">
        <ele>31.995574</ele>
        <time>2024-07-28T13:14:59.648Z</time>
      </trkpt>
      <trkpt lat="54.27007" lon="16.09186">
        <ele>32.08979</ele>
        <time>2024-07-28T13:15:01.656Z</time>
      </trkpt>
      <trkpt lat="54.27015" lon="16.09203">
        <ele>32.22135</ele>
        <time>2024-07-28T13:15:04.657Z</time>
      </trkpt>
      <trkpt lat="54.27024" lon="16.09215">
        <ele>32.339724</ele>
        <time>2024-07-28T13:15:07.643Z</time>
      </trkpt>
      <trkpt lat="54.27034" lon="16.09227">
        <ele>32.461464</ele>
        <time>2024-07-28T13:15:10.651Z</time>
      </trkpt>
      <trkpt lat="54.27039" lon="16.0924">
        <ele>32.554541</ele>
        <time>2024-07-28T13:15:12.642Z</time>
      </trkpt>
      <trkpt lat="54.27046" lon="16.09259">
        <ele>32.688282</ele>
        <time>2024-07-28T13:15:15.626Z</time>
      </trkpt>
      <trkpt lat="54.27053" lon="16.09279">
        <ele>32.818864</ele>
        <time>2024-07-28T13:15:18.641Z</time>
      </trkpt>
      <trkpt lat="54.27058" lon="16.09292">
        <ele>32.910215</ele>
        <time>2024-07-28T13:15:20.659Z</time>
      </trkpt>
      <trkpt lat="54.27063" lon="16.09312">
        <ele>33.044673</ele>
        <time>2024-07-28T13:15:23.647Z</time>
      </trkpt>
      <trkpt lat="54.27069" lon="16.09333">
        <ele>33.17847</ele>
        <time>2024-07-28T13:15:26.627Z</time>
      </trkpt>
      <trkpt lat="54.27072" lon="16.09348">
        <ele>33.271315</ele>
        <time>2024-07-28T13:15:28.665Z</time>
      </trkpt>
      <trkpt lat="54.27075" lon="16.09363">
        <ele>33.365726</ele>
        <time>2024-07-28T13:15:30.654Z</time>
      </trkpt>
      <trkpt lat="54.2708" lon="16.09384">
        <ele>33.410529</ele>
        <time>2024-07-28T13:15:33.641Z</time>
      </trkpt>
      <trkpt lat="54.27086" lon="16.09403">
        <ele>33.396729</ele>
        <time>2024-07-28T13:15:36.630Z</time>
      </trkpt>
      <trkpt lat="54.2709" lon="16.09417">
        <ele>33.387163</ele>
        <time>2024-07-28T13:15:38.659Z</time>
      </trkpt>
      <trkpt lat="54.27095" lon="16.09431">
        <ele>33.377577</ele>
        <time>2024-07-28T13:15:40.668Z</time>
      </trkpt>
      <trkpt lat="54.27101" lon="16.09451">
        <ele>33.363607</ele>
        <time>2024-07-28T13:15:43.653Z</time>
      </trkpt>
      <trkpt lat="54.27104" lon="16.09465">
        <ele>33.353991</ele>
        <time>2024-07-28T13:15:45.630Z</time>
      </trkpt>
      <trkpt lat="54.27108" lon="16.09487">
        <ele>33.339782</ele>
        <time>2024-07-28T13:15:48.634Z</time>
      </trkpt>
      <trkpt lat="54.27111" lon="16.09503">
        <ele>33.329818</ele>
        <time>2024-07-28T13:15:50.647Z</time>
      </trkpt>
      <trkpt lat="54.27116" lon="16.09518">
        <ele>33.319003</ele>
        <time>2024-07-28T13:15:52.659Z</time>
      </trkpt>
      <trkpt lat="54.2712" lon="16.09534">
        <ele>33.308482</ele>
        <time>2024-07-28T13:15:54.664Z</time>
      </trkpt>
      <trkpt lat="54.27125" lon="16.09555">
        <ele>33.294431</ele>
        <time>2024-07-28T13:15:57.639Z</time>
      </trkpt>
      <trkpt lat="54.27132" lon="16.09573">
        <ele>33.281049</ele>
        <time>2024-07-28T13:16:00.633Z</time>
      </trkpt>
      <trkpt lat="54.27137" lon="16.09594">
        <ele>33.267181</ele>
        <time>2024-07-28T13:16:03.637Z</time>
      </trkpt>
      <trkpt lat="54.27141" lon="16.09611">
        <ele>33.255627</ele>
        <time>2024-07-28T13:16:06.637Z</time>
      </trkpt>
      <trkpt lat="54.2714" lon="16.09618">
        <ele>33.251123</ele>
        <time>2024-07-28T13:16:20.516Z</time>
      </trkpt>
      <trkpt lat="54.2714" lon="16.0964">
        <ele>33.237741</ele>
        <time>2024-07-28T13:32:24.056Z</time>
      </trkpt>
      <trkpt lat="54.27147" lon="16.09651">
        <ele>33.24552</ele>
        <time>2024-07-28T13:32:35.628Z</time>
      </trkpt>
      <trkpt lat="54.2715" lon="16.09668">
        <ele>33.378081</ele>
        <time>2024-07-28T13:32:41.644Z</time>
      </trkpt>
      <trkpt lat="54.27155" lon="16.09683">
        <ele>33.510635</ele>
        <time>2024-07-28T13:32:47.639Z</time>
      </trkpt>
      <trkpt lat="54.27161" lon="16.09699">
        <ele>33.654519</ele>
        <time>2024-07-28T13:32:53.653Z</time>
      </trkpt>
      <trkpt lat="54.27165" lon="16.09714">
        <ele>33.785491</ele>
        <time>2024-07-28T13:32:57.649Z</time>
      </trkpt>
      <trkpt lat="54.2717" lon="16.09728">
        <ele>33.918859</ele>
        <time>2024-07-28T13:33:02.656Z</time>
      </trkpt>
      <trkpt lat="54.27175" lon="16.09743">
        <ele>34.044157</ele>
        <time>2024-07-28T13:33:06.649Z</time>
      </trkpt>
      <trkpt lat="54.27179" lon="16.09757">
        <ele>34.164875</ele>
        <time>2024-07-28T13:33:09.645Z</time>
      </trkpt>
      <trkpt lat="54.27183" lon="16.09771">
        <ele>34.286611</ele>
        <time>2024-07-28T13:33:12.655Z</time>
      </trkpt>
      <trkpt lat="54.27186" lon="16.09787">
        <ele>34.41743</ele>
        <time>2024-07-28T13:33:15.640Z</time>
      </trkpt>
      <trkpt lat="54.27191" lon="16.09804">
        <ele>34.559854</ele>
        <time>2024-07-28T13:33:18.653Z</time>
      </trkpt>
      <trkpt lat="54.27195" lon="16.09819">
        <ele>34.690712</ele>
        <time>2024-07-28T13:33:21.658Z</time>
      </trkpt>
      <trkpt lat="54.27201" lon="16.09834">
        <ele>34.827984</ele>
        <time>2024-07-28T13:33:24.668Z</time>
      </trkpt>
      <trkpt lat="54.27205" lon="16.09851">
        <ele>34.970976</ele>
        <time>2024-07-28T13:33:27.648Z</time>
      </trkpt>
      <trkpt lat="54.2721" lon="16.0987">
        <ele>35.13102</ele>
        <time>2024-07-28T13:33:30.659Z</time>
      </trkpt>
      <trkpt lat="54.27216" lon="16.09891">
        <ele>35.307481</ele>
        <time>2024-07-28T13:33:33.658Z</time>
      </trkpt>
      <trkpt lat="54.27221" lon="16.09906">
        <ele>35.439414</ele>
        <time>2024-07-28T13:33:35.648Z</time>
      </trkpt>
      <trkpt lat="54.27226" lon="16.09927">
        <ele>35.60214</ele>
        <time>2024-07-28T13:33:38.653Z</time>
      </trkpt>
      <trkpt lat="54.27231" lon="16.09946">
        <ele>35.570874</ele>
        <time>2024-07-28T13:33:41.643Z</time>
      </trkpt>
      <trkpt lat="54.27237" lon="16.09966">
        <ele>35.537618</ele>
        <time>2024-07-28T13:33:44.647Z</time>
      </trkpt>
      <trkpt lat="54.27242" lon="16.09985">
        <ele>35.506317</ele>
        <time>2024-07-28T13:33:47.650Z</time>
      </trkpt>
      <trkpt lat="54.27246" lon="16.10006">
        <ele>35.473619</ele>
        <time>2024-07-28T13:33:50.665Z</time>
      </trkpt>
      <trkpt lat="54.27251" lon="16.10026">
        <ele>35.440167</ele>
        <time>2024-07-28T13:33:53.644Z</time>
      </trkpt>
      <trkpt lat="54.27255" lon="16.10046">
        <ele>35.408696</ele>
        <time>2024-07-28T13:33:56.635Z</time>
      </trkpt>
      <trkpt lat="54.2726" lon="16.10066">
        <ele>35.376297</ele>
        <time>2024-07-28T13:33:59.661Z</time>
      </trkpt>
      <trkpt lat="54.27263" lon="16.10085">
        <ele>35.346997</ele>
        <time>2024-07-28T13:34:02.650Z</time>
      </trkpt>
      <trkpt lat="54.27268" lon="16.10103">
        <ele>35.317769</ele>
        <time>2024-07-28T13:34:05.641Z</time>
      </trkpt>
      <trkpt lat="54.27275" lon="16.10122">
        <ele>35.28451</ele>
        <time>2024-07-28T13:34:08.650Z</time>
      </trkpt>
      <trkpt lat="54.27282" lon="16.10143">
        <ele>35.249548</ele>
        <time>2024-07-28T13:34:11.668Z</time>
      </trkpt>
      <trkpt lat="54.27288" lon="16.10161">
        <ele>35.217842</ele>
        <time>2024-07-28T13:34:14.654Z</time>
      </trkpt>
      <trkpt lat="54.27295" lon="16.1018">
        <ele>35.18408</ele>
        <time>2024-07-28T13:34:17.677Z</time>
      </trkpt>
      <trkpt lat="54.27301" lon="16.10199">
        <ele>35.152895</ele>
        <time>2024-07-28T13:34:20.643Z</time>
      </trkpt>
      <trkpt lat="54.27306" lon="16.10218">
        <ele>35.212953</ele>
        <time>2024-07-28T13:34:23.638Z</time>
      </trkpt>
      <trkpt lat="54.27312" lon="16.10237">
        <ele>35.30243</ele>
        <time>2024-07-28T13:34:26.642Z</time>
      </trkpt>
      <trkpt lat="54.27319" lon="16.10257">
        <ele>35.395237</ele>
        <time>2024-07-28T13:34:29.645Z</time>
      </trkpt>
      <trkpt lat="54.27326" lon="16.10276">
        <ele>35.490234</ele>
        <time>2024-07-28T13:34:32.649Z</time>
      </trkpt>
      <trkpt lat="54.2733" lon="16.1029">
        <ele>35.555461</ele>
        <time>2024-07-28T13:34:34.647Z</time>
      </trkpt>
      <trkpt lat="54.27335" lon="16.10303">
        <ele>35.619172</ele>
        <time>2024-07-28T13:34:36.624Z</time>
      </trkpt>
      <trkpt lat="54.27342" lon="16.10322">
        <ele>35.713604</ele>
        <time>2024-07-28T13:34:39.642Z</time>
      </trkpt>
      <trkpt lat="54.27347" lon="16.10336">
        <ele>35.778675</ele>
        <time>2024-07-28T13:34:41.658Z</time>
      </trkpt>
      <trkpt lat="54.27353" lon="16.10353">
        <ele>35.862975</ele>
        <time>2024-07-28T13:34:44.661Z</time>
      </trkpt>
      <trkpt lat="54.27358" lon="16.10371">
        <ele>35.942825</ele>
        <time>2024-07-28T13:34:47.649Z</time>
      </trkpt>
      <trkpt lat="54.27364" lon="16.10389">
        <ele>36.028524</ele>
        <time>2024-07-28T13:34:50.653Z</time>
      </trkpt>
      <trkpt lat="54.2737" lon="16.10407">
        <ele>36.112582</ele>
        <time>2024-07-28T13:34:53.650Z</time>
      </trkpt>
      <trkpt lat="54.27376" lon="16.10426">
        <ele>36.20042</ele>
        <time>2024-07-28T13:34:56.636Z</time>
      </trkpt>
      <trkpt lat="54.27382" lon="16.10445">
        <ele>36.292885</ele>
        <time>2024-07-28T13:34:59.648Z</time>
      </trkpt>
      <trkpt lat="54.27388" lon="16.10465">
        <ele>36.382992</ele>
        <time>2024-07-28T13:35:02.662Z</time>
      </trkpt>
      <trkpt lat="54.27394" lon="16.10484">
        <ele>36.406117</ele>
        <time>2024-07-28T13:35:05.645Z</time>
      </trkpt>
      <trkpt lat="54.27401" lon="16.10503">
        <ele>36.394594</ele>
        <time>2024-07-28T13:35:08.649Z</time>
      </trkpt>
      <trkpt lat="54.27407" lon="16.10523">
        <ele>36.383025</ele>
        <time>2024-07-28T13:35:11.650Z</time>
      </trkpt>
      <trkpt lat="54.27412" lon="16.10538">
        <ele>36.374674</ele>
        <time>2024-07-28T13:35:13.644Z</time>
      </trkpt>
      <trkpt lat="54.27417" lon="16.10551">
        <ele>36.366631</ele>
        <time>2024-07-28T13:35:15.652Z</time>
      </trkpt>
      <trkpt lat="54.27421" lon="16.10566">
        <ele>36.358354</ele>
        <time>2024-07-28T13:35:17.661Z</time>
      </trkpt>
      <trkpt lat="54.27425" lon="16.1058">
        <ele>36.35023</ele>
        <time>2024-07-28T13:35:19.643Z</time>
      </trkpt>
      <trkpt lat="54.27432" lon="16.106">
        <ele>36.338404</ele>
        <time>2024-07-28T13:35:22.648Z</time>
      </trkpt>
      <trkpt lat="54.27438" lon="16.1062">
        <ele>36.326798</ele>
        <time>2024-07-28T13:35:25.660Z</time>
      </trkpt>
      <trkpt lat="54.27443" lon="16.10633">
        <ele>36.318886</ele>
        <time>2024-07-28T13:35:27.645Z</time>
      </trkpt>
      <trkpt lat="54.27448" lon="16.10653">
        <ele>36.307907</ele>
        <time>2024-07-28T13:35:30.649Z</time>
      </trkpt>
      <trkpt lat="54.27452" lon="16.10676">
        <ele>36.29584</ele>
        <time>2024-07-28T13:35:33.627Z</time>
      </trkpt>
      <trkpt lat="54.27456" lon="16.1069">
        <ele>36.287992</ele>
        <time>2024-07-28T13:35:35.647Z</time>
      </trkpt>
      <trkpt lat="54.27462" lon="16.10709">
        <ele>36.276783</ele>
        <time>2024-07-28T13:35:38.660Z</time>
      </trkpt>
      <trkpt lat="54.27466" lon="16.10723">
        <ele>36.268834</ele>
        <time>2024-07-28T13:35:40.657Z</time>
      </trkpt>
      <trkpt lat="54.2747" lon="16.10737">
        <ele>36.260918</ele>
        <time>2024-07-28T13:35:42.657Z</time>
      </trkpt>
      <trkpt lat="54.27475" lon="16.10752">
        <ele>36.250596</ele>
        <time>2024-07-28T13:35:44.647Z</time>
      </trkpt>
      <trkpt lat="54.27479" lon="16.10766">
        <ele>36.239387</ele>
        <time>2024-07-28T13:35:46.672Z</time>
      </trkpt>
      <trkpt lat="54.27483" lon="16.1078">
        <ele>36.228572</ele>
        <time>2024-07-28T13:35:48.655Z</time>
      </trkpt>
      <trkpt lat="54.27488" lon="16.10797">
        <ele>36.215728</ele>
        <time>2024-07-28T13:35:51.642Z</time>
      </trkpt>
      <trkpt lat="54.27493" lon="16.10814">
        <ele>36.202018</ele>
        <time>2024-07-28T13:35:54.664Z</time>
      </trkpt>
      <trkpt lat="54.27498" lon="16.10834">
        <ele>36.187226</ele>
        <time>2024-07-28T13:35:57.646Z</time>
      </trkpt>
      <trkpt lat="54.27503" lon="16.10854">
        <ele>36.172021</ele>
        <time>2024-07-28T13:36:00.648Z</time>
      </trkpt>
      <trkpt lat="54.27509" lon="16.10874">
        <ele>36.156379</ele>
        <time>2024-07-28T13:36:03.660Z</time>
      </trkpt>
      <trkpt lat="54.27514" lon="16.10894">
        <ele>36.140635</ele>
        <time>2024-07-28T13:36:06.646Z</time>
      </trkpt>
      <trkpt lat="54.27519" lon="16.10915">
        <ele>36.125062</ele>
        <time>2024-07-28T13:36:09.647Z</time>
      </trkpt>
      <trkpt lat="54.27526" lon="16.10934">
        <ele>36.109643</ele>
        <time>2024-07-28T13:36:12.635Z</time>
      </trkpt>
      <trkpt lat="54.27532" lon="16.10954">
        <ele>36.094096</ele>
        <time>2024-07-28T13:36:15.660Z</time>
      </trkpt>
      <trkpt lat="54.27537" lon="16.10974">
        <ele>36.078464</ele>
        <time>2024-07-28T13:36:18.658Z</time>
      </trkpt>
      <trkpt lat="54.27543" lon="16.10994">
        <ele>36.063184</ele>
        <time>2024-07-28T13:36:21.640Z</time>
      </trkpt>
      <trkpt lat="54.27548" lon="16.11014">
        <ele>36.048022</ele>
        <time>2024-07-28T13:36:24.649Z</time>
      </trkpt>
      <trkpt lat="54.27554" lon="16.11032">
        <ele>36.00395</ele>
        <time>2024-07-28T13:36:27.661Z</time>
      </trkpt>
      <trkpt lat="54.27559" lon="16.11046">
        <ele>35.952235</ele>
        <time>2024-07-28T13:36:30.628Z</time>
      </trkpt>
      <trkpt lat="54.27557" lon="16.11063">
        <ele>35.895883</ele>
        <time>2024-07-28T13:36:37.643Z</time>
      </trkpt>
      <trkpt lat="54.27559" lon="16.11079">
        <ele>35.845656</ele>
        <time>2024-07-28T13:36:40.633Z</time>
      </trkpt>
      <trkpt lat="54.27563" lon="16.11094">
        <ele>35.790635</ele>
        <time>2024-07-28T13:36:43.643Z</time>
      </trkpt>
      <trkpt lat="54.27567" lon="16.11112">
        <ele>35.731787</ele>
        <time>2024-07-28T13:36:46.649Z</time>
      </trkpt>
      <trkpt lat="54.27574" lon="16.11129">
        <ele>35.66583</ele>
        <time>2024-07-28T13:36:49.654Z</time>
      </trkpt>
      <trkpt lat="54.27579" lon="16.11148">
        <ele>35.602149</ele>
        <time>2024-07-28T13:36:52.647Z</time>
      </trkpt>
      <trkpt lat="54.27584" lon="16.11166">
        <ele>35.535873</ele>
        <time>2024-07-28T13:36:55.667Z</time>
      </trkpt>
      <trkpt lat="54.27589" lon="16.11186">
        <ele>35.469464</ele>
        <time>2024-07-28T13:36:58.620Z</time>
      </trkpt>
      <trkpt lat="54.27595" lon="16.11204">
        <ele>35.403836</ele>
        <time>2024-07-28T13:37:01.662Z</time>
      </trkpt>
      <trkpt lat="54.27601" lon="16.11222">
        <ele>35.338208</ele>
        <time>2024-07-28T13:37:04.644Z</time>
      </trkpt>
      <trkpt lat="54.27606" lon="16.1124">
        <ele>35.2756</ele>
        <time>2024-07-28T13:37:07.645Z</time>
      </trkpt>
      <trkpt lat="54.27614" lon="16.11256">
        <ele>35.211252</ele>
        <time>2024-07-28T13:37:10.653Z</time>
      </trkpt>
      <trkpt lat="54.27621" lon="16.11271">
        <ele>35.148301</ele>
        <time>2024-07-28T13:37:13.646Z</time>
      </trkpt>
      <trkpt lat="54.27631" lon="16.11282">
        <ele>35.084146</ele>
        <time>2024-07-28T13:37:16.643Z</time>
      </trkpt>
      <trkpt lat="54.27637" lon="16.11297">
        <ele>35.131302</ele>
        <time>2024-07-28T13:37:19.645Z</time>
      </trkpt>
      <trkpt lat="54.27641" lon="16.11315">
        <ele>35.21842</ele>
        <time>2024-07-28T13:37:23.652Z</time>
      </trkpt>
      <trkpt lat="54.27646" lon="16.11332">
        <ele>35.302761</ele>
        <time>2024-07-28T13:37:27.659Z</time>
      </trkpt>
      <trkpt lat="54.27651" lon="16.11346">
        <ele>35.374429</ele>
        <time>2024-07-28T13:37:30.648Z</time>
      </trkpt>
      <trkpt lat="54.27656" lon="16.11358">
        <ele>35.44394</ele>
        <time>2024-07-28T13:37:33.646Z</time>
      </trkpt>
      <trkpt lat="54.2766" lon="16.11378">
        <ele>35.537714</ele>
        <time>2024-07-28T13:37:37.643Z</time>
      </trkpt>
      <trkpt lat="54.27665" lon="16.11393">
        <ele>35.612891</ele>
        <time>2024-07-28T13:37:40.633Z</time>
      </trkpt>
      <trkpt lat="54.2767" lon="16.11407">
        <ele>35.687269</ele>
        <time>2024-07-28T13:37:43.656Z</time>
      </trkpt>
      <trkpt lat="54.27674" lon="16.11421">
        <ele>35.758159</ele>
        <time>2024-07-28T13:37:46.647Z</time>
      </trkpt>
      <trkpt lat="54.27679" lon="16.11438">
        <ele>35.84429</ele>
        <time>2024-07-28T13:37:50.649Z</time>
      </trkpt>
      <trkpt lat="54.27683" lon="16.11453">
        <ele>35.917534</ele>
        <time>2024-07-28T13:37:53.643Z</time>
      </trkpt>
      <trkpt lat="54.27687" lon="16.11467">
        <ele>35.990484</ele>
        <time>2024-07-28T13:37:56.644Z</time>
      </trkpt>
      <trkpt lat="54.27692" lon="16.11483">
        <ele>36.071692</ele>
        <time>2024-07-28T13:37:59.619Z</time>
      </trkpt>
      <trkpt lat="54.27699" lon="16.11498">
        <ele>36.154161</ele>
        <time>2024-07-28T13:38:02.659Z</time>
      </trkpt>
      <trkpt lat="54.27705" lon="16.11511">
        <ele>36.230761</ele>
        <time>2024-07-28T13:38:05.659Z</time>
      </trkpt>
      <trkpt lat="54.27711" lon="16.11526">
        <ele>36.311461</ele>
        <time>2024-07-28T13:38:08.648Z</time>
      </trkpt>
      <trkpt lat="54.27717" lon="16.11541">
        <ele>36.392281</ele>
        <time>2024-07-28T13:38:11.623Z</time>
      </trkpt>
      <trkpt lat="54.27722" lon="16.11555">
        <ele>36.441984</ele>
        <time>2024-07-28T13:38:14.640Z</time>
      </trkpt>
      <trkpt lat="54.27726" lon="16.11571">
        <ele>36.375815</ele>
        <time>2024-07-28T13:38:17.659Z</time>
      </trkpt>
      <trkpt lat="54.27732" lon="16.11583">
        <ele>36.314149</ele>
        <time>2024-07-28T13:38:20.649Z</time>
      </trkpt>
      <trkpt lat="54.27739" lon="16.11594">
        <ele>36.25509</ele>
        <time>2024-07-28T13:38:23.670Z</time>
      </trkpt>
      <trkpt lat="54.27744" lon="16.11611">
        <ele>36.182416</ele>
        <time>2024-07-28T13:38:27.667Z</time>
      </trkpt>
      <trkpt lat="54.27749" lon="16.1163">
        <ele>36.10539</ele>
        <time>2024-07-28T13:38:31.638Z</time>
      </trkpt>
      <trkpt lat="54.27754" lon="16.11644">
        <ele>36.043372</ele>
        <time>2024-07-28T13:38:34.641Z</time>
      </trkpt>
      <trkpt lat="54.27758" lon="16.11659">
        <ele>35.980596</ele>
        <time>2024-07-28T13:38:37.646Z</time>
      </trkpt>
      <trkpt lat="54.27762" lon="16.11675">
        <ele>35.917096</ele>
        <time>2024-07-28T13:38:40.640Z</time>
      </trkpt>
      <trkpt lat="54.27768" lon="16.1169">
        <ele>35.849231</ele>
        <time>2024-07-28T13:38:43.660Z</time>
      </trkpt>
      <trkpt lat="54.27776" lon="16.11708">
        <ele>35.764187</ele>
        <time>2024-07-28T13:38:46.645Z</time>
      </trkpt>
      <trkpt lat="54.27782" lon="16.11724">
        <ele>35.692046</ele>
        <time>2024-07-28T13:38:49.662Z</time>
      </trkpt>
      <trkpt lat="54.27788" lon="16.11741">
        <ele>35.618075</ele>
        <time>2024-07-28T13:38:52.648Z</time>
      </trkpt>
      <trkpt lat="54.27794" lon="16.11758">
        <ele>35.542776</ele>
        <time>2024-07-28T13:38:55.649Z</time>
      </trkpt>
      <trkpt lat="54.278" lon="16.11776">
        <ele>35.466527</ele>
        <time>2024-07-28T13:38:58.651Z</time>
      </trkpt>
      <trkpt lat="54.27806" lon="16.11794">
        <ele>35.390605</ele>
        <time>2024-07-28T13:39:01.646Z</time>
      </trkpt>
      <trkpt lat="54.27811" lon="16.1181">
        <ele>35.318239</ele>
        <time>2024-07-28T13:39:04.642Z</time>
      </trkpt>
      <trkpt lat="54.27813" lon="16.11826">
        <ele>35.246199</ele>
        <time>2024-07-28T13:39:08.643Z</time>
      </trkpt>
      <trkpt lat="54.2782" lon="16.11837">
        <ele>35.172356</ele>
        <time>2024-07-28T13:39:17.629Z</time>
      </trkpt>
      <trkpt lat="54.27825" lon="16.11853">
        <ele>35.087005</ele>
        <time>2024-07-28T13:39:21.645Z</time>
      </trkpt>
      <trkpt lat="54.2783" lon="16.11869">
        <ele>35.001447</ele>
        <time>2024-07-28T13:39:25.648Z</time>
      </trkpt>
      <trkpt lat="54.27836" lon="16.11885">
        <ele>34.911854</ele>
        <time>2024-07-28T13:39:29.640Z</time>
      </trkpt>
      <trkpt lat="54.27841" lon="16.11898">
        <ele>34.836659</ele>
        <time>2024-07-28T13:39:32.654Z</time>
      </trkpt>
      <trkpt lat="54.27847" lon="16.11913">
        <ele>34.75348</ele>
        <time>2024-07-28T13:39:35.665Z</time>
      </trkpt>
      <trkpt lat="54.27852" lon="16.11927">
        <ele>34.672538</ele>
        <time>2024-07-28T13:39:38.648Z</time>
      </trkpt>
      <trkpt lat="54.27857" lon="16.11943">
        <ele>34.588181</ele>
        <time>2024-07-28T13:39:41.634Z</time>
      </trkpt>
      <trkpt lat="54.27862" lon="16.11959">
        <ele>34.504037</ele>
        <time>2024-07-28T13:39:44.666Z</time>
      </trkpt>
      <trkpt lat="54.2787" lon="16.11973">
        <ele>34.412405</ele>
        <time>2024-07-28T13:39:47.630Z</time>
      </trkpt>
      <trkpt lat="54.27875" lon="16.11989">
        <ele>34.32575</ele>
        <time>2024-07-28T13:39:50.662Z</time>
      </trkpt>
      <trkpt lat="54.2788" lon="16.12007">
        <ele>34.234058</ele>
        <time>2024-07-28T13:39:53.638Z</time>
      </trkpt>
      <trkpt lat="54.27884" lon="16.12023">
        <ele>34.151323</ele>
        <time>2024-07-28T13:39:56.640Z</time>
      </trkpt>
      <trkpt lat="54.27891" lon="16.12038">
        <ele>34.065679</ele>
        <time>2024-07-28T13:39:59.637Z</time>
      </trkpt>
      <trkpt lat="54.27897" lon="16.12054">
        <ele>33.973481</ele>
        <time>2024-07-28T13:40:02.636Z</time>
      </trkpt>
      <trkpt lat="54.27903" lon="16.12071">
        <ele>33.878719</ele>
        <time>2024-07-28T13:40:05.646Z</time>
      </trkpt>
      <trkpt lat="54.2791" lon="16.12088">
        <ele>33.893673</ele>
        <time>2024-07-28T13:40:08.666Z</time>
      </trkpt>
      <trkpt lat="54.27916" lon="16.12104">
        <ele>33.958145</ele>
        <time>2024-07-28T13:40:11.662Z</time>
      </trkpt>
      <trkpt lat="54.27924" lon="16.12118">
        <ele>34.024372</ele>
        <time>2024-07-28T13:40:14.654Z</time>
      </trkpt>
      <trkpt lat="54.27931" lon="16.12135">
        <ele>34.095526</ele>
        <time>2024-07-28T13:40:17.667Z</time>
      </trkpt>
      <trkpt lat="54.27937" lon="16.12153">
        <ele>34.165639</ele>
        <time>2024-07-28T13:40:20.658Z</time>
      </trkpt>
      <trkpt lat="54.27942" lon="16.12169">
        <ele>34.228944</ele>
        <time>2024-07-28T13:40:23.651Z</time>
      </trkpt>
      <trkpt lat="54.27947" lon="16.12186">
        <ele>34.294622</ele>
        <time>2024-07-28T13:40:26.646Z</time>
      </trkpt>
      <trkpt lat="54.27953" lon="16.12202">
        <ele>34.357926</ele>
        <time>2024-07-28T13:40:30.651Z</time>
      </trkpt>
      <trkpt lat="54.27957" lon="16.12218">
        <ele>34.41879</ele>
        <time>2024-07-28T13:41:07.647Z</time>
      </trkpt>
      <trkpt lat="54.27961" lon="16.12233">
        <ele>34.474849</ele>
        <time>2024-07-28T13:41:11.647Z</time>
      </trkpt>
      <trkpt lat="54.27965" lon="16.12247">
        <ele>34.529164</ele>
        <time>2024-07-28T13:41:14.645Z</time>
      </trkpt>
      <trkpt lat="54.2797" lon="16.12262">
        <ele>34.586848</ele>
        <time>2024-07-28T13:41:17.632Z</time>
      </trkpt>
      <trkpt lat="54.27975" lon="16.12275">
        <ele>34.642573</ele>
        <time>2024-07-28T13:41:20.654Z</time>
      </trkpt>
      <trkpt lat="54.27981" lon="16.1229">
        <ele>34.702685</ele>
        <time>2024-07-28T13:41:23.634Z</time>
      </trkpt>
      <trkpt lat="54.27987" lon="16.12305">
        <ele>34.763925</ele>
        <time>2024-07-28T13:41:26.640Z</time>
      </trkpt>
      <trkpt lat="54.27991" lon="16.12323">
        <ele>34.83086</ele>
        <time>2024-07-28T13:41:30.659Z</time>
      </trkpt>
      <trkpt lat="54.27994" lon="16.1234">
        <ele>34.892089</ele>
        <time>2024-07-28T13:41:33.650Z</time>
      </trkpt>
      <trkpt lat="54.28" lon="16.12358">
        <ele>34.942671</ele>
        <time>2024-07-28T13:41:36.660Z</time>
      </trkpt>
      <trkpt lat="54.28005" lon="16.12376">
        <ele>34.987304</ele>
        <time>2024-07-28T13:41:39.656Z</time>
      </trkpt>
      <trkpt lat="54.28011" lon="16.12394">
        <ele>35.034657</ele>
        <time>2024-07-28T13:41:42.656Z</time>
      </trkpt>
      <trkpt lat="54.28016" lon="16.12412">
        <ele>35.081478</ele>
        <time>2024-07-28T13:41:45.645Z</time>
      </trkpt>
      <trkpt lat="54.2802" lon="16.1243">
        <ele>35.123786</ele>
        <time>2024-07-28T13:41:48.658Z</time>
      </trkpt>
      <trkpt lat="54.28026" lon="16.12447">
        <ele>35.169769</ele>
        <time>2024-07-28T13:41:51.651Z</time>
      </trkpt>
      <trkpt lat="54.28031" lon="16.12463">
        <ele>35.21219</ele>
        <time>2024-07-28T13:41:54.643Z</time>
      </trkpt>
      <trkpt lat="54.28036" lon="16.12478">
        <ele>35.250865</ele>
        <time>2024-07-28T13:41:57.654Z</time>
      </trkpt>
      <trkpt lat="54.28046" lon="16.1249">
        <ele>35.296787</ele>
        <time>2024-07-28T13:42:01.629Z</time>
      </trkpt>
      <trkpt lat="54.28052" lon="16.12504">
        <ele>35.336698</ele>
        <time>2024-07-28T13:42:04.653Z</time>
      </trkpt>
      <trkpt lat="54.28058" lon="16.1252">
        <ele>35.381456</ele>
        <time>2024-07-28T13:42:07.660Z</time>
      </trkpt>
      <trkpt lat="54.28064" lon="16.12536">
        <ele>35.425458</ele>
        <time>2024-07-28T13:42:10.658Z</time>
      </trkpt>
      <trkpt lat="54.2807" lon="16.12554">
        <ele>35.472615</ele>
        <time>2024-07-28T13:42:13.647Z</time>
      </trkpt>
      <trkpt lat="54.28077" lon="16.12574">
        <ele>35.5249</ele>
        <time>2024-07-28T13:42:16.654Z</time>
      </trkpt>
      <trkpt lat="54.28084" lon="16.12592">
        <ele>35.573499</ele>
        <time>2024-07-28T13:42:19.661Z</time>
      </trkpt>
      <trkpt lat="54.2809" lon="16.1261">
        <ele>35.543612</ele>
        <time>2024-07-28T13:42:22.651Z</time>
      </trkpt>
      <trkpt lat="54.28098" lon="16.12629">
        <ele>35.371032</ele>
        <time>2024-07-28T13:42:25.642Z</time>
      </trkpt>
      <trkpt lat="54.28103" lon="16.12643">
        <ele>35.249775</ele>
        <time>2024-07-28T13:42:27.659Z</time>
      </trkpt>
      <trkpt lat="54.28109" lon="16.12663">
        <ele>35.078225</ele>
        <time>2024-07-28T13:42:30.651Z</time>
      </trkpt>
      <trkpt lat="54.28116" lon="16.12681">
        <ele>34.909757</ele>
        <time>2024-07-28T13:42:33.643Z</time>
      </trkpt>
      <trkpt lat="54.28123" lon="16.12701">
        <ele>34.74026</ele>
        <time>2024-07-28T13:42:36.644Z</time>
      </trkpt>
      <trkpt lat="54.28128" lon="16.12714">
        <ele>34.623546</ele>
        <time>2024-07-28T13:42:38.638Z</time>
      </trkpt>
      <trkpt lat="54.28132" lon="16.12727">
        <ele>34.503548</ele>
        <time>2024-07-28T13:42:40.668Z</time>
      </trkpt>
      <trkpt lat="54.28137" lon="16.12741">
        <ele>34.380302</ele>
        <time>2024-07-28T13:42:42.649Z</time>
      </trkpt>
      <trkpt lat="54.28142" lon="16.12756">
        <ele>34.25828</ele>
        <time>2024-07-28T13:42:44.664Z</time>
      </trkpt>
      <trkpt lat="54.28148" lon="16.12775">
        <ele>34.08921</ele>
        <time>2024-07-28T13:42:47.644Z</time>
      </trkpt>
      <trkpt lat="54.28154" lon="16.12796">
        <ele>33.913058</ele>
        <time>2024-07-28T13:42:50.693Z</time>
      </trkpt>
      <trkpt lat="54.28159" lon="16.12809">
        <ele>33.796307</ele>
        <time>2024-07-28T13:42:52.656Z</time>
      </trkpt>
      <trkpt lat="54.28166" lon="16.1283">
        <ele>33.619544</ele>
        <time>2024-07-28T13:42:55.649Z</time>
      </trkpt>
      <trkpt lat="54.28168" lon="16.12845">
        <ele>33.499551</ele>
        <time>2024-07-28T13:42:57.631Z</time>
      </trkpt>
      <trkpt lat="54.2817" lon="16.1286">
        <ele>33.382669</ele>
        <time>2024-07-28T13:42:59.642Z</time>
      </trkpt>
      <trkpt lat="54.28172" lon="16.12875">
        <ele>33.285518</ele>
        <time>2024-07-28T13:43:01.640Z</time>
      </trkpt>
      <trkpt lat="54.28173" lon="16.12891">
        <ele>33.345553</ele>
        <time>2024-07-28T13:43:03.646Z</time>
      </trkpt>
      <trkpt lat="54.28174" lon="16.12908">
        <ele>33.406095</ele>
        <time>2024-07-28T13:43:05.632Z</time>
      </trkpt>
      <trkpt lat="54.28175" lon="16.12923">
        <ele>33.463554</ele>
        <time>2024-07-28T13:43:07.659Z</time>
      </trkpt>
      <trkpt lat="54.28175" lon="16.12945">
        <ele>33.545405</ele>
        <time>2024-07-28T13:43:10.653Z</time>
      </trkpt>
      <trkpt lat="54.28175" lon="16.12966">
        <ele>33.623986</ele>
        <time>2024-07-28T13:43:13.674Z</time>
      </trkpt>
      <trkpt lat="54.28174" lon="16.12987">
        <ele>33.700438</ele>
        <time>2024-07-28T13:43:16.657Z</time>
      </trkpt>
      <trkpt lat="54.28173" lon="16.13003">
        <ele>33.762161</ele>
        <time>2024-07-28T13:43:19.640Z</time>
      </trkpt>
      <trkpt lat="54.28179" lon="16.13021">
        <ele>33.83887</ele>
        <time>2024-07-28T13:43:23.638Z</time>
      </trkpt>
      <trkpt lat="54.28183" lon="16.13038">
        <ele>33.906299</ele>
        <time>2024-07-28T13:43:26.647Z</time>
      </trkpt>
      <trkpt lat="54.28183" lon="16.13059">
        <ele>33.98361</ele>
        <time>2024-07-28T13:43:29.638Z</time>
      </trkpt>
      <trkpt lat="54.28183" lon="16.13078">
        <ele>34.056497</ele>
        <time>2024-07-28T13:43:32.637Z</time>
      </trkpt>
      <trkpt lat="54.28183" lon="16.13099">
        <ele>34.132694</ele>
        <time>2024-07-28T13:43:35.665Z</time>
      </trkpt>
      <trkpt lat="54.28184" lon="16.1312">
        <ele>34.210257</ele>
        <time>2024-07-28T13:43:38.669Z</time>
      </trkpt>
      <trkpt lat="54.28185" lon="16.13141">
        <ele>34.289171</ele>
        <time>2024-07-28T13:43:41.638Z</time>
      </trkpt>
      <trkpt lat="54.28185" lon="16.13162">
        <ele>34.369819</ele>
        <time>2024-07-28T13:43:44.652Z</time>
      </trkpt>
      <trkpt lat="54.28185" lon="16.13184">
        <ele>34.406976</ele>
        <time>2024-07-28T13:43:47.661Z</time>
      </trkpt>
      <trkpt lat="54.28185" lon="16.13205">
        <ele>34.356388</ele>
        <time>2024-07-28T13:43:50.671Z</time>
      </trkpt>
      <trkpt lat="54.28185" lon="16.13227">
        <ele>34.303126</ele>
        <time>2024-07-28T13:43:53.648Z</time>
      </trkpt>
      <trkpt lat="54.28185" lon="16.13249">
        <ele>34.250377</ele>
        <time>2024-07-28T13:43:56.659Z</time>
      </trkpt>
      <trkpt lat="54.28184" lon="16.13269">
        <ele>34.200295</ele>
        <time>2024-07-28T13:43:59.649Z</time>
      </trkpt>
      <trkpt lat="54.28183" lon="16.1329">
        <ele>34.148962</ele>
        <time>2024-07-28T13:44:02.655Z</time>
      </trkpt>
      <trkpt lat="54.28183" lon="16.1331">
        <ele>34.100959</ele>
        <time>2024-07-28T13:44:05.643Z</time>
      </trkpt>
      <trkpt lat="54.28185" lon="16.1333">
        <ele>34.05146</ele>
        <time>2024-07-28T13:44:08.666Z</time>
      </trkpt>
      <trkpt lat="54.2819" lon="16.13349">
        <ele>34.000053</ele>
        <time>2024-07-28T13:44:11.646Z</time>
      </trkpt>
      <trkpt lat="54.28195" lon="16.13368">
        <ele>33.951269</ele>
        <time>2024-07-28T13:44:14.654Z</time>
      </trkpt>
      <trkpt lat="54.28198" lon="16.13385">
        <ele>33.907587</ele>
        <time>2024-07-28T13:44:17.646Z</time>
      </trkpt>
      <trkpt lat="54.28203" lon="16.134">
        <ele>33.863498</ele>
        <time>2024-07-28T13:44:20.656Z</time>
      </trkpt>
      <trkpt lat="54.28209" lon="16.13416">
        <ele>33.819406</ele>
        <time>2024-07-28T13:44:23.646Z</time>
      </trkpt>
      <trkpt lat="54.28212" lon="16.13432">
        <ele>33.778064</ele>
        <time>2024-07-28T13:44:26.664Z</time>
      </trkpt>
      <trkpt lat="54.28217" lon="16.13447">
        <ele>33.736075</ele>
        <time>2024-07-28T13:44:29.625Z</time>
      </trkpt>
      <trkpt lat="54.28223" lon="16.13462">
        <ele>33.691096</ele>
        <time>2024-07-28T13:44:32.669Z</time>
      </trkpt>
      <trkpt lat="54.28228" lon="16.13477">
        <ele>33.677178</ele>
        <time>2024-07-28T13:44:35.638Z</time>
      </trkpt>
      <trkpt lat="54.28234" lon="16.13489">
        <ele>33.680257</ele>
        <time>2024-07-28T13:44:38.654Z</time>
      </trkpt>
      <trkpt lat="54.28241" lon="16.13504">
        <ele>33.683522</ele>
        <time>2024-07-28T13:44:41.639Z</time>
      </trkpt>
      <trkpt lat="54.28247" lon="16.13525">
        <ele>33.68781</ele>
        <time>2024-07-28T13:44:44.661Z</time>
      </trkpt>
      <trkpt lat="54.28251" lon="16.13539">
        <ele>33.69075</ele>
        <time>2024-07-28T13:44:46.647Z</time>
      </trkpt>
      <trkpt lat="54.28255" lon="16.13554">
        <ele>33.693722</ele>
        <time>2024-07-28T13:44:48.645Z</time>
      </trkpt>
      <trkpt lat="54.28259" lon="16.1357">
        <ele>33.696948</ele>
        <time>2024-07-28T13:44:50.667Z</time>
      </trkpt>
      <trkpt lat="54.28265" lon="16.13585">
        <ele>33.700277</ele>
        <time>2024-07-28T13:44:52.656Z</time>
      </trkpt>
      <trkpt lat="54.2827" lon="16.13603">
        <ele>33.703987</ele>
        <time>2024-07-28T13:44:54.665Z</time>
      </trkpt>
      <trkpt lat="54.28276" lon="16.13619">
        <ele>33.707331</ele>
        <time>2024-07-28T13:44:56.652Z</time>
      </trkpt>
      <trkpt lat="54.28281" lon="16.13634">
        <ele>33.710679</ele>
        <time>2024-07-28T13:44:58.665Z</time>
      </trkpt>
      <trkpt lat="54.28286" lon="16.13649">
        <ele>33.71388</ele>
        <time>2024-07-28T13:45:00.654Z</time>
      </trkpt>
      <trkpt lat="54.28291" lon="16.13663">
        <ele>33.716814</ele>
        <time>2024-07-28T13:45:02.644Z</time>
      </trkpt>
      <trkpt lat="54.28297" lon="16.13676">
        <ele>33.719751</ele>
        <time>2024-07-28T13:45:04.645Z</time>
      </trkpt>
      <trkpt lat="54.28302" lon="16.1369">
        <ele>33.722699</ele>
        <time>2024-07-28T13:45:06.641Z</time>
      </trkpt>
      <trkpt lat="54.28309" lon="16.13709">
        <ele>33.726808</ele>
        <time>2024-07-28T13:45:09.646Z</time>
      </trkpt>
      <trkpt lat="54.28315" lon="16.13728">
        <ele>33.7309</ele>
        <time>2024-07-28T13:45:12.634Z</time>
      </trkpt>
      <trkpt lat="54.28319" lon="16.13743">
        <ele>33.733615</ele>
        <time>2024-07-28T13:45:14.649Z</time>
      </trkpt>
      <trkpt lat="54.28324" lon="16.13756">
        <ele>33.736143</ele>
        <time>2024-07-28T13:45:16.650Z</time>
      </trkpt>
      <trkpt lat="54.2833" lon="16.13776">
        <ele>33.739673</ele>
        <time>2024-07-28T13:45:19.660Z</time>
      </trkpt>
      <trkpt lat="54.28336" lon="16.13795">
        <ele>33.743197</ele>
        <time>2024-07-28T13:45:22.663Z</time>
      </trkpt>
      <trkpt lat="54.28342" lon="16.13813">
        <ele>33.74649</ele>
        <time>2024-07-28T13:45:25.664Z</time>
      </trkpt>
      <trkpt lat="54.28348" lon="16.13832">
        <ele>33.750014</ele>
        <time>2024-07-28T13:45:28.673Z</time>
      </trkpt>
      <trkpt lat="54.28353" lon="16.13846">
        <ele>33.752544</ele>
        <time>2024-07-28T13:45:30.662Z</time>
      </trkpt>
      <trkpt lat="54.28359" lon="16.13865">
        <ele>33.756004</ele>
        <time>2024-07-28T13:45:33.647Z</time>
      </trkpt>
      <trkpt lat="54.28366" lon="16.13885">
        <ele>33.75975</ele>
        <time>2024-07-28T13:45:36.659Z</time>
      </trkpt>
      <trkpt lat="54.28372" lon="16.139">
        <ele>33.762571</ele>
        <time>2024-07-28T13:45:38.653Z</time>
      </trkpt>
      <trkpt lat="54.28377" lon="16.13913">
        <ele>33.765192</ele>
        <time>2024-07-28T13:45:40.662Z</time>
      </trkpt>
      <trkpt lat="54.28384" lon="16.13933">
        <ele>33.768898</ele>
        <time>2024-07-28T13:45:43.658Z</time>
      </trkpt>
      <trkpt lat="54.28389" lon="16.13946">
        <ele>33.7714</ele>
        <time>2024-07-28T13:45:45.645Z</time>
      </trkpt>
      <trkpt lat="54.28393" lon="16.1396">
        <ele>33.773932</ele>
        <time>2024-07-28T13:45:47.654Z</time>
      </trkpt>
      <trkpt lat="54.28398" lon="16.1398">
        <ele>33.777384</ele>
        <time>2024-07-28T13:45:50.653Z</time>
      </trkpt>
      <trkpt lat="54.28403" lon="16.14">
        <ele>33.780878</ele>
        <time>2024-07-28T13:45:53.661Z</time>
      </trkpt>
      <trkpt lat="54.28407" lon="16.14014">
        <ele>33.767215</ele>
        <time>2024-07-28T13:45:55.649Z</time>
      </trkpt>
      <trkpt lat="54.28413" lon="16.14028">
        <ele>33.750921</ele>
        <time>2024-07-28T13:45:57.636Z</time>
      </trkpt>
      <trkpt lat="54.28418" lon="16.14041">
        <ele>33.735717</ele>
        <time>2024-07-28T13:45:59.664Z</time>
      </trkpt>
      <trkpt lat="54.28425" lon="16.1406">
        <ele>33.71423</ele>
        <time>2024-07-28T13:46:02.668Z</time>
      </trkpt>
      <trkpt lat="54.28429" lon="16.14075">
        <ele>33.69912</ele>
        <time>2024-07-28T13:46:04.635Z</time>
      </trkpt>
      <trkpt lat="54.28433" lon="16.14089">
        <ele>33.682873</ele>
        <time>2024-07-28T13:46:06.649Z</time>
      </trkpt>
      <trkpt lat="54.28438" lon="16.14103">
        <ele>33.667638</ele>
        <time>2024-07-28T13:46:08.658Z</time>
      </trkpt>
      <trkpt lat="54.28443" lon="16.14117">
        <ele>33.651303</ele>
        <time>2024-07-28T13:46:10.655Z</time>
      </trkpt>
      <trkpt lat="54.28449" lon="16.14132">
        <ele>33.634818</ele>
        <time>2024-07-28T13:46:12.664Z</time>
      </trkpt>
      <trkpt lat="54.28454" lon="16.14147">
        <ele>33.617587</ele>
        <time>2024-07-28T13:46:14.644Z</time>
      </trkpt>
      <trkpt lat="54.28459" lon="16.14162">
        <ele>33.601172</ele>
        <time>2024-07-28T13:46:16.656Z</time>
      </trkpt>
      <trkpt lat="54.28464" lon="16.14175">
        <ele>33.585517</ele>
        <time>2024-07-28T13:46:18.650Z</time>
      </trkpt>
      <trkpt lat="54.28469" lon="16.14189">
        <ele>33.570534</ele>
        <time>2024-07-28T13:46:20.641Z</time>
      </trkpt>
      <trkpt lat="54.28474" lon="16.14203">
        <ele>33.554385</ele>
        <time>2024-07-28T13:46:22.662Z</time>
      </trkpt>
      <trkpt lat="54.28479" lon="16.14217">
        <ele>33.538734</ele>
        <time>2024-07-28T13:46:24.636Z</time>
      </trkpt>
      <trkpt lat="54.28484" lon="16.14237">
        <ele>33.517076</ele>
        <time>2024-07-28T13:46:27.646Z</time>
      </trkpt>
      <trkpt lat="54.28488" lon="16.14252">
        <ele>33.501634</ele>
        <time>2024-07-28T13:46:29.651Z</time>
      </trkpt>
      <trkpt lat="54.28493" lon="16.14266">
        <ele>33.485477</ele>
        <time>2024-07-28T13:46:31.668Z</time>
      </trkpt>
      <trkpt lat="54.28498" lon="16.1428">
        <ele>33.536114</ele>
        <time>2024-07-28T13:46:33.644Z</time>
      </trkpt>
      <trkpt lat="54.28504" lon="16.14294">
        <ele>33.595947</ele>
        <time>2024-07-28T13:46:35.650Z</time>
      </trkpt>
      <trkpt lat="54.28508" lon="16.14308">
        <ele>33.656075</ele>
        <time>2024-07-28T13:46:37.650Z</time>
      </trkpt>
      <trkpt lat="54.28513" lon="16.14322">
        <ele>33.714329</ele>
        <time>2024-07-28T13:46:39.653Z</time>
      </trkpt>
      <trkpt lat="54.28518" lon="16.14336">
        <ele>33.773196</ele>
        <time>2024-07-28T13:46:41.661Z</time>
      </trkpt>
      <trkpt lat="54.28523" lon="16.1435">
        <ele>33.831315</ele>
        <time>2024-07-28T13:46:43.663Z</time>
      </trkpt>
      <trkpt lat="54.28529" lon="16.14364">
        <ele>33.892114</ele>
        <time>2024-07-28T13:46:45.657Z</time>
      </trkpt>
      <trkpt lat="54.28534" lon="16.14378">
        <ele>33.951012</ele>
        <time>2024-07-28T13:46:47.658Z</time>
      </trkpt>
      <trkpt lat="54.28539" lon="16.14392">
        <ele>34.009265</ele>
        <time>2024-07-28T13:46:49.646Z</time>
      </trkpt>
      <trkpt lat="54.28543" lon="16.14405">
        <ele>34.065035</ele>
        <time>2024-07-28T13:46:51.647Z</time>
      </trkpt>
      <trkpt lat="54.28548" lon="16.14421">
        <ele>34.126925</ele>
        <time>2024-07-28T13:46:53.642Z</time>
      </trkpt>
      <trkpt lat="54.28553" lon="16.14434">
        <ele>34.183979</ele>
        <time>2024-07-28T13:46:55.644Z</time>
      </trkpt>
      <trkpt lat="54.28557" lon="16.14449">
        <ele>34.245082</ele>
        <time>2024-07-28T13:46:57.670Z</time>
      </trkpt>
      <trkpt lat="54.28561" lon="16.14464">
        <ele>34.302471</ele>
        <time>2024-07-28T13:46:59.647Z</time>
      </trkpt>
      <trkpt lat="54.28566" lon="16.14478">
        <ele>34.361067</ele>
        <time>2024-07-28T13:47:01.650Z</time>
      </trkpt>
      <trkpt lat="54.28571" lon="16.14492">
        <ele>34.419992</ele>
        <time>2024-07-28T13:47:03.626Z</time>
      </trkpt>
      <trkpt lat="54.28576" lon="16.14506">
        <ele>34.478238</ele>
        <time>2024-07-28T13:47:05.656Z</time>
      </trkpt>
      <trkpt lat="54.28581" lon="16.14521">
        <ele>34.542089</ele>
        <time>2024-07-28T13:47:07.650Z</time>
      </trkpt>
      <trkpt lat="54.28586" lon="16.14535">
        <ele>34.567869</ele>
        <time>2024-07-28T13:47:09.640Z</time>
      </trkpt>
      <trkpt lat="54.28592" lon="16.1455">
        <ele>34.466737</ele>
        <time>2024-07-28T13:47:11.661Z</time>
      </trkpt>
      <trkpt lat="54.28597" lon="16.14565">
        <ele>34.367613</ele>
        <time>2024-07-28T13:47:13.650Z</time>
      </trkpt>
      <trkpt lat="54.28601" lon="16.1458">
        <ele>34.268407</ele>
        <time>2024-07-28T13:47:15.625Z</time>
      </trkpt>
      <trkpt lat="54.28606" lon="16.14596">
        <ele>34.163267</ele>
        <time>2024-07-28T13:47:17.643Z</time>
      </trkpt>
      <trkpt lat="54.28612" lon="16.14611">
        <ele>34.059642</ele>
        <time>2024-07-28T13:47:19.665Z</time>
      </trkpt>
      <trkpt lat="54.28616" lon="16.14627">
        <ele>33.960526</ele>
        <time>2024-07-28T13:47:21.644Z</time>
      </trkpt>
      <trkpt lat="54.28621" lon="16.14641">
        <ele>33.864951</ele>
        <time>2024-07-28T13:47:23.647Z</time>
      </trkpt>
      <trkpt lat="54.28625" lon="16.14655">
        <ele>33.770379</ele>
        <time>2024-07-28T13:47:25.644Z</time>
      </trkpt>
      <trkpt lat="54.28633" lon="16.14673">
        <ele>33.642147</ele>
        <time>2024-07-28T13:47:28.647Z</time>
      </trkpt>
      <trkpt lat="54.28638" lon="16.14686">
        <ele>33.551035</ele>
        <time>2024-07-28T13:47:30.639Z</time>
      </trkpt>
      <trkpt lat="54.28643" lon="16.147">
        <ele>33.458894</ele>
        <time>2024-07-28T13:47:32.658Z</time>
      </trkpt>
      <trkpt lat="54.28646" lon="16.14715">
        <ele>33.362435</ele>
        <time>2024-07-28T13:47:34.669Z</time>
      </trkpt>
      <trkpt lat="54.2865" lon="16.1473">
        <ele>33.26711</ele>
        <time>2024-07-28T13:47:36.642Z</time>
      </trkpt>
      <trkpt lat="54.28655" lon="16.14744">
        <ele>33.173792</ele>
        <time>2024-07-28T13:47:38.647Z</time>
      </trkpt>
      <trkpt lat="54.28658" lon="16.14758">
        <ele>33.084282</ele>
        <time>2024-07-28T13:47:40.664Z</time>
      </trkpt>
      <trkpt lat="54.28661" lon="16.14773">
        <ele>32.991378</ele>
        <time>2024-07-28T13:47:42.652Z</time>
      </trkpt>
      <trkpt lat="54.28666" lon="16.14795">
        <ele>32.856404</ele>
        <time>2024-07-28T13:47:45.668Z</time>
      </trkpt>
      <trkpt lat="54.28669" lon="16.1481">
        <ele>32.811179</ele>
        <time>2024-07-28T13:47:47.656Z</time>
      </trkpt>
      <trkpt lat="54.28673" lon="16.14825">
        <ele>32.861436</ele>
        <time>2024-07-28T13:47:49.645Z</time>
      </trkpt>
      <trkpt lat="54.28678" lon="16.1484">
        <ele>32.914797</ele>
        <time>2024-07-28T13:47:51.659Z</time>
      </trkpt>
      <trkpt lat="54.28682" lon="16.14854">
        <ele>32.962976</ele>
        <time>2024-07-28T13:47:53.668Z</time>
      </trkpt>
      <trkpt lat="54.28686" lon="16.14869">
        <ele>33.011789</ele>
        <time>2024-07-28T13:47:55.655Z</time>
      </trkpt>
      <trkpt lat="54.28691" lon="16.14883">
        <ele>33.059938</ele>
        <time>2024-07-28T13:47:57.643Z</time>
      </trkpt>
      <trkpt lat="54.28694" lon="16.14897">
        <ele>33.107824</ele>
        <time>2024-07-28T13:47:59.638Z</time>
      </trkpt>
      <trkpt lat="54.28699" lon="16.14912">
        <ele>33.158824</ele>
        <time>2024-07-28T13:48:01.619Z</time>
      </trkpt>
      <trkpt lat="54.28703" lon="16.14926">
        <ele>33.208911</ele>
        <time>2024-07-28T13:48:03.651Z</time>
      </trkpt>
      <trkpt lat="54.28707" lon="16.14941">
        <ele>33.256399</ele>
        <time>2024-07-28T13:48:05.645Z</time>
      </trkpt>
      <trkpt lat="54.28711" lon="16.14955">
        <ele>33.303798</ele>
        <time>2024-07-28T13:48:07.667Z</time>
      </trkpt>
      <trkpt lat="54.28715" lon="16.14977">
        <ele>33.373669</ele>
        <time>2024-07-28T13:48:10.653Z</time>
      </trkpt>
      <trkpt lat="54.2872" lon="16.14997">
        <ele>33.442466</ele>
        <time>2024-07-28T13:48:13.640Z</time>
      </trkpt>
      <trkpt lat="54.28725" lon="16.15017">
        <ele>33.508613</ele>
        <time>2024-07-28T13:48:16.657Z</time>
      </trkpt>
      <trkpt lat="54.28731" lon="16.15032">
        <ele>33.562251</ele>
        <time>2024-07-28T13:48:18.639Z</time>
      </trkpt>
      <trkpt lat="54.28736" lon="16.15047">
        <ele>33.616681</ele>
        <time>2024-07-28T13:48:20.654Z</time>
      </trkpt>
      <trkpt lat="54.28741" lon="16.15062">
        <ele>33.66486</ele>
        <time>2024-07-28T13:48:22.655Z</time>
      </trkpt>
      <trkpt lat="54.28745" lon="16.15075">
        <ele>33.713762</ele>
        <time>2024-07-28T13:48:24.659Z</time>
      </trkpt>
      <trkpt lat="54.28752" lon="16.15096">
        <ele>33.747227</ele>
        <time>2024-07-28T13:48:27.665Z</time>
      </trkpt>
      <trkpt lat="54.28757" lon="16.15116">
        <ele>33.766567</ele>
        <time>2024-07-28T13:48:30.655Z</time>
      </trkpt>
      <trkpt lat="54.28763" lon="16.15136">
        <ele>33.786333</ele>
        <time>2024-07-28T13:48:33.665Z</time>
      </trkpt>
      <trkpt lat="54.28769" lon="16.15157">
        <ele>33.805998</ele>
        <time>2024-07-28T13:48:36.631Z</time>
      </trkpt>
      <trkpt lat="54.28775" lon="16.15177">
        <ele>33.825818</ele>
        <time>2024-07-28T13:48:39.649Z</time>
      </trkpt>
      <trkpt lat="54.28781" lon="16.15197">
        <ele>33.845705</ele>
        <time>2024-07-28T13:48:42.655Z</time>
      </trkpt>
      <trkpt lat="54.28787" lon="16.15218">
        <ele>33.865237</ele>
        <time>2024-07-28T13:48:45.649Z</time>
      </trkpt>
      <trkpt lat="54.28791" lon="16.15232">
        <ele>33.878712</ele>
        <time>2024-07-28T13:48:47.661Z</time>
      </trkpt>
      <trkpt lat="54.28796" lon="16.15252">
        <ele>33.8984</ele>
        <time>2024-07-28T13:48:50.652Z</time>
      </trkpt>
      <trkpt lat="54.288" lon="16.15266">
        <ele>33.912223</ele>
        <time>2024-07-28T13:48:52.658Z</time>
      </trkpt>
      <trkpt lat="54.28806" lon="16.15287">
        <ele>33.932238</ele>
        <time>2024-07-28T13:48:55.644Z</time>
      </trkpt>
      <trkpt lat="54.2881" lon="16.15301">
        <ele>33.945665</ele>
        <time>2024-07-28T13:48:57.642Z</time>
      </trkpt>
      <trkpt lat="54.28816" lon="16.15321">
        <ele>33.965131</ele>
        <time>2024-07-28T13:49:00.648Z</time>
      </trkpt>
      <trkpt lat="54.2882" lon="16.15335">
        <ele>33.978669</ele>
        <time>2024-07-28T13:49:02.664Z</time>
      </trkpt>
      <trkpt lat="54.28824" lon="16.15349">
        <ele>33.992003</ele>
        <time>2024-07-28T13:49:04.647Z</time>
      </trkpt>
      <trkpt lat="54.28828" lon="16.15364">
        <ele>34.004252</ele>
        <time>2024-07-28T13:49:06.644Z</time>
      </trkpt>
      <trkpt lat="54.28832" lon="16.15378">
        <ele>34.013725</ele>
        <time>2024-07-28T13:49:08.654Z</time>
      </trkpt>
      <trkpt lat="54.28836" lon="16.15392">
        <ele>34.023458</ele>
        <time>2024-07-28T13:49:10.654Z</time>
      </trkpt>
      <trkpt lat="54.28841" lon="16.15407">
        <ele>34.033677</ele>
        <time>2024-07-28T13:49:12.643Z</time>
      </trkpt>
      <trkpt lat="54.28845" lon="16.15421">
        <ele>34.043455</ele>
        <time>2024-07-28T13:49:14.654Z</time>
      </trkpt>
      <trkpt lat="54.2885" lon="16.15435">
        <ele>34.053027</ele>
        <time>2024-07-28T13:49:16.646Z</time>
      </trkpt>
      <trkpt lat="54.28855" lon="16.15454">
        <ele>34.06589</ele>
        <time>2024-07-28T13:49:19.648Z</time>
      </trkpt>
      <trkpt lat="54.28861" lon="16.1547">
        <ele>34.077352</ele>
        <time>2024-07-28T13:49:23.640Z</time>
      </trkpt>
      <trkpt lat="54.28866" lon="16.15486">
        <ele>34.088606</ele>
        <time>2024-07-28T13:49:27.654Z</time>
      </trkpt>
      <trkpt lat="54.28871" lon="16.155">
        <ele>34.098441</ele>
        <time>2024-07-28T13:49:30.653Z</time>
      </trkpt>
      <trkpt lat="54.28876" lon="16.15514">
        <ele>34.108535</ele>
        <time>2024-07-28T13:49:33.657Z</time>
      </trkpt>
      <trkpt lat="54.28881" lon="16.15527">
        <ele>34.117898</ele>
        <time>2024-07-28T13:49:37.643Z</time>
      </trkpt>
      <trkpt lat="54.28886" lon="16.15544">
        <ele>34.129676</ele>
        <time>2024-07-28T13:49:55.660Z</time>
      </trkpt>
      <trkpt lat="54.28892" lon="16.15562">
        <ele>34.141979</ele>
        <time>2024-07-28T13:49:59.650Z</time>
      </trkpt>
      <trkpt lat="54.28898" lon="16.15578">
        <ele>34.15355</ele>
        <time>2024-07-28T13:50:02.654Z</time>
      </trkpt>
      <trkpt lat="54.28904" lon="16.15594">
        <ele>34.165381</ele>
        <time>2024-07-28T13:50:05.646Z</time>
      </trkpt>
      <trkpt lat="54.2891" lon="16.15612">
        <ele>34.177788</ele>
        <time>2024-07-28T13:50:08.643Z</time>
      </trkpt>
      <trkpt lat="54.28916" lon="16.1563">
        <ele>34.195103</ele>
        <time>2024-07-28T13:50:11.646Z</time>
      </trkpt>
      <trkpt lat="54.28921" lon="16.15648">
        <ele>34.228863</ele>
        <time>2024-07-28T13:50:14.642Z</time>
      </trkpt>
      <trkpt lat="54.28928" lon="16.15668">
        <ele>34.266157</ele>
        <time>2024-07-28T13:50:17.641Z</time>
      </trkpt>
      <trkpt lat="54.28933" lon="16.15681">
        <ele>34.292062</ele>
        <time>2024-07-28T13:50:19.642Z</time>
      </trkpt>
      <trkpt lat="54.28939" lon="16.157">
        <ele>34.328504</ele>
        <time>2024-07-28T13:50:22.653Z</time>
      </trkpt>
      <trkpt lat="54.28944" lon="16.15713">
        <ele>34.354476</ele>
        <time>2024-07-28T13:50:24.654Z</time>
      </trkpt>
      <trkpt lat="54.28949" lon="16.15726">
        <ele>34.380526</ele>
        <time>2024-07-28T13:50:26.644Z</time>
      </trkpt>
      <trkpt lat="54.28954" lon="16.1574">
        <ele>34.406585</ele>
        <time>2024-07-28T13:50:28.640Z</time>
      </trkpt>
      <trkpt lat="54.28959" lon="16.15753">
        <ele>34.432718</ele>
        <time>2024-07-28T13:50:30.681Z</time>
      </trkpt>
      <trkpt lat="54.28966" lon="16.15773">
        <ele>34.470862</ele>
        <time>2024-07-28T13:50:33.645Z</time>
      </trkpt>
      <trkpt lat="54.28974" lon="16.15791">
        <ele>34.508937</ele>
        <time>2024-07-28T13:50:36.647Z</time>
      </trkpt>
      <trkpt lat="54.28982" lon="16.1581">
        <ele>34.545875</ele>
        <time>2024-07-28T13:50:39.641Z</time>
      </trkpt>
      <trkpt lat="54.2899" lon="16.15828">
        <ele>34.583775</ele>
        <time>2024-07-28T13:50:42.647Z</time>
      </trkpt>
      <trkpt lat="54.28996" lon="16.1584">
        <ele>34.609506</ele>
        <time>2024-07-28T13:50:44.666Z</time>
      </trkpt>
      <trkpt lat="54.29005" lon="16.15857">
        <ele>34.648008</ele>
        <time>2024-07-28T13:50:47.657Z</time>
      </trkpt>
      <trkpt lat="54.29011" lon="16.15869">
        <ele>34.673633</ele>
        <time>2024-07-28T13:50:49.641Z</time>
      </trkpt>
      <trkpt lat="54.29017" lon="16.15882">
        <ele>34.690334</ele>
        <time>2024-07-28T13:50:51.652Z</time>
      </trkpt>
      <trkpt lat="54.29022" lon="16.15895">
        <ele>34.663448</ele>
        <time>2024-07-28T13:50:53.641Z</time>
      </trkpt>
      <trkpt lat="54.29028" lon="16.15909">
        <ele>34.635684</ele>
        <time>2024-07-28T13:50:55.642Z</time>
      </trkpt>
      <trkpt lat="54.29035" lon="16.15922">
        <ele>34.607704</ele>
        <time>2024-07-28T13:50:57.645Z</time>
      </trkpt>
      <trkpt lat="54.2904" lon="16.15934">
        <ele>34.581901</ele>
        <time>2024-07-28T13:50:59.644Z</time>
      </trkpt>
      <trkpt lat="54.29046" lon="16.15948">
        <ele>34.553668</ele>
        <time>2024-07-28T13:51:01.642Z</time>
      </trkpt>
      <trkpt lat="54.29052" lon="16.15962">
        <ele>34.524802</ele>
        <time>2024-07-28T13:51:03.653Z</time>
      </trkpt>
      <trkpt lat="54.29058" lon="16.15976">
        <ele>34.49679</ele>
        <time>2024-07-28T13:51:05.645Z</time>
      </trkpt>
      <trkpt lat="54.29065" lon="16.15989">
        <ele>34.467769</ele>
        <time>2024-07-28T13:51:07.646Z</time>
      </trkpt>
      <trkpt lat="54.29071" lon="16.16002">
        <ele>34.440884</ele>
        <time>2024-07-28T13:51:09.642Z</time>
      </trkpt>
      <trkpt lat="54.29077" lon="16.16015">
        <ele>34.413912</ele>
        <time>2024-07-28T13:51:11.660Z</time>
      </trkpt>
      <trkpt lat="54.29082" lon="16.16027">
        <ele>34.38746</ele>
        <time>2024-07-28T13:51:13.647Z</time>
      </trkpt>
      <trkpt lat="54.29088" lon="16.1604">
        <ele>34.359837</ele>
        <time>2024-07-28T13:51:15.650Z</time>
      </trkpt>
      <trkpt lat="54.29094" lon="16.16054">
        <ele>34.332996</ele>
        <time>2024-07-28T13:51:17.639Z</time>
      </trkpt>
      <trkpt lat="54.29099" lon="16.16068">
        <ele>34.304782</ele>
        <time>2024-07-28T13:51:19.651Z</time>
      </trkpt>
      <trkpt lat="54.29105" lon="16.16082">
        <ele>34.277276</ele>
        <time>2024-07-28T13:51:21.645Z</time>
      </trkpt>
      <trkpt lat="54.2911" lon="16.16096">
        <ele>34.250184</ele>
        <time>2024-07-28T13:51:23.643Z</time>
      </trkpt>
      <trkpt lat="54.29115" lon="16.1611">
        <ele>34.222208</ele>
        <time>2024-07-28T13:51:25.641Z</time>
      </trkpt>
      <trkpt lat="54.29121" lon="16.16124">
        <ele>34.193565</ele>
        <time>2024-07-28T13:51:27.644Z</time>
      </trkpt>
      <trkpt lat="54.29126" lon="16.16139">
        <ele>34.174371</ele>
        <time>2024-07-28T13:51:29.664Z</time>
      </trkpt>
      <trkpt lat="54.29131" lon="16.16153">
        <ele>34.158113</ele>
        <time>2024-07-28T13:51:31.661Z</time>
      </trkpt>
      <trkpt lat="54.29135" lon="16.16167">
        <ele>34.142158</ele>
        <time>2024-07-28T13:51:33.638Z</time>
      </trkpt>
      <trkpt lat="54.2914" lon="16.16181">
        <ele>34.126517</ele>
        <time>2024-07-28T13:51:35.639Z</time>
      </trkpt>
      <trkpt lat="54.29145" lon="16.16195">
        <ele>34.110018</ele>
        <time>2024-07-28T13:51:37.652Z</time>
      </trkpt>
      <trkpt lat="54.2915" lon="16.1621">
        <ele>34.093271</ele>
        <time>2024-07-28T13:51:39.641Z</time>
      </trkpt>
      <trkpt lat="54.29155" lon="16.16224">
        <ele>34.076951</ele>
        <time>2024-07-28T13:51:41.662Z</time>
      </trkpt>
      <trkpt lat="54.2916" lon="16.16239">
        <ele>34.060277</ele>
        <time>2024-07-28T13:51:43.645Z</time>
      </trkpt>
      <trkpt lat="54.29165" lon="16.16253">
        <ele>34.043595</ele>
        <time>2024-07-28T13:51:45.642Z</time>
      </trkpt>
      <trkpt lat="54.2917" lon="16.16268">
        <ele>34.026166</ele>
        <time>2024-07-28T13:51:47.653Z</time>
      </trkpt>
      <trkpt lat="54.29175" lon="16.16283">
        <ele>34.009507</ele>
        <time>2024-07-28T13:51:49.640Z</time>
      </trkpt>
      <trkpt lat="54.2918" lon="16.16297">
        <ele>33.993103</ele>
        <time>2024-07-28T13:51:51.628Z</time>
      </trkpt>
      <trkpt lat="54.29185" lon="16.16312">
        <ele>33.976269</ele>
        <time>2024-07-28T13:51:53.650Z</time>
      </trkpt>
      <trkpt lat="54.29191" lon="16.16326">
        <ele>33.958784</ele>
        <time>2024-07-28T13:51:55.649Z</time>
      </trkpt>
      <trkpt lat="54.29196" lon="16.16341">
        <ele>33.94177</ele>
        <time>2024-07-28T13:51:57.649Z</time>
      </trkpt>
      <trkpt lat="54.29202" lon="16.16355">
        <ele>33.924414</ele>
        <time>2024-07-28T13:51:59.643Z</time>
      </trkpt>
      <trkpt lat="54.29207" lon="16.1637">
        <ele>33.907039</ele>
        <time>2024-07-28T13:52:01.652Z</time>
      </trkpt>
      <trkpt lat="54.29213" lon="16.16385">
        <ele>33.889651</ele>
        <time>2024-07-28T13:52:03.650Z</time>
      </trkpt>
      <trkpt lat="54.29219" lon="16.164">
        <ele>33.944859</ele>
        <time>2024-07-28T13:52:05.664Z</time>
      </trkpt>
      <trkpt lat="54.29226" lon="16.16415">
        <ele>34.044414</ele>
        <time>2024-07-28T13:52:07.641Z</time>
      </trkpt>
      <trkpt lat="54.29232" lon="16.1643">
        <ele>34.142402</ele>
        <time>2024-07-28T13:52:09.652Z</time>
      </trkpt>
      <trkpt lat="54.29237" lon="16.16445">
        <ele>34.237621</ele>
        <time>2024-07-28T13:52:11.635Z</time>
      </trkpt>
      <trkpt lat="54.29244" lon="16.16459">
        <ele>34.334442</ele>
        <time>2024-07-28T13:52:13.645Z</time>
      </trkpt>
      <trkpt lat="54.2925" lon="16.16474">
        <ele>34.433199</ele>
        <time>2024-07-28T13:52:15.640Z</time>
      </trkpt>
      <trkpt lat="54.29256" lon="16.16488">
        <ele>34.527622</ele>
        <time>2024-07-28T13:52:17.654Z</time>
      </trkpt>
      <trkpt lat="54.29262" lon="16.16502">
        <ele>34.621275</ele>
        <time>2024-07-28T13:52:19.628Z</time>
      </trkpt>
      <trkpt lat="54.29268" lon="16.16516">
        <ele>34.712581</ele>
        <time>2024-07-28T13:52:21.626Z</time>
      </trkpt>
      <trkpt lat="54.29274" lon="16.1653">
        <ele>34.807862</ele>
        <time>2024-07-28T13:52:23.657Z</time>
      </trkpt>
      <trkpt lat="54.2928" lon="16.16543">
        <ele>34.897496</ele>
        <time>2024-07-28T13:52:25.639Z</time>
      </trkpt>
      <trkpt lat="54.29286" lon="16.16558">
        <ele>34.991686</ele>
        <time>2024-07-28T13:52:27.661Z</time>
      </trkpt>
      <trkpt lat="54.29292" lon="16.16572">
        <ele>35.08569</ele>
        <time>2024-07-28T13:52:29.644Z</time>
      </trkpt>
      <trkpt lat="54.29298" lon="16.16587">
        <ele>35.184981</ele>
        <time>2024-07-28T13:52:31.642Z</time>
      </trkpt>
      <trkpt lat="54.29304" lon="16.16601">
        <ele>35.278102</ele>
        <time>2024-07-28T13:52:33.659Z</time>
      </trkpt>
      <trkpt lat="54.29311" lon="16.16615">
        <ele>35.373799</ele>
        <time>2024-07-28T13:52:35.639Z</time>
      </trkpt>
      <trkpt lat="54.29317" lon="16.16629">
        <ele>35.470759</ele>
        <time>2024-07-28T13:52:37.648Z</time>
      </trkpt>
      <trkpt lat="54.29323" lon="16.16644">
        <ele>35.554681</ele>
        <time>2024-07-28T13:52:39.646Z</time>
      </trkpt>
      <trkpt lat="54.29329" lon="16.16659">
        <ele>35.605694</ele>
        <time>2024-07-28T13:52:41.640Z</time>
      </trkpt>
      <trkpt lat="54.29335" lon="16.16673">
        <ele>35.657742</ele>
        <time>2024-07-28T13:52:43.655Z</time>
      </trkpt>
      <trkpt lat="54.29341" lon="16.16686">
        <ele>35.706824</ele>
        <time>2024-07-28T13:52:45.667Z</time>
      </trkpt>
      <trkpt lat="54.29347" lon="16.167">
        <ele>35.757114</ele>
        <time>2024-07-28T13:52:47.647Z</time>
      </trkpt>
      <trkpt lat="54.29353" lon="16.16714">
        <ele>35.808094</ele>
        <time>2024-07-28T13:52:49.644Z</time>
      </trkpt>
      <trkpt lat="54.29359" lon="16.16728">
        <ele>35.858221</ele>
        <time>2024-07-28T13:52:51.664Z</time>
      </trkpt>
      <trkpt lat="54.29365" lon="16.16741">
        <ele>35.907315</ele>
        <time>2024-07-28T13:52:53.650Z</time>
      </trkpt>
      <trkpt lat="54.29371" lon="16.16755">
        <ele>35.956318</ele>
        <time>2024-07-28T13:52:55.660Z</time>
      </trkpt>
      <trkpt lat="54.29377" lon="16.16769">
        <ele>36.006765</ele>
        <time>2024-07-28T13:52:57.657Z</time>
      </trkpt>
      <trkpt lat="54.29383" lon="16.16783">
        <ele>36.057582</ele>
        <time>2024-07-28T13:52:59.663Z</time>
      </trkpt>
      <trkpt lat="54.29389" lon="16.16796">
        <ele>36.106941</ele>
        <time>2024-07-28T13:53:01.634Z</time>
      </trkpt>
      <trkpt lat="54.29395" lon="16.1681">
        <ele>36.158155</ele>
        <time>2024-07-28T13:53:03.649Z</time>
      </trkpt>
      <trkpt lat="54.29401" lon="16.16824">
        <ele>36.207901</ele>
        <time>2024-07-28T13:53:05.658Z</time>
      </trkpt>
      <trkpt lat="54.29407" lon="16.16838">
        <ele>36.260649</ele>
        <time>2024-07-28T13:53:07.654Z</time>
      </trkpt>
      <trkpt lat="54.29414" lon="16.16851">
        <ele>36.310052</ele>
        <time>2024-07-28T13:53:09.662Z</time>
      </trkpt>
      <trkpt lat="54.29421" lon="16.16863">
        <ele>36.360029</ele>
        <time>2024-07-28T13:53:11.642Z</time>
      </trkpt>
      <trkpt lat="54.29428" lon="16.16875">
        <ele>36.411778</ele>
        <time>2024-07-28T13:53:13.643Z</time>
      </trkpt>
      <trkpt lat="54.29436" lon="16.16887">
        <ele>36.471927</ele>
        <time>2024-07-28T13:53:15.657Z</time>
      </trkpt>
      <trkpt lat="54.29444" lon="16.16896">
        <ele>36.542766</ele>
        <time>2024-07-28T13:53:17.639Z</time>
      </trkpt>
      <trkpt lat="54.29451" lon="16.16907">
        <ele>36.612599</ele>
        <time>2024-07-28T13:53:19.664Z</time>
      </trkpt>
      <trkpt lat="54.29459" lon="16.16917">
        <ele>36.683261</ele>
        <time>2024-07-28T13:53:21.648Z</time>
      </trkpt>
      <trkpt lat="54.29466" lon="16.16927">
        <ele>36.752044</ele>
        <time>2024-07-28T13:53:23.648Z</time>
      </trkpt>
      <trkpt lat="54.29474" lon="16.16937">
        <ele>36.820256</ele>
        <time>2024-07-28T13:53:25.661Z</time>
      </trkpt>
      <trkpt lat="54.29481" lon="16.16948">
        <ele>36.889561</ele>
        <time>2024-07-28T13:53:27.653Z</time>
      </trkpt>
      <trkpt lat="54.29489" lon="16.16957">
        <ele>36.960368</ele>
        <time>2024-07-28T13:53:29.648Z</time>
      </trkpt>
      <trkpt lat="54.29497" lon="16.16968">
        <ele>37.033755</ele>
        <time>2024-07-28T13:53:31.641Z</time>
      </trkpt>
      <trkpt lat="54.29505" lon="16.16978">
        <ele>37.104688</ele>
        <time>2024-07-28T13:53:33.645Z</time>
      </trkpt>
      <trkpt lat="54.29513" lon="16.16987">
        <ele>37.174787</ele>
        <time>2024-07-28T13:53:35.623Z</time>
      </trkpt>
      <trkpt lat="54.29521" lon="16.16997">
        <ele>37.241794</ele>
        <time>2024-07-28T13:53:37.640Z</time>
      </trkpt>
      <trkpt lat="54.29528" lon="16.17006">
        <ele>37.310716</ele>
        <time>2024-07-28T13:53:39.653Z</time>
      </trkpt>
      <trkpt lat="54.29536" lon="16.17015">
        <ele>37.378659</ele>
        <time>2024-07-28T13:53:41.649Z</time>
      </trkpt>
      <trkpt lat="54.29543" lon="16.17026">
        <ele>37.447365</ele>
        <time>2024-07-28T13:53:43.648Z</time>
      </trkpt>
      <trkpt lat="54.2955" lon="16.17037">
        <ele>37.517214</ele>
        <time>2024-07-28T13:53:45.640Z</time>
      </trkpt>
      <trkpt lat="54.29557" lon="16.17047">
        <ele>37.583722</ele>
        <time>2024-07-28T13:53:47.662Z</time>
      </trkpt>
      <trkpt lat="54.29564" lon="16.17059">
        <ele>37.651458</ele>
        <time>2024-07-28T13:53:49.658Z</time>
      </trkpt>
      <trkpt lat="54.2957" lon="16.17071">
        <ele>37.719156</ele>
        <time>2024-07-28T13:53:51.650Z</time>
      </trkpt>
      <trkpt lat="54.29576" lon="16.17083">
        <ele>37.661431</ele>
        <time>2024-07-28T13:53:53.644Z</time>
      </trkpt>
      <trkpt lat="54.29584" lon="16.17101">
        <ele>37.498892</ele>
        <time>2024-07-28T13:53:56.633Z</time>
      </trkpt>
      <trkpt lat="54.29589" lon="16.17114">
        <ele>37.389526</ele>
        <time>2024-07-28T13:53:58.663Z</time>
      </trkpt>
      <trkpt lat="54.29594" lon="16.17127">
        <ele>37.279045</ele>
        <time>2024-07-28T13:54:00.647Z</time>
      </trkpt>
      <trkpt lat="54.29599" lon="16.17141">
        <ele>37.164314</ele>
        <time>2024-07-28T13:54:02.649Z</time>
      </trkpt>
      <trkpt lat="54.29604" lon="16.17154">
        <ele>37.050723</ele>
        <time>2024-07-28T13:54:04.647Z</time>
      </trkpt>
      <trkpt lat="54.29612" lon="16.17173">
        <ele>36.885309</ele>
        <time>2024-07-28T13:54:07.665Z</time>
      </trkpt>
      <trkpt lat="54.29618" lon="16.17186">
        <ele>36.769436</ele>
        <time>2024-07-28T13:54:09.652Z</time>
      </trkpt>
      <trkpt lat="54.29624" lon="16.17198">
        <ele>36.652665</ele>
        <time>2024-07-28T13:54:11.661Z</time>
      </trkpt>
      <trkpt lat="54.29629" lon="16.17213">
        <ele>36.532428</ele>
        <time>2024-07-28T13:54:13.652Z</time>
      </trkpt>
      <trkpt lat="54.29634" lon="16.17226">
        <ele>36.417577</ele>
        <time>2024-07-28T13:54:15.646Z</time>
      </trkpt>
      <trkpt lat="54.2964" lon="16.1724">
        <ele>36.299975</ele>
        <time>2024-07-28T13:54:17.649Z</time>
      </trkpt>
      <trkpt lat="54.29645" lon="16.17253">
        <ele>36.187254</ele>
        <time>2024-07-28T13:54:19.648Z</time>
      </trkpt>
      <trkpt lat="54.29651" lon="16.17265">
        <ele>36.077045</ele>
        <time>2024-07-28T13:54:21.633Z</time>
      </trkpt>
      <trkpt lat="54.29657" lon="16.17279">
        <ele>35.95558</ele>
        <time>2024-07-28T13:54:23.643Z</time>
      </trkpt>
      <trkpt lat="54.29662" lon="16.17292">
        <ele>35.839371</ele>
        <time>2024-07-28T13:54:25.645Z</time>
      </trkpt>
      <trkpt lat="54.29669" lon="16.17305">
        <ele>35.72023</ele>
        <time>2024-07-28T13:54:27.648Z</time>
      </trkpt>
      <trkpt lat="54.29675" lon="16.17317">
        <ele>35.606081</ele>
        <time>2024-07-28T13:54:29.647Z</time>
      </trkpt>
      <trkpt lat="54.29681" lon="16.1733">
        <ele>35.529661</ele>
        <time>2024-07-28T13:54:31.652Z</time>
      </trkpt>
      <trkpt lat="54.29686" lon="16.17344">
        <ele>35.48868</ele>
        <time>2024-07-28T13:54:33.654Z</time>
      </trkpt>
      <trkpt lat="54.29692" lon="16.17357">
        <ele>35.447899</ele>
        <time>2024-07-28T13:54:35.645Z</time>
      </trkpt>
      <trkpt lat="54.29697" lon="16.17371">
        <ele>35.407518</ele>
        <time>2024-07-28T13:54:37.645Z</time>
      </trkpt>
      <trkpt lat="54.29703" lon="16.17385">
        <ele>35.365526</ele>
        <time>2024-07-28T13:54:39.641Z</time>
      </trkpt>
      <trkpt lat="54.29709" lon="16.17398">
        <ele>35.32373</ele>
        <time>2024-07-28T13:54:41.638Z</time>
      </trkpt>
      <trkpt lat="54.29714" lon="16.17412">
        <ele>35.283742</ele>
        <time>2024-07-28T13:54:43.642Z</time>
      </trkpt>
      <trkpt lat="54.2972" lon="16.17425">
        <ele>35.244252</ele>
        <time>2024-07-28T13:54:45.649Z</time>
      </trkpt>
      <trkpt lat="54.29725" lon="16.17439">
        <ele>35.203871</ele>
        <time>2024-07-28T13:54:47.646Z</time>
      </trkpt>
      <trkpt lat="54.29731" lon="16.17452">
        <ele>35.162527</ele>
        <time>2024-07-28T13:54:49.654Z</time>
      </trkpt>
      <trkpt lat="54.29736" lon="16.17465">
        <ele>35.122745</ele>
        <time>2024-07-28T13:54:51.642Z</time>
      </trkpt>
      <trkpt lat="54.29742" lon="16.17479">
        <ele>35.081595</ele>
        <time>2024-07-28T13:54:53.667Z</time>
      </trkpt>
      <trkpt lat="54.29747" lon="16.17492">
        <ele>35.042936</ele>
        <time>2024-07-28T13:54:55.651Z</time>
      </trkpt>
      <trkpt lat="54.29753" lon="16.17505">
        <ele>35.002129</ele>
        <time>2024-07-28T13:54:57.641Z</time>
      </trkpt>
      <trkpt lat="54.29759" lon="16.17518">
        <ele>34.96239</ele>
        <time>2024-07-28T13:54:59.640Z</time>
      </trkpt>
      <trkpt lat="54.29764" lon="16.1753">
        <ele>34.923569</ele>
        <time>2024-07-28T13:55:01.639Z</time>
      </trkpt>
      <trkpt lat="54.2977" lon="16.17542">
        <ele>34.885395</ele>
        <time>2024-07-28T13:55:03.637Z</time>
      </trkpt>
      <trkpt lat="54.29775" lon="16.17555">
        <ele>34.846634</ele>
        <time>2024-07-28T13:55:05.651Z</time>
      </trkpt>
      <trkpt lat="54.2978" lon="16.17569">
        <ele>34.808184</ele>
        <time>2024-07-28T13:55:07.641Z</time>
      </trkpt>
      <trkpt lat="54.29785" lon="16.17581">
        <ele>34.818084</ele>
        <time>2024-07-28T13:55:09.646Z</time>
      </trkpt>
      <trkpt lat="54.29791" lon="16.17594">
        <ele>34.862345</ele>
        <time>2024-07-28T13:55:11.645Z</time>
      </trkpt>
      <trkpt lat="54.29796" lon="16.17608">
        <ele>34.905443</ele>
        <time>2024-07-28T13:55:13.642Z</time>
      </trkpt>
      <trkpt lat="54.29802" lon="16.17622">
        <ele>34.950003</ele>
        <time>2024-07-28T13:55:15.633Z</time>
      </trkpt>
      <trkpt lat="54.29807" lon="16.17636">
        <ele>34.993429</ele>
        <time>2024-07-28T13:55:17.643Z</time>
      </trkpt>
      <trkpt lat="54.29813" lon="16.17648">
        <ele>35.036086</ele>
        <time>2024-07-28T13:55:19.662Z</time>
      </trkpt>
      <trkpt lat="54.29819" lon="16.17661">
        <ele>35.07832</ele>
        <time>2024-07-28T13:55:21.647Z</time>
      </trkpt>
      <trkpt lat="54.29825" lon="16.17674">
        <ele>35.121675</ele>
        <time>2024-07-28T13:55:23.656Z</time>
      </trkpt>
      <trkpt lat="54.29831" lon="16.17687">
        <ele>35.167705</ele>
        <time>2024-07-28T13:55:25.648Z</time>
      </trkpt>
      <trkpt lat="54.29839" lon="16.17706">
        <ele>35.230689</ele>
        <time>2024-07-28T13:55:28.648Z</time>
      </trkpt>
      <trkpt lat="54.29844" lon="16.1772">
        <ele>35.273097</ele>
        <time>2024-07-28T13:55:30.652Z</time>
      </trkpt>
      <trkpt lat="54.29849" lon="16.17733">
        <ele>35.313965</ele>
        <time>2024-07-28T13:55:32.654Z</time>
      </trkpt>
      <trkpt lat="54.29854" lon="16.17746">
        <ele>35.355528</ele>
        <time>2024-07-28T13:55:34.651Z</time>
      </trkpt>
      <trkpt lat="54.29861" lon="16.17765">
        <ele>35.415389</ele>
        <time>2024-07-28T13:55:37.647Z</time>
      </trkpt>
      <trkpt lat="54.29865" lon="16.17779">
        <ele>35.45692</ele>
        <time>2024-07-28T13:55:39.642Z</time>
      </trkpt>
      <trkpt lat="54.2987" lon="16.17793">
        <ele>35.499111</ele>
        <time>2024-07-28T13:55:41.638Z</time>
      </trkpt>
      <trkpt lat="54.29875" lon="16.17814">
        <ele>35.560612</ele>
        <time>2024-07-28T13:55:44.644Z</time>
      </trkpt>
      <trkpt lat="54.29879" lon="16.17828">
        <ele>35.602013</ele>
        <time>2024-07-28T13:55:46.629Z</time>
      </trkpt>
      <trkpt lat="54.29883" lon="16.17842">
        <ele>35.583643</ele>
        <time>2024-07-28T13:55:48.646Z</time>
      </trkpt>
      <trkpt lat="54.29887" lon="16.17858">
        <ele>35.546449</ele>
        <time>2024-07-28T13:55:50.662Z</time>
      </trkpt>
      <trkpt lat="54.2989" lon="16.17872">
        <ele>35.511328</ele>
        <time>2024-07-28T13:55:52.664Z</time>
      </trkpt>
      <trkpt lat="54.29894" lon="16.17888">
        <ele>35.475097</ele>
        <time>2024-07-28T13:55:54.646Z</time>
      </trkpt>
      <trkpt lat="54.29897" lon="16.17903">
        <ele>35.438217</ele>
        <time>2024-07-28T13:55:56.640Z</time>
      </trkpt>
      <trkpt lat="54.29901" lon="16.17917">
        <ele>35.403013</ele>
        <time>2024-07-28T13:55:58.659Z</time>
      </trkpt>
      <trkpt lat="54.29907" lon="16.17938">
        <ele>35.351208</ele>
        <time>2024-07-28T13:56:01.641Z</time>
      </trkpt>
      <trkpt lat="54.29913" lon="16.1796">
        <ele>35.29924</ele>
        <time>2024-07-28T13:56:04.646Z</time>
      </trkpt>
      <trkpt lat="54.29918" lon="16.17974">
        <ele>35.262019</ele>
        <time>2024-07-28T13:56:06.638Z</time>
      </trkpt>
      <trkpt lat="54.29922" lon="16.17989">
        <ele>35.225831</ele>
        <time>2024-07-28T13:56:08.649Z</time>
      </trkpt>
      <trkpt lat="54.29925" lon="16.18003">
        <ele>35.191531</ele>
        <time>2024-07-28T13:56:10.662Z</time>
      </trkpt>
      <trkpt lat="54.29929" lon="16.18018">
        <ele>35.156342</ele>
        <time>2024-07-28T13:56:12.646Z</time>
      </trkpt>
      <trkpt lat="54.29932" lon="16.18032">
        <ele>35.121427</ele>
        <time>2024-07-28T13:56:14.653Z</time>
      </trkpt>
      <trkpt lat="54.29936" lon="16.18048">
        <ele>35.08444</ele>
        <time>2024-07-28T13:56:16.653Z</time>
      </trkpt>
      <trkpt lat="54.2994" lon="16.18062">
        <ele>35.048415</ele>
        <time>2024-07-28T13:56:18.643Z</time>
      </trkpt>
      <trkpt lat="54.29944" lon="16.18077">
        <ele>35.013355</ele>
        <time>2024-07-28T13:56:20.644Z</time>
      </trkpt>
      <trkpt lat="54.29947" lon="16.18092">
        <ele>34.977821</ele>
        <time>2024-07-28T13:56:22.664Z</time>
      </trkpt>
      <trkpt lat="54.2995" lon="16.18106">
        <ele>34.942906</ele>
        <time>2024-07-28T13:56:24.649Z</time>
      </trkpt>
      <trkpt lat="54.29953" lon="16.18123">
        <ele>34.969599</ele>
        <time>2024-07-28T13:56:26.653Z</time>
      </trkpt>
      <trkpt lat="54.29958" lon="16.18137">
        <ele>35.040967</ele>
        <time>2024-07-28T13:56:28.666Z</time>
      </trkpt>
      <trkpt lat="54.29962" lon="16.18152">
        <ele>35.112177</ele>
        <time>2024-07-28T13:56:30.649Z</time>
      </trkpt>
      <trkpt lat="54.29966" lon="16.18167">
        <ele>35.184562</ele>
        <time>2024-07-28T13:56:32.651Z</time>
      </trkpt>
      <trkpt lat="54.29971" lon="16.18182">
        <ele>35.258185</ele>
        <time>2024-07-28T13:56:34.646Z</time>
      </trkpt>
      <trkpt lat="54.29975" lon="16.18196">
        <ele>35.328042</ele>
        <time>2024-07-28T13:56:36.637Z</time>
      </trkpt>
      <trkpt lat="54.29979" lon="16.18212">
        <ele>35.403843</ele>
        <time>2024-07-28T13:56:38.654Z</time>
      </trkpt>
      <trkpt lat="54.29984" lon="16.18225">
        <ele>35.473678</ele>
        <time>2024-07-28T13:56:40.648Z</time>
      </trkpt>
      <trkpt lat="54.29989" lon="16.1824">
        <ele>35.546196</ele>
        <time>2024-07-28T13:56:42.655Z</time>
      </trkpt>
      <trkpt lat="54.29994" lon="16.18253">
        <ele>35.615866</ele>
        <time>2024-07-28T13:56:44.651Z</time>
      </trkpt>
      <trkpt lat="54.30002" lon="16.18271">
        <ele>35.715449</ele>
        <time>2024-07-28T13:56:47.640Z</time>
      </trkpt>
      <trkpt lat="54.30008" lon="16.18282">
        <ele>35.784201</ele>
        <time>2024-07-28T13:56:49.640Z</time>
      </trkpt>
      <trkpt lat="54.30015" lon="16.18294">
        <ele>35.854251</ele>
        <time>2024-07-28T13:56:51.661Z</time>
      </trkpt>
      <trkpt lat="54.30022" lon="16.18306">
        <ele>35.926953</ele>
        <time>2024-07-28T13:56:53.641Z</time>
      </trkpt>
      <trkpt lat="54.30028" lon="16.18317">
        <ele>35.994629</ele>
        <time>2024-07-28T13:56:55.653Z</time>
      </trkpt>
      <trkpt lat="54.30035" lon="16.18328">
        <ele>36.063522</ele>
        <time>2024-07-28T13:56:57.641Z</time>
      </trkpt>
      <trkpt lat="54.30041" lon="16.18338">
        <ele>36.130923</ele>
        <time>2024-07-28T13:56:59.646Z</time>
      </trkpt>
      <trkpt lat="54.30048" lon="16.18349">
        <ele>36.199228</ele>
        <time>2024-07-28T13:57:01.645Z</time>
      </trkpt>
      <trkpt lat="54.30055" lon="16.1836">
        <ele>36.267765</ele>
        <time>2024-07-28T13:57:03.645Z</time>
      </trkpt>
      <trkpt lat="54.30065" lon="16.18375">
        <ele>36.273193</ele>
        <time>2024-07-28T13:57:06.616Z</time>
      </trkpt>
      <trkpt lat="54.30072" lon="16.18386">
        <ele>36.272999</ele>
        <time>2024-07-28T13:57:08.622Z</time>
      </trkpt>
      <trkpt lat="54.30079" lon="16.18397">
        <ele>36.272814</ele>
        <time>2024-07-28T13:57:10.671Z</time>
      </trkpt>
      <trkpt lat="54.30085" lon="16.18407">
        <ele>36.27263</ele>
        <time>2024-07-28T13:57:12.663Z</time>
      </trkpt>
      <trkpt lat="54.30092" lon="16.1842">
        <ele>36.272424</ele>
        <time>2024-07-28T13:57:14.644Z</time>
      </trkpt>
      <trkpt lat="54.30098" lon="16.18432">
        <ele>36.27224</ele>
        <time>2024-07-28T13:57:16.643Z</time>
      </trkpt>
      <trkpt lat="54.30107" lon="16.18448">
        <ele>36.271979</ele>
        <time>2024-07-28T13:57:19.649Z</time>
      </trkpt>
      <trkpt lat="54.30113" lon="16.1846">
        <ele>36.271794</ele>
        <time>2024-07-28T13:57:21.649Z</time>
      </trkpt>
      <trkpt lat="54.30122" lon="16.18476">
        <ele>36.271527</ele>
        <time>2024-07-28T13:57:24.655Z</time>
      </trkpt>
      <trkpt lat="54.30129" lon="16.18487">
        <ele>36.271341</ele>
        <time>2024-07-28T13:57:26.667Z</time>
      </trkpt>
      <trkpt lat="54.30138" lon="16.18503">
        <ele>36.27107</ele>
        <time>2024-07-28T13:57:29.642Z</time>
      </trkpt>
      <trkpt lat="54.30149" lon="16.18516">
        <ele>36.270806</ele>
        <time>2024-07-28T13:57:32.649Z</time>
      </trkpt>
      <trkpt lat="54.30158" lon="16.18532">
        <ele>36.270547</ele>
        <time>2024-07-28T13:57:35.667Z</time>
      </trkpt>
      <trkpt lat="54.30167" lon="16.18547">
        <ele>36.270285</ele>
        <time>2024-07-28T13:57:38.644Z</time>
      </trkpt>
      <trkpt lat="54.30177" lon="16.18562">
        <ele>36.270025</ele>
        <time>2024-07-28T13:57:41.650Z</time>
      </trkpt>
      <trkpt lat="54.30186" lon="16.18578">
        <ele>36.265183</ele>
        <time>2024-07-28T13:57:44.662Z</time>
      </trkpt>
      <trkpt lat="54.30195" lon="16.18593">
        <ele>36.24349</ele>
        <time>2024-07-28T13:57:47.649Z</time>
      </trkpt>
      <trkpt lat="54.30201" lon="16.18603">
        <ele>36.227298</ele>
        <time>2024-07-28T13:57:49.653Z</time>
      </trkpt>
      <trkpt lat="54.30211" lon="16.18618">
        <ele>36.204322</ele>
        <time>2024-07-28T13:57:52.649Z</time>
      </trkpt>
      <trkpt lat="54.3022" lon="16.18633">
        <ele>36.181049</ele>
        <time>2024-07-28T13:57:55.641Z</time>
      </trkpt>
      <trkpt lat="54.3023" lon="16.18649">
        <ele>36.157631</ele>
        <time>2024-07-28T13:57:58.655Z</time>
      </trkpt>
      <trkpt lat="54.30237" lon="16.18659">
        <ele>36.141278</ele>
        <time>2024-07-28T13:58:00.642Z</time>
      </trkpt>
      <trkpt lat="54.30244" lon="16.1867">
        <ele>36.123919</ele>
        <time>2024-07-28T13:58:02.653Z</time>
      </trkpt>
      <trkpt lat="54.30251" lon="16.1868">
        <ele>36.107391</ele>
        <time>2024-07-28T13:58:04.633Z</time>
      </trkpt>
      <trkpt lat="54.30258" lon="16.18691">
        <ele>36.090779</ele>
        <time>2024-07-28T13:58:06.637Z</time>
      </trkpt>
      <trkpt lat="54.30264" lon="16.18703">
        <ele>36.0746</ele>
        <time>2024-07-28T13:58:08.653Z</time>
      </trkpt>
      <trkpt lat="54.30271" lon="16.18714">
        <ele>36.057662</ele>
        <time>2024-07-28T13:58:10.645Z</time>
      </trkpt>
      <trkpt lat="54.30279" lon="16.18724">
        <ele>36.040246</ele>
        <time>2024-07-28T13:58:12.680Z</time>
      </trkpt>
      <trkpt lat="54.30285" lon="16.18735">
        <ele>36.023634</ele>
        <time>2024-07-28T13:58:14.657Z</time>
      </trkpt>
      <trkpt lat="54.30295" lon="16.1875">
        <ele>36.000043</ele>
        <time>2024-07-28T13:58:17.654Z</time>
      </trkpt>
      <trkpt lat="54.30302" lon="16.18761">
        <ele>35.98336</ele>
        <time>2024-07-28T13:58:19.632Z</time>
      </trkpt>
      <trkpt lat="54.30311" lon="16.18777">
        <ele>35.960303</ele>
        <time>2024-07-28T13:58:22.636Z</time>
      </trkpt>
      <trkpt lat="54.30321" lon="16.18793">
        <ele>35.913039</ele>
        <time>2024-07-28T13:58:25.636Z</time>
      </trkpt>
      <trkpt lat="54.3033" lon="16.18808">
        <ele>35.844274</ele>
        <time>2024-07-28T13:58:28.647Z</time>
      </trkpt>
      <trkpt lat="54.30339" lon="16.18822">
        <ele>35.780364</ele>
        <time>2024-07-28T13:58:31.630Z</time>
      </trkpt>
      <trkpt lat="54.30347" lon="16.18836">
        <ele>35.71727</ele>
        <time>2024-07-28T13:58:34.664Z</time>
      </trkpt>
      <trkpt lat="54.30356" lon="16.1885">
        <ele>35.655114</ele>
        <time>2024-07-28T13:58:37.644Z</time>
      </trkpt>
      <trkpt lat="54.30364" lon="16.18862">
        <ele>35.595128</ele>
        <time>2024-07-28T13:58:40.647Z</time>
      </trkpt>
      <trkpt lat="54.30373" lon="16.18876">
        <ele>35.53285</ele>
        <time>2024-07-28T13:58:43.665Z</time>
      </trkpt>
      <trkpt lat="54.3038" lon="16.18891">
        <ele>35.4713</ele>
        <time>2024-07-28T13:58:46.636Z</time>
      </trkpt>
      <trkpt lat="54.30387" lon="16.18905">
        <ele>35.411881</ele>
        <time>2024-07-28T13:58:49.627Z</time>
      </trkpt>
      <trkpt lat="54.30394" lon="16.1892">
        <ele>35.355755</ele>
        <time>2024-07-28T13:58:52.632Z</time>
      </trkpt>
      <trkpt lat="54.30398" lon="16.18938">
        <ele>35.29426</ele>
        <time>2024-07-28T13:58:55.657Z</time>
      </trkpt>
      <trkpt lat="54.30404" lon="16.18953">
        <ele>35.236231</ele>
        <time>2024-07-28T13:58:58.646Z</time>
      </trkpt>
      <trkpt lat="54.30413" lon="16.1897">
        <ele>35.16508</ele>
        <time>2024-07-28T13:59:01.648Z</time>
      </trkpt>
      <trkpt lat="54.30421" lon="16.18988">
        <ele>35.094647</ele>
        <time>2024-07-28T13:59:04.645Z</time>
      </trkpt>
      <trkpt lat="54.30427" lon="16.19">
        <ele>35.044239</ele>
        <time>2024-07-28T13:59:06.642Z</time>
      </trkpt>
      <trkpt lat="54.30433" lon="16.19012">
        <ele>34.995729</ele>
        <time>2024-07-28T13:59:08.646Z</time>
      </trkpt>
      <trkpt lat="54.30442" lon="16.1903">
        <ele>34.939986</ele>
        <time>2024-07-28T13:59:11.646Z</time>
      </trkpt>
      <trkpt lat="54.30448" lon="16.19042">
        <ele>34.902797</ele>
        <time>2024-07-28T13:59:13.649Z</time>
      </trkpt>
      <trkpt lat="54.30455" lon="16.19054">
        <ele>34.865516</ele>
        <time>2024-07-28T13:59:15.644Z</time>
      </trkpt>
      <trkpt lat="54.30461" lon="16.19066">
        <ele>34.827195</ele>
        <time>2024-07-28T13:59:17.641Z</time>
      </trkpt>
      <trkpt lat="54.30467" lon="16.19079">
        <ele>34.790064</ele>
        <time>2024-07-28T13:59:19.645Z</time>
      </trkpt>
      <trkpt lat="54.30473" lon="16.19092">
        <ele>34.753244</ele>
        <time>2024-07-28T13:59:21.643Z</time>
      </trkpt>
      <trkpt lat="54.30479" lon="16.19104">
        <ele>34.715619</ele>
        <time>2024-07-28T13:59:23.650Z</time>
      </trkpt>
      <trkpt lat="54.30485" lon="16.19116">
        <ele>34.677027</ele>
        <time>2024-07-28T13:59:25.665Z</time>
      </trkpt>
      <trkpt lat="54.30491" lon="16.19129">
        <ele>34.639468</ele>
        <time>2024-07-28T13:59:27.646Z</time>
      </trkpt>
      <trkpt lat="54.30498" lon="16.19141">
        <ele>34.601235</ele>
        <time>2024-07-28T13:59:29.646Z</time>
      </trkpt>
      <trkpt lat="54.30504" lon="16.19154">
        <ele>34.561777</ele>
        <time>2024-07-28T13:59:31.638Z</time>
      </trkpt>
      <trkpt lat="54.30511" lon="16.19167">
        <ele>34.52198</ele>
        <time>2024-07-28T13:59:33.646Z</time>
      </trkpt>
      <trkpt lat="54.30517" lon="16.1918">
        <ele>34.482846</ele>
        <time>2024-07-28T13:59:35.649Z</time>
      </trkpt>
      <trkpt lat="54.30524" lon="16.19193">
        <ele>34.442962</ele>
        <time>2024-07-28T13:59:37.648Z</time>
      </trkpt>
      <trkpt lat="54.3053" lon="16.19208">
        <ele>34.401303</ele>
        <time>2024-07-28T13:59:39.648Z</time>
      </trkpt>
      <trkpt lat="54.30536" lon="16.19221">
        <ele>34.361312</ele>
        <time>2024-07-28T13:59:41.653Z</time>
      </trkpt>
      <trkpt lat="54.30542" lon="16.19234">
        <ele>34.323247</ele>
        <time>2024-07-28T13:59:43.658Z</time>
      </trkpt>
      <trkpt lat="54.30549" lon="16.19246">
        <ele>34.285449</ele>
        <time>2024-07-28T13:59:45.641Z</time>
      </trkpt>
      <trkpt lat="54.30555" lon="16.19259">
        <ele>34.284045</ele>
        <time>2024-07-28T13:59:47.633Z</time>
      </trkpt>
      <trkpt lat="54.30561" lon="16.19271">
        <ele>34.292838</ele>
        <time>2024-07-28T13:59:49.632Z</time>
      </trkpt>
      <trkpt lat="54.30567" lon="16.19284">
        <ele>34.301902</ele>
        <time>2024-07-28T13:59:51.630Z</time>
      </trkpt>
      <trkpt lat="54.30573" lon="16.19296">
        <ele>34.310704</ele>
        <time>2024-07-28T13:59:53.634Z</time>
      </trkpt>
      <trkpt lat="54.30579" lon="16.19309">
        <ele>34.319721</ele>
        <time>2024-07-28T13:59:55.637Z</time>
      </trkpt>
      <trkpt lat="54.30585" lon="16.19321">
        <ele>34.328379</ele>
        <time>2024-07-28T13:59:57.634Z</time>
      </trkpt>
      <trkpt lat="54.30591" lon="16.19333">
        <ele>34.337066</ele>
        <time>2024-07-28T13:59:59.652Z</time>
      </trkpt>
      <trkpt lat="54.30598" lon="16.19345">
        <ele>34.346555</ele>
        <time>2024-07-28T14:00:01.642Z</time>
      </trkpt>
      <trkpt lat="54.30605" lon="16.19358">
        <ele>34.355801</ele>
        <time>2024-07-28T14:00:03.641Z</time>
      </trkpt>
      <trkpt lat="54.30611" lon="16.19371">
        <ele>34.365313</ele>
        <time>2024-07-28T14:00:05.714Z</time>
      </trkpt>
      <trkpt lat="54.30618" lon="16.19384">
        <ele>34.374908</ele>
        <time>2024-07-28T14:00:07.651Z</time>
      </trkpt>
      <trkpt lat="54.30624" lon="16.19397">
        <ele>34.383906</ele>
        <time>2024-07-28T14:00:09.647Z</time>
      </trkpt>
      <trkpt lat="54.30631" lon="16.19409">
        <ele>34.392759</ele>
        <time>2024-07-28T14:00:11.644Z</time>
      </trkpt>
      <trkpt lat="54.30637" lon="16.19421">
        <ele>34.401324</ele>
        <time>2024-07-28T14:00:13.663Z</time>
      </trkpt>
      <trkpt lat="54.30645" lon="16.19438">
        <ele>34.413872</ele>
        <time>2024-07-28T14:00:16.650Z</time>
      </trkpt>
      <trkpt lat="54.30651" lon="16.1945">
        <ele>34.422459</ele>
        <time>2024-07-28T14:00:18.653Z</time>
      </trkpt>
      <trkpt lat="54.30659" lon="16.19464">
        <ele>34.432797</ele>
        <time>2024-07-28T14:00:21.657Z</time>
      </trkpt>
      <trkpt lat="54.30665" lon="16.19476">
        <ele>34.442025</ele>
        <time>2024-07-28T14:00:24.640Z</time>
      </trkpt>
      <trkpt lat="54.30674" lon="16.1949">
        <ele>34.421619</ele>
        <time>2024-07-28T14:00:27.656Z</time>
      </trkpt>
      <trkpt lat="54.30682" lon="16.19504">
        <ele>34.384447</ele>
        <time>2024-07-28T14:00:30.654Z</time>
      </trkpt>
      <trkpt lat="54.3069" lon="16.19518">
        <ele>34.347505</ele>
        <time>2024-07-28T14:00:33.651Z</time>
      </trkpt>
      <trkpt lat="54.30698" lon="16.19531">
        <ele>34.310333</ele>
        <time>2024-07-28T14:00:36.649Z</time>
      </trkpt>
      <trkpt lat="54.30705" lon="16.19546">
        <ele>34.272302</ele>
        <time>2024-07-28T14:00:39.666Z</time>
      </trkpt>
      <trkpt lat="54.30713" lon="16.19562">
        <ele>34.232757</ele>
        <time>2024-07-28T14:00:42.651Z</time>
      </trkpt>
      <trkpt lat="54.30718" lon="16.19575">
        <ele>34.203031</ele>
        <time>2024-07-28T14:00:44.666Z</time>
      </trkpt>
      <trkpt lat="54.30718" lon="16.19596">
        <ele>34.162736</ele>
        <time>2024-07-28T14:00:47.659Z</time>
      </trkpt>
      <trkpt lat="54.30712" lon="16.19614">
        <ele>34.122479</ele>
        <time>2024-07-28T14:00:50.651Z</time>
      </trkpt>
      <trkpt lat="54.30703" lon="16.19625">
        <ele>34.085386</ele>
        <time>2024-07-28T14:00:53.651Z</time>
      </trkpt>
      <trkpt lat="54.307" lon="16.19643">
        <ele>34.049298</ele>
        <time>2024-07-28T14:00:57.643Z</time>
      </trkpt>
      <trkpt lat="54.30694" lon="16.19656">
        <ele>34.018368</ele>
        <time>2024-07-28T14:01:00.650Z</time>
      </trkpt>
      <trkpt lat="54.30685" lon="16.19657">
        <ele>33.988097</ele>
        <time>2024-07-28T14:01:03.648Z</time>
      </trkpt>
      <trkpt lat="54.30675" lon="16.19663">
        <ele>33.950845</ele>
        <time>2024-07-28T14:01:06.631Z</time>
      </trkpt>
      <trkpt lat="54.30666" lon="16.1967">
        <ele>33.921365</ele>
        <time>2024-07-28T14:01:08.642Z</time>
      </trkpt>
      <trkpt lat="54.30656" lon="16.1968">
        <ele>33.88207</ele>
        <time>2024-07-28T14:01:11.632Z</time>
      </trkpt>
      <trkpt lat="54.30647" lon="16.19693">
        <ele>33.852183</ele>
        <time>2024-07-28T14:01:14.659Z</time>
      </trkpt>
      <trkpt lat="54.30637" lon="16.19705">
        <ele>33.843467</ele>
        <time>2024-07-28T14:01:17.665Z</time>
      </trkpt>
      <trkpt lat="54.30626" lon="16.19717">
        <ele>33.833993</ele>
        <time>2024-07-28T14:01:20.654Z</time>
      </trkpt>
      <trkpt lat="54.30615" lon="16.19729">
        <ele>33.824593</ele>
        <time>2024-07-28T14:01:23.648Z</time>
      </trkpt>
      <trkpt lat="54.30605" lon="16.19741">
        <ele>33.815226</ele>
        <time>2024-07-28T14:01:26.647Z</time>
      </trkpt>
      <trkpt lat="54.30597" lon="16.1975">
        <ele>33.808514</ele>
        <time>2024-07-28T14:01:28.640Z</time>
      </trkpt>
      <trkpt lat="54.30587" lon="16.19764">
        <ele>33.799337</ele>
        <time>2024-07-28T14:01:31.659Z</time>
      </trkpt>
      <trkpt lat="54.30576" lon="16.19777">
        <ele>33.789709</ele>
        <time>2024-07-28T14:01:34.652Z</time>
      </trkpt>
      <trkpt lat="54.30568" lon="16.19785">
        <ele>33.782913</ele>
        <time>2024-07-28T14:01:36.656Z</time>
      </trkpt>
      <trkpt lat="54.30558" lon="16.19799">
        <ele>33.773269</ele>
        <time>2024-07-28T14:01:39.645Z</time>
      </trkpt>
      <trkpt lat="54.30547" lon="16.19812">
        <ele>33.763532</ele>
        <time>2024-07-28T14:01:42.659Z</time>
      </trkpt>
      <trkpt lat="54.30539" lon="16.19821">
        <ele>33.756611</ele>
        <time>2024-07-28T14:01:44.664Z</time>
      </trkpt>
      <trkpt lat="54.30532" lon="16.19831">
        <ele>33.749899</ele>
        <time>2024-07-28T14:01:46.645Z</time>
      </trkpt>
      <trkpt lat="54.30524" lon="16.1984">
        <ele>33.743295</ele>
        <time>2024-07-28T14:01:48.668Z</time>
      </trkpt>
      <trkpt lat="54.30517" lon="16.19849">
        <ele>33.736625</ele>
        <time>2024-07-28T14:01:50.657Z</time>
      </trkpt>
      <trkpt lat="54.30509" lon="16.19858">
        <ele>33.72971</ele>
        <time>2024-07-28T14:01:52.662Z</time>
      </trkpt>
      <trkpt lat="54.30501" lon="16.19868">
        <ele>33.724361</ele>
        <time>2024-07-28T14:01:54.647Z</time>
      </trkpt>
      <trkpt lat="54.30493" lon="16.19878">
        <ele>33.726809</ele>
        <time>2024-07-28T14:01:56.643Z</time>
      </trkpt>
      <trkpt lat="54.30485" lon="16.19888">
        <ele>33.729281</ele>
        <time>2024-07-28T14:01:58.652Z</time>
      </trkpt>
      <trkpt lat="54.30477" lon="16.19897">
        <ele>33.731742</ele>
        <time>2024-07-28T14:02:00.652Z</time>
      </trkpt>
      <trkpt lat="54.30469" lon="16.19908">
        <ele>33.734183</ele>
        <time>2024-07-28T14:02:02.655Z</time>
      </trkpt>
      <trkpt lat="54.30461" lon="16.19917">
        <ele>33.736463</ele>
        <time>2024-07-28T14:02:04.652Z</time>
      </trkpt>
      <trkpt lat="54.30453" lon="16.19926">
        <ele>33.738854</ele>
        <time>2024-07-28T14:02:06.655Z</time>
      </trkpt>
      <trkpt lat="54.30445" lon="16.19935">
        <ele>33.741199</ele>
        <time>2024-07-28T14:02:08.652Z</time>
      </trkpt>
      <trkpt lat="54.30435" lon="16.19948">
        <ele>33.744355</ele>
        <time>2024-07-28T14:02:11.656Z</time>
      </trkpt>
      <trkpt lat="54.30428" lon="16.19957">
        <ele>33.746595</ele>
        <time>2024-07-28T14:02:13.655Z</time>
      </trkpt>
      <trkpt lat="54.3042" lon="16.19966">
        <ele>33.748892</ele>
        <time>2024-07-28T14:02:15.635Z</time>
      </trkpt>
      <trkpt lat="54.30412" lon="16.19976">
        <ele>33.751206</ele>
        <time>2024-07-28T14:02:17.651Z</time>
      </trkpt>
      <trkpt lat="54.30405" lon="16.19985">
        <ele>33.753446</ele>
        <time>2024-07-28T14:02:19.670Z</time>
      </trkpt>
      <trkpt lat="54.30398" lon="16.20003">
        <ele>33.756455</ele>
        <time>2024-07-28T14:02:22.642Z</time>
      </trkpt>
      <trkpt lat="54.30387" lon="16.20014">
        <ele>33.75977</ele>
        <time>2024-07-28T14:02:25.643Z</time>
      </trkpt>
      <trkpt lat="54.30378" lon="16.20022">
        <ele>33.762133</ele>
        <time>2024-07-28T14:02:27.628Z</time>
      </trkpt>
      <trkpt lat="54.3037" lon="16.2003">
        <ele>33.764555</ele>
        <time>2024-07-28T14:02:29.660Z</time>
      </trkpt>
      <trkpt lat="54.30361" lon="16.20038">
        <ele>33.766994</ele>
        <time>2024-07-28T14:02:31.655Z</time>
      </trkpt>
      <trkpt lat="54.30352" lon="16.20046">
        <ele>33.789242</ele>
        <time>2024-07-28T14:02:33.647Z</time>
      </trkpt>
      <trkpt lat="54.30343" lon="16.20054">
        <ele>33.8369</ele>
        <time>2024-07-28T14:02:35.661Z</time>
      </trkpt>
      <trkpt lat="54.30334" lon="16.20062">
        <ele>33.883643</ele>
        <time>2024-07-28T14:02:37.642Z</time>
      </trkpt>
      <trkpt lat="54.30326" lon="16.2007">
        <ele>33.929027</ele>
        <time>2024-07-28T14:02:39.681Z</time>
      </trkpt>
      <trkpt lat="54.30317" lon="16.20078">
        <ele>33.973933</ele>
        <time>2024-07-28T14:02:41.648Z</time>
      </trkpt>
      <trkpt lat="54.30309" lon="16.20086">
        <ele>34.017317</ele>
        <time>2024-07-28T14:02:43.658Z</time>
      </trkpt>
      <trkpt lat="54.30301" lon="16.20094">
        <ele>34.06162</ele>
        <time>2024-07-28T14:02:45.648Z</time>
      </trkpt>
      <trkpt lat="54.30293" lon="16.20101">
        <ele>34.105088</ele>
        <time>2024-07-28T14:02:47.646Z</time>
      </trkpt>
      <trkpt lat="54.30284" lon="16.20108">
        <ele>34.149162</ele>
        <time>2024-07-28T14:02:49.643Z</time>
      </trkpt>
      <trkpt lat="54.30277" lon="16.20116">
        <ele>34.191045</ele>
        <time>2024-07-28T14:02:51.659Z</time>
      </trkpt>
      <trkpt lat="54.30265" lon="16.20126">
        <ele>34.253503</ele>
        <time>2024-07-28T14:02:54.647Z</time>
      </trkpt>
      <trkpt lat="54.30256" lon="16.20134">
        <ele>34.298086</ele>
        <time>2024-07-28T14:02:56.638Z</time>
      </trkpt>
      <trkpt lat="54.30248" lon="16.20142">
        <ele>34.340787</ele>
        <time>2024-07-28T14:02:58.666Z</time>
      </trkpt>
      <trkpt lat="54.30237" lon="16.20153">
        <ele>34.400757</ele>
        <time>2024-07-28T14:03:01.646Z</time>
      </trkpt>
      <trkpt lat="54.30226" lon="16.20165">
        <ele>34.463833</ele>
        <time>2024-07-28T14:03:04.644Z</time>
      </trkpt>
      <trkpt lat="54.30218" lon="16.20172">
        <ele>34.506243</ele>
        <time>2024-07-28T14:03:06.667Z</time>
      </trkpt>
      <trkpt lat="54.30207" lon="16.20184">
        <ele>34.565721</ele>
        <time>2024-07-28T14:03:09.676Z</time>
      </trkpt>
      <trkpt lat="54.30195" lon="16.20183">
        <ele>34.617418</ele>
        <time>2024-07-28T14:03:12.642Z</time>
      </trkpt>
      <trkpt lat="54.30186" lon="16.20192">
        <ele>34.660051</ele>
        <time>2024-07-28T14:03:15.646Z</time>
      </trkpt>
      <trkpt lat="54.30176" lon="16.20201">
        <ele>34.706533</ele>
        <time>2024-07-28T14:03:18.662Z</time>
      </trkpt>
      <trkpt lat="54.30166" lon="16.20211">
        <ele>34.752187</ele>
        <time>2024-07-28T14:03:21.648Z</time>
      </trkpt>
      <trkpt lat="54.30156" lon="16.2022">
        <ele>34.798315</ele>
        <time>2024-07-28T14:03:24.653Z</time>
      </trkpt>
      <trkpt lat="54.30145" lon="16.2023">
        <ele>34.848402</ele>
        <time>2024-07-28T14:03:27.650Z</time>
      </trkpt>
      <trkpt lat="54.30134" lon="16.20241">
        <ele>34.899981</ele>
        <time>2024-07-28T14:03:30.656Z</time>
      </trkpt>
      <trkpt lat="54.30123" lon="16.20253">
        <ele>34.950376</ele>
        <time>2024-07-28T14:03:33.654Z</time>
      </trkpt>
      <trkpt lat="54.30113" lon="16.20265">
        <ele>35.000643</ele>
        <time>2024-07-28T14:03:36.648Z</time>
      </trkpt>
      <trkpt lat="54.30102" lon="16.20279">
        <ele>35.053867</ele>
        <time>2024-07-28T14:03:39.645Z</time>
      </trkpt>
      <trkpt lat="54.30095" lon="16.20288">
        <ele>35.090885</ele>
        <time>2024-07-28T14:03:41.654Z</time>
      </trkpt>
      <trkpt lat="54.30084" lon="16.20301">
        <ele>35.142602</ele>
        <time>2024-07-28T14:03:44.661Z</time>
      </trkpt>
      <trkpt lat="54.30075" lon="16.20312">
        <ele>35.189093</ele>
        <time>2024-07-28T14:03:47.638Z</time>
      </trkpt>
      <trkpt lat="54.30064" lon="16.20325">
        <ele>35.242696</ele>
        <time>2024-07-28T14:03:50.637Z</time>
      </trkpt>
      <trkpt lat="54.30057" lon="16.20335">
        <ele>35.279582</ele>
        <time>2024-07-28T14:03:52.648Z</time>
      </trkpt>
      <trkpt lat="54.30049" lon="16.20344">
        <ele>35.316551</ele>
        <time>2024-07-28T14:03:54.644Z</time>
      </trkpt>
      <trkpt lat="54.30042" lon="16.20353">
        <ele>35.333647</ele>
        <time>2024-07-28T14:03:56.649Z</time>
      </trkpt>
      <trkpt lat="54.30034" lon="16.20363">
        <ele>35.339692</ele>
        <time>2024-07-28T14:03:58.650Z</time>
      </trkpt>
      <trkpt lat="54.30026" lon="16.20372">
        <ele>35.34592</ele>
        <time>2024-07-28T14:04:00.644Z</time>
      </trkpt>
      <trkpt lat="54.30019" lon="16.20382">
        <ele>35.352051</ele>
        <time>2024-07-28T14:04:02.649Z</time>
      </trkpt>
      <trkpt lat="54.30011" lon="16.20392">
        <ele>35.358661</ele>
        <time>2024-07-28T14:04:04.657Z</time>
      </trkpt>
      <trkpt lat="54.30005" lon="16.20404">
        <ele>35.364866</ele>
        <time>2024-07-28T14:04:06.642Z</time>
      </trkpt>
      <trkpt lat="54.29999" lon="16.20417">
        <ele>35.371313</ele>
        <time>2024-07-28T14:04:08.642Z</time>
      </trkpt>
      <trkpt lat="54.29992" lon="16.20429">
        <ele>35.377571</ele>
        <time>2024-07-28T14:04:10.647Z</time>
      </trkpt>
      <trkpt lat="54.29986" lon="16.20443">
        <ele>35.384484</ele>
        <time>2024-07-28T14:04:12.666Z</time>
      </trkpt>
      <trkpt lat="54.29979" lon="16.20456">
        <ele>35.391293</ele>
        <time>2024-07-28T14:04:14.648Z</time>
      </trkpt>
      <trkpt lat="54.29972" lon="16.2047">
        <ele>35.398289</ele>
        <time>2024-07-28T14:04:16.641Z</time>
      </trkpt>
      <trkpt lat="54.29965" lon="16.20483">
        <ele>35.405114</ele>
        <time>2024-07-28T14:04:18.661Z</time>
      </trkpt>
      <trkpt lat="54.29958" lon="16.20496">
        <ele>35.412097</ele>
        <time>2024-07-28T14:04:20.661Z</time>
      </trkpt>
      <trkpt lat="54.29951" lon="16.20509">
        <ele>35.419007</ele>
        <time>2024-07-28T14:04:22.669Z</time>
      </trkpt>
      <trkpt lat="54.29943" lon="16.20523">
        <ele>35.426403</ele>
        <time>2024-07-28T14:04:24.670Z</time>
      </trkpt>
      <trkpt lat="54.29935" lon="16.20534">
        <ele>35.433283</ele>
        <time>2024-07-28T14:04:26.648Z</time>
      </trkpt>
      <trkpt lat="54.29926" lon="16.20544">
        <ele>35.440154</ele>
        <time>2024-07-28T14:04:28.657Z</time>
      </trkpt>
      <trkpt lat="54.29918" lon="16.20554">
        <ele>35.446894</ele>
        <time>2024-07-28T14:04:30.655Z</time>
      </trkpt>
      <trkpt lat="54.2991" lon="16.20564">
        <ele>35.407518</ele>
        <time>2024-07-28T14:04:32.632Z</time>
      </trkpt>
      <trkpt lat="54.29902" lon="16.20574">
        <ele>35.353782</ele>
        <time>2024-07-28T14:04:34.651Z</time>
      </trkpt>
      <trkpt lat="54.29893" lon="16.20584">
        <ele>35.296965</ele>
        <time>2024-07-28T14:04:36.647Z</time>
      </trkpt>
      <trkpt lat="54.29885" lon="16.20594">
        <ele>35.23933</ele>
        <time>2024-07-28T14:04:38.655Z</time>
      </trkpt>
      <trkpt lat="54.29876" lon="16.20605">
        <ele>35.178526</ele>
        <time>2024-07-28T14:04:40.649Z</time>
      </trkpt>
      <trkpt lat="54.29867" lon="16.20615">
        <ele>35.121473</ele>
        <time>2024-07-28T14:04:42.649Z</time>
      </trkpt>
      <trkpt lat="54.29858" lon="16.20627">
        <ele>35.060628</ele>
        <time>2024-07-28T14:04:44.646Z</time>
      </trkpt>
      <trkpt lat="54.29849" lon="16.20637">
        <ele>35.000087</ele>
        <time>2024-07-28T14:04:46.658Z</time>
      </trkpt>
      <trkpt lat="54.2984" lon="16.20646">
        <ele>34.943962</ele>
        <time>2024-07-28T14:04:48.666Z</time>
      </trkpt>
      <trkpt lat="54.29832" lon="16.20655">
        <ele>34.890225</ele>
        <time>2024-07-28T14:04:50.655Z</time>
      </trkpt>
      <trkpt lat="54.29824" lon="16.20665">
        <ele>34.834193</ele>
        <time>2024-07-28T14:04:52.662Z</time>
      </trkpt>
      <trkpt lat="54.29816" lon="16.20675">
        <ele>34.780297</ele>
        <time>2024-07-28T14:04:54.650Z</time>
      </trkpt>
      <trkpt lat="54.29807" lon="16.20684">
        <ele>34.723282</ele>
        <time>2024-07-28T14:04:56.641Z</time>
      </trkpt>
      <trkpt lat="54.29799" lon="16.20694">
        <ele>34.667538</ele>
        <time>2024-07-28T14:04:58.653Z</time>
      </trkpt>
      <trkpt lat="54.2979" lon="16.20704">
        <ele>34.610537</ele>
        <time>2024-07-28T14:05:00.665Z</time>
      </trkpt>
      <trkpt lat="54.29781" lon="16.20715">
        <ele>34.549818</ele>
        <time>2024-07-28T14:05:02.649Z</time>
      </trkpt>
      <trkpt lat="54.29772" lon="16.20725">
        <ele>34.490732</ele>
        <time>2024-07-28T14:05:04.660Z</time>
      </trkpt>
      <trkpt lat="54.29763" lon="16.20737">
        <ele>34.483427</ele>
        <time>2024-07-28T14:05:06.646Z</time>
      </trkpt>
      <trkpt lat="54.29754" lon="16.20747">
        <ele>34.525666</ele>
        <time>2024-07-28T14:05:08.632Z</time>
      </trkpt>
      <trkpt lat="54.29745" lon="16.20758">
        <ele>34.57089</ele>
        <time>2024-07-28T14:05:10.651Z</time>
      </trkpt>
      <trkpt lat="54.29735" lon="16.2077">
        <ele>34.616827</ele>
        <time>2024-07-28T14:05:12.653Z</time>
      </trkpt>
      <trkpt lat="54.29726" lon="16.2078">
        <ele>34.658891</ele>
        <time>2024-07-28T14:05:14.653Z</time>
      </trkpt>
      <trkpt lat="54.29717" lon="16.20789">
        <ele>34.699714</ele>
        <time>2024-07-28T14:05:16.642Z</time>
      </trkpt>
      <trkpt lat="54.29708" lon="16.208">
        <ele>34.743193</ele>
        <time>2024-07-28T14:05:18.646Z</time>
      </trkpt>
      <trkpt lat="54.29699" lon="16.20811">
        <ele>34.787076</ele>
        <time>2024-07-28T14:05:20.652Z</time>
      </trkpt>
      <trkpt lat="54.2969" lon="16.20821">
        <ele>34.828423</ele>
        <time>2024-07-28T14:05:22.649Z</time>
      </trkpt>
      <trkpt lat="54.29682" lon="16.20831">
        <ele>34.868008</ele>
        <time>2024-07-28T14:05:24.645Z</time>
      </trkpt>
      <trkpt lat="54.29674" lon="16.20841">
        <ele>34.908822</ele>
        <time>2024-07-28T14:05:26.647Z</time>
      </trkpt>
      <trkpt lat="54.29665" lon="16.20851">
        <ele>34.950866</ele>
        <time>2024-07-28T14:05:28.654Z</time>
      </trkpt>
      <trkpt lat="54.29656" lon="16.20861">
        <ele>34.991418</ele>
        <time>2024-07-28T14:05:30.653Z</time>
      </trkpt>
      <trkpt lat="54.29647" lon="16.20872">
        <ele>35.034695</ele>
        <time>2024-07-28T14:05:32.666Z</time>
      </trkpt>
      <trkpt lat="54.29638" lon="16.20883">
        <ele>35.079535</ele>
        <time>2024-07-28T14:05:34.654Z</time>
      </trkpt>
      <trkpt lat="54.29629" lon="16.20894">
        <ele>35.123238</ele>
        <time>2024-07-28T14:05:36.631Z</time>
      </trkpt>
      <trkpt lat="54.2962" lon="16.20905">
        <ele>35.165383</ele>
        <time>2024-07-28T14:05:38.646Z</time>
      </trkpt>
      <trkpt lat="54.29612" lon="16.20916">
        <ele>35.224242</ele>
        <time>2024-07-28T14:05:40.661Z</time>
      </trkpt>
      <trkpt lat="54.29603" lon="16.20925">
        <ele>35.279451</ele>
        <time>2024-07-28T14:05:42.642Z</time>
      </trkpt>
      <trkpt lat="54.29594" lon="16.20934">
        <ele>35.336077</ele>
        <time>2024-07-28T14:05:44.651Z</time>
      </trkpt>
      <trkpt lat="54.29586" lon="16.20944">
        <ele>35.39005</ele>
        <time>2024-07-28T14:05:46.645Z</time>
      </trkpt>
      <trkpt lat="54.29578" lon="16.20954">
        <ele>35.443833</ele>
        <time>2024-07-28T14:05:48.659Z</time>
      </trkpt>
      <trkpt lat="54.29569" lon="16.20964">
        <ele>35.503588</ele>
        <time>2024-07-28T14:05:50.648Z</time>
      </trkpt>
      <trkpt lat="54.2956" lon="16.20975">
        <ele>35.565324</ele>
        <time>2024-07-28T14:05:52.644Z</time>
      </trkpt>
      <trkpt lat="54.2955" lon="16.20985">
        <ele>35.627366</ele>
        <time>2024-07-28T14:05:54.656Z</time>
      </trkpt>
      <trkpt lat="54.2954" lon="16.20996">
        <ele>35.69076</ele>
        <time>2024-07-28T14:05:56.646Z</time>
      </trkpt>
      <trkpt lat="54.29531" lon="16.21006">
        <ele>35.752247</ele>
        <time>2024-07-28T14:05:58.659Z</time>
      </trkpt>
      <trkpt lat="54.29522" lon="16.21016">
        <ele>35.80992</ele>
        <time>2024-07-28T14:06:00.655Z</time>
      </trkpt>
      <trkpt lat="54.29513" lon="16.21024">
        <ele>35.864708</ele>
        <time>2024-07-28T14:06:02.648Z</time>
      </trkpt>
      <trkpt lat="54.29505" lon="16.21031">
        <ele>35.915686</ele>
        <time>2024-07-28T14:06:04.634Z</time>
      </trkpt>
      <trkpt lat="54.29496" lon="16.21038">
        <ele>35.970681</ele>
        <time>2024-07-28T14:06:06.631Z</time>
      </trkpt>
      <trkpt lat="54.29487" lon="16.21046">
        <ele>36.026946</ele>
        <time>2024-07-28T14:06:08.653Z</time>
      </trkpt>
      <trkpt lat="54.29478" lon="16.21051">
        <ele>36.080282</ele>
        <time>2024-07-28T14:06:10.642Z</time>
      </trkpt>
      <trkpt lat="54.29468" lon="16.21057">
        <ele>36.135489</ele>
        <time>2024-07-28T14:06:12.652Z</time>
      </trkpt>
      <trkpt lat="54.29459" lon="16.21062">
        <ele>36.117044</ele>
        <time>2024-07-28T14:06:14.663Z</time>
      </trkpt>
      <trkpt lat="54.29449" lon="16.21065">
        <ele>36.054234</ele>
        <time>2024-07-28T14:06:16.659Z</time>
      </trkpt>
      <trkpt lat="54.29439" lon="16.21069">
        <ele>35.988632</ele>
        <time>2024-07-28T14:06:18.648Z</time>
      </trkpt>
      <trkpt lat="54.29428" lon="16.21073">
        <ele>35.922179</ele>
        <time>2024-07-28T14:06:20.653Z</time>
      </trkpt>
      <trkpt lat="54.29418" lon="16.21075">
        <ele>35.854608</ele>
        <time>2024-07-28T14:06:22.646Z</time>
      </trkpt>
      <trkpt lat="54.29408" lon="16.21076">
        <ele>35.790451</ele>
        <time>2024-07-28T14:06:24.666Z</time>
      </trkpt>
      <trkpt lat="54.29398" lon="16.21076">
        <ele>35.727113</ele>
        <time>2024-07-28T14:06:26.654Z</time>
      </trkpt>
      <trkpt lat="54.29387" lon="16.21076">
        <ele>35.661281</ele>
        <time>2024-07-28T14:06:28.666Z</time>
      </trkpt>
      <trkpt lat="54.29378" lon="16.21076">
        <ele>35.599885</ele>
        <time>2024-07-28T14:06:30.668Z</time>
      </trkpt>
      <trkpt lat="54.29368" lon="16.21076">
        <ele>35.535929</ele>
        <time>2024-07-28T14:06:32.652Z</time>
      </trkpt>
      <trkpt lat="54.29358" lon="16.21075">
        <ele>35.473695</ele>
        <time>2024-07-28T14:06:34.649Z</time>
      </trkpt>
      <trkpt lat="54.29348" lon="16.21074">
        <ele>35.411606</ele>
        <time>2024-07-28T14:06:36.645Z</time>
      </trkpt>
      <trkpt lat="54.29338" lon="16.21073">
        <ele>35.348771</ele>
        <time>2024-07-28T14:06:38.653Z</time>
      </trkpt>
      <trkpt lat="54.29329" lon="16.21071">
        <ele>35.290756</ele>
        <time>2024-07-28T14:06:40.644Z</time>
      </trkpt>
      <trkpt lat="54.29315" lon="16.2107">
        <ele>35.205283</ele>
        <time>2024-07-28T14:06:43.651Z</time>
      </trkpt>
      <trkpt lat="54.29306" lon="16.2107">
        <ele>35.146427</ele>
        <time>2024-07-28T14:06:45.665Z</time>
      </trkpt>
      <trkpt lat="54.29297" lon="16.21069">
        <ele>35.088742</ele>
        <time>2024-07-28T14:06:47.662Z</time>
      </trkpt>
      <trkpt lat="54.29288" lon="16.2107">
        <ele>35.029237</ele>
        <time>2024-07-28T14:06:49.651Z</time>
      </trkpt>
      <trkpt lat="54.29278" lon="16.2107">
        <ele>35.019729</ele>
        <time>2024-07-28T14:06:51.648Z</time>
      </trkpt>
      <trkpt lat="54.29268" lon="16.2107">
        <ele>35.021868</ele>
        <time>2024-07-28T14:06:53.668Z</time>
      </trkpt>
      <trkpt lat="54.29259" lon="16.21069">
        <ele>35.023834</ele>
        <time>2024-07-28T14:06:55.646Z</time>
      </trkpt>
      <trkpt lat="54.29246" lon="16.21067">
        <ele>35.026709</ele>
        <time>2024-07-28T14:06:58.653Z</time>
      </trkpt>
      <trkpt lat="54.29232" lon="16.21068">
        <ele>35.029703</ele>
        <time>2024-07-28T14:07:01.653Z</time>
      </trkpt>
      <trkpt lat="54.29223" lon="16.21067">
        <ele>35.031692</ele>
        <time>2024-07-28T14:07:03.637Z</time>
      </trkpt>
      <trkpt lat="54.29214" lon="16.21066">
        <ele>35.03366</ele>
        <time>2024-07-28T14:07:05.649Z</time>
      </trkpt>
      <trkpt lat="54.29205" lon="16.21065">
        <ele>35.035677</ele>
        <time>2024-07-28T14:07:07.668Z</time>
      </trkpt>
      <trkpt lat="54.29196" lon="16.21064">
        <ele>35.037712</ele>
        <time>2024-07-28T14:07:09.666Z</time>
      </trkpt>
      <trkpt lat="54.29186" lon="16.21063">
        <ele>35.039767</ele>
        <time>2024-07-28T14:07:11.662Z</time>
      </trkpt>
      <trkpt lat="54.29177" lon="16.21062">
        <ele>35.041754</ele>
        <time>2024-07-28T14:07:13.667Z</time>
      </trkpt>
      <trkpt lat="54.29168" lon="16.21062">
        <ele>35.043719</ele>
        <time>2024-07-28T14:07:15.645Z</time>
      </trkpt>
      <trkpt lat="54.29159" lon="16.21062">
        <ele>35.045749</ele>
        <time>2024-07-28T14:07:17.657Z</time>
      </trkpt>
      <trkpt lat="54.29146" lon="16.21061">
        <ele>35.048697</ele>
        <time>2024-07-28T14:07:20.636Z</time>
      </trkpt>
      <trkpt lat="54.29136" lon="16.2106">
        <ele>35.050728</ele>
        <time>2024-07-28T14:07:22.644Z</time>
      </trkpt>
      <trkpt lat="54.29127" lon="16.21061">
        <ele>35.052736</ele>
        <time>2024-07-28T14:07:24.659Z</time>
      </trkpt>
      <trkpt lat="54.29118" lon="16.21061">
        <ele>35.054723</ele>
        <time>2024-07-28T14:07:26.637Z</time>
      </trkpt>
      <trkpt lat="54.29109" lon="16.21059">
        <ele>35.056758</ele>
        <time>2024-07-28T14:07:28.646Z</time>
      </trkpt>
      <trkpt lat="54.29099" lon="16.21059">
        <ele>35.092237</ele>
        <time>2024-07-28T14:07:30.668Z</time>
      </trkpt>
      <trkpt lat="54.29089" lon="16.21058">
        <ele>35.142792</ele>
        <time>2024-07-28T14:07:32.656Z</time>
      </trkpt>
      <trkpt lat="54.29079" lon="16.21057">
        <ele>35.190984</ele>
        <time>2024-07-28T14:07:34.646Z</time>
      </trkpt>
      <trkpt lat="54.29069" lon="16.21057">
        <ele>35.238603</ele>
        <time>2024-07-28T14:07:36.632Z</time>
      </trkpt>
      <trkpt lat="54.2906" lon="16.21056">
        <ele>35.286746</ele>
        <time>2024-07-28T14:07:38.649Z</time>
      </trkpt>
      <trkpt lat="54.2905" lon="16.21055">
        <ele>35.333405</ele>
        <time>2024-07-28T14:07:40.666Z</time>
      </trkpt>
      <trkpt lat="54.2904" lon="16.21055">
        <ele>35.381017</ele>
        <time>2024-07-28T14:07:42.647Z</time>
      </trkpt>
      <trkpt lat="54.29031" lon="16.21055">
        <ele>35.429119</ele>
        <time>2024-07-28T14:07:44.660Z</time>
      </trkpt>
      <trkpt lat="54.29021" lon="16.21054">
        <ele>35.476786</ele>
        <time>2024-07-28T14:07:46.642Z</time>
      </trkpt>
      <trkpt lat="54.29011" lon="16.21054">
        <ele>35.522912</ele>
        <time>2024-07-28T14:07:48.650Z</time>
      </trkpt>
      <trkpt lat="54.29002" lon="16.21054">
        <ele>35.567624</ele>
        <time>2024-07-28T14:07:50.670Z</time>
      </trkpt>
      <trkpt lat="54.28993" lon="16.21054">
        <ele>35.612279</ele>
        <time>2024-07-28T14:07:52.662Z</time>
      </trkpt>
      <trkpt lat="54.28981" lon="16.21052">
        <ele>35.673545</ele>
        <time>2024-07-28T14:07:55.652Z</time>
      </trkpt>
      <trkpt lat="54.28972" lon="16.21052">
        <ele>35.717708</ele>
        <time>2024-07-28T14:07:57.668Z</time>
      </trkpt>
      <trkpt lat="54.28963" lon="16.21052">
        <ele>35.763347</ele>
        <time>2024-07-28T14:07:59.646Z</time>
      </trkpt>
      <trkpt lat="54.28953" lon="16.21051">
        <ele>35.809977</ele>
        <time>2024-07-28T14:08:01.660Z</time>
      </trkpt>
      <trkpt lat="54.28944" lon="16.21051">
        <ele>35.855612</ele>
        <time>2024-07-28T14:08:03.649Z</time>
      </trkpt>
      <trkpt lat="54.28934" lon="16.2105">
        <ele>35.902866</ele>
        <time>2024-07-28T14:08:05.667Z</time>
      </trkpt>
      <trkpt lat="54.28925" lon="16.2105">
        <ele>35.926665</ele>
        <time>2024-07-28T14:08:07.640Z</time>
      </trkpt>
      <trkpt lat="54.28912" lon="16.21048">
        <ele>35.836252</ele>
        <time>2024-07-28T14:08:10.654Z</time>
      </trkpt>
      <trkpt lat="54.28903" lon="16.21049">
        <ele>35.768756</ele>
        <time>2024-07-28T14:08:12.655Z</time>
      </trkpt>
      <trkpt lat="54.28893" lon="16.21049">
        <ele>35.701306</ele>
        <time>2024-07-28T14:08:14.650Z</time>
      </trkpt>
      <trkpt lat="54.28884" lon="16.21048">
        <ele>35.636536</ele>
        <time>2024-07-28T14:08:16.637Z</time>
      </trkpt>
      <trkpt lat="54.28875" lon="16.21046">
        <ele>35.570286</ele>
        <time>2024-07-28T14:08:18.623Z</time>
      </trkpt>
      <trkpt lat="54.28865" lon="16.21046">
        <ele>35.503464</ele>
        <time>2024-07-28T14:08:20.650Z</time>
      </trkpt>
      <trkpt lat="54.28856" lon="16.21045">
        <ele>35.435982</ele>
        <time>2024-07-28T14:08:22.653Z</time>
      </trkpt>
      <trkpt lat="54.28847" lon="16.21045">
        <ele>35.371372</ele>
        <time>2024-07-28T14:08:24.657Z</time>
      </trkpt>
      <trkpt lat="54.28837" lon="16.21045">
        <ele>35.303181</ele>
        <time>2024-07-28T14:08:26.652Z</time>
      </trkpt>
      <trkpt lat="54.28828" lon="16.21044">
        <ele>35.237146</ele>
        <time>2024-07-28T14:08:28.654Z</time>
      </trkpt>
      <trkpt lat="54.28814" lon="16.21042">
        <ele>35.140692</ele>
        <time>2024-07-28T14:08:31.651Z</time>
      </trkpt>
      <trkpt lat="54.28804" lon="16.21039">
        <ele>35.070082</ele>
        <time>2024-07-28T14:08:33.657Z</time>
      </trkpt>
      <trkpt lat="54.28795" lon="16.21036">
        <ele>35.005348</ele>
        <time>2024-07-28T14:08:35.642Z</time>
      </trkpt>
      <trkpt lat="54.28783" lon="16.2103">
        <ele>34.911554</ele>
        <time>2024-07-28T14:08:38.638Z</time>
      </trkpt>
      <trkpt lat="54.2877" lon="16.21024">
        <ele>34.818018</ele>
        <time>2024-07-28T14:08:41.650Z</time>
      </trkpt>
      <trkpt lat="54.28761" lon="16.21019">
        <ele>34.748832</ele>
        <time>2024-07-28T14:08:43.660Z</time>
      </trkpt>
      <trkpt lat="54.28752" lon="16.21014">
        <ele>34.683135</ele>
        <time>2024-07-28T14:08:45.647Z</time>
      </trkpt>
      <trkpt lat="54.28744" lon="16.21009">
        <ele>34.674599</ele>
        <time>2024-07-28T14:08:47.648Z</time>
      </trkpt>
      <trkpt lat="54.28735" lon="16.21004">
        <ele>34.692433</ele>
        <time>2024-07-28T14:08:49.647Z</time>
      </trkpt>
      <trkpt lat="54.28726" lon="16.20999">
        <ele>34.709903</ele>
        <time>2024-07-28T14:08:51.648Z</time>
      </trkpt>
      <trkpt lat="54.28718" lon="16.20992">
        <ele>34.727605</ele>
        <time>2024-07-28T14:08:53.653Z</time>
      </trkpt>
      <trkpt lat="54.28709" lon="16.20987">
        <ele>34.745549</ele>
        <time>2024-07-28T14:08:55.647Z</time>
      </trkpt>
      <trkpt lat="54.287" lon="16.20981">
        <ele>34.76383</ele>
        <time>2024-07-28T14:08:57.651Z</time>
      </trkpt>
      <trkpt lat="54.28691" lon="16.20974">
        <ele>34.782632</ele>
        <time>2024-07-28T14:08:59.655Z</time>
      </trkpt>
      <trkpt lat="54.28682" lon="16.2097">
        <ele>34.800803</ele>
        <time>2024-07-28T14:09:01.645Z</time>
      </trkpt>
      <trkpt lat="54.28672" lon="16.20966">
        <ele>34.818788</ele>
        <time>2024-07-28T14:09:03.648Z</time>
      </trkpt>
      <trkpt lat="54.28663" lon="16.20962">
        <ele>34.837116</ele>
        <time>2024-07-28T14:09:05.642Z</time>
      </trkpt>
      <trkpt lat="54.28653" lon="16.20959">
        <ele>34.856415</ele>
        <time>2024-07-28T14:09:07.640Z</time>
      </trkpt>
      <trkpt lat="54.28643" lon="16.20957">
        <ele>34.875849</ele>
        <time>2024-07-28T14:09:09.665Z</time>
      </trkpt>
      <trkpt lat="54.28634" lon="16.20955">
        <ele>34.894158</ele>
        <time>2024-07-28T14:09:11.663Z</time>
      </trkpt>
      <trkpt lat="54.28624" lon="16.20955">
        <ele>34.912318</ele>
        <time>2024-07-28T14:09:13.638Z</time>
      </trkpt>
      <trkpt lat="54.28615" lon="16.20956">
        <ele>34.92955</ele>
        <time>2024-07-28T14:09:15.648Z</time>
      </trkpt>
      <trkpt lat="54.28602" lon="16.20956">
        <ele>34.95478</ele>
        <time>2024-07-28T14:09:18.657Z</time>
      </trkpt>
      <trkpt lat="54.28593" lon="16.20954">
        <ele>34.972416</ele>
        <time>2024-07-28T14:09:20.665Z</time>
      </trkpt>
      <trkpt lat="54.28584" lon="16.20954">
        <ele>34.989622</ele>
        <time>2024-07-28T14:09:22.663Z</time>
      </trkpt>
      <trkpt lat="54.2857" lon="16.20954">
        <ele>35.023843</ele>
        <time>2024-07-28T14:09:25.645Z</time>
      </trkpt>
      <trkpt lat="54.28561" lon="16.20955">
        <ele>35.060269</ele>
        <time>2024-07-28T14:09:27.649Z</time>
      </trkpt>
      <trkpt lat="54.28552" lon="16.20955">
        <ele>35.096245</ele>
        <time>2024-07-28T14:09:29.647Z</time>
      </trkpt>
      <trkpt lat="54.28543" lon="16.20956">
        <ele>35.133061</ele>
        <time>2024-07-28T14:09:31.667Z</time>
      </trkpt>
      <trkpt lat="54.28533" lon="16.20957">
        <ele>35.171024</ele>
        <time>2024-07-28T14:09:33.654Z</time>
      </trkpt>
      <trkpt lat="54.28523" lon="16.20956">
        <ele>35.208976</ele>
        <time>2024-07-28T14:09:35.669Z</time>
      </trkpt>
      <trkpt lat="54.28513" lon="16.20957">
        <ele>35.248084</ele>
        <time>2024-07-28T14:09:37.642Z</time>
      </trkpt>
      <trkpt lat="54.28504" lon="16.20958">
        <ele>35.283844</ele>
        <time>2024-07-28T14:09:39.652Z</time>
      </trkpt>
      <trkpt lat="54.28495" lon="16.2096">
        <ele>35.321182</ele>
        <time>2024-07-28T14:09:41.646Z</time>
      </trkpt>
      <trkpt lat="54.28482" lon="16.20961">
        <ele>35.372034</ele>
        <time>2024-07-28T14:09:44.653Z</time>
      </trkpt>
      <trkpt lat="54.28469" lon="16.20963">
        <ele>35.42107</ele>
        <time>2024-07-28T14:09:47.644Z</time>
      </trkpt>
      <trkpt lat="54.28456" lon="16.20966">
        <ele>35.473093</ele>
        <time>2024-07-28T14:09:50.660Z</time>
      </trkpt>
      <trkpt lat="54.28443" lon="16.20966">
        <ele>35.52393</ele>
        <time>2024-07-28T14:09:53.648Z</time>
      </trkpt>
      <trkpt lat="54.2843" lon="16.20968">
        <ele>35.573807</ele>
        <time>2024-07-28T14:09:56.665Z</time>
      </trkpt>
      <trkpt lat="54.28417" lon="16.20971">
        <ele>35.624971</ele>
        <time>2024-07-28T14:09:59.652Z</time>
      </trkpt>
      <trkpt lat="54.28404" lon="16.20973">
        <ele>35.674826</ele>
        <time>2024-07-28T14:10:02.644Z</time>
      </trkpt>
      <trkpt lat="54.28391" lon="16.20977">
        <ele>35.773889</ele>
        <time>2024-07-28T14:10:05.644Z</time>
      </trkpt>
      <trkpt lat="54.28379" lon="16.20985">
        <ele>35.951541</ele>
        <time>2024-07-28T14:10:08.645Z</time>
      </trkpt>
      <trkpt lat="54.28371" lon="16.20995">
        <ele>36.080544</ele>
        <time>2024-07-28T14:10:10.657Z</time>
      </trkpt>
      <trkpt lat="54.28367" lon="16.21016">
        <ele>36.257981</ele>
        <time>2024-07-28T14:10:13.658Z</time>
      </trkpt>
      <trkpt lat="54.28366" lon="16.21033">
        <ele>36.385997</ele>
        <time>2024-07-28T14:10:15.651Z</time>
      </trkpt>
      <trkpt lat="54.28369" lon="16.21055">
        <ele>36.56462</ele>
        <time>2024-07-28T14:10:18.644Z</time>
      </trkpt>
      <trkpt lat="54.28372" lon="16.21076">
        <ele>36.742127</ele>
        <time>2024-07-28T14:10:21.648Z</time>
      </trkpt>
      <trkpt lat="54.28375" lon="16.21099">
        <ele>36.923694</ele>
        <time>2024-07-28T14:10:24.655Z</time>
      </trkpt>
      <trkpt lat="54.28378" lon="16.21114">
        <ele>37.048514</ele>
        <time>2024-07-28T14:10:26.613Z</time>
      </trkpt>
      <trkpt lat="54.28383" lon="16.21135">
        <ele>37.227691</ele>
        <time>2024-07-28T14:10:29.666Z</time>
      </trkpt>
      <trkpt lat="54.28388" lon="16.21156">
        <ele>37.406815</ele>
        <time>2024-07-28T14:10:32.645Z</time>
      </trkpt>
      <trkpt lat="54.28393" lon="16.21176">
        <ele>37.581824</ele>
        <time>2024-07-28T14:10:35.645Z</time>
      </trkpt>
      <trkpt lat="54.28398" lon="16.21196">
        <ele>37.748289</ele>
        <time>2024-07-28T14:10:38.645Z</time>
      </trkpt>
      <trkpt lat="54.28403" lon="16.21216">
        <ele>37.920377</ele>
        <time>2024-07-28T14:10:41.645Z</time>
      </trkpt>
      <trkpt lat="54.28408" lon="16.21236">
        <ele>38.098229</ele>
        <time>2024-07-28T14:10:44.668Z</time>
      </trkpt>
      <trkpt lat="54.28411" lon="16.21259">
        <ele>38.037102</ele>
        <time>2024-07-28T14:10:47.650Z</time>
      </trkpt>
      <trkpt lat="54.28416" lon="16.21278">
        <ele>37.901962</ele>
        <time>2024-07-28T14:10:50.662Z</time>
      </trkpt>
      <trkpt lat="54.28419" lon="16.21294">
        <ele>37.801623</ele>
        <time>2024-07-28T14:10:52.666Z</time>
      </trkpt>
      <trkpt lat="54.2842" lon="16.2131">
        <ele>37.698438</ele>
        <time>2024-07-28T14:10:54.647Z</time>
      </trkpt>
      <trkpt lat="54.28423" lon="16.21327">
        <ele>37.589419</ele>
        <time>2024-07-28T14:10:56.643Z</time>
      </trkpt>
      <trkpt lat="54.28427" lon="16.21344">
        <ele>37.477216</ele>
        <time>2024-07-28T14:10:58.667Z</time>
      </trkpt>
      <trkpt lat="54.28431" lon="16.2136">
        <ele>37.36616</ele>
        <time>2024-07-28T14:11:00.651Z</time>
      </trkpt>
      <trkpt lat="54.28434" lon="16.21377">
        <ele>37.251685</ele>
        <time>2024-07-28T14:11:02.663Z</time>
      </trkpt>
      <trkpt lat="54.28437" lon="16.21394">
        <ele>37.142495</ele>
        <time>2024-07-28T14:11:04.650Z</time>
      </trkpt>
      <trkpt lat="54.2844" lon="16.21409">
        <ele>37.042395</ele>
        <time>2024-07-28T14:11:06.653Z</time>
      </trkpt>
      <trkpt lat="54.28444" lon="16.21424">
        <ele>36.944523</ele>
        <time>2024-07-28T14:11:08.644Z</time>
      </trkpt>
      <trkpt lat="54.28445" lon="16.21444">
        <ele>36.813573</ele>
        <time>2024-07-28T14:11:11.637Z</time>
      </trkpt>
      <trkpt lat="54.28452" lon="16.21464">
        <ele>36.667671</ele>
        <time>2024-07-28T14:11:14.640Z</time>
      </trkpt>
      <trkpt lat="54.28459" lon="16.21484">
        <ele>36.526083</ele>
        <time>2024-07-28T14:11:17.645Z</time>
      </trkpt>
      <trkpt lat="54.28466" lon="16.21504">
        <ele>36.379619</ele>
        <time>2024-07-28T14:11:20.667Z</time>
      </trkpt>
      <trkpt lat="54.2847" lon="16.21518">
        <ele>36.282796</ele>
        <time>2024-07-28T14:11:22.663Z</time>
      </trkpt>
      <trkpt lat="54.28466" lon="16.21502">
        <ele>36.210212</ele>
        <time>2024-07-28T14:12:05.639Z</time>
      </trkpt>
      <trkpt lat="54.28462" lon="16.21505">
        <ele>36.203656</ele>
        <time>2024-07-28T14:12:21.229Z</time>
      </trkpt>
      <trkpt lat="54.2847" lon="16.21512">
        <ele>36.188822</ele>
        <time>2024-07-28T14:16:04.650Z</time>
      </trkpt>
      <trkpt lat="54.28474" lon="16.21527">
        <ele>36.174011</ele>
        <time>2024-07-28T14:16:08.646Z</time>
      </trkpt>
      <trkpt lat="54.28478" lon="16.21543">
        <ele>36.157158</ele>
        <time>2024-07-28T14:16:12.655Z</time>
      </trkpt>
      <trkpt lat="54.28482" lon="16.21557">
        <ele>36.14238</ele>
        <time>2024-07-28T14:16:15.650Z</time>
      </trkpt>
      <trkpt lat="54.28488" lon="16.21574">
        <ele>36.12327</ele>
        <time>2024-07-28T14:16:19.673Z</time>
      </trkpt>
      <trkpt lat="54.28493" lon="16.21587">
        <ele>36.108081</ele>
        <time>2024-07-28T14:16:22.649Z</time>
      </trkpt>
      <trkpt lat="54.28499" lon="16.21602">
        <ele>36.092002</ele>
        <time>2024-07-28T14:16:25.651Z</time>
      </trkpt>
      <trkpt lat="54.28504" lon="16.21616">
        <ele>36.076227</ele>
        <time>2024-07-28T14:16:28.639Z</time>
      </trkpt>
      <trkpt lat="54.28509" lon="16.21631">
        <ele>36.05949</ele>
        <time>2024-07-28T14:16:31.650Z</time>
      </trkpt>
      <trkpt lat="54.28514" lon="16.21648">
        <ele>36.041607</ele>
        <time>2024-07-28T14:16:34.661Z</time>
      </trkpt>
      <trkpt lat="54.28519" lon="16.21665">
        <ele>36.022549</ele>
        <time>2024-07-28T14:16:37.644Z</time>
      </trkpt>
      <trkpt lat="54.28524" lon="16.21685">
        <ele>36.002421</ele>
        <time>2024-07-28T14:16:40.648Z</time>
      </trkpt>
      <trkpt lat="54.28522" lon="16.21709">
        <ele>35.980319</ele>
        <time>2024-07-28T14:16:43.638Z</time>
      </trkpt>
      <trkpt lat="54.28516" lon="16.21723">
        <ele>35.963384</ele>
        <time>2024-07-28T14:16:45.631Z</time>
      </trkpt>
      <trkpt lat="54.28506" lon="16.21732">
        <ele>35.94485</ele>
        <time>2024-07-28T14:16:47.652Z</time>
      </trkpt>
      <trkpt lat="54.28495" lon="16.21734">
        <ele>35.92718</ele>
        <time>2024-07-28T14:16:49.636Z</time>
      </trkpt>
      <trkpt lat="54.28484" lon="16.21734">
        <ele>36.038292</ele>
        <time>2024-07-28T14:16:51.625Z</time>
      </trkpt>
      <trkpt lat="54.28474" lon="16.21735">
        <ele>36.171685</ele>
        <time>2024-07-28T14:16:53.649Z</time>
      </trkpt>
      <trkpt lat="54.28465" lon="16.21735">
        <ele>36.295749</ele>
        <time>2024-07-28T14:16:55.638Z</time>
      </trkpt>
      <trkpt lat="54.28452" lon="16.21737">
        <ele>36.469885</ele>
        <time>2024-07-28T14:16:58.665Z</time>
      </trkpt>
      <trkpt lat="54.2844" lon="16.21737">
        <ele>36.634273</ele>
        <time>2024-07-28T14:17:01.665Z</time>
      </trkpt>
      <trkpt lat="54.2843" lon="16.21735">
        <ele>36.775017</ele>
        <time>2024-07-28T14:17:04.649Z</time>
      </trkpt>
      <trkpt lat="54.28419" lon="16.2174">
        <ele>36.922903</ele>
        <time>2024-07-28T14:17:08.661Z</time>
      </trkpt>
      <trkpt lat="54.28409" lon="16.21747">
        <ele>37.069684</ele>
        <time>2024-07-28T14:17:12.664Z</time>
      </trkpt>
      <trkpt lat="54.284" lon="16.21747">
        <ele>37.195062</ele>
        <time>2024-07-28T14:17:15.668Z</time>
      </trkpt>
      <trkpt lat="54.2839" lon="16.21754">
        <ele>37.331001</ele>
        <time>2024-07-28T14:17:18.647Z</time>
      </trkpt>
      <trkpt lat="54.28382" lon="16.21759">
        <ele>37.45624</ele>
        <time>2024-07-28T14:17:21.648Z</time>
      </trkpt>
      <trkpt lat="54.2837" lon="16.21765">
        <ele>37.614568</ele>
        <time>2024-07-28T14:17:25.631Z</time>
      </trkpt>
      <trkpt lat="54.28361" lon="16.21769">
        <ele>37.738137</ele>
        <time>2024-07-28T14:17:28.657Z</time>
      </trkpt>
      <trkpt lat="54.28353" lon="16.21774">
        <ele>37.859286</ele>
        <time>2024-07-28T14:17:31.650Z</time>
      </trkpt>
      <trkpt lat="54.28344" lon="16.2178">
        <ele>37.992854</ele>
        <time>2024-07-28T14:17:34.657Z</time>
      </trkpt>
      <trkpt lat="54.28335" lon="16.21784">
        <ele>38.115989</ele>
        <time>2024-07-28T14:17:37.646Z</time>
      </trkpt>
      <trkpt lat="54.28323" lon="16.2179">
        <ele>38.27835</ele>
        <time>2024-07-28T14:17:41.634Z</time>
      </trkpt>
      <trkpt lat="54.28315" lon="16.21795">
        <ele>38.389202</ele>
        <time>2024-07-28T14:17:44.663Z</time>
      </trkpt>
      <trkpt lat="54.28306" lon="16.21802">
        <ele>38.48827</ele>
        <time>2024-07-28T14:17:47.666Z</time>
      </trkpt>
      <trkpt lat="54.28297" lon="16.21808">
        <ele>38.587853</ele>
        <time>2024-07-28T14:17:50.656Z</time>
      </trkpt>
      <trkpt lat="54.28288" lon="16.21814">
        <ele>38.686435</ele>
        <time>2024-07-28T14:17:53.653Z</time>
      </trkpt>
      <trkpt lat="54.28281" lon="16.21827">
        <ele>38.7952</ele>
        <time>2024-07-28T14:17:56.659Z</time>
      </trkpt>
      <trkpt lat="54.28278" lon="16.21844">
        <ele>38.902566</ele>
        <time>2024-07-28T14:17:59.665Z</time>
      </trkpt>
      <trkpt lat="54.28277" lon="16.21861">
        <ele>39.011078</ele>
        <time>2024-07-28T14:18:02.642Z</time>
      </trkpt>
      <trkpt lat="54.28276" lon="16.21881">
        <ele>39.130628</ele>
        <time>2024-07-28T14:18:05.649Z</time>
      </trkpt>
      <trkpt lat="54.28276" lon="16.21901">
        <ele>39.254781</ele>
        <time>2024-07-28T14:18:08.671Z</time>
      </trkpt>
      <trkpt lat="54.28276" lon="16.21922">
        <ele>39.382424</ele>
        <time>2024-07-28T14:18:11.649Z</time>
      </trkpt>
      <trkpt lat="54.28276" lon="16.21938">
        <ele>39.476121</ele>
        <time>2024-07-28T14:18:13.662Z</time>
      </trkpt>
      <trkpt lat="54.28275" lon="16.21954">
        <ele>39.57236</ele>
        <time>2024-07-28T14:18:15.628Z</time>
      </trkpt>
      <trkpt lat="54.28275" lon="16.2197">
        <ele>39.672239</ele>
        <time>2024-07-28T14:18:17.634Z</time>
      </trkpt>
      <trkpt lat="54.28275" lon="16.21986">
        <ele>39.769513</ele>
        <time>2024-07-28T14:18:19.650Z</time>
      </trkpt>
      <trkpt lat="54.28274" lon="16.22002">
        <ele>39.867511</ele>
        <time>2024-07-28T14:18:21.650Z</time>
      </trkpt>
      <trkpt lat="54.28274" lon="16.22018">
        <ele>39.961815</ele>
        <time>2024-07-28T14:18:23.651Z</time>
      </trkpt>
      <trkpt lat="54.28274" lon="16.22034">
        <ele>40.060288</ele>
        <time>2024-07-28T14:18:25.651Z</time>
      </trkpt>
      <trkpt lat="54.28273" lon="16.22051">
        <ele>40.165351</ele>
        <time>2024-07-28T14:18:27.657Z</time>
      </trkpt>
      <trkpt lat="54.28271" lon="16.22069">
        <ele>40.254409</ele>
        <time>2024-07-28T14:18:29.648Z</time>
      </trkpt>
      <trkpt lat="54.28271" lon="16.22087">
        <ele>40.319456</ele>
        <time>2024-07-28T14:18:31.647Z</time>
      </trkpt>
      <trkpt lat="54.28271" lon="16.22106">
        <ele>40.388563</ele>
        <time>2024-07-28T14:18:33.652Z</time>
      </trkpt>
      <trkpt lat="54.28269" lon="16.22126">
        <ele>40.464553</ele>
        <time>2024-07-28T14:18:35.647Z</time>
      </trkpt>
      <trkpt lat="54.28268" lon="16.22147">
        <ele>40.540487</ele>
        <time>2024-07-28T14:18:37.646Z</time>
      </trkpt>
      <trkpt lat="54.28268" lon="16.22168">
        <ele>40.61816</ele>
        <time>2024-07-28T14:18:39.655Z</time>
      </trkpt>
      <trkpt lat="54.28267" lon="16.22189">
        <ele>40.695834</ele>
        <time>2024-07-28T14:18:41.665Z</time>
      </trkpt>
      <trkpt lat="54.28266" lon="16.2221">
        <ele>40.773184</ele>
        <time>2024-07-28T14:18:43.651Z</time>
      </trkpt>
      <trkpt lat="54.28266" lon="16.22231">
        <ele>40.851084</ele>
        <time>2024-07-28T14:18:45.648Z</time>
      </trkpt>
      <trkpt lat="54.28264" lon="16.22251">
        <ele>40.924876</ele>
        <time>2024-07-28T14:18:47.658Z</time>
      </trkpt>
      <trkpt lat="54.28263" lon="16.22271">
        <ele>40.998197</ele>
        <time>2024-07-28T14:18:49.648Z</time>
      </trkpt>
      <trkpt lat="54.28263" lon="16.2229">
        <ele>41.066903</ele>
        <time>2024-07-28T14:18:51.672Z</time>
      </trkpt>
      <trkpt lat="54.28263" lon="16.22308">
        <ele>41.134541</ele>
        <time>2024-07-28T14:18:53.655Z</time>
      </trkpt>
      <trkpt lat="54.28262" lon="16.22326">
        <ele>41.198344</ele>
        <time>2024-07-28T14:18:55.670Z</time>
      </trkpt>
      <trkpt lat="54.28261" lon="16.22342">
        <ele>41.260138</ele>
        <time>2024-07-28T14:18:57.650Z</time>
      </trkpt>
      <trkpt lat="54.28261" lon="16.22359">
        <ele>41.321968</ele>
        <time>2024-07-28T14:18:59.646Z</time>
      </trkpt>
      <trkpt lat="54.2826" lon="16.22375">
        <ele>41.384777</ele>
        <time>2024-07-28T14:19:01.643Z</time>
      </trkpt>
      <trkpt lat="54.28259" lon="16.22392">
        <ele>41.456661</ele>
        <time>2024-07-28T14:19:03.649Z</time>
      </trkpt>
      <trkpt lat="54.28259" lon="16.22408">
        <ele>41.52592</ele>
        <time>2024-07-28T14:19:05.649Z</time>
      </trkpt>
      <trkpt lat="54.28257" lon="16.22423">
        <ele>41.593749</ele>
        <time>2024-07-28T14:19:07.658Z</time>
      </trkpt>
      <trkpt lat="54.28257" lon="16.22439">
        <ele>41.663949</ele>
        <time>2024-07-28T14:19:09.658Z</time>
      </trkpt>
      <trkpt lat="54.28257" lon="16.22456">
        <ele>41.734115</ele>
        <time>2024-07-28T14:19:11.652Z</time>
      </trkpt>
      <trkpt lat="54.28256" lon="16.22473">
        <ele>41.807288</ele>
        <time>2024-07-28T14:19:13.660Z</time>
      </trkpt>
      <trkpt lat="54.28256" lon="16.22489">
        <ele>41.87796</ele>
        <time>2024-07-28T14:19:15.636Z</time>
      </trkpt>
      <trkpt lat="54.28255" lon="16.22505">
        <ele>41.945628</ele>
        <time>2024-07-28T14:19:17.657Z</time>
      </trkpt>
      <trkpt lat="54.28255" lon="16.22521">
        <ele>42.016165</ele>
        <time>2024-07-28T14:19:19.652Z</time>
      </trkpt>
      <trkpt lat="54.28254" lon="16.22538">
        <ele>42.087438</ele>
        <time>2024-07-28T14:19:21.650Z</time>
      </trkpt>
      <trkpt lat="54.28253" lon="16.22554">
        <ele>42.159045</ele>
        <time>2024-07-28T14:19:23.660Z</time>
      </trkpt>
      <trkpt lat="54.28252" lon="16.2257">
        <ele>42.228351</ele>
        <time>2024-07-28T14:19:25.653Z</time>
      </trkpt>
      <trkpt lat="54.28252" lon="16.22587">
        <ele>42.299749</ele>
        <time>2024-07-28T14:19:27.642Z</time>
      </trkpt>
      <trkpt lat="54.28252" lon="16.22603">
        <ele>42.369992</ele>
        <time>2024-07-28T14:19:29.652Z</time>
      </trkpt>
      <trkpt lat="54.28251" lon="16.2262">
        <ele>42.440622</ele>
        <time>2024-07-28T14:19:31.645Z</time>
      </trkpt>
      <trkpt lat="54.2825" lon="16.22636">
        <ele>42.512323</ele>
        <time>2024-07-28T14:19:33.654Z</time>
      </trkpt>
      <trkpt lat="54.2825" lon="16.22653">
        <ele>42.583812</ele>
        <time>2024-07-28T14:19:35.665Z</time>
      </trkpt>
      <trkpt lat="54.28249" lon="16.2267">
        <ele>42.65625</ele>
        <time>2024-07-28T14:19:37.650Z</time>
      </trkpt>
      <trkpt lat="54.28248" lon="16.22687">
        <ele>42.729825</ele>
        <time>2024-07-28T14:19:39.659Z</time>
      </trkpt>
      <trkpt lat="54.28248" lon="16.22704">
        <ele>42.802154</ele>
        <time>2024-07-28T14:19:41.658Z</time>
      </trkpt>
      <trkpt lat="54.28247" lon="16.22721">
        <ele>42.875039</ele>
        <time>2024-07-28T14:19:43.645Z</time>
      </trkpt>
      <trkpt lat="54.28247" lon="16.22737">
        <ele>42.946265</ele>
        <time>2024-07-28T14:19:45.649Z</time>
      </trkpt>
      <trkpt lat="54.28246" lon="16.22754">
        <ele>43.018649</ele>
        <time>2024-07-28T14:19:47.662Z</time>
      </trkpt>
      <trkpt lat="54.28246" lon="16.22771">
        <ele>43.089021</ele>
        <time>2024-07-28T14:19:49.665Z</time>
      </trkpt>
      <trkpt lat="54.28245" lon="16.22787">
        <ele>43.160583</ele>
        <time>2024-07-28T14:19:51.660Z</time>
      </trkpt>
      <trkpt lat="54.28244" lon="16.22804">
        <ele>43.231504</ele>
        <time>2024-07-28T14:19:53.650Z</time>
      </trkpt>
      <trkpt lat="54.28244" lon="16.22821">
        <ele>43.303535</ele>
        <time>2024-07-28T14:19:55.665Z</time>
      </trkpt>
      <trkpt lat="54.28243" lon="16.22837">
        <ele>43.375952</ele>
        <time>2024-07-28T14:19:57.646Z</time>
      </trkpt>
      <trkpt lat="54.28243" lon="16.22854">
        <ele>43.448797</ele>
        <time>2024-07-28T14:19:59.648Z</time>
      </trkpt>
      <trkpt lat="54.28242" lon="16.22872">
        <ele>43.523438</ele>
        <time>2024-07-28T14:20:01.647Z</time>
      </trkpt>
      <trkpt lat="54.28241" lon="16.22889">
        <ele>43.597061</ele>
        <time>2024-07-28T14:20:03.650Z</time>
      </trkpt>
      <trkpt lat="54.28241" lon="16.22905">
        <ele>43.666406</ele>
        <time>2024-07-28T14:20:05.661Z</time>
      </trkpt>
      <trkpt lat="54.2824" lon="16.22921">
        <ele>43.735556</ele>
        <time>2024-07-28T14:20:07.670Z</time>
      </trkpt>
      <trkpt lat="54.28239" lon="16.22937">
        <ele>43.802809</ele>
        <time>2024-07-28T14:20:09.647Z</time>
      </trkpt>
      <trkpt lat="54.28239" lon="16.22953">
        <ele>43.870142</ele>
        <time>2024-07-28T14:20:11.656Z</time>
      </trkpt>
      <trkpt lat="54.28238" lon="16.22968">
        <ele>43.937367</ele>
        <time>2024-07-28T14:20:13.658Z</time>
      </trkpt>
      <trkpt lat="54.28238" lon="16.22984">
        <ele>44.002486</ele>
        <time>2024-07-28T14:20:15.636Z</time>
      </trkpt>
      <trkpt lat="54.28237" lon="16.23">
        <ele>44.054282</ele>
        <time>2024-07-28T14:20:17.656Z</time>
      </trkpt>
      <trkpt lat="54.28237" lon="16.23016">
        <ele>44.108503</ele>
        <time>2024-07-28T14:20:19.657Z</time>
      </trkpt>
      <trkpt lat="54.28236" lon="16.23033">
        <ele>44.165684</ele>
        <time>2024-07-28T14:20:21.643Z</time>
      </trkpt>
      <trkpt lat="54.28235" lon="16.2305">
        <ele>44.22148</ele>
        <time>2024-07-28T14:20:23.647Z</time>
      </trkpt>
      <trkpt lat="54.28235" lon="16.23067">
        <ele>44.277388</ele>
        <time>2024-07-28T14:20:25.651Z</time>
      </trkpt>
      <trkpt lat="54.28234" lon="16.23085">
        <ele>44.336583</ele>
        <time>2024-07-28T14:20:27.641Z</time>
      </trkpt>
      <trkpt lat="54.28234" lon="16.23104">
        <ele>44.397278</ele>
        <time>2024-07-28T14:20:29.642Z</time>
      </trkpt>
      <trkpt lat="54.28233" lon="16.23122">
        <ele>44.45969</ele>
        <time>2024-07-28T14:20:31.658Z</time>
      </trkpt>
      <trkpt lat="54.28232" lon="16.23142">
        <ele>44.524379</ele>
        <time>2024-07-28T14:20:33.642Z</time>
      </trkpt>
      <trkpt lat="54.28231" lon="16.23161">
        <ele>44.58805</ele>
        <time>2024-07-28T14:20:35.647Z</time>
      </trkpt>
      <trkpt lat="54.28231" lon="16.23181">
        <ele>44.653337</ele>
        <time>2024-07-28T14:20:37.649Z</time>
      </trkpt>
      <trkpt lat="54.28231" lon="16.232">
        <ele>44.716979</ele>
        <time>2024-07-28T14:20:39.657Z</time>
      </trkpt>
      <trkpt lat="54.28231" lon="16.23219">
        <ele>44.779322</ele>
        <time>2024-07-28T14:20:41.647Z</time>
      </trkpt>
      <trkpt lat="54.28231" lon="16.23237">
        <ele>44.837685</ele>
        <time>2024-07-28T14:20:43.656Z</time>
      </trkpt>
      <trkpt lat="54.28232" lon="16.23255">
        <ele>44.89829</ele>
        <time>2024-07-28T14:20:45.644Z</time>
      </trkpt>
      <trkpt lat="54.28232" lon="16.23273">
        <ele>44.95705</ele>
        <time>2024-07-28T14:20:47.662Z</time>
      </trkpt>
      <trkpt lat="54.28234" lon="16.23291">
        <ele>45.018799</ele>
        <time>2024-07-28T14:20:49.657Z</time>
      </trkpt>
      <trkpt lat="54.28235" lon="16.23308">
        <ele>45.12068</ele>
        <time>2024-07-28T14:20:51.660Z</time>
      </trkpt>
      <trkpt lat="54.28236" lon="16.23325">
        <ele>45.222763</ele>
        <time>2024-07-28T14:20:53.650Z</time>
      </trkpt>
      <trkpt lat="54.28237" lon="16.23341">
        <ele>45.319117</ele>
        <time>2024-07-28T14:20:55.653Z</time>
      </trkpt>
      <trkpt lat="54.28239" lon="16.23357">
        <ele>45.41503</ele>
        <time>2024-07-28T14:20:57.661Z</time>
      </trkpt>
      <trkpt lat="54.2824" lon="16.23373">
        <ele>45.511127</ele>
        <time>2024-07-28T14:20:59.654Z</time>
      </trkpt>
      <trkpt lat="54.28241" lon="16.23388">
        <ele>45.603959</ele>
        <time>2024-07-28T14:21:01.650Z</time>
      </trkpt>
      <trkpt lat="54.28243" lon="16.23404">
        <ele>45.697687</ele>
        <time>2024-07-28T14:21:03.654Z</time>
      </trkpt>
      <trkpt lat="54.28244" lon="16.2342">
        <ele>45.792731</ele>
        <time>2024-07-28T14:21:05.658Z</time>
      </trkpt>
      <trkpt lat="54.28245" lon="16.23435">
        <ele>45.885485</ele>
        <time>2024-07-28T14:21:07.655Z</time>
      </trkpt>
      <trkpt lat="54.28246" lon="16.23458">
        <ele>46.020706</ele>
        <time>2024-07-28T14:21:10.650Z</time>
      </trkpt>
      <trkpt lat="54.28248" lon="16.2348">
        <ele>46.153721</ele>
        <time>2024-07-28T14:21:13.651Z</time>
      </trkpt>
      <trkpt lat="54.28251" lon="16.23502">
        <ele>46.287385</ele>
        <time>2024-07-28T14:21:16.660Z</time>
      </trkpt>
      <trkpt lat="54.28252" lon="16.23525">
        <ele>46.422117</ele>
        <time>2024-07-28T14:21:19.659Z</time>
      </trkpt>
      <trkpt lat="54.28254" lon="16.23541">
        <ele>46.515844</ele>
        <time>2024-07-28T14:21:21.651Z</time>
      </trkpt>
      <trkpt lat="54.28254" lon="16.23556">
        <ele>46.608776</ele>
        <time>2024-07-28T14:21:23.645Z</time>
      </trkpt>
      <trkpt lat="54.28256" lon="16.23572">
        <ele>46.704688</ele>
        <time>2024-07-28T14:21:25.651Z</time>
      </trkpt>
      <trkpt lat="54.28257" lon="16.23589">
        <ele>46.802216</ele>
        <time>2024-07-28T14:21:27.667Z</time>
      </trkpt>
      <trkpt lat="54.28258" lon="16.23605">
        <ele>46.877981</ele>
        <time>2024-07-28T14:21:29.652Z</time>
      </trkpt>
      <trkpt lat="54.2826" lon="16.23622">
        <ele>46.941438</ele>
        <time>2024-07-28T14:21:31.642Z</time>
      </trkpt>
      <trkpt lat="54.28261" lon="16.23639">
        <ele>47.005351</ele>
        <time>2024-07-28T14:21:33.650Z</time>
      </trkpt>
      <trkpt lat="54.28262" lon="16.23655">
        <ele>47.069446</ele>
        <time>2024-07-28T14:21:35.652Z</time>
      </trkpt>
      <trkpt lat="54.28264" lon="16.23672">
        <ele>47.133541</ele>
        <time>2024-07-28T14:21:37.658Z</time>
      </trkpt>
      <trkpt lat="54.28265" lon="16.23688">
        <ele>47.194538</ele>
        <time>2024-07-28T14:21:39.658Z</time>
      </trkpt>
      <trkpt lat="54.28266" lon="16.23705">
        <ele>47.256872</ele>
        <time>2024-07-28T14:21:41.662Z</time>
      </trkpt>
      <trkpt lat="54.28268" lon="16.23722">
        <ele>47.322662</ele>
        <time>2024-07-28T14:21:43.645Z</time>
      </trkpt>
      <trkpt lat="54.28269" lon="16.23739">
        <ele>47.388903</ele>
        <time>2024-07-28T14:21:45.650Z</time>
      </trkpt>
      <trkpt lat="54.2827" lon="16.23756">
        <ele>47.45191</ele>
        <time>2024-07-28T14:21:47.658Z</time>
      </trkpt>
      <trkpt lat="54.28271" lon="16.23773">
        <ele>47.516489</ele>
        <time>2024-07-28T14:21:49.672Z</time>
      </trkpt>
      <trkpt lat="54.28273" lon="16.2379">
        <ele>47.579941</ele>
        <time>2024-07-28T14:21:51.647Z</time>
      </trkpt>
      <trkpt lat="54.28274" lon="16.23806">
        <ele>47.643195</ele>
        <time>2024-07-28T14:21:53.647Z</time>
      </trkpt>
      <trkpt lat="54.28276" lon="16.23822">
        <ele>47.705239</ele>
        <time>2024-07-28T14:21:55.670Z</time>
      </trkpt>
      <trkpt lat="54.28277" lon="16.23839">
        <ele>47.766675</ele>
        <time>2024-07-28T14:21:57.646Z</time>
      </trkpt>
      <trkpt lat="54.28278" lon="16.23855">
        <ele>47.830397</ele>
        <time>2024-07-28T14:21:59.652Z</time>
      </trkpt>
      <trkpt lat="54.28279" lon="16.23873">
        <ele>47.895726</ele>
        <time>2024-07-28T14:22:01.651Z</time>
      </trkpt>
      <trkpt lat="54.28281" lon="16.23889">
        <ele>47.9601</ele>
        <time>2024-07-28T14:22:03.644Z</time>
      </trkpt>
      <trkpt lat="54.28282" lon="16.23907">
        <ele>47.997569</ele>
        <time>2024-07-28T14:22:05.645Z</time>
      </trkpt>
      <trkpt lat="54.28284" lon="16.23924">
        <ele>47.994201</ele>
        <time>2024-07-28T14:22:07.672Z</time>
      </trkpt>
      <trkpt lat="54.28285" lon="16.23941">
        <ele>47.990634</ele>
        <time>2024-07-28T14:22:09.643Z</time>
      </trkpt>
      <trkpt lat="54.28286" lon="16.23959">
        <ele>47.987149</ele>
        <time>2024-07-28T14:22:11.644Z</time>
      </trkpt>
      <trkpt lat="54.28287" lon="16.23975">
        <ele>47.98375</ele>
        <time>2024-07-28T14:22:13.644Z</time>
      </trkpt>
      <trkpt lat="54.28289" lon="16.23992">
        <ele>47.980346</ele>
        <time>2024-07-28T14:22:15.640Z</time>
      </trkpt>
      <trkpt lat="54.28291" lon="16.2401">
        <ele>47.976852</ele>
        <time>2024-07-28T14:22:17.650Z</time>
      </trkpt>
      <trkpt lat="54.28292" lon="16.24028">
        <ele>47.973176</ele>
        <time>2024-07-28T14:22:19.649Z</time>
      </trkpt>
      <trkpt lat="54.28293" lon="16.24046">
        <ele>47.96953</ele>
        <time>2024-07-28T14:22:21.666Z</time>
      </trkpt>
      <trkpt lat="54.28295" lon="16.24064">
        <ele>47.965821</ele>
        <time>2024-07-28T14:22:23.653Z</time>
      </trkpt>
      <trkpt lat="54.28296" lon="16.24083">
        <ele>47.962127</ele>
        <time>2024-07-28T14:22:25.651Z</time>
      </trkpt>
      <trkpt lat="54.28298" lon="16.24101">
        <ele>47.958329</ele>
        <time>2024-07-28T14:22:27.647Z</time>
      </trkpt>
      <trkpt lat="54.283" lon="16.24121">
        <ele>47.954367</ele>
        <time>2024-07-28T14:22:29.654Z</time>
      </trkpt>
      <trkpt lat="54.28301" lon="16.24142">
        <ele>47.950218</ele>
        <time>2024-07-28T14:22:31.633Z</time>
      </trkpt>
      <trkpt lat="54.28303" lon="16.24165">
        <ele>47.945605</ele>
        <time>2024-07-28T14:22:33.649Z</time>
      </trkpt>
      <trkpt lat="54.28305" lon="16.24188">
        <ele>47.940913</ele>
        <time>2024-07-28T14:22:35.645Z</time>
      </trkpt>
      <trkpt lat="54.28307" lon="16.24212">
        <ele>47.964352</ele>
        <time>2024-07-28T14:22:37.661Z</time>
      </trkpt>
      <trkpt lat="54.28309" lon="16.24236">
        <ele>48.055718</ele>
        <time>2024-07-28T14:22:39.649Z</time>
      </trkpt>
      <trkpt lat="54.28311" lon="16.24259">
        <ele>48.142915</ele>
        <time>2024-07-28T14:22:41.646Z</time>
      </trkpt>
      <trkpt lat="54.28313" lon="16.24282">
        <ele>48.229274</ele>
        <time>2024-07-28T14:22:43.655Z</time>
      </trkpt>
      <trkpt lat="54.28315" lon="16.24304">
        <ele>48.311654</ele>
        <time>2024-07-28T14:22:45.658Z</time>
      </trkpt>
      <trkpt lat="54.28317" lon="16.24323">
        <ele>48.384701</ele>
        <time>2024-07-28T14:22:47.658Z</time>
      </trkpt>
      <trkpt lat="54.2832" lon="16.24341">
        <ele>48.454475</ele>
        <time>2024-07-28T14:22:49.648Z</time>
      </trkpt>
      <trkpt lat="54.28324" lon="16.24356">
        <ele>48.517444</ele>
        <time>2024-07-28T14:22:51.670Z</time>
      </trkpt>
      <trkpt lat="54.28329" lon="16.2437">
        <ele>48.580547</ele>
        <time>2024-07-28T14:22:53.634Z</time>
      </trkpt>
      <trkpt lat="54.28334" lon="16.24386">
        <ele>48.647833</ele>
        <time>2024-07-28T14:22:55.651Z</time>
      </trkpt>
      <trkpt lat="54.28339" lon="16.24402">
        <ele>48.716752</ele>
        <time>2024-07-28T14:22:57.649Z</time>
      </trkpt>
      <trkpt lat="54.28344" lon="16.24419">
        <ele>48.78705</ele>
        <time>2024-07-28T14:22:59.666Z</time>
      </trkpt>
      <trkpt lat="54.2835" lon="16.24435">
        <ele>48.857283</ele>
        <time>2024-07-28T14:23:01.654Z</time>
      </trkpt>
      <trkpt lat="54.28355" lon="16.24452">
        <ele>48.930396</ele>
        <time>2024-07-28T14:23:03.656Z</time>
      </trkpt>
      <trkpt lat="54.28361" lon="16.24469">
        <ele>49.005158</ele>
        <time>2024-07-28T14:23:05.662Z</time>
      </trkpt>
      <trkpt lat="54.28367" lon="16.24486">
        <ele>49.079239</ele>
        <time>2024-07-28T14:23:07.649Z</time>
      </trkpt>
      <trkpt lat="54.28373" lon="16.24503">
        <ele>49.137421</ele>
        <time>2024-07-28T14:23:09.652Z</time>
      </trkpt>
      <trkpt lat="54.28379" lon="16.2452">
        <ele>49.192188</ele>
        <time>2024-07-28T14:23:11.638Z</time>
      </trkpt>
      <trkpt lat="54.28384" lon="16.24538">
        <ele>49.247222</ele>
        <time>2024-07-28T14:23:13.647Z</time>
      </trkpt>
      <trkpt lat="54.28389" lon="16.24555">
        <ele>49.300848</ele>
        <time>2024-07-28T14:23:15.670Z</time>
      </trkpt>
      <trkpt lat="54.28395" lon="16.24572">
        <ele>49.353244</ele>
        <time>2024-07-28T14:23:17.648Z</time>
      </trkpt>
      <trkpt lat="54.28401" lon="16.24587">
        <ele>49.405697</ele>
        <time>2024-07-28T14:23:19.651Z</time>
      </trkpt>
      <trkpt lat="54.28406" lon="16.24604">
        <ele>49.45691</ele>
        <time>2024-07-28T14:23:21.640Z</time>
      </trkpt>
      <trkpt lat="54.28412" lon="16.24619">
        <ele>49.509056</ele>
        <time>2024-07-28T14:23:23.653Z</time>
      </trkpt>
      <trkpt lat="54.28416" lon="16.24635">
        <ele>49.558102</ele>
        <time>2024-07-28T14:23:25.662Z</time>
      </trkpt>
      <trkpt lat="54.28421" lon="16.24651">
        <ele>49.607147</ele>
        <time>2024-07-28T14:23:27.665Z</time>
      </trkpt>
      <trkpt lat="54.28426" lon="16.24665">
        <ele>49.653509</ele>
        <time>2024-07-28T14:23:29.643Z</time>
      </trkpt>
      <trkpt lat="54.28431" lon="16.2468">
        <ele>49.700827</ele>
        <time>2024-07-28T14:23:31.655Z</time>
      </trkpt>
      <trkpt lat="54.28436" lon="16.24695">
        <ele>49.748868</ele>
        <time>2024-07-28T14:23:33.672Z</time>
      </trkpt>
      <trkpt lat="54.28441" lon="16.2471">
        <ele>49.796667</ele>
        <time>2024-07-28T14:23:35.656Z</time>
      </trkpt>
      <trkpt lat="54.28446" lon="16.24725">
        <ele>49.845493</ele>
        <time>2024-07-28T14:23:37.668Z</time>
      </trkpt>
      <trkpt lat="54.28451" lon="16.2474">
        <ele>49.893292</ele>
        <time>2024-07-28T14:23:39.664Z</time>
      </trkpt>
      <trkpt lat="54.28456" lon="16.24756">
        <ele>49.942091</ele>
        <time>2024-07-28T14:23:41.651Z</time>
      </trkpt>
      <trkpt lat="54.2846" lon="16.2477">
        <ele>49.792957</ele>
        <time>2024-07-28T14:23:43.641Z</time>
      </trkpt>
      <trkpt lat="54.28465" lon="16.24785">
        <ele>49.616801</ele>
        <time>2024-07-28T14:23:45.646Z</time>
      </trkpt>
      <trkpt lat="54.2847" lon="16.24799">
        <ele>49.440604</ele>
        <time>2024-07-28T14:23:47.655Z</time>
      </trkpt>
      <trkpt lat="54.28475" lon="16.24814">
        <ele>49.259761</ele>
        <time>2024-07-28T14:23:49.644Z</time>
      </trkpt>
      <trkpt lat="54.2848" lon="16.2483">
        <ele>49.07441</ele>
        <time>2024-07-28T14:23:51.661Z</time>
      </trkpt>
      <trkpt lat="54.28485" lon="16.24845">
        <ele>48.889919</ele>
        <time>2024-07-28T14:23:53.654Z</time>
      </trkpt>
      <trkpt lat="54.2849" lon="16.2486">
        <ele>48.706464</ele>
        <time>2024-07-28T14:23:55.648Z</time>
      </trkpt>
      <trkpt lat="54.28494" lon="16.24876">
        <ele>48.522709</ele>
        <time>2024-07-28T14:23:57.645Z</time>
      </trkpt>
      <trkpt lat="54.285" lon="16.24893">
        <ele>48.31539</ele>
        <time>2024-07-28T14:23:59.648Z</time>
      </trkpt>
      <trkpt lat="54.28506" lon="16.2491">
        <ele>48.097748</ele>
        <time>2024-07-28T14:24:01.652Z</time>
      </trkpt>
      <trkpt lat="54.28513" lon="16.2493">
        <ele>47.854061</ele>
        <time>2024-07-28T14:24:03.643Z</time>
      </trkpt>
      <trkpt lat="54.2852" lon="16.24951">
        <ele>47.594825</ele>
        <time>2024-07-28T14:24:05.652Z</time>
      </trkpt>
      <trkpt lat="54.28528" lon="16.24973">
        <ele>47.327397</ele>
        <time>2024-07-28T14:24:07.652Z</time>
      </trkpt>
      <trkpt lat="54.28534" lon="16.24996">
        <ele>47.057644</ele>
        <time>2024-07-28T14:24:09.650Z</time>
      </trkpt>
      <trkpt lat="54.28541" lon="16.25018">
        <ele>46.794094</ele>
        <time>2024-07-28T14:24:11.636Z</time>
      </trkpt>
      <trkpt lat="54.28548" lon="16.25039">
        <ele>46.62163</ele>
        <time>2024-07-28T14:24:13.658Z</time>
      </trkpt>
      <trkpt lat="54.28556" lon="16.25059">
        <ele>46.49726</ele>
        <time>2024-07-28T14:24:15.660Z</time>
      </trkpt>
      <trkpt lat="54.28564" lon="16.2508">
        <ele>46.372749</ele>
        <time>2024-07-28T14:24:17.666Z</time>
      </trkpt>
      <trkpt lat="54.28571" lon="16.25101">
        <ele>46.25222</ele>
        <time>2024-07-28T14:24:19.647Z</time>
      </trkpt>
      <trkpt lat="54.28578" lon="16.25121">
        <ele>46.13212</ele>
        <time>2024-07-28T14:24:21.666Z</time>
      </trkpt>
      <trkpt lat="54.28585" lon="16.25142">
        <ele>46.013756</ele>
        <time>2024-07-28T14:24:23.666Z</time>
      </trkpt>
      <trkpt lat="54.28591" lon="16.25161">
        <ele>45.898892</ele>
        <time>2024-07-28T14:24:25.650Z</time>
      </trkpt>
      <trkpt lat="54.28598" lon="16.2518">
        <ele>45.787505</ele>
        <time>2024-07-28T14:24:27.661Z</time>
      </trkpt>
      <trkpt lat="54.28604" lon="16.25199">
        <ele>45.679602</ele>
        <time>2024-07-28T14:24:29.653Z</time>
      </trkpt>
      <trkpt lat="54.2861" lon="16.25216">
        <ele>45.57604</ele>
        <time>2024-07-28T14:24:31.653Z</time>
      </trkpt>
      <trkpt lat="54.28616" lon="16.25236">
        <ele>45.467072</ele>
        <time>2024-07-28T14:24:33.659Z</time>
      </trkpt>
      <trkpt lat="54.28622" lon="16.25255">
        <ele>45.354348</ele>
        <time>2024-07-28T14:24:35.649Z</time>
      </trkpt>
      <trkpt lat="54.28629" lon="16.25275">
        <ele>45.240355</ele>
        <time>2024-07-28T14:24:37.647Z</time>
      </trkpt>
      <trkpt lat="54.28636" lon="16.25294">
        <ele>45.159725</ele>
        <time>2024-07-28T14:24:39.653Z</time>
      </trkpt>
      <trkpt lat="54.28643" lon="16.25313">
        <ele>45.299599</ele>
        <time>2024-07-28T14:24:41.650Z</time>
      </trkpt>
      <trkpt lat="54.28648" lon="16.25331">
        <ele>45.42759</ele>
        <time>2024-07-28T14:24:43.643Z</time>
      </trkpt>
      <trkpt lat="54.28654" lon="16.25347">
        <ele>45.549769</ele>
        <time>2024-07-28T14:24:45.655Z</time>
      </trkpt>
      <trkpt lat="54.28659" lon="16.25362">
        <ele>45.655364</ele>
        <time>2024-07-28T14:24:47.650Z</time>
      </trkpt>
      <trkpt lat="54.28665" lon="16.2538">
        <ele>45.795362</ele>
        <time>2024-07-28T14:24:50.653Z</time>
      </trkpt>
      <trkpt lat="54.28671" lon="16.25396">
        <ele>45.915334</ele>
        <time>2024-07-28T14:24:53.658Z</time>
      </trkpt>
      <trkpt lat="54.28677" lon="16.25413">
        <ele>46.043652</ele>
        <time>2024-07-28T14:24:56.652Z</time>
      </trkpt>
      <trkpt lat="54.28682" lon="16.25432">
        <ele>46.173503</ele>
        <time>2024-07-28T14:24:59.647Z</time>
      </trkpt>
      <trkpt lat="54.28686" lon="16.25452">
        <ele>46.310539</ele>
        <time>2024-07-28T14:25:02.650Z</time>
      </trkpt>
      <trkpt lat="54.28688" lon="16.25473">
        <ele>46.44483</ele>
        <time>2024-07-28T14:25:05.634Z</time>
      </trkpt>
      <trkpt lat="54.28693" lon="16.25492">
        <ele>46.581482</ele>
        <time>2024-07-28T14:25:08.671Z</time>
      </trkpt>
      <trkpt lat="54.28696" lon="16.25514">
        <ele>46.723745</ele>
        <time>2024-07-28T14:25:11.663Z</time>
      </trkpt>
      <trkpt lat="54.28699" lon="16.25535">
        <ele>46.86077</ele>
        <time>2024-07-28T14:25:14.644Z</time>
      </trkpt>
      <trkpt lat="54.28701" lon="16.25555">
        <ele>46.988963</ele>
        <time>2024-07-28T14:25:17.653Z</time>
      </trkpt>
      <trkpt lat="54.28704" lon="16.25574">
        <ele>47.114565</ele>
        <time>2024-07-28T14:25:20.667Z</time>
      </trkpt>
      <trkpt lat="54.28706" lon="16.25592">
        <ele>47.158679</ele>
        <time>2024-07-28T14:25:23.663Z</time>
      </trkpt>
      <trkpt lat="54.28708" lon="16.2561">
        <ele>47.202502</ele>
        <time>2024-07-28T14:25:26.648Z</time>
      </trkpt>
      <trkpt lat="54.28711" lon="16.2563">
        <ele>47.250942</ele>
        <time>2024-07-28T14:25:29.648Z</time>
      </trkpt>
      <trkpt lat="54.28712" lon="16.25651">
        <ele>47.301249</ele>
        <time>2024-07-28T14:25:32.650Z</time>
      </trkpt>
      <trkpt lat="54.28715" lon="16.25666">
        <ele>47.339505</ele>
        <time>2024-07-28T14:25:34.658Z</time>
      </trkpt>
      <trkpt lat="54.28716" lon="16.25683">
        <ele>47.381204</ele>
        <time>2024-07-28T14:25:36.627Z</time>
      </trkpt>
      <trkpt lat="54.28717" lon="16.25702">
        <ele>47.425642</ele>
        <time>2024-07-28T14:25:38.647Z</time>
      </trkpt>
      <trkpt lat="54.28717" lon="16.25719">
        <ele>47.467145</ele>
        <time>2024-07-28T14:25:40.651Z</time>
      </trkpt>
      <trkpt lat="54.28719" lon="16.25736">
        <ele>47.506079</ele>
        <time>2024-07-28T14:25:42.661Z</time>
      </trkpt>
      <trkpt lat="54.28722" lon="16.25758">
        <ele>47.560135</ele>
        <time>2024-07-28T14:25:45.633Z</time>
      </trkpt>
      <trkpt lat="54.28726" lon="16.25779">
        <ele>47.613613</ele>
        <time>2024-07-28T14:25:48.656Z</time>
      </trkpt>
      <trkpt lat="54.2873" lon="16.25798">
        <ele>47.661798</ele>
        <time>2024-07-28T14:25:51.642Z</time>
      </trkpt>
      <trkpt lat="54.28729" lon="16.25817">
        <ele>47.707829</ele>
        <time>2024-07-28T14:25:54.653Z</time>
      </trkpt>
      <trkpt lat="54.2873" lon="16.25838">
        <ele>47.758136</ele>
        <time>2024-07-28T14:25:57.649Z</time>
      </trkpt>
      <trkpt lat="54.28732" lon="16.25861">
        <ele>47.811467</ele>
        <time>2024-07-28T14:26:00.657Z</time>
      </trkpt>
      <trkpt lat="54.28733" lon="16.25876">
        <ele>47.852385</ele>
        <time>2024-07-28T14:26:02.657Z</time>
      </trkpt>
      <trkpt lat="54.28734" lon="16.25893">
        <ele>47.946959</ele>
        <time>2024-07-28T14:26:04.666Z</time>
      </trkpt>
      <trkpt lat="54.28735" lon="16.2591">
        <ele>48.04599</ele>
        <time>2024-07-28T14:26:06.645Z</time>
      </trkpt>
      <trkpt lat="54.28736" lon="16.25927">
        <ele>48.142733</ele>
        <time>2024-07-28T14:26:08.644Z</time>
      </trkpt>
      <trkpt lat="54.28738" lon="16.25943">
        <ele>48.239851</ele>
        <time>2024-07-28T14:26:10.657Z</time>
      </trkpt>
      <trkpt lat="54.28739" lon="16.2596">
        <ele>48.334198</ele>
        <time>2024-07-28T14:26:12.650Z</time>
      </trkpt>
      <trkpt lat="54.28741" lon="16.25975">
        <ele>48.427827</ele>
        <time>2024-07-28T14:26:14.669Z</time>
      </trkpt>
      <trkpt lat="54.28744" lon="16.25991">
        <ele>48.52262</ele>
        <time>2024-07-28T14:26:16.647Z</time>
      </trkpt>
      <trkpt lat="54.28746" lon="16.26006">
        <ele>48.613528</ele>
        <time>2024-07-28T14:26:18.654Z</time>
      </trkpt>
      <trkpt lat="54.28751" lon="16.26026">
        <ele>48.736569</ele>
        <time>2024-07-28T14:26:21.650Z</time>
      </trkpt>
      <trkpt lat="54.28756" lon="16.26044">
        <ele>48.847981</ele>
        <time>2024-07-28T14:26:24.662Z</time>
      </trkpt>
      <trkpt lat="54.2876" lon="16.2606">
        <ele>48.950948</ele>
        <time>2024-07-28T14:26:27.644Z</time>
      </trkpt>
      <trkpt lat="54.28764" lon="16.26075">
        <ele>49.047451</ele>
        <time>2024-07-28T14:26:30.638Z</time>
      </trkpt>
      <trkpt lat="54.28768" lon="16.2609">
        <ele>49.136711</ele>
        <time>2024-07-28T14:26:33.646Z</time>
      </trkpt>
      <trkpt lat="54.28772" lon="16.26104">
        <ele>49.230333</ele>
        <time>2024-07-28T14:26:36.658Z</time>
      </trkpt>
      <trkpt lat="54.28777" lon="16.26123">
        <ele>49.347532</ele>
        <time>2024-07-28T14:26:40.668Z</time>
      </trkpt>
      <trkpt lat="54.28781" lon="16.26142">
        <ele>49.46738</ele>
        <time>2024-07-28T14:26:44.635Z</time>
      </trkpt>
      <trkpt lat="54.28786" lon="16.26157">
        <ele>49.564842</ele>
        <time>2024-07-28T14:26:47.664Z</time>
      </trkpt>
      <trkpt lat="54.28791" lon="16.2617">
        <ele>49.65167</ele>
        <time>2024-07-28T14:26:50.655Z</time>
      </trkpt>
      <trkpt lat="54.28796" lon="16.26188">
        <ele>49.753426</ele>
        <time>2024-07-28T14:26:54.654Z</time>
      </trkpt>
      <trkpt lat="54.28802" lon="16.26206">
        <ele>49.861826</ele>
        <time>2024-07-28T14:26:58.648Z</time>
      </trkpt>
      <trkpt lat="54.28808" lon="16.2622">
        <ele>49.950265</ele>
        <time>2024-07-28T14:27:01.656Z</time>
      </trkpt>
      <trkpt lat="54.28814" lon="16.26236">
        <ele>50.047419</ele>
        <time>2024-07-28T14:27:04.669Z</time>
      </trkpt>
      <trkpt lat="54.2882" lon="16.26253">
        <ele>50.148264</ele>
        <time>2024-07-28T14:27:07.649Z</time>
      </trkpt>
      <trkpt lat="54.28826" lon="16.2627">
        <ele>50.254527</ele>
        <time>2024-07-28T14:27:10.667Z</time>
      </trkpt>
      <trkpt lat="54.28832" lon="16.26289">
        <ele>50.365598</ele>
        <time>2024-07-28T14:27:13.661Z</time>
      </trkpt>
      <trkpt lat="54.28839" lon="16.26308">
        <ele>50.480221</ele>
        <time>2024-07-28T14:27:16.664Z</time>
      </trkpt>
      <trkpt lat="54.28846" lon="16.26328">
        <ele>50.598876</ele>
        <time>2024-07-28T14:27:19.666Z</time>
      </trkpt>
      <trkpt lat="54.28851" lon="16.26341">
        <ele>50.678397</ele>
        <time>2024-07-28T14:27:21.660Z</time>
      </trkpt>
      <trkpt lat="54.28858" lon="16.26361">
        <ele>50.796573</ele>
        <time>2024-07-28T14:27:24.658Z</time>
      </trkpt>
      <trkpt lat="54.28862" lon="16.26374">
        <ele>50.875667</ele>
        <time>2024-07-28T14:27:26.652Z</time>
      </trkpt>
      <trkpt lat="54.28868" lon="16.26388">
        <ele>50.961458</ele>
        <time>2024-07-28T14:27:28.653Z</time>
      </trkpt>
      <trkpt lat="54.28873" lon="16.26404">
        <ele>51.055223</ele>
        <time>2024-07-28T14:27:30.666Z</time>
      </trkpt>
      <trkpt lat="54.28879" lon="16.26419">
        <ele>51.149402</ele>
        <time>2024-07-28T14:27:32.651Z</time>
      </trkpt>
      <trkpt lat="54.28884" lon="16.26436">
        <ele>51.085629</ele>
        <time>2024-07-28T14:27:34.658Z</time>
      </trkpt>
      <trkpt lat="54.2889" lon="16.26452">
        <ele>50.795717</ele>
        <time>2024-07-28T14:27:36.658Z</time>
      </trkpt>
      <trkpt lat="54.28897" lon="16.26468">
        <ele>50.499008</ele>
        <time>2024-07-28T14:27:38.651Z</time>
      </trkpt>
      <trkpt lat="54.28903" lon="16.26484">
        <ele>50.206265</ele>
        <time>2024-07-28T14:27:40.652Z</time>
      </trkpt>
      <trkpt lat="54.28909" lon="16.26501">
        <ele>49.899359</ele>
        <time>2024-07-28T14:27:42.653Z</time>
      </trkpt>
      <trkpt lat="54.28916" lon="16.2652">
        <ele>49.566261</ele>
        <time>2024-07-28T14:27:44.650Z</time>
      </trkpt>
      <trkpt lat="54.28923" lon="16.26538">
        <ele>49.234334</ele>
        <time>2024-07-28T14:27:46.654Z</time>
      </trkpt>
      <trkpt lat="54.2893" lon="16.26556">
        <ele>48.908377</ele>
        <time>2024-07-28T14:27:48.640Z</time>
      </trkpt>
      <trkpt lat="54.28937" lon="16.26574">
        <ele>48.575719</ele>
        <time>2024-07-28T14:27:50.648Z</time>
      </trkpt>
      <trkpt lat="54.28943" lon="16.26591">
        <ele>48.267612</ele>
        <time>2024-07-28T14:27:52.649Z</time>
      </trkpt>
      <trkpt lat="54.28945" lon="16.2661">
        <ele>47.980378</ele>
        <time>2024-07-28T14:27:54.645Z</time>
      </trkpt>
      <trkpt lat="54.28952" lon="16.26627">
        <ele>47.658165</ele>
        <time>2024-07-28T14:27:56.639Z</time>
      </trkpt>
      <trkpt lat="54.2896" lon="16.26647">
        <ele>47.289702</ele>
        <time>2024-07-28T14:27:58.645Z</time>
      </trkpt>
      <trkpt lat="54.28968" lon="16.26669">
        <ele>46.899077</ele>
        <time>2024-07-28T14:28:00.650Z</time>
      </trkpt>
      <trkpt lat="54.28975" lon="16.26693">
        <ele>46.503187</ele>
        <time>2024-07-28T14:28:02.665Z</time>
      </trkpt>
      <trkpt lat="54.28984" lon="16.26717">
        <ele>46.233191</ele>
        <time>2024-07-28T14:28:04.649Z</time>
      </trkpt>
      <trkpt lat="54.28993" lon="16.26742">
        <ele>45.947796</ele>
        <time>2024-07-28T14:28:06.648Z</time>
      </trkpt>
      <trkpt lat="54.29003" lon="16.26767">
        <ele>45.659171</ele>
        <time>2024-07-28T14:28:08.676Z</time>
      </trkpt>
      <trkpt lat="54.29011" lon="16.26792">
        <ele>45.382527</ele>
        <time>2024-07-28T14:28:10.650Z</time>
      </trkpt>
      <trkpt lat="54.2902" lon="16.26817">
        <ele>45.104212</ele>
        <time>2024-07-28T14:28:12.656Z</time>
      </trkpt>
      <trkpt lat="54.29029" lon="16.26841">
        <ele>44.827484</ele>
        <time>2024-07-28T14:28:14.649Z</time>
      </trkpt>
      <trkpt lat="54.29038" lon="16.26865">
        <ele>44.54982</ele>
        <time>2024-07-28T14:28:16.643Z</time>
      </trkpt>
      <trkpt lat="54.29047" lon="16.26889">
        <ele>44.273699</ele>
        <time>2024-07-28T14:28:18.662Z</time>
      </trkpt>
      <trkpt lat="54.29056" lon="16.26914">
        <ele>43.994405</ele>
        <time>2024-07-28T14:28:20.634Z</time>
      </trkpt>
      <trkpt lat="54.29065" lon="16.26937">
        <ele>43.727458</ele>
        <time>2024-07-28T14:28:22.652Z</time>
      </trkpt>
      <trkpt lat="54.29073" lon="16.26959">
        <ele>43.570446</ele>
        <time>2024-07-28T14:28:24.670Z</time>
      </trkpt>
      <trkpt lat="54.29081" lon="16.26982">
        <ele>43.613749</ele>
        <time>2024-07-28T14:28:26.636Z</time>
      </trkpt>
      <trkpt lat="54.29089" lon="16.27003">
        <ele>43.655395</ele>
        <time>2024-07-28T14:28:28.654Z</time>
      </trkpt>
      <trkpt lat="54.29097" lon="16.27024">
        <ele>43.695889</ele>
        <time>2024-07-28T14:28:30.671Z</time>
      </trkpt>
      <trkpt lat="54.29104" lon="16.27045">
        <ele>43.735239</ele>
        <time>2024-07-28T14:28:32.650Z</time>
      </trkpt>
      <trkpt lat="54.29112" lon="16.27065">
        <ele>43.774206</ele>
        <time>2024-07-28T14:28:34.655Z</time>
      </trkpt>
      <trkpt lat="54.29119" lon="16.27084">
        <ele>43.811484</ele>
        <time>2024-07-28T14:28:36.628Z</time>
      </trkpt>
      <trkpt lat="54.29126" lon="16.27104">
        <ele>43.850011</ele>
        <time>2024-07-28T14:28:38.653Z</time>
      </trkpt>
      <trkpt lat="54.29134" lon="16.27123">
        <ele>43.887755</ele>
        <time>2024-07-28T14:28:40.654Z</time>
      </trkpt>
      <trkpt lat="54.29141" lon="16.27142">
        <ele>43.92471</ele>
        <time>2024-07-28T14:28:42.650Z</time>
      </trkpt>
      <trkpt lat="54.29148" lon="16.27161">
        <ele>43.961409</ele>
        <time>2024-07-28T14:28:44.676Z</time>
      </trkpt>
      <trkpt lat="54.29155" lon="16.27179">
        <ele>43.996144</ele>
        <time>2024-07-28T14:28:46.650Z</time>
      </trkpt>
      <trkpt lat="54.29161" lon="16.27197">
        <ele>44.030271</ele>
        <time>2024-07-28T14:28:48.649Z</time>
      </trkpt>
      <trkpt lat="54.29168" lon="16.27214">
        <ele>44.067807</ele>
        <time>2024-07-28T14:28:50.651Z</time>
      </trkpt>
      <trkpt lat="54.29174" lon="16.27231">
        <ele>44.121773</ele>
        <time>2024-07-28T14:28:52.649Z</time>
      </trkpt>
      <trkpt lat="54.2918" lon="16.27247">
        <ele>44.174401</ele>
        <time>2024-07-28T14:28:54.651Z</time>
      </trkpt>
      <trkpt lat="54.29187" lon="16.2726">
        <ele>44.221148</ele>
        <time>2024-07-28T14:28:56.670Z</time>
      </trkpt>
      <trkpt lat="54.29197" lon="16.2727">
        <ele>44.277058</ele>
        <time>2024-07-28T14:28:59.638Z</time>
      </trkpt>
      <trkpt lat="54.29199" lon="16.2728">
        <ele>44.305113</ele>
        <time>2024-07-28T14:29:08.116Z</time>
      </trkpt>
      <trkpt lat="54.29206" lon="16.27293">
        <ele>44.356635</ele>
        <time>2024-07-28T14:30:29.645Z</time>
      </trkpt>
      <trkpt lat="54.29214" lon="16.27302">
        <ele>44.402402</ele>
        <time>2024-07-28T14:30:32.646Z</time>
      </trkpt>
      <trkpt lat="54.29223" lon="16.27313">
        <ele>44.452351</ele>
        <time>2024-07-28T14:30:35.650Z</time>
      </trkpt>
      <trkpt lat="54.29233" lon="16.27324">
        <ele>44.50642</ele>
        <time>2024-07-28T14:30:38.624Z</time>
      </trkpt>
      <trkpt lat="54.29243" lon="16.27334">
        <ele>44.5641</ele>
        <time>2024-07-28T14:30:41.658Z</time>
      </trkpt>
      <trkpt lat="54.29254" lon="16.27345">
        <ele>44.623715</ele>
        <time>2024-07-28T14:30:44.647Z</time>
      </trkpt>
      <trkpt lat="54.29265" lon="16.27356">
        <ele>44.682073</ele>
        <time>2024-07-28T14:30:47.649Z</time>
      </trkpt>
      <trkpt lat="54.29276" lon="16.27367">
        <ele>44.742882</ele>
        <time>2024-07-28T14:30:50.643Z</time>
      </trkpt>
      <trkpt lat="54.29287" lon="16.27377">
        <ele>44.802329</ele>
        <time>2024-07-28T14:30:53.642Z</time>
      </trkpt>
      <trkpt lat="54.29298" lon="16.27389">
        <ele>44.86206</ele>
        <time>2024-07-28T14:30:56.642Z</time>
      </trkpt>
      <trkpt lat="54.29309" lon="16.27399">
        <ele>44.928233</ele>
        <time>2024-07-28T14:30:59.633Z</time>
      </trkpt>
      <trkpt lat="54.29319" lon="16.27409">
        <ele>45.010243</ele>
        <time>2024-07-28T14:31:02.673Z</time>
      </trkpt>
      <trkpt lat="54.29329" lon="16.27416">
        <ele>45.086383</ele>
        <time>2024-07-28T14:31:05.663Z</time>
      </trkpt>
      <trkpt lat="54.29339" lon="16.2742">
        <ele>45.163801</ele>
        <time>2024-07-28T14:31:08.630Z</time>
      </trkpt>
      <trkpt lat="54.29349" lon="16.27422">
        <ele>45.238136</ele>
        <time>2024-07-28T14:31:11.643Z</time>
      </trkpt>
      <trkpt lat="54.2936" lon="16.27422">
        <ele>45.315613</ele>
        <time>2024-07-28T14:31:14.637Z</time>
      </trkpt>
      <trkpt lat="54.29371" lon="16.2742">
        <ele>45.390213</ele>
        <time>2024-07-28T14:31:17.621Z</time>
      </trkpt>
      <trkpt lat="54.29381" lon="16.27416">
        <ele>45.467959</ele>
        <time>2024-07-28T14:31:20.637Z</time>
      </trkpt>
      <trkpt lat="54.29392" lon="16.27413">
        <ele>45.54996</ele>
        <time>2024-07-28T14:31:23.656Z</time>
      </trkpt>
      <trkpt lat="54.29405" lon="16.27408">
        <ele>45.641014</ele>
        <time>2024-07-28T14:31:26.644Z</time>
      </trkpt>
      <trkpt lat="54.29417" lon="16.27405">
        <ele>45.731882</ele>
        <time>2024-07-28T14:31:29.645Z</time>
      </trkpt>
      <trkpt lat="54.29427" lon="16.27405">
        <ele>45.799292</ele>
        <time>2024-07-28T14:31:31.670Z</time>
      </trkpt>
      <trkpt lat="54.29439" lon="16.27411">
        <ele>45.890776</ele>
        <time>2024-07-28T14:31:34.657Z</time>
      </trkpt>
      <trkpt lat="54.29451" lon="16.27419">
        <ele>45.979686</ele>
        <time>2024-07-28T14:31:37.630Z</time>
      </trkpt>
      <trkpt lat="54.29462" lon="16.27428">
        <ele>46.068663</ele>
        <time>2024-07-28T14:31:40.651Z</time>
      </trkpt>
      <trkpt lat="54.29473" lon="16.27436">
        <ele>46.156847</ele>
        <time>2024-07-28T14:31:43.647Z</time>
      </trkpt>
      <trkpt lat="54.29484" lon="16.27444">
        <ele>46.235894</ele>
        <time>2024-07-28T14:31:46.662Z</time>
      </trkpt>
      <trkpt lat="54.29494" lon="16.27451">
        <ele>46.30642</ele>
        <time>2024-07-28T14:31:49.666Z</time>
      </trkpt>
      <trkpt lat="54.29503" lon="16.27459">
        <ele>46.377177</ele>
        <time>2024-07-28T14:31:52.662Z</time>
      </trkpt>
      <trkpt lat="54.29513" lon="16.27467">
        <ele>46.449218</ele>
        <time>2024-07-28T14:31:55.655Z</time>
      </trkpt>
      <trkpt lat="54.29522" lon="16.27477">
        <ele>46.522789</ele>
        <time>2024-07-28T14:31:58.633Z</time>
      </trkpt>
      <trkpt lat="54.29533" lon="16.27487">
        <ele>46.601667</ele>
        <time>2024-07-28T14:32:01.654Z</time>
      </trkpt>
      <trkpt lat="54.29544" lon="16.27492">
        <ele>46.678295</ele>
        <time>2024-07-28T14:32:04.669Z</time>
      </trkpt>
      <trkpt lat="54.29555" lon="16.27497">
        <ele>46.7529</ele>
        <time>2024-07-28T14:32:07.657Z</time>
      </trkpt>
      <trkpt lat="54.29565" lon="16.27504">
        <ele>46.825113</ele>
        <time>2024-07-28T14:32:10.649Z</time>
      </trkpt>
      <trkpt lat="54.29575" lon="16.27513">
        <ele>46.896923</ele>
        <time>2024-07-28T14:32:13.645Z</time>
      </trkpt>
      <trkpt lat="54.29584" lon="16.2752">
        <ele>46.96561</ele>
        <time>2024-07-28T14:32:16.652Z</time>
      </trkpt>
      <trkpt lat="54.29593" lon="16.27527">
        <ele>47.028215</ele>
        <time>2024-07-28T14:32:19.652Z</time>
      </trkpt>
      <trkpt lat="54.29602" lon="16.27534">
        <ele>47.092368</ele>
        <time>2024-07-28T14:32:23.666Z</time>
      </trkpt>
      <trkpt lat="54.29603" lon="16.27551">
        <ele>47.15992</ele>
        <time>2024-07-28T14:32:29.654Z</time>
      </trkpt>
      <trkpt lat="54.29598" lon="16.27569">
        <ele>47.236652</ele>
        <time>2024-07-28T14:32:33.649Z</time>
      </trkpt>
      <trkpt lat="54.29594" lon="16.27586">
        <ele>47.307859</ele>
        <time>2024-07-28T14:32:37.644Z</time>
      </trkpt>
      <trkpt lat="54.29591" lon="16.276">
        <ele>47.367699</ele>
        <time>2024-07-28T14:32:40.637Z</time>
      </trkpt>
      <trkpt lat="54.29588" lon="16.27615">
        <ele>47.48146</ele>
        <time>2024-07-28T14:32:42.651Z</time>
      </trkpt>
      <trkpt lat="54.2959" lon="16.27634">
        <ele>47.642739</ele>
        <time>2024-07-28T14:32:45.657Z</time>
      </trkpt>
      <trkpt lat="54.29595" lon="16.2765">
        <ele>47.79218</ele>
        <time>2024-07-28T14:32:48.672Z</time>
      </trkpt>
      <trkpt lat="54.296" lon="16.27663">
        <ele>47.925804</ele>
        <time>2024-07-28T14:32:51.663Z</time>
      </trkpt>
      <trkpt lat="54.29609" lon="16.27671">
        <ele>48.063072</ele>
        <time>2024-07-28T14:32:54.654Z</time>
      </trkpt>
      <trkpt lat="54.29619" lon="16.27676">
        <ele>48.214658</ele>
        <time>2024-07-28T14:32:57.644Z</time>
      </trkpt>
      <trkpt lat="54.2963" lon="16.27679">
        <ele>48.373031</ele>
        <time>2024-07-28T14:33:00.674Z</time>
      </trkpt>
      <trkpt lat="54.29642" lon="16.27681">
        <ele>48.547649</ele>
        <time>2024-07-28T14:33:03.670Z</time>
      </trkpt>
      <trkpt lat="54.29653" lon="16.27683">
        <ele>48.709349</ele>
        <time>2024-07-28T14:33:06.660Z</time>
      </trkpt>
      <trkpt lat="54.29665" lon="16.27684">
        <ele>48.870969</ele>
        <time>2024-07-28T14:33:09.651Z</time>
      </trkpt>
      <trkpt lat="54.29676" lon="16.27688">
        <ele>49.040559</ele>
        <time>2024-07-28T14:33:12.661Z</time>
      </trkpt>
      <trkpt lat="54.29688" lon="16.27694">
        <ele>49.21356</ele>
        <time>2024-07-28T14:33:15.649Z</time>
      </trkpt>
      <trkpt lat="54.297" lon="16.27701">
        <ele>49.389507</ele>
        <time>2024-07-28T14:33:18.647Z</time>
      </trkpt>
      <trkpt lat="54.29711" lon="16.27708">
        <ele>49.560047</ele>
        <time>2024-07-28T14:33:21.645Z</time>
      </trkpt>
      <trkpt lat="54.29722" lon="16.27717">
        <ele>49.732583</ele>
        <time>2024-07-28T14:33:24.646Z</time>
      </trkpt>
      <trkpt lat="54.29733" lon="16.27723">
        <ele>49.896486</ele>
        <time>2024-07-28T14:33:27.649Z</time>
      </trkpt>
      <trkpt lat="54.29742" lon="16.27725">
        <ele>49.94697</ele>
        <time>2024-07-28T14:33:29.643Z</time>
      </trkpt>
      <trkpt lat="54.29755" lon="16.2773">
        <ele>49.95132</ele>
        <time>2024-07-28T14:33:32.636Z</time>
      </trkpt>
      <trkpt lat="54.29767" lon="16.27739">
        <ele>49.955659</ele>
        <time>2024-07-28T14:33:35.633Z</time>
      </trkpt>
      <trkpt lat="54.29775" lon="16.27746">
        <ele>49.958602</ele>
        <time>2024-07-28T14:33:37.642Z</time>
      </trkpt>
      <trkpt lat="54.29787" lon="16.27757">
        <ele>49.962866</ele>
        <time>2024-07-28T14:33:40.644Z</time>
      </trkpt>
      <trkpt lat="54.29799" lon="16.27766">
        <ele>49.967312</ele>
        <time>2024-07-28T14:33:43.630Z</time>
      </trkpt>
      <trkpt lat="54.29811" lon="16.27776">
        <ele>49.971767</ele>
        <time>2024-07-28T14:33:46.649Z</time>
      </trkpt>
      <trkpt lat="54.29819" lon="16.27783">
        <ele>49.974748</ele>
        <time>2024-07-28T14:33:48.647Z</time>
      </trkpt>
      <trkpt lat="54.29831" lon="16.27793">
        <ele>49.97893</ele>
        <time>2024-07-28T14:33:51.655Z</time>
      </trkpt>
      <trkpt lat="54.29839" lon="16.278">
        <ele>49.981873</ele>
        <time>2024-07-28T14:33:53.644Z</time>
      </trkpt>
      <trkpt lat="54.29847" lon="16.27806">
        <ele>49.984881</ele>
        <time>2024-07-28T14:33:55.664Z</time>
      </trkpt>
      <trkpt lat="54.29856" lon="16.27813">
        <ele>49.988003</ele>
        <time>2024-07-28T14:33:57.645Z</time>
      </trkpt>
      <trkpt lat="54.29864" lon="16.27821">
        <ele>49.991119</ele>
        <time>2024-07-28T14:33:59.652Z</time>
      </trkpt>
      <trkpt lat="54.29876" lon="16.27831">
        <ele>49.995482</ele>
        <time>2024-07-28T14:34:02.648Z</time>
      </trkpt>
      <trkpt lat="54.29888" lon="16.2784">
        <ele>49.999748</ele>
        <time>2024-07-28T14:34:05.647Z</time>
      </trkpt>
      <trkpt lat="54.29896" lon="16.27847">
        <ele>50.00267</ele>
        <time>2024-07-28T14:34:07.668Z</time>
      </trkpt>
      <trkpt lat="54.29904" lon="16.27855">
        <ele>49.987253</ele>
        <time>2024-07-28T14:34:09.654Z</time>
      </trkpt>
      <trkpt lat="54.29915" lon="16.27866">
        <ele>49.944032</ele>
        <time>2024-07-28T14:34:12.621Z</time>
      </trkpt>
      <trkpt lat="54.29923" lon="16.27875">
        <ele>49.913381</ele>
        <time>2024-07-28T14:34:14.642Z</time>
      </trkpt>
      <trkpt lat="54.2993" lon="16.27884">
        <ele>49.88323</ele>
        <time>2024-07-28T14:34:16.642Z</time>
      </trkpt>
      <trkpt lat="54.2994" lon="16.279">
        <ele>49.838492</ele>
        <time>2024-07-28T14:34:19.642Z</time>
      </trkpt>
      <trkpt lat="54.29947" lon="16.2791">
        <ele>49.807501</ele>
        <time>2024-07-28T14:34:21.629Z</time>
      </trkpt>
      <trkpt lat="54.29956" lon="16.27927">
        <ele>49.763261</ele>
        <time>2024-07-28T14:34:24.627Z</time>
      </trkpt>
      <trkpt lat="54.29963" lon="16.27938">
        <ele>49.732713</ele>
        <time>2024-07-28T14:34:26.637Z</time>
      </trkpt>
      <trkpt lat="54.29972" lon="16.27955">
        <ele>49.688054</ele>
        <time>2024-07-28T14:34:29.642Z</time>
      </trkpt>
      <trkpt lat="54.29978" lon="16.27967">
        <ele>49.657703</ele>
        <time>2024-07-28T14:34:31.636Z</time>
      </trkpt>
      <trkpt lat="54.29986" lon="16.27977">
        <ele>49.623531</ele>
        <time>2024-07-28T14:34:34.640Z</time>
      </trkpt>
      <trkpt lat="54.29992" lon="16.27989">
        <ele>49.592565</ele>
        <time>2024-07-28T14:34:37.652Z</time>
      </trkpt>
      <trkpt lat="54.3" lon="16.28004">
        <ele>49.556064</ele>
        <time>2024-07-28T14:34:40.655Z</time>
      </trkpt>
      <trkpt lat="54.30007" lon="16.28018">
        <ele>49.518968</ele>
        <time>2024-07-28T14:34:43.641Z</time>
      </trkpt>
      <trkpt lat="54.30014" lon="16.28033">
        <ele>49.481596</ele>
        <time>2024-07-28T14:34:46.646Z</time>
      </trkpt>
      <trkpt lat="54.30022" lon="16.28049">
        <ele>49.44159</ele>
        <time>2024-07-28T14:34:49.665Z</time>
      </trkpt>
      <trkpt lat="54.30031" lon="16.28064">
        <ele>49.39224</ele>
        <time>2024-07-28T14:34:52.630Z</time>
      </trkpt>
      <trkpt lat="54.30041" lon="16.28076">
        <ele>49.315831</ele>
        <time>2024-07-28T14:34:55.636Z</time>
      </trkpt>
      <trkpt lat="54.30052" lon="16.28085">
        <ele>49.24048</ele>
        <time>2024-07-28T14:34:58.620Z</time>
      </trkpt>
      <trkpt lat="54.30062" lon="16.28095">
        <ele>49.163712</ele>
        <time>2024-07-28T14:35:01.637Z</time>
      </trkpt>
      <trkpt lat="54.30071" lon="16.28107">
        <ele>49.092322</ele>
        <time>2024-07-28T14:35:04.639Z</time>
      </trkpt>
      <trkpt lat="54.30081" lon="16.28116">
        <ele>49.020119</ele>
        <time>2024-07-28T14:35:07.640Z</time>
      </trkpt>
      <trkpt lat="54.30091" lon="16.28125">
        <ele>48.948504</ele>
        <time>2024-07-28T14:35:10.649Z</time>
      </trkpt>
      <trkpt lat="54.30101" lon="16.28134">
        <ele>48.876167</ele>
        <time>2024-07-28T14:35:13.622Z</time>
      </trkpt>
      <trkpt lat="54.30112" lon="16.28142">
        <ele>48.801272</ele>
        <time>2024-07-28T14:35:16.643Z</time>
      </trkpt>
      <trkpt lat="54.30124" lon="16.28151">
        <ele>48.720237</ele>
        <time>2024-07-28T14:35:19.630Z</time>
      </trkpt>
      <trkpt lat="54.30135" lon="16.28161">
        <ele>48.638471</ele>
        <time>2024-07-28T14:35:22.650Z</time>
      </trkpt>
      <trkpt lat="54.30147" lon="16.28171">
        <ele>48.557935</ele>
        <time>2024-07-28T14:35:25.655Z</time>
      </trkpt>
      <trkpt lat="54.30158" lon="16.28181">
        <ele>48.480159</ele>
        <time>2024-07-28T14:35:28.653Z</time>
      </trkpt>
      <trkpt lat="54.30169" lon="16.2819">
        <ele>48.398325</ele>
        <time>2024-07-28T14:35:31.655Z</time>
      </trkpt>
      <trkpt lat="54.3018" lon="16.282">
        <ele>48.319652</ele>
        <time>2024-07-28T14:35:34.635Z</time>
      </trkpt>
      <trkpt lat="54.3019" lon="16.28208">
        <ele>48.258456</ele>
        <time>2024-07-28T14:35:37.652Z</time>
      </trkpt>
      <trkpt lat="54.302" lon="16.28216">
        <ele>48.208343</ele>
        <time>2024-07-28T14:35:41.649Z</time>
      </trkpt>
      <trkpt lat="54.3021" lon="16.28224">
        <ele>48.162013</ele>
        <time>2024-07-28T14:35:46.653Z</time>
      </trkpt>
      <trkpt lat="54.30219" lon="16.28231">
        <ele>48.118177</ele>
        <time>2024-07-28T14:35:58.647Z</time>
      </trkpt>
      <trkpt lat="54.3023" lon="16.2824">
        <ele>48.067241</ele>
        <time>2024-07-28T14:36:02.651Z</time>
      </trkpt>
      <trkpt lat="54.30239" lon="16.28247">
        <ele>48.02437</ele>
        <time>2024-07-28T14:36:05.640Z</time>
      </trkpt>
      <trkpt lat="54.30248" lon="16.28256">
        <ele>47.977827</ele>
        <time>2024-07-28T14:36:08.648Z</time>
      </trkpt>
      <trkpt lat="54.30259" lon="16.28265">
        <ele>47.926332</ele>
        <time>2024-07-28T14:36:11.650Z</time>
      </trkpt>
      <trkpt lat="54.30269" lon="16.28275">
        <ele>47.875518</ele>
        <time>2024-07-28T14:36:14.649Z</time>
      </trkpt>
      <trkpt lat="54.3028" lon="16.28285">
        <ele>47.822055</ele>
        <time>2024-07-28T14:36:17.650Z</time>
      </trkpt>
      <trkpt lat="54.30291" lon="16.28294">
        <ele>47.768117</ele>
        <time>2024-07-28T14:36:20.651Z</time>
      </trkpt>
      <trkpt lat="54.30303" lon="16.28304">
        <ele>47.710898</ele>
        <time>2024-07-28T14:36:23.647Z</time>
      </trkpt>
      <trkpt lat="54.30311" lon="16.2831">
        <ele>47.670637</ele>
        <time>2024-07-28T14:36:25.653Z</time>
      </trkpt>
      <trkpt lat="54.3032" lon="16.28317">
        <ele>47.630375</ele>
        <time>2024-07-28T14:36:27.654Z</time>
      </trkpt>
      <trkpt lat="54.30328" lon="16.28324">
        <ele>47.590171</ele>
        <time>2024-07-28T14:36:29.664Z</time>
      </trkpt>
      <trkpt lat="54.30336" lon="16.28331">
        <ele>47.549691</ele>
        <time>2024-07-28T14:36:31.661Z</time>
      </trkpt>
      <trkpt lat="54.30345" lon="16.28338">
        <ele>47.510711</ele>
        <time>2024-07-28T14:36:33.668Z</time>
      </trkpt>
      <trkpt lat="54.30357" lon="16.28348">
        <ele>47.514063</ele>
        <time>2024-07-28T14:36:36.653Z</time>
      </trkpt>
      <trkpt lat="54.30365" lon="16.28355">
        <ele>47.540242</ele>
        <time>2024-07-28T14:36:38.661Z</time>
      </trkpt>
      <trkpt lat="54.30373" lon="16.28362">
        <ele>47.566094</ele>
        <time>2024-07-28T14:36:40.649Z</time>
      </trkpt>
      <trkpt lat="54.30385" lon="16.28372">
        <ele>47.602362</ele>
        <time>2024-07-28T14:36:43.651Z</time>
      </trkpt>
      <trkpt lat="54.30396" lon="16.28381">
        <ele>47.638519</ele>
        <time>2024-07-28T14:36:46.648Z</time>
      </trkpt>
      <trkpt lat="54.30407" lon="16.28391">
        <ele>47.672061</ele>
        <time>2024-07-28T14:36:49.649Z</time>
      </trkpt>
      <trkpt lat="54.30417" lon="16.28399">
        <ele>47.704104</ele>
        <time>2024-07-28T14:36:52.659Z</time>
      </trkpt>
      <trkpt lat="54.30428" lon="16.28409">
        <ele>47.739691</ele>
        <time>2024-07-28T14:36:55.648Z</time>
      </trkpt>
      <trkpt lat="54.30439" lon="16.28419">
        <ele>47.775631</ele>
        <time>2024-07-28T14:36:58.653Z</time>
      </trkpt>
      <trkpt lat="54.3045" lon="16.28428">
        <ele>47.810622</ele>
        <time>2024-07-28T14:37:01.643Z</time>
      </trkpt>
      <trkpt lat="54.30461" lon="16.28437">
        <ele>47.84525</ele>
        <time>2024-07-28T14:37:04.663Z</time>
      </trkpt>
      <trkpt lat="54.30471" lon="16.28446">
        <ele>47.877837</ele>
        <time>2024-07-28T14:37:07.648Z</time>
      </trkpt>
      <trkpt lat="54.30482" lon="16.28454">
        <ele>47.909335</ele>
        <time>2024-07-28T14:37:10.653Z</time>
      </trkpt>
      <trkpt lat="54.30492" lon="16.28462">
        <ele>47.941051</ele>
        <time>2024-07-28T14:37:13.648Z</time>
      </trkpt>
      <trkpt lat="54.30501" lon="16.2847">
        <ele>47.971745</ele>
        <time>2024-07-28T14:37:16.641Z</time>
      </trkpt>
      <trkpt lat="54.30511" lon="16.28478">
        <ele>47.997912</ele>
        <time>2024-07-28T14:37:19.643Z</time>
      </trkpt>
      <trkpt lat="54.30521" lon="16.28486">
        <ele>47.966157</ele>
        <time>2024-07-28T14:37:22.646Z</time>
      </trkpt>
      <trkpt lat="54.30531" lon="16.28495">
        <ele>47.933741</ele>
        <time>2024-07-28T14:37:25.650Z</time>
      </trkpt>
      <trkpt lat="54.30543" lon="16.28505">
        <ele>47.89767</ele>
        <time>2024-07-28T14:37:28.662Z</time>
      </trkpt>
      <trkpt lat="54.30554" lon="16.28515">
        <ele>47.860948</ele>
        <time>2024-07-28T14:37:31.645Z</time>
      </trkpt>
      <trkpt lat="54.30562" lon="16.28521">
        <ele>47.834893</ele>
        <time>2024-07-28T14:37:33.671Z</time>
      </trkpt>
      <trkpt lat="54.30571" lon="16.28528">
        <ele>47.808695</ele>
        <time>2024-07-28T14:37:35.634Z</time>
      </trkpt>
      <trkpt lat="54.30583" lon="16.28538">
        <ele>47.770069</ele>
        <time>2024-07-28T14:37:38.651Z</time>
      </trkpt>
      <trkpt lat="54.30594" lon="16.28547">
        <ele>47.734228</ele>
        <time>2024-07-28T14:37:41.629Z</time>
      </trkpt>
      <trkpt lat="54.30605" lon="16.28556">
        <ele>47.699774</ele>
        <time>2024-07-28T14:37:44.649Z</time>
      </trkpt>
      <trkpt lat="54.30615" lon="16.28565">
        <ele>47.667805</ele>
        <time>2024-07-28T14:37:47.644Z</time>
      </trkpt>
      <trkpt lat="54.30626" lon="16.28573">
        <ele>47.634808</ele>
        <time>2024-07-28T14:37:50.665Z</time>
      </trkpt>
      <trkpt lat="54.30638" lon="16.28582">
        <ele>47.59796</ele>
        <time>2024-07-28T14:37:53.649Z</time>
      </trkpt>
      <trkpt lat="54.30649" lon="16.28592">
        <ele>47.563213</ele>
        <time>2024-07-28T14:37:56.648Z</time>
      </trkpt>
      <trkpt lat="54.30659" lon="16.28601">
        <ele>47.528614</ele>
        <time>2024-07-28T14:37:59.647Z</time>
      </trkpt>
      <trkpt lat="54.3067" lon="16.2861">
        <ele>47.495147</ele>
        <time>2024-07-28T14:38:02.666Z</time>
      </trkpt>
      <trkpt lat="54.30679" lon="16.28619">
        <ele>47.453719</ele>
        <time>2024-07-28T14:38:05.661Z</time>
      </trkpt>
      <trkpt lat="54.30688" lon="16.28627">
        <ele>47.416079</ele>
        <time>2024-07-28T14:38:08.652Z</time>
      </trkpt>
      <trkpt lat="54.30697" lon="16.28634">
        <ele>47.376314</ele>
        <time>2024-07-28T14:38:11.645Z</time>
      </trkpt>
      <trkpt lat="54.30706" lon="16.28642">
        <ele>47.332495</ele>
        <time>2024-07-28T14:38:14.657Z</time>
      </trkpt>
      <trkpt lat="54.30715" lon="16.28649">
        <ele>47.293301</ele>
        <time>2024-07-28T14:38:17.650Z</time>
      </trkpt>
      <trkpt lat="54.30725" lon="16.28655">
        <ele>47.251956</ele>
        <time>2024-07-28T14:39:52.649Z</time>
      </trkpt>
      <trkpt lat="54.30734" lon="16.28664">
        <ele>47.208843</ele>
        <time>2024-07-28T14:39:57.646Z</time>
      </trkpt>
      <trkpt lat="54.30745" lon="16.28672">
        <ele>47.162058</ele>
        <time>2024-07-28T14:40:01.653Z</time>
      </trkpt>
      <trkpt lat="54.30755" lon="16.28681">
        <ele>47.113307</ele>
        <time>2024-07-28T14:40:05.646Z</time>
      </trkpt>
      <trkpt lat="54.30764" lon="16.28688">
        <ele>47.075878</ele>
        <time>2024-07-28T14:40:08.670Z</time>
      </trkpt>
      <trkpt lat="54.30773" lon="16.28695">
        <ele>47.03385</ele>
        <time>2024-07-28T14:40:11.653Z</time>
      </trkpt>
      <trkpt lat="54.30783" lon="16.28703">
        <ele>46.990863</ele>
        <time>2024-07-28T14:40:14.649Z</time>
      </trkpt>
      <trkpt lat="54.30792" lon="16.28712">
        <ele>46.946944</ele>
        <time>2024-07-28T14:40:17.645Z</time>
      </trkpt>
      <trkpt lat="54.30802" lon="16.28723">
        <ele>46.899883</ele>
        <time>2024-07-28T14:40:20.653Z</time>
      </trkpt>
      <trkpt lat="54.30809" lon="16.28736">
        <ele>46.857965</ele>
        <time>2024-07-28T14:40:23.663Z</time>
      </trkpt>
      <trkpt lat="54.30817" lon="16.28749">
        <ele>46.813679</ele>
        <time>2024-07-28T14:40:26.658Z</time>
      </trkpt>
      <trkpt lat="54.30825" lon="16.28761">
        <ele>46.77093</ele>
        <time>2024-07-28T14:40:29.643Z</time>
      </trkpt>
      <trkpt lat="54.30833" lon="16.28775">
        <ele>46.736285</ele>
        <time>2024-07-28T14:40:32.663Z</time>
      </trkpt>
      <trkpt lat="54.30841" lon="16.28786">
        <ele>46.707303</ele>
        <time>2024-07-28T14:40:35.649Z</time>
      </trkpt>
      <trkpt lat="54.30849" lon="16.28799">
        <ele>46.677771</ele>
        <time>2024-07-28T14:40:38.665Z</time>
      </trkpt>
      <trkpt lat="54.30857" lon="16.28811">
        <ele>46.648051</ele>
        <time>2024-07-28T14:40:41.644Z</time>
      </trkpt>
      <trkpt lat="54.30864" lon="16.28824">
        <ele>46.618275</ele>
        <time>2024-07-28T14:40:44.649Z</time>
      </trkpt>
      <trkpt lat="54.30873" lon="16.28837">
        <ele>46.586108</ele>
        <time>2024-07-28T14:40:47.648Z</time>
      </trkpt>
      <trkpt lat="54.30882" lon="16.2885">
        <ele>46.553753</ele>
        <time>2024-07-28T14:40:50.659Z</time>
      </trkpt>
      <trkpt lat="54.3089" lon="16.28863">
        <ele>46.521599</ele>
        <time>2024-07-28T14:40:53.644Z</time>
      </trkpt>
      <trkpt lat="54.30899" lon="16.28877">
        <ele>46.48913</ele>
        <time>2024-07-28T14:40:56.641Z</time>
      </trkpt>
      <trkpt lat="54.30907" lon="16.28891">
        <ele>46.456309</ele>
        <time>2024-07-28T14:40:59.648Z</time>
      </trkpt>
      <trkpt lat="54.30915" lon="16.28906">
        <ele>46.423721</ele>
        <time>2024-07-28T14:41:02.672Z</time>
      </trkpt>
      <trkpt lat="54.30925" lon="16.28921">
        <ele>46.388289</ele>
        <time>2024-07-28T14:41:05.646Z</time>
      </trkpt>
      <trkpt lat="54.30935" lon="16.28935">
        <ele>46.352139</ele>
        <time>2024-07-28T14:41:08.652Z</time>
      </trkpt>
      <trkpt lat="54.30943" lon="16.28949">
        <ele>46.3197</ele>
        <time>2024-07-28T14:41:11.642Z</time>
      </trkpt>
      <trkpt lat="54.30951" lon="16.28964">
        <ele>46.28644</ele>
        <time>2024-07-28T14:41:14.672Z</time>
      </trkpt>
      <trkpt lat="54.3096" lon="16.28978">
        <ele>46.249825</ele>
        <time>2024-07-28T14:41:17.625Z</time>
      </trkpt>
      <trkpt lat="54.30968" lon="16.2899">
        <ele>46.199297</ele>
        <time>2024-07-28T14:41:20.637Z</time>
      </trkpt>
      <trkpt lat="54.30976" lon="16.29005">
        <ele>46.148193</ele>
        <time>2024-07-28T14:41:23.625Z</time>
      </trkpt>
      <trkpt lat="54.30983" lon="16.29021">
        <ele>46.093206</ele>
        <time>2024-07-28T14:41:26.632Z</time>
      </trkpt>
      <trkpt lat="54.30991" lon="16.29039">
        <ele>46.035934</ele>
        <time>2024-07-28T14:41:29.640Z</time>
      </trkpt>
      <trkpt lat="54.30998" lon="16.29056">
        <ele>45.979562</ele>
        <time>2024-07-28T14:41:32.644Z</time>
      </trkpt>
      <trkpt lat="54.31006" lon="16.29074">
        <ele>45.920004</ele>
        <time>2024-07-28T14:41:35.629Z</time>
      </trkpt>
      <trkpt lat="54.31014" lon="16.29091">
        <ele>45.862583</ele>
        <time>2024-07-28T14:41:38.643Z</time>
      </trkpt>
      <trkpt lat="54.31021" lon="16.29108">
        <ele>45.806966</ele>
        <time>2024-07-28T14:41:41.651Z</time>
      </trkpt>
      <trkpt lat="54.31029" lon="16.29126">
        <ele>45.748792</ele>
        <time>2024-07-28T14:41:44.649Z</time>
      </trkpt>
      <trkpt lat="54.31037" lon="16.29144">
        <ele>45.691264</ele>
        <time>2024-07-28T14:41:47.649Z</time>
      </trkpt>
      <trkpt lat="54.31045" lon="16.2916">
        <ele>45.634998</ele>
        <time>2024-07-28T14:41:50.636Z</time>
      </trkpt>
      <trkpt lat="54.31052" lon="16.29177">
        <ele>45.578851</ele>
        <time>2024-07-28T14:41:53.624Z</time>
      </trkpt>
      <trkpt lat="54.3106" lon="16.29195">
        <ele>45.520748</ele>
        <time>2024-07-28T14:41:56.646Z</time>
      </trkpt>
      <trkpt lat="54.31067" lon="16.29212">
        <ele>45.463995</ele>
        <time>2024-07-28T14:41:59.622Z</time>
      </trkpt>
      <trkpt lat="54.31076" lon="16.2923">
        <ele>45.344227</ele>
        <time>2024-07-28T14:42:02.647Z</time>
      </trkpt>
      <trkpt lat="54.31081" lon="16.29244">
        <ele>45.246486</ele>
        <time>2024-07-28T14:42:04.662Z</time>
      </trkpt>
      <trkpt lat="54.31086" lon="16.29258">
        <ele>45.146452</ele>
        <time>2024-07-28T14:42:06.638Z</time>
      </trkpt>
      <trkpt lat="54.31092" lon="16.29271">
        <ele>45.04562</ele>
        <time>2024-07-28T14:42:08.636Z</time>
      </trkpt>
      <trkpt lat="54.31098" lon="16.29285">
        <ele>44.943601</ele>
        <time>2024-07-28T14:42:10.665Z</time>
      </trkpt>
      <trkpt lat="54.31103" lon="16.293">
        <ele>44.841083</ele>
        <time>2024-07-28T14:42:12.644Z</time>
      </trkpt>
      <trkpt lat="54.3111" lon="16.29314">
        <ele>44.732731</ele>
        <time>2024-07-28T14:42:14.655Z</time>
      </trkpt>
      <trkpt lat="54.31115" lon="16.29328">
        <ele>44.628387</ele>
        <time>2024-07-28T14:42:16.644Z</time>
      </trkpt>
      <trkpt lat="54.31121" lon="16.29344">
        <ele>44.518044</ele>
        <time>2024-07-28T14:42:18.639Z</time>
      </trkpt>
      <trkpt lat="54.31128" lon="16.29359">
        <ele>44.404569</ele>
        <time>2024-07-28T14:42:20.660Z</time>
      </trkpt>
      <trkpt lat="54.31134" lon="16.29375">
        <ele>44.285116</ele>
        <time>2024-07-28T14:42:22.667Z</time>
      </trkpt>
      <trkpt lat="54.31141" lon="16.29392">
        <ele>44.161061</ele>
        <time>2024-07-28T14:42:24.649Z</time>
      </trkpt>
      <trkpt lat="54.31149" lon="16.29409">
        <ele>44.038212</ele>
        <time>2024-07-28T14:42:26.639Z</time>
      </trkpt>
      <trkpt lat="54.31156" lon="16.29425">
        <ele>43.915617</ele>
        <time>2024-07-28T14:42:28.643Z</time>
      </trkpt>
      <trkpt lat="54.31163" lon="16.29443">
        <ele>43.789016</ele>
        <time>2024-07-28T14:42:30.653Z</time>
      </trkpt>
      <trkpt lat="54.3117" lon="16.2946">
        <ele>43.663155</ele>
        <time>2024-07-28T14:42:32.654Z</time>
      </trkpt>
      <trkpt lat="54.31177" lon="16.29476">
        <ele>43.575319</ele>
        <time>2024-07-28T14:42:34.645Z</time>
      </trkpt>
      <trkpt lat="54.31184" lon="16.29493">
        <ele>43.521381</ele>
        <time>2024-07-28T14:42:36.644Z</time>
      </trkpt>
      <trkpt lat="54.31192" lon="16.2951">
        <ele>43.466652</ele>
        <time>2024-07-28T14:42:38.652Z</time>
      </trkpt>
      <trkpt lat="54.31199" lon="16.29527">
        <ele>43.410682</ele>
        <time>2024-07-28T14:42:40.664Z</time>
      </trkpt>
      <trkpt lat="54.31207" lon="16.29543">
        <ele>43.355116</ele>
        <time>2024-07-28T14:42:42.657Z</time>
      </trkpt>
      <trkpt lat="54.31216" lon="16.29559">
        <ele>43.298732</ele>
        <time>2024-07-28T14:42:44.640Z</time>
      </trkpt>
      <trkpt lat="54.31225" lon="16.29573">
        <ele>43.242374</ele>
        <time>2024-07-28T14:42:46.639Z</time>
      </trkpt>
      <trkpt lat="54.31235" lon="16.29587">
        <ele>43.187607</ele>
        <time>2024-07-28T14:42:48.641Z</time>
      </trkpt>
      <trkpt lat="54.31244" lon="16.296">
        <ele>43.132112</ele>
        <time>2024-07-28T14:42:50.661Z</time>
      </trkpt>
      <trkpt lat="54.31254" lon="16.29611">
        <ele>43.079724</ele>
        <time>2024-07-28T14:42:52.650Z</time>
      </trkpt>
      <trkpt lat="54.31263" lon="16.29623">
        <ele>43.029248</ele>
        <time>2024-07-28T14:42:54.651Z</time>
      </trkpt>
      <trkpt lat="54.31272" lon="16.29635">
        <ele>42.978858</ele>
        <time>2024-07-28T14:42:56.647Z</time>
      </trkpt>
      <trkpt lat="54.31281" lon="16.29646">
        <ele>42.927656</ele>
        <time>2024-07-28T14:42:58.662Z</time>
      </trkpt>
      <trkpt lat="54.3129" lon="16.29657">
        <ele>42.878236</ele>
        <time>2024-07-28T14:43:00.642Z</time>
      </trkpt>
      <trkpt lat="54.31299" lon="16.29667">
        <ele>42.828816</ele>
        <time>2024-07-28T14:43:02.654Z</time>
      </trkpt>
      <trkpt lat="54.31308" lon="16.29678">
        <ele>42.795226</ele>
        <time>2024-07-28T14:43:04.642Z</time>
      </trkpt>
      <trkpt lat="54.31317" lon="16.29689">
        <ele>42.786906</ele>
        <time>2024-07-28T14:43:06.645Z</time>
      </trkpt>
      <trkpt lat="54.31326" lon="16.297">
        <ele>42.778269</ele>
        <time>2024-07-28T14:43:08.663Z</time>
      </trkpt>
      <trkpt lat="54.31334" lon="16.29711">
        <ele>42.769403</ele>
        <time>2024-07-28T14:43:10.657Z</time>
      </trkpt>
      <trkpt lat="54.31344" lon="16.29723">
        <ele>42.760263</ele>
        <time>2024-07-28T14:43:12.641Z</time>
      </trkpt>
      <trkpt lat="54.31353" lon="16.29735">
        <ele>42.751151</ele>
        <time>2024-07-28T14:43:14.656Z</time>
      </trkpt>
      <trkpt lat="54.31363" lon="16.29746">
        <ele>42.741928</ele>
        <time>2024-07-28T14:43:16.648Z</time>
      </trkpt>
      <trkpt lat="54.31372" lon="16.29758">
        <ele>42.732678</ele>
        <time>2024-07-28T14:43:18.644Z</time>
      </trkpt>
      <trkpt lat="54.31382" lon="16.29769">
        <ele>42.723561</ele>
        <time>2024-07-28T14:43:20.665Z</time>
      </trkpt>
      <trkpt lat="54.3139" lon="16.29781">
        <ele>42.714676</ele>
        <time>2024-07-28T14:43:22.637Z</time>
      </trkpt>
      <trkpt lat="54.31399" lon="16.29791">
        <ele>42.706239</ele>
        <time>2024-07-28T14:43:24.644Z</time>
      </trkpt>
      <trkpt lat="54.31408" lon="16.29801">
        <ele>42.697998</ele>
        <time>2024-07-28T14:43:26.644Z</time>
      </trkpt>
      <trkpt lat="54.31416" lon="16.29811">
        <ele>42.689665</ele>
        <time>2024-07-28T14:43:28.662Z</time>
      </trkpt>
      <trkpt lat="54.31425" lon="16.29821">
        <ele>42.681283</ele>
        <time>2024-07-28T14:43:30.648Z</time>
      </trkpt>
      <trkpt lat="54.31434" lon="16.29831">
        <ele>42.673002</ele>
        <time>2024-07-28T14:43:32.649Z</time>
      </trkpt>
      <trkpt lat="54.31442" lon="16.29841">
        <ele>42.665049</ele>
        <time>2024-07-28T14:43:34.644Z</time>
      </trkpt>
      <trkpt lat="54.3145" lon="16.29851">
        <ele>42.657416</ele>
        <time>2024-07-28T14:43:36.642Z</time>
      </trkpt>
      <trkpt lat="54.31458" lon="16.2986">
        <ele>42.637848</ele>
        <time>2024-07-28T14:43:38.641Z</time>
      </trkpt>
      <trkpt lat="54.31466" lon="16.2987">
        <ele>42.614572</ele>
        <time>2024-07-28T14:43:40.632Z</time>
      </trkpt>
      <trkpt lat="54.31473" lon="16.2988">
        <ele>42.593441</ele>
        <time>2024-07-28T14:43:42.637Z</time>
      </trkpt>
      <trkpt lat="54.3148" lon="16.29891">
        <ele>42.572007</ele>
        <time>2024-07-28T14:43:44.653Z</time>
      </trkpt>
      <trkpt lat="54.31486" lon="16.29904">
        <ele>42.549384</ele>
        <time>2024-07-28T14:43:46.649Z</time>
      </trkpt>
      <trkpt lat="54.31491" lon="16.29918">
        <ele>42.52661</ele>
        <time>2024-07-28T14:43:48.651Z</time>
      </trkpt>
      <trkpt lat="54.31497" lon="16.29932">
        <ele>42.503643</ele>
        <time>2024-07-28T14:43:50.639Z</time>
      </trkpt>
      <trkpt lat="54.31502" lon="16.29946">
        <ele>42.480097</ele>
        <time>2024-07-28T14:43:52.638Z</time>
      </trkpt>
      <trkpt lat="54.31508" lon="16.29961">
        <ele>42.456216</ele>
        <time>2024-07-28T14:43:54.649Z</time>
      </trkpt>
      <trkpt lat="54.31514" lon="16.29975">
        <ele>42.432335</ele>
        <time>2024-07-28T14:43:56.684Z</time>
      </trkpt>
      <trkpt lat="54.3152" lon="16.2999">
        <ele>42.407905</ele>
        <time>2024-07-28T14:43:58.635Z</time>
      </trkpt>
      <trkpt lat="54.31525" lon="16.30005">
        <ele>42.383816</ele>
        <time>2024-07-28T14:44:00.643Z</time>
      </trkpt>
      <trkpt lat="54.31531" lon="16.3002">
        <ele>42.359405</ele>
        <time>2024-07-28T14:44:02.651Z</time>
      </trkpt>
      <trkpt lat="54.31537" lon="16.30035">
        <ele>42.334847</ele>
        <time>2024-07-28T14:44:04.642Z</time>
      </trkpt>
      <trkpt lat="54.31543" lon="16.3005">
        <ele>42.309806</ele>
        <time>2024-07-28T14:44:06.649Z</time>
      </trkpt>
      <trkpt lat="54.31549" lon="16.30066">
        <ele>42.284564</ele>
        <time>2024-07-28T14:44:08.631Z</time>
      </trkpt>
      <trkpt lat="54.31555" lon="16.3008">
        <ele>42.260115</ele>
        <time>2024-07-28T14:44:10.660Z</time>
      </trkpt>
      <trkpt lat="54.31562" lon="16.30095">
        <ele>42.235097</ele>
        <time>2024-07-28T14:44:12.648Z</time>
      </trkpt>
      <trkpt lat="54.31568" lon="16.30109">
        <ele>42.210518</ele>
        <time>2024-07-28T14:44:14.687Z</time>
      </trkpt>
      <trkpt lat="54.31574" lon="16.30123">
        <ele>42.185802</ele>
        <time>2024-07-28T14:44:16.650Z</time>
      </trkpt>
      <trkpt lat="54.3158" lon="16.30137">
        <ele>42.162029</ele>
        <time>2024-07-28T14:44:18.635Z</time>
      </trkpt>
      <trkpt lat="54.31586" lon="16.30151">
        <ele>42.138422</ele>
        <time>2024-07-28T14:44:20.640Z</time>
      </trkpt>
      <trkpt lat="54.31592" lon="16.30163">
        <ele>42.117103</ele>
        <time>2024-07-28T14:44:22.652Z</time>
      </trkpt>
      <trkpt lat="54.31598" lon="16.30175">
        <ele>42.094702</ele>
        <time>2024-07-28T14:44:24.641Z</time>
      </trkpt>
      <trkpt lat="54.31604" lon="16.30188">
        <ele>42.072957</ele>
        <time>2024-07-28T14:44:26.646Z</time>
      </trkpt>
      <trkpt lat="54.3161" lon="16.30205">
        <ele>42.045742</ele>
        <time>2024-07-28T14:44:29.641Z</time>
      </trkpt>
      <trkpt lat="54.3161" lon="16.30222">
        <ele>42.022067</ele>
        <time>2024-07-28T14:44:33.645Z</time>
      </trkpt>
      <trkpt lat="54.31607" lon="16.30237">
        <ele>42.000656</ele>
        <time>2024-07-28T14:44:39.632Z</time>
      </trkpt>
      <trkpt lat="54.31612" lon="16.30251">
        <ele>41.977261</ele>
        <time>2024-07-28T14:45:10.646Z</time>
      </trkpt>
      <trkpt lat="54.31623" lon="16.30247">
        <ele>41.950378</ele>
        <time>2024-07-28T14:45:14.642Z</time>
      </trkpt>
      <trkpt lat="54.31632" lon="16.30243">
        <ele>41.928107</ele>
        <time>2024-07-28T14:45:17.665Z</time>
      </trkpt>
      <trkpt lat="54.31642" lon="16.30242">
        <ele>41.9038</ele>
        <time>2024-07-28T14:45:20.650Z</time>
      </trkpt>
      <trkpt lat="54.31654" lon="16.30244">
        <ele>41.875688</ele>
        <time>2024-07-28T14:45:23.664Z</time>
      </trkpt>
      <trkpt lat="54.31666" lon="16.30247">
        <ele>41.846438</ele>
        <time>2024-07-28T14:45:26.646Z</time>
      </trkpt>
      <trkpt lat="54.31679" lon="16.30252">
        <ele>41.815528</ele>
        <time>2024-07-28T14:45:29.646Z</time>
      </trkpt>
      <trkpt lat="54.31691" lon="16.30259">
        <ele>41.812352</ele>
        <time>2024-07-28T14:45:32.655Z</time>
      </trkpt>
      <trkpt lat="54.31703" lon="16.30267">
        <ele>41.811571</ele>
        <time>2024-07-28T14:45:35.663Z</time>
      </trkpt>
      <trkpt lat="54.31716" lon="16.30274">
        <ele>41.810785</ele>
        <time>2024-07-28T14:45:38.656Z</time>
      </trkpt>
      <trkpt lat="54.31728" lon="16.30282">
        <ele>41.809983</ele>
        <time>2024-07-28T14:45:41.640Z</time>
      </trkpt>
      <trkpt lat="54.31738" lon="16.30288">
        <ele>41.80936</ele>
        <time>2024-07-28T14:45:43.655Z</time>
      </trkpt>
      <trkpt lat="54.31748" lon="16.30296">
        <ele>41.808732</ele>
        <time>2024-07-28T14:45:45.640Z</time>
      </trkpt>
      <trkpt lat="54.31757" lon="16.30303">
        <ele>41.808128</ele>
        <time>2024-07-28T14:45:47.628Z</time>
      </trkpt>
      <trkpt lat="54.31765" lon="16.30312">
        <ele>41.807526</ele>
        <time>2024-07-28T14:45:49.638Z</time>
      </trkpt>
      <trkpt lat="54.31773" lon="16.30321">
        <ele>41.806958</ele>
        <time>2024-07-28T14:45:51.641Z</time>
      </trkpt>
      <trkpt lat="54.31781" lon="16.3033">
        <ele>41.806391</ele>
        <time>2024-07-28T14:45:53.664Z</time>
      </trkpt>
      <trkpt lat="54.31788" lon="16.3034">
        <ele>41.805834</ele>
        <time>2024-07-28T14:45:55.641Z</time>
      </trkpt>
      <trkpt lat="54.31796" lon="16.3035">
        <ele>41.805268</ele>
        <time>2024-07-28T14:45:57.640Z</time>
      </trkpt>
      <trkpt lat="54.31802" lon="16.30362">
        <ele>41.804725</ele>
        <time>2024-07-28T14:45:59.622Z</time>
      </trkpt>
      <trkpt lat="54.31808" lon="16.30373">
        <ele>41.804165</ele>
        <time>2024-07-28T14:46:01.645Z</time>
      </trkpt>
      <trkpt lat="54.31815" lon="16.30384">
        <ele>41.803599</ele>
        <time>2024-07-28T14:46:03.643Z</time>
      </trkpt>
      <trkpt lat="54.31823" lon="16.30394">
        <ele>41.80303</ele>
        <time>2024-07-28T14:46:05.624Z</time>
      </trkpt>
      <trkpt lat="54.31831" lon="16.30404">
        <ele>41.802417</ele>
        <time>2024-07-28T14:46:07.650Z</time>
      </trkpt>
      <trkpt lat="54.31839" lon="16.30415">
        <ele>41.810522</ele>
        <time>2024-07-28T14:46:09.629Z</time>
      </trkpt>
      <trkpt lat="54.31847" lon="16.30426">
        <ele>41.821599</ele>
        <time>2024-07-28T14:46:11.639Z</time>
      </trkpt>
      <trkpt lat="54.31855" lon="16.30436">
        <ele>41.833016</ele>
        <time>2024-07-28T14:46:13.641Z</time>
      </trkpt>
      <trkpt lat="54.31863" lon="16.30448">
        <ele>41.844577</ele>
        <time>2024-07-28T14:46:15.636Z</time>
      </trkpt>
      <trkpt lat="54.31871" lon="16.3046">
        <ele>41.856264</ele>
        <time>2024-07-28T14:46:17.646Z</time>
      </trkpt>
      <trkpt lat="54.31879" lon="16.30471">
        <ele>41.867658</ele>
        <time>2024-07-28T14:46:19.640Z</time>
      </trkpt>
      <trkpt lat="54.31887" lon="16.30483">
        <ele>41.879302</ele>
        <time>2024-07-28T14:46:21.651Z</time>
      </trkpt>
      <trkpt lat="54.31895" lon="16.30494">
        <ele>41.890922</ele>
        <time>2024-07-28T14:46:23.636Z</time>
      </trkpt>
      <trkpt lat="54.31903" lon="16.30506">
        <ele>41.902149</ele>
        <time>2024-07-28T14:46:25.654Z</time>
      </trkpt>
      <trkpt lat="54.31912" lon="16.30517">
        <ele>41.913881</ele>
        <time>2024-07-28T14:46:27.654Z</time>
      </trkpt>
      <trkpt lat="54.3192" lon="16.30529">
        <ele>41.9254</ele>
        <time>2024-07-28T14:46:29.646Z</time>
      </trkpt>
      <trkpt lat="54.31928" lon="16.3054">
        <ele>41.937052</ele>
        <time>2024-07-28T14:46:31.664Z</time>
      </trkpt>
      <trkpt lat="54.31936" lon="16.30551">
        <ele>41.948112</ele>
        <time>2024-07-28T14:46:33.661Z</time>
      </trkpt>
      <trkpt lat="54.31943" lon="16.30562">
        <ele>41.959297</ele>
        <time>2024-07-28T14:46:35.631Z</time>
      </trkpt>
      <trkpt lat="54.31951" lon="16.30573">
        <ele>41.970611</ele>
        <time>2024-07-28T14:46:37.646Z</time>
      </trkpt>
      <trkpt lat="54.31959" lon="16.30585">
        <ele>41.981963</ele>
        <time>2024-07-28T14:46:39.636Z</time>
      </trkpt>
      <trkpt lat="54.31967" lon="16.30597">
        <ele>41.993357</ele>
        <time>2024-07-28T14:46:41.648Z</time>
      </trkpt>
      <trkpt lat="54.31975" lon="16.30608">
        <ele>42.004184</ele>
        <time>2024-07-28T14:46:43.664Z</time>
      </trkpt>
      <trkpt lat="54.31983" lon="16.30619">
        <ele>42.014019</ele>
        <time>2024-07-28T14:46:45.617Z</time>
      </trkpt>
      <trkpt lat="54.31991" lon="16.30631">
        <ele>42.02364</ele>
        <time>2024-07-28T14:46:47.653Z</time>
      </trkpt>
      <trkpt lat="54.31999" lon="16.30643">
        <ele>42.03369</ele>
        <time>2024-07-28T14:46:49.645Z</time>
      </trkpt>
      <trkpt lat="54.32008" lon="16.30654">
        <ele>42.043994</ele>
        <time>2024-07-28T14:46:51.633Z</time>
      </trkpt>
      <trkpt lat="54.32016" lon="16.30666">
        <ele>42.054044</ele>
        <time>2024-07-28T14:46:53.626Z</time>
      </trkpt>
      <trkpt lat="54.32024" lon="16.30679">
        <ele>42.064167</ele>
        <time>2024-07-28T14:46:55.643Z</time>
      </trkpt>
      <trkpt lat="54.32032" lon="16.3069">
        <ele>42.074267</ele>
        <time>2024-07-28T14:46:57.643Z</time>
      </trkpt>
      <trkpt lat="54.3204" lon="16.30701">
        <ele>42.084076</ele>
        <time>2024-07-28T14:46:59.644Z</time>
      </trkpt>
      <trkpt lat="54.32048" lon="16.30712">
        <ele>42.093911</ele>
        <time>2024-07-28T14:47:01.632Z</time>
      </trkpt>
      <trkpt lat="54.32056" lon="16.30724">
        <ele>42.103676</ele>
        <time>2024-07-28T14:47:03.655Z</time>
      </trkpt>
      <trkpt lat="54.32065" lon="16.30733">
        <ele>42.113532</ele>
        <time>2024-07-28T14:47:05.640Z</time>
      </trkpt>
      <trkpt lat="54.32074" lon="16.30744">
        <ele>42.123391</ele>
        <time>2024-07-28T14:47:07.649Z</time>
      </trkpt>
      <trkpt lat="54.32082" lon="16.30756">
        <ele>42.133514</ele>
        <time>2024-07-28T14:47:09.643Z</time>
      </trkpt>
      <trkpt lat="54.3209" lon="16.30767">
        <ele>42.143514</ele>
        <time>2024-07-28T14:47:11.633Z</time>
      </trkpt>
      <trkpt lat="54.32099" lon="16.30777">
        <ele>42.153304</ele>
        <time>2024-07-28T14:47:13.657Z</time>
      </trkpt>
      <trkpt lat="54.32107" lon="16.30787">
        <ele>42.163065</ele>
        <time>2024-07-28T14:47:15.648Z</time>
      </trkpt>
      <trkpt lat="54.32116" lon="16.30797">
        <ele>42.151287</ele>
        <time>2024-07-28T14:47:17.646Z</time>
      </trkpt>
      <trkpt lat="54.32125" lon="16.30805">
        <ele>42.101461</ele>
        <time>2024-07-28T14:47:19.662Z</time>
      </trkpt>
      <trkpt lat="54.32133" lon="16.30814">
        <ele>42.050467</ele>
        <time>2024-07-28T14:47:21.650Z</time>
      </trkpt>
      <trkpt lat="54.32142" lon="16.30823">
        <ele>41.997867</ele>
        <time>2024-07-28T14:47:23.642Z</time>
      </trkpt>
      <trkpt lat="54.32151" lon="16.30831">
        <ele>41.948612</ele>
        <time>2024-07-28T14:47:25.640Z</time>
      </trkpt>
      <trkpt lat="54.32159" lon="16.3084">
        <ele>41.89946</ele>
        <time>2024-07-28T14:47:27.647Z</time>
      </trkpt>
      <trkpt lat="54.32168" lon="16.30848">
        <ele>41.84976</ele>
        <time>2024-07-28T14:47:29.644Z</time>
      </trkpt>
      <trkpt lat="54.32176" lon="16.30855">
        <ele>41.801977</ele>
        <time>2024-07-28T14:47:31.644Z</time>
      </trkpt>
      <trkpt lat="54.32187" lon="16.30867">
        <ele>41.736957</ele>
        <time>2024-07-28T14:47:34.637Z</time>
      </trkpt>
      <trkpt lat="54.32198" lon="16.30878">
        <ele>41.674683</ele>
        <time>2024-07-28T14:47:37.639Z</time>
      </trkpt>
      <trkpt lat="54.32208" lon="16.30888">
        <ele>41.613613</ele>
        <time>2024-07-28T14:47:40.646Z</time>
      </trkpt>
      <trkpt lat="54.32218" lon="16.30899">
        <ele>41.554057</ele>
        <time>2024-07-28T14:47:43.643Z</time>
      </trkpt>
      <trkpt lat="54.32227" lon="16.30906">
        <ele>41.506247</ele>
        <time>2024-07-28T14:47:47.642Z</time>
      </trkpt>
      <trkpt lat="54.32233" lon="16.30894">
        <ele>41.457593</ele>
        <time>2024-07-28T14:48:06.630Z</time>
      </trkpt>
      <trkpt lat="54.32244" lon="16.30894">
        <ele>41.402058</ele>
        <time>2024-07-28T14:48:12.637Z</time>
      </trkpt>
      <trkpt lat="54.32252" lon="16.30904">
        <ele>41.354631</ele>
        <time>2024-07-28T14:48:15.657Z</time>
      </trkpt>
      <trkpt lat="54.32262" lon="16.30913">
        <ele>41.297643</ele>
        <time>2024-07-28T14:48:18.649Z</time>
      </trkpt>
      <trkpt lat="54.32272" lon="16.30923">
        <ele>41.248063</ele>
        <time>2024-07-28T14:48:21.657Z</time>
      </trkpt>
      <trkpt lat="54.32283" lon="16.3093">
        <ele>41.212361</ele>
        <time>2024-07-28T14:48:24.635Z</time>
      </trkpt>
      <trkpt lat="54.32295" lon="16.30936">
        <ele>41.174862</ele>
        <time>2024-07-28T14:48:27.666Z</time>
      </trkpt>
      <trkpt lat="54.32304" lon="16.3094">
        <ele>41.147191</ele>
        <time>2024-07-28T14:48:29.649Z</time>
      </trkpt>
      <trkpt lat="54.32313" lon="16.30943">
        <ele>41.120306</ele>
        <time>2024-07-28T14:48:31.658Z</time>
      </trkpt>
      <trkpt lat="54.32322" lon="16.30946">
        <ele>41.093143</ele>
        <time>2024-07-28T14:48:33.667Z</time>
      </trkpt>
      <trkpt lat="54.32335" lon="16.30951">
        <ele>41.054283</ele>
        <time>2024-07-28T14:48:36.643Z</time>
      </trkpt>
      <trkpt lat="54.32346" lon="16.30958">
        <ele>41.019093</ele>
        <time>2024-07-28T14:48:39.655Z</time>
      </trkpt>
      <trkpt lat="54.32358" lon="16.30961">
        <ele>40.981823</ele>
        <time>2024-07-28T14:48:42.645Z</time>
      </trkpt>
      <trkpt lat="54.32372" lon="16.3096">
        <ele>40.942234</ele>
        <time>2024-07-28T14:48:45.654Z</time>
      </trkpt>
      <trkpt lat="54.32385" lon="16.30962">
        <ele>40.903418</ele>
        <time>2024-07-28T14:48:48.645Z</time>
      </trkpt>
      <trkpt lat="54.32397" lon="16.30966">
        <ele>40.865541</ele>
        <time>2024-07-28T14:48:51.637Z</time>
      </trkpt>
      <trkpt lat="54.3241" lon="16.3097">
        <ele>40.825261</ele>
        <time>2024-07-28T14:48:54.632Z</time>
      </trkpt>
      <trkpt lat="54.32423" lon="16.30976">
        <ele>40.786234</ele>
        <time>2024-07-28T14:48:57.634Z</time>
      </trkpt>
      <trkpt lat="54.32436" lon="16.30982">
        <ele>40.746011</ele>
        <time>2024-07-28T14:49:00.637Z</time>
      </trkpt>
      <trkpt lat="54.32445" lon="16.30984">
        <ele>40.715931</ele>
        <time>2024-07-28T14:49:02.662Z</time>
      </trkpt>
      <trkpt lat="54.32455" lon="16.30987">
        <ele>40.67614</ele>
        <time>2024-07-28T14:49:04.649Z</time>
      </trkpt>
      <trkpt lat="54.32465" lon="16.3099">
        <ele>40.63364</ele>
        <time>2024-07-28T14:49:06.631Z</time>
      </trkpt>
      <trkpt lat="54.32475" lon="16.30992">
        <ele>40.594075</ele>
        <time>2024-07-28T14:49:08.640Z</time>
      </trkpt>
      <trkpt lat="54.32485" lon="16.30996">
        <ele>40.552825</ele>
        <time>2024-07-28T14:49:10.649Z</time>
      </trkpt>
      <trkpt lat="54.32494" lon="16.31">
        <ele>40.514508</ele>
        <time>2024-07-28T14:49:12.633Z</time>
      </trkpt>
      <trkpt lat="54.32504" lon="16.31004">
        <ele>40.475465</ele>
        <time>2024-07-28T14:49:14.645Z</time>
      </trkpt>
      <trkpt lat="54.32513" lon="16.31007">
        <ele>40.437346</ele>
        <time>2024-07-28T14:49:16.642Z</time>
      </trkpt>
      <trkpt lat="54.32522" lon="16.3101">
        <ele>40.399053</ele>
        <time>2024-07-28T14:49:18.654Z</time>
      </trkpt>
      <trkpt lat="54.32532" lon="16.31013">
        <ele>40.359431</ele>
        <time>2024-07-28T14:49:20.649Z</time>
      </trkpt>
      <trkpt lat="54.32541" lon="16.31016">
        <ele>40.32063</ele>
        <time>2024-07-28T14:49:22.668Z</time>
      </trkpt>
      <trkpt lat="54.32551" lon="16.31017">
        <ele>40.281803</ele>
        <time>2024-07-28T14:49:24.652Z</time>
      </trkpt>
      <trkpt lat="54.32561" lon="16.31017">
        <ele>40.241415</ele>
        <time>2024-07-28T14:49:26.652Z</time>
      </trkpt>
      <trkpt lat="54.32571" lon="16.3102">
        <ele>40.201051</ele>
        <time>2024-07-28T14:49:28.669Z</time>
      </trkpt>
      <trkpt lat="54.32581" lon="16.31024">
        <ele>40.160662</ele>
        <time>2024-07-28T14:49:30.662Z</time>
      </trkpt>
      <trkpt lat="54.3259" lon="16.31027">
        <ele>40.120297</ele>
        <time>2024-07-28T14:49:32.653Z</time>
      </trkpt>
      <trkpt lat="54.32601" lon="16.31031">
        <ele>40.078303</ele>
        <time>2024-07-28T14:49:34.634Z</time>
      </trkpt>
      <trkpt lat="54.3261" lon="16.31034">
        <ele>40.038469</ele>
        <time>2024-07-28T14:49:36.657Z</time>
      </trkpt>
      <trkpt lat="54.3262" lon="16.31037">
        <ele>39.999469</ele>
        <time>2024-07-28T14:49:38.649Z</time>
      </trkpt>
      <trkpt lat="54.32629" lon="16.31041">
        <ele>39.960263</ele>
        <time>2024-07-28T14:49:40.654Z</time>
      </trkpt>
      <trkpt lat="54.32639" lon="16.31043">
        <ele>39.92113</ele>
        <time>2024-07-28T14:49:42.637Z</time>
      </trkpt>
      <trkpt lat="54.32648" lon="16.31047">
        <ele>39.883051</ele>
        <time>2024-07-28T14:49:44.642Z</time>
      </trkpt>
      <trkpt lat="54.32657" lon="16.3105">
        <ele>39.843119</ele>
        <time>2024-07-28T14:49:46.645Z</time>
      </trkpt>
      <trkpt lat="54.32666" lon="16.31053">
        <ele>39.806027</ele>
        <time>2024-07-28T14:49:48.661Z</time>
      </trkpt>
      <trkpt lat="54.32676" lon="16.31056">
        <ele>39.766232</ele>
        <time>2024-07-28T14:49:50.658Z</time>
      </trkpt>
      <trkpt lat="54.32685" lon="16.31059">
        <ele>39.729363</ele>
        <time>2024-07-28T14:49:52.635Z</time>
      </trkpt>
      <trkpt lat="54.32694" lon="16.31062">
        <ele>39.691511</ele>
        <time>2024-07-28T14:49:54.636Z</time>
      </trkpt>
      <trkpt lat="54.32703" lon="16.31065">
        <ele>39.653003</ele>
        <time>2024-07-28T14:49:56.629Z</time>
      </trkpt>
      <trkpt lat="54.32713" lon="16.31068">
        <ele>39.613389</ele>
        <time>2024-07-28T14:49:58.649Z</time>
      </trkpt>
      <trkpt lat="54.32722" lon="16.31072">
        <ele>39.574347</ele>
        <time>2024-07-28T14:50:00.640Z</time>
      </trkpt>
      <trkpt lat="54.32732" lon="16.31076">
        <ele>39.533847</ele>
        <time>2024-07-28T14:50:02.652Z</time>
      </trkpt>
      <trkpt lat="54.32742" lon="16.31079">
        <ele>39.494233</ele>
        <time>2024-07-28T14:50:04.646Z</time>
      </trkpt>
      <trkpt lat="54.32752" lon="16.31082">
        <ele>39.453378</ele>
        <time>2024-07-28T14:50:06.634Z</time>
      </trkpt>
      <trkpt lat="54.32761" lon="16.31084">
        <ele>39.414925</ele>
        <time>2024-07-28T14:50:08.638Z</time>
      </trkpt>
      <trkpt lat="54.3277" lon="16.31086">
        <ele>39.376671</ele>
        <time>2024-07-28T14:50:10.638Z</time>
      </trkpt>
      <trkpt lat="54.3278" lon="16.31089">
        <ele>39.337178</ele>
        <time>2024-07-28T14:50:12.645Z</time>
      </trkpt>
      <trkpt lat="54.3279" lon="16.31092">
        <ele>39.297722</ele>
        <time>2024-07-28T14:50:14.638Z</time>
      </trkpt>
      <trkpt lat="54.32799" lon="16.31094">
        <ele>39.295037</ele>
        <time>2024-07-28T14:50:16.647Z</time>
      </trkpt>
      <trkpt lat="54.32808" lon="16.31098">
        <ele>39.3803</ele>
        <time>2024-07-28T14:50:18.637Z</time>
      </trkpt>
      <trkpt lat="54.32817" lon="16.311">
        <ele>39.466651</ele>
        <time>2024-07-28T14:50:20.644Z</time>
      </trkpt>
      <trkpt lat="54.32827" lon="16.31103">
        <ele>39.551291</ele>
        <time>2024-07-28T14:50:22.655Z</time>
      </trkpt>
      <trkpt lat="54.32839" lon="16.31106">
        <ele>39.668729</ele>
        <time>2024-07-28T14:50:25.632Z</time>
      </trkpt>
      <trkpt lat="54.3285" lon="16.31111">
        <ele>39.770118</ele>
        <time>2024-07-28T14:50:28.660Z</time>
      </trkpt>
      <trkpt lat="54.32862" lon="16.31115">
        <ele>39.883359</ele>
        <time>2024-07-28T14:50:31.632Z</time>
      </trkpt>
      <trkpt lat="54.32875" lon="16.31117">
        <ele>40.003969</ele>
        <time>2024-07-28T14:50:34.645Z</time>
      </trkpt>
      <trkpt lat="54.32888" lon="16.3112">
        <ele>40.121644</ele>
        <time>2024-07-28T14:50:37.635Z</time>
      </trkpt>
      <trkpt lat="54.32901" lon="16.31125">
        <ele>40.241053</ele>
        <time>2024-07-28T14:50:40.648Z</time>
      </trkpt>
      <trkpt lat="54.32913" lon="16.31129">
        <ele>40.358879</ele>
        <time>2024-07-28T14:50:43.635Z</time>
      </trkpt>
      <trkpt lat="54.32925" lon="16.31135">
        <ele>40.473208</ele>
        <time>2024-07-28T14:50:46.643Z</time>
      </trkpt>
      <trkpt lat="54.32937" lon="16.3114">
        <ele>40.58134</ele>
        <time>2024-07-28T14:50:49.641Z</time>
      </trkpt>
      <trkpt lat="54.32948" lon="16.31143">
        <ele>40.689167</ele>
        <time>2024-07-28T14:50:52.633Z</time>
      </trkpt>
      <trkpt lat="54.3296" lon="16.31148">
        <ele>40.79894</ele>
        <time>2024-07-28T14:50:55.648Z</time>
      </trkpt>
      <trkpt lat="54.32973" lon="16.31153">
        <ele>40.916209</ele>
        <time>2024-07-28T14:50:58.639Z</time>
      </trkpt>
      <trkpt lat="54.32986" lon="16.31156">
        <ele>40.860908</ele>
        <time>2024-07-28T14:51:01.639Z</time>
      </trkpt>
      <trkpt lat="54.32995" lon="16.31159">
        <ele>40.823287</ele>
        <time>2024-07-28T14:51:03.639Z</time>
      </trkpt>
      <trkpt lat="54.33004" lon="16.31161">
        <ele>40.78499</ele>
        <time>2024-07-28T14:51:05.640Z</time>
      </trkpt>
      <trkpt lat="54.33013" lon="16.31163">
        <ele>40.747478</ele>
        <time>2024-07-28T14:51:07.659Z</time>
      </trkpt>
      <trkpt lat="54.33022" lon="16.31167">
        <ele>40.709048</ele>
        <time>2024-07-28T14:51:09.635Z</time>
      </trkpt>
      <trkpt lat="54.33031" lon="16.3117">
        <ele>40.670265</ele>
        <time>2024-07-28T14:51:11.651Z</time>
      </trkpt>
      <trkpt lat="54.33041" lon="16.31173">
        <ele>40.631667</ele>
        <time>2024-07-28T14:51:13.642Z</time>
      </trkpt>
      <trkpt lat="54.3305" lon="16.31178">
        <ele>40.592452</ele>
        <time>2024-07-28T14:51:15.632Z</time>
      </trkpt>
      <trkpt lat="54.33059" lon="16.31182">
        <ele>40.553373</ele>
        <time>2024-07-28T14:51:17.646Z</time>
      </trkpt>
      <trkpt lat="54.33068" lon="16.31187">
        <ele>40.512507</ele>
        <time>2024-07-28T14:51:19.621Z</time>
      </trkpt>
      <trkpt lat="54.33078" lon="16.31192">
        <ele>40.472362</ele>
        <time>2024-07-28T14:51:21.636Z</time>
      </trkpt>
      <trkpt lat="54.33087" lon="16.31197">
        <ele>40.432146</ele>
        <time>2024-07-28T14:51:23.655Z</time>
      </trkpt>
      <trkpt lat="54.33096" lon="16.31202">
        <ele>40.392071</ele>
        <time>2024-07-28T14:51:25.662Z</time>
      </trkpt>
      <trkpt lat="54.33105" lon="16.31207">
        <ele>40.353505</ele>
        <time>2024-07-28T14:51:27.643Z</time>
      </trkpt>
      <trkpt lat="54.33114" lon="16.31213">
        <ele>40.315296</ele>
        <time>2024-07-28T14:51:29.649Z</time>
      </trkpt>
      <trkpt lat="54.33125" lon="16.31221">
        <ele>40.263706</ele>
        <time>2024-07-28T14:51:32.651Z</time>
      </trkpt>
      <trkpt lat="54.33136" lon="16.31228">
        <ele>40.216923</ele>
        <time>2024-07-28T14:51:35.626Z</time>
      </trkpt>
      <trkpt lat="54.33139" lon="16.31244">
        <ele>40.176332</ele>
        <time>2024-07-28T14:51:44.640Z</time>
      </trkpt>
      <trkpt lat="54.33146" lon="16.31259">
        <ele>40.346217</ele>
        <time>2024-07-28T14:51:48.654Z</time>
      </trkpt>
      <trkpt lat="54.33156" lon="16.31263">
        <ele>40.517827</ele>
        <time>2024-07-28T14:51:51.653Z</time>
      </trkpt>
      <trkpt lat="54.33166" lon="16.31269">
        <ele>40.694088</ele>
        <time>2024-07-28T14:51:54.636Z</time>
      </trkpt>
      <trkpt lat="54.33176" lon="16.31277">
        <ele>40.87882</ele>
        <time>2024-07-28T14:51:57.638Z</time>
      </trkpt>
      <trkpt lat="54.33185" lon="16.31283">
        <ele>41.042223</ele>
        <time>2024-07-28T14:52:00.650Z</time>
      </trkpt>
      <trkpt lat="54.33195" lon="16.3129">
        <ele>41.218999</ele>
        <time>2024-07-28T14:52:03.635Z</time>
      </trkpt>
      <trkpt lat="54.33205" lon="16.31298">
        <ele>41.401239</ele>
        <time>2024-07-28T14:52:06.643Z</time>
      </trkpt>
      <trkpt lat="54.33216" lon="16.31306">
        <ele>41.597391</ele>
        <time>2024-07-28T14:52:09.657Z</time>
      </trkpt>
      <trkpt lat="54.33227" lon="16.31314">
        <ele>41.791359</ele>
        <time>2024-07-28T14:52:12.644Z</time>
      </trkpt>
      <trkpt lat="54.33237" lon="16.31322">
        <ele>41.983413</ele>
        <time>2024-07-28T14:52:15.648Z</time>
      </trkpt>
      <trkpt lat="54.33247" lon="16.3133">
        <ele>42.172467</ele>
        <time>2024-07-28T14:52:18.658Z</time>
      </trkpt>
      <trkpt lat="54.33257" lon="16.31338">
        <ele>42.342005</ele>
        <time>2024-07-28T14:52:21.665Z</time>
      </trkpt>
      <trkpt lat="54.33266" lon="16.31349">
        <ele>42.530145</ele>
        <time>2024-07-28T14:52:24.643Z</time>
      </trkpt>
      <trkpt lat="54.33275" lon="16.31362">
        <ele>42.728413</ele>
        <time>2024-07-28T14:52:27.631Z</time>
      </trkpt>
      <trkpt lat="54.33284" lon="16.31375">
        <ele>42.925363</ele>
        <time>2024-07-28T14:52:30.634Z</time>
      </trkpt>
      <trkpt lat="54.33293" lon="16.31388">
        <ele>43.117278</ele>
        <time>2024-07-28T14:52:33.640Z</time>
      </trkpt>
      <trkpt lat="54.33304" lon="16.31398">
        <ele>43.164723</ele>
        <time>2024-07-28T14:52:36.649Z</time>
      </trkpt>
      <trkpt lat="54.33314" lon="16.31404">
        <ele>43.175005</ele>
        <time>2024-07-28T14:52:39.640Z</time>
      </trkpt>
      <trkpt lat="54.33324" lon="16.3141">
        <ele>43.185111</ele>
        <time>2024-07-28T14:52:42.657Z</time>
      </trkpt>
      <trkpt lat="54.33335" lon="16.31418">
        <ele>43.195916</ele>
        <time>2024-07-28T14:52:45.647Z</time>
      </trkpt>
      <trkpt lat="54.33345" lon="16.31428">
        <ele>43.206799</ele>
        <time>2024-07-28T14:52:48.633Z</time>
      </trkpt>
      <trkpt lat="54.33355" lon="16.3144">
        <ele>43.218283</ele>
        <time>2024-07-28T14:52:51.653Z</time>
      </trkpt>
      <trkpt lat="54.33365" lon="16.31451">
        <ele>43.229592</ele>
        <time>2024-07-28T14:52:54.652Z</time>
      </trkpt>
      <trkpt lat="54.33375" lon="16.31462">
        <ele>43.240871</ele>
        <time>2024-07-28T14:52:57.652Z</time>
      </trkpt>
      <trkpt lat="54.33384" lon="16.31473">
        <ele>43.251085</ele>
        <time>2024-07-28T14:53:00.668Z</time>
      </trkpt>
      <trkpt lat="54.33395" lon="16.31482">
        <ele>43.26273</ele>
        <time>2024-07-28T14:53:03.665Z</time>
      </trkpt>
      <trkpt lat="54.33406" lon="16.31491">
        <ele>43.274225</ele>
        <time>2024-07-28T14:53:06.651Z</time>
      </trkpt>
      <trkpt lat="54.33424" lon="16.31503">
        <ele>43.292209</ele>
        <time>2024-07-28T14:53:36.646Z</time>
      </trkpt>
      <trkpt lat="54.33433" lon="16.31508">
        <ele>43.30077</ele>
        <time>2024-07-28T14:53:39.639Z</time>
      </trkpt>
      <trkpt lat="54.33443" lon="16.31515">
        <ele>43.310867</ele>
        <time>2024-07-28T14:53:42.647Z</time>
      </trkpt>
      <trkpt lat="54.33454" lon="16.31523">
        <ele>43.322105</ele>
        <time>2024-07-28T14:53:45.648Z</time>
      </trkpt>
      <trkpt lat="54.33465" lon="16.31532">
        <ele>43.178745</ele>
        <time>2024-07-28T14:53:48.668Z</time>
      </trkpt>
      <trkpt lat="54.33474" lon="16.31537">
        <ele>43.043274</ele>
        <time>2024-07-28T14:53:50.627Z</time>
      </trkpt>
      <trkpt lat="54.33483" lon="16.31543">
        <ele>42.905932</ele>
        <time>2024-07-28T14:53:52.659Z</time>
      </trkpt>
      <trkpt lat="54.33492" lon="16.31548">
        <ele>42.763182</ele>
        <time>2024-07-28T14:53:54.630Z</time>
      </trkpt>
      <trkpt lat="54.33502" lon="16.31554">
        <ele>42.620717</ele>
        <time>2024-07-28T14:53:56.650Z</time>
      </trkpt>
      <trkpt lat="54.3351" lon="16.3156">
        <ele>42.484251</ele>
        <time>2024-07-28T14:53:58.635Z</time>
      </trkpt>
      <trkpt lat="54.33519" lon="16.31565">
        <ele>42.350946</ele>
        <time>2024-07-28T14:54:00.630Z</time>
      </trkpt>
      <trkpt lat="54.33528" lon="16.31571">
        <ele>42.211481</ele>
        <time>2024-07-28T14:54:02.659Z</time>
      </trkpt>
      <trkpt lat="54.33537" lon="16.31577">
        <ele>42.069602</ele>
        <time>2024-07-28T14:54:04.645Z</time>
      </trkpt>
      <trkpt lat="54.33547" lon="16.31582">
        <ele>41.927879</ele>
        <time>2024-07-28T14:54:06.659Z</time>
      </trkpt>
      <trkpt lat="54.33556" lon="16.31586">
        <ele>41.792365</ele>
        <time>2024-07-28T14:54:08.639Z</time>
      </trkpt>
      <trkpt lat="54.33565" lon="16.31591">
        <ele>41.655026</ele>
        <time>2024-07-28T14:54:10.661Z</time>
      </trkpt>
      <trkpt lat="54.33574" lon="16.31597">
        <ele>41.514984</ele>
        <time>2024-07-28T14:54:12.646Z</time>
      </trkpt>
      <trkpt lat="54.33583" lon="16.31603">
        <ele>41.372394</ele>
        <time>2024-07-28T14:54:14.649Z</time>
      </trkpt>
      <trkpt lat="54.33592" lon="16.31609">
        <ele>41.23041</ele>
        <time>2024-07-28T14:54:16.660Z</time>
      </trkpt>
      <trkpt lat="54.33602" lon="16.31616">
        <ele>41.085223</ele>
        <time>2024-07-28T14:54:18.652Z</time>
      </trkpt>
      <trkpt lat="54.3361" lon="16.31623">
        <ele>40.945138</ele>
        <time>2024-07-28T14:54:20.651Z</time>
      </trkpt>
      <trkpt lat="54.33619" lon="16.31631">
        <ele>40.803758</ele>
        <time>2024-07-28T14:54:22.638Z</time>
      </trkpt>
      <trkpt lat="54.33628" lon="16.31639">
        <ele>40.676561</ele>
        <time>2024-07-28T14:54:24.636Z</time>
      </trkpt>
      <trkpt lat="54.33637" lon="16.31646">
        <ele>40.559997</ele>
        <time>2024-07-28T14:54:26.651Z</time>
      </trkpt>
      <trkpt lat="54.33646" lon="16.31655">
        <ele>40.44178</ele>
        <time>2024-07-28T14:54:28.639Z</time>
      </trkpt>
      <trkpt lat="54.33656" lon="16.31663">
        <ele>40.319938</ele>
        <time>2024-07-28T14:54:30.648Z</time>
      </trkpt>
      <trkpt lat="54.33665" lon="16.31672">
        <ele>40.202432</ele>
        <time>2024-07-28T14:54:32.654Z</time>
      </trkpt>
      <trkpt lat="54.33674" lon="16.31681">
        <ele>40.080327</ele>
        <time>2024-07-28T14:54:34.667Z</time>
      </trkpt>
      <trkpt lat="54.33683" lon="16.3169">
        <ele>39.960845</ele>
        <time>2024-07-28T14:54:36.649Z</time>
      </trkpt>
      <trkpt lat="54.33693" lon="16.31699">
        <ele>39.837295</ele>
        <time>2024-07-28T14:54:38.653Z</time>
      </trkpt>
      <trkpt lat="54.33703" lon="16.31708">
        <ele>39.712883</ele>
        <time>2024-07-28T14:54:40.633Z</time>
      </trkpt>
      <trkpt lat="54.33712" lon="16.31717">
        <ele>39.588484</ele>
        <time>2024-07-28T14:54:42.630Z</time>
      </trkpt>
      <trkpt lat="54.33722" lon="16.31726">
        <ele>39.461767</ele>
        <time>2024-07-28T14:54:44.643Z</time>
      </trkpt>
      <trkpt lat="54.33732" lon="16.31736">
        <ele>39.330471</ele>
        <time>2024-07-28T14:54:46.650Z</time>
      </trkpt>
      <trkpt lat="54.33742" lon="16.31746">
        <ele>39.202104</ele>
        <time>2024-07-28T14:54:48.637Z</time>
      </trkpt>
      <trkpt lat="54.33751" lon="16.31757">
        <ele>39.075451</ele>
        <time>2024-07-28T14:54:50.656Z</time>
      </trkpt>
      <trkpt lat="54.3376" lon="16.31767">
        <ele>38.948055</ele>
        <time>2024-07-28T14:54:52.635Z</time>
      </trkpt>
      <trkpt lat="54.33771" lon="16.31776">
        <ele>38.817401</ele>
        <time>2024-07-28T14:54:54.649Z</time>
      </trkpt>
      <trkpt lat="54.33781" lon="16.31786">
        <ele>38.686001</ele>
        <time>2024-07-28T14:54:56.656Z</time>
      </trkpt>
      <trkpt lat="54.33791" lon="16.31796">
        <ele>38.599585</ele>
        <time>2024-07-28T14:54:58.650Z</time>
      </trkpt>
      <trkpt lat="54.33801" lon="16.31805">
        <ele>38.515947</ele>
        <time>2024-07-28T14:55:00.650Z</time>
      </trkpt>
      <trkpt lat="54.33811" lon="16.31815">
        <ele>38.430817</ele>
        <time>2024-07-28T14:55:02.664Z</time>
      </trkpt>
      <trkpt lat="54.33821" lon="16.31824">
        <ele>38.345804</ele>
        <time>2024-07-28T14:55:04.653Z</time>
      </trkpt>
      <trkpt lat="54.33831" lon="16.31834">
        <ele>38.261498</ele>
        <time>2024-07-28T14:55:06.645Z</time>
      </trkpt>
      <trkpt lat="54.33842" lon="16.31843">
        <ele>38.175082</ele>
        <time>2024-07-28T14:55:08.664Z</time>
      </trkpt>
      <trkpt lat="54.33852" lon="16.31853">
        <ele>38.091011</ele>
        <time>2024-07-28T14:55:10.637Z</time>
      </trkpt>
      <trkpt lat="54.33862" lon="16.31862">
        <ele>38.006941</ele>
        <time>2024-07-28T14:55:12.643Z</time>
      </trkpt>
      <trkpt lat="54.33872" lon="16.31872">
        <ele>37.921376</ele>
        <time>2024-07-28T14:55:14.662Z</time>
      </trkpt>
      <trkpt lat="54.33882" lon="16.31882">
        <ele>37.837072</ele>
        <time>2024-07-28T14:55:16.650Z</time>
      </trkpt>
      <trkpt lat="54.33892" lon="16.31892">
        <ele>37.751268</ele>
        <time>2024-07-28T14:55:18.652Z</time>
      </trkpt>
      <trkpt lat="54.33902" lon="16.31902">
        <ele>37.666741</ele>
        <time>2024-07-28T14:55:20.653Z</time>
      </trkpt>
      <trkpt lat="54.33912" lon="16.31911">
        <ele>37.584988</ele>
        <time>2024-07-28T14:55:22.652Z</time>
      </trkpt>
      <trkpt lat="54.33922" lon="16.3192">
        <ele>37.501085</ele>
        <time>2024-07-28T14:55:24.666Z</time>
      </trkpt>
      <trkpt lat="54.33932" lon="16.31929">
        <ele>37.415027</ele>
        <time>2024-07-28T14:55:26.663Z</time>
      </trkpt>
      <trkpt lat="54.33942" lon="16.31939">
        <ele>37.329795</ele>
        <time>2024-07-28T14:55:28.656Z</time>
      </trkpt>
      <trkpt lat="54.33952" lon="16.31948">
        <ele>37.235447</ele>
        <time>2024-07-28T14:55:30.652Z</time>
      </trkpt>
      <trkpt lat="54.33961" lon="16.31957">
        <ele>37.144152</ele>
        <time>2024-07-28T14:55:32.672Z</time>
      </trkpt>
      <trkpt lat="54.33971" lon="16.31966">
        <ele>37.058612</ele>
        <time>2024-07-28T14:55:34.653Z</time>
      </trkpt>
      <trkpt lat="54.33979" lon="16.31975">
        <ele>36.973794</ele>
        <time>2024-07-28T14:55:36.644Z</time>
      </trkpt>
      <trkpt lat="54.33989" lon="16.31984">
        <ele>36.885881</ele>
        <time>2024-07-28T14:55:38.650Z</time>
      </trkpt>
      <trkpt lat="54.33998" lon="16.31992">
        <ele>36.799122</ele>
        <time>2024-07-28T14:55:40.651Z</time>
      </trkpt>
      <trkpt lat="54.34008" lon="16.32001">
        <ele>36.708326</ele>
        <time>2024-07-28T14:55:42.644Z</time>
      </trkpt>
      <trkpt lat="54.34017" lon="16.32012">
        <ele>36.614653</ele>
        <time>2024-07-28T14:55:44.648Z</time>
      </trkpt>
      <trkpt lat="54.34027" lon="16.32021">
        <ele>36.521953</ele>
        <time>2024-07-28T14:55:46.653Z</time>
      </trkpt>
      <trkpt lat="54.34038" lon="16.3203">
        <ele>36.424489</ele>
        <time>2024-07-28T14:55:48.637Z</time>
      </trkpt>
      <trkpt lat="54.34048" lon="16.3204">
        <ele>36.329906</ele>
        <time>2024-07-28T14:55:50.646Z</time>
      </trkpt>
      <trkpt lat="54.34058" lon="16.32049">
        <ele>36.237928</ele>
        <time>2024-07-28T14:55:52.650Z</time>
      </trkpt>
      <trkpt lat="54.34067" lon="16.32059">
        <ele>36.143822</ele>
        <time>2024-07-28T14:55:54.663Z</time>
      </trkpt>
      <trkpt lat="54.34077" lon="16.32068">
        <ele>36.051845</ele>
        <time>2024-07-28T14:55:56.648Z</time>
      </trkpt>
      <trkpt lat="54.34087" lon="16.32078">
        <ele>35.961789</ele>
        <time>2024-07-28T14:55:58.663Z</time>
      </trkpt>
      <trkpt lat="54.34097" lon="16.32087">
        <ele>35.877229</ele>
        <time>2024-07-28T14:56:00.658Z</time>
      </trkpt>
      <trkpt lat="54.34106" lon="16.32096">
        <ele>35.826651</ele>
        <time>2024-07-28T14:56:02.636Z</time>
      </trkpt>
      <trkpt lat="54.34116" lon="16.32105">
        <ele>35.776213</ele>
        <time>2024-07-28T14:56:04.653Z</time>
      </trkpt>
      <trkpt lat="54.34125" lon="16.32114">
        <ele>35.727299</ele>
        <time>2024-07-28T14:56:06.652Z</time>
      </trkpt>
      <trkpt lat="54.34135" lon="16.32123">
        <ele>35.676469</ele>
        <time>2024-07-28T14:56:08.669Z</time>
      </trkpt>
      <trkpt lat="54.34144" lon="16.32132">
        <ele>35.627882</ele>
        <time>2024-07-28T14:56:10.666Z</time>
      </trkpt>
      <trkpt lat="54.34153" lon="16.32141">
        <ele>35.582183</ele>
        <time>2024-07-28T14:56:12.654Z</time>
      </trkpt>
      <trkpt lat="54.34163" lon="16.3215">
        <ele>35.533554</ele>
        <time>2024-07-28T14:56:14.652Z</time>
      </trkpt>
      <trkpt lat="54.34171" lon="16.32159">
        <ele>35.487709</ele>
        <time>2024-07-28T14:56:16.653Z</time>
      </trkpt>
      <trkpt lat="54.34179" lon="16.3217">
        <ele>35.441552</ele>
        <time>2024-07-28T14:56:18.649Z</time>
      </trkpt>
      <trkpt lat="54.34186" lon="16.32181">
        <ele>35.396998</ele>
        <time>2024-07-28T14:56:20.666Z</time>
      </trkpt>
      <trkpt lat="54.34193" lon="16.32193">
        <ele>35.353497</ele>
        <time>2024-07-28T14:56:22.649Z</time>
      </trkpt>
      <trkpt lat="54.342" lon="16.32205">
        <ele>35.307563</ele>
        <time>2024-07-28T14:56:24.647Z</time>
      </trkpt>
      <trkpt lat="54.34206" lon="16.32217">
        <ele>35.263611</ele>
        <time>2024-07-28T14:56:26.633Z</time>
      </trkpt>
      <trkpt lat="54.34213" lon="16.32229">
        <ele>35.220472</ele>
        <time>2024-07-28T14:56:28.661Z</time>
      </trkpt>
      <trkpt lat="54.3422" lon="16.32242">
        <ele>35.17456</ele>
        <time>2024-07-28T14:56:30.639Z</time>
      </trkpt>
      <trkpt lat="54.34226" lon="16.32254">
        <ele>35.130033</ele>
        <time>2024-07-28T14:56:32.640Z</time>
      </trkpt>
      <trkpt lat="54.34233" lon="16.32267">
        <ele>35.084808</ele>
        <time>2024-07-28T14:56:34.649Z</time>
      </trkpt>
      <trkpt lat="54.34239" lon="16.32281">
        <ele>35.078445</ele>
        <time>2024-07-28T14:56:36.649Z</time>
      </trkpt>
      <trkpt lat="54.34245" lon="16.32296">
        <ele>35.09683</ele>
        <time>2024-07-28T14:56:38.666Z</time>
      </trkpt>
      <trkpt lat="54.34251" lon="16.32312">
        <ele>35.11541</ele>
        <time>2024-07-28T14:56:40.651Z</time>
      </trkpt>
      <trkpt lat="54.34256" lon="16.32329">
        <ele>35.134027</ele>
        <time>2024-07-28T14:56:42.640Z</time>
      </trkpt>
      <trkpt lat="54.3426" lon="16.32347">
        <ele>35.152563</ele>
        <time>2024-07-28T14:56:44.645Z</time>
      </trkpt>
      <trkpt lat="54.34263" lon="16.32365">
        <ele>35.171315</ele>
        <time>2024-07-28T14:56:46.644Z</time>
      </trkpt>
      <trkpt lat="54.34267" lon="16.32383">
        <ele>35.190456</ele>
        <time>2024-07-28T14:56:48.636Z</time>
      </trkpt>
      <trkpt lat="54.3427" lon="16.32401">
        <ele>35.208978</ele>
        <time>2024-07-28T14:56:50.665Z</time>
      </trkpt>
      <trkpt lat="54.34273" lon="16.32419">
        <ele>35.22792</ele>
        <time>2024-07-28T14:56:52.648Z</time>
      </trkpt>
      <trkpt lat="54.34277" lon="16.32438">
        <ele>35.247908</ele>
        <time>2024-07-28T14:56:54.654Z</time>
      </trkpt>
      <trkpt lat="54.3428" lon="16.32457">
        <ele>35.26732</ele>
        <time>2024-07-28T14:56:56.655Z</time>
      </trkpt>
      <trkpt lat="54.34283" lon="16.32476">
        <ele>35.287255</ele>
        <time>2024-07-28T14:56:58.659Z</time>
      </trkpt>
      <trkpt lat="54.34286" lon="16.32495">
        <ele>35.306581</ele>
        <time>2024-07-28T14:57:00.642Z</time>
      </trkpt>
      <trkpt lat="54.3429" lon="16.32514">
        <ele>35.32602</ele>
        <time>2024-07-28T14:57:02.659Z</time>
      </trkpt>
      <trkpt lat="54.34294" lon="16.32531">
        <ele>35.344372</ele>
        <time>2024-07-28T14:57:04.668Z</time>
      </trkpt>
      <trkpt lat="54.34298" lon="16.32549">
        <ele>35.363989</ele>
        <time>2024-07-28T14:57:06.656Z</time>
      </trkpt>
      <trkpt lat="54.34303" lon="16.32567">
        <ele>35.356314</ele>
        <time>2024-07-28T14:57:08.666Z</time>
      </trkpt>
      <trkpt lat="54.34308" lon="16.32584">
        <ele>35.324594</ele>
        <time>2024-07-28T14:57:10.654Z</time>
      </trkpt>
      <trkpt lat="54.34314" lon="16.32602">
        <ele>35.291633</ele>
        <time>2024-07-28T14:57:12.648Z</time>
      </trkpt>
      <trkpt lat="54.34321" lon="16.32619">
        <ele>35.257831</ele>
        <time>2024-07-28T14:57:14.649Z</time>
      </trkpt>
      <trkpt lat="54.34328" lon="16.32637">
        <ele>35.223723</ele>
        <time>2024-07-28T14:57:16.656Z</time>
      </trkpt>
      <trkpt lat="54.34334" lon="16.32654">
        <ele>35.189625</ele>
        <time>2024-07-28T14:57:18.653Z</time>
      </trkpt>
      <trkpt lat="54.3434" lon="16.32671">
        <ele>35.157227</ele>
        <time>2024-07-28T14:57:20.653Z</time>
      </trkpt>
      <trkpt lat="54.34347" lon="16.32688">
        <ele>35.123905</ele>
        <time>2024-07-28T14:57:22.654Z</time>
      </trkpt>
      <trkpt lat="54.34353" lon="16.32704">
        <ele>35.092886</ele>
        <time>2024-07-28T14:57:24.649Z</time>
      </trkpt>
      <trkpt lat="54.34359" lon="16.32721">
        <ele>35.061604</ele>
        <time>2024-07-28T14:57:26.639Z</time>
      </trkpt>
      <trkpt lat="54.34365" lon="16.32736">
        <ele>35.030635</ele>
        <time>2024-07-28T14:57:28.657Z</time>
      </trkpt>
      <trkpt lat="54.34372" lon="16.32751">
        <ele>34.9999</ele>
        <time>2024-07-28T14:57:30.673Z</time>
      </trkpt>
      <trkpt lat="54.34379" lon="16.32767">
        <ele>34.968361</ele>
        <time>2024-07-28T14:57:32.647Z</time>
      </trkpt>
      <trkpt lat="54.34385" lon="16.32783">
        <ele>34.9369</ele>
        <time>2024-07-28T14:57:34.662Z</time>
      </trkpt>
      <trkpt lat="54.34391" lon="16.32799">
        <ele>34.906156</ele>
        <time>2024-07-28T14:57:36.659Z</time>
      </trkpt>
      <trkpt lat="54.34398" lon="16.32814">
        <ele>34.872758</ele>
        <time>2024-07-28T14:57:38.664Z</time>
      </trkpt>
      <trkpt lat="54.34406" lon="16.3283">
        <ele>34.886053</ele>
        <time>2024-07-28T14:57:40.642Z</time>
      </trkpt>
      <trkpt lat="54.34414" lon="16.32845">
        <ele>34.90362</ele>
        <time>2024-07-28T14:57:42.660Z</time>
      </trkpt>
      <trkpt lat="54.34421" lon="16.32861">
        <ele>34.920808</ele>
        <time>2024-07-28T14:57:44.648Z</time>
      </trkpt>
      <trkpt lat="54.34429" lon="16.32876">
        <ele>34.937836</ele>
        <time>2024-07-28T14:57:46.641Z</time>
      </trkpt>
      <trkpt lat="54.34437" lon="16.32891">
        <ele>34.955218</ele>
        <time>2024-07-28T14:57:48.658Z</time>
      </trkpt>
      <trkpt lat="54.34445" lon="16.32905">
        <ele>34.971791</ele>
        <time>2024-07-28T14:57:50.668Z</time>
      </trkpt>
      <trkpt lat="54.34452" lon="16.3292">
        <ele>34.988138</ele>
        <time>2024-07-28T14:57:52.653Z</time>
      </trkpt>
      <trkpt lat="54.34459" lon="16.32934">
        <ele>35.003811</ele>
        <time>2024-07-28T14:57:54.665Z</time>
      </trkpt>
      <trkpt lat="54.34465" lon="16.32948">
        <ele>35.019148</ele>
        <time>2024-07-28T14:57:56.654Z</time>
      </trkpt>
      <trkpt lat="54.34471" lon="16.32962">
        <ele>35.034364</ele>
        <time>2024-07-28T14:57:58.650Z</time>
      </trkpt>
      <trkpt lat="54.34477" lon="16.32978">
        <ele>35.050097</ele>
        <time>2024-07-28T14:58:00.663Z</time>
      </trkpt>
      <trkpt lat="54.34483" lon="16.32993">
        <ele>35.065384</ele>
        <time>2024-07-28T14:58:02.658Z</time>
      </trkpt>
      <trkpt lat="54.34491" lon="16.33006">
        <ele>35.081572</ele>
        <time>2024-07-28T14:58:04.649Z</time>
      </trkpt>
      <trkpt lat="54.34499" lon="16.33017">
        <ele>35.097355</ele>
        <time>2024-07-28T14:58:06.667Z</time>
      </trkpt>
      <trkpt lat="54.34507" lon="16.3303">
        <ele>35.11292</ele>
        <time>2024-07-28T14:58:08.659Z</time>
      </trkpt>
      <trkpt lat="54.34515" lon="16.33042">
        <ele>35.128924</ele>
        <time>2024-07-28T14:58:10.669Z</time>
      </trkpt>
      <trkpt lat="54.34524" lon="16.33053">
        <ele>35.111893</ele>
        <time>2024-07-28T14:58:12.655Z</time>
      </trkpt>
      <trkpt lat="54.34533" lon="16.33064">
        <ele>35.079923</ele>
        <time>2024-07-28T14:58:14.664Z</time>
      </trkpt>
      <trkpt lat="54.34543" lon="16.33073">
        <ele>35.047402</ele>
        <time>2024-07-28T14:58:16.664Z</time>
      </trkpt>
      <trkpt lat="54.34553" lon="16.33083">
        <ele>35.015129</ele>
        <time>2024-07-28T14:58:18.654Z</time>
      </trkpt>
      <trkpt lat="54.34563" lon="16.33091">
        <ele>34.982867</ele>
        <time>2024-07-28T14:58:20.660Z</time>
      </trkpt>
      <trkpt lat="54.34573" lon="16.33099">
        <ele>34.950504</ele>
        <time>2024-07-28T14:58:22.655Z</time>
      </trkpt>
      <trkpt lat="54.34584" lon="16.33104">
        <ele>34.91835</ele>
        <time>2024-07-28T14:58:24.663Z</time>
      </trkpt>
      <trkpt lat="54.34595" lon="16.3311">
        <ele>34.885173</ele>
        <time>2024-07-28T14:58:26.650Z</time>
      </trkpt>
      <trkpt lat="54.34606" lon="16.33116">
        <ele>34.852165</ele>
        <time>2024-07-28T14:58:28.654Z</time>
      </trkpt>
      <trkpt lat="54.34616" lon="16.33122">
        <ele>34.820354</ele>
        <time>2024-07-28T14:58:30.657Z</time>
      </trkpt>
      <trkpt lat="54.34627" lon="16.33127">
        <ele>34.788798</ele>
        <time>2024-07-28T14:58:32.660Z</time>
      </trkpt>
      <trkpt lat="54.34637" lon="16.33133">
        <ele>34.756868</ele>
        <time>2024-07-28T14:58:34.653Z</time>
      </trkpt>
      <trkpt lat="54.34648" lon="16.33138">
        <ele>34.724625</ele>
        <time>2024-07-28T14:58:36.642Z</time>
      </trkpt>
      <trkpt lat="54.34659" lon="16.33144">
        <ele>34.692659</ele>
        <time>2024-07-28T14:58:38.649Z</time>
      </trkpt>
      <trkpt lat="54.3467" lon="16.33149">
        <ele>34.660779</ele>
        <time>2024-07-28T14:58:40.667Z</time>
      </trkpt>
      <trkpt lat="54.3468" lon="16.33154">
        <ele>34.628625</ele>
        <time>2024-07-28T14:58:42.640Z</time>
      </trkpt>
      <trkpt lat="54.34691" lon="16.33161">
        <ele>34.632425</ele>
        <time>2024-07-28T14:58:44.669Z</time>
      </trkpt>
      <trkpt lat="54.34701" lon="16.33166">
        <ele>34.658377</ele>
        <time>2024-07-28T14:58:46.650Z</time>
      </trkpt>
      <trkpt lat="54.34711" lon="16.33172">
        <ele>34.683481</ele>
        <time>2024-07-28T14:58:48.633Z</time>
      </trkpt>
      <trkpt lat="54.34721" lon="16.33177">
        <ele>34.708619</ele>
        <time>2024-07-28T14:58:50.651Z</time>
      </trkpt>
      <trkpt lat="54.3473" lon="16.33182">
        <ele>34.732809</ele>
        <time>2024-07-28T14:58:52.651Z</time>
      </trkpt>
      <trkpt lat="54.3474" lon="16.33188">
        <ele>34.757547</ele>
        <time>2024-07-28T14:58:54.660Z</time>
      </trkpt>
      <trkpt lat="54.34749" lon="16.33193">
        <ele>34.781104</ele>
        <time>2024-07-28T14:58:56.664Z</time>
      </trkpt>
      <trkpt lat="54.34759" lon="16.33198">
        <ele>34.805586</ele>
        <time>2024-07-28T14:58:58.632Z</time>
      </trkpt>
      <trkpt lat="54.34768" lon="16.33203">
        <ele>34.829458</ele>
        <time>2024-07-28T14:59:00.663Z</time>
      </trkpt>
      <trkpt lat="54.34778" lon="16.33208">
        <ele>34.853058</ele>
        <time>2024-07-28T14:59:02.665Z</time>
      </trkpt>
      <trkpt lat="54.34786" lon="16.33212">
        <ele>34.875446</ele>
        <time>2024-07-28T14:59:04.673Z</time>
      </trkpt>
      <trkpt lat="54.34795" lon="16.33217">
        <ele>34.897562</ele>
        <time>2024-07-28T14:59:06.642Z</time>
      </trkpt>
      <trkpt lat="54.34805" lon="16.33221">
        <ele>34.920881</ele>
        <time>2024-07-28T14:59:08.646Z</time>
      </trkpt>
      <trkpt lat="54.34813" lon="16.33226">
        <ele>34.943519</ele>
        <time>2024-07-28T14:59:10.636Z</time>
      </trkpt>
      <trkpt lat="54.34823" lon="16.33231">
        <ele>34.966913</ele>
        <time>2024-07-28T14:59:12.650Z</time>
      </trkpt>
      <trkpt lat="54.34831" lon="16.33235">
        <ele>34.988798</ele>
        <time>2024-07-28T14:59:14.652Z</time>
      </trkpt>
      <trkpt lat="54.3484" lon="16.33239">
        <ele>35.01127</ele>
        <time>2024-07-28T14:59:16.651Z</time>
      </trkpt>
      <trkpt lat="54.34853" lon="16.33246">
        <ele>35.043884</ele>
        <time>2024-07-28T14:59:19.648Z</time>
      </trkpt>
      <trkpt lat="54.34862" lon="16.3325">
        <ele>35.063775</ele>
        <time>2024-07-28T14:59:21.658Z</time>
      </trkpt>
      <trkpt lat="54.34871" lon="16.33254">
        <ele>35.082514</ele>
        <time>2024-07-28T14:59:23.651Z</time>
      </trkpt>
      <trkpt lat="54.34881" lon="16.33257">
        <ele>35.101084</ele>
        <time>2024-07-28T14:59:25.632Z</time>
      </trkpt>
      <trkpt lat="54.3489" lon="16.33258">
        <ele>35.119315</ele>
        <time>2024-07-28T14:59:27.653Z</time>
      </trkpt>
      <trkpt lat="54.34899" lon="16.33262">
        <ele>35.138034</ele>
        <time>2024-07-28T14:59:29.647Z</time>
      </trkpt>
      <trkpt lat="54.34908" lon="16.33263">
        <ele>35.156885</ele>
        <time>2024-07-28T14:59:31.656Z</time>
      </trkpt>
      <trkpt lat="54.34918" lon="16.33264">
        <ele>35.175828</ele>
        <time>2024-07-28T14:59:33.653Z</time>
      </trkpt>
      <trkpt lat="54.34927" lon="16.33266">
        <ele>35.195089</ele>
        <time>2024-07-28T14:59:35.649Z</time>
      </trkpt>
      <trkpt lat="54.34937" lon="16.33268">
        <ele>35.213704</ele>
        <time>2024-07-28T14:59:37.648Z</time>
      </trkpt>
      <trkpt lat="54.34946" lon="16.33268">
        <ele>35.232628</ele>
        <time>2024-07-28T14:59:39.664Z</time>
      </trkpt>
      <trkpt lat="54.34956" lon="16.33269">
        <ele>35.251372</ele>
        <time>2024-07-28T14:59:41.633Z</time>
      </trkpt>
      <trkpt lat="54.34965" lon="16.3327">
        <ele>35.270344</ele>
        <time>2024-07-28T14:59:43.653Z</time>
      </trkpt>
      <trkpt lat="54.34975" lon="16.33271">
        <ele>35.290269</ele>
        <time>2024-07-28T14:59:45.660Z</time>
      </trkpt>
      <trkpt lat="54.34985" lon="16.33271">
        <ele>35.3096</ele>
        <time>2024-07-28T14:59:47.658Z</time>
      </trkpt>
      <trkpt lat="54.34994" lon="16.33273">
        <ele>35.328382</ele>
        <time>2024-07-28T14:59:49.652Z</time>
      </trkpt>
      <trkpt lat="54.35004" lon="16.33274">
        <ele>35.346948</ele>
        <time>2024-07-28T14:59:51.646Z</time>
      </trkpt>
      <trkpt lat="54.35013" lon="16.33275">
        <ele>35.365334</ele>
        <time>2024-07-28T14:59:53.629Z</time>
      </trkpt>
      <trkpt lat="54.35022" lon="16.33276">
        <ele>35.384711</ele>
        <time>2024-07-28T14:59:55.653Z</time>
      </trkpt>
      <trkpt lat="54.35032" lon="16.33279">
        <ele>35.403085</ele>
        <time>2024-07-28T14:59:57.638Z</time>
      </trkpt>
      <trkpt lat="54.35044" lon="16.33283">
        <ele>35.487928</ele>
        <time>2024-07-28T15:00:00.647Z</time>
      </trkpt>
      <trkpt lat="54.35057" lon="16.33289">
        <ele>35.597841</ele>
        <time>2024-07-28T15:00:03.651Z</time>
      </trkpt>
      <trkpt lat="54.35069" lon="16.33295">
        <ele>35.70351</ele>
        <time>2024-07-28T15:00:06.661Z</time>
      </trkpt>
      <trkpt lat="54.35081" lon="16.33301">
        <ele>35.799072</ele>
        <time>2024-07-28T15:00:09.652Z</time>
      </trkpt>
      <trkpt lat="54.35091" lon="16.33305">
        <ele>35.889681</ele>
        <time>2024-07-28T15:00:12.647Z</time>
      </trkpt>
      <trkpt lat="54.35102" lon="16.33309">
        <ele>35.981518</ele>
        <time>2024-07-28T15:00:15.648Z</time>
      </trkpt>
      <trkpt lat="54.35114" lon="16.33314">
        <ele>36.079611</ele>
        <time>2024-07-28T15:00:18.656Z</time>
      </trkpt>
      <trkpt lat="54.35126" lon="16.33319">
        <ele>36.180767</ele>
        <time>2024-07-28T15:00:21.649Z</time>
      </trkpt>
      <trkpt lat="54.35138" lon="16.33325">
        <ele>36.285135</ele>
        <time>2024-07-28T15:00:24.637Z</time>
      </trkpt>
      <trkpt lat="54.35147" lon="16.33328">
        <ele>36.360426</ele>
        <time>2024-07-28T15:00:26.646Z</time>
      </trkpt>
      <trkpt lat="54.3516" lon="16.33333">
        <ele>36.468068</ele>
        <time>2024-07-28T15:00:29.655Z</time>
      </trkpt>
      <trkpt lat="54.35172" lon="16.33341">
        <ele>36.575486</ele>
        <time>2024-07-28T15:00:32.644Z</time>
      </trkpt>
      <trkpt lat="54.35185" lon="16.33346">
        <ele>36.677707</ele>
        <time>2024-07-28T15:00:35.631Z</time>
      </trkpt>
      <trkpt lat="54.35195" lon="16.33349">
        <ele>36.764096</ele>
        <time>2024-07-28T15:00:38.656Z</time>
      </trkpt>
      <trkpt lat="54.35206" lon="16.33351">
        <ele>36.854117</ele>
        <time>2024-07-28T15:00:41.641Z</time>
      </trkpt>
      <trkpt lat="54.35216" lon="16.33354">
        <ele>37.057822</ele>
        <time>2024-07-28T15:00:44.651Z</time>
      </trkpt>
      <trkpt lat="54.35225" lon="16.33358">
        <ele>37.302072</ele>
        <time>2024-07-28T15:00:47.638Z</time>
      </trkpt>
      <trkpt lat="54.35235" lon="16.33362">
        <ele>37.567671</ele>
        <time>2024-07-28T15:00:50.661Z</time>
      </trkpt>
      <trkpt lat="54.35245" lon="16.33366">
        <ele>37.839312</ele>
        <time>2024-07-28T15:00:53.651Z</time>
      </trkpt>
      <trkpt lat="54.35255" lon="16.33371">
        <ele>38.114643</ele>
        <time>2024-07-28T15:00:56.664Z</time>
      </trkpt>
      <trkpt lat="54.35264" lon="16.33376">
        <ele>38.380253</ele>
        <time>2024-07-28T15:00:59.650Z</time>
      </trkpt>
      <trkpt lat="54.35273" lon="16.33383">
        <ele>38.64586</ele>
        <time>2024-07-28T15:01:02.639Z</time>
      </trkpt>
      <trkpt lat="54.35282" lon="16.33391">
        <ele>38.895064</ele>
        <time>2024-07-28T15:01:05.661Z</time>
      </trkpt>
      <trkpt lat="54.35291" lon="16.334">
        <ele>39.168639</ele>
        <time>2024-07-28T15:01:08.664Z</time>
      </trkpt>
      <trkpt lat="54.35299" lon="16.33409">
        <ele>39.416975</ele>
        <time>2024-07-28T15:01:11.647Z</time>
      </trkpt>
      <trkpt lat="54.35306" lon="16.33418">
        <ele>39.658569</ele>
        <time>2024-07-28T15:01:14.664Z</time>
      </trkpt>
      <trkpt lat="54.35313" lon="16.33429">
        <ele>39.912978</ele>
        <time>2024-07-28T15:01:17.648Z</time>
      </trkpt>
      <trkpt lat="54.3532" lon="16.33439">
        <ele>40.158548</ele>
        <time>2024-07-28T15:01:20.633Z</time>
      </trkpt>
      <trkpt lat="54.35328" lon="16.33449">
        <ele>40.418308</ele>
        <time>2024-07-28T15:01:23.643Z</time>
      </trkpt>
      <trkpt lat="54.35336" lon="16.33459">
        <ele>40.665797</ele>
        <time>2024-07-28T15:01:26.644Z</time>
      </trkpt>
      <trkpt lat="54.35343" lon="16.3347">
        <ele>40.917273</ele>
        <time>2024-07-28T15:01:29.645Z</time>
      </trkpt>
      <trkpt lat="54.35352" lon="16.33482">
        <ele>41.224915</ele>
        <time>2024-07-28T15:01:33.644Z</time>
      </trkpt>
      <trkpt lat="54.35359" lon="16.33497">
        <ele>41.515227</ele>
        <time>2024-07-28T15:01:37.639Z</time>
      </trkpt>
      <trkpt lat="54.35358" lon="16.33516">
        <ele>41.61559</ele>
        <time>2024-07-28T15:01:41.643Z</time>
      </trkpt>
      <trkpt lat="54.35367" lon="16.33508">
        <ele>41.593709</ele>
        <time>2024-07-28T15:01:48.641Z</time>
      </trkpt>
      <trkpt lat="54.35377" lon="16.3349">
        <ele>41.562007</ele>
        <time>2024-07-28T15:02:56.654Z</time>
      </trkpt>
      <trkpt lat="54.35388" lon="16.33491">
        <ele>41.538507</ele>
        <time>2024-07-28T15:03:00.650Z</time>
      </trkpt>
      <trkpt lat="54.35398" lon="16.33491">
        <ele>41.517399</ele>
        <time>2024-07-28T15:03:03.640Z</time>
      </trkpt>
      <trkpt lat="54.35409" lon="16.33489">
        <ele>41.493233</ele>
        <time>2024-07-28T15:03:06.635Z</time>
      </trkpt>
      <trkpt lat="54.3542" lon="16.3349">
        <ele>41.468857</ele>
        <time>2024-07-28T15:03:09.631Z</time>
      </trkpt>
      <trkpt lat="54.35431" lon="16.3349">
        <ele>41.444304</ele>
        <time>2024-07-28T15:03:12.635Z</time>
      </trkpt>
      <trkpt lat="54.35443" lon="16.33487">
        <ele>41.418755</ele>
        <time>2024-07-28T15:03:15.644Z</time>
      </trkpt>
      <trkpt lat="54.35455" lon="16.33481">
        <ele>41.391805</ele>
        <time>2024-07-28T15:03:18.650Z</time>
      </trkpt>
      <trkpt lat="54.35467" lon="16.33475">
        <ele>41.363324</ele>
        <time>2024-07-28T15:03:21.642Z</time>
      </trkpt>
      <trkpt lat="54.3548" lon="16.33469">
        <ele>41.33459</ele>
        <time>2024-07-28T15:03:24.650Z</time>
      </trkpt>
      <trkpt lat="54.35493" lon="16.33466">
        <ele>41.306072</ele>
        <time>2024-07-28T15:03:27.639Z</time>
      </trkpt>
      <trkpt lat="54.35507" lon="16.33463">
        <ele>41.276941</ele>
        <time>2024-07-28T15:03:30.649Z</time>
      </trkpt>
      <trkpt lat="54.35516" lon="16.33463">
        <ele>41.257148</ele>
        <time>2024-07-28T15:03:32.655Z</time>
      </trkpt>
      <trkpt lat="54.35525" lon="16.33462">
        <ele>41.220846</ele>
        <time>2024-07-28T15:03:34.652Z</time>
      </trkpt>
      <trkpt lat="54.35535" lon="16.33463">
        <ele>41.030276</ele>
        <time>2024-07-28T15:03:36.634Z</time>
      </trkpt>
      <trkpt lat="54.35545" lon="16.33464">
        <ele>40.831776</ele>
        <time>2024-07-28T15:03:38.650Z</time>
      </trkpt>
      <trkpt lat="54.35554" lon="16.33464">
        <ele>40.653028</ele>
        <time>2024-07-28T15:03:40.643Z</time>
      </trkpt>
      <trkpt lat="54.35565" lon="16.33466">
        <ele>40.431203</ele>
        <time>2024-07-28T15:03:43.642Z</time>
      </trkpt>
      <trkpt lat="54.35577" lon="16.33473">
        <ele>40.201045</ele>
        <time>2024-07-28T15:03:46.636Z</time>
      </trkpt>
      <trkpt lat="54.35588" lon="16.33479">
        <ele>39.961891</ele>
        <time>2024-07-28T15:03:49.650Z</time>
      </trkpt>
      <trkpt lat="54.356" lon="16.33486">
        <ele>39.715272</ele>
        <time>2024-07-28T15:03:52.651Z</time>
      </trkpt>
      <trkpt lat="54.35612" lon="16.33494">
        <ele>39.472211</ele>
        <time>2024-07-28T15:03:55.645Z</time>
      </trkpt>
      <trkpt lat="54.35624" lon="16.335">
        <ele>39.235815</ele>
        <time>2024-07-28T15:03:58.652Z</time>
      </trkpt>
      <trkpt lat="54.35632" lon="16.33507">
        <ele>39.051316</ele>
        <time>2024-07-28T15:04:01.654Z</time>
      </trkpt>
      <trkpt lat="54.35638" lon="16.33523">
        <ele>38.843593</ele>
        <time>2024-07-28T15:04:05.644Z</time>
      </trkpt>
      <trkpt lat="54.35645" lon="16.33508">
        <ele>38.622799</ele>
        <time>2024-07-28T15:04:10.670Z</time>
      </trkpt>
      <trkpt lat="54.35656" lon="16.33504">
        <ele>38.422143</ele>
        <time>2024-07-28T15:04:13.639Z</time>
      </trkpt>
      <trkpt lat="54.35666" lon="16.33497">
        <ele>38.205639</ele>
        <time>2024-07-28T15:04:16.645Z</time>
      </trkpt>
      <trkpt lat="54.35678" lon="16.33487">
        <ele>37.94711</ele>
        <time>2024-07-28T15:04:19.650Z</time>
      </trkpt>
      <trkpt lat="54.35686" lon="16.3348">
        <ele>37.767612</ele>
        <time>2024-07-28T15:04:21.654Z</time>
      </trkpt>
      <trkpt lat="54.35695" lon="16.33473">
        <ele>37.710369</ele>
        <time>2024-07-28T15:04:23.654Z</time>
      </trkpt>
      <trkpt lat="54.35703" lon="16.33465">
        <ele>37.669408</ele>
        <time>2024-07-28T15:04:25.653Z</time>
      </trkpt>
      <trkpt lat="54.35712" lon="16.33457">
        <ele>37.629485</ele>
        <time>2024-07-28T15:04:27.651Z</time>
      </trkpt>
      <trkpt lat="54.35721" lon="16.3345">
        <ele>37.586224</ele>
        <time>2024-07-28T15:04:29.644Z</time>
      </trkpt>
      <trkpt lat="54.35731" lon="16.33442">
        <ele>37.543492</ele>
        <time>2024-07-28T15:04:31.650Z</time>
      </trkpt>
      <trkpt lat="54.3574" lon="16.33436">
        <ele>37.500485</ele>
        <time>2024-07-28T15:04:33.641Z</time>
      </trkpt>
      <trkpt lat="54.35751" lon="16.33431">
        <ele>37.456634</ele>
        <time>2024-07-28T15:04:35.632Z</time>
      </trkpt>
      <trkpt lat="54.3576" lon="16.33426">
        <ele>37.414323</ele>
        <time>2024-07-28T15:04:37.651Z</time>
      </trkpt>
      <trkpt lat="54.3577" lon="16.33422">
        <ele>37.37183</ele>
        <time>2024-07-28T15:04:39.637Z</time>
      </trkpt>
      <trkpt lat="54.3578" lon="16.33418">
        <ele>37.329642</ele>
        <time>2024-07-28T15:04:41.641Z</time>
      </trkpt>
      <trkpt lat="54.3579" lon="16.33415">
        <ele>37.288079</ele>
        <time>2024-07-28T15:04:43.645Z</time>
      </trkpt>
      <trkpt lat="54.358" lon="16.33413">
        <ele>37.246469</ele>
        <time>2024-07-28T15:04:45.652Z</time>
      </trkpt>
      <trkpt lat="54.3581" lon="16.33412">
        <ele>37.205317</ele>
        <time>2024-07-28T15:04:47.645Z</time>
      </trkpt>
      <trkpt lat="54.3582" lon="16.3341">
        <ele>37.163625</ele>
        <time>2024-07-28T15:04:49.634Z</time>
      </trkpt>
      <trkpt lat="54.3583" lon="16.33408">
        <ele>37.123686</ele>
        <time>2024-07-28T15:04:51.658Z</time>
      </trkpt>
      <trkpt lat="54.3584" lon="16.33406">
        <ele>37.082719</ele>
        <time>2024-07-28T15:04:53.642Z</time>
      </trkpt>
      <trkpt lat="54.35849" lon="16.33404">
        <ele>37.041493</ele>
        <time>2024-07-28T15:04:55.662Z</time>
      </trkpt>
      <trkpt lat="54.3586" lon="16.33402">
        <ele>36.999353</ele>
        <time>2024-07-28T15:04:57.661Z</time>
      </trkpt>
      <trkpt lat="54.3587" lon="16.334">
        <ele>36.944681</ele>
        <time>2024-07-28T15:04:59.675Z</time>
      </trkpt>
      <trkpt lat="54.3588" lon="16.33397">
        <ele>36.891186</ele>
        <time>2024-07-28T15:05:01.647Z</time>
      </trkpt>
      <trkpt lat="54.3589" lon="16.33396">
        <ele>36.837337</ele>
        <time>2024-07-28T15:05:03.648Z</time>
      </trkpt>
      <trkpt lat="54.359" lon="16.33394">
        <ele>36.783457</ele>
        <time>2024-07-28T15:05:05.659Z</time>
      </trkpt>
      <trkpt lat="54.3591" lon="16.33391">
        <ele>36.73093</ele>
        <time>2024-07-28T15:05:07.664Z</time>
      </trkpt>
      <trkpt lat="54.35919" lon="16.3339">
        <ele>36.679127</ele>
        <time>2024-07-28T15:05:09.644Z</time>
      </trkpt>
      <trkpt lat="54.35929" lon="16.33388">
        <ele>36.625889</ele>
        <time>2024-07-28T15:05:11.648Z</time>
      </trkpt>
      <trkpt lat="54.35939" lon="16.33385">
        <ele>36.573223</ele>
        <time>2024-07-28T15:05:13.640Z</time>
      </trkpt>
      <trkpt lat="54.35949" lon="16.33383">
        <ele>36.521307</ele>
        <time>2024-07-28T15:05:15.646Z</time>
      </trkpt>
      <trkpt lat="54.35959" lon="16.3338">
        <ele>36.466446</ele>
        <time>2024-07-28T15:05:17.649Z</time>
      </trkpt>
      <trkpt lat="54.35969" lon="16.33377">
        <ele>36.414148</ele>
        <time>2024-07-28T15:05:19.651Z</time>
      </trkpt>
      <trkpt lat="54.35978" lon="16.33373">
        <ele>36.363349</ele>
        <time>2024-07-28T15:05:21.664Z</time>
      </trkpt>
      <trkpt lat="54.35987" lon="16.3337">
        <ele>36.313655</ele>
        <time>2024-07-28T15:05:23.644Z</time>
      </trkpt>
      <trkpt lat="54.35996" lon="16.33365">
        <ele>36.265105</ele>
        <time>2024-07-28T15:05:25.646Z</time>
      </trkpt>
      <trkpt lat="54.36005" lon="16.33361">
        <ele>36.21596</ele>
        <time>2024-07-28T15:05:27.649Z</time>
      </trkpt>
      <trkpt lat="54.36014" lon="16.33355">
        <ele>36.165716</ele>
        <time>2024-07-28T15:05:29.650Z</time>
      </trkpt>
      <trkpt lat="54.36022" lon="16.33349">
        <ele>36.117065</ele>
        <time>2024-07-28T15:05:31.648Z</time>
      </trkpt>
      <trkpt lat="54.36031" lon="16.33343">
        <ele>36.067314</ele>
        <time>2024-07-28T15:05:33.645Z</time>
      </trkpt>
      <trkpt lat="54.3604" lon="16.33338">
        <ele>36.037983</ele>
        <time>2024-07-28T15:05:35.647Z</time>
      </trkpt>
      <trkpt lat="54.36052" lon="16.33331">
        <ele>36.020052</ele>
        <time>2024-07-28T15:05:38.658Z</time>
      </trkpt>
      <trkpt lat="54.36064" lon="16.33323">
        <ele>36.001533</ele>
        <time>2024-07-28T15:05:41.653Z</time>
      </trkpt>
      <trkpt lat="54.36076" lon="16.33314">
        <ele>35.983428</ele>
        <time>2024-07-28T15:05:44.625Z</time>
      </trkpt>
      <trkpt lat="54.36088" lon="16.33307">
        <ele>35.965894</ele>
        <time>2024-07-28T15:05:47.662Z</time>
      </trkpt>
      <trkpt lat="54.361" lon="16.33299">
        <ele>35.947535</ele>
        <time>2024-07-28T15:05:50.664Z</time>
      </trkpt>
      <trkpt lat="54.36112" lon="16.33291">
        <ele>35.929844</ele>
        <time>2024-07-28T15:05:53.659Z</time>
      </trkpt>
      <trkpt lat="54.36124" lon="16.33283">
        <ele>35.912123</ele>
        <time>2024-07-28T15:05:56.619Z</time>
      </trkpt>
      <trkpt lat="54.36137" lon="16.33275">
        <ele>35.893209</ele>
        <time>2024-07-28T15:05:59.644Z</time>
      </trkpt>
      <trkpt lat="54.36149" lon="16.33267">
        <ele>35.874342</ele>
        <time>2024-07-28T15:06:02.667Z</time>
      </trkpt>
      <trkpt lat="54.36158" lon="16.33261">
        <ele>35.861385</ele>
        <time>2024-07-28T15:06:04.657Z</time>
      </trkpt>
      <trkpt lat="54.36166" lon="16.33255">
        <ele>35.848398</ele>
        <time>2024-07-28T15:06:06.659Z</time>
      </trkpt>
      <trkpt lat="54.36175" lon="16.3325">
        <ele>35.835717</ele>
        <time>2024-07-28T15:06:08.644Z</time>
      </trkpt>
      <trkpt lat="54.36187" lon="16.33243">
        <ele>35.816989</ele>
        <time>2024-07-28T15:06:11.636Z</time>
      </trkpt>
      <trkpt lat="54.362" lon="16.33235">
        <ele>35.798394</ele>
        <time>2024-07-28T15:06:14.634Z</time>
      </trkpt>
      <trkpt lat="54.36212" lon="16.33226">
        <ele>35.78552</ele>
        <time>2024-07-28T15:06:17.652Z</time>
      </trkpt>
      <trkpt lat="54.36225" lon="16.33218">
        <ele>35.774555</ele>
        <time>2024-07-28T15:06:20.648Z</time>
      </trkpt>
      <trkpt lat="54.36234" lon="16.33213">
        <ele>35.766962</ele>
        <time>2024-07-28T15:06:22.650Z</time>
      </trkpt>
      <trkpt lat="54.36242" lon="16.33207">
        <ele>35.759488</ele>
        <time>2024-07-28T15:06:24.645Z</time>
      </trkpt>
      <trkpt lat="54.36251" lon="16.33201">
        <ele>35.752218</ele>
        <time>2024-07-28T15:06:26.661Z</time>
      </trkpt>
      <trkpt lat="54.36259" lon="16.33196">
        <ele>35.744716</ele>
        <time>2024-07-28T15:06:28.647Z</time>
      </trkpt>
      <trkpt lat="54.36268" lon="16.3319">
        <ele>35.737239</ele>
        <time>2024-07-28T15:06:30.648Z</time>
      </trkpt>
      <trkpt lat="54.3628" lon="16.33183">
        <ele>35.726583</ele>
        <time>2024-07-28T15:06:33.646Z</time>
      </trkpt>
      <trkpt lat="54.36293" lon="16.33175">
        <ele>35.715912</ele>
        <time>2024-07-28T15:06:36.642Z</time>
      </trkpt>
      <trkpt lat="54.36305" lon="16.33167">
        <ele>35.70525</ele>
        <time>2024-07-28T15:06:39.653Z</time>
      </trkpt>
      <trkpt lat="54.36318" lon="16.33159">
        <ele>35.694534</ele>
        <time>2024-07-28T15:06:42.647Z</time>
      </trkpt>
      <trkpt lat="54.3633" lon="16.33151">
        <ele>35.683705</ele>
        <time>2024-07-28T15:06:45.645Z</time>
      </trkpt>
      <trkpt lat="54.36342" lon="16.33142">
        <ele>35.673031</ele>
        <time>2024-07-28T15:06:48.654Z</time>
      </trkpt>
      <trkpt lat="54.36351" lon="16.33138">
        <ele>35.665713</ele>
        <time>2024-07-28T15:06:50.673Z</time>
      </trkpt>
      <trkpt lat="54.36363" lon="16.33129">
        <ele>35.654797</ele>
        <time>2024-07-28T15:06:53.632Z</time>
      </trkpt>
      <trkpt lat="54.36376" lon="16.33121">
        <ele>35.667236</ele>
        <time>2024-07-28T15:06:56.641Z</time>
      </trkpt>
      <trkpt lat="54.36388" lon="16.33114">
        <ele>35.722217</ele>
        <time>2024-07-28T15:06:59.644Z</time>
      </trkpt>
      <trkpt lat="54.364" lon="16.33106">
        <ele>35.776859</ele>
        <time>2024-07-28T15:07:02.646Z</time>
      </trkpt>
      <trkpt lat="54.36411" lon="16.33099">
        <ele>35.829704</ele>
        <time>2024-07-28T15:07:05.664Z</time>
      </trkpt>
      <trkpt lat="54.36423" lon="16.33091">
        <ele>35.883075</ele>
        <time>2024-07-28T15:07:08.641Z</time>
      </trkpt>
      <trkpt lat="54.36434" lon="16.33084">
        <ele>35.934464</ele>
        <time>2024-07-28T15:07:11.654Z</time>
      </trkpt>
      <trkpt lat="54.36446" lon="16.33076">
        <ele>35.987616</ele>
        <time>2024-07-28T15:07:14.628Z</time>
      </trkpt>
      <trkpt lat="54.36457" lon="16.3307">
        <ele>36.039818</ele>
        <time>2024-07-28T15:07:17.650Z</time>
      </trkpt>
      <trkpt lat="54.36469" lon="16.33061">
        <ele>36.095829</ele>
        <time>2024-07-28T15:07:20.652Z</time>
      </trkpt>
      <trkpt lat="54.36482" lon="16.33054">
        <ele>36.152342</ele>
        <time>2024-07-28T15:07:23.647Z</time>
      </trkpt>
      <trkpt lat="54.36493" lon="16.33046">
        <ele>36.206876</ele>
        <time>2024-07-28T15:07:26.664Z</time>
      </trkpt>
      <trkpt lat="54.36504" lon="16.33039">
        <ele>36.256901</ele>
        <time>2024-07-28T15:07:29.646Z</time>
      </trkpt>
      <trkpt lat="54.36516" lon="16.33031">
        <ele>36.310732</ele>
        <time>2024-07-28T15:07:32.663Z</time>
      </trkpt>
      <trkpt lat="54.36527" lon="16.33024">
        <ele>36.36318</ele>
        <time>2024-07-28T15:07:35.651Z</time>
      </trkpt>
      <trkpt lat="54.36538" lon="16.33016">
        <ele>36.412766</ele>
        <time>2024-07-28T15:07:38.663Z</time>
      </trkpt>
      <trkpt lat="54.36548" lon="16.3301">
        <ele>36.441475</ele>
        <time>2024-07-28T15:07:41.672Z</time>
      </trkpt>
      <trkpt lat="54.36558" lon="16.33003">
        <ele>36.464991</ele>
        <time>2024-07-28T15:07:44.674Z</time>
      </trkpt>
      <trkpt lat="54.36567" lon="16.32997">
        <ele>36.488312</ele>
        <time>2024-07-28T15:07:47.652Z</time>
      </trkpt>
      <trkpt lat="54.36576" lon="16.32989">
        <ele>36.510956</ele>
        <time>2024-07-28T15:07:50.652Z</time>
      </trkpt>
      <trkpt lat="54.36585" lon="16.32981">
        <ele>36.534067</ele>
        <time>2024-07-28T15:07:53.657Z</time>
      </trkpt>
      <trkpt lat="54.36595" lon="16.32972">
        <ele>36.558701</ele>
        <time>2024-07-28T15:07:56.643Z</time>
      </trkpt>
      <trkpt lat="54.36604" lon="16.32964">
        <ele>36.581699</ele>
        <time>2024-07-28T15:07:59.647Z</time>
      </trkpt>
      <trkpt lat="54.36612" lon="16.32957">
        <ele>36.602582</ele>
        <time>2024-07-28T15:08:02.652Z</time>
      </trkpt>
      <trkpt lat="54.36622" lon="16.32946">
        <ele>36.62892</ele>
        <time>2024-07-28T15:08:06.625Z</time>
      </trkpt>
      <trkpt lat="54.3663" lon="16.32937">
        <ele>36.651057</ele>
        <time>2024-07-28T15:08:09.648Z</time>
      </trkpt>
      <trkpt lat="54.36639" lon="16.32928">
        <ele>36.674292</ele>
        <time>2024-07-28T15:08:12.653Z</time>
      </trkpt>
      <trkpt lat="54.36648" lon="16.32918">
        <ele>36.697741</ele>
        <time>2024-07-28T15:08:15.662Z</time>
      </trkpt>
      <trkpt lat="54.36656" lon="16.3291">
        <ele>36.719423</ele>
        <time>2024-07-28T15:08:18.667Z</time>
      </trkpt>
      <trkpt lat="54.36664" lon="16.32905">
        <ele>36.739811</ele>
        <time>2024-07-28T15:08:23.662Z</time>
      </trkpt>
      <trkpt lat="54.36672" lon="16.32891">
        <ele>36.764787</ele>
        <time>2024-07-28T15:10:09.663Z</time>
      </trkpt>
      <trkpt lat="54.36681" lon="16.32882">
        <ele>36.788762</ele>
        <time>2024-07-28T15:10:13.653Z</time>
      </trkpt>
      <trkpt lat="54.36689" lon="16.32872">
        <ele>36.811968</ele>
        <time>2024-07-28T15:10:16.637Z</time>
      </trkpt>
      <trkpt lat="54.36697" lon="16.32864">
        <ele>36.829106</ele>
        <time>2024-07-28T15:10:19.648Z</time>
      </trkpt>
      <trkpt lat="54.36706" lon="16.32854">
        <ele>36.82904</ele>
        <time>2024-07-28T15:10:22.652Z</time>
      </trkpt>
      <trkpt lat="54.36714" lon="16.32845">
        <ele>36.828973</ele>
        <time>2024-07-28T15:10:25.654Z</time>
      </trkpt>
      <trkpt lat="54.36722" lon="16.32835">
        <ele>36.828912</ele>
        <time>2024-07-28T15:10:28.666Z</time>
      </trkpt>
      <trkpt lat="54.36731" lon="16.32825">
        <ele>36.828845</ele>
        <time>2024-07-28T15:10:31.648Z</time>
      </trkpt>
      <trkpt lat="54.3674" lon="16.32815">
        <ele>36.828775</ele>
        <time>2024-07-28T15:10:34.651Z</time>
      </trkpt>
      <trkpt lat="54.3675" lon="16.32804">
        <ele>36.828698</ele>
        <time>2024-07-28T15:10:37.644Z</time>
      </trkpt>
      <trkpt lat="54.3676" lon="16.32792">
        <ele>36.82862</ele>
        <time>2024-07-28T15:10:40.656Z</time>
      </trkpt>
      <trkpt lat="54.3677" lon="16.32781">
        <ele>36.82854</ele>
        <time>2024-07-28T15:10:43.650Z</time>
      </trkpt>
      <trkpt lat="54.36781" lon="16.32769">
        <ele>36.828458</ele>
        <time>2024-07-28T15:10:46.633Z</time>
      </trkpt>
      <trkpt lat="54.36792" lon="16.32757">
        <ele>36.828373</ele>
        <time>2024-07-28T15:10:49.633Z</time>
      </trkpt>
      <trkpt lat="54.36802" lon="16.32745">
        <ele>36.82829</ele>
        <time>2024-07-28T15:10:52.647Z</time>
      </trkpt>
      <trkpt lat="54.36813" lon="16.32733">
        <ele>36.828206</ele>
        <time>2024-07-28T15:10:55.649Z</time>
      </trkpt>
      <trkpt lat="54.36824" lon="16.32722">
        <ele>36.828125</ele>
        <time>2024-07-28T15:10:58.648Z</time>
      </trkpt>
      <trkpt lat="54.36834" lon="16.3271">
        <ele>36.828044</ele>
        <time>2024-07-28T15:11:01.646Z</time>
      </trkpt>
      <trkpt lat="54.36845" lon="16.32699">
        <ele>36.827964</ele>
        <time>2024-07-28T15:11:04.653Z</time>
      </trkpt>
      <trkpt lat="54.36855" lon="16.32687">
        <ele>36.857336</ele>
        <time>2024-07-28T15:11:07.663Z</time>
      </trkpt>
      <trkpt lat="54.36866" lon="16.32675">
        <ele>36.893534</ele>
        <time>2024-07-28T15:11:10.646Z</time>
      </trkpt>
      <trkpt lat="54.36877" lon="16.32663">
        <ele>36.92791</ele>
        <time>2024-07-28T15:11:13.655Z</time>
      </trkpt>
      <trkpt lat="54.36887" lon="16.32651">
        <ele>36.963231</ele>
        <time>2024-07-28T15:11:16.646Z</time>
      </trkpt>
      <trkpt lat="54.36898" lon="16.32638">
        <ele>37.000208</ele>
        <time>2024-07-28T15:11:19.641Z</time>
      </trkpt>
      <trkpt lat="54.36906" lon="16.3263">
        <ele>37.025721</ele>
        <time>2024-07-28T15:11:21.660Z</time>
      </trkpt>
      <trkpt lat="54.36917" lon="16.32619">
        <ele>37.061922</ele>
        <time>2024-07-28T15:11:24.648Z</time>
      </trkpt>
      <trkpt lat="54.36928" lon="16.32608">
        <ele>37.096839</ele>
        <time>2024-07-28T15:11:27.660Z</time>
      </trkpt>
      <trkpt lat="54.36939" lon="16.32596">
        <ele>37.13378</ele>
        <time>2024-07-28T15:11:30.647Z</time>
      </trkpt>
      <trkpt lat="54.3695" lon="16.32584">
        <ele>37.170469</ele>
        <time>2024-07-28T15:11:33.665Z</time>
      </trkpt>
      <trkpt lat="54.36961" lon="16.32573">
        <ele>37.205783</ele>
        <time>2024-07-28T15:11:36.641Z</time>
      </trkpt>
      <trkpt lat="54.36972" lon="16.32561">
        <ele>37.242448</ele>
        <time>2024-07-28T15:11:39.643Z</time>
      </trkpt>
      <trkpt lat="54.36983" lon="16.3255">
        <ele>37.277517</ele>
        <time>2024-07-28T15:11:42.647Z</time>
      </trkpt>
      <trkpt lat="54.36994" lon="16.32541">
        <ele>37.311368</ele>
        <time>2024-07-28T15:11:45.669Z</time>
      </trkpt>
      <trkpt lat="54.37005" lon="16.32532">
        <ele>37.359135</ele>
        <time>2024-07-28T15:11:48.657Z</time>
      </trkpt>
      <trkpt lat="54.37016" lon="16.32524">
        <ele>37.418488</ele>
        <time>2024-07-28T15:11:51.646Z</time>
      </trkpt>
      <trkpt lat="54.37022" lon="16.32511">
        <ele>37.470565</ele>
        <time>2024-07-28T15:11:55.640Z</time>
      </trkpt>
      <trkpt lat="54.37019" lon="16.32492">
        <ele>37.527756</ele>
        <time>2024-07-28T15:12:00.640Z</time>
      </trkpt>
      <trkpt lat="54.37028" lon="16.32484">
        <ele>37.579024</ele>
        <time>2024-07-28T15:12:03.634Z</time>
      </trkpt>
      <trkpt lat="54.37038" lon="16.32477">
        <ele>37.635491</ele>
        <time>2024-07-28T15:12:06.662Z</time>
      </trkpt>
      <trkpt lat="54.37049" lon="16.32469">
        <ele>37.695316</ele>
        <time>2024-07-28T15:12:09.645Z</time>
      </trkpt>
      <trkpt lat="54.37059" lon="16.32461">
        <ele>37.754606</ele>
        <time>2024-07-28T15:12:12.654Z</time>
      </trkpt>
      <trkpt lat="54.37071" lon="16.32453">
        <ele>37.816996</ele>
        <time>2024-07-28T15:12:15.649Z</time>
      </trkpt>
      <trkpt lat="54.37081" lon="16.32446">
        <ele>37.873069</ele>
        <time>2024-07-28T15:12:18.630Z</time>
      </trkpt>
      <trkpt lat="54.37091" lon="16.32437">
        <ele>37.931973</ele>
        <time>2024-07-28T15:12:21.653Z</time>
      </trkpt>
      <trkpt lat="54.37102" lon="16.32426">
        <ele>37.998694</ele>
        <time>2024-07-28T15:12:24.651Z</time>
      </trkpt>
      <trkpt lat="54.37114" lon="16.32415">
        <ele>38.065041</ele>
        <time>2024-07-28T15:12:27.644Z</time>
      </trkpt>
      <trkpt lat="54.37126" lon="16.32406">
        <ele>38.13643</ele>
        <time>2024-07-28T15:12:30.641Z</time>
      </trkpt>
      <trkpt lat="54.37135" lon="16.324">
        <ele>38.182481</ele>
        <time>2024-07-28T15:12:32.658Z</time>
      </trkpt>
      <trkpt lat="54.37143" lon="16.32392">
        <ele>38.231371</ele>
        <time>2024-07-28T15:12:34.649Z</time>
      </trkpt>
      <trkpt lat="54.37151" lon="16.32385">
        <ele>38.247036</ele>
        <time>2024-07-28T15:12:36.632Z</time>
      </trkpt>
      <trkpt lat="54.3716" lon="16.32378">
        <ele>38.234043</ele>
        <time>2024-07-28T15:12:38.647Z</time>
      </trkpt>
      <trkpt lat="54.37168" lon="16.3237">
        <ele>38.220742</ele>
        <time>2024-07-28T15:12:40.660Z</time>
      </trkpt>
      <trkpt lat="54.37177" lon="16.32363">
        <ele>38.206862</ele>
        <time>2024-07-28T15:12:42.647Z</time>
      </trkpt>
      <trkpt lat="54.37186" lon="16.32356">
        <ele>38.192799</ele>
        <time>2024-07-28T15:12:44.651Z</time>
      </trkpt>
      <trkpt lat="54.37194" lon="16.32348">
        <ele>38.178941</ele>
        <time>2024-07-28T15:12:46.653Z</time>
      </trkpt>
      <trkpt lat="54.37203" lon="16.3234">
        <ele>38.164786</ele>
        <time>2024-07-28T15:12:48.652Z</time>
      </trkpt>
      <trkpt lat="54.37212" lon="16.32332">
        <ele>38.151209</ele>
        <time>2024-07-28T15:12:50.646Z</time>
      </trkpt>
      <trkpt lat="54.3722" lon="16.32323">
        <ele>38.137065</ele>
        <time>2024-07-28T15:12:52.653Z</time>
      </trkpt>
      <trkpt lat="54.37229" lon="16.32314">
        <ele>38.122799</ele>
        <time>2024-07-28T15:12:54.652Z</time>
      </trkpt>
      <trkpt lat="54.37238" lon="16.32305">
        <ele>38.10857</ele>
        <time>2024-07-28T15:12:56.640Z</time>
      </trkpt>
      <trkpt lat="54.37246" lon="16.32296">
        <ele>38.094241</ele>
        <time>2024-07-28T15:12:58.660Z</time>
      </trkpt>
      <trkpt lat="54.37254" lon="16.32287">
        <ele>38.0808</ele>
        <time>2024-07-28T15:13:00.664Z</time>
      </trkpt>
      <trkpt lat="54.37262" lon="16.32278">
        <ele>38.067258</ele>
        <time>2024-07-28T15:13:02.633Z</time>
      </trkpt>
      <trkpt lat="54.3727" lon="16.32269">
        <ele>38.054215</ele>
        <time>2024-07-28T15:13:04.653Z</time>
      </trkpt>
      <trkpt lat="54.37278" lon="16.3226">
        <ele>38.040983</ele>
        <time>2024-07-28T15:13:06.651Z</time>
      </trkpt>
      <trkpt lat="54.37285" lon="16.32252">
        <ele>38.027975</ele>
        <time>2024-07-28T15:13:08.653Z</time>
      </trkpt>
      <trkpt lat="54.37293" lon="16.32243">
        <ele>38.014417</ele>
        <time>2024-07-28T15:13:10.625Z</time>
      </trkpt>
      <trkpt lat="54.37301" lon="16.32233">
        <ele>38.000791</ele>
        <time>2024-07-28T15:13:12.641Z</time>
      </trkpt>
      <trkpt lat="54.3731" lon="16.32224">
        <ele>38</ele>
        <time>2024-07-28T15:13:14.660Z</time>
      </trkpt>
      <trkpt lat="54.37317" lon="16.32214">
        <ele>38</ele>
        <time>2024-07-28T15:13:16.658Z</time>
      </trkpt>
      <trkpt lat="54.37325" lon="16.32205">
        <ele>38</ele>
        <time>2024-07-28T15:13:18.650Z</time>
      </trkpt>
      <trkpt lat="54.37333" lon="16.32195">
        <ele>38</ele>
        <time>2024-07-28T15:13:20.650Z</time>
      </trkpt>
      <trkpt lat="54.37341" lon="16.32186">
        <ele>38</ele>
        <time>2024-07-28T15:13:22.652Z</time>
      </trkpt>
      <trkpt lat="54.37348" lon="16.32177">
        <ele>38</ele>
        <time>2024-07-28T15:13:24.653Z</time>
      </trkpt>
      <trkpt lat="54.37356" lon="16.32169">
        <ele>38</ele>
        <time>2024-07-28T15:13:26.647Z</time>
      </trkpt>
      <trkpt lat="54.37364" lon="16.32159">
        <ele>38</ele>
        <time>2024-07-28T15:13:28.654Z</time>
      </trkpt>
      <trkpt lat="54.37372" lon="16.3215">
        <ele>38</ele>
        <time>2024-07-28T15:13:30.644Z</time>
      </trkpt>
      <trkpt lat="54.37383" lon="16.32136">
        <ele>38</ele>
        <time>2024-07-28T15:13:33.664Z</time>
      </trkpt>
      <trkpt lat="54.3739" lon="16.32127">
        <ele>38</ele>
        <time>2024-07-28T15:13:35.656Z</time>
      </trkpt>
      <trkpt lat="54.37398" lon="16.32118">
        <ele>38</ele>
        <time>2024-07-28T15:13:37.645Z</time>
      </trkpt>
      <trkpt lat="54.37406" lon="16.32109">
        <ele>38</ele>
        <time>2024-07-28T15:13:39.645Z</time>
      </trkpt>
      <trkpt lat="54.37415" lon="16.321">
        <ele>38</ele>
        <time>2024-07-28T15:13:41.648Z</time>
      </trkpt>
      <trkpt lat="54.37423" lon="16.3209">
        <ele>38</ele>
        <time>2024-07-28T15:13:43.663Z</time>
      </trkpt>
      <trkpt lat="54.3743" lon="16.32081">
        <ele>38</ele>
        <time>2024-07-28T15:13:45.650Z</time>
      </trkpt>
      <trkpt lat="54.37437" lon="16.32071">
        <ele>38</ele>
        <time>2024-07-28T15:13:47.648Z</time>
      </trkpt>
      <trkpt lat="54.37445" lon="16.3206">
        <ele>38</ele>
        <time>2024-07-28T15:13:49.651Z</time>
      </trkpt>
      <trkpt lat="54.37455" lon="16.32045">
        <ele>37.976237</ele>
        <time>2024-07-28T15:13:52.651Z</time>
      </trkpt>
      <trkpt lat="54.37465" lon="16.3203">
        <ele>37.939345</ele>
        <time>2024-07-28T15:13:55.645Z</time>
      </trkpt>
      <trkpt lat="54.37474" lon="16.32015">
        <ele>37.904649</ele>
        <time>2024-07-28T15:13:58.654Z</time>
      </trkpt>
      <trkpt lat="54.37483" lon="16.32002">
        <ele>37.871795</ele>
        <time>2024-07-28T15:14:01.646Z</time>
      </trkpt>
      <trkpt lat="54.37491" lon="16.31989">
        <ele>37.842123</ele>
        <time>2024-07-28T15:14:04.642Z</time>
      </trkpt>
      <trkpt lat="54.37498" lon="16.31977">
        <ele>37.812822</ele>
        <time>2024-07-28T15:14:07.637Z</time>
      </trkpt>
      <trkpt lat="54.37506" lon="16.31963">
        <ele>37.781924</ele>
        <time>2024-07-28T15:14:10.654Z</time>
      </trkpt>
      <trkpt lat="54.37513" lon="16.31949">
        <ele>37.751575</ele>
        <time>2024-07-28T15:14:13.649Z</time>
      </trkpt>
      <trkpt lat="54.3752" lon="16.31936">
        <ele>37.721983</ele>
        <time>2024-07-28T15:14:16.647Z</time>
      </trkpt>
      <trkpt lat="54.37526" lon="16.31922">
        <ele>37.694959</ele>
        <time>2024-07-28T15:14:19.665Z</time>
      </trkpt>
      <trkpt lat="54.37535" lon="16.31928">
        <ele>37.668625</ele>
        <time>2024-07-28T15:14:24.653Z</time>
      </trkpt>
      <trkpt lat="54.37544" lon="16.31932">
        <ele>37.642841</ele>
        <time>2024-07-28T15:14:32.660Z</time>
      </trkpt>
      <trkpt lat="54.37551" lon="16.31916">
        <ele>37.610674</ele>
        <time>2024-07-28T15:14:35.626Z</time>
      </trkpt>
      <trkpt lat="54.37559" lon="16.31901">
        <ele>37.576505</ele>
        <time>2024-07-28T15:14:38.632Z</time>
      </trkpt>
      <trkpt lat="54.37568" lon="16.31886">
        <ele>37.543031</ele>
        <time>2024-07-28T15:14:41.645Z</time>
      </trkpt>
      <trkpt lat="54.37577" lon="16.31872">
        <ele>37.506908</ele>
        <time>2024-07-28T15:14:44.649Z</time>
      </trkpt>
      <trkpt lat="54.37585" lon="16.31862">
        <ele>37.483625</ele>
        <time>2024-07-28T15:14:46.635Z</time>
      </trkpt>
      <trkpt lat="54.37592" lon="16.31853">
        <ele>37.46153</ele>
        <time>2024-07-28T15:14:48.670Z</time>
      </trkpt>
      <trkpt lat="54.37603" lon="16.3184">
        <ele>37.429415</ele>
        <time>2024-07-28T15:14:51.650Z</time>
      </trkpt>
      <trkpt lat="54.37614" lon="16.3183">
        <ele>37.397769</ele>
        <time>2024-07-28T15:14:54.625Z</time>
      </trkpt>
      <trkpt lat="54.37626" lon="16.3182">
        <ele>37.366075</ele>
        <time>2024-07-28T15:14:57.620Z</time>
      </trkpt>
      <trkpt lat="54.37638" lon="16.31814">
        <ele>37.336736</ele>
        <time>2024-07-28T15:15:00.652Z</time>
      </trkpt>
      <trkpt lat="54.37649" lon="16.31808">
        <ele>37.306675</ele>
        <time>2024-07-28T15:15:03.644Z</time>
      </trkpt>
      <trkpt lat="54.37661" lon="16.31803">
        <ele>37.277229</ele>
        <time>2024-07-28T15:15:06.651Z</time>
      </trkpt>
      <trkpt lat="54.37673" lon="16.31798">
        <ele>37.246308</ele>
        <time>2024-07-28T15:15:09.654Z</time>
      </trkpt>
      <trkpt lat="54.37685" lon="16.31794">
        <ele>37.21734</ele>
        <time>2024-07-28T15:15:12.650Z</time>
      </trkpt>
      <trkpt lat="54.37696" lon="16.3179">
        <ele>37.189387</ele>
        <time>2024-07-28T15:15:15.656Z</time>
      </trkpt>
      <trkpt lat="54.37707" lon="16.31786">
        <ele>37.163193</ele>
        <time>2024-07-28T15:15:18.659Z</time>
      </trkpt>
      <trkpt lat="54.37716" lon="16.31784">
        <ele>37.140499</ele>
        <time>2024-07-28T15:15:21.645Z</time>
      </trkpt>
      <trkpt lat="54.37727" lon="16.3178">
        <ele>37.1135</ele>
        <time>2024-07-28T15:15:32.646Z</time>
      </trkpt>
      <trkpt lat="54.37738" lon="16.31774">
        <ele>37.084861</ele>
        <time>2024-07-28T15:15:36.648Z</time>
      </trkpt>
      <trkpt lat="54.37748" lon="16.31771">
        <ele>37.060828</ele>
        <time>2024-07-28T15:15:39.647Z</time>
      </trkpt>
      <trkpt lat="54.37757" lon="16.31769">
        <ele>37.104754</ele>
        <time>2024-07-28T15:15:42.662Z</time>
      </trkpt>
      <trkpt lat="54.37768" lon="16.31767">
        <ele>37.152766</ele>
        <time>2024-07-28T15:15:45.668Z</time>
      </trkpt>
      <trkpt lat="54.37778" lon="16.31766">
        <ele>37.201045</ele>
        <time>2024-07-28T15:15:48.668Z</time>
      </trkpt>
      <trkpt lat="54.37788" lon="16.31772">
        <ele>37.248693</ele>
        <time>2024-07-28T15:15:51.654Z</time>
      </trkpt>
      <trkpt lat="54.37798" lon="16.31777">
        <ele>37.299225</ele>
        <time>2024-07-28T15:15:54.652Z</time>
      </trkpt>
      <trkpt lat="54.37809" lon="16.31785">
        <ele>37.352497</ele>
        <time>2024-07-28T15:15:57.650Z</time>
      </trkpt>
      <trkpt lat="54.3782" lon="16.31795">
        <ele>37.408717</ele>
        <time>2024-07-28T15:16:00.663Z</time>
      </trkpt>
      <trkpt lat="54.3783" lon="16.31806">
        <ele>37.467906</ele>
        <time>2024-07-28T15:16:03.651Z</time>
      </trkpt>
      <trkpt lat="54.37842" lon="16.31819">
        <ele>37.529466</ele>
        <time>2024-07-28T15:16:06.637Z</time>
      </trkpt>
      <trkpt lat="54.37849" lon="16.31827">
        <ele>37.572845</ele>
        <time>2024-07-28T15:16:08.630Z</time>
      </trkpt>
      <trkpt lat="54.37858" lon="16.31836">
        <ele>37.617736</ele>
        <time>2024-07-28T15:16:10.649Z</time>
      </trkpt>
      <trkpt lat="54.37866" lon="16.31843">
        <ele>37.660861</ele>
        <time>2024-07-28T15:16:12.651Z</time>
      </trkpt>
      <trkpt lat="54.37874" lon="16.31851">
        <ele>37.702858</ele>
        <time>2024-07-28T15:16:14.662Z</time>
      </trkpt>
      <trkpt lat="54.37885" lon="16.31863">
        <ele>37.763051</ele>
        <time>2024-07-28T15:16:17.647Z</time>
      </trkpt>
      <trkpt lat="54.37896" lon="16.31872">
        <ele>37.820705</ele>
        <time>2024-07-28T15:16:20.649Z</time>
      </trkpt>
      <trkpt lat="54.37904" lon="16.3188">
        <ele>37.863775</ele>
        <time>2024-07-28T15:16:22.650Z</time>
      </trkpt>
      <trkpt lat="54.37912" lon="16.31889">
        <ele>37.904282</ele>
        <time>2024-07-28T15:16:24.642Z</time>
      </trkpt>
      <trkpt lat="54.37923" lon="16.31901">
        <ele>37.959172</ele>
        <time>2024-07-28T15:16:27.650Z</time>
      </trkpt>
      <trkpt lat="54.37933" lon="16.31912">
        <ele>38.004405</ele>
        <time>2024-07-28T15:16:30.651Z</time>
      </trkpt>
      <trkpt lat="54.37942" lon="16.31922">
        <ele>38.049157</ele>
        <time>2024-07-28T15:16:33.645Z</time>
      </trkpt>
      <trkpt lat="54.37953" lon="16.31933">
        <ele>38.098219</ele>
        <time>2024-07-28T15:16:36.644Z</time>
      </trkpt>
      <trkpt lat="54.37964" lon="16.31943">
        <ele>38.149831</ele>
        <time>2024-07-28T15:16:39.649Z</time>
      </trkpt>
      <trkpt lat="54.37975" lon="16.31953">
        <ele>38.196655</ele>
        <time>2024-07-28T15:16:42.651Z</time>
      </trkpt>
      <trkpt lat="54.37985" lon="16.31962">
        <ele>38.241549</ele>
        <time>2024-07-28T15:16:45.654Z</time>
      </trkpt>
      <trkpt lat="54.37996" lon="16.3197">
        <ele>38.29026</ele>
        <time>2024-07-28T15:16:48.651Z</time>
      </trkpt>
      <trkpt lat="54.38009" lon="16.31975">
        <ele>38.341302</ele>
        <time>2024-07-28T15:16:51.634Z</time>
      </trkpt>
      <trkpt lat="54.38021" lon="16.31981">
        <ele>38.39123</ele>
        <time>2024-07-28T15:16:54.661Z</time>
      </trkpt>
      <trkpt lat="54.38034" lon="16.3198">
        <ele>38.443328</ele>
        <time>2024-07-28T15:16:57.635Z</time>
      </trkpt>
      <trkpt lat="54.38046" lon="16.31984">
        <ele>38.490763</ele>
        <time>2024-07-28T15:17:00.628Z</time>
      </trkpt>
      <trkpt lat="54.38056" lon="16.3199">
        <ele>38.535971</ele>
        <time>2024-07-28T15:17:03.651Z</time>
      </trkpt>
      <trkpt lat="54.38068" lon="16.31997">
        <ele>38.582907</ele>
        <time>2024-07-28T15:17:06.633Z</time>
      </trkpt>
      <trkpt lat="54.3808" lon="16.32001">
        <ele>38.538847</ele>
        <time>2024-07-28T15:17:09.633Z</time>
      </trkpt>
      <trkpt lat="54.38093" lon="16.32005">
        <ele>38.387165</ele>
        <time>2024-07-28T15:17:12.661Z</time>
      </trkpt>
      <trkpt lat="54.38105" lon="16.32008">
        <ele>38.244844</ele>
        <time>2024-07-28T15:17:15.658Z</time>
      </trkpt>
      <trkpt lat="54.38114" lon="16.3201">
        <ele>38.135389</ele>
        <time>2024-07-28T15:17:18.661Z</time>
      </trkpt>
      <trkpt lat="54.38124" lon="16.32013">
        <ele>38.020692</ele>
        <time>2024-07-28T15:17:23.628Z</time>
      </trkpt>
      <trkpt lat="54.38133" lon="16.32009">
        <ele>37.910462</ele>
        <time>2024-07-28T15:17:27.641Z</time>
      </trkpt>
      <trkpt lat="54.38141" lon="16.31997">
        <ele>37.785393</ele>
        <time>2024-07-28T15:17:32.652Z</time>
      </trkpt>
      <trkpt lat="54.38151" lon="16.31995">
        <ele>37.669978</ele>
        <time>2024-07-28T15:17:36.642Z</time>
      </trkpt>
      <trkpt lat="54.38162" lon="16.31993">
        <ele>37.539735</ele>
        <time>2024-07-28T15:17:40.672Z</time>
      </trkpt>
      <trkpt lat="54.38173" lon="16.31986">
        <ele>37.406862</ele>
        <time>2024-07-28T15:17:44.651Z</time>
      </trkpt>
      <trkpt lat="54.38179" lon="16.31999">
        <ele>37.296742</ele>
        <time>2024-07-28T15:17:49.647Z</time>
      </trkpt>
      <trkpt lat="54.38185" lon="16.32015">
        <ele>37.164228</ele>
        <time>2024-07-28T15:17:53.660Z</time>
      </trkpt>
      <trkpt lat="54.3819" lon="16.32029">
        <ele>37.058105</ele>
        <time>2024-07-28T15:17:56.651Z</time>
      </trkpt>
      <trkpt lat="54.38199" lon="16.32032">
        <ele>36.942498</ele>
        <time>2024-07-28T15:18:00.652Z</time>
      </trkpt>
      <trkpt lat="54.38209" lon="16.32029">
        <ele>36.832426</ele>
        <time>2024-07-28T15:18:04.647Z</time>
      </trkpt>
      <trkpt lat="54.38215" lon="16.3204">
        <ele>36.72406</ele>
        <time>2024-07-28T15:18:14.634Z</time>
      </trkpt>
      <trkpt lat="54.38213" lon="16.32018">
        <ele>36.577871</ele>
        <time>2024-07-28T15:20:13.642Z</time>
      </trkpt>
      <trkpt lat="54.38203" lon="16.3202">
        <ele>36.495781</ele>
        <time>2024-07-28T15:20:17.636Z</time>
      </trkpt>
      <trkpt lat="54.38193" lon="16.32018">
        <ele>36.464115</ele>
        <time>2024-07-28T15:20:21.658Z</time>
      </trkpt>
      <trkpt lat="54.38186" lon="16.32003">
        <ele>36.426423</ele>
        <time>2024-07-28T15:20:25.651Z</time>
      </trkpt>
      <trkpt lat="54.38179" lon="16.3199">
        <ele>36.393289</ele>
        <time>2024-07-28T15:20:29.670Z</time>
      </trkpt>
      <trkpt lat="54.3817" lon="16.31985">
        <ele>36.359195</ele>
        <time>2024-07-28T15:20:35.637Z</time>
      </trkpt>
      <trkpt lat="54.38154" lon="16.31994">
        <ele>36.304732</ele>
        <time>2024-07-28T15:21:14.655Z</time>
      </trkpt>
      <trkpt lat="54.38145" lon="16.31997">
        <ele>36.274219</ele>
        <time>2024-07-28T15:21:18.649Z</time>
      </trkpt>
      <trkpt lat="54.38136" lon="16.31999">
        <ele>36.243736</ele>
        <time>2024-07-28T15:21:22.634Z</time>
      </trkpt>
      <trkpt lat="54.38128" lon="16.32008">
        <ele>36.210492</ele>
        <time>2024-07-28T15:21:27.662Z</time>
      </trkpt>
      <trkpt lat="54.38117" lon="16.32008">
        <ele>36.175649</ele>
        <time>2024-07-28T15:21:31.649Z</time>
      </trkpt>
      <trkpt lat="54.38107" lon="16.32008">
        <ele>36.141141</ele>
        <time>2024-07-28T15:21:35.648Z</time>
      </trkpt>
      <trkpt lat="54.38095" lon="16.32006">
        <ele>36.101333</ele>
        <time>2024-07-28T15:21:39.653Z</time>
      </trkpt>
      <trkpt lat="54.38086" lon="16.32003">
        <ele>36.069338</ele>
        <time>2024-07-28T15:21:42.644Z</time>
      </trkpt>
      <trkpt lat="54.38077" lon="16.32001">
        <ele>36.038761</ele>
        <time>2024-07-28T15:21:45.658Z</time>
      </trkpt>
      <trkpt lat="54.38068" lon="16.31996">
        <ele>36.007634</ele>
        <time>2024-07-28T15:21:48.667Z</time>
      </trkpt>
      <trkpt lat="54.38057" lon="16.3199">
        <ele>35.96893</ele>
        <time>2024-07-28T15:21:52.657Z</time>
      </trkpt>
      <trkpt lat="54.38046" lon="16.31982">
        <ele>35.930218</ele>
        <time>2024-07-28T15:21:56.653Z</time>
      </trkpt>
      <trkpt lat="54.38038" lon="16.31978">
        <ele>35.885764</ele>
        <time>2024-07-28T15:21:59.661Z</time>
      </trkpt>
      <trkpt lat="54.38028" lon="16.3198">
        <ele>35.820551</ele>
        <time>2024-07-28T15:22:02.653Z</time>
      </trkpt>
      <trkpt lat="54.38017" lon="16.31977">
        <ele>35.740786</ele>
        <time>2024-07-28T15:22:06.668Z</time>
      </trkpt>
      <trkpt lat="54.38008" lon="16.31972">
        <ele>35.676911</ele>
        <time>2024-07-28T15:22:09.659Z</time>
      </trkpt>
      <trkpt lat="54.37997" lon="16.31967">
        <ele>35.598039</ele>
        <time>2024-07-28T15:22:13.661Z</time>
      </trkpt>
      <trkpt lat="54.37987" lon="16.31962">
        <ele>35.519705</ele>
        <time>2024-07-28T15:22:17.661Z</time>
      </trkpt>
      <trkpt lat="54.37976" lon="16.31955">
        <ele>35.443371</ele>
        <time>2024-07-28T15:22:21.657Z</time>
      </trkpt>
      <trkpt lat="54.37967" lon="16.31945">
        <ele>35.36875</ele>
        <time>2024-07-28T15:22:25.667Z</time>
      </trkpt>
      <trkpt lat="54.37959" lon="16.31937">
        <ele>35.302299</ele>
        <time>2024-07-28T15:22:28.658Z</time>
      </trkpt>
      <trkpt lat="54.3795" lon="16.3193">
        <ele>35.233346</ele>
        <time>2024-07-28T15:22:31.676Z</time>
      </trkpt>
      <trkpt lat="54.37942" lon="16.31921">
        <ele>35.166427</ele>
        <time>2024-07-28T15:22:34.664Z</time>
      </trkpt>
      <trkpt lat="54.37933" lon="16.31912">
        <ele>35.092447</ele>
        <time>2024-07-28T15:22:38.664Z</time>
      </trkpt>
      <trkpt lat="54.37923" lon="16.31902">
        <ele>35.011368</ele>
        <time>2024-07-28T15:22:42.676Z</time>
      </trkpt>
      <trkpt lat="54.37913" lon="16.31891">
        <ele>34.932929</ele>
        <time>2024-07-28T15:22:46.644Z</time>
      </trkpt>
      <trkpt lat="54.37906" lon="16.31883">
        <ele>34.869289</ele>
        <time>2024-07-28T15:22:50.664Z</time>
      </trkpt>
      <trkpt lat="54.37897" lon="16.31894">
        <ele>34.795289</ele>
        <time>2024-07-28T15:22:56.665Z</time>
      </trkpt>
      <trkpt lat="54.37891" lon="16.31911">
        <ele>34.71691</ele>
        <time>2024-07-28T15:23:00.650Z</time>
      </trkpt>
      <trkpt lat="54.37885" lon="16.31925">
        <ele>34.666491</ele>
        <time>2024-07-28T15:23:04.663Z</time>
      </trkpt>
      <trkpt lat="54.37881" lon="16.31942">
        <ele>34.757204</ele>
        <time>2024-07-28T15:23:08.657Z</time>
      </trkpt>
      <trkpt lat="54.37876" lon="16.31956">
        <ele>34.83842</ele>
        <time>2024-07-28T15:23:12.654Z</time>
      </trkpt>
      <trkpt lat="54.37872" lon="16.31973">
        <ele>34.930745</ele>
        <time>2024-07-28T15:23:16.642Z</time>
      </trkpt>
      <trkpt lat="54.37869" lon="16.31988">
        <ele>35.008696</ele>
        <time>2024-07-28T15:23:19.662Z</time>
      </trkpt>
      <trkpt lat="54.37865" lon="16.32003">
        <ele>35.086726</ele>
        <time>2024-07-28T15:23:22.641Z</time>
      </trkpt>
      <trkpt lat="54.37859" lon="16.3202">
        <ele>35.18712</ele>
        <time>2024-07-28T15:23:26.637Z</time>
      </trkpt>
      <trkpt lat="54.37854" lon="16.32037">
        <ele>35.279538</ele>
        <time>2024-07-28T15:23:30.664Z</time>
      </trkpt>
      <trkpt lat="54.37849" lon="16.32052">
        <ele>35.364549</ele>
        <time>2024-07-28T15:23:34.666Z</time>
      </trkpt>
      <trkpt lat="54.37844" lon="16.32067">
        <ele>35.4476</ele>
        <time>2024-07-28T15:23:41.650Z</time>
      </trkpt>
      <trkpt lat="54.3784" lon="16.32081">
        <ele>35.526</ele>
        <time>2024-07-28T15:23:44.666Z</time>
      </trkpt>
      <trkpt lat="54.37836" lon="16.32096">
        <ele>35.608515</ele>
        <time>2024-07-28T15:23:47.629Z</time>
      </trkpt>
      <trkpt lat="54.37831" lon="16.3211">
        <ele>35.690139</ele>
        <time>2024-07-28T15:23:50.669Z</time>
      </trkpt>
      <trkpt lat="54.37826" lon="16.32125">
        <ele>35.774734</ele>
        <time>2024-07-28T15:23:53.656Z</time>
      </trkpt>
      <trkpt lat="54.37821" lon="16.3214">
        <ele>35.856788</ele>
        <time>2024-07-28T15:23:56.672Z</time>
      </trkpt>
      <trkpt lat="54.37817" lon="16.32156">
        <ele>35.946631</ele>
        <time>2024-07-28T15:23:59.656Z</time>
      </trkpt>
      <trkpt lat="54.37811" lon="16.32175">
        <ele>36.050786</ele>
        <time>2024-07-28T15:24:02.652Z</time>
      </trkpt>
      <trkpt lat="54.37805" lon="16.32191">
        <ele>36.145603</ele>
        <time>2024-07-28T15:24:05.648Z</time>
      </trkpt>
      <trkpt lat="54.378" lon="16.32206">
        <ele>36.219739</ele>
        <time>2024-07-28T15:24:08.646Z</time>
      </trkpt>
      <trkpt lat="54.37796" lon="16.32223">
        <ele>36.290048</ele>
        <time>2024-07-28T15:24:12.643Z</time>
      </trkpt>
      <trkpt lat="54.37792" lon="16.32239">
        <ele>36.359014</ele>
        <time>2024-07-28T15:24:16.658Z</time>
      </trkpt>
      <trkpt lat="54.37787" lon="16.32255">
        <ele>36.427056</ele>
        <time>2024-07-28T15:24:20.666Z</time>
      </trkpt>
      <trkpt lat="54.37792" lon="16.32268">
        <ele>36.488596</ele>
        <time>2024-07-28T15:24:26.640Z</time>
      </trkpt>
      <trkpt lat="54.37803" lon="16.32261">
        <ele>36.562231</ele>
        <time>2024-07-28T15:24:30.660Z</time>
      </trkpt>
      <trkpt lat="54.37812" lon="16.32256">
        <ele>36.629506</ele>
        <time>2024-07-28T15:24:33.653Z</time>
      </trkpt>
      <trkpt lat="54.37822" lon="16.32252">
        <ele>36.698629</ele>
        <time>2024-07-28T15:24:36.663Z</time>
      </trkpt>
      <trkpt lat="54.37832" lon="16.32247">
        <ele>36.766563</ele>
        <time>2024-07-28T15:24:39.648Z</time>
      </trkpt>
      <trkpt lat="54.37843" lon="16.32244">
        <ele>36.839831</ele>
        <time>2024-07-28T15:24:42.656Z</time>
      </trkpt>
      <trkpt lat="54.37854" lon="16.32241">
        <ele>36.912076</ele>
        <time>2024-07-28T15:24:45.636Z</time>
      </trkpt>
      <trkpt lat="54.37865" lon="16.3224">
        <ele>36.990541</ele>
        <time>2024-07-28T15:24:48.651Z</time>
      </trkpt>
      <trkpt lat="54.37876" lon="16.3224">
        <ele>37.063448</ele>
        <time>2024-07-28T15:24:51.652Z</time>
      </trkpt>
      <trkpt lat="54.37887" lon="16.32242">
        <ele>37.137187</ele>
        <time>2024-07-28T15:24:54.644Z</time>
      </trkpt>
      <trkpt lat="54.37898" lon="16.32245">
        <ele>37.210327</ele>
        <time>2024-07-28T15:24:57.652Z</time>
      </trkpt>
      <trkpt lat="54.37909" lon="16.3225">
        <ele>37.285108</ele>
        <time>2024-07-28T15:25:00.639Z</time>
      </trkpt>
      <trkpt lat="54.3792" lon="16.32256">
        <ele>37.362675</ele>
        <time>2024-07-28T15:25:03.652Z</time>
      </trkpt>
      <trkpt lat="54.37931" lon="16.32263">
        <ele>37.380322</ele>
        <time>2024-07-28T15:25:06.662Z</time>
      </trkpt>
      <trkpt lat="54.37943" lon="16.32271">
        <ele>37.383789</ele>
        <time>2024-07-28T15:25:09.652Z</time>
      </trkpt>
      <trkpt lat="54.37954" lon="16.32278">
        <ele>37.387067</ele>
        <time>2024-07-28T15:25:12.652Z</time>
      </trkpt>
      <trkpt lat="54.37964" lon="16.32283">
        <ele>37.390318</ele>
        <time>2024-07-28T15:25:15.669Z</time>
      </trkpt>
      <trkpt lat="54.37975" lon="16.3229">
        <ele>37.39359</ele>
        <time>2024-07-28T15:25:18.636Z</time>
      </trkpt>
      <trkpt lat="54.37986" lon="16.32297">
        <ele>37.396898</ele>
        <time>2024-07-28T15:25:21.652Z</time>
      </trkpt>
      <trkpt lat="54.37996" lon="16.32305">
        <ele>37.400067</ele>
        <time>2024-07-28T15:25:24.657Z</time>
      </trkpt>
      <trkpt lat="54.38007" lon="16.32311">
        <ele>37.403349</ele>
        <time>2024-07-28T15:25:27.653Z</time>
      </trkpt>
      <trkpt lat="54.38018" lon="16.32318">
        <ele>37.406551</ele>
        <time>2024-07-28T15:25:30.655Z</time>
      </trkpt>
      <trkpt lat="54.38028" lon="16.32327">
        <ele>37.409845</ele>
        <time>2024-07-28T15:25:33.650Z</time>
      </trkpt>
      <trkpt lat="54.38038" lon="16.32334">
        <ele>37.412956</ele>
        <time>2024-07-28T15:25:36.658Z</time>
      </trkpt>
      <trkpt lat="54.38048" lon="16.32342">
        <ele>37.416045</ele>
        <time>2024-07-28T15:25:39.648Z</time>
      </trkpt>
      <trkpt lat="54.38058" lon="16.32348">
        <ele>37.419031</ele>
        <time>2024-07-28T15:25:42.658Z</time>
      </trkpt>
      <trkpt lat="54.38068" lon="16.32355">
        <ele>37.422066</ele>
        <time>2024-07-28T15:25:45.640Z</time>
      </trkpt>
      <trkpt lat="54.38077" lon="16.32361">
        <ele>37.424809</ele>
        <time>2024-07-28T15:25:48.624Z</time>
      </trkpt>
      <trkpt lat="54.3808" lon="16.32378">
        <ele>37.427785</ele>
        <time>2024-07-28T15:25:52.649Z</time>
      </trkpt>
      <trkpt lat="54.38076" lon="16.32392">
        <ele>37.428689</ele>
        <time>2024-07-28T15:25:55.645Z</time>
      </trkpt>
      <trkpt lat="54.38071" lon="16.32407">
        <ele>37.428689</ele>
        <time>2024-07-28T15:25:58.657Z</time>
      </trkpt>
      <trkpt lat="54.38066" lon="16.32422">
        <ele>37.428689</ele>
        <time>2024-07-28T15:26:01.646Z</time>
      </trkpt>
      <trkpt lat="54.38061" lon="16.32437">
        <ele>37.428689</ele>
        <time>2024-07-28T15:26:04.638Z</time>
      </trkpt>
      <trkpt lat="54.38055" lon="16.3245">
        <ele>37.428689</ele>
        <time>2024-07-28T15:26:07.648Z</time>
      </trkpt>
      <trkpt lat="54.3805" lon="16.32464">
        <ele>37.428689</ele>
        <time>2024-07-28T15:26:10.647Z</time>
      </trkpt>
      <trkpt lat="54.38044" lon="16.32481">
        <ele>37.428689</ele>
        <time>2024-07-28T15:26:14.641Z</time>
      </trkpt>
      <trkpt lat="54.38038" lon="16.32497">
        <ele>37.428689</ele>
        <time>2024-07-28T15:26:18.650Z</time>
      </trkpt>
      <trkpt lat="54.38033" lon="16.32511">
        <ele>37.428689</ele>
        <time>2024-07-28T15:26:22.636Z</time>
      </trkpt>
      <trkpt lat="54.38028" lon="16.32524">
        <ele>37.428689</ele>
        <time>2024-07-28T15:26:26.661Z</time>
      </trkpt>
      <trkpt lat="54.38021" lon="16.32537">
        <ele>37.428689</ele>
        <time>2024-07-28T15:26:31.638Z</time>
      </trkpt>
      <trkpt lat="54.38015" lon="16.32552">
        <ele>37.428689</ele>
        <time>2024-07-28T15:26:36.623Z</time>
      </trkpt>
      <trkpt lat="54.38008" lon="16.32564">
        <ele>37.428689</ele>
        <time>2024-07-28T15:26:41.646Z</time>
      </trkpt>
    </trkseg>
  </trk>
</gpx>